<?xml version="1.0" encoding="UTF-8"?>
<gpx version="1.1" creator="https://www.youtrack.es" xsi:schemaLocation="http://www.topografix.com/GPX/1/1 http://www.topografix.com/GPX/1/1/gpx.xsd http://www.garmin.com/xmlschemas/GpxExtensions/v3 http://www.garmin.com/xmlschemas/GpxExtensionsv3.xsd http://www.garmin.com/xmlschemas/TrackPointExtension/v1 http://www.garmin.com/xmlschemas/TrackPointExtensionv1.xsd" xmlns:gpxtpx="http://www.garmin.com/xmlschemas/TrackPointExtension/v1" xmlns:gpxx="http://www.garmin.com/xmlschemas/GpxExtensions/v3" xmlns:xsi="http://www.w3.org/2001/XMLSchema-instance">
  <metadata>
    <link href="https://www.youtrack.es">
      <text>YouTrack.es</text>
    </link>
    <time>2026-05-08T14:37:06Z</time>
  </metadata>
  <trk>
    <src>https://www.youtrack.es</src>
    <link href="https://www.youtrack.es/ruta/32310-cerro-del-hierro--cascada-del-rio-hueznar-san-nicolas-del-puerto">
      <text>YouTrack.es</text>
    </link>
    <trkseg>
      <trkpt lat="37.9586180" lon="-5.6220770">
        <ele>656.6</ele>
        <time>2022-05-22T07:11:53Z</time>
      </trkpt>
      <trkpt lat="37.9586110" lon="-5.6220760">
        <ele>656.6</ele>
        <time>2022-05-22T07:11:54Z</time>
      </trkpt>
      <trkpt lat="37.9586030" lon="-5.6220760">
        <ele>656.6</ele>
        <time>2022-05-22T07:11:55Z</time>
      </trkpt>
      <trkpt lat="37.9585960" lon="-5.6220770">
        <ele>656.6</ele>
        <time>2022-05-22T07:11:56Z</time>
      </trkpt>
      <trkpt lat="37.9585870" lon="-5.6220800">
        <ele>656.7</ele>
        <time>2022-05-22T07:11:57Z</time>
      </trkpt>
      <trkpt lat="37.9585650" lon="-5.6220890">
        <ele>656.7</ele>
        <time>2022-05-22T07:11:58Z</time>
      </trkpt>
      <trkpt lat="37.9585550" lon="-5.6220930">
        <ele>656.7</ele>
        <time>2022-05-22T07:11:59Z</time>
      </trkpt>
      <trkpt lat="37.9585460" lon="-5.6220970">
        <ele>656.7</ele>
        <time>2022-05-22T07:12:00Z</time>
      </trkpt>
      <trkpt lat="37.9585300" lon="-5.6221000">
        <ele>656.8</ele>
        <time>2022-05-22T07:12:01Z</time>
      </trkpt>
      <trkpt lat="37.9585140" lon="-5.6221030">
        <ele>656.8</ele>
        <time>2022-05-22T07:12:02Z</time>
      </trkpt>
      <trkpt lat="37.9584980" lon="-5.6221050">
        <ele>656.8</ele>
        <time>2022-05-22T07:12:03Z</time>
      </trkpt>
      <trkpt lat="37.9584850" lon="-5.6221040">
        <ele>656.8</ele>
        <time>2022-05-22T07:12:04Z</time>
      </trkpt>
      <trkpt lat="37.9584740" lon="-5.6221030">
        <ele>656.8</ele>
        <time>2022-05-22T07:12:05Z</time>
      </trkpt>
      <trkpt lat="37.9584610" lon="-5.6220980">
        <ele>656.9</ele>
        <time>2022-05-22T07:12:06Z</time>
      </trkpt>
      <trkpt lat="37.9584510" lon="-5.6220930">
        <ele>656.9</ele>
        <time>2022-05-22T07:12:07Z</time>
      </trkpt>
      <trkpt lat="37.9584440" lon="-5.6220820">
        <ele>656.9</ele>
        <time>2022-05-22T07:12:08Z</time>
      </trkpt>
      <trkpt lat="37.9584400" lon="-5.6220670">
        <ele>656.9</ele>
        <time>2022-05-22T07:12:09Z</time>
      </trkpt>
      <trkpt lat="37.9584350" lon="-5.6220480">
        <ele>656.9</ele>
        <time>2022-05-22T07:12:11Z</time>
      </trkpt>
      <trkpt lat="37.9584300" lon="-5.6220380">
        <ele>657.0</ele>
        <time>2022-05-22T07:12:12Z</time>
      </trkpt>
      <trkpt lat="37.9584210" lon="-5.6220300">
        <ele>657.0</ele>
        <time>2022-05-22T07:12:13Z</time>
      </trkpt>
      <trkpt lat="37.9584100" lon="-5.6220230">
        <ele>657.0</ele>
        <time>2022-05-22T07:12:14Z</time>
      </trkpt>
      <trkpt lat="37.9583930" lon="-5.6220170">
        <ele>657.0</ele>
        <time>2022-05-22T07:12:15Z</time>
      </trkpt>
      <trkpt lat="37.9583800" lon="-5.6220110">
        <ele>657.1</ele>
        <time>2022-05-22T07:12:17Z</time>
      </trkpt>
      <trkpt lat="37.9583670" lon="-5.6220080">
        <ele>657.1</ele>
        <time>2022-05-22T07:12:18Z</time>
      </trkpt>
      <trkpt lat="37.9583500" lon="-5.6220100">
        <ele>657.1</ele>
        <time>2022-05-22T07:12:19Z</time>
      </trkpt>
      <trkpt lat="37.9583250" lon="-5.6220200">
        <ele>657.2</ele>
        <time>2022-05-22T07:12:20Z</time>
      </trkpt>
      <trkpt lat="37.9583150" lon="-5.6220250">
        <ele>657.2</ele>
        <time>2022-05-22T07:12:21Z</time>
      </trkpt>
      <trkpt lat="37.9583020" lon="-5.6220320">
        <ele>657.2</ele>
        <time>2022-05-22T07:12:23Z</time>
      </trkpt>
      <trkpt lat="37.9582880" lon="-5.6220430">
        <ele>657.3</ele>
        <time>2022-05-22T07:12:24Z</time>
      </trkpt>
      <trkpt lat="37.9582730" lon="-5.6220550">
        <ele>657.3</ele>
        <time>2022-05-22T07:12:25Z</time>
      </trkpt>
      <trkpt lat="37.9582600" lon="-5.6220660">
        <ele>657.3</ele>
        <time>2022-05-22T07:12:26Z</time>
      </trkpt>
      <trkpt lat="37.9582400" lon="-5.6220770">
        <ele>657.4</ele>
        <time>2022-05-22T07:12:27Z</time>
      </trkpt>
      <trkpt lat="37.9582260" lon="-5.6220800">
        <ele>657.4</ele>
        <time>2022-05-22T07:12:29Z</time>
      </trkpt>
      <trkpt lat="37.9582140" lon="-5.6220880">
        <ele>657.4</ele>
        <time>2022-05-22T07:12:30Z</time>
      </trkpt>
      <trkpt lat="37.9582080" lon="-5.6220950">
        <ele>657.4</ele>
        <time>2022-05-22T07:12:31Z</time>
      </trkpt>
      <trkpt lat="37.9582060" lon="-5.6221020">
        <ele>657.4</ele>
        <time>2022-05-22T07:12:32Z</time>
      </trkpt>
      <trkpt lat="37.9582020" lon="-5.6221050">
        <ele>657.4</ele>
        <time>2022-05-22T07:12:33Z</time>
      </trkpt>
      <trkpt lat="37.9581970" lon="-5.6221090">
        <ele>657.4</ele>
        <time>2022-05-22T07:12:34Z</time>
      </trkpt>
      <trkpt lat="37.9581880" lon="-5.6221050">
        <ele>657.4</ele>
        <time>2022-05-22T07:12:35Z</time>
      </trkpt>
      <trkpt lat="37.9581800" lon="-5.6221040">
        <ele>657.4</ele>
        <time>2022-05-22T07:12:36Z</time>
      </trkpt>
      <trkpt lat="37.9581700" lon="-5.6221000">
        <ele>657.4</ele>
        <time>2022-05-22T07:12:37Z</time>
      </trkpt>
      <trkpt lat="37.9581590" lon="-5.6220920">
        <ele>657.4</ele>
        <time>2022-05-22T07:12:38Z</time>
      </trkpt>
      <trkpt lat="37.9581520" lon="-5.6220810">
        <ele>657.4</ele>
        <time>2022-05-22T07:12:39Z</time>
      </trkpt>
      <trkpt lat="37.9581450" lon="-5.6220710">
        <ele>657.4</ele>
        <time>2022-05-22T07:12:40Z</time>
      </trkpt>
      <trkpt lat="37.9581380" lon="-5.6220660">
        <ele>657.4</ele>
        <time>2022-05-22T07:12:41Z</time>
      </trkpt>
      <trkpt lat="37.9581300" lon="-5.6220620">
        <ele>657.3</ele>
        <time>2022-05-22T07:12:42Z</time>
      </trkpt>
      <trkpt lat="37.9581210" lon="-5.6220570">
        <ele>657.3</ele>
        <time>2022-05-22T07:12:43Z</time>
      </trkpt>
      <trkpt lat="37.9581130" lon="-5.6220550">
        <ele>657.3</ele>
        <time>2022-05-22T07:12:44Z</time>
      </trkpt>
      <trkpt lat="37.9581040" lon="-5.6220520">
        <ele>657.3</ele>
        <time>2022-05-22T07:12:45Z</time>
      </trkpt>
      <trkpt lat="37.9580920" lon="-5.6220500">
        <ele>657.3</ele>
        <time>2022-05-22T07:12:47Z</time>
      </trkpt>
      <trkpt lat="37.9580830" lon="-5.6220500">
        <ele>657.2</ele>
        <time>2022-05-22T07:12:48Z</time>
      </trkpt>
      <trkpt lat="37.9580700" lon="-5.6220510">
        <ele>657.2</ele>
        <time>2022-05-22T07:12:49Z</time>
      </trkpt>
      <trkpt lat="37.9580600" lon="-5.6220510">
        <ele>657.2</ele>
        <time>2022-05-22T07:12:50Z</time>
      </trkpt>
      <trkpt lat="37.9580520" lon="-5.6220510">
        <ele>657.2</ele>
        <time>2022-05-22T07:12:51Z</time>
      </trkpt>
      <trkpt lat="37.9580430" lon="-5.6220530">
        <ele>657.1</ele>
        <time>2022-05-22T07:12:52Z</time>
      </trkpt>
      <trkpt lat="37.9580330" lon="-5.6220550">
        <ele>657.1</ele>
        <time>2022-05-22T07:12:53Z</time>
      </trkpt>
      <trkpt lat="37.9580230" lon="-5.6220580">
        <ele>657.1</ele>
        <time>2022-05-22T07:12:54Z</time>
      </trkpt>
      <trkpt lat="37.9580160" lon="-5.6220620">
        <ele>657.1</ele>
        <time>2022-05-22T07:12:55Z</time>
      </trkpt>
      <trkpt lat="37.9579990" lon="-5.6220680">
        <ele>657.0</ele>
        <time>2022-05-22T07:12:57Z</time>
      </trkpt>
      <trkpt lat="37.9579910" lon="-5.6220700">
        <ele>657.0</ele>
        <time>2022-05-22T07:12:58Z</time>
      </trkpt>
      <trkpt lat="37.9579840" lon="-5.6220720">
        <ele>657.0</ele>
        <time>2022-05-22T07:12:59Z</time>
      </trkpt>
      <trkpt lat="37.9579780" lon="-5.6220750">
        <ele>657.0</ele>
        <time>2022-05-22T07:13:00Z</time>
      </trkpt>
      <trkpt lat="37.9579710" lon="-5.6220770">
        <ele>657.0</ele>
        <time>2022-05-22T07:13:01Z</time>
      </trkpt>
      <trkpt lat="37.9579630" lon="-5.6220810">
        <ele>656.9</ele>
        <time>2022-05-22T07:13:02Z</time>
      </trkpt>
      <trkpt lat="37.9579550" lon="-5.6220830">
        <ele>656.9</ele>
        <time>2022-05-22T07:13:03Z</time>
      </trkpt>
      <trkpt lat="37.9579470" lon="-5.6220860">
        <ele>656.9</ele>
        <time>2022-05-22T07:13:04Z</time>
      </trkpt>
      <trkpt lat="37.9579400" lon="-5.6220870">
        <ele>656.9</ele>
        <time>2022-05-22T07:13:05Z</time>
      </trkpt>
      <trkpt lat="37.9579320" lon="-5.6220880">
        <ele>656.9</ele>
        <time>2022-05-22T07:13:06Z</time>
      </trkpt>
      <trkpt lat="37.9579230" lon="-5.6220890">
        <ele>656.9</ele>
        <time>2022-05-22T07:13:07Z</time>
      </trkpt>
      <trkpt lat="37.9579100" lon="-5.6220900">
        <ele>656.9</ele>
        <time>2022-05-22T07:13:08Z</time>
      </trkpt>
      <trkpt lat="37.9579030" lon="-5.6220870">
        <ele>656.8</ele>
        <time>2022-05-22T07:13:09Z</time>
      </trkpt>
      <trkpt lat="37.9578960" lon="-5.6220830">
        <ele>656.8</ele>
        <time>2022-05-22T07:13:10Z</time>
      </trkpt>
      <trkpt lat="37.9578890" lon="-5.6220780">
        <ele>656.8</ele>
        <time>2022-05-22T07:13:11Z</time>
      </trkpt>
      <trkpt lat="37.9578820" lon="-5.6220720">
        <ele>656.8</ele>
        <time>2022-05-22T07:13:12Z</time>
      </trkpt>
      <trkpt lat="37.9578740" lon="-5.6220680">
        <ele>656.8</ele>
        <time>2022-05-22T07:13:13Z</time>
      </trkpt>
      <trkpt lat="37.9578630" lon="-5.6220710">
        <ele>656.8</ele>
        <time>2022-05-22T07:13:15Z</time>
      </trkpt>
      <trkpt lat="37.9578540" lon="-5.6220730">
        <ele>656.8</ele>
        <time>2022-05-22T07:13:16Z</time>
      </trkpt>
      <trkpt lat="37.9578440" lon="-5.6220740">
        <ele>656.8</ele>
        <time>2022-05-22T07:13:17Z</time>
      </trkpt>
      <trkpt lat="37.9578310" lon="-5.6220750">
        <ele>656.8</ele>
        <time>2022-05-22T07:13:18Z</time>
      </trkpt>
      <trkpt lat="37.9578200" lon="-5.6220760">
        <ele>656.8</ele>
        <time>2022-05-22T07:13:19Z</time>
      </trkpt>
      <trkpt lat="37.9578080" lon="-5.6220770">
        <ele>656.8</ele>
        <time>2022-05-22T07:13:20Z</time>
      </trkpt>
      <trkpt lat="37.9577950" lon="-5.6220800">
        <ele>656.8</ele>
        <time>2022-05-22T07:13:21Z</time>
      </trkpt>
      <trkpt lat="37.9577800" lon="-5.6220830">
        <ele>656.8</ele>
        <time>2022-05-22T07:13:23Z</time>
      </trkpt>
      <trkpt lat="37.9577640" lon="-5.6220840">
        <ele>656.8</ele>
        <time>2022-05-22T07:13:24Z</time>
      </trkpt>
      <trkpt lat="37.9577510" lon="-5.6220820">
        <ele>656.8</ele>
        <time>2022-05-22T07:13:25Z</time>
      </trkpt>
      <trkpt lat="37.9577310" lon="-5.6220700">
        <ele>656.8</ele>
        <time>2022-05-22T07:13:26Z</time>
      </trkpt>
      <trkpt lat="37.9577230" lon="-5.6220640">
        <ele>656.8</ele>
        <time>2022-05-22T07:13:27Z</time>
      </trkpt>
      <trkpt lat="37.9577150" lon="-5.6220590">
        <ele>656.8</ele>
        <time>2022-05-22T07:13:28Z</time>
      </trkpt>
      <trkpt lat="37.9576970" lon="-5.6220560">
        <ele>656.8</ele>
        <time>2022-05-22T07:13:29Z</time>
      </trkpt>
      <trkpt lat="37.9576830" lon="-5.6220540">
        <ele>656.9</ele>
        <time>2022-05-22T07:13:30Z</time>
      </trkpt>
      <trkpt lat="37.9576650" lon="-5.6220520">
        <ele>656.9</ele>
        <time>2022-05-22T07:13:32Z</time>
      </trkpt>
      <trkpt lat="37.9576490" lon="-5.6220520">
        <ele>656.9</ele>
        <time>2022-05-22T07:13:33Z</time>
      </trkpt>
      <trkpt lat="37.9576270" lon="-5.6220530">
        <ele>657.0</ele>
        <time>2022-05-22T07:13:34Z</time>
      </trkpt>
      <trkpt lat="37.9576200" lon="-5.6220530">
        <ele>657.0</ele>
        <time>2022-05-22T07:13:35Z</time>
      </trkpt>
      <trkpt lat="37.9576130" lon="-5.6220530">
        <ele>657.0</ele>
        <time>2022-05-22T07:13:36Z</time>
      </trkpt>
      <trkpt lat="37.9575930" lon="-5.6220440">
        <ele>657.1</ele>
        <time>2022-05-22T07:13:37Z</time>
      </trkpt>
      <trkpt lat="37.9575840" lon="-5.6220390">
        <ele>657.1</ele>
        <time>2022-05-22T07:13:38Z</time>
      </trkpt>
      <trkpt lat="37.9575760" lon="-5.6220350">
        <ele>657.1</ele>
        <time>2022-05-22T07:13:39Z</time>
      </trkpt>
      <trkpt lat="37.9575560" lon="-5.6220260">
        <ele>657.2</ele>
        <time>2022-05-22T07:13:41Z</time>
      </trkpt>
      <trkpt lat="37.9575480" lon="-5.6220220">
        <ele>657.2</ele>
        <time>2022-05-22T07:13:42Z</time>
      </trkpt>
      <trkpt lat="37.9575410" lon="-5.6220190">
        <ele>657.3</ele>
        <time>2022-05-22T07:13:43Z</time>
      </trkpt>
      <trkpt lat="37.9575230" lon="-5.6220040">
        <ele>657.4</ele>
        <time>2022-05-22T07:13:44Z</time>
      </trkpt>
      <trkpt lat="37.9575180" lon="-5.6219990">
        <ele>657.4</ele>
        <time>2022-05-22T07:13:45Z</time>
      </trkpt>
      <trkpt lat="37.9575100" lon="-5.6219900">
        <ele>657.4</ele>
        <time>2022-05-22T07:13:46Z</time>
      </trkpt>
      <trkpt lat="37.9575010" lon="-5.6219810">
        <ele>657.5</ele>
        <time>2022-05-22T07:13:47Z</time>
      </trkpt>
      <trkpt lat="37.9574950" lon="-5.6219740">
        <ele>657.5</ele>
        <time>2022-05-22T07:13:48Z</time>
      </trkpt>
      <trkpt lat="37.9574870" lon="-5.6219700">
        <ele>657.6</ele>
        <time>2022-05-22T07:13:49Z</time>
      </trkpt>
      <trkpt lat="37.9574800" lon="-5.6219660">
        <ele>657.6</ele>
        <time>2022-05-22T07:13:50Z</time>
      </trkpt>
      <trkpt lat="37.9574740" lon="-5.6219600">
        <ele>657.7</ele>
        <time>2022-05-22T07:13:51Z</time>
      </trkpt>
      <trkpt lat="37.9574640" lon="-5.6219570">
        <ele>657.8</ele>
        <time>2022-05-22T07:13:53Z</time>
      </trkpt>
      <trkpt lat="37.9574570" lon="-5.6219570">
        <ele>657.8</ele>
        <time>2022-05-22T07:13:54Z</time>
      </trkpt>
      <trkpt lat="37.9574410" lon="-5.6219650">
        <ele>657.7</ele>
        <time>2022-05-22T07:13:56Z</time>
      </trkpt>
      <trkpt lat="37.9574320" lon="-5.6219750">
        <ele>657.7</ele>
        <time>2022-05-22T07:13:57Z</time>
      </trkpt>
      <trkpt lat="37.9574230" lon="-5.6219930">
        <ele>657.6</ele>
        <time>2022-05-22T07:13:58Z</time>
      </trkpt>
      <trkpt lat="37.9574160" lon="-5.6220040">
        <ele>657.6</ele>
        <time>2022-05-22T07:13:59Z</time>
      </trkpt>
      <trkpt lat="37.9574130" lon="-5.6220200">
        <ele>657.6</ele>
        <time>2022-05-22T07:14:00Z</time>
      </trkpt>
      <trkpt lat="37.9574080" lon="-5.6220330">
        <ele>657.6</ele>
        <time>2022-05-22T07:14:01Z</time>
      </trkpt>
      <trkpt lat="37.9574020" lon="-5.6220490">
        <ele>657.5</ele>
        <time>2022-05-22T07:14:03Z</time>
      </trkpt>
      <trkpt lat="37.9574010" lon="-5.6220640">
        <ele>657.5</ele>
        <time>2022-05-22T07:14:04Z</time>
      </trkpt>
      <trkpt lat="37.9573980" lon="-5.6220890">
        <ele>657.5</ele>
        <time>2022-05-22T07:14:05Z</time>
      </trkpt>
      <trkpt lat="37.9573970" lon="-5.6220990">
        <ele>657.4</ele>
        <time>2022-05-22T07:14:06Z</time>
      </trkpt>
      <trkpt lat="37.9573990" lon="-5.6221090">
        <ele>657.4</ele>
        <time>2022-05-22T07:14:07Z</time>
      </trkpt>
      <trkpt lat="37.9574050" lon="-5.6221190">
        <ele>657.4</ele>
        <time>2022-05-22T07:14:09Z</time>
      </trkpt>
      <trkpt lat="37.9574060" lon="-5.6221260">
        <ele>657.4</ele>
        <time>2022-05-22T07:14:10Z</time>
      </trkpt>
      <trkpt lat="37.9574050" lon="-5.6221350">
        <ele>657.4</ele>
        <time>2022-05-22T07:14:11Z</time>
      </trkpt>
      <trkpt lat="37.9574030" lon="-5.6221480">
        <ele>657.4</ele>
        <time>2022-05-22T07:14:12Z</time>
      </trkpt>
      <trkpt lat="37.9574010" lon="-5.6221600">
        <ele>657.3</ele>
        <time>2022-05-22T07:14:13Z</time>
      </trkpt>
      <trkpt lat="37.9574000" lon="-5.6221720">
        <ele>657.3</ele>
        <time>2022-05-22T07:14:14Z</time>
      </trkpt>
      <trkpt lat="37.9574020" lon="-5.6221820">
        <ele>657.3</ele>
        <time>2022-05-22T07:14:15Z</time>
      </trkpt>
      <trkpt lat="37.9574010" lon="-5.6221920">
        <ele>657.3</ele>
        <time>2022-05-22T07:14:16Z</time>
      </trkpt>
      <trkpt lat="37.9573900" lon="-5.6222120">
        <ele>657.3</ele>
        <time>2022-05-22T07:14:18Z</time>
      </trkpt>
      <trkpt lat="37.9573850" lon="-5.6222240">
        <ele>657.3</ele>
        <time>2022-05-22T07:14:19Z</time>
      </trkpt>
      <trkpt lat="37.9573800" lon="-5.6222360">
        <ele>657.2</ele>
        <time>2022-05-22T07:14:20Z</time>
      </trkpt>
      <trkpt lat="37.9573760" lon="-5.6222490">
        <ele>657.2</ele>
        <time>2022-05-22T07:14:21Z</time>
      </trkpt>
      <trkpt lat="37.9573710" lon="-5.6222610">
        <ele>657.2</ele>
        <time>2022-05-22T07:14:22Z</time>
      </trkpt>
      <trkpt lat="37.9573620" lon="-5.6222810">
        <ele>657.2</ele>
        <time>2022-05-22T07:14:23Z</time>
      </trkpt>
      <trkpt lat="37.9573480" lon="-5.6223040">
        <ele>657.1</ele>
        <time>2022-05-22T07:14:24Z</time>
      </trkpt>
      <trkpt lat="37.9573440" lon="-5.6223130">
        <ele>657.1</ele>
        <time>2022-05-22T07:14:25Z</time>
      </trkpt>
      <trkpt lat="37.9573390" lon="-5.6223220">
        <ele>657.1</ele>
        <time>2022-05-22T07:14:26Z</time>
      </trkpt>
      <trkpt lat="37.9573290" lon="-5.6223420">
        <ele>657.1</ele>
        <time>2022-05-22T07:14:28Z</time>
      </trkpt>
      <trkpt lat="37.9573210" lon="-5.6223540">
        <ele>657.1</ele>
        <time>2022-05-22T07:14:29Z</time>
      </trkpt>
      <trkpt lat="37.9573140" lon="-5.6223670">
        <ele>657.1</ele>
        <time>2022-05-22T07:14:30Z</time>
      </trkpt>
      <trkpt lat="37.9573040" lon="-5.6223830">
        <ele>657.1</ele>
        <time>2022-05-22T07:14:31Z</time>
      </trkpt>
      <trkpt lat="37.9572950" lon="-5.6223970">
        <ele>657.1</ele>
        <time>2022-05-22T07:14:32Z</time>
      </trkpt>
      <trkpt lat="37.9572830" lon="-5.6224140">
        <ele>657.0</ele>
        <time>2022-05-22T07:14:33Z</time>
      </trkpt>
      <trkpt lat="37.9572680" lon="-5.6224330">
        <ele>657.0</ele>
        <time>2022-05-22T07:14:34Z</time>
      </trkpt>
      <trkpt lat="37.9572620" lon="-5.6224410">
        <ele>657.0</ele>
        <time>2022-05-22T07:14:36Z</time>
      </trkpt>
      <trkpt lat="37.9572560" lon="-5.6224480">
        <ele>657.0</ele>
        <time>2022-05-22T07:14:37Z</time>
      </trkpt>
      <trkpt lat="37.9572490" lon="-5.6224600">
        <ele>657.0</ele>
        <time>2022-05-22T07:14:38Z</time>
      </trkpt>
      <trkpt lat="37.9572410" lon="-5.6224710">
        <ele>657.0</ele>
        <time>2022-05-22T07:14:39Z</time>
      </trkpt>
      <trkpt lat="37.9572340" lon="-5.6224820">
        <ele>657.0</ele>
        <time>2022-05-22T07:14:40Z</time>
      </trkpt>
      <trkpt lat="37.9572280" lon="-5.6224970">
        <ele>657.0</ele>
        <time>2022-05-22T07:14:41Z</time>
      </trkpt>
      <trkpt lat="37.9572210" lon="-5.6225100">
        <ele>657.0</ele>
        <time>2022-05-22T07:14:42Z</time>
      </trkpt>
      <trkpt lat="37.9572160" lon="-5.6225210">
        <ele>657.0</ele>
        <time>2022-05-22T07:14:43Z</time>
      </trkpt>
      <trkpt lat="37.9572040" lon="-5.6225400">
        <ele>657.0</ele>
        <time>2022-05-22T07:14:45Z</time>
      </trkpt>
      <trkpt lat="37.9571910" lon="-5.6225510">
        <ele>657.0</ele>
        <time>2022-05-22T07:14:47Z</time>
      </trkpt>
      <trkpt lat="37.9571820" lon="-5.6225580">
        <ele>657.0</ele>
        <time>2022-05-22T07:14:48Z</time>
      </trkpt>
      <trkpt lat="37.9571720" lon="-5.6225650">
        <ele>657.0</ele>
        <time>2022-05-22T07:14:49Z</time>
      </trkpt>
      <trkpt lat="37.9571630" lon="-5.6225680">
        <ele>657.0</ele>
        <time>2022-05-22T07:14:50Z</time>
      </trkpt>
      <trkpt lat="37.9571530" lon="-5.6225730">
        <ele>657.0</ele>
        <time>2022-05-22T07:14:51Z</time>
      </trkpt>
      <trkpt lat="37.9571430" lon="-5.6225810">
        <ele>657.0</ele>
        <time>2022-05-22T07:14:52Z</time>
      </trkpt>
      <trkpt lat="37.9571340" lon="-5.6225910">
        <ele>657.0</ele>
        <time>2022-05-22T07:14:53Z</time>
      </trkpt>
      <trkpt lat="37.9571250" lon="-5.6226030">
        <ele>657.0</ele>
        <time>2022-05-22T07:14:54Z</time>
      </trkpt>
      <trkpt lat="37.9571140" lon="-5.6226200">
        <ele>657.0</ele>
        <time>2022-05-22T07:14:56Z</time>
      </trkpt>
      <trkpt lat="37.9571050" lon="-5.6226320">
        <ele>657.0</ele>
        <time>2022-05-22T07:14:57Z</time>
      </trkpt>
      <trkpt lat="37.9570950" lon="-5.6226450">
        <ele>657.0</ele>
        <time>2022-05-22T07:14:58Z</time>
      </trkpt>
      <trkpt lat="37.9570860" lon="-5.6226560">
        <ele>657.0</ele>
        <time>2022-05-22T07:14:59Z</time>
      </trkpt>
      <trkpt lat="37.9570690" lon="-5.6226710">
        <ele>657.1</ele>
        <time>2022-05-22T07:15:01Z</time>
      </trkpt>
      <trkpt lat="37.9570610" lon="-5.6226780">
        <ele>657.1</ele>
        <time>2022-05-22T07:15:02Z</time>
      </trkpt>
      <trkpt lat="37.9570510" lon="-5.6226860">
        <ele>657.1</ele>
        <time>2022-05-22T07:15:03Z</time>
      </trkpt>
      <trkpt lat="37.9570380" lon="-5.6226850">
        <ele>657.1</ele>
        <time>2022-05-22T07:15:04Z</time>
      </trkpt>
      <trkpt lat="37.9570160" lon="-5.6226910">
        <ele>657.1</ele>
        <time>2022-05-22T07:15:06Z</time>
      </trkpt>
      <trkpt lat="37.9570090" lon="-5.6226940">
        <ele>657.1</ele>
        <time>2022-05-22T07:15:07Z</time>
      </trkpt>
      <trkpt lat="37.9570030" lon="-5.6226970">
        <ele>657.1</ele>
        <time>2022-05-22T07:15:08Z</time>
      </trkpt>
      <trkpt lat="37.9569960" lon="-5.6227030">
        <ele>657.1</ele>
        <time>2022-05-22T07:15:09Z</time>
      </trkpt>
      <trkpt lat="37.9569890" lon="-5.6227080">
        <ele>657.1</ele>
        <time>2022-05-22T07:15:10Z</time>
      </trkpt>
      <trkpt lat="37.9569790" lon="-5.6227130">
        <ele>657.1</ele>
        <time>2022-05-22T07:15:11Z</time>
      </trkpt>
      <trkpt lat="37.9569600" lon="-5.6227200">
        <ele>657.1</ele>
        <time>2022-05-22T07:15:12Z</time>
      </trkpt>
      <trkpt lat="37.9569510" lon="-5.6227240">
        <ele>657.1</ele>
        <time>2022-05-22T07:15:14Z</time>
      </trkpt>
      <trkpt lat="37.9569430" lon="-5.6227290">
        <ele>657.1</ele>
        <time>2022-05-22T07:15:15Z</time>
      </trkpt>
      <trkpt lat="37.9569350" lon="-5.6227360">
        <ele>657.1</ele>
        <time>2022-05-22T07:15:16Z</time>
      </trkpt>
      <trkpt lat="37.9569270" lon="-5.6227570">
        <ele>657.1</ele>
        <time>2022-05-22T07:15:18Z</time>
      </trkpt>
      <trkpt lat="37.9569220" lon="-5.6227670">
        <ele>657.1</ele>
        <time>2022-05-22T07:15:19Z</time>
      </trkpt>
      <trkpt lat="37.9569180" lon="-5.6227730">
        <ele>657.1</ele>
        <time>2022-05-22T07:15:20Z</time>
      </trkpt>
      <trkpt lat="37.9569100" lon="-5.6227780">
        <ele>657.1</ele>
        <time>2022-05-22T07:15:21Z</time>
      </trkpt>
      <trkpt lat="37.9569010" lon="-5.6227780">
        <ele>657.1</ele>
        <time>2022-05-22T07:15:22Z</time>
      </trkpt>
      <trkpt lat="37.9568800" lon="-5.6227820">
        <ele>657.1</ele>
        <time>2022-05-22T07:15:23Z</time>
      </trkpt>
      <trkpt lat="37.9568730" lon="-5.6227850">
        <ele>657.1</ele>
        <time>2022-05-22T07:15:24Z</time>
      </trkpt>
      <trkpt lat="37.9568660" lon="-5.6227880">
        <ele>657.1</ele>
        <time>2022-05-22T07:15:25Z</time>
      </trkpt>
      <trkpt lat="37.9568460" lon="-5.6228020">
        <ele>657.1</ele>
        <time>2022-05-22T07:15:27Z</time>
      </trkpt>
      <trkpt lat="37.9568330" lon="-5.6228080">
        <ele>657.1</ele>
        <time>2022-05-22T07:15:29Z</time>
      </trkpt>
      <trkpt lat="37.9568250" lon="-5.6228130">
        <ele>657.1</ele>
        <time>2022-05-22T07:15:30Z</time>
      </trkpt>
      <trkpt lat="37.9568170" lon="-5.6228190">
        <ele>657.1</ele>
        <time>2022-05-22T07:15:31Z</time>
      </trkpt>
      <trkpt lat="37.9568070" lon="-5.6228250">
        <ele>657.1</ele>
        <time>2022-05-22T07:15:32Z</time>
      </trkpt>
      <trkpt lat="37.9567950" lon="-5.6228320">
        <ele>657.1</ele>
        <time>2022-05-22T07:15:33Z</time>
      </trkpt>
      <trkpt lat="37.9567830" lon="-5.6228430">
        <ele>657.1</ele>
        <time>2022-05-22T07:15:34Z</time>
      </trkpt>
      <trkpt lat="37.9567690" lon="-5.6228590">
        <ele>657.1</ele>
        <time>2022-05-22T07:15:35Z</time>
      </trkpt>
      <trkpt lat="37.9567630" lon="-5.6228660">
        <ele>657.1</ele>
        <time>2022-05-22T07:15:36Z</time>
      </trkpt>
      <trkpt lat="37.9567560" lon="-5.6228740">
        <ele>657.1</ele>
        <time>2022-05-22T07:15:37Z</time>
      </trkpt>
      <trkpt lat="37.9567480" lon="-5.6228830">
        <ele>657.1</ele>
        <time>2022-05-22T07:15:38Z</time>
      </trkpt>
      <trkpt lat="37.9567400" lon="-5.6228940">
        <ele>657.1</ele>
        <time>2022-05-22T07:15:39Z</time>
      </trkpt>
      <trkpt lat="37.9567270" lon="-5.6229110">
        <ele>657.1</ele>
        <time>2022-05-22T07:15:41Z</time>
      </trkpt>
      <trkpt lat="37.9567170" lon="-5.6229300">
        <ele>657.1</ele>
        <time>2022-05-22T07:15:42Z</time>
      </trkpt>
      <trkpt lat="37.9567120" lon="-5.6229400">
        <ele>657.1</ele>
        <time>2022-05-22T07:15:43Z</time>
      </trkpt>
      <trkpt lat="37.9567060" lon="-5.6229490">
        <ele>657.1</ele>
        <time>2022-05-22T07:15:44Z</time>
      </trkpt>
      <trkpt lat="37.9566960" lon="-5.6229650">
        <ele>657.1</ele>
        <time>2022-05-22T07:15:45Z</time>
      </trkpt>
      <trkpt lat="37.9566840" lon="-5.6229800">
        <ele>657.1</ele>
        <time>2022-05-22T07:15:46Z</time>
      </trkpt>
      <trkpt lat="37.9566730" lon="-5.6229950">
        <ele>657.1</ele>
        <time>2022-05-22T07:15:47Z</time>
      </trkpt>
      <trkpt lat="37.9566640" lon="-5.6230060">
        <ele>657.1</ele>
        <time>2022-05-22T07:15:48Z</time>
      </trkpt>
      <trkpt lat="37.9566540" lon="-5.6230210">
        <ele>657.1</ele>
        <time>2022-05-22T07:15:50Z</time>
      </trkpt>
      <trkpt lat="37.9566460" lon="-5.6230340">
        <ele>657.1</ele>
        <time>2022-05-22T07:15:51Z</time>
      </trkpt>
      <trkpt lat="37.9566350" lon="-5.6230540">
        <ele>657.1</ele>
        <time>2022-05-22T07:15:52Z</time>
      </trkpt>
      <trkpt lat="37.9566290" lon="-5.6230660">
        <ele>657.2</ele>
        <time>2022-05-22T07:15:53Z</time>
      </trkpt>
      <trkpt lat="37.9566160" lon="-5.6230860">
        <ele>657.2</ele>
        <time>2022-05-22T07:15:54Z</time>
      </trkpt>
      <trkpt lat="37.9566100" lon="-5.6230940">
        <ele>657.2</ele>
        <time>2022-05-22T07:15:55Z</time>
      </trkpt>
      <trkpt lat="37.9566050" lon="-5.6231020">
        <ele>657.2</ele>
        <time>2022-05-22T07:15:56Z</time>
      </trkpt>
      <trkpt lat="37.9565970" lon="-5.6231140">
        <ele>657.2</ele>
        <time>2022-05-22T07:15:57Z</time>
      </trkpt>
      <trkpt lat="37.9565890" lon="-5.6231260">
        <ele>657.2</ele>
        <time>2022-05-22T07:15:59Z</time>
      </trkpt>
      <trkpt lat="37.9565820" lon="-5.6231280">
        <ele>657.2</ele>
        <time>2022-05-22T07:16:00Z</time>
      </trkpt>
      <trkpt lat="37.9565780" lon="-5.6231330">
        <ele>657.2</ele>
        <time>2022-05-22T07:16:01Z</time>
      </trkpt>
      <trkpt lat="37.9565700" lon="-5.6231470">
        <ele>657.3</ele>
        <time>2022-05-22T07:16:02Z</time>
      </trkpt>
      <trkpt lat="37.9565650" lon="-5.6231560">
        <ele>657.3</ele>
        <time>2022-05-22T07:16:03Z</time>
      </trkpt>
      <trkpt lat="37.9565590" lon="-5.6231690">
        <ele>657.3</ele>
        <time>2022-05-22T07:16:04Z</time>
      </trkpt>
      <trkpt lat="37.9565540" lon="-5.6231810">
        <ele>657.3</ele>
        <time>2022-05-22T07:16:05Z</time>
      </trkpt>
      <trkpt lat="37.9565490" lon="-5.6231950">
        <ele>657.3</ele>
        <time>2022-05-22T07:16:06Z</time>
      </trkpt>
      <trkpt lat="37.9565440" lon="-5.6232070">
        <ele>657.3</ele>
        <time>2022-05-22T07:16:07Z</time>
      </trkpt>
      <trkpt lat="37.9565350" lon="-5.6232200">
        <ele>657.4</ele>
        <time>2022-05-22T07:16:09Z</time>
      </trkpt>
      <trkpt lat="37.9565280" lon="-5.6232300">
        <ele>657.4</ele>
        <time>2022-05-22T07:16:10Z</time>
      </trkpt>
      <trkpt lat="37.9565150" lon="-5.6232530">
        <ele>657.4</ele>
        <time>2022-05-22T07:16:11Z</time>
      </trkpt>
      <trkpt lat="37.9565100" lon="-5.6232670">
        <ele>657.4</ele>
        <time>2022-05-22T07:16:12Z</time>
      </trkpt>
      <trkpt lat="37.9564980" lon="-5.6232900">
        <ele>657.5</ele>
        <time>2022-05-22T07:16:13Z</time>
      </trkpt>
      <trkpt lat="37.9564940" lon="-5.6232980">
        <ele>657.5</ele>
        <time>2022-05-22T07:16:14Z</time>
      </trkpt>
      <trkpt lat="37.9564890" lon="-5.6233070">
        <ele>657.5</ele>
        <time>2022-05-22T07:16:15Z</time>
      </trkpt>
      <trkpt lat="37.9564830" lon="-5.6233190">
        <ele>657.5</ele>
        <time>2022-05-22T07:16:16Z</time>
      </trkpt>
      <trkpt lat="37.9564750" lon="-5.6233340">
        <ele>657.6</ele>
        <time>2022-05-22T07:16:17Z</time>
      </trkpt>
      <trkpt lat="37.9564670" lon="-5.6233490">
        <ele>657.6</ele>
        <time>2022-05-22T07:16:19Z</time>
      </trkpt>
      <trkpt lat="37.9564520" lon="-5.6233670">
        <ele>657.7</ele>
        <time>2022-05-22T07:16:21Z</time>
      </trkpt>
      <trkpt lat="37.9564400" lon="-5.6233790">
        <ele>657.7</ele>
        <time>2022-05-22T07:16:22Z</time>
      </trkpt>
      <trkpt lat="37.9564310" lon="-5.6233850">
        <ele>657.7</ele>
        <time>2022-05-22T07:16:23Z</time>
      </trkpt>
      <trkpt lat="37.9564230" lon="-5.6233920">
        <ele>657.7</ele>
        <time>2022-05-22T07:16:24Z</time>
      </trkpt>
      <trkpt lat="37.9564140" lon="-5.6233980">
        <ele>657.8</ele>
        <time>2022-05-22T07:16:25Z</time>
      </trkpt>
      <trkpt lat="37.9564020" lon="-5.6234090">
        <ele>657.8</ele>
        <time>2022-05-22T07:16:27Z</time>
      </trkpt>
      <trkpt lat="37.9563860" lon="-5.6234190">
        <ele>657.8</ele>
        <time>2022-05-22T07:16:28Z</time>
      </trkpt>
      <trkpt lat="37.9563750" lon="-5.6234270">
        <ele>657.9</ele>
        <time>2022-05-22T07:16:29Z</time>
      </trkpt>
      <trkpt lat="37.9563650" lon="-5.6234350">
        <ele>657.9</ele>
        <time>2022-05-22T07:16:30Z</time>
      </trkpt>
      <trkpt lat="37.9563510" lon="-5.6234460">
        <ele>657.9</ele>
        <time>2022-05-22T07:16:32Z</time>
      </trkpt>
      <trkpt lat="37.9563370" lon="-5.6234560">
        <ele>658.0</ele>
        <time>2022-05-22T07:16:33Z</time>
      </trkpt>
      <trkpt lat="37.9563250" lon="-5.6234650">
        <ele>658.0</ele>
        <time>2022-05-22T07:16:34Z</time>
      </trkpt>
      <trkpt lat="37.9563150" lon="-5.6234730">
        <ele>658.0</ele>
        <time>2022-05-22T07:16:35Z</time>
      </trkpt>
      <trkpt lat="37.9563060" lon="-5.6234830">
        <ele>658.0</ele>
        <time>2022-05-22T07:16:36Z</time>
      </trkpt>
      <trkpt lat="37.9562910" lon="-5.6235000">
        <ele>658.1</ele>
        <time>2022-05-22T07:16:38Z</time>
      </trkpt>
      <trkpt lat="37.9562790" lon="-5.6235210">
        <ele>658.1</ele>
        <time>2022-05-22T07:16:39Z</time>
      </trkpt>
      <trkpt lat="37.9562670" lon="-5.6235350">
        <ele>658.1</ele>
        <time>2022-05-22T07:16:41Z</time>
      </trkpt>
      <trkpt lat="37.9562510" lon="-5.6235500">
        <ele>658.2</ele>
        <time>2022-05-22T07:16:43Z</time>
      </trkpt>
      <trkpt lat="37.9562380" lon="-5.6235590">
        <ele>658.2</ele>
        <time>2022-05-22T07:16:44Z</time>
      </trkpt>
      <trkpt lat="37.9562230" lon="-5.6235700">
        <ele>658.2</ele>
        <time>2022-05-22T07:16:45Z</time>
      </trkpt>
      <trkpt lat="37.9562090" lon="-5.6235790">
        <ele>658.2</ele>
        <time>2022-05-22T07:16:46Z</time>
      </trkpt>
      <trkpt lat="37.9561930" lon="-5.6235860">
        <ele>658.2</ele>
        <time>2022-05-22T07:16:48Z</time>
      </trkpt>
      <trkpt lat="37.9561800" lon="-5.6235910">
        <ele>658.2</ele>
        <time>2022-05-22T07:16:49Z</time>
      </trkpt>
      <trkpt lat="37.9561560" lon="-5.6236020">
        <ele>658.2</ele>
        <time>2022-05-22T07:16:50Z</time>
      </trkpt>
      <trkpt lat="37.9561450" lon="-5.6236070">
        <ele>658.2</ele>
        <time>2022-05-22T07:16:51Z</time>
      </trkpt>
      <trkpt lat="37.9561260" lon="-5.6236090">
        <ele>658.2</ele>
        <time>2022-05-22T07:16:53Z</time>
      </trkpt>
      <trkpt lat="37.9561020" lon="-5.6236120">
        <ele>658.2</ele>
        <time>2022-05-22T07:16:55Z</time>
      </trkpt>
      <trkpt lat="37.9560880" lon="-5.6236140">
        <ele>658.2</ele>
        <time>2022-05-22T07:16:56Z</time>
      </trkpt>
      <trkpt lat="37.9560730" lon="-5.6236160">
        <ele>658.2</ele>
        <time>2022-05-22T07:16:57Z</time>
      </trkpt>
      <trkpt lat="37.9560600" lon="-5.6236210">
        <ele>658.3</ele>
        <time>2022-05-22T07:16:58Z</time>
      </trkpt>
      <trkpt lat="37.9560410" lon="-5.6236280">
        <ele>658.3</ele>
        <time>2022-05-22T07:16:59Z</time>
      </trkpt>
      <trkpt lat="37.9560320" lon="-5.6236340">
        <ele>658.3</ele>
        <time>2022-05-22T07:17:00Z</time>
      </trkpt>
      <trkpt lat="37.9560210" lon="-5.6236450">
        <ele>658.3</ele>
        <time>2022-05-22T07:17:01Z</time>
      </trkpt>
      <trkpt lat="37.9560130" lon="-5.6236530">
        <ele>658.3</ele>
        <time>2022-05-22T07:17:02Z</time>
      </trkpt>
      <trkpt lat="37.9560110" lon="-5.6236750">
        <ele>658.3</ele>
        <time>2022-05-22T07:17:03Z</time>
      </trkpt>
      <trkpt lat="37.9559950" lon="-5.6236850">
        <ele>658.4</ele>
        <time>2022-05-22T07:17:05Z</time>
      </trkpt>
      <trkpt lat="37.9559830" lon="-5.6236900">
        <ele>658.4</ele>
        <time>2022-05-22T07:17:06Z</time>
      </trkpt>
      <trkpt lat="37.9559720" lon="-5.6236940">
        <ele>658.4</ele>
        <time>2022-05-22T07:17:07Z</time>
      </trkpt>
      <trkpt lat="37.9559580" lon="-5.6237000">
        <ele>658.5</ele>
        <time>2022-05-22T07:17:09Z</time>
      </trkpt>
      <trkpt lat="37.9559470" lon="-5.6237060">
        <ele>658.5</ele>
        <time>2022-05-22T07:17:10Z</time>
      </trkpt>
      <trkpt lat="37.9559370" lon="-5.6237110">
        <ele>658.5</ele>
        <time>2022-05-22T07:17:11Z</time>
      </trkpt>
      <trkpt lat="37.9559280" lon="-5.6237170">
        <ele>658.6</ele>
        <time>2022-05-22T07:17:12Z</time>
      </trkpt>
      <trkpt lat="37.9559200" lon="-5.6237240">
        <ele>658.6</ele>
        <time>2022-05-22T07:17:13Z</time>
      </trkpt>
      <trkpt lat="37.9559110" lon="-5.6237310">
        <ele>658.6</ele>
        <time>2022-05-22T07:17:14Z</time>
      </trkpt>
      <trkpt lat="37.9559000" lon="-5.6237400">
        <ele>658.7</ele>
        <time>2022-05-22T07:17:15Z</time>
      </trkpt>
      <trkpt lat="37.9558840" lon="-5.6237600">
        <ele>658.7</ele>
        <time>2022-05-22T07:17:16Z</time>
      </trkpt>
      <trkpt lat="37.9558780" lon="-5.6237700">
        <ele>658.8</ele>
        <time>2022-05-22T07:17:17Z</time>
      </trkpt>
      <trkpt lat="37.9558720" lon="-5.6237800">
        <ele>658.8</ele>
        <time>2022-05-22T07:17:18Z</time>
      </trkpt>
      <trkpt lat="37.9558600" lon="-5.6237980">
        <ele>658.9</ele>
        <time>2022-05-22T07:17:20Z</time>
      </trkpt>
      <trkpt lat="37.9558530" lon="-5.6238100">
        <ele>658.9</ele>
        <time>2022-05-22T07:17:21Z</time>
      </trkpt>
      <trkpt lat="37.9558450" lon="-5.6238190">
        <ele>658.9</ele>
        <time>2022-05-22T07:17:22Z</time>
      </trkpt>
      <trkpt lat="37.9558340" lon="-5.6238290">
        <ele>659.0</ele>
        <time>2022-05-22T07:17:23Z</time>
      </trkpt>
      <trkpt lat="37.9558240" lon="-5.6238350">
        <ele>659.0</ele>
        <time>2022-05-22T07:17:24Z</time>
      </trkpt>
      <trkpt lat="37.9558130" lon="-5.6238410">
        <ele>659.1</ele>
        <time>2022-05-22T07:17:25Z</time>
      </trkpt>
      <trkpt lat="37.9557970" lon="-5.6238490">
        <ele>659.1</ele>
        <time>2022-05-22T07:17:26Z</time>
      </trkpt>
      <trkpt lat="37.9557850" lon="-5.6238560">
        <ele>659.2</ele>
        <time>2022-05-22T07:17:27Z</time>
      </trkpt>
      <trkpt lat="37.9557660" lon="-5.6238740">
        <ele>659.3</ele>
        <time>2022-05-22T07:17:29Z</time>
      </trkpt>
      <trkpt lat="37.9557570" lon="-5.6238860">
        <ele>659.3</ele>
        <time>2022-05-22T07:17:30Z</time>
      </trkpt>
      <trkpt lat="37.9557420" lon="-5.6238990">
        <ele>659.4</ele>
        <time>2022-05-22T07:17:31Z</time>
      </trkpt>
      <trkpt lat="37.9557330" lon="-5.6239050">
        <ele>659.4</ele>
        <time>2022-05-22T07:17:32Z</time>
      </trkpt>
      <trkpt lat="37.9557260" lon="-5.6239080">
        <ele>659.4</ele>
        <time>2022-05-22T07:17:33Z</time>
      </trkpt>
      <trkpt lat="37.9557160" lon="-5.6239130">
        <ele>659.5</ele>
        <time>2022-05-22T07:17:34Z</time>
      </trkpt>
      <trkpt lat="37.9556970" lon="-5.6239230">
        <ele>659.5</ele>
        <time>2022-05-22T07:17:35Z</time>
      </trkpt>
      <trkpt lat="37.9556870" lon="-5.6239280">
        <ele>659.6</ele>
        <time>2022-05-22T07:17:36Z</time>
      </trkpt>
      <trkpt lat="37.9556780" lon="-5.6239340">
        <ele>659.6</ele>
        <time>2022-05-22T07:17:37Z</time>
      </trkpt>
      <trkpt lat="37.9556650" lon="-5.6239400">
        <ele>659.7</ele>
        <time>2022-05-22T07:17:38Z</time>
      </trkpt>
      <trkpt lat="37.9556510" lon="-5.6239450">
        <ele>659.7</ele>
        <time>2022-05-22T07:17:39Z</time>
      </trkpt>
      <trkpt lat="37.9556330" lon="-5.6239520">
        <ele>659.8</ele>
        <time>2022-05-22T07:17:41Z</time>
      </trkpt>
      <trkpt lat="37.9556230" lon="-5.6239550">
        <ele>659.8</ele>
        <time>2022-05-22T07:17:42Z</time>
      </trkpt>
      <trkpt lat="37.9555980" lon="-5.6239610">
        <ele>659.9</ele>
        <time>2022-05-22T07:17:43Z</time>
      </trkpt>
      <trkpt lat="37.9555880" lon="-5.6239630">
        <ele>659.9</ele>
        <time>2022-05-22T07:17:44Z</time>
      </trkpt>
      <trkpt lat="37.9555770" lon="-5.6239660">
        <ele>659.9</ele>
        <time>2022-05-22T07:17:45Z</time>
      </trkpt>
      <trkpt lat="37.9555650" lon="-5.6239680">
        <ele>660.0</ele>
        <time>2022-05-22T07:17:47Z</time>
      </trkpt>
      <trkpt lat="37.9555480" lon="-5.6239700">
        <ele>660.0</ele>
        <time>2022-05-22T07:17:48Z</time>
      </trkpt>
      <trkpt lat="37.9555390" lon="-5.6239700">
        <ele>660.0</ele>
        <time>2022-05-22T07:17:49Z</time>
      </trkpt>
      <trkpt lat="37.9555300" lon="-5.6239710">
        <ele>660.1</ele>
        <time>2022-05-22T07:17:50Z</time>
      </trkpt>
      <trkpt lat="37.9555170" lon="-5.6239720">
        <ele>660.1</ele>
        <time>2022-05-22T07:17:51Z</time>
      </trkpt>
      <trkpt lat="37.9555060" lon="-5.6239720">
        <ele>660.2</ele>
        <time>2022-05-22T07:17:52Z</time>
      </trkpt>
      <trkpt lat="37.9554940" lon="-5.6239700">
        <ele>660.2</ele>
        <time>2022-05-22T07:17:53Z</time>
      </trkpt>
      <trkpt lat="37.9554770" lon="-5.6239670">
        <ele>660.2</ele>
        <time>2022-05-22T07:17:55Z</time>
      </trkpt>
      <trkpt lat="37.9554640" lon="-5.6239650">
        <ele>660.3</ele>
        <time>2022-05-22T07:17:56Z</time>
      </trkpt>
      <trkpt lat="37.9554500" lon="-5.6239640">
        <ele>660.3</ele>
        <time>2022-05-22T07:17:57Z</time>
      </trkpt>
      <trkpt lat="37.9554390" lon="-5.6239620">
        <ele>660.4</ele>
        <time>2022-05-22T07:17:58Z</time>
      </trkpt>
      <trkpt lat="37.9554270" lon="-5.6239610">
        <ele>660.4</ele>
        <time>2022-05-22T07:17:59Z</time>
      </trkpt>
      <trkpt lat="37.9554150" lon="-5.6239610">
        <ele>660.4</ele>
        <time>2022-05-22T07:18:00Z</time>
      </trkpt>
      <trkpt lat="37.9553950" lon="-5.6239600">
        <ele>660.5</ele>
        <time>2022-05-22T07:18:01Z</time>
      </trkpt>
      <trkpt lat="37.9553860" lon="-5.6239600">
        <ele>660.5</ele>
        <time>2022-05-22T07:18:02Z</time>
      </trkpt>
      <trkpt lat="37.9553780" lon="-5.6239600">
        <ele>660.6</ele>
        <time>2022-05-22T07:18:03Z</time>
      </trkpt>
      <trkpt lat="37.9553640" lon="-5.6239640">
        <ele>660.6</ele>
        <time>2022-05-22T07:18:04Z</time>
      </trkpt>
      <trkpt lat="37.9553510" lon="-5.6239670">
        <ele>660.7</ele>
        <time>2022-05-22T07:18:05Z</time>
      </trkpt>
      <trkpt lat="37.9553380" lon="-5.6239680">
        <ele>660.7</ele>
        <time>2022-05-22T07:18:06Z</time>
      </trkpt>
      <trkpt lat="37.9553190" lon="-5.6239690">
        <ele>660.8</ele>
        <time>2022-05-22T07:18:08Z</time>
      </trkpt>
      <trkpt lat="37.9553090" lon="-5.6239670">
        <ele>660.8</ele>
        <time>2022-05-22T07:18:09Z</time>
      </trkpt>
      <trkpt lat="37.9552960" lon="-5.6239660">
        <ele>660.9</ele>
        <time>2022-05-22T07:18:10Z</time>
      </trkpt>
      <trkpt lat="37.9552840" lon="-5.6239640">
        <ele>660.9</ele>
        <time>2022-05-22T07:18:11Z</time>
      </trkpt>
      <trkpt lat="37.9552730" lon="-5.6239630">
        <ele>661.0</ele>
        <time>2022-05-22T07:18:12Z</time>
      </trkpt>
      <trkpt lat="37.9552570" lon="-5.6239630">
        <ele>661.1</ele>
        <time>2022-05-22T07:18:14Z</time>
      </trkpt>
      <trkpt lat="37.9552400" lon="-5.6239650">
        <ele>661.1</ele>
        <time>2022-05-22T07:18:15Z</time>
      </trkpt>
      <trkpt lat="37.9552290" lon="-5.6239680">
        <ele>661.2</ele>
        <time>2022-05-22T07:18:16Z</time>
      </trkpt>
      <trkpt lat="37.9552190" lon="-5.6239720">
        <ele>661.2</ele>
        <time>2022-05-22T07:18:17Z</time>
      </trkpt>
      <trkpt lat="37.9552090" lon="-5.6239760">
        <ele>661.3</ele>
        <time>2022-05-22T07:18:18Z</time>
      </trkpt>
      <trkpt lat="37.9551960" lon="-5.6239790">
        <ele>661.3</ele>
        <time>2022-05-22T07:18:19Z</time>
      </trkpt>
      <trkpt lat="37.9551850" lon="-5.6239810">
        <ele>661.4</ele>
        <time>2022-05-22T07:18:20Z</time>
      </trkpt>
      <trkpt lat="37.9551740" lon="-5.6239830">
        <ele>661.4</ele>
        <time>2022-05-22T07:18:21Z</time>
      </trkpt>
      <trkpt lat="37.9551630" lon="-5.6239870">
        <ele>661.5</ele>
        <time>2022-05-22T07:18:22Z</time>
      </trkpt>
      <trkpt lat="37.9551510" lon="-5.6239920">
        <ele>661.5</ele>
        <time>2022-05-22T07:18:23Z</time>
      </trkpt>
      <trkpt lat="37.9551360" lon="-5.6239970">
        <ele>661.6</ele>
        <time>2022-05-22T07:18:24Z</time>
      </trkpt>
      <trkpt lat="37.9551190" lon="-5.6240020">
        <ele>661.7</ele>
        <time>2022-05-22T07:18:26Z</time>
      </trkpt>
      <trkpt lat="37.9551100" lon="-5.6240060">
        <ele>661.7</ele>
        <time>2022-05-22T07:18:27Z</time>
      </trkpt>
      <trkpt lat="37.9551000" lon="-5.6240130">
        <ele>661.8</ele>
        <time>2022-05-22T07:18:28Z</time>
      </trkpt>
      <trkpt lat="37.9550880" lon="-5.6240200">
        <ele>661.8</ele>
        <time>2022-05-22T07:18:29Z</time>
      </trkpt>
      <trkpt lat="37.9550780" lon="-5.6240280">
        <ele>661.9</ele>
        <time>2022-05-22T07:18:30Z</time>
      </trkpt>
      <trkpt lat="37.9550630" lon="-5.6240430">
        <ele>661.9</ele>
        <time>2022-05-22T07:18:31Z</time>
      </trkpt>
      <trkpt lat="37.9550570" lon="-5.6240510">
        <ele>662.0</ele>
        <time>2022-05-22T07:18:32Z</time>
      </trkpt>
      <trkpt lat="37.9550510" lon="-5.6240600">
        <ele>662.0</ele>
        <time>2022-05-22T07:18:33Z</time>
      </trkpt>
      <trkpt lat="37.9550350" lon="-5.6240650">
        <ele>662.1</ele>
        <time>2022-05-22T07:18:34Z</time>
      </trkpt>
      <trkpt lat="37.9550270" lon="-5.6240680">
        <ele>662.1</ele>
        <time>2022-05-22T07:18:35Z</time>
      </trkpt>
      <trkpt lat="37.9550190" lon="-5.6240710">
        <ele>662.2</ele>
        <time>2022-05-22T07:18:37Z</time>
      </trkpt>
      <trkpt lat="37.9550100" lon="-5.6240740">
        <ele>662.2</ele>
        <time>2022-05-22T07:18:38Z</time>
      </trkpt>
      <trkpt lat="37.9550020" lon="-5.6240770">
        <ele>662.3</ele>
        <time>2022-05-22T07:18:39Z</time>
      </trkpt>
      <trkpt lat="37.9549940" lon="-5.6240800">
        <ele>662.4</ele>
        <time>2022-05-22T07:18:40Z</time>
      </trkpt>
      <trkpt lat="37.9549860" lon="-5.6240830">
        <ele>662.4</ele>
        <time>2022-05-22T07:18:41Z</time>
      </trkpt>
      <trkpt lat="37.9549670" lon="-5.6240930">
        <ele>662.6</ele>
        <time>2022-05-22T07:18:42Z</time>
      </trkpt>
      <trkpt lat="37.9549590" lon="-5.6240970">
        <ele>662.7</ele>
        <time>2022-05-22T07:18:43Z</time>
      </trkpt>
      <trkpt lat="37.9549510" lon="-5.6241010">
        <ele>662.8</ele>
        <time>2022-05-22T07:18:44Z</time>
      </trkpt>
      <trkpt lat="37.9549430" lon="-5.6241050">
        <ele>662.8</ele>
        <time>2022-05-22T07:18:45Z</time>
      </trkpt>
      <trkpt lat="37.9549340" lon="-5.6241090">
        <ele>662.9</ele>
        <time>2022-05-22T07:18:47Z</time>
      </trkpt>
      <trkpt lat="37.9549230" lon="-5.6241130">
        <ele>663.0</ele>
        <time>2022-05-22T07:18:48Z</time>
      </trkpt>
      <trkpt lat="37.9549130" lon="-5.6241170">
        <ele>663.1</ele>
        <time>2022-05-22T07:18:49Z</time>
      </trkpt>
      <trkpt lat="37.9549000" lon="-5.6241220">
        <ele>663.3</ele>
        <time>2022-05-22T07:18:50Z</time>
      </trkpt>
      <trkpt lat="37.9548880" lon="-5.6241260">
        <ele>663.4</ele>
        <time>2022-05-22T07:18:51Z</time>
      </trkpt>
      <trkpt lat="37.9548780" lon="-5.6241300">
        <ele>663.5</ele>
        <time>2022-05-22T07:18:52Z</time>
      </trkpt>
      <trkpt lat="37.9548670" lon="-5.6241340">
        <ele>663.6</ele>
        <time>2022-05-22T07:18:53Z</time>
      </trkpt>
      <trkpt lat="37.9548580" lon="-5.6241370">
        <ele>663.7</ele>
        <time>2022-05-22T07:18:54Z</time>
      </trkpt>
      <trkpt lat="37.9548400" lon="-5.6241460">
        <ele>663.9</ele>
        <time>2022-05-22T07:18:55Z</time>
      </trkpt>
      <trkpt lat="37.9548310" lon="-5.6241500">
        <ele>664.0</ele>
        <time>2022-05-22T07:18:56Z</time>
      </trkpt>
      <trkpt lat="37.9548230" lon="-5.6241530">
        <ele>664.1</ele>
        <time>2022-05-22T07:18:57Z</time>
      </trkpt>
      <trkpt lat="37.9548100" lon="-5.6241570">
        <ele>664.2</ele>
        <time>2022-05-22T07:18:58Z</time>
      </trkpt>
      <trkpt lat="37.9547950" lon="-5.6241610">
        <ele>664.4</ele>
        <time>2022-05-22T07:19:00Z</time>
      </trkpt>
      <trkpt lat="37.9547830" lon="-5.6241640">
        <ele>664.5</ele>
        <time>2022-05-22T07:19:01Z</time>
      </trkpt>
      <trkpt lat="37.9547680" lon="-5.6241680">
        <ele>664.6</ele>
        <time>2022-05-22T07:19:02Z</time>
      </trkpt>
      <trkpt lat="37.9547580" lon="-5.6241720">
        <ele>664.7</ele>
        <time>2022-05-22T07:19:03Z</time>
      </trkpt>
      <trkpt lat="37.9547440" lon="-5.6241780">
        <ele>664.9</ele>
        <time>2022-05-22T07:19:04Z</time>
      </trkpt>
      <trkpt lat="37.9547340" lon="-5.6241810">
        <ele>665.0</ele>
        <time>2022-05-22T07:19:05Z</time>
      </trkpt>
      <trkpt lat="37.9547250" lon="-5.6241830">
        <ele>665.1</ele>
        <time>2022-05-22T07:19:06Z</time>
      </trkpt>
      <trkpt lat="37.9547140" lon="-5.6241870">
        <ele>665.2</ele>
        <time>2022-05-22T07:19:07Z</time>
      </trkpt>
      <trkpt lat="37.9547090" lon="-5.6241870">
        <ele>665.2</ele>
        <time>2022-05-22T07:19:08Z</time>
      </trkpt>
      <trkpt lat="37.9547000" lon="-5.6241900">
        <ele>665.3</ele>
        <time>2022-05-22T07:19:09Z</time>
      </trkpt>
      <trkpt lat="37.9546930" lon="-5.6241930">
        <ele>665.4</ele>
        <time>2022-05-22T07:19:10Z</time>
      </trkpt>
      <trkpt lat="37.9546860" lon="-5.6241960">
        <ele>665.5</ele>
        <time>2022-05-22T07:19:12Z</time>
      </trkpt>
      <trkpt lat="37.9546760" lon="-5.6242010">
        <ele>665.6</ele>
        <time>2022-05-22T07:19:13Z</time>
      </trkpt>
      <trkpt lat="37.9546680" lon="-5.6242050">
        <ele>665.6</ele>
        <time>2022-05-22T07:19:14Z</time>
      </trkpt>
      <trkpt lat="37.9546540" lon="-5.6242110">
        <ele>665.8</ele>
        <time>2022-05-22T07:19:15Z</time>
      </trkpt>
      <trkpt lat="37.9546460" lon="-5.6242140">
        <ele>665.9</ele>
        <time>2022-05-22T07:19:16Z</time>
      </trkpt>
      <trkpt lat="37.9546380" lon="-5.6242160">
        <ele>665.9</ele>
        <time>2022-05-22T07:19:17Z</time>
      </trkpt>
      <trkpt lat="37.9546310" lon="-5.6242190">
        <ele>666.0</ele>
        <time>2022-05-22T07:19:18Z</time>
      </trkpt>
      <trkpt lat="37.9546120" lon="-5.6242300">
        <ele>666.2</ele>
        <time>2022-05-22T07:19:19Z</time>
      </trkpt>
      <trkpt lat="37.9546050" lon="-5.6242340">
        <ele>666.3</ele>
        <time>2022-05-22T07:19:20Z</time>
      </trkpt>
      <trkpt lat="37.9545980" lon="-5.6242390">
        <ele>666.3</ele>
        <time>2022-05-22T07:19:21Z</time>
      </trkpt>
      <trkpt lat="37.9545800" lon="-5.6242530">
        <ele>666.5</ele>
        <time>2022-05-22T07:19:22Z</time>
      </trkpt>
      <trkpt lat="37.9545720" lon="-5.6242590">
        <ele>666.6</ele>
        <time>2022-05-22T07:19:23Z</time>
      </trkpt>
      <trkpt lat="37.9545640" lon="-5.6242660">
        <ele>666.7</ele>
        <time>2022-05-22T07:19:24Z</time>
      </trkpt>
      <trkpt lat="37.9545530" lon="-5.6242720">
        <ele>666.8</ele>
        <time>2022-05-22T07:19:25Z</time>
      </trkpt>
      <trkpt lat="37.9545410" lon="-5.6242770">
        <ele>667.0</ele>
        <time>2022-05-22T07:19:26Z</time>
      </trkpt>
      <trkpt lat="37.9545190" lon="-5.6242870">
        <ele>667.2</ele>
        <time>2022-05-22T07:19:28Z</time>
      </trkpt>
      <trkpt lat="37.9545070" lon="-5.6242900">
        <ele>667.3</ele>
        <time>2022-05-22T07:19:29Z</time>
      </trkpt>
      <trkpt lat="37.9544950" lon="-5.6242900">
        <ele>667.4</ele>
        <time>2022-05-22T07:19:30Z</time>
      </trkpt>
      <trkpt lat="37.9544850" lon="-5.6242890">
        <ele>667.5</ele>
        <time>2022-05-22T07:19:31Z</time>
      </trkpt>
      <trkpt lat="37.9544760" lon="-5.6242870">
        <ele>667.6</ele>
        <time>2022-05-22T07:19:32Z</time>
      </trkpt>
      <trkpt lat="37.9544650" lon="-5.6242850">
        <ele>667.7</ele>
        <time>2022-05-22T07:19:33Z</time>
      </trkpt>
      <trkpt lat="37.9544510" lon="-5.6242820">
        <ele>667.8</ele>
        <time>2022-05-22T07:19:34Z</time>
      </trkpt>
      <trkpt lat="37.9544400" lon="-5.6242800">
        <ele>667.9</ele>
        <time>2022-05-22T07:19:35Z</time>
      </trkpt>
      <trkpt lat="37.9544280" lon="-5.6242780">
        <ele>668.0</ele>
        <time>2022-05-22T07:19:36Z</time>
      </trkpt>
      <trkpt lat="37.9544120" lon="-5.6242750">
        <ele>668.2</ele>
        <time>2022-05-22T07:19:38Z</time>
      </trkpt>
      <trkpt lat="37.9543970" lon="-5.6242740">
        <ele>668.3</ele>
        <time>2022-05-22T07:19:39Z</time>
      </trkpt>
      <trkpt lat="37.9543820" lon="-5.6242730">
        <ele>668.4</ele>
        <time>2022-05-22T07:19:40Z</time>
      </trkpt>
      <trkpt lat="37.9543640" lon="-5.6242770">
        <ele>668.6</ele>
        <time>2022-05-22T07:19:41Z</time>
      </trkpt>
      <trkpt lat="37.9543540" lon="-5.6242790">
        <ele>668.7</ele>
        <time>2022-05-22T07:19:43Z</time>
      </trkpt>
      <trkpt lat="37.9543450" lon="-5.6242810">
        <ele>668.8</ele>
        <time>2022-05-22T07:19:44Z</time>
      </trkpt>
      <trkpt lat="37.9543230" lon="-5.6242840">
        <ele>669.0</ele>
        <time>2022-05-22T07:19:46Z</time>
      </trkpt>
      <trkpt lat="37.9543150" lon="-5.6242860">
        <ele>669.1</ele>
        <time>2022-05-22T07:19:47Z</time>
      </trkpt>
      <trkpt lat="37.9543020" lon="-5.6242840">
        <ele>669.2</ele>
        <time>2022-05-22T07:19:48Z</time>
      </trkpt>
      <trkpt lat="37.9542910" lon="-5.6242830">
        <ele>669.3</ele>
        <time>2022-05-22T07:19:50Z</time>
      </trkpt>
      <trkpt lat="37.9542800" lon="-5.6242810">
        <ele>669.4</ele>
        <time>2022-05-22T07:19:51Z</time>
      </trkpt>
      <trkpt lat="37.9542680" lon="-5.6242800">
        <ele>669.5</ele>
        <time>2022-05-22T07:19:52Z</time>
      </trkpt>
      <trkpt lat="37.9542590" lon="-5.6242780">
        <ele>669.6</ele>
        <time>2022-05-22T07:19:53Z</time>
      </trkpt>
      <trkpt lat="37.9542470" lon="-5.6242770">
        <ele>669.7</ele>
        <time>2022-05-22T07:19:54Z</time>
      </trkpt>
      <trkpt lat="37.9542350" lon="-5.6242770">
        <ele>669.8</ele>
        <time>2022-05-22T07:19:55Z</time>
      </trkpt>
      <trkpt lat="37.9542250" lon="-5.6242760">
        <ele>669.9</ele>
        <time>2022-05-22T07:19:56Z</time>
      </trkpt>
      <trkpt lat="37.9542130" lon="-5.6242760">
        <ele>670.1</ele>
        <time>2022-05-22T07:19:57Z</time>
      </trkpt>
      <trkpt lat="37.9541950" lon="-5.6242750">
        <ele>670.2</ele>
        <time>2022-05-22T07:19:58Z</time>
      </trkpt>
      <trkpt lat="37.9541860" lon="-5.6242740">
        <ele>670.3</ele>
        <time>2022-05-22T07:20:00Z</time>
      </trkpt>
      <trkpt lat="37.9541770" lon="-5.6242740">
        <ele>670.4</ele>
        <time>2022-05-22T07:20:01Z</time>
      </trkpt>
      <trkpt lat="37.9541660" lon="-5.6242730">
        <ele>670.5</ele>
        <time>2022-05-22T07:20:02Z</time>
      </trkpt>
      <trkpt lat="37.9541520" lon="-5.6242730">
        <ele>670.7</ele>
        <time>2022-05-22T07:20:03Z</time>
      </trkpt>
      <trkpt lat="37.9541350" lon="-5.6242720">
        <ele>670.8</ele>
        <time>2022-05-22T07:20:05Z</time>
      </trkpt>
      <trkpt lat="37.9541250" lon="-5.6242730">
        <ele>671.0</ele>
        <time>2022-05-22T07:20:06Z</time>
      </trkpt>
      <trkpt lat="37.9541150" lon="-5.6242750">
        <ele>671.1</ele>
        <time>2022-05-22T07:20:07Z</time>
      </trkpt>
      <trkpt lat="37.9541060" lon="-5.6242780">
        <ele>671.2</ele>
        <time>2022-05-22T07:20:08Z</time>
      </trkpt>
      <trkpt lat="37.9541000" lon="-5.6242820">
        <ele>671.2</ele>
        <time>2022-05-22T07:20:09Z</time>
      </trkpt>
      <trkpt lat="37.9540940" lon="-5.6242890">
        <ele>671.3</ele>
        <time>2022-05-22T07:20:10Z</time>
      </trkpt>
      <trkpt lat="37.9540870" lon="-5.6242910">
        <ele>671.4</ele>
        <time>2022-05-22T07:20:11Z</time>
      </trkpt>
      <trkpt lat="37.9540750" lon="-5.6242890">
        <ele>671.5</ele>
        <time>2022-05-22T07:20:13Z</time>
      </trkpt>
      <trkpt lat="37.9540580" lon="-5.6242820">
        <ele>671.7</ele>
        <time>2022-05-22T07:20:14Z</time>
      </trkpt>
      <trkpt lat="37.9540490" lon="-5.6242800">
        <ele>671.8</ele>
        <time>2022-05-22T07:20:15Z</time>
      </trkpt>
      <trkpt lat="37.9540370" lon="-5.6242770">
        <ele>672.0</ele>
        <time>2022-05-22T07:20:16Z</time>
      </trkpt>
      <trkpt lat="37.9540260" lon="-5.6242740">
        <ele>672.1</ele>
        <time>2022-05-22T07:20:17Z</time>
      </trkpt>
      <trkpt lat="37.9540140" lon="-5.6242720">
        <ele>672.2</ele>
        <time>2022-05-22T07:20:18Z</time>
      </trkpt>
      <trkpt lat="37.9539950" lon="-5.6242700">
        <ele>672.4</ele>
        <time>2022-05-22T07:20:19Z</time>
      </trkpt>
      <trkpt lat="37.9539860" lon="-5.6242690">
        <ele>672.5</ele>
        <time>2022-05-22T07:20:20Z</time>
      </trkpt>
      <trkpt lat="37.9539770" lon="-5.6242680">
        <ele>672.6</ele>
        <time>2022-05-22T07:20:21Z</time>
      </trkpt>
      <trkpt lat="37.9539550" lon="-5.6242690">
        <ele>672.9</ele>
        <time>2022-05-22T07:20:22Z</time>
      </trkpt>
      <trkpt lat="37.9539450" lon="-5.6242710">
        <ele>673.0</ele>
        <time>2022-05-22T07:20:23Z</time>
      </trkpt>
      <trkpt lat="37.9539360" lon="-5.6242730">
        <ele>673.1</ele>
        <time>2022-05-22T07:20:24Z</time>
      </trkpt>
      <trkpt lat="37.9539170" lon="-5.6242770">
        <ele>673.3</ele>
        <time>2022-05-22T07:20:26Z</time>
      </trkpt>
      <trkpt lat="37.9539030" lon="-5.6242770">
        <ele>673.5</ele>
        <time>2022-05-22T07:20:27Z</time>
      </trkpt>
      <trkpt lat="37.9538780" lon="-5.6242770">
        <ele>673.7</ele>
        <time>2022-05-22T07:20:28Z</time>
      </trkpt>
      <trkpt lat="37.9538660" lon="-5.6242780">
        <ele>673.9</ele>
        <time>2022-05-22T07:20:30Z</time>
      </trkpt>
      <trkpt lat="37.9538540" lon="-5.6242800">
        <ele>674.0</ele>
        <time>2022-05-22T07:20:31Z</time>
      </trkpt>
      <trkpt lat="37.9538420" lon="-5.6242810">
        <ele>674.1</ele>
        <time>2022-05-22T07:20:32Z</time>
      </trkpt>
      <trkpt lat="37.9538300" lon="-5.6242820">
        <ele>674.3</ele>
        <time>2022-05-22T07:20:33Z</time>
      </trkpt>
      <trkpt lat="37.9538180" lon="-5.6242820">
        <ele>674.4</ele>
        <time>2022-05-22T07:20:34Z</time>
      </trkpt>
      <trkpt lat="37.9538070" lon="-5.6242810">
        <ele>674.5</ele>
        <time>2022-05-22T07:20:35Z</time>
      </trkpt>
      <trkpt lat="37.9537900" lon="-5.6242790">
        <ele>674.7</ele>
        <time>2022-05-22T07:20:37Z</time>
      </trkpt>
      <trkpt lat="37.9537810" lon="-5.6242790">
        <ele>674.8</ele>
        <time>2022-05-22T07:20:38Z</time>
      </trkpt>
      <trkpt lat="37.9537730" lon="-5.6242800">
        <ele>674.9</ele>
        <time>2022-05-22T07:20:39Z</time>
      </trkpt>
      <trkpt lat="37.9537570" lon="-5.6242820">
        <ele>675.1</ele>
        <time>2022-05-22T07:20:41Z</time>
      </trkpt>
      <trkpt lat="37.9537450" lon="-5.6242830">
        <ele>675.2</ele>
        <time>2022-05-22T07:20:42Z</time>
      </trkpt>
      <trkpt lat="37.9537210" lon="-5.6242820">
        <ele>675.5</ele>
        <time>2022-05-22T07:20:44Z</time>
      </trkpt>
      <trkpt lat="37.9537120" lon="-5.6242810">
        <ele>675.6</ele>
        <time>2022-05-22T07:20:45Z</time>
      </trkpt>
      <trkpt lat="37.9537030" lon="-5.6242800">
        <ele>675.7</ele>
        <time>2022-05-22T07:20:46Z</time>
      </trkpt>
      <trkpt lat="37.9536930" lon="-5.6242800">
        <ele>675.8</ele>
        <time>2022-05-22T07:20:47Z</time>
      </trkpt>
      <trkpt lat="37.9536690" lon="-5.6242800">
        <ele>676.1</ele>
        <time>2022-05-22T07:20:49Z</time>
      </trkpt>
      <trkpt lat="37.9536600" lon="-5.6242810">
        <ele>676.2</ele>
        <time>2022-05-22T07:20:50Z</time>
      </trkpt>
      <trkpt lat="37.9536510" lon="-5.6242820">
        <ele>676.3</ele>
        <time>2022-05-22T07:20:51Z</time>
      </trkpt>
      <trkpt lat="37.9536410" lon="-5.6242820">
        <ele>676.4</ele>
        <time>2022-05-22T07:20:52Z</time>
      </trkpt>
      <trkpt lat="37.9536300" lon="-5.6242810">
        <ele>676.5</ele>
        <time>2022-05-22T07:20:53Z</time>
      </trkpt>
      <trkpt lat="37.9536140" lon="-5.6242800">
        <ele>676.7</ele>
        <time>2022-05-22T07:20:54Z</time>
      </trkpt>
      <trkpt lat="37.9536040" lon="-5.6242780">
        <ele>676.8</ele>
        <time>2022-05-22T07:20:55Z</time>
      </trkpt>
      <trkpt lat="37.9535890" lon="-5.6242750">
        <ele>676.9</ele>
        <time>2022-05-22T07:20:57Z</time>
      </trkpt>
      <trkpt lat="37.9535690" lon="-5.6242730">
        <ele>677.1</ele>
        <time>2022-05-22T07:20:58Z</time>
      </trkpt>
      <trkpt lat="37.9535610" lon="-5.6242720">
        <ele>677.2</ele>
        <time>2022-05-22T07:20:59Z</time>
      </trkpt>
      <trkpt lat="37.9535520" lon="-5.6242720">
        <ele>677.3</ele>
        <time>2022-05-22T07:21:00Z</time>
      </trkpt>
      <trkpt lat="37.9535430" lon="-5.6242720">
        <ele>677.4</ele>
        <time>2022-05-22T07:21:01Z</time>
      </trkpt>
      <trkpt lat="37.9535320" lon="-5.6242720">
        <ele>677.5</ele>
        <time>2022-05-22T07:21:02Z</time>
      </trkpt>
      <trkpt lat="37.9535210" lon="-5.6242720">
        <ele>677.7</ele>
        <time>2022-05-22T07:21:03Z</time>
      </trkpt>
      <trkpt lat="37.9535000" lon="-5.6242730">
        <ele>677.9</ele>
        <time>2022-05-22T07:21:04Z</time>
      </trkpt>
      <trkpt lat="37.9534920" lon="-5.6242730">
        <ele>678.0</ele>
        <time>2022-05-22T07:21:05Z</time>
      </trkpt>
      <trkpt lat="37.9534840" lon="-5.6242740">
        <ele>678.0</ele>
        <time>2022-05-22T07:21:06Z</time>
      </trkpt>
      <trkpt lat="37.9534730" lon="-5.6242730">
        <ele>678.1</ele>
        <time>2022-05-22T07:21:07Z</time>
      </trkpt>
      <trkpt lat="37.9534630" lon="-5.6242720">
        <ele>678.2</ele>
        <time>2022-05-22T07:21:08Z</time>
      </trkpt>
      <trkpt lat="37.9534520" lon="-5.6242710">
        <ele>678.4</ele>
        <time>2022-05-22T07:21:09Z</time>
      </trkpt>
      <trkpt lat="37.9534310" lon="-5.6242700">
        <ele>678.6</ele>
        <time>2022-05-22T07:21:10Z</time>
      </trkpt>
      <trkpt lat="37.9534220" lon="-5.6242700">
        <ele>678.6</ele>
        <time>2022-05-22T07:21:11Z</time>
      </trkpt>
      <trkpt lat="37.9534130" lon="-5.6242690">
        <ele>678.7</ele>
        <time>2022-05-22T07:21:12Z</time>
      </trkpt>
      <trkpt lat="37.9533940" lon="-5.6242680">
        <ele>678.9</ele>
        <time>2022-05-22T07:21:14Z</time>
      </trkpt>
      <trkpt lat="37.9533810" lon="-5.6242660">
        <ele>679.0</ele>
        <time>2022-05-22T07:21:15Z</time>
      </trkpt>
      <trkpt lat="37.9533700" lon="-5.6242630">
        <ele>679.1</ele>
        <time>2022-05-22T07:21:16Z</time>
      </trkpt>
      <trkpt lat="37.9533590" lon="-5.6242590">
        <ele>679.2</ele>
        <time>2022-05-22T07:21:17Z</time>
      </trkpt>
      <trkpt lat="37.9533390" lon="-5.6242520">
        <ele>679.4</ele>
        <time>2022-05-22T07:21:19Z</time>
      </trkpt>
      <trkpt lat="37.9533290" lon="-5.6242490">
        <ele>679.5</ele>
        <time>2022-05-22T07:21:20Z</time>
      </trkpt>
      <trkpt lat="37.9533180" lon="-5.6242480">
        <ele>679.6</ele>
        <time>2022-05-22T07:21:21Z</time>
      </trkpt>
      <trkpt lat="37.9533040" lon="-5.6242470">
        <ele>679.7</ele>
        <time>2022-05-22T07:21:22Z</time>
      </trkpt>
      <trkpt lat="37.9532840" lon="-5.6242400">
        <ele>679.9</ele>
        <time>2022-05-22T07:21:24Z</time>
      </trkpt>
      <trkpt lat="37.9532720" lon="-5.6242360">
        <ele>680.0</ele>
        <time>2022-05-22T07:21:25Z</time>
      </trkpt>
      <trkpt lat="37.9532630" lon="-5.6242320">
        <ele>680.1</ele>
        <time>2022-05-22T07:21:26Z</time>
      </trkpt>
      <trkpt lat="37.9532540" lon="-5.6242280">
        <ele>680.1</ele>
        <time>2022-05-22T07:21:27Z</time>
      </trkpt>
      <trkpt lat="37.9532450" lon="-5.6242230">
        <ele>680.2</ele>
        <time>2022-05-22T07:21:28Z</time>
      </trkpt>
      <trkpt lat="37.9532330" lon="-5.6242140">
        <ele>680.3</ele>
        <time>2022-05-22T07:21:29Z</time>
      </trkpt>
      <trkpt lat="37.9532240" lon="-5.6242060">
        <ele>680.4</ele>
        <time>2022-05-22T07:21:30Z</time>
      </trkpt>
      <trkpt lat="37.9532160" lon="-5.6241960">
        <ele>680.5</ele>
        <time>2022-05-22T07:21:31Z</time>
      </trkpt>
      <trkpt lat="37.9532040" lon="-5.6241810">
        <ele>680.6</ele>
        <time>2022-05-22T07:21:32Z</time>
      </trkpt>
      <trkpt lat="37.9531870" lon="-5.6241630">
        <ele>680.8</ele>
        <time>2022-05-22T07:21:34Z</time>
      </trkpt>
      <trkpt lat="37.9531760" lon="-5.6241520">
        <ele>680.8</ele>
        <time>2022-05-22T07:21:35Z</time>
      </trkpt>
      <trkpt lat="37.9531630" lon="-5.6241390">
        <ele>680.9</ele>
        <time>2022-05-22T07:21:36Z</time>
      </trkpt>
      <trkpt lat="37.9531500" lon="-5.6241290">
        <ele>681.0</ele>
        <time>2022-05-22T07:21:38Z</time>
      </trkpt>
      <trkpt lat="37.9531340" lon="-5.6241130">
        <ele>681.1</ele>
        <time>2022-05-22T07:21:39Z</time>
      </trkpt>
      <trkpt lat="37.9531230" lon="-5.6241000">
        <ele>681.2</ele>
        <time>2022-05-22T07:21:40Z</time>
      </trkpt>
      <trkpt lat="37.9531110" lon="-5.6240850">
        <ele>681.3</ele>
        <time>2022-05-22T07:21:41Z</time>
      </trkpt>
      <trkpt lat="37.9530960" lon="-5.6240660">
        <ele>681.4</ele>
        <time>2022-05-22T07:21:43Z</time>
      </trkpt>
      <trkpt lat="37.9530890" lon="-5.6240570">
        <ele>681.5</ele>
        <time>2022-05-22T07:21:44Z</time>
      </trkpt>
      <trkpt lat="37.9530830" lon="-5.6240480">
        <ele>681.5</ele>
        <time>2022-05-22T07:21:45Z</time>
      </trkpt>
      <trkpt lat="37.9530710" lon="-5.6240330">
        <ele>681.6</ele>
        <time>2022-05-22T07:21:46Z</time>
      </trkpt>
      <trkpt lat="37.9530620" lon="-5.6240220">
        <ele>681.7</ele>
        <time>2022-05-22T07:21:47Z</time>
      </trkpt>
      <trkpt lat="37.9530510" lon="-5.6240110">
        <ele>681.7</ele>
        <time>2022-05-22T07:21:48Z</time>
      </trkpt>
      <trkpt lat="37.9530400" lon="-5.6240000">
        <ele>681.8</ele>
        <time>2022-05-22T07:21:49Z</time>
      </trkpt>
      <trkpt lat="37.9530260" lon="-5.6239890">
        <ele>681.9</ele>
        <time>2022-05-22T07:21:50Z</time>
      </trkpt>
      <trkpt lat="37.9530100" lon="-5.6239750">
        <ele>682.0</ele>
        <time>2022-05-22T07:21:52Z</time>
      </trkpt>
      <trkpt lat="37.9529980" lon="-5.6239650">
        <ele>682.0</ele>
        <time>2022-05-22T07:21:53Z</time>
      </trkpt>
      <trkpt lat="37.9529850" lon="-5.6239520">
        <ele>682.1</ele>
        <time>2022-05-22T07:21:54Z</time>
      </trkpt>
      <trkpt lat="37.9529660" lon="-5.6239260">
        <ele>682.3</ele>
        <time>2022-05-22T07:21:55Z</time>
      </trkpt>
      <trkpt lat="37.9529570" lon="-5.6239130">
        <ele>682.4</ele>
        <time>2022-05-22T07:21:57Z</time>
      </trkpt>
      <trkpt lat="37.9529480" lon="-5.6239010">
        <ele>682.4</ele>
        <time>2022-05-22T07:21:58Z</time>
      </trkpt>
      <trkpt lat="37.9529390" lon="-5.6238880">
        <ele>682.5</ele>
        <time>2022-05-22T07:21:59Z</time>
      </trkpt>
      <trkpt lat="37.9529300" lon="-5.6238720">
        <ele>682.6</ele>
        <time>2022-05-22T07:22:00Z</time>
      </trkpt>
      <trkpt lat="37.9529210" lon="-5.6238610">
        <ele>682.7</ele>
        <time>2022-05-22T07:22:01Z</time>
      </trkpt>
      <trkpt lat="37.9529110" lon="-5.6238500">
        <ele>682.7</ele>
        <time>2022-05-22T07:22:02Z</time>
      </trkpt>
      <trkpt lat="37.9528950" lon="-5.6238310">
        <ele>682.9</ele>
        <time>2022-05-22T07:22:04Z</time>
      </trkpt>
      <trkpt lat="37.9528870" lon="-5.6238200">
        <ele>682.9</ele>
        <time>2022-05-22T07:22:05Z</time>
      </trkpt>
      <trkpt lat="37.9528760" lon="-5.6238060">
        <ele>683.0</ele>
        <time>2022-05-22T07:22:07Z</time>
      </trkpt>
      <trkpt lat="37.9528700" lon="-5.6237980">
        <ele>683.1</ele>
        <time>2022-05-22T07:22:08Z</time>
      </trkpt>
      <trkpt lat="37.9528610" lon="-5.6237850">
        <ele>683.1</ele>
        <time>2022-05-22T07:22:09Z</time>
      </trkpt>
      <trkpt lat="37.9528560" lon="-5.6237780">
        <ele>683.2</ele>
        <time>2022-05-22T07:22:10Z</time>
      </trkpt>
      <trkpt lat="37.9528500" lon="-5.6237700">
        <ele>683.2</ele>
        <time>2022-05-22T07:22:11Z</time>
      </trkpt>
      <trkpt lat="37.9528430" lon="-5.6237600">
        <ele>683.3</ele>
        <time>2022-05-22T07:22:12Z</time>
      </trkpt>
      <trkpt lat="37.9528340" lon="-5.6237510">
        <ele>683.4</ele>
        <time>2022-05-22T07:22:13Z</time>
      </trkpt>
      <trkpt lat="37.9528220" lon="-5.6237390">
        <ele>683.5</ele>
        <time>2022-05-22T07:22:14Z</time>
      </trkpt>
      <trkpt lat="37.9528120" lon="-5.6237320">
        <ele>683.5</ele>
        <time>2022-05-22T07:22:15Z</time>
      </trkpt>
      <trkpt lat="37.9528050" lon="-5.6237250">
        <ele>683.6</ele>
        <time>2022-05-22T07:22:16Z</time>
      </trkpt>
      <trkpt lat="37.9527870" lon="-5.6237100">
        <ele>683.7</ele>
        <time>2022-05-22T07:22:17Z</time>
      </trkpt>
      <trkpt lat="37.9527800" lon="-5.6237040">
        <ele>683.7</ele>
        <time>2022-05-22T07:22:18Z</time>
      </trkpt>
      <trkpt lat="37.9527730" lon="-5.6236980">
        <ele>683.8</ele>
        <time>2022-05-22T07:22:19Z</time>
      </trkpt>
      <trkpt lat="37.9527610" lon="-5.6236870">
        <ele>683.9</ele>
        <time>2022-05-22T07:22:20Z</time>
      </trkpt>
      <trkpt lat="37.9527540" lon="-5.6236780">
        <ele>683.9</ele>
        <time>2022-05-22T07:22:21Z</time>
      </trkpt>
      <trkpt lat="37.9527460" lon="-5.6236680">
        <ele>684.0</ele>
        <time>2022-05-22T07:22:22Z</time>
      </trkpt>
      <trkpt lat="37.9527280" lon="-5.6236480">
        <ele>684.1</ele>
        <time>2022-05-22T07:22:23Z</time>
      </trkpt>
      <trkpt lat="37.9527190" lon="-5.6236390">
        <ele>684.2</ele>
        <time>2022-05-22T07:22:24Z</time>
      </trkpt>
      <trkpt lat="37.9527100" lon="-5.6236300">
        <ele>684.2</ele>
        <time>2022-05-22T07:22:25Z</time>
      </trkpt>
      <trkpt lat="37.9526950" lon="-5.6236130">
        <ele>684.3</ele>
        <time>2022-05-22T07:22:27Z</time>
      </trkpt>
      <trkpt lat="37.9526900" lon="-5.6236050">
        <ele>684.4</ele>
        <time>2022-05-22T07:22:28Z</time>
      </trkpt>
      <trkpt lat="37.9526840" lon="-5.6235980">
        <ele>684.4</ele>
        <time>2022-05-22T07:22:29Z</time>
      </trkpt>
      <trkpt lat="37.9526760" lon="-5.6235850">
        <ele>684.5</ele>
        <time>2022-05-22T07:22:30Z</time>
      </trkpt>
      <trkpt lat="37.9526690" lon="-5.6235670">
        <ele>684.6</ele>
        <time>2022-05-22T07:22:31Z</time>
      </trkpt>
      <trkpt lat="37.9526660" lon="-5.6235610">
        <ele>684.6</ele>
        <time>2022-05-22T07:22:32Z</time>
      </trkpt>
      <trkpt lat="37.9526590" lon="-5.6235540">
        <ele>684.6</ele>
        <time>2022-05-22T07:22:33Z</time>
      </trkpt>
      <trkpt lat="37.9526510" lon="-5.6235460">
        <ele>684.7</ele>
        <time>2022-05-22T07:22:34Z</time>
      </trkpt>
      <trkpt lat="37.9526430" lon="-5.6235370">
        <ele>684.7</ele>
        <time>2022-05-22T07:22:35Z</time>
      </trkpt>
      <trkpt lat="37.9526340" lon="-5.6235270">
        <ele>684.8</ele>
        <time>2022-05-22T07:22:36Z</time>
      </trkpt>
      <trkpt lat="37.9526210" lon="-5.6235090">
        <ele>684.8</ele>
        <time>2022-05-22T07:22:37Z</time>
      </trkpt>
      <trkpt lat="37.9526110" lon="-5.6234940">
        <ele>684.9</ele>
        <time>2022-05-22T07:22:39Z</time>
      </trkpt>
      <trkpt lat="37.9526020" lon="-5.6234820">
        <ele>685.0</ele>
        <time>2022-05-22T07:22:40Z</time>
      </trkpt>
      <trkpt lat="37.9525920" lon="-5.6234730">
        <ele>685.0</ele>
        <time>2022-05-22T07:22:41Z</time>
      </trkpt>
      <trkpt lat="37.9525810" lon="-5.6234630">
        <ele>685.1</ele>
        <time>2022-05-22T07:22:42Z</time>
      </trkpt>
      <trkpt lat="37.9525660" lon="-5.6234490">
        <ele>685.1</ele>
        <time>2022-05-22T07:22:44Z</time>
      </trkpt>
      <trkpt lat="37.9525480" lon="-5.6234360">
        <ele>685.2</ele>
        <time>2022-05-22T07:22:45Z</time>
      </trkpt>
      <trkpt lat="37.9525400" lon="-5.6234310">
        <ele>685.3</ele>
        <time>2022-05-22T07:22:46Z</time>
      </trkpt>
      <trkpt lat="37.9525320" lon="-5.6234260">
        <ele>685.3</ele>
        <time>2022-05-22T07:22:47Z</time>
      </trkpt>
      <trkpt lat="37.9525170" lon="-5.6234190">
        <ele>685.4</ele>
        <time>2022-05-22T07:22:48Z</time>
      </trkpt>
      <trkpt lat="37.9525020" lon="-5.6234110">
        <ele>685.4</ele>
        <time>2022-05-22T07:22:49Z</time>
      </trkpt>
      <trkpt lat="37.9524830" lon="-5.6234010">
        <ele>685.5</ele>
        <time>2022-05-22T07:22:50Z</time>
      </trkpt>
      <trkpt lat="37.9524750" lon="-5.6233960">
        <ele>685.5</ele>
        <time>2022-05-22T07:22:51Z</time>
      </trkpt>
      <trkpt lat="37.9524670" lon="-5.6233910">
        <ele>685.6</ele>
        <time>2022-05-22T07:22:52Z</time>
      </trkpt>
      <trkpt lat="37.9524520" lon="-5.6233810">
        <ele>685.6</ele>
        <time>2022-05-22T07:22:54Z</time>
      </trkpt>
      <trkpt lat="37.9524380" lon="-5.6233700">
        <ele>685.7</ele>
        <time>2022-05-22T07:22:55Z</time>
      </trkpt>
      <trkpt lat="37.9524290" lon="-5.6233620">
        <ele>685.7</ele>
        <time>2022-05-22T07:22:56Z</time>
      </trkpt>
      <trkpt lat="37.9524120" lon="-5.6233420">
        <ele>685.8</ele>
        <time>2022-05-22T07:22:58Z</time>
      </trkpt>
      <trkpt lat="37.9524040" lon="-5.6233290">
        <ele>685.8</ele>
        <time>2022-05-22T07:22:59Z</time>
      </trkpt>
      <trkpt lat="37.9523940" lon="-5.6233130">
        <ele>685.9</ele>
        <time>2022-05-22T07:23:00Z</time>
      </trkpt>
      <trkpt lat="37.9523870" lon="-5.6233030">
        <ele>685.9</ele>
        <time>2022-05-22T07:23:01Z</time>
      </trkpt>
      <trkpt lat="37.9523780" lon="-5.6232810">
        <ele>686.0</ele>
        <time>2022-05-22T07:23:02Z</time>
      </trkpt>
      <trkpt lat="37.9523660" lon="-5.6232620">
        <ele>686.0</ele>
        <time>2022-05-22T07:23:04Z</time>
      </trkpt>
      <trkpt lat="37.9523490" lon="-5.6232370">
        <ele>686.1</ele>
        <time>2022-05-22T07:23:06Z</time>
      </trkpt>
      <trkpt lat="37.9523400" lon="-5.6232210">
        <ele>686.1</ele>
        <time>2022-05-22T07:23:07Z</time>
      </trkpt>
      <trkpt lat="37.9523350" lon="-5.6232120">
        <ele>686.2</ele>
        <time>2022-05-22T07:23:08Z</time>
      </trkpt>
      <trkpt lat="37.9523320" lon="-5.6232020">
        <ele>686.2</ele>
        <time>2022-05-22T07:23:09Z</time>
      </trkpt>
      <trkpt lat="37.9523270" lon="-5.6231910">
        <ele>686.2</ele>
        <time>2022-05-22T07:23:10Z</time>
      </trkpt>
      <trkpt lat="37.9523200" lon="-5.6231720">
        <ele>686.2</ele>
        <time>2022-05-22T07:23:11Z</time>
      </trkpt>
      <trkpt lat="37.9523150" lon="-5.6231630">
        <ele>686.2</ele>
        <time>2022-05-22T07:23:12Z</time>
      </trkpt>
      <trkpt lat="37.9523090" lon="-5.6231500">
        <ele>686.3</ele>
        <time>2022-05-22T07:23:13Z</time>
      </trkpt>
      <trkpt lat="37.9523040" lon="-5.6231390">
        <ele>686.3</ele>
        <time>2022-05-22T07:23:14Z</time>
      </trkpt>
      <trkpt lat="37.9522980" lon="-5.6231260">
        <ele>686.3</ele>
        <time>2022-05-22T07:23:15Z</time>
      </trkpt>
      <trkpt lat="37.9522860" lon="-5.6231000">
        <ele>686.3</ele>
        <time>2022-05-22T07:23:17Z</time>
      </trkpt>
      <trkpt lat="37.9522840" lon="-5.6230920">
        <ele>686.4</ele>
        <time>2022-05-22T07:23:18Z</time>
      </trkpt>
      <trkpt lat="37.9522820" lon="-5.6230830">
        <ele>686.4</ele>
        <time>2022-05-22T07:23:19Z</time>
      </trkpt>
      <trkpt lat="37.9522790" lon="-5.6230710">
        <ele>686.4</ele>
        <time>2022-05-22T07:23:20Z</time>
      </trkpt>
      <trkpt lat="37.9522770" lon="-5.6230560">
        <ele>686.4</ele>
        <time>2022-05-22T07:23:21Z</time>
      </trkpt>
      <trkpt lat="37.9522740" lon="-5.6230410">
        <ele>686.4</ele>
        <time>2022-05-22T07:23:22Z</time>
      </trkpt>
      <trkpt lat="37.9522710" lon="-5.6230210">
        <ele>686.4</ele>
        <time>2022-05-22T07:23:23Z</time>
      </trkpt>
      <trkpt lat="37.9522670" lon="-5.6230050">
        <ele>686.5</ele>
        <time>2022-05-22T07:23:24Z</time>
      </trkpt>
      <trkpt lat="37.9522600" lon="-5.6229870">
        <ele>686.5</ele>
        <time>2022-05-22T07:23:25Z</time>
      </trkpt>
      <trkpt lat="37.9522500" lon="-5.6229730">
        <ele>686.5</ele>
        <time>2022-05-22T07:23:27Z</time>
      </trkpt>
      <trkpt lat="37.9522390" lon="-5.6229630">
        <ele>686.5</ele>
        <time>2022-05-22T07:23:28Z</time>
      </trkpt>
      <trkpt lat="37.9522230" lon="-5.6229560">
        <ele>686.5</ele>
        <time>2022-05-22T07:23:29Z</time>
      </trkpt>
      <trkpt lat="37.9522020" lon="-5.6229500">
        <ele>686.6</ele>
        <time>2022-05-22T07:23:30Z</time>
      </trkpt>
      <trkpt lat="37.9521920" lon="-5.6229470">
        <ele>686.6</ele>
        <time>2022-05-22T07:23:31Z</time>
      </trkpt>
      <trkpt lat="37.9521830" lon="-5.6229450">
        <ele>686.6</ele>
        <time>2022-05-22T07:23:32Z</time>
      </trkpt>
      <trkpt lat="37.9521700" lon="-5.6229410">
        <ele>686.6</ele>
        <time>2022-05-22T07:23:33Z</time>
      </trkpt>
      <trkpt lat="37.9521550" lon="-5.6229360">
        <ele>686.6</ele>
        <time>2022-05-22T07:23:34Z</time>
      </trkpt>
      <trkpt lat="37.9521400" lon="-5.6229300">
        <ele>686.7</ele>
        <time>2022-05-22T07:23:36Z</time>
      </trkpt>
      <trkpt lat="37.9521290" lon="-5.6229260">
        <ele>686.7</ele>
        <time>2022-05-22T07:23:37Z</time>
      </trkpt>
      <trkpt lat="37.9521090" lon="-5.6229210">
        <ele>686.7</ele>
        <time>2022-05-22T07:23:38Z</time>
      </trkpt>
      <trkpt lat="37.9521000" lon="-5.6229180">
        <ele>686.7</ele>
        <time>2022-05-22T07:23:39Z</time>
      </trkpt>
      <trkpt lat="37.9520900" lon="-5.6229160">
        <ele>686.7</ele>
        <time>2022-05-22T07:23:40Z</time>
      </trkpt>
      <trkpt lat="37.9520700" lon="-5.6229100">
        <ele>686.8</ele>
        <time>2022-05-22T07:23:41Z</time>
      </trkpt>
      <trkpt lat="37.9520630" lon="-5.6229080">
        <ele>686.8</ele>
        <time>2022-05-22T07:23:42Z</time>
      </trkpt>
      <trkpt lat="37.9520550" lon="-5.6229060">
        <ele>686.8</ele>
        <time>2022-05-22T07:23:43Z</time>
      </trkpt>
      <trkpt lat="37.9520420" lon="-5.6229020">
        <ele>686.8</ele>
        <time>2022-05-22T07:23:44Z</time>
      </trkpt>
      <trkpt lat="37.9520240" lon="-5.6228980">
        <ele>686.9</ele>
        <time>2022-05-22T07:23:45Z</time>
      </trkpt>
      <trkpt lat="37.9520010" lon="-5.6228910">
        <ele>686.9</ele>
        <time>2022-05-22T07:23:47Z</time>
      </trkpt>
      <trkpt lat="37.9519920" lon="-5.6228870">
        <ele>686.9</ele>
        <time>2022-05-22T07:23:48Z</time>
      </trkpt>
      <trkpt lat="37.9519830" lon="-5.6228840">
        <ele>687.0</ele>
        <time>2022-05-22T07:23:49Z</time>
      </trkpt>
      <trkpt lat="37.9519720" lon="-5.6228780">
        <ele>687.0</ele>
        <time>2022-05-22T07:23:50Z</time>
      </trkpt>
      <trkpt lat="37.9519540" lon="-5.6228640">
        <ele>687.0</ele>
        <time>2022-05-22T07:23:52Z</time>
      </trkpt>
      <trkpt lat="37.9519440" lon="-5.6228550">
        <ele>687.0</ele>
        <time>2022-05-22T07:23:53Z</time>
      </trkpt>
      <trkpt lat="37.9519320" lon="-5.6228500">
        <ele>687.1</ele>
        <time>2022-05-22T07:23:54Z</time>
      </trkpt>
      <trkpt lat="37.9519220" lon="-5.6228450">
        <ele>687.1</ele>
        <time>2022-05-22T07:23:55Z</time>
      </trkpt>
      <trkpt lat="37.9519030" lon="-5.6228340">
        <ele>687.1</ele>
        <time>2022-05-22T07:23:56Z</time>
      </trkpt>
      <trkpt lat="37.9518960" lon="-5.6228280">
        <ele>687.2</ele>
        <time>2022-05-22T07:23:57Z</time>
      </trkpt>
      <trkpt lat="37.9518890" lon="-5.6228220">
        <ele>687.2</ele>
        <time>2022-05-22T07:23:58Z</time>
      </trkpt>
      <trkpt lat="37.9518820" lon="-5.6228120">
        <ele>687.2</ele>
        <time>2022-05-22T07:23:59Z</time>
      </trkpt>
      <trkpt lat="37.9518760" lon="-5.6228010">
        <ele>687.2</ele>
        <time>2022-05-22T07:24:00Z</time>
      </trkpt>
      <trkpt lat="37.9518690" lon="-5.6227890">
        <ele>687.2</ele>
        <time>2022-05-22T07:24:01Z</time>
      </trkpt>
      <trkpt lat="37.9518620" lon="-5.6227760">
        <ele>687.3</ele>
        <time>2022-05-22T07:24:02Z</time>
      </trkpt>
      <trkpt lat="37.9518520" lon="-5.6227700">
        <ele>687.3</ele>
        <time>2022-05-22T07:24:03Z</time>
      </trkpt>
      <trkpt lat="37.9518470" lon="-5.6227680">
        <ele>687.3</ele>
        <time>2022-05-22T07:24:04Z</time>
      </trkpt>
      <trkpt lat="37.9518420" lon="-5.6227460">
        <ele>687.3</ele>
        <time>2022-05-22T07:24:05Z</time>
      </trkpt>
      <trkpt lat="37.9518400" lon="-5.6227300">
        <ele>687.4</ele>
        <time>2022-05-22T07:24:06Z</time>
      </trkpt>
      <trkpt lat="37.9518380" lon="-5.6227130">
        <ele>687.4</ele>
        <time>2022-05-22T07:24:08Z</time>
      </trkpt>
      <trkpt lat="37.9518360" lon="-5.6226960">
        <ele>687.4</ele>
        <time>2022-05-22T07:24:09Z</time>
      </trkpt>
      <trkpt lat="37.9518350" lon="-5.6226790">
        <ele>687.4</ele>
        <time>2022-05-22T07:24:10Z</time>
      </trkpt>
      <trkpt lat="37.9518320" lon="-5.6226610">
        <ele>687.5</ele>
        <time>2022-05-22T07:24:11Z</time>
      </trkpt>
      <trkpt lat="37.9518270" lon="-5.6226380">
        <ele>687.5</ele>
        <time>2022-05-22T07:24:12Z</time>
      </trkpt>
      <trkpt lat="37.9518250" lon="-5.6226220">
        <ele>687.5</ele>
        <time>2022-05-22T07:24:13Z</time>
      </trkpt>
      <trkpt lat="37.9518330" lon="-5.6225950">
        <ele>687.4</ele>
        <time>2022-05-22T07:24:15Z</time>
      </trkpt>
      <trkpt lat="37.9518420" lon="-5.6225850">
        <ele>687.4</ele>
        <time>2022-05-22T07:24:16Z</time>
      </trkpt>
      <trkpt lat="37.9518510" lon="-5.6225660">
        <ele>687.4</ele>
        <time>2022-05-22T07:24:17Z</time>
      </trkpt>
      <trkpt lat="37.9518510" lon="-5.6226220">
        <ele>687.5</ele>
        <time>2022-05-22T07:24:18Z</time>
      </trkpt>
      <trkpt lat="37.9518490" lon="-5.6226890">
        <ele>687.9</ele>
        <time>2022-05-22T07:24:19Z</time>
      </trkpt>
      <trkpt lat="37.9518480" lon="-5.6227570">
        <ele>688.1</ele>
        <time>2022-05-22T07:30:23Z</time>
      </trkpt>
      <trkpt lat="37.9518460" lon="-5.6228250">
        <ele>688.4</ele>
        <time>2022-05-22T07:30:24Z</time>
      </trkpt>
      <trkpt lat="37.9518450" lon="-5.6228930">
        <ele>688.5</ele>
        <time>2022-05-22T07:30:25Z</time>
      </trkpt>
      <trkpt lat="37.9518430" lon="-5.6229070">
        <ele>688.6</ele>
        <time>2022-05-22T07:30:26Z</time>
      </trkpt>
      <trkpt lat="37.9518440" lon="-5.6229180">
        <ele>688.6</ele>
        <time>2022-05-22T07:30:27Z</time>
      </trkpt>
      <trkpt lat="37.9518440" lon="-5.6229230">
        <ele>688.6</ele>
        <time>2022-05-22T07:30:28Z</time>
      </trkpt>
      <trkpt lat="37.9518430" lon="-5.6229280">
        <ele>688.6</ele>
        <time>2022-05-22T07:30:29Z</time>
      </trkpt>
      <trkpt lat="37.9518400" lon="-5.6229310">
        <ele>688.6</ele>
        <time>2022-05-22T07:30:30Z</time>
      </trkpt>
      <trkpt lat="37.9518330" lon="-5.6229310">
        <ele>688.6</ele>
        <time>2022-05-22T07:30:31Z</time>
      </trkpt>
      <trkpt lat="37.9518240" lon="-5.6229310">
        <ele>688.6</ele>
        <time>2022-05-22T07:30:32Z</time>
      </trkpt>
      <trkpt lat="37.9518150" lon="-5.6229280">
        <ele>688.6</ele>
        <time>2022-05-22T07:30:33Z</time>
      </trkpt>
      <trkpt lat="37.9518030" lon="-5.6229380">
        <ele>688.5</ele>
        <time>2022-05-22T07:30:34Z</time>
      </trkpt>
      <trkpt lat="37.9518010" lon="-5.6229450">
        <ele>688.6</ele>
        <time>2022-05-22T07:30:35Z</time>
      </trkpt>
      <trkpt lat="37.9517980" lon="-5.6229510">
        <ele>688.6</ele>
        <time>2022-05-22T07:30:36Z</time>
      </trkpt>
      <trkpt lat="37.9517950" lon="-5.6229580">
        <ele>688.6</ele>
        <time>2022-05-22T07:30:37Z</time>
      </trkpt>
      <trkpt lat="37.9517930" lon="-5.6229650">
        <ele>688.6</ele>
        <time>2022-05-22T07:30:38Z</time>
      </trkpt>
      <trkpt lat="37.9517830" lon="-5.6229750">
        <ele>688.6</ele>
        <time>2022-05-22T07:30:39Z</time>
      </trkpt>
      <trkpt lat="37.9517630" lon="-5.6229840">
        <ele>688.6</ele>
        <time>2022-05-22T07:30:40Z</time>
      </trkpt>
      <trkpt lat="37.9517450" lon="-5.6229860">
        <ele>688.6</ele>
        <time>2022-05-22T07:30:41Z</time>
      </trkpt>
      <trkpt lat="37.9517300" lon="-5.6229940">
        <ele>688.6</ele>
        <time>2022-05-22T07:30:42Z</time>
      </trkpt>
      <trkpt lat="37.9517200" lon="-5.6230010">
        <ele>688.6</ele>
        <time>2022-05-22T07:30:43Z</time>
      </trkpt>
      <trkpt lat="37.9517120" lon="-5.6230080">
        <ele>688.6</ele>
        <time>2022-05-22T07:30:44Z</time>
      </trkpt>
      <trkpt lat="37.9517040" lon="-5.6230150">
        <ele>688.6</ele>
        <time>2022-05-22T07:30:45Z</time>
      </trkpt>
      <trkpt lat="37.9516950" lon="-5.6230260">
        <ele>688.7</ele>
        <time>2022-05-22T07:30:46Z</time>
      </trkpt>
      <trkpt lat="37.9516890" lon="-5.6230380">
        <ele>688.7</ele>
        <time>2022-05-22T07:30:47Z</time>
      </trkpt>
      <trkpt lat="37.9516910" lon="-5.6230490">
        <ele>688.7</ele>
        <time>2022-05-22T07:30:48Z</time>
      </trkpt>
      <trkpt lat="37.9517020" lon="-5.6230570">
        <ele>688.7</ele>
        <time>2022-05-22T07:30:49Z</time>
      </trkpt>
      <trkpt lat="37.9517050" lon="-5.6230620">
        <ele>688.6</ele>
        <time>2022-05-22T07:30:50Z</time>
      </trkpt>
      <trkpt lat="37.9517020" lon="-5.6230690">
        <ele>688.7</ele>
        <time>2022-05-22T07:30:51Z</time>
      </trkpt>
      <trkpt lat="37.9516920" lon="-5.6230790">
        <ele>688.7</ele>
        <time>2022-05-22T07:30:53Z</time>
      </trkpt>
      <trkpt lat="37.9516840" lon="-5.6230880">
        <ele>688.7</ele>
        <time>2022-05-22T07:30:54Z</time>
      </trkpt>
      <trkpt lat="37.9516790" lon="-5.6231010">
        <ele>688.7</ele>
        <time>2022-05-22T07:30:55Z</time>
      </trkpt>
      <trkpt lat="37.9516650" lon="-5.6231200">
        <ele>688.8</ele>
        <time>2022-05-22T07:30:57Z</time>
      </trkpt>
      <trkpt lat="37.9516570" lon="-5.6231270">
        <ele>688.8</ele>
        <time>2022-05-22T07:30:58Z</time>
      </trkpt>
      <trkpt lat="37.9516430" lon="-5.6231390">
        <ele>688.8</ele>
        <time>2022-05-22T07:30:59Z</time>
      </trkpt>
      <trkpt lat="37.9516330" lon="-5.6231480">
        <ele>688.8</ele>
        <time>2022-05-22T07:31:00Z</time>
      </trkpt>
      <trkpt lat="37.9516090" lon="-5.6231770">
        <ele>688.9</ele>
        <time>2022-05-22T07:31:02Z</time>
      </trkpt>
      <trkpt lat="37.9515960" lon="-5.6231990">
        <ele>688.9</ele>
        <time>2022-05-22T07:31:03Z</time>
      </trkpt>
      <trkpt lat="37.9515910" lon="-5.6232090">
        <ele>688.9</ele>
        <time>2022-05-22T07:31:04Z</time>
      </trkpt>
      <trkpt lat="37.9515860" lon="-5.6232180">
        <ele>688.9</ele>
        <time>2022-05-22T07:31:05Z</time>
      </trkpt>
      <trkpt lat="37.9515780" lon="-5.6232310">
        <ele>688.9</ele>
        <time>2022-05-22T07:31:06Z</time>
      </trkpt>
      <trkpt lat="37.9515660" lon="-5.6232480">
        <ele>689.0</ele>
        <time>2022-05-22T07:31:07Z</time>
      </trkpt>
      <trkpt lat="37.9515580" lon="-5.6232610">
        <ele>689.0</ele>
        <time>2022-05-22T07:31:08Z</time>
      </trkpt>
      <trkpt lat="37.9515500" lon="-5.6232750">
        <ele>689.0</ele>
        <time>2022-05-22T07:31:09Z</time>
      </trkpt>
      <trkpt lat="37.9515360" lon="-5.6232960">
        <ele>689.0</ele>
        <time>2022-05-22T07:31:11Z</time>
      </trkpt>
      <trkpt lat="37.9515300" lon="-5.6233140">
        <ele>689.0</ele>
        <time>2022-05-22T07:31:12Z</time>
      </trkpt>
      <trkpt lat="37.9515140" lon="-5.6233460">
        <ele>689.0</ele>
        <time>2022-05-22T07:31:14Z</time>
      </trkpt>
      <trkpt lat="37.9514970" lon="-5.6233790">
        <ele>689.0</ele>
        <time>2022-05-22T07:31:16Z</time>
      </trkpt>
      <trkpt lat="37.9514930" lon="-5.6233860">
        <ele>689.0</ele>
        <time>2022-05-22T07:31:17Z</time>
      </trkpt>
      <trkpt lat="37.9514870" lon="-5.6233970">
        <ele>689.0</ele>
        <time>2022-05-22T07:31:18Z</time>
      </trkpt>
      <trkpt lat="37.9514790" lon="-5.6234130">
        <ele>688.9</ele>
        <time>2022-05-22T07:31:19Z</time>
      </trkpt>
      <trkpt lat="37.9514740" lon="-5.6234240">
        <ele>688.9</ele>
        <time>2022-05-22T07:31:20Z</time>
      </trkpt>
      <trkpt lat="37.9514650" lon="-5.6234460">
        <ele>688.9</ele>
        <time>2022-05-22T07:31:21Z</time>
      </trkpt>
      <trkpt lat="37.9514610" lon="-5.6234550">
        <ele>688.9</ele>
        <time>2022-05-22T07:31:22Z</time>
      </trkpt>
      <trkpt lat="37.9514580" lon="-5.6234650">
        <ele>688.7</ele>
        <time>2022-05-22T07:31:23Z</time>
      </trkpt>
      <trkpt lat="37.9514540" lon="-5.6234830">
        <ele>688.7</ele>
        <time>2022-05-22T07:31:25Z</time>
      </trkpt>
      <trkpt lat="37.9514510" lon="-5.6234960">
        <ele>688.7</ele>
        <time>2022-05-22T07:31:26Z</time>
      </trkpt>
      <trkpt lat="37.9514500" lon="-5.6235000">
        <ele>688.5</ele>
        <time>2022-05-22T07:31:27Z</time>
      </trkpt>
      <trkpt lat="37.9514510" lon="-5.6235010">
        <ele>688.5</ele>
        <time>2022-05-22T07:31:28Z</time>
      </trkpt>
      <trkpt lat="37.9514510" lon="-5.6235010">
        <ele>688.5</ele>
        <time>2022-05-22T07:31:29Z</time>
      </trkpt>
      <trkpt lat="37.9514490" lon="-5.6235020">
        <ele>688.5</ele>
        <time>2022-05-22T07:31:30Z</time>
      </trkpt>
      <trkpt lat="37.9514430" lon="-5.6235010">
        <ele>688.5</ele>
        <time>2022-05-22T07:31:31Z</time>
      </trkpt>
      <trkpt lat="37.9514400" lon="-5.6234980">
        <ele>688.5</ele>
        <time>2022-05-22T07:31:32Z</time>
      </trkpt>
      <trkpt lat="37.9514360" lon="-5.6234940">
        <ele>688.7</ele>
        <time>2022-05-22T07:31:33Z</time>
      </trkpt>
      <trkpt lat="37.9514340" lon="-5.6234870">
        <ele>688.7</ele>
        <time>2022-05-22T07:31:34Z</time>
      </trkpt>
      <trkpt lat="37.9514320" lon="-5.6234830">
        <ele>688.7</ele>
        <time>2022-05-22T07:31:35Z</time>
      </trkpt>
      <trkpt lat="37.9514310" lon="-5.6234800">
        <ele>688.7</ele>
        <time>2022-05-22T07:31:36Z</time>
      </trkpt>
      <trkpt lat="37.9514310" lon="-5.6234770">
        <ele>688.7</ele>
        <time>2022-05-22T07:31:37Z</time>
      </trkpt>
      <trkpt lat="37.9514310" lon="-5.6234750">
        <ele>688.7</ele>
        <time>2022-05-22T07:31:38Z</time>
      </trkpt>
      <trkpt lat="37.9514310" lon="-5.6234740">
        <ele>688.7</ele>
        <time>2022-05-22T07:31:39Z</time>
      </trkpt>
      <trkpt lat="37.9514320" lon="-5.6234730">
        <ele>688.7</ele>
        <time>2022-05-22T07:31:40Z</time>
      </trkpt>
      <trkpt lat="37.9514330" lon="-5.6234750">
        <ele>688.6</ele>
        <time>2022-05-22T07:31:41Z</time>
      </trkpt>
      <trkpt lat="37.9514330" lon="-5.6234780">
        <ele>688.6</ele>
        <time>2022-05-22T07:31:42Z</time>
      </trkpt>
      <trkpt lat="37.9514360" lon="-5.6234830">
        <ele>688.6</ele>
        <time>2022-05-22T07:31:43Z</time>
      </trkpt>
      <trkpt lat="37.9514400" lon="-5.6234870">
        <ele>688.7</ele>
        <time>2022-05-22T07:31:44Z</time>
      </trkpt>
      <trkpt lat="37.9514440" lon="-5.6234910">
        <ele>688.7</ele>
        <time>2022-05-22T07:31:45Z</time>
      </trkpt>
      <trkpt lat="37.9514550" lon="-5.6234980">
        <ele>688.5</ele>
        <time>2022-05-22T07:31:47Z</time>
      </trkpt>
      <trkpt lat="37.9514750" lon="-5.6235100">
        <ele>688.5</ele>
        <time>2022-05-22T07:31:49Z</time>
      </trkpt>
      <trkpt lat="37.9514830" lon="-5.6235110">
        <ele>688.5</ele>
        <time>2022-05-22T07:31:50Z</time>
      </trkpt>
      <trkpt lat="37.9514850" lon="-5.6235100">
        <ele>688.5</ele>
        <time>2022-05-22T07:31:51Z</time>
      </trkpt>
      <trkpt lat="37.9514880" lon="-5.6235080">
        <ele>688.5</ele>
        <time>2022-05-22T07:31:52Z</time>
      </trkpt>
      <trkpt lat="37.9514910" lon="-5.6235080">
        <ele>688.5</ele>
        <time>2022-05-22T07:31:53Z</time>
      </trkpt>
      <trkpt lat="37.9514930" lon="-5.6235150">
        <ele>688.5</ele>
        <time>2022-05-22T07:31:54Z</time>
      </trkpt>
      <trkpt lat="37.9514940" lon="-5.6235190">
        <ele>688.5</ele>
        <time>2022-05-22T07:31:55Z</time>
      </trkpt>
      <trkpt lat="37.9514950" lon="-5.6235230">
        <ele>688.5</ele>
        <time>2022-05-22T07:31:56Z</time>
      </trkpt>
      <trkpt lat="37.9514960" lon="-5.6235250">
        <ele>688.5</ele>
        <time>2022-05-22T07:31:57Z</time>
      </trkpt>
      <trkpt lat="37.9514980" lon="-5.6235270">
        <ele>688.5</ele>
        <time>2022-05-22T07:31:58Z</time>
      </trkpt>
      <trkpt lat="37.9514990" lon="-5.6235280">
        <ele>688.5</ele>
        <time>2022-05-22T07:31:59Z</time>
      </trkpt>
      <trkpt lat="37.9515010" lon="-5.6235280">
        <ele>688.5</ele>
        <time>2022-05-22T07:32:00Z</time>
      </trkpt>
      <trkpt lat="37.9515020" lon="-5.6235270">
        <ele>688.5</ele>
        <time>2022-05-22T07:32:02Z</time>
      </trkpt>
      <trkpt lat="37.9515040" lon="-5.6235270">
        <ele>688.4</ele>
        <time>2022-05-22T07:32:03Z</time>
      </trkpt>
      <trkpt lat="37.9515070" lon="-5.6235270">
        <ele>688.4</ele>
        <time>2022-05-22T07:32:04Z</time>
      </trkpt>
      <trkpt lat="37.9515090" lon="-5.6235280">
        <ele>688.5</ele>
        <time>2022-05-22T07:32:06Z</time>
      </trkpt>
      <trkpt lat="37.9515080" lon="-5.6235300">
        <ele>688.5</ele>
        <time>2022-05-22T07:32:07Z</time>
      </trkpt>
      <trkpt lat="37.9515070" lon="-5.6235320">
        <ele>688.4</ele>
        <time>2022-05-22T07:32:08Z</time>
      </trkpt>
      <trkpt lat="37.9515070" lon="-5.6235340">
        <ele>688.4</ele>
        <time>2022-05-22T07:32:09Z</time>
      </trkpt>
      <trkpt lat="37.9515060" lon="-5.6235350">
        <ele>688.4</ele>
        <time>2022-05-22T07:32:10Z</time>
      </trkpt>
      <trkpt lat="37.9515060" lon="-5.6235360">
        <ele>688.4</ele>
        <time>2022-05-22T07:32:11Z</time>
      </trkpt>
      <trkpt lat="37.9515060" lon="-5.6235370">
        <ele>688.4</ele>
        <time>2022-05-22T07:32:12Z</time>
      </trkpt>
      <trkpt lat="37.9515060" lon="-5.6235380">
        <ele>688.4</ele>
        <time>2022-05-22T07:32:13Z</time>
      </trkpt>
      <trkpt lat="37.9515060" lon="-5.6235390">
        <ele>688.4</ele>
        <time>2022-05-22T07:32:14Z</time>
      </trkpt>
      <trkpt lat="37.9515060" lon="-5.6235380">
        <ele>688.4</ele>
        <time>2022-05-22T07:32:16Z</time>
      </trkpt>
      <trkpt lat="37.9515060" lon="-5.6235390">
        <ele>688.4</ele>
        <time>2022-05-22T07:32:17Z</time>
      </trkpt>
      <trkpt lat="37.9515060" lon="-5.6235390">
        <ele>688.4</ele>
        <time>2022-05-22T07:32:18Z</time>
      </trkpt>
      <trkpt lat="37.9515060" lon="-5.6235400">
        <ele>688.4</ele>
        <time>2022-05-22T07:32:19Z</time>
      </trkpt>
      <trkpt lat="37.9515060" lon="-5.6235400">
        <ele>688.4</ele>
        <time>2022-05-22T07:32:20Z</time>
      </trkpt>
      <trkpt lat="37.9515070" lon="-5.6235400">
        <ele>688.4</ele>
        <time>2022-05-22T07:32:21Z</time>
      </trkpt>
      <trkpt lat="37.9515070" lon="-5.6235410">
        <ele>688.2</ele>
        <time>2022-05-22T07:32:22Z</time>
      </trkpt>
      <trkpt lat="37.9515070" lon="-5.6235420">
        <ele>688.2</ele>
        <time>2022-05-22T07:32:23Z</time>
      </trkpt>
      <trkpt lat="37.9515070" lon="-5.6235420">
        <ele>688.2</ele>
        <time>2022-05-22T07:32:24Z</time>
      </trkpt>
      <trkpt lat="37.9515080" lon="-5.6235430">
        <ele>688.2</ele>
        <time>2022-05-22T07:32:25Z</time>
      </trkpt>
      <trkpt lat="37.9515070" lon="-5.6235360">
        <ele>688.4</ele>
        <time>2022-05-22T07:32:26Z</time>
      </trkpt>
      <trkpt lat="37.9515070" lon="-5.6235330">
        <ele>688.4</ele>
        <time>2022-05-22T07:32:27Z</time>
      </trkpt>
      <trkpt lat="37.9515070" lon="-5.6235310">
        <ele>688.4</ele>
        <time>2022-05-22T07:32:28Z</time>
      </trkpt>
      <trkpt lat="37.9515070" lon="-5.6235290">
        <ele>688.4</ele>
        <time>2022-05-22T07:32:29Z</time>
      </trkpt>
      <trkpt lat="37.9515070" lon="-5.6235290">
        <ele>688.4</ele>
        <time>2022-05-22T07:32:30Z</time>
      </trkpt>
      <trkpt lat="37.9515070" lon="-5.6235290">
        <ele>688.4</ele>
        <time>2022-05-22T07:32:31Z</time>
      </trkpt>
      <trkpt lat="37.9515100" lon="-5.6235270">
        <ele>688.4</ele>
        <time>2022-05-22T07:32:32Z</time>
      </trkpt>
      <trkpt lat="37.9515160" lon="-5.6235230">
        <ele>688.4</ele>
        <time>2022-05-22T07:32:33Z</time>
      </trkpt>
      <trkpt lat="37.9515230" lon="-5.6235160">
        <ele>688.4</ele>
        <time>2022-05-22T07:32:34Z</time>
      </trkpt>
      <trkpt lat="37.9515100" lon="-5.6235250">
        <ele>688.4</ele>
        <time>2022-05-22T07:32:35Z</time>
      </trkpt>
      <trkpt lat="37.9515070" lon="-5.6235210">
        <ele>688.4</ele>
        <time>2022-05-22T07:32:36Z</time>
      </trkpt>
      <trkpt lat="37.9515060" lon="-5.6235150">
        <ele>688.4</ele>
        <time>2022-05-22T07:32:37Z</time>
      </trkpt>
      <trkpt lat="37.9515070" lon="-5.6235090">
        <ele>688.4</ele>
        <time>2022-05-22T07:32:38Z</time>
      </trkpt>
      <trkpt lat="37.9515110" lon="-5.6235010">
        <ele>688.4</ele>
        <time>2022-05-22T07:32:39Z</time>
      </trkpt>
      <trkpt lat="37.9515190" lon="-5.6234900">
        <ele>688.6</ele>
        <time>2022-05-22T07:32:40Z</time>
      </trkpt>
      <trkpt lat="37.9515270" lon="-5.6234820">
        <ele>688.6</ele>
        <time>2022-05-22T07:32:42Z</time>
      </trkpt>
      <trkpt lat="37.9515330" lon="-5.6234760">
        <ele>688.5</ele>
        <time>2022-05-22T07:32:43Z</time>
      </trkpt>
      <trkpt lat="37.9515410" lon="-5.6234690">
        <ele>688.5</ele>
        <time>2022-05-22T07:32:44Z</time>
      </trkpt>
      <trkpt lat="37.9515470" lon="-5.6234650">
        <ele>688.6</ele>
        <time>2022-05-22T07:32:45Z</time>
      </trkpt>
      <trkpt lat="37.9515600" lon="-5.6234600">
        <ele>688.6</ele>
        <time>2022-05-22T07:32:47Z</time>
      </trkpt>
      <trkpt lat="37.9515730" lon="-5.6234600">
        <ele>688.6</ele>
        <time>2022-05-22T07:32:48Z</time>
      </trkpt>
      <trkpt lat="37.9515820" lon="-5.6234570">
        <ele>688.6</ele>
        <time>2022-05-22T07:32:49Z</time>
      </trkpt>
      <trkpt lat="37.9515940" lon="-5.6234520">
        <ele>688.7</ele>
        <time>2022-05-22T07:32:50Z</time>
      </trkpt>
      <trkpt lat="37.9516050" lon="-5.6234490">
        <ele>688.7</ele>
        <time>2022-05-22T07:32:52Z</time>
      </trkpt>
      <trkpt lat="37.9516170" lon="-5.6234510">
        <ele>688.7</ele>
        <time>2022-05-22T07:32:53Z</time>
      </trkpt>
      <trkpt lat="37.9516260" lon="-5.6234560">
        <ele>688.6</ele>
        <time>2022-05-22T07:32:54Z</time>
      </trkpt>
      <trkpt lat="37.9516320" lon="-5.6234600">
        <ele>688.6</ele>
        <time>2022-05-22T07:32:55Z</time>
      </trkpt>
      <trkpt lat="37.9516480" lon="-5.6234710">
        <ele>688.7</ele>
        <time>2022-05-22T07:32:57Z</time>
      </trkpt>
      <trkpt lat="37.9516530" lon="-5.6234760">
        <ele>688.7</ele>
        <time>2022-05-22T07:32:58Z</time>
      </trkpt>
      <trkpt lat="37.9516560" lon="-5.6234830">
        <ele>688.7</ele>
        <time>2022-05-22T07:32:59Z</time>
      </trkpt>
      <trkpt lat="37.9516570" lon="-5.6234860">
        <ele>688.7</ele>
        <time>2022-05-22T07:33:00Z</time>
      </trkpt>
      <trkpt lat="37.9516580" lon="-5.6234860">
        <ele>688.7</ele>
        <time>2022-05-22T07:33:01Z</time>
      </trkpt>
      <trkpt lat="37.9516590" lon="-5.6234860">
        <ele>688.7</ele>
        <time>2022-05-22T07:33:02Z</time>
      </trkpt>
      <trkpt lat="37.9516610" lon="-5.6234850">
        <ele>688.7</ele>
        <time>2022-05-22T07:33:03Z</time>
      </trkpt>
      <trkpt lat="37.9516620" lon="-5.6234850">
        <ele>688.7</ele>
        <time>2022-05-22T07:33:04Z</time>
      </trkpt>
      <trkpt lat="37.9516630" lon="-5.6234850">
        <ele>688.7</ele>
        <time>2022-05-22T07:33:05Z</time>
      </trkpt>
      <trkpt lat="37.9516630" lon="-5.6234850">
        <ele>688.7</ele>
        <time>2022-05-22T07:33:06Z</time>
      </trkpt>
      <trkpt lat="37.9516640" lon="-5.6234850">
        <ele>688.7</ele>
        <time>2022-05-22T07:33:07Z</time>
      </trkpt>
      <trkpt lat="37.9516650" lon="-5.6234840">
        <ele>688.6</ele>
        <time>2022-05-22T07:33:09Z</time>
      </trkpt>
      <trkpt lat="37.9516650" lon="-5.6234820">
        <ele>688.6</ele>
        <time>2022-05-22T07:33:10Z</time>
      </trkpt>
      <trkpt lat="37.9516650" lon="-5.6234810">
        <ele>688.6</ele>
        <time>2022-05-22T07:33:11Z</time>
      </trkpt>
      <trkpt lat="37.9516650" lon="-5.6234800">
        <ele>688.6</ele>
        <time>2022-05-22T07:33:12Z</time>
      </trkpt>
      <trkpt lat="37.9516650" lon="-5.6234760">
        <ele>688.6</ele>
        <time>2022-05-22T07:33:13Z</time>
      </trkpt>
      <trkpt lat="37.9516620" lon="-5.6234670">
        <ele>688.6</ele>
        <time>2022-05-22T07:33:15Z</time>
      </trkpt>
      <trkpt lat="37.9516580" lon="-5.6234620">
        <ele>688.6</ele>
        <time>2022-05-22T07:33:16Z</time>
      </trkpt>
      <trkpt lat="37.9516540" lon="-5.6234550">
        <ele>688.7</ele>
        <time>2022-05-22T07:33:17Z</time>
      </trkpt>
      <trkpt lat="37.9516480" lon="-5.6234430">
        <ele>688.7</ele>
        <time>2022-05-22T07:33:18Z</time>
      </trkpt>
      <trkpt lat="37.9516420" lon="-5.6234300">
        <ele>688.6</ele>
        <time>2022-05-22T07:33:20Z</time>
      </trkpt>
      <trkpt lat="37.9516370" lon="-5.6234180">
        <ele>688.6</ele>
        <time>2022-05-22T07:33:21Z</time>
      </trkpt>
      <trkpt lat="37.9516330" lon="-5.6234090">
        <ele>688.6</ele>
        <time>2022-05-22T07:33:22Z</time>
      </trkpt>
      <trkpt lat="37.9516280" lon="-5.6234030">
        <ele>688.6</ele>
        <time>2022-05-22T07:33:23Z</time>
      </trkpt>
      <trkpt lat="37.9516230" lon="-5.6233970">
        <ele>688.6</ele>
        <time>2022-05-22T07:33:24Z</time>
      </trkpt>
      <trkpt lat="37.9516120" lon="-5.6233800">
        <ele>688.6</ele>
        <time>2022-05-22T07:33:26Z</time>
      </trkpt>
      <trkpt lat="37.9516060" lon="-5.6233650">
        <ele>688.6</ele>
        <time>2022-05-22T07:33:27Z</time>
      </trkpt>
      <trkpt lat="37.9516010" lon="-5.6233540">
        <ele>688.6</ele>
        <time>2022-05-22T07:33:28Z</time>
      </trkpt>
      <trkpt lat="37.9515960" lon="-5.6233360">
        <ele>688.6</ele>
        <time>2022-05-22T07:33:30Z</time>
      </trkpt>
      <trkpt lat="37.9515950" lon="-5.6233230">
        <ele>688.6</ele>
        <time>2022-05-22T07:33:31Z</time>
      </trkpt>
      <trkpt lat="37.9515930" lon="-5.6233080">
        <ele>688.6</ele>
        <time>2022-05-22T07:33:32Z</time>
      </trkpt>
      <trkpt lat="37.9515920" lon="-5.6232910">
        <ele>688.6</ele>
        <time>2022-05-22T07:33:33Z</time>
      </trkpt>
      <trkpt lat="37.9515950" lon="-5.6232760">
        <ele>688.6</ele>
        <time>2022-05-22T07:33:35Z</time>
      </trkpt>
      <trkpt lat="37.9515990" lon="-5.6232620">
        <ele>688.6</ele>
        <time>2022-05-22T07:33:36Z</time>
      </trkpt>
      <trkpt lat="37.9516040" lon="-5.6232500">
        <ele>688.6</ele>
        <time>2022-05-22T07:33:37Z</time>
      </trkpt>
      <trkpt lat="37.9516090" lon="-5.6232380">
        <ele>688.5</ele>
        <time>2022-05-22T07:33:38Z</time>
      </trkpt>
      <trkpt lat="37.9516090" lon="-5.6232300">
        <ele>688.5</ele>
        <time>2022-05-22T07:33:39Z</time>
      </trkpt>
      <trkpt lat="37.9516050" lon="-5.6232250">
        <ele>688.6</ele>
        <time>2022-05-22T07:33:40Z</time>
      </trkpt>
      <trkpt lat="37.9516020" lon="-5.6232210">
        <ele>688.6</ele>
        <time>2022-05-22T07:33:41Z</time>
      </trkpt>
      <trkpt lat="37.9515950" lon="-5.6232080">
        <ele>688.6</ele>
        <time>2022-05-22T07:33:43Z</time>
      </trkpt>
      <trkpt lat="37.9515930" lon="-5.6232010">
        <ele>688.6</ele>
        <time>2022-05-22T07:33:44Z</time>
      </trkpt>
      <trkpt lat="37.9515950" lon="-5.6231930">
        <ele>688.5</ele>
        <time>2022-05-22T07:33:45Z</time>
      </trkpt>
      <trkpt lat="37.9516010" lon="-5.6231860">
        <ele>688.5</ele>
        <time>2022-05-22T07:33:46Z</time>
      </trkpt>
      <trkpt lat="37.9516070" lon="-5.6231800">
        <ele>688.5</ele>
        <time>2022-05-22T07:33:47Z</time>
      </trkpt>
      <trkpt lat="37.9516220" lon="-5.6231670">
        <ele>688.5</ele>
        <time>2022-05-22T07:33:49Z</time>
      </trkpt>
      <trkpt lat="37.9516370" lon="-5.6231500">
        <ele>688.4</ele>
        <time>2022-05-22T07:33:50Z</time>
      </trkpt>
      <trkpt lat="37.9516440" lon="-5.6231420">
        <ele>688.4</ele>
        <time>2022-05-22T07:33:51Z</time>
      </trkpt>
      <trkpt lat="37.9516500" lon="-5.6231340">
        <ele>688.4</ele>
        <time>2022-05-22T07:33:52Z</time>
      </trkpt>
      <trkpt lat="37.9516650" lon="-5.6231140">
        <ele>688.4</ele>
        <time>2022-05-22T07:33:53Z</time>
      </trkpt>
      <trkpt lat="37.9516700" lon="-5.6231060">
        <ele>688.3</ele>
        <time>2022-05-22T07:33:55Z</time>
      </trkpt>
      <trkpt lat="37.9516760" lon="-5.6230980">
        <ele>688.3</ele>
        <time>2022-05-22T07:33:56Z</time>
      </trkpt>
      <trkpt lat="37.9516830" lon="-5.6230880">
        <ele>688.3</ele>
        <time>2022-05-22T07:33:57Z</time>
      </trkpt>
      <trkpt lat="37.9516900" lon="-5.6230780">
        <ele>688.3</ele>
        <time>2022-05-22T07:33:58Z</time>
      </trkpt>
      <trkpt lat="37.9516980" lon="-5.6230690">
        <ele>688.3</ele>
        <time>2022-05-22T07:33:59Z</time>
      </trkpt>
      <trkpt lat="37.9517060" lon="-5.6230550">
        <ele>688.2</ele>
        <time>2022-05-22T07:34:00Z</time>
      </trkpt>
      <trkpt lat="37.9517110" lon="-5.6230460">
        <ele>688.2</ele>
        <time>2022-05-22T07:34:01Z</time>
      </trkpt>
      <trkpt lat="37.9517150" lon="-5.6230360">
        <ele>688.2</ele>
        <time>2022-05-22T07:34:02Z</time>
      </trkpt>
      <trkpt lat="37.9517200" lon="-5.6230250">
        <ele>688.2</ele>
        <time>2022-05-22T07:34:03Z</time>
      </trkpt>
      <trkpt lat="37.9517260" lon="-5.6230140">
        <ele>688.1</ele>
        <time>2022-05-22T07:34:04Z</time>
      </trkpt>
      <trkpt lat="37.9517320" lon="-5.6230030">
        <ele>688.1</ele>
        <time>2022-05-22T07:34:05Z</time>
      </trkpt>
      <trkpt lat="37.9517420" lon="-5.6229850">
        <ele>688.1</ele>
        <time>2022-05-22T07:34:06Z</time>
      </trkpt>
      <trkpt lat="37.9517460" lon="-5.6229720">
        <ele>688.1</ele>
        <time>2022-05-22T07:34:07Z</time>
      </trkpt>
      <trkpt lat="37.9517500" lon="-5.6229580">
        <ele>688.1</ele>
        <time>2022-05-22T07:34:08Z</time>
      </trkpt>
      <trkpt lat="37.9517540" lon="-5.6229430">
        <ele>688.1</ele>
        <time>2022-05-22T07:34:10Z</time>
      </trkpt>
      <trkpt lat="37.9517580" lon="-5.6229300">
        <ele>688.0</ele>
        <time>2022-05-22T07:34:11Z</time>
      </trkpt>
      <trkpt lat="37.9517670" lon="-5.6229160">
        <ele>688.0</ele>
        <time>2022-05-22T07:34:12Z</time>
      </trkpt>
      <trkpt lat="37.9517760" lon="-5.6229080">
        <ele>688.0</ele>
        <time>2022-05-22T07:34:13Z</time>
      </trkpt>
      <trkpt lat="37.9517860" lon="-5.6229010">
        <ele>688.0</ele>
        <time>2022-05-22T07:34:14Z</time>
      </trkpt>
      <trkpt lat="37.9518030" lon="-5.6228870">
        <ele>687.9</ele>
        <time>2022-05-22T07:34:15Z</time>
      </trkpt>
      <trkpt lat="37.9518110" lon="-5.6228800">
        <ele>687.9</ele>
        <time>2022-05-22T07:34:16Z</time>
      </trkpt>
      <trkpt lat="37.9518190" lon="-5.6228740">
        <ele>688.0</ele>
        <time>2022-05-22T07:34:17Z</time>
      </trkpt>
      <trkpt lat="37.9518260" lon="-5.6228680">
        <ele>688.0</ele>
        <time>2022-05-22T07:34:18Z</time>
      </trkpt>
      <trkpt lat="37.9518370" lon="-5.6228630">
        <ele>688.0</ele>
        <time>2022-05-22T07:34:19Z</time>
      </trkpt>
      <trkpt lat="37.9518560" lon="-5.6228510">
        <ele>687.9</ele>
        <time>2022-05-22T07:34:21Z</time>
      </trkpt>
      <trkpt lat="37.9518650" lon="-5.6228410">
        <ele>687.9</ele>
        <time>2022-05-22T07:34:22Z</time>
      </trkpt>
      <trkpt lat="37.9518750" lon="-5.6228260">
        <ele>687.9</ele>
        <time>2022-05-22T07:34:23Z</time>
      </trkpt>
      <trkpt lat="37.9518780" lon="-5.6228130">
        <ele>687.8</ele>
        <time>2022-05-22T07:34:24Z</time>
      </trkpt>
      <trkpt lat="37.9518760" lon="-5.6227980">
        <ele>687.7</ele>
        <time>2022-05-22T07:34:25Z</time>
      </trkpt>
      <trkpt lat="37.9518700" lon="-5.6227830">
        <ele>687.7</ele>
        <time>2022-05-22T07:34:26Z</time>
      </trkpt>
      <trkpt lat="37.9518600" lon="-5.6227710">
        <ele>687.7</ele>
        <time>2022-05-22T07:34:28Z</time>
      </trkpt>
      <trkpt lat="37.9518450" lon="-5.6227600">
        <ele>687.5</ele>
        <time>2022-05-22T07:34:29Z</time>
      </trkpt>
      <trkpt lat="37.9518250" lon="-5.6227530">
        <ele>687.5</ele>
        <time>2022-05-22T07:34:30Z</time>
      </trkpt>
      <trkpt lat="37.9518150" lon="-5.6227500">
        <ele>687.5</ele>
        <time>2022-05-22T07:34:31Z</time>
      </trkpt>
      <trkpt lat="37.9518060" lon="-5.6227480">
        <ele>687.5</ele>
        <time>2022-05-22T07:34:32Z</time>
      </trkpt>
      <trkpt lat="37.9517840" lon="-5.6227440">
        <ele>687.5</ele>
        <time>2022-05-22T07:34:33Z</time>
      </trkpt>
      <trkpt lat="37.9517760" lon="-5.6227420">
        <ele>687.5</ele>
        <time>2022-05-22T07:34:34Z</time>
      </trkpt>
      <trkpt lat="37.9517680" lon="-5.6227410">
        <ele>687.6</ele>
        <time>2022-05-22T07:34:35Z</time>
      </trkpt>
      <trkpt lat="37.9517470" lon="-5.6227440">
        <ele>687.6</ele>
        <time>2022-05-22T07:34:36Z</time>
      </trkpt>
      <trkpt lat="37.9517390" lon="-5.6227460">
        <ele>687.6</ele>
        <time>2022-05-22T07:34:37Z</time>
      </trkpt>
      <trkpt lat="37.9517300" lon="-5.6227480">
        <ele>687.6</ele>
        <time>2022-05-22T07:34:38Z</time>
      </trkpt>
      <trkpt lat="37.9517100" lon="-5.6227530">
        <ele>687.7</ele>
        <time>2022-05-22T07:34:40Z</time>
      </trkpt>
      <trkpt lat="37.9516950" lon="-5.6227570">
        <ele>687.7</ele>
        <time>2022-05-22T07:34:41Z</time>
      </trkpt>
      <trkpt lat="37.9516900" lon="-5.6227660">
        <ele>687.7</ele>
        <time>2022-05-22T07:34:42Z</time>
      </trkpt>
      <trkpt lat="37.9516840" lon="-5.6227740">
        <ele>687.7</ele>
        <time>2022-05-22T07:34:43Z</time>
      </trkpt>
      <trkpt lat="37.9516800" lon="-5.6227790">
        <ele>687.7</ele>
        <time>2022-05-22T07:34:44Z</time>
      </trkpt>
      <trkpt lat="37.9516740" lon="-5.6227840">
        <ele>687.8</ele>
        <time>2022-05-22T07:34:45Z</time>
      </trkpt>
      <trkpt lat="37.9516670" lon="-5.6227870">
        <ele>687.8</ele>
        <time>2022-05-22T07:34:46Z</time>
      </trkpt>
      <trkpt lat="37.9516590" lon="-5.6227880">
        <ele>687.8</ele>
        <time>2022-05-22T07:34:47Z</time>
      </trkpt>
      <trkpt lat="37.9516510" lon="-5.6227890">
        <ele>687.8</ele>
        <time>2022-05-22T07:34:48Z</time>
      </trkpt>
      <trkpt lat="37.9516410" lon="-5.6227910">
        <ele>687.8</ele>
        <time>2022-05-22T07:34:49Z</time>
      </trkpt>
      <trkpt lat="37.9516210" lon="-5.6227950">
        <ele>687.9</ele>
        <time>2022-05-22T07:34:50Z</time>
      </trkpt>
      <trkpt lat="37.9516130" lon="-5.6227970">
        <ele>687.9</ele>
        <time>2022-05-22T07:34:51Z</time>
      </trkpt>
      <trkpt lat="37.9516040" lon="-5.6227990">
        <ele>687.9</ele>
        <time>2022-05-22T07:34:52Z</time>
      </trkpt>
      <trkpt lat="37.9515850" lon="-5.6228030">
        <ele>687.9</ele>
        <time>2022-05-22T07:34:54Z</time>
      </trkpt>
      <trkpt lat="37.9515710" lon="-5.6228050">
        <ele>687.9</ele>
        <time>2022-05-22T07:34:55Z</time>
      </trkpt>
      <trkpt lat="37.9515310" lon="-5.6228140">
        <ele>688.0</ele>
        <time>2022-05-22T07:34:57Z</time>
      </trkpt>
      <trkpt lat="37.9515220" lon="-5.6228170">
        <ele>688.0</ele>
        <time>2022-05-22T07:34:58Z</time>
      </trkpt>
      <trkpt lat="37.9515130" lon="-5.6228210">
        <ele>688.1</ele>
        <time>2022-05-22T07:34:59Z</time>
      </trkpt>
      <trkpt lat="37.9515030" lon="-5.6228250">
        <ele>688.1</ele>
        <time>2022-05-22T07:35:00Z</time>
      </trkpt>
      <trkpt lat="37.9514910" lon="-5.6228290">
        <ele>688.1</ele>
        <time>2022-05-22T07:35:01Z</time>
      </trkpt>
      <trkpt lat="37.9514750" lon="-5.6228350">
        <ele>688.1</ele>
        <time>2022-05-22T07:35:02Z</time>
      </trkpt>
      <trkpt lat="37.9514540" lon="-5.6228390">
        <ele>688.2</ele>
        <time>2022-05-22T07:35:04Z</time>
      </trkpt>
      <trkpt lat="37.9514450" lon="-5.6228410">
        <ele>688.2</ele>
        <time>2022-05-22T07:35:05Z</time>
      </trkpt>
      <trkpt lat="37.9514360" lon="-5.6228420">
        <ele>688.2</ele>
        <time>2022-05-22T07:35:06Z</time>
      </trkpt>
      <trkpt lat="37.9514140" lon="-5.6228460">
        <ele>688.3</ele>
        <time>2022-05-22T07:35:07Z</time>
      </trkpt>
      <trkpt lat="37.9514040" lon="-5.6228470">
        <ele>688.3</ele>
        <time>2022-05-22T07:35:08Z</time>
      </trkpt>
      <trkpt lat="37.9513940" lon="-5.6228490">
        <ele>688.3</ele>
        <time>2022-05-22T07:35:09Z</time>
      </trkpt>
      <trkpt lat="37.9513830" lon="-5.6228460">
        <ele>688.3</ele>
        <time>2022-05-22T07:35:10Z</time>
      </trkpt>
      <trkpt lat="37.9513700" lon="-5.6228420">
        <ele>688.4</ele>
        <time>2022-05-22T07:35:11Z</time>
      </trkpt>
      <trkpt lat="37.9513590" lon="-5.6228410">
        <ele>688.4</ele>
        <time>2022-05-22T07:35:13Z</time>
      </trkpt>
      <trkpt lat="37.9513430" lon="-5.6228420">
        <ele>688.4</ele>
        <time>2022-05-22T07:35:14Z</time>
      </trkpt>
      <trkpt lat="37.9513340" lon="-5.6228430">
        <ele>688.4</ele>
        <time>2022-05-22T07:35:15Z</time>
      </trkpt>
      <trkpt lat="37.9513260" lon="-5.6228430">
        <ele>688.4</ele>
        <time>2022-05-22T07:35:16Z</time>
      </trkpt>
      <trkpt lat="37.9513150" lon="-5.6228430">
        <ele>688.5</ele>
        <time>2022-05-22T07:35:17Z</time>
      </trkpt>
      <trkpt lat="37.9513050" lon="-5.6228440">
        <ele>688.5</ele>
        <time>2022-05-22T07:35:18Z</time>
      </trkpt>
      <trkpt lat="37.9512940" lon="-5.6228450">
        <ele>688.5</ele>
        <time>2022-05-22T07:35:19Z</time>
      </trkpt>
      <trkpt lat="37.9512790" lon="-5.6228470">
        <ele>688.5</ele>
        <time>2022-05-22T07:35:20Z</time>
      </trkpt>
      <trkpt lat="37.9512700" lon="-5.6228480">
        <ele>688.6</ele>
        <time>2022-05-22T07:35:21Z</time>
      </trkpt>
      <trkpt lat="37.9512600" lon="-5.6228500">
        <ele>688.6</ele>
        <time>2022-05-22T07:35:22Z</time>
      </trkpt>
      <trkpt lat="37.9512400" lon="-5.6228520">
        <ele>688.6</ele>
        <time>2022-05-22T07:35:23Z</time>
      </trkpt>
      <trkpt lat="37.9512310" lon="-5.6228520">
        <ele>688.7</ele>
        <time>2022-05-22T07:35:24Z</time>
      </trkpt>
      <trkpt lat="37.9512220" lon="-5.6228520">
        <ele>688.7</ele>
        <time>2022-05-22T07:35:25Z</time>
      </trkpt>
      <trkpt lat="37.9512140" lon="-5.6228520">
        <ele>688.7</ele>
        <time>2022-05-22T07:35:26Z</time>
      </trkpt>
      <trkpt lat="37.9512050" lon="-5.6228520">
        <ele>688.7</ele>
        <time>2022-05-22T07:35:27Z</time>
      </trkpt>
      <trkpt lat="37.9511930" lon="-5.6228550">
        <ele>688.7</ele>
        <time>2022-05-22T07:35:28Z</time>
      </trkpt>
      <trkpt lat="37.9511740" lon="-5.6228640">
        <ele>688.8</ele>
        <time>2022-05-22T07:35:29Z</time>
      </trkpt>
      <trkpt lat="37.9511660" lon="-5.6228680">
        <ele>688.8</ele>
        <time>2022-05-22T07:35:31Z</time>
      </trkpt>
      <trkpt lat="37.9511570" lon="-5.6228730">
        <ele>688.8</ele>
        <time>2022-05-22T07:35:32Z</time>
      </trkpt>
      <trkpt lat="37.9511460" lon="-5.6228800">
        <ele>688.9</ele>
        <time>2022-05-22T07:35:33Z</time>
      </trkpt>
      <trkpt lat="37.9511370" lon="-5.6228870">
        <ele>688.9</ele>
        <time>2022-05-22T07:35:34Z</time>
      </trkpt>
      <trkpt lat="37.9511280" lon="-5.6228980">
        <ele>688.9</ele>
        <time>2022-05-22T07:35:36Z</time>
      </trkpt>
      <trkpt lat="37.9511250" lon="-5.6229250">
        <ele>689.0</ele>
        <time>2022-05-22T07:35:38Z</time>
      </trkpt>
      <trkpt lat="37.9511250" lon="-5.6229350">
        <ele>689.0</ele>
        <time>2022-05-22T07:35:39Z</time>
      </trkpt>
      <trkpt lat="37.9511240" lon="-5.6229400">
        <ele>689.0</ele>
        <time>2022-05-22T07:35:40Z</time>
      </trkpt>
      <trkpt lat="37.9511250" lon="-5.6229410">
        <ele>689.0</ele>
        <time>2022-05-22T07:35:41Z</time>
      </trkpt>
      <trkpt lat="37.9511250" lon="-5.6229410">
        <ele>689.0</ele>
        <time>2022-05-22T07:35:42Z</time>
      </trkpt>
      <trkpt lat="37.9511220" lon="-5.6229380">
        <ele>689.0</ele>
        <time>2022-05-22T07:35:43Z</time>
      </trkpt>
      <trkpt lat="37.9511190" lon="-5.6229330">
        <ele>689.0</ele>
        <time>2022-05-22T07:35:44Z</time>
      </trkpt>
      <trkpt lat="37.9511140" lon="-5.6229300">
        <ele>689.0</ele>
        <time>2022-05-22T07:35:45Z</time>
      </trkpt>
      <trkpt lat="37.9511070" lon="-5.6229230">
        <ele>689.1</ele>
        <time>2022-05-22T07:35:46Z</time>
      </trkpt>
      <trkpt lat="37.9510950" lon="-5.6229100">
        <ele>689.1</ele>
        <time>2022-05-22T07:35:47Z</time>
      </trkpt>
      <trkpt lat="37.9510810" lon="-5.6228960">
        <ele>689.1</ele>
        <time>2022-05-22T07:35:49Z</time>
      </trkpt>
      <trkpt lat="37.9510700" lon="-5.6228840">
        <ele>689.2</ele>
        <time>2022-05-22T07:35:50Z</time>
      </trkpt>
      <trkpt lat="37.9510580" lon="-5.6228710">
        <ele>689.2</ele>
        <time>2022-05-22T07:35:51Z</time>
      </trkpt>
      <trkpt lat="37.9510460" lon="-5.6228590">
        <ele>689.2</ele>
        <time>2022-05-22T07:35:52Z</time>
      </trkpt>
      <trkpt lat="37.9510340" lon="-5.6228460">
        <ele>689.3</ele>
        <time>2022-05-22T07:35:53Z</time>
      </trkpt>
      <trkpt lat="37.9510190" lon="-5.6228320">
        <ele>689.3</ele>
        <time>2022-05-22T07:35:54Z</time>
      </trkpt>
      <trkpt lat="37.9510080" lon="-5.6228220">
        <ele>689.3</ele>
        <time>2022-05-22T07:35:55Z</time>
      </trkpt>
      <trkpt lat="37.9509970" lon="-5.6228120">
        <ele>689.4</ele>
        <time>2022-05-22T07:35:56Z</time>
      </trkpt>
      <trkpt lat="37.9509850" lon="-5.6228020">
        <ele>689.4</ele>
        <time>2022-05-22T07:35:57Z</time>
      </trkpt>
      <trkpt lat="37.9509740" lon="-5.6227930">
        <ele>689.4</ele>
        <time>2022-05-22T07:35:58Z</time>
      </trkpt>
      <trkpt lat="37.9509640" lon="-5.6227880">
        <ele>689.4</ele>
        <time>2022-05-22T07:35:59Z</time>
      </trkpt>
      <trkpt lat="37.9509480" lon="-5.6227810">
        <ele>689.5</ele>
        <time>2022-05-22T07:36:00Z</time>
      </trkpt>
      <trkpt lat="37.9509240" lon="-5.6227720">
        <ele>689.5</ele>
        <time>2022-05-22T07:36:01Z</time>
      </trkpt>
      <trkpt lat="37.9509130" lon="-5.6227670">
        <ele>689.5</ele>
        <time>2022-05-22T07:36:03Z</time>
      </trkpt>
      <trkpt lat="37.9509010" lon="-5.6227630">
        <ele>689.5</ele>
        <time>2022-05-22T07:36:04Z</time>
      </trkpt>
      <trkpt lat="37.9508900" lon="-5.6227580">
        <ele>689.6</ele>
        <time>2022-05-22T07:36:06Z</time>
      </trkpt>
      <trkpt lat="37.9508780" lon="-5.6227530">
        <ele>689.6</ele>
        <time>2022-05-22T07:36:07Z</time>
      </trkpt>
      <trkpt lat="37.9508670" lon="-5.6227490">
        <ele>689.6</ele>
        <time>2022-05-22T07:36:08Z</time>
      </trkpt>
      <trkpt lat="37.9508550" lon="-5.6227440">
        <ele>689.6</ele>
        <time>2022-05-22T07:36:09Z</time>
      </trkpt>
      <trkpt lat="37.9508350" lon="-5.6227400">
        <ele>689.7</ele>
        <time>2022-05-22T07:36:10Z</time>
      </trkpt>
      <trkpt lat="37.9508240" lon="-5.6227380">
        <ele>689.7</ele>
        <time>2022-05-22T07:36:12Z</time>
      </trkpt>
      <trkpt lat="37.9508130" lon="-5.6227360">
        <ele>689.7</ele>
        <time>2022-05-22T07:36:13Z</time>
      </trkpt>
      <trkpt lat="37.9508030" lon="-5.6227340">
        <ele>689.7</ele>
        <time>2022-05-22T07:36:14Z</time>
      </trkpt>
      <trkpt lat="37.9507920" lon="-5.6227320">
        <ele>689.7</ele>
        <time>2022-05-22T07:36:15Z</time>
      </trkpt>
      <trkpt lat="37.9507780" lon="-5.6227310">
        <ele>689.8</ele>
        <time>2022-05-22T07:36:16Z</time>
      </trkpt>
      <trkpt lat="37.9507600" lon="-5.6227290">
        <ele>689.8</ele>
        <time>2022-05-22T07:36:17Z</time>
      </trkpt>
      <trkpt lat="37.9507470" lon="-5.6227270">
        <ele>689.8</ele>
        <time>2022-05-22T07:36:18Z</time>
      </trkpt>
      <trkpt lat="37.9507330" lon="-5.6227250">
        <ele>689.8</ele>
        <time>2022-05-22T07:36:19Z</time>
      </trkpt>
      <trkpt lat="37.9507110" lon="-5.6227210">
        <ele>689.9</ele>
        <time>2022-05-22T07:36:20Z</time>
      </trkpt>
      <trkpt lat="37.9507020" lon="-5.6227190">
        <ele>689.9</ele>
        <time>2022-05-22T07:36:21Z</time>
      </trkpt>
      <trkpt lat="37.9506930" lon="-5.6227170">
        <ele>689.9</ele>
        <time>2022-05-22T07:36:22Z</time>
      </trkpt>
      <trkpt lat="37.9506730" lon="-5.6227120">
        <ele>689.9</ele>
        <time>2022-05-22T07:36:23Z</time>
      </trkpt>
      <trkpt lat="37.9506610" lon="-5.6227110">
        <ele>689.9</ele>
        <time>2022-05-22T07:36:24Z</time>
      </trkpt>
      <trkpt lat="37.9506400" lon="-5.6227060">
        <ele>689.9</ele>
        <time>2022-05-22T07:36:25Z</time>
      </trkpt>
      <trkpt lat="37.9506320" lon="-5.6227040">
        <ele>690.0</ele>
        <time>2022-05-22T07:36:26Z</time>
      </trkpt>
      <trkpt lat="37.9506250" lon="-5.6227020">
        <ele>690.0</ele>
        <time>2022-05-22T07:36:27Z</time>
      </trkpt>
      <trkpt lat="37.9506140" lon="-5.6226970">
        <ele>690.0</ele>
        <time>2022-05-22T07:36:28Z</time>
      </trkpt>
      <trkpt lat="37.9505960" lon="-5.6226900">
        <ele>690.0</ele>
        <time>2022-05-22T07:36:29Z</time>
      </trkpt>
      <trkpt lat="37.9505880" lon="-5.6226850">
        <ele>690.0</ele>
        <time>2022-05-22T07:36:30Z</time>
      </trkpt>
      <trkpt lat="37.9505800" lon="-5.6226770">
        <ele>690.0</ele>
        <time>2022-05-22T07:36:31Z</time>
      </trkpt>
      <trkpt lat="37.9505700" lon="-5.6226670">
        <ele>690.0</ele>
        <time>2022-05-22T07:36:32Z</time>
      </trkpt>
      <trkpt lat="37.9505600" lon="-5.6226610">
        <ele>690.0</ele>
        <time>2022-05-22T07:36:33Z</time>
      </trkpt>
      <trkpt lat="37.9505480" lon="-5.6226640">
        <ele>690.0</ele>
        <time>2022-05-22T07:36:34Z</time>
      </trkpt>
      <trkpt lat="37.9505350" lon="-5.6226650">
        <ele>690.0</ele>
        <time>2022-05-22T07:36:35Z</time>
      </trkpt>
      <trkpt lat="37.9505170" lon="-5.6226720">
        <ele>690.0</ele>
        <time>2022-05-22T07:36:37Z</time>
      </trkpt>
      <trkpt lat="37.9505120" lon="-5.6226770">
        <ele>690.0</ele>
        <time>2022-05-22T07:36:38Z</time>
      </trkpt>
      <trkpt lat="37.9505060" lon="-5.6226840">
        <ele>690.1</ele>
        <time>2022-05-22T07:36:39Z</time>
      </trkpt>
      <trkpt lat="37.9504980" lon="-5.6226880">
        <ele>690.1</ele>
        <time>2022-05-22T07:36:40Z</time>
      </trkpt>
      <trkpt lat="37.9504890" lon="-5.6226890">
        <ele>690.1</ele>
        <time>2022-05-22T07:36:41Z</time>
      </trkpt>
      <trkpt lat="37.9504760" lon="-5.6226870">
        <ele>690.1</ele>
        <time>2022-05-22T07:36:42Z</time>
      </trkpt>
      <trkpt lat="37.9504640" lon="-5.6226830">
        <ele>690.1</ele>
        <time>2022-05-22T07:36:43Z</time>
      </trkpt>
      <trkpt lat="37.9504540" lon="-5.6226790">
        <ele>690.1</ele>
        <time>2022-05-22T07:36:44Z</time>
      </trkpt>
      <trkpt lat="37.9504440" lon="-5.6226750">
        <ele>690.1</ele>
        <time>2022-05-22T07:36:45Z</time>
      </trkpt>
      <trkpt lat="37.9504290" lon="-5.6226600">
        <ele>690.1</ele>
        <time>2022-05-22T07:36:46Z</time>
      </trkpt>
      <trkpt lat="37.9504220" lon="-5.6226510">
        <ele>690.2</ele>
        <time>2022-05-22T07:36:47Z</time>
      </trkpt>
      <trkpt lat="37.9504150" lon="-5.6226430">
        <ele>690.2</ele>
        <time>2022-05-22T07:36:48Z</time>
      </trkpt>
      <trkpt lat="37.9504030" lon="-5.6226280">
        <ele>690.2</ele>
        <time>2022-05-22T07:36:49Z</time>
      </trkpt>
      <trkpt lat="37.9503950" lon="-5.6226120">
        <ele>690.2</ele>
        <time>2022-05-22T07:36:50Z</time>
      </trkpt>
      <trkpt lat="37.9503870" lon="-5.6225990">
        <ele>690.2</ele>
        <time>2022-05-22T07:36:52Z</time>
      </trkpt>
      <trkpt lat="37.9503820" lon="-5.6225910">
        <ele>690.2</ele>
        <time>2022-05-22T07:36:53Z</time>
      </trkpt>
      <trkpt lat="37.9503750" lon="-5.6225810">
        <ele>690.3</ele>
        <time>2022-05-22T07:36:54Z</time>
      </trkpt>
      <trkpt lat="37.9503570" lon="-5.6225640">
        <ele>690.3</ele>
        <time>2022-05-22T07:36:55Z</time>
      </trkpt>
      <trkpt lat="37.9503500" lon="-5.6225590">
        <ele>690.3</ele>
        <time>2022-05-22T07:36:56Z</time>
      </trkpt>
      <trkpt lat="37.9503420" lon="-5.6225540">
        <ele>690.3</ele>
        <time>2022-05-22T07:36:57Z</time>
      </trkpt>
      <trkpt lat="37.9503310" lon="-5.6225490">
        <ele>690.4</ele>
        <time>2022-05-22T07:36:58Z</time>
      </trkpt>
      <trkpt lat="37.9503230" lon="-5.6225430">
        <ele>690.4</ele>
        <time>2022-05-22T07:36:59Z</time>
      </trkpt>
      <trkpt lat="37.9503150" lon="-5.6225350">
        <ele>690.4</ele>
        <time>2022-05-22T07:37:00Z</time>
      </trkpt>
      <trkpt lat="37.9503120" lon="-5.6225290">
        <ele>690.4</ele>
        <time>2022-05-22T07:37:01Z</time>
      </trkpt>
      <trkpt lat="37.9503080" lon="-5.6225240">
        <ele>690.4</ele>
        <time>2022-05-22T07:37:02Z</time>
      </trkpt>
      <trkpt lat="37.9503070" lon="-5.6225250">
        <ele>690.4</ele>
        <time>2022-05-22T07:37:03Z</time>
      </trkpt>
      <trkpt lat="37.9503070" lon="-5.6225290">
        <ele>690.4</ele>
        <time>2022-05-22T07:37:04Z</time>
      </trkpt>
      <trkpt lat="37.9503070" lon="-5.6225320">
        <ele>690.4</ele>
        <time>2022-05-22T07:37:05Z</time>
      </trkpt>
      <trkpt lat="37.9503080" lon="-5.6225370">
        <ele>690.4</ele>
        <time>2022-05-22T07:37:06Z</time>
      </trkpt>
      <trkpt lat="37.9503080" lon="-5.6225390">
        <ele>690.4</ele>
        <time>2022-05-22T07:37:07Z</time>
      </trkpt>
      <trkpt lat="37.9503070" lon="-5.6225400">
        <ele>690.5</ele>
        <time>2022-05-22T07:37:08Z</time>
      </trkpt>
      <trkpt lat="37.9503070" lon="-5.6225420">
        <ele>690.5</ele>
        <time>2022-05-22T07:37:09Z</time>
      </trkpt>
      <trkpt lat="37.9503080" lon="-5.6225420">
        <ele>690.5</ele>
        <time>2022-05-22T07:37:10Z</time>
      </trkpt>
      <trkpt lat="37.9503080" lon="-5.6225420">
        <ele>690.5</ele>
        <time>2022-05-22T07:37:12Z</time>
      </trkpt>
      <trkpt lat="37.9503080" lon="-5.6225400">
        <ele>690.5</ele>
        <time>2022-05-22T07:37:13Z</time>
      </trkpt>
      <trkpt lat="37.9503090" lon="-5.6225380">
        <ele>690.5</ele>
        <time>2022-05-22T07:37:14Z</time>
      </trkpt>
      <trkpt lat="37.9503100" lon="-5.6225360">
        <ele>690.5</ele>
        <time>2022-05-22T07:37:15Z</time>
      </trkpt>
      <trkpt lat="37.9503120" lon="-5.6225330">
        <ele>690.5</ele>
        <time>2022-05-22T07:37:16Z</time>
      </trkpt>
      <trkpt lat="37.9503150" lon="-5.6225250">
        <ele>690.5</ele>
        <time>2022-05-22T07:37:18Z</time>
      </trkpt>
      <trkpt lat="37.9503190" lon="-5.6225180">
        <ele>690.5</ele>
        <time>2022-05-22T07:37:19Z</time>
      </trkpt>
      <trkpt lat="37.9503220" lon="-5.6225130">
        <ele>690.5</ele>
        <time>2022-05-22T07:37:20Z</time>
      </trkpt>
      <trkpt lat="37.9503230" lon="-5.6225090">
        <ele>690.5</ele>
        <time>2022-05-22T07:37:21Z</time>
      </trkpt>
      <trkpt lat="37.9503260" lon="-5.6224960">
        <ele>690.5</ele>
        <time>2022-05-22T07:37:22Z</time>
      </trkpt>
      <trkpt lat="37.9503280" lon="-5.6224790">
        <ele>690.6</ele>
        <time>2022-05-22T07:37:24Z</time>
      </trkpt>
      <trkpt lat="37.9503140" lon="-5.6224620">
        <ele>690.6</ele>
        <time>2022-05-22T07:37:26Z</time>
      </trkpt>
      <trkpt lat="37.9503090" lon="-5.6224610">
        <ele>690.6</ele>
        <time>2022-05-22T07:37:27Z</time>
      </trkpt>
      <trkpt lat="37.9503060" lon="-5.6224640">
        <ele>690.7</ele>
        <time>2022-05-22T07:37:28Z</time>
      </trkpt>
      <trkpt lat="37.9503040" lon="-5.6224720">
        <ele>690.7</ele>
        <time>2022-05-22T07:37:29Z</time>
      </trkpt>
      <trkpt lat="37.9503030" lon="-5.6224780">
        <ele>690.7</ele>
        <time>2022-05-22T07:37:30Z</time>
      </trkpt>
      <trkpt lat="37.9503000" lon="-5.6224840">
        <ele>690.7</ele>
        <time>2022-05-22T07:37:31Z</time>
      </trkpt>
      <trkpt lat="37.9502970" lon="-5.6224900">
        <ele>690.7</ele>
        <time>2022-05-22T07:37:32Z</time>
      </trkpt>
      <trkpt lat="37.9502920" lon="-5.6224980">
        <ele>690.7</ele>
        <time>2022-05-22T07:37:33Z</time>
      </trkpt>
      <trkpt lat="37.9502840" lon="-5.6225040">
        <ele>690.8</ele>
        <time>2022-05-22T07:37:34Z</time>
      </trkpt>
      <trkpt lat="37.9502690" lon="-5.6225150">
        <ele>690.8</ele>
        <time>2022-05-22T07:37:36Z</time>
      </trkpt>
      <trkpt lat="37.9502650" lon="-5.6225240">
        <ele>690.8</ele>
        <time>2022-05-22T07:37:37Z</time>
      </trkpt>
      <trkpt lat="37.9502580" lon="-5.6225320">
        <ele>690.8</ele>
        <time>2022-05-22T07:37:38Z</time>
      </trkpt>
      <trkpt lat="37.9502480" lon="-5.6225400">
        <ele>690.9</ele>
        <time>2022-05-22T07:37:39Z</time>
      </trkpt>
      <trkpt lat="37.9502330" lon="-5.6225490">
        <ele>690.9</ele>
        <time>2022-05-22T07:37:40Z</time>
      </trkpt>
      <trkpt lat="37.9502220" lon="-5.6225550">
        <ele>691.0</ele>
        <time>2022-05-22T07:37:41Z</time>
      </trkpt>
      <trkpt lat="37.9501900" lon="-5.6225770">
        <ele>691.1</ele>
        <time>2022-05-22T07:37:43Z</time>
      </trkpt>
      <trkpt lat="37.9501800" lon="-5.6225820">
        <ele>691.2</ele>
        <time>2022-05-22T07:37:44Z</time>
      </trkpt>
      <trkpt lat="37.9501510" lon="-5.6225970">
        <ele>691.3</ele>
        <time>2022-05-22T07:37:46Z</time>
      </trkpt>
      <trkpt lat="37.9501450" lon="-5.6226000">
        <ele>691.3</ele>
        <time>2022-05-22T07:37:47Z</time>
      </trkpt>
      <trkpt lat="37.9501250" lon="-5.6226080">
        <ele>691.4</ele>
        <time>2022-05-22T07:37:48Z</time>
      </trkpt>
      <trkpt lat="37.9501170" lon="-5.6226110">
        <ele>691.5</ele>
        <time>2022-05-22T07:37:49Z</time>
      </trkpt>
      <trkpt lat="37.9501090" lon="-5.6226140">
        <ele>691.5</ele>
        <time>2022-05-22T07:37:50Z</time>
      </trkpt>
      <trkpt lat="37.9500920" lon="-5.6226190">
        <ele>691.6</ele>
        <time>2022-05-22T07:37:51Z</time>
      </trkpt>
      <trkpt lat="37.9500710" lon="-5.6226250">
        <ele>691.8</ele>
        <time>2022-05-22T07:37:53Z</time>
      </trkpt>
      <trkpt lat="37.9500590" lon="-5.6226290">
        <ele>691.9</ele>
        <time>2022-05-22T07:37:54Z</time>
      </trkpt>
      <trkpt lat="37.9500500" lon="-5.6226320">
        <ele>691.9</ele>
        <time>2022-05-22T07:37:55Z</time>
      </trkpt>
      <trkpt lat="37.9500410" lon="-5.6226340">
        <ele>692.0</ele>
        <time>2022-05-22T07:37:56Z</time>
      </trkpt>
      <trkpt lat="37.9500120" lon="-5.6226410">
        <ele>692.2</ele>
        <time>2022-05-22T07:37:58Z</time>
      </trkpt>
      <trkpt lat="37.9500050" lon="-5.6226430">
        <ele>692.2</ele>
        <time>2022-05-22T07:37:59Z</time>
      </trkpt>
      <trkpt lat="37.9499860" lon="-5.6226500">
        <ele>692.4</ele>
        <time>2022-05-22T07:38:00Z</time>
      </trkpt>
      <trkpt lat="37.9499760" lon="-5.6226530">
        <ele>692.5</ele>
        <time>2022-05-22T07:38:01Z</time>
      </trkpt>
      <trkpt lat="37.9499670" lon="-5.6226560">
        <ele>692.6</ele>
        <time>2022-05-22T07:38:02Z</time>
      </trkpt>
      <trkpt lat="37.9499500" lon="-5.6226610">
        <ele>692.7</ele>
        <time>2022-05-22T07:38:03Z</time>
      </trkpt>
      <trkpt lat="37.9499410" lon="-5.6226630">
        <ele>692.8</ele>
        <time>2022-05-22T07:38:04Z</time>
      </trkpt>
      <trkpt lat="37.9499190" lon="-5.6226650">
        <ele>693.0</ele>
        <time>2022-05-22T07:38:05Z</time>
      </trkpt>
      <trkpt lat="37.9499100" lon="-5.6226630">
        <ele>693.0</ele>
        <time>2022-05-22T07:38:06Z</time>
      </trkpt>
      <trkpt lat="37.9499000" lon="-5.6226620">
        <ele>693.1</ele>
        <time>2022-05-22T07:38:07Z</time>
      </trkpt>
      <trkpt lat="37.9498770" lon="-5.6226580">
        <ele>693.3</ele>
        <time>2022-05-22T07:38:09Z</time>
      </trkpt>
      <trkpt lat="37.9498650" lon="-5.6226550">
        <ele>693.4</ele>
        <time>2022-05-22T07:38:10Z</time>
      </trkpt>
      <trkpt lat="37.9498490" lon="-5.6226520">
        <ele>693.6</ele>
        <time>2022-05-22T07:38:11Z</time>
      </trkpt>
      <trkpt lat="37.9498360" lon="-5.6226500">
        <ele>693.7</ele>
        <time>2022-05-22T07:38:12Z</time>
      </trkpt>
      <trkpt lat="37.9498270" lon="-5.6226480">
        <ele>693.8</ele>
        <time>2022-05-22T07:38:13Z</time>
      </trkpt>
      <trkpt lat="37.9498170" lon="-5.6226450">
        <ele>693.8</ele>
        <time>2022-05-22T07:38:14Z</time>
      </trkpt>
      <trkpt lat="37.9498080" lon="-5.6226410">
        <ele>693.9</ele>
        <time>2022-05-22T07:38:15Z</time>
      </trkpt>
      <trkpt lat="37.9497930" lon="-5.6226200">
        <ele>694.1</ele>
        <time>2022-05-22T07:38:16Z</time>
      </trkpt>
      <trkpt lat="37.9497870" lon="-5.6226100">
        <ele>694.2</ele>
        <time>2022-05-22T07:38:17Z</time>
      </trkpt>
      <trkpt lat="37.9497810" lon="-5.6226000">
        <ele>694.3</ele>
        <time>2022-05-22T07:38:18Z</time>
      </trkpt>
      <trkpt lat="37.9497630" lon="-5.6225810">
        <ele>694.5</ele>
        <time>2022-05-22T07:38:20Z</time>
      </trkpt>
      <trkpt lat="37.9497550" lon="-5.6225710">
        <ele>694.6</ele>
        <time>2022-05-22T07:38:21Z</time>
      </trkpt>
      <trkpt lat="37.9497390" lon="-5.6225550">
        <ele>694.8</ele>
        <time>2022-05-22T07:38:22Z</time>
      </trkpt>
      <trkpt lat="37.9497310" lon="-5.6225490">
        <ele>694.8</ele>
        <time>2022-05-22T07:38:23Z</time>
      </trkpt>
      <trkpt lat="37.9497240" lon="-5.6225440">
        <ele>694.9</ele>
        <time>2022-05-22T07:38:24Z</time>
      </trkpt>
      <trkpt lat="37.9497140" lon="-5.6225310">
        <ele>695.0</ele>
        <time>2022-05-22T07:38:25Z</time>
      </trkpt>
      <trkpt lat="37.9497060" lon="-5.6225210">
        <ele>695.1</ele>
        <time>2022-05-22T07:38:26Z</time>
      </trkpt>
      <trkpt lat="37.9496970" lon="-5.6225080">
        <ele>695.2</ele>
        <time>2022-05-22T07:38:28Z</time>
      </trkpt>
      <trkpt lat="37.9496820" lon="-5.6224870">
        <ele>695.4</ele>
        <time>2022-05-22T07:38:29Z</time>
      </trkpt>
      <trkpt lat="37.9496760" lon="-5.6224790">
        <ele>695.5</ele>
        <time>2022-05-22T07:38:30Z</time>
      </trkpt>
      <trkpt lat="37.9496700" lon="-5.6224710">
        <ele>695.6</ele>
        <time>2022-05-22T07:38:31Z</time>
      </trkpt>
      <trkpt lat="37.9496610" lon="-5.6224590">
        <ele>695.7</ele>
        <time>2022-05-22T07:38:32Z</time>
      </trkpt>
      <trkpt lat="37.9496490" lon="-5.6224470">
        <ele>695.8</ele>
        <time>2022-05-22T07:38:33Z</time>
      </trkpt>
      <trkpt lat="37.9496250" lon="-5.6224310">
        <ele>696.0</ele>
        <time>2022-05-22T07:38:34Z</time>
      </trkpt>
      <trkpt lat="37.9496150" lon="-5.6224260">
        <ele>696.1</ele>
        <time>2022-05-22T07:38:36Z</time>
      </trkpt>
      <trkpt lat="37.9496040" lon="-5.6224210">
        <ele>696.2</ele>
        <time>2022-05-22T07:38:37Z</time>
      </trkpt>
      <trkpt lat="37.9495940" lon="-5.6224150">
        <ele>696.3</ele>
        <time>2022-05-22T07:38:38Z</time>
      </trkpt>
      <trkpt lat="37.9495840" lon="-5.6224100">
        <ele>696.4</ele>
        <time>2022-05-22T07:38:39Z</time>
      </trkpt>
      <trkpt lat="37.9495710" lon="-5.6224050">
        <ele>696.5</ele>
        <time>2022-05-22T07:38:40Z</time>
      </trkpt>
      <trkpt lat="37.9495560" lon="-5.6224010">
        <ele>696.6</ele>
        <time>2022-05-22T07:38:41Z</time>
      </trkpt>
      <trkpt lat="37.9495360" lon="-5.6223950">
        <ele>696.8</ele>
        <time>2022-05-22T07:38:42Z</time>
      </trkpt>
      <trkpt lat="37.9495280" lon="-5.6223920">
        <ele>696.9</ele>
        <time>2022-05-22T07:38:43Z</time>
      </trkpt>
      <trkpt lat="37.9495200" lon="-5.6223900">
        <ele>696.9</ele>
        <time>2022-05-22T07:38:44Z</time>
      </trkpt>
      <trkpt lat="37.9495000" lon="-5.6223830">
        <ele>697.1</ele>
        <time>2022-05-22T07:38:45Z</time>
      </trkpt>
      <trkpt lat="37.9494910" lon="-5.6223800">
        <ele>697.2</ele>
        <time>2022-05-22T07:38:46Z</time>
      </trkpt>
      <trkpt lat="37.9494830" lon="-5.6223780">
        <ele>697.2</ele>
        <time>2022-05-22T07:38:47Z</time>
      </trkpt>
      <trkpt lat="37.9494700" lon="-5.6223730">
        <ele>697.3</ele>
        <time>2022-05-22T07:38:48Z</time>
      </trkpt>
      <trkpt lat="37.9494440" lon="-5.6223600">
        <ele>697.6</ele>
        <time>2022-05-22T07:38:50Z</time>
      </trkpt>
      <trkpt lat="37.9494280" lon="-5.6223490">
        <ele>697.7</ele>
        <time>2022-05-22T07:38:51Z</time>
      </trkpt>
      <trkpt lat="37.9494200" lon="-5.6223430">
        <ele>697.8</ele>
        <time>2022-05-22T07:38:52Z</time>
      </trkpt>
      <trkpt lat="37.9494120" lon="-5.6223370">
        <ele>697.9</ele>
        <time>2022-05-22T07:38:53Z</time>
      </trkpt>
      <trkpt lat="37.9494040" lon="-5.6223300">
        <ele>697.9</ele>
        <time>2022-05-22T07:38:54Z</time>
      </trkpt>
      <trkpt lat="37.9493820" lon="-5.6223170">
        <ele>698.1</ele>
        <time>2022-05-22T07:38:56Z</time>
      </trkpt>
      <trkpt lat="37.9493710" lon="-5.6223140">
        <ele>698.2</ele>
        <time>2022-05-22T07:38:57Z</time>
      </trkpt>
      <trkpt lat="37.9493590" lon="-5.6223110">
        <ele>698.3</ele>
        <time>2022-05-22T07:38:58Z</time>
      </trkpt>
      <trkpt lat="37.9493490" lon="-5.6223070">
        <ele>698.4</ele>
        <time>2022-05-22T07:38:59Z</time>
      </trkpt>
      <trkpt lat="37.9493290" lon="-5.6222990">
        <ele>698.6</ele>
        <time>2022-05-22T07:39:01Z</time>
      </trkpt>
      <trkpt lat="37.9493160" lon="-5.6222910">
        <ele>698.7</ele>
        <time>2022-05-22T07:39:02Z</time>
      </trkpt>
      <trkpt lat="37.9492990" lon="-5.6222790">
        <ele>698.8</ele>
        <time>2022-05-22T07:39:04Z</time>
      </trkpt>
      <trkpt lat="37.9492890" lon="-5.6222700">
        <ele>698.9</ele>
        <time>2022-05-22T07:39:05Z</time>
      </trkpt>
      <trkpt lat="37.9492800" lon="-5.6222610">
        <ele>699.0</ele>
        <time>2022-05-22T07:39:06Z</time>
      </trkpt>
      <trkpt lat="37.9492710" lon="-5.6222500">
        <ele>699.1</ele>
        <time>2022-05-22T07:39:07Z</time>
      </trkpt>
      <trkpt lat="37.9492610" lon="-5.6222430">
        <ele>699.2</ele>
        <time>2022-05-22T07:39:08Z</time>
      </trkpt>
      <trkpt lat="37.9492340" lon="-5.6222280">
        <ele>699.4</ele>
        <time>2022-05-22T07:39:09Z</time>
      </trkpt>
      <trkpt lat="37.9492230" lon="-5.6222210">
        <ele>699.5</ele>
        <time>2022-05-22T07:39:11Z</time>
      </trkpt>
      <trkpt lat="37.9492110" lon="-5.6222150">
        <ele>699.6</ele>
        <time>2022-05-22T07:39:12Z</time>
      </trkpt>
      <trkpt lat="37.9491990" lon="-5.6222090">
        <ele>699.7</ele>
        <time>2022-05-22T07:39:13Z</time>
      </trkpt>
      <trkpt lat="37.9491890" lon="-5.6222040">
        <ele>699.8</ele>
        <time>2022-05-22T07:39:14Z</time>
      </trkpt>
      <trkpt lat="37.9491740" lon="-5.6222020">
        <ele>699.9</ele>
        <time>2022-05-22T07:39:15Z</time>
      </trkpt>
      <trkpt lat="37.9491490" lon="-5.6221870">
        <ele>700.2</ele>
        <time>2022-05-22T07:39:17Z</time>
      </trkpt>
      <trkpt lat="37.9491340" lon="-5.6221770">
        <ele>700.3</ele>
        <time>2022-05-22T07:39:18Z</time>
      </trkpt>
      <trkpt lat="37.9491220" lon="-5.6221710">
        <ele>700.4</ele>
        <time>2022-05-22T07:39:19Z</time>
      </trkpt>
      <trkpt lat="37.9491130" lon="-5.6221630">
        <ele>700.5</ele>
        <time>2022-05-22T07:39:20Z</time>
      </trkpt>
      <trkpt lat="37.9491040" lon="-5.6221550">
        <ele>700.6</ele>
        <time>2022-05-22T07:39:21Z</time>
      </trkpt>
      <trkpt lat="37.9490940" lon="-5.6221490">
        <ele>700.7</ele>
        <time>2022-05-22T07:39:22Z</time>
      </trkpt>
      <trkpt lat="37.9490850" lon="-5.6221450">
        <ele>700.8</ele>
        <time>2022-05-22T07:39:23Z</time>
      </trkpt>
      <trkpt lat="37.9490670" lon="-5.6221560">
        <ele>701.0</ele>
        <time>2022-05-22T07:39:24Z</time>
      </trkpt>
      <trkpt lat="37.9490570" lon="-5.6221560">
        <ele>701.0</ele>
        <time>2022-05-22T07:39:25Z</time>
      </trkpt>
      <trkpt lat="37.9490420" lon="-5.6221420">
        <ele>701.2</ele>
        <time>2022-05-22T07:39:27Z</time>
      </trkpt>
      <trkpt lat="37.9490300" lon="-5.6221290">
        <ele>701.3</ele>
        <time>2022-05-22T07:39:28Z</time>
      </trkpt>
      <trkpt lat="37.9490200" lon="-5.6221190">
        <ele>701.4</ele>
        <time>2022-05-22T07:39:29Z</time>
      </trkpt>
      <trkpt lat="37.9490080" lon="-5.6221080">
        <ele>701.5</ele>
        <time>2022-05-22T07:39:30Z</time>
      </trkpt>
      <trkpt lat="37.9489960" lon="-5.6220970">
        <ele>701.7</ele>
        <time>2022-05-22T07:39:31Z</time>
      </trkpt>
      <trkpt lat="37.9489830" lon="-5.6220860">
        <ele>701.8</ele>
        <time>2022-05-22T07:39:33Z</time>
      </trkpt>
      <trkpt lat="37.9489690" lon="-5.6220730">
        <ele>701.9</ele>
        <time>2022-05-22T07:39:34Z</time>
      </trkpt>
      <trkpt lat="37.9489610" lon="-5.6220610">
        <ele>702.0</ele>
        <time>2022-05-22T07:39:35Z</time>
      </trkpt>
      <trkpt lat="37.9489510" lon="-5.6220440">
        <ele>702.2</ele>
        <time>2022-05-22T07:39:36Z</time>
      </trkpt>
      <trkpt lat="37.9489400" lon="-5.6220230">
        <ele>702.3</ele>
        <time>2022-05-22T07:39:37Z</time>
      </trkpt>
      <trkpt lat="37.9489350" lon="-5.6220140">
        <ele>702.4</ele>
        <time>2022-05-22T07:39:39Z</time>
      </trkpt>
      <trkpt lat="37.9489300" lon="-5.6220040">
        <ele>702.5</ele>
        <time>2022-05-22T07:39:40Z</time>
      </trkpt>
      <trkpt lat="37.9489200" lon="-5.6219830">
        <ele>702.6</ele>
        <time>2022-05-22T07:39:41Z</time>
      </trkpt>
      <trkpt lat="37.9489140" lon="-5.6219680">
        <ele>702.8</ele>
        <time>2022-05-22T07:39:42Z</time>
      </trkpt>
      <trkpt lat="37.9489080" lon="-5.6219550">
        <ele>702.9</ele>
        <time>2022-05-22T07:39:43Z</time>
      </trkpt>
      <trkpt lat="37.9489020" lon="-5.6219410">
        <ele>703.0</ele>
        <time>2022-05-22T07:39:45Z</time>
      </trkpt>
      <trkpt lat="37.9488960" lon="-5.6219290">
        <ele>703.1</ele>
        <time>2022-05-22T07:39:46Z</time>
      </trkpt>
      <trkpt lat="37.9488910" lon="-5.6219180">
        <ele>703.2</ele>
        <time>2022-05-22T07:39:47Z</time>
      </trkpt>
      <trkpt lat="37.9488850" lon="-5.6219050">
        <ele>703.3</ele>
        <time>2022-05-22T07:39:48Z</time>
      </trkpt>
      <trkpt lat="37.9488800" lon="-5.6218940">
        <ele>703.4</ele>
        <time>2022-05-22T07:39:49Z</time>
      </trkpt>
      <trkpt lat="37.9488740" lon="-5.6218810">
        <ele>703.5</ele>
        <time>2022-05-22T07:39:50Z</time>
      </trkpt>
      <trkpt lat="37.9488710" lon="-5.6218700">
        <ele>703.6</ele>
        <time>2022-05-22T07:39:51Z</time>
      </trkpt>
      <trkpt lat="37.9488650" lon="-5.6218540">
        <ele>703.7</ele>
        <time>2022-05-22T07:39:52Z</time>
      </trkpt>
      <trkpt lat="37.9488570" lon="-5.6218340">
        <ele>703.9</ele>
        <time>2022-05-22T07:39:53Z</time>
      </trkpt>
      <trkpt lat="37.9488490" lon="-5.6218160">
        <ele>704.0</ele>
        <time>2022-05-22T07:39:54Z</time>
      </trkpt>
      <trkpt lat="37.9488390" lon="-5.6217940">
        <ele>704.2</ele>
        <time>2022-05-22T07:39:56Z</time>
      </trkpt>
      <trkpt lat="37.9488320" lon="-5.6217780">
        <ele>704.4</ele>
        <time>2022-05-22T07:39:57Z</time>
      </trkpt>
      <trkpt lat="37.9488230" lon="-5.6217630">
        <ele>704.6</ele>
        <time>2022-05-22T07:39:58Z</time>
      </trkpt>
      <trkpt lat="37.9488140" lon="-5.6217460">
        <ele>704.7</ele>
        <time>2022-05-22T07:39:59Z</time>
      </trkpt>
      <trkpt lat="37.9488030" lon="-5.6217250">
        <ele>705.0</ele>
        <time>2022-05-22T07:40:01Z</time>
      </trkpt>
      <trkpt lat="37.9487970" lon="-5.6217120">
        <ele>705.1</ele>
        <time>2022-05-22T07:40:02Z</time>
      </trkpt>
      <trkpt lat="37.9487870" lon="-5.6216890">
        <ele>705.3</ele>
        <time>2022-05-22T07:40:03Z</time>
      </trkpt>
      <trkpt lat="37.9487840" lon="-5.6216780">
        <ele>705.4</ele>
        <time>2022-05-22T07:40:04Z</time>
      </trkpt>
      <trkpt lat="37.9487800" lon="-5.6216680">
        <ele>705.5</ele>
        <time>2022-05-22T07:40:05Z</time>
      </trkpt>
      <trkpt lat="37.9487770" lon="-5.6216540">
        <ele>705.7</ele>
        <time>2022-05-22T07:40:06Z</time>
      </trkpt>
      <trkpt lat="37.9487730" lon="-5.6216390">
        <ele>705.8</ele>
        <time>2022-05-22T07:40:07Z</time>
      </trkpt>
      <trkpt lat="37.9487700" lon="-5.6216240">
        <ele>705.9</ele>
        <time>2022-05-22T07:40:08Z</time>
      </trkpt>
      <trkpt lat="37.9487650" lon="-5.6216070">
        <ele>706.1</ele>
        <time>2022-05-22T07:40:10Z</time>
      </trkpt>
      <trkpt lat="37.9487620" lon="-5.6216000">
        <ele>706.2</ele>
        <time>2022-05-22T07:40:11Z</time>
      </trkpt>
      <trkpt lat="37.9487550" lon="-5.6215840">
        <ele>706.4</ele>
        <time>2022-05-22T07:40:12Z</time>
      </trkpt>
      <trkpt lat="37.9487500" lon="-5.6215710">
        <ele>706.5</ele>
        <time>2022-05-22T07:40:13Z</time>
      </trkpt>
      <trkpt lat="37.9487450" lon="-5.6215580">
        <ele>706.7</ele>
        <time>2022-05-22T07:40:14Z</time>
      </trkpt>
      <trkpt lat="37.9487410" lon="-5.6215460">
        <ele>706.8</ele>
        <time>2022-05-22T07:40:16Z</time>
      </trkpt>
      <trkpt lat="37.9487320" lon="-5.6215200">
        <ele>707.1</ele>
        <time>2022-05-22T07:40:17Z</time>
      </trkpt>
      <trkpt lat="37.9487270" lon="-5.6215040">
        <ele>707.3</ele>
        <time>2022-05-22T07:40:18Z</time>
      </trkpt>
      <trkpt lat="37.9487230" lon="-5.6214910">
        <ele>707.4</ele>
        <time>2022-05-22T07:40:19Z</time>
      </trkpt>
      <trkpt lat="37.9487190" lon="-5.6214800">
        <ele>707.5</ele>
        <time>2022-05-22T07:40:20Z</time>
      </trkpt>
      <trkpt lat="37.9487140" lon="-5.6214670">
        <ele>707.7</ele>
        <time>2022-05-22T07:40:21Z</time>
      </trkpt>
      <trkpt lat="37.9487030" lon="-5.6214420">
        <ele>708.0</ele>
        <time>2022-05-22T07:40:22Z</time>
      </trkpt>
      <trkpt lat="37.9486990" lon="-5.6214350">
        <ele>708.1</ele>
        <time>2022-05-22T07:40:23Z</time>
      </trkpt>
      <trkpt lat="37.9486960" lon="-5.6214280">
        <ele>708.2</ele>
        <time>2022-05-22T07:40:24Z</time>
      </trkpt>
      <trkpt lat="37.9486880" lon="-5.6214190">
        <ele>708.3</ele>
        <time>2022-05-22T07:40:25Z</time>
      </trkpt>
      <trkpt lat="37.9486790" lon="-5.6214080">
        <ele>708.5</ele>
        <time>2022-05-22T07:40:26Z</time>
      </trkpt>
      <trkpt lat="37.9486690" lon="-5.6213990">
        <ele>708.6</ele>
        <time>2022-05-22T07:40:27Z</time>
      </trkpt>
      <trkpt lat="37.9486500" lon="-5.6213840">
        <ele>708.9</ele>
        <time>2022-05-22T07:40:28Z</time>
      </trkpt>
      <trkpt lat="37.9486430" lon="-5.6213780">
        <ele>709.0</ele>
        <time>2022-05-22T07:40:30Z</time>
      </trkpt>
      <trkpt lat="37.9486360" lon="-5.6213730">
        <ele>709.1</ele>
        <time>2022-05-22T07:40:31Z</time>
      </trkpt>
      <trkpt lat="37.9486290" lon="-5.6213610">
        <ele>709.3</ele>
        <time>2022-05-22T07:40:32Z</time>
      </trkpt>
      <trkpt lat="37.9486260" lon="-5.6213490">
        <ele>709.4</ele>
        <time>2022-05-22T07:40:33Z</time>
      </trkpt>
      <trkpt lat="37.9486250" lon="-5.6213370">
        <ele>709.5</ele>
        <time>2022-05-22T07:40:34Z</time>
      </trkpt>
      <trkpt lat="37.9486290" lon="-5.6213260">
        <ele>709.6</ele>
        <time>2022-05-22T07:40:35Z</time>
      </trkpt>
      <trkpt lat="37.9486320" lon="-5.6213170">
        <ele>709.7</ele>
        <time>2022-05-22T07:40:36Z</time>
      </trkpt>
      <trkpt lat="37.9486400" lon="-5.6213080">
        <ele>709.8</ele>
        <time>2022-05-22T07:40:37Z</time>
      </trkpt>
      <trkpt lat="37.9486550" lon="-5.6212890">
        <ele>710.0</ele>
        <time>2022-05-22T07:40:39Z</time>
      </trkpt>
      <trkpt lat="37.9486660" lon="-5.6212790">
        <ele>710.2</ele>
        <time>2022-05-22T07:40:40Z</time>
      </trkpt>
      <trkpt lat="37.9486740" lon="-5.6212750">
        <ele>710.2</ele>
        <time>2022-05-22T07:40:41Z</time>
      </trkpt>
      <trkpt lat="37.9486850" lon="-5.6212700">
        <ele>710.4</ele>
        <time>2022-05-22T07:40:42Z</time>
      </trkpt>
      <trkpt lat="37.9486930" lon="-5.6212630">
        <ele>710.5</ele>
        <time>2022-05-22T07:40:43Z</time>
      </trkpt>
      <trkpt lat="37.9486940" lon="-5.6212580">
        <ele>710.5</ele>
        <time>2022-05-22T07:40:44Z</time>
      </trkpt>
      <trkpt lat="37.9486950" lon="-5.6212550">
        <ele>710.5</ele>
        <time>2022-05-22T07:40:45Z</time>
      </trkpt>
      <trkpt lat="37.9486950" lon="-5.6212550">
        <ele>710.5</ele>
        <time>2022-05-22T07:40:46Z</time>
      </trkpt>
      <trkpt lat="37.9486950" lon="-5.6212560">
        <ele>710.7</ele>
        <time>2022-05-22T07:40:47Z</time>
      </trkpt>
      <trkpt lat="37.9486960" lon="-5.6212550">
        <ele>710.7</ele>
        <time>2022-05-22T07:40:48Z</time>
      </trkpt>
      <trkpt lat="37.9486960" lon="-5.6212550">
        <ele>710.7</ele>
        <time>2022-05-22T07:40:49Z</time>
      </trkpt>
      <trkpt lat="37.9486970" lon="-5.6212540">
        <ele>710.7</ele>
        <time>2022-05-22T07:40:50Z</time>
      </trkpt>
      <trkpt lat="37.9486980" lon="-5.6212540">
        <ele>710.8</ele>
        <time>2022-05-22T07:40:51Z</time>
      </trkpt>
      <trkpt lat="37.9486980" lon="-5.6212530">
        <ele>710.8</ele>
        <time>2022-05-22T07:40:52Z</time>
      </trkpt>
      <trkpt lat="37.9486980" lon="-5.6212530">
        <ele>710.8</ele>
        <time>2022-05-22T07:40:53Z</time>
      </trkpt>
      <trkpt lat="37.9486970" lon="-5.6212510">
        <ele>710.8</ele>
        <time>2022-05-22T07:40:55Z</time>
      </trkpt>
      <trkpt lat="37.9486930" lon="-5.6212490">
        <ele>710.9</ele>
        <time>2022-05-22T07:40:56Z</time>
      </trkpt>
      <trkpt lat="37.9486870" lon="-5.6212470">
        <ele>711.0</ele>
        <time>2022-05-22T07:40:57Z</time>
      </trkpt>
      <trkpt lat="37.9486790" lon="-5.6212460">
        <ele>711.1</ele>
        <time>2022-05-22T07:40:58Z</time>
      </trkpt>
      <trkpt lat="37.9486650" lon="-5.6212480">
        <ele>711.3</ele>
        <time>2022-05-22T07:40:59Z</time>
      </trkpt>
      <trkpt lat="37.9486490" lon="-5.6212530">
        <ele>711.4</ele>
        <time>2022-05-22T07:41:00Z</time>
      </trkpt>
      <trkpt lat="37.9486320" lon="-5.6212610">
        <ele>711.7</ele>
        <time>2022-05-22T07:41:01Z</time>
      </trkpt>
      <trkpt lat="37.9486020" lon="-5.6212850">
        <ele>712.1</ele>
        <time>2022-05-22T07:41:02Z</time>
      </trkpt>
      <trkpt lat="37.9485930" lon="-5.6212940">
        <ele>712.2</ele>
        <time>2022-05-22T07:41:03Z</time>
      </trkpt>
      <trkpt lat="37.9485710" lon="-5.6213150">
        <ele>712.6</ele>
        <time>2022-05-22T07:41:04Z</time>
      </trkpt>
      <trkpt lat="37.9485640" lon="-5.6213210">
        <ele>712.7</ele>
        <time>2022-05-22T07:41:05Z</time>
      </trkpt>
      <trkpt lat="37.9485530" lon="-5.6213320">
        <ele>712.9</ele>
        <time>2022-05-22T07:41:06Z</time>
      </trkpt>
      <trkpt lat="37.9485380" lon="-5.6213450">
        <ele>713.2</ele>
        <time>2022-05-22T07:41:07Z</time>
      </trkpt>
      <trkpt lat="37.9485260" lon="-5.6213560">
        <ele>713.3</ele>
        <time>2022-05-22T07:41:09Z</time>
      </trkpt>
      <trkpt lat="37.9485130" lon="-5.6213620">
        <ele>713.5</ele>
        <time>2022-05-22T07:41:10Z</time>
      </trkpt>
      <trkpt lat="37.9484860" lon="-5.6213680">
        <ele>713.9</ele>
        <time>2022-05-22T07:41:12Z</time>
      </trkpt>
      <trkpt lat="37.9484660" lon="-5.6213650">
        <ele>714.1</ele>
        <time>2022-05-22T07:41:13Z</time>
      </trkpt>
      <trkpt lat="37.9484530" lon="-5.6213600">
        <ele>714.3</ele>
        <time>2022-05-22T07:41:14Z</time>
      </trkpt>
      <trkpt lat="37.9484410" lon="-5.6213540">
        <ele>714.6</ele>
        <time>2022-05-22T07:41:15Z</time>
      </trkpt>
      <trkpt lat="37.9484270" lon="-5.6213460">
        <ele>714.7</ele>
        <time>2022-05-22T07:41:16Z</time>
      </trkpt>
      <trkpt lat="37.9484100" lon="-5.6213370">
        <ele>715.0</ele>
        <time>2022-05-22T07:41:18Z</time>
      </trkpt>
      <trkpt lat="37.9483960" lon="-5.6213260">
        <ele>715.3</ele>
        <time>2022-05-22T07:41:19Z</time>
      </trkpt>
      <trkpt lat="37.9483790" lon="-5.6213100">
        <ele>715.6</ele>
        <time>2022-05-22T07:41:20Z</time>
      </trkpt>
      <trkpt lat="37.9483720" lon="-5.6213030">
        <ele>715.7</ele>
        <time>2022-05-22T07:41:21Z</time>
      </trkpt>
      <trkpt lat="37.9483650" lon="-5.6212960">
        <ele>715.9</ele>
        <time>2022-05-22T07:41:22Z</time>
      </trkpt>
      <trkpt lat="37.9483550" lon="-5.6212850">
        <ele>716.1</ele>
        <time>2022-05-22T07:41:23Z</time>
      </trkpt>
      <trkpt lat="37.9483390" lon="-5.6212690">
        <ele>716.4</ele>
        <time>2022-05-22T07:41:24Z</time>
      </trkpt>
      <trkpt lat="37.9483310" lon="-5.6212590">
        <ele>716.6</ele>
        <time>2022-05-22T07:41:26Z</time>
      </trkpt>
      <trkpt lat="37.9483270" lon="-5.6212470">
        <ele>716.8</ele>
        <time>2022-05-22T07:41:27Z</time>
      </trkpt>
      <trkpt lat="37.9483220" lon="-5.6212320">
        <ele>717.0</ele>
        <time>2022-05-22T07:41:28Z</time>
      </trkpt>
      <trkpt lat="37.9483150" lon="-5.6212220">
        <ele>717.2</ele>
        <time>2022-05-22T07:41:29Z</time>
      </trkpt>
      <trkpt lat="37.9483060" lon="-5.6212090">
        <ele>717.4</ele>
        <time>2022-05-22T07:41:31Z</time>
      </trkpt>
      <trkpt lat="37.9482990" lon="-5.6211970">
        <ele>717.6</ele>
        <time>2022-05-22T07:41:32Z</time>
      </trkpt>
      <trkpt lat="37.9482940" lon="-5.6211880">
        <ele>717.8</ele>
        <time>2022-05-22T07:41:33Z</time>
      </trkpt>
      <trkpt lat="37.9482870" lon="-5.6211740">
        <ele>718.1</ele>
        <time>2022-05-22T07:41:34Z</time>
      </trkpt>
      <trkpt lat="37.9482790" lon="-5.6211630">
        <ele>718.2</ele>
        <time>2022-05-22T07:41:35Z</time>
      </trkpt>
      <trkpt lat="37.9482620" lon="-5.6211390">
        <ele>718.7</ele>
        <time>2022-05-22T07:41:36Z</time>
      </trkpt>
      <trkpt lat="37.9482560" lon="-5.6211290">
        <ele>718.8</ele>
        <time>2022-05-22T07:41:38Z</time>
      </trkpt>
      <trkpt lat="37.9482490" lon="-5.6211190">
        <ele>719.0</ele>
        <time>2022-05-22T07:41:39Z</time>
      </trkpt>
      <trkpt lat="37.9482430" lon="-5.6211090">
        <ele>719.2</ele>
        <time>2022-05-22T07:41:40Z</time>
      </trkpt>
      <trkpt lat="37.9482360" lon="-5.6210990">
        <ele>719.4</ele>
        <time>2022-05-22T07:41:41Z</time>
      </trkpt>
      <trkpt lat="37.9482290" lon="-5.6210790">
        <ele>719.7</ele>
        <time>2022-05-22T07:41:42Z</time>
      </trkpt>
      <trkpt lat="37.9482260" lon="-5.6210650">
        <ele>719.9</ele>
        <time>2022-05-22T07:41:43Z</time>
      </trkpt>
      <trkpt lat="37.9482250" lon="-5.6210380">
        <ele>720.3</ele>
        <time>2022-05-22T07:41:44Z</time>
      </trkpt>
      <trkpt lat="37.9482250" lon="-5.6210260">
        <ele>720.5</ele>
        <time>2022-05-22T07:41:46Z</time>
      </trkpt>
      <trkpt lat="37.9482250" lon="-5.6210140">
        <ele>720.7</ele>
        <time>2022-05-22T07:41:47Z</time>
      </trkpt>
      <trkpt lat="37.9482270" lon="-5.6209850">
        <ele>721.1</ele>
        <time>2022-05-22T07:41:48Z</time>
      </trkpt>
      <trkpt lat="37.9482280" lon="-5.6209750">
        <ele>721.2</ele>
        <time>2022-05-22T07:41:49Z</time>
      </trkpt>
      <trkpt lat="37.9482290" lon="-5.6209650">
        <ele>721.4</ele>
        <time>2022-05-22T07:41:50Z</time>
      </trkpt>
      <trkpt lat="37.9482340" lon="-5.6209390">
        <ele>721.8</ele>
        <time>2022-05-22T07:41:51Z</time>
      </trkpt>
      <trkpt lat="37.9482360" lon="-5.6209280">
        <ele>721.9</ele>
        <time>2022-05-22T07:41:52Z</time>
      </trkpt>
      <trkpt lat="37.9482390" lon="-5.6209170">
        <ele>722.1</ele>
        <time>2022-05-22T07:41:53Z</time>
      </trkpt>
      <trkpt lat="37.9482400" lon="-5.6209060">
        <ele>722.3</ele>
        <time>2022-05-22T07:41:54Z</time>
      </trkpt>
      <trkpt lat="37.9482430" lon="-5.6208940">
        <ele>722.5</ele>
        <time>2022-05-22T07:41:55Z</time>
      </trkpt>
      <trkpt lat="37.9482440" lon="-5.6208810">
        <ele>722.6</ele>
        <time>2022-05-22T07:41:56Z</time>
      </trkpt>
      <trkpt lat="37.9482440" lon="-5.6208680">
        <ele>722.9</ele>
        <time>2022-05-22T07:41:57Z</time>
      </trkpt>
      <trkpt lat="37.9482430" lon="-5.6208570">
        <ele>723.0</ele>
        <time>2022-05-22T07:41:58Z</time>
      </trkpt>
      <trkpt lat="37.9482420" lon="-5.6208390">
        <ele>723.3</ele>
        <time>2022-05-22T07:41:59Z</time>
      </trkpt>
      <trkpt lat="37.9482420" lon="-5.6208270">
        <ele>723.4</ele>
        <time>2022-05-22T07:42:01Z</time>
      </trkpt>
      <trkpt lat="37.9482420" lon="-5.6208140">
        <ele>723.6</ele>
        <time>2022-05-22T07:42:02Z</time>
      </trkpt>
      <trkpt lat="37.9482420" lon="-5.6207990">
        <ele>723.9</ele>
        <time>2022-05-22T07:42:03Z</time>
      </trkpt>
      <trkpt lat="37.9482420" lon="-5.6207810">
        <ele>724.1</ele>
        <time>2022-05-22T07:42:04Z</time>
      </trkpt>
      <trkpt lat="37.9482430" lon="-5.6207680">
        <ele>724.2</ele>
        <time>2022-05-22T07:42:06Z</time>
      </trkpt>
      <trkpt lat="37.9482460" lon="-5.6207550">
        <ele>724.5</ele>
        <time>2022-05-22T07:42:07Z</time>
      </trkpt>
      <trkpt lat="37.9482490" lon="-5.6207420">
        <ele>724.6</ele>
        <time>2022-05-22T07:42:08Z</time>
      </trkpt>
      <trkpt lat="37.9482540" lon="-5.6207330">
        <ele>724.8</ele>
        <time>2022-05-22T07:42:09Z</time>
      </trkpt>
      <trkpt lat="37.9482640" lon="-5.6207180">
        <ele>725.0</ele>
        <time>2022-05-22T07:42:11Z</time>
      </trkpt>
      <trkpt lat="37.9482700" lon="-5.6207110">
        <ele>725.2</ele>
        <time>2022-05-22T07:42:12Z</time>
      </trkpt>
      <trkpt lat="37.9482750" lon="-5.6207040">
        <ele>725.4</ele>
        <time>2022-05-22T07:42:13Z</time>
      </trkpt>
      <trkpt lat="37.9482770" lon="-5.6206970">
        <ele>725.4</ele>
        <time>2022-05-22T07:42:14Z</time>
      </trkpt>
      <trkpt lat="37.9482760" lon="-5.6206880">
        <ele>725.6</ele>
        <time>2022-05-22T07:42:15Z</time>
      </trkpt>
      <trkpt lat="37.9482740" lon="-5.6206780">
        <ele>725.7</ele>
        <time>2022-05-22T07:42:16Z</time>
      </trkpt>
      <trkpt lat="37.9482710" lon="-5.6206680">
        <ele>725.8</ele>
        <time>2022-05-22T07:42:17Z</time>
      </trkpt>
      <trkpt lat="37.9482670" lon="-5.6206540">
        <ele>726.1</ele>
        <time>2022-05-22T07:42:18Z</time>
      </trkpt>
      <trkpt lat="37.9482640" lon="-5.6206410">
        <ele>726.2</ele>
        <time>2022-05-22T07:42:20Z</time>
      </trkpt>
      <trkpt lat="37.9482600" lon="-5.6206260">
        <ele>726.4</ele>
        <time>2022-05-22T07:42:21Z</time>
      </trkpt>
      <trkpt lat="37.9482560" lon="-5.6206080">
        <ele>726.7</ele>
        <time>2022-05-22T07:42:22Z</time>
      </trkpt>
      <trkpt lat="37.9482530" lon="-5.6205950">
        <ele>726.8</ele>
        <time>2022-05-22T07:42:23Z</time>
      </trkpt>
      <trkpt lat="37.9482520" lon="-5.6205820">
        <ele>726.9</ele>
        <time>2022-05-22T07:42:24Z</time>
      </trkpt>
      <trkpt lat="37.9482510" lon="-5.6205670">
        <ele>727.2</ele>
        <time>2022-05-22T07:42:25Z</time>
      </trkpt>
      <trkpt lat="37.9482500" lon="-5.6205550">
        <ele>727.3</ele>
        <time>2022-05-22T07:42:26Z</time>
      </trkpt>
      <trkpt lat="37.9482500" lon="-5.6205430">
        <ele>727.4</ele>
        <time>2022-05-22T07:42:27Z</time>
      </trkpt>
      <trkpt lat="37.9482510" lon="-5.6205310">
        <ele>727.6</ele>
        <time>2022-05-22T07:42:28Z</time>
      </trkpt>
      <trkpt lat="37.9482510" lon="-5.6205150">
        <ele>727.8</ele>
        <time>2022-05-22T07:42:30Z</time>
      </trkpt>
      <trkpt lat="37.9482510" lon="-5.6205030">
        <ele>727.9</ele>
        <time>2022-05-22T07:42:31Z</time>
      </trkpt>
      <trkpt lat="37.9482520" lon="-5.6204890">
        <ele>728.1</ele>
        <time>2022-05-22T07:42:32Z</time>
      </trkpt>
      <trkpt lat="37.9482530" lon="-5.6204690">
        <ele>728.3</ele>
        <time>2022-05-22T07:42:33Z</time>
      </trkpt>
      <trkpt lat="37.9482540" lon="-5.6204540">
        <ele>728.4</ele>
        <time>2022-05-22T07:42:34Z</time>
      </trkpt>
      <trkpt lat="37.9482550" lon="-5.6204410">
        <ele>728.5</ele>
        <time>2022-05-22T07:42:36Z</time>
      </trkpt>
      <trkpt lat="37.9482560" lon="-5.6204290">
        <ele>728.7</ele>
        <time>2022-05-22T07:42:37Z</time>
      </trkpt>
      <trkpt lat="37.9482560" lon="-5.6204160">
        <ele>728.8</ele>
        <time>2022-05-22T07:42:38Z</time>
      </trkpt>
      <trkpt lat="37.9482560" lon="-5.6204000">
        <ele>729.0</ele>
        <time>2022-05-22T07:42:39Z</time>
      </trkpt>
      <trkpt lat="37.9482560" lon="-5.6203890">
        <ele>729.0</ele>
        <time>2022-05-22T07:42:40Z</time>
      </trkpt>
      <trkpt lat="37.9482580" lon="-5.6203790">
        <ele>729.1</ele>
        <time>2022-05-22T07:42:41Z</time>
      </trkpt>
      <trkpt lat="37.9482600" lon="-5.6203670">
        <ele>729.2</ele>
        <time>2022-05-22T07:42:42Z</time>
      </trkpt>
      <trkpt lat="37.9482620" lon="-5.6203550">
        <ele>729.3</ele>
        <time>2022-05-22T07:42:43Z</time>
      </trkpt>
      <trkpt lat="37.9482640" lon="-5.6203410">
        <ele>729.4</ele>
        <time>2022-05-22T07:42:44Z</time>
      </trkpt>
      <trkpt lat="37.9482660" lon="-5.6203290">
        <ele>729.5</ele>
        <time>2022-05-22T07:42:45Z</time>
      </trkpt>
      <trkpt lat="37.9482690" lon="-5.6203180">
        <ele>729.6</ele>
        <time>2022-05-22T07:42:46Z</time>
      </trkpt>
      <trkpt lat="37.9482700" lon="-5.6203000">
        <ele>729.8</ele>
        <time>2022-05-22T07:42:47Z</time>
      </trkpt>
      <trkpt lat="37.9482700" lon="-5.6202870">
        <ele>729.9</ele>
        <time>2022-05-22T07:42:49Z</time>
      </trkpt>
      <trkpt lat="37.9482720" lon="-5.6202760">
        <ele>730.0</ele>
        <time>2022-05-22T07:42:50Z</time>
      </trkpt>
      <trkpt lat="37.9482770" lon="-5.6202690">
        <ele>730.1</ele>
        <time>2022-05-22T07:42:51Z</time>
      </trkpt>
      <trkpt lat="37.9482890" lon="-5.6202700">
        <ele>730.2</ele>
        <time>2022-05-22T07:42:52Z</time>
      </trkpt>
      <trkpt lat="37.9483010" lon="-5.6202810">
        <ele>730.3</ele>
        <time>2022-05-22T07:42:53Z</time>
      </trkpt>
      <trkpt lat="37.9483080" lon="-5.6202900">
        <ele>730.5</ele>
        <time>2022-05-22T07:42:54Z</time>
      </trkpt>
      <trkpt lat="37.9483150" lon="-5.6202970">
        <ele>730.5</ele>
        <time>2022-05-22T07:42:55Z</time>
      </trkpt>
      <trkpt lat="37.9483200" lon="-5.6203030">
        <ele>730.6</ele>
        <time>2022-05-22T07:42:56Z</time>
      </trkpt>
      <trkpt lat="37.9483230" lon="-5.6203070">
        <ele>730.7</ele>
        <time>2022-05-22T07:42:58Z</time>
      </trkpt>
      <trkpt lat="37.9483200" lon="-5.6203130">
        <ele>730.7</ele>
        <time>2022-05-22T07:42:59Z</time>
      </trkpt>
      <trkpt lat="37.9483180" lon="-5.6203170">
        <ele>730.8</ele>
        <time>2022-05-22T07:43:00Z</time>
      </trkpt>
      <trkpt lat="37.9483180" lon="-5.6203190">
        <ele>730.8</ele>
        <time>2022-05-22T07:43:01Z</time>
      </trkpt>
      <trkpt lat="37.9483150" lon="-5.6203190">
        <ele>730.8</ele>
        <time>2022-05-22T07:43:03Z</time>
      </trkpt>
      <trkpt lat="37.9483150" lon="-5.6203190">
        <ele>730.8</ele>
        <time>2022-05-22T07:43:04Z</time>
      </trkpt>
      <trkpt lat="37.9483150" lon="-5.6203200">
        <ele>730.8</ele>
        <time>2022-05-22T07:43:05Z</time>
      </trkpt>
      <trkpt lat="37.9483150" lon="-5.6203210">
        <ele>730.8</ele>
        <time>2022-05-22T07:43:06Z</time>
      </trkpt>
      <trkpt lat="37.9483150" lon="-5.6203210">
        <ele>730.8</ele>
        <time>2022-05-22T07:43:07Z</time>
      </trkpt>
      <trkpt lat="37.9483140" lon="-5.6203210">
        <ele>730.9</ele>
        <time>2022-05-22T07:43:14Z</time>
      </trkpt>
      <trkpt lat="37.9483140" lon="-5.6203230">
        <ele>730.9</ele>
        <time>2022-05-22T07:43:15Z</time>
      </trkpt>
      <trkpt lat="37.9483180" lon="-5.6203160">
        <ele>731.0</ele>
        <time>2022-05-22T07:43:16Z</time>
      </trkpt>
      <trkpt lat="37.9483180" lon="-5.6203150">
        <ele>731.0</ele>
        <time>2022-05-22T07:43:17Z</time>
      </trkpt>
      <trkpt lat="37.9483180" lon="-5.6203150">
        <ele>731.0</ele>
        <time>2022-05-22T07:43:18Z</time>
      </trkpt>
      <trkpt lat="37.9483190" lon="-5.6203150">
        <ele>731.0</ele>
        <time>2022-05-22T07:43:19Z</time>
      </trkpt>
      <trkpt lat="37.9483190" lon="-5.6203140">
        <ele>731.0</ele>
        <time>2022-05-22T07:43:20Z</time>
      </trkpt>
      <trkpt lat="37.9483190" lon="-5.6203140">
        <ele>731.0</ele>
        <time>2022-05-22T07:43:21Z</time>
      </trkpt>
      <trkpt lat="37.9483190" lon="-5.6203140">
        <ele>731.0</ele>
        <time>2022-05-22T07:43:22Z</time>
      </trkpt>
      <trkpt lat="37.9483190" lon="-5.6203140">
        <ele>731.0</ele>
        <time>2022-05-22T07:43:23Z</time>
      </trkpt>
      <trkpt lat="37.9483190" lon="-5.6203140">
        <ele>731.0</ele>
        <time>2022-05-22T07:43:24Z</time>
      </trkpt>
      <trkpt lat="37.9483190" lon="-5.6203140">
        <ele>731.0</ele>
        <time>2022-05-22T07:43:25Z</time>
      </trkpt>
      <trkpt lat="37.9483190" lon="-5.6203140">
        <ele>731.0</ele>
        <time>2022-05-22T07:43:26Z</time>
      </trkpt>
      <trkpt lat="37.9483190" lon="-5.6203140">
        <ele>731.0</ele>
        <time>2022-05-22T07:43:27Z</time>
      </trkpt>
      <trkpt lat="37.9483190" lon="-5.6203140">
        <ele>731.0</ele>
        <time>2022-05-22T07:43:28Z</time>
      </trkpt>
      <trkpt lat="37.9483190" lon="-5.6203140">
        <ele>731.0</ele>
        <time>2022-05-22T07:43:29Z</time>
      </trkpt>
      <trkpt lat="37.9483190" lon="-5.6203140">
        <ele>731.0</ele>
        <time>2022-05-22T07:43:30Z</time>
      </trkpt>
      <trkpt lat="37.9483190" lon="-5.6203140">
        <ele>731.0</ele>
        <time>2022-05-22T07:43:31Z</time>
      </trkpt>
      <trkpt lat="37.9483190" lon="-5.6203140">
        <ele>731.0</ele>
        <time>2022-05-22T07:43:32Z</time>
      </trkpt>
      <trkpt lat="37.9483190" lon="-5.6203140">
        <ele>731.0</ele>
        <time>2022-05-22T07:43:33Z</time>
      </trkpt>
      <trkpt lat="37.9483210" lon="-5.6203140">
        <ele>731.0</ele>
        <time>2022-05-22T07:43:34Z</time>
      </trkpt>
      <trkpt lat="37.9483280" lon="-5.6203110">
        <ele>731.1</ele>
        <time>2022-05-22T07:43:35Z</time>
      </trkpt>
      <trkpt lat="37.9483350" lon="-5.6203070">
        <ele>731.2</ele>
        <time>2022-05-22T07:43:36Z</time>
      </trkpt>
      <trkpt lat="37.9483410" lon="-5.6203040">
        <ele>731.3</ele>
        <time>2022-05-22T07:43:37Z</time>
      </trkpt>
      <trkpt lat="37.9483460" lon="-5.6203030">
        <ele>731.3</ele>
        <time>2022-05-22T07:43:38Z</time>
      </trkpt>
      <trkpt lat="37.9483510" lon="-5.6203020">
        <ele>731.4</ele>
        <time>2022-05-22T07:43:39Z</time>
      </trkpt>
      <trkpt lat="37.9483530" lon="-5.6203020">
        <ele>731.4</ele>
        <time>2022-05-22T07:43:40Z</time>
      </trkpt>
      <trkpt lat="37.9483540" lon="-5.6203010">
        <ele>731.4</ele>
        <time>2022-05-22T07:43:41Z</time>
      </trkpt>
      <trkpt lat="37.9483550" lon="-5.6203000">
        <ele>731.5</ele>
        <time>2022-05-22T07:43:42Z</time>
      </trkpt>
      <trkpt lat="37.9483550" lon="-5.6203000">
        <ele>731.5</ele>
        <time>2022-05-22T07:43:43Z</time>
      </trkpt>
      <trkpt lat="37.9483550" lon="-5.6203000">
        <ele>731.5</ele>
        <time>2022-05-22T07:43:44Z</time>
      </trkpt>
      <trkpt lat="37.9483550" lon="-5.6202990">
        <ele>731.5</ele>
        <time>2022-05-22T07:43:45Z</time>
      </trkpt>
      <trkpt lat="37.9483550" lon="-5.6202990">
        <ele>731.5</ele>
        <time>2022-05-22T07:43:46Z</time>
      </trkpt>
      <trkpt lat="37.9483550" lon="-5.6202990">
        <ele>731.5</ele>
        <time>2022-05-22T07:43:47Z</time>
      </trkpt>
      <trkpt lat="37.9483550" lon="-5.6202990">
        <ele>731.5</ele>
        <time>2022-05-22T07:43:48Z</time>
      </trkpt>
      <trkpt lat="37.9483550" lon="-5.6202990">
        <ele>731.5</ele>
        <time>2022-05-22T07:43:49Z</time>
      </trkpt>
      <trkpt lat="37.9483550" lon="-5.6202990">
        <ele>731.5</ele>
        <time>2022-05-22T07:43:50Z</time>
      </trkpt>
      <trkpt lat="37.9483550" lon="-5.6202990">
        <ele>731.5</ele>
        <time>2022-05-22T07:43:51Z</time>
      </trkpt>
      <trkpt lat="37.9483550" lon="-5.6202990">
        <ele>731.5</ele>
        <time>2022-05-22T07:43:52Z</time>
      </trkpt>
      <trkpt lat="37.9483550" lon="-5.6202990">
        <ele>731.5</ele>
        <time>2022-05-22T07:43:53Z</time>
      </trkpt>
      <trkpt lat="37.9483550" lon="-5.6202990">
        <ele>731.5</ele>
        <time>2022-05-22T07:43:54Z</time>
      </trkpt>
      <trkpt lat="37.9483550" lon="-5.6202990">
        <ele>731.5</ele>
        <time>2022-05-22T07:43:55Z</time>
      </trkpt>
      <trkpt lat="37.9483550" lon="-5.6202990">
        <ele>731.5</ele>
        <time>2022-05-22T07:43:56Z</time>
      </trkpt>
      <trkpt lat="37.9483550" lon="-5.6202990">
        <ele>731.5</ele>
        <time>2022-05-22T07:43:57Z</time>
      </trkpt>
      <trkpt lat="37.9483550" lon="-5.6202990">
        <ele>731.5</ele>
        <time>2022-05-22T07:43:58Z</time>
      </trkpt>
      <trkpt lat="37.9483550" lon="-5.6202990">
        <ele>731.5</ele>
        <time>2022-05-22T07:43:59Z</time>
      </trkpt>
      <trkpt lat="37.9483550" lon="-5.6202990">
        <ele>731.5</ele>
        <time>2022-05-22T07:44:00Z</time>
      </trkpt>
      <trkpt lat="37.9483550" lon="-5.6202990">
        <ele>731.5</ele>
        <time>2022-05-22T07:44:01Z</time>
      </trkpt>
      <trkpt lat="37.9483550" lon="-5.6202990">
        <ele>731.5</ele>
        <time>2022-05-22T07:44:02Z</time>
      </trkpt>
      <trkpt lat="37.9483550" lon="-5.6202990">
        <ele>731.5</ele>
        <time>2022-05-22T07:44:03Z</time>
      </trkpt>
      <trkpt lat="37.9483550" lon="-5.6202990">
        <ele>731.5</ele>
        <time>2022-05-22T07:44:04Z</time>
      </trkpt>
      <trkpt lat="37.9483550" lon="-5.6202990">
        <ele>731.5</ele>
        <time>2022-05-22T07:44:05Z</time>
      </trkpt>
      <trkpt lat="37.9483550" lon="-5.6202990">
        <ele>731.5</ele>
        <time>2022-05-22T07:44:06Z</time>
      </trkpt>
      <trkpt lat="37.9483550" lon="-5.6202990">
        <ele>731.5</ele>
        <time>2022-05-22T07:44:07Z</time>
      </trkpt>
      <trkpt lat="37.9483550" lon="-5.6202990">
        <ele>731.5</ele>
        <time>2022-05-22T07:44:08Z</time>
      </trkpt>
      <trkpt lat="37.9483550" lon="-5.6202990">
        <ele>731.5</ele>
        <time>2022-05-22T07:44:09Z</time>
      </trkpt>
      <trkpt lat="37.9483550" lon="-5.6202990">
        <ele>731.5</ele>
        <time>2022-05-22T07:44:10Z</time>
      </trkpt>
      <trkpt lat="37.9483550" lon="-5.6202990">
        <ele>731.5</ele>
        <time>2022-05-22T07:44:11Z</time>
      </trkpt>
      <trkpt lat="37.9483550" lon="-5.6202990">
        <ele>731.5</ele>
        <time>2022-05-22T07:44:12Z</time>
      </trkpt>
      <trkpt lat="37.9483550" lon="-5.6202990">
        <ele>731.5</ele>
        <time>2022-05-22T07:44:13Z</time>
      </trkpt>
      <trkpt lat="37.9483550" lon="-5.6202990">
        <ele>731.5</ele>
        <time>2022-05-22T07:44:14Z</time>
      </trkpt>
      <trkpt lat="37.9483550" lon="-5.6202990">
        <ele>731.5</ele>
        <time>2022-05-22T07:44:15Z</time>
      </trkpt>
      <trkpt lat="37.9483550" lon="-5.6202990">
        <ele>731.5</ele>
        <time>2022-05-22T07:44:16Z</time>
      </trkpt>
      <trkpt lat="37.9483550" lon="-5.6202990">
        <ele>731.5</ele>
        <time>2022-05-22T07:44:17Z</time>
      </trkpt>
      <trkpt lat="37.9483550" lon="-5.6202990">
        <ele>731.5</ele>
        <time>2022-05-22T07:44:18Z</time>
      </trkpt>
      <trkpt lat="37.9483550" lon="-5.6202990">
        <ele>731.5</ele>
        <time>2022-05-22T07:44:19Z</time>
      </trkpt>
      <trkpt lat="37.9483570" lon="-5.6203010">
        <ele>731.5</ele>
        <time>2022-05-22T07:44:20Z</time>
      </trkpt>
      <trkpt lat="37.9483610" lon="-5.6203070">
        <ele>731.6</ele>
        <time>2022-05-22T07:44:21Z</time>
      </trkpt>
      <trkpt lat="37.9483640" lon="-5.6203090">
        <ele>731.6</ele>
        <time>2022-05-22T07:44:22Z</time>
      </trkpt>
      <trkpt lat="37.9483670" lon="-5.6203100">
        <ele>731.7</ele>
        <time>2022-05-22T07:44:23Z</time>
      </trkpt>
      <trkpt lat="37.9483680" lon="-5.6203100">
        <ele>731.7</ele>
        <time>2022-05-22T07:44:24Z</time>
      </trkpt>
      <trkpt lat="37.9483650" lon="-5.6203080">
        <ele>731.7</ele>
        <time>2022-05-22T07:44:25Z</time>
      </trkpt>
      <trkpt lat="37.9483610" lon="-5.6203030">
        <ele>731.8</ele>
        <time>2022-05-22T07:44:26Z</time>
      </trkpt>
      <trkpt lat="37.9483520" lon="-5.6202950">
        <ele>732.0</ele>
        <time>2022-05-22T07:44:27Z</time>
      </trkpt>
      <trkpt lat="37.9483410" lon="-5.6202890">
        <ele>732.1</ele>
        <time>2022-05-22T07:44:28Z</time>
      </trkpt>
      <trkpt lat="37.9483300" lon="-5.6202820">
        <ele>732.3</ele>
        <time>2022-05-22T07:44:29Z</time>
      </trkpt>
      <trkpt lat="37.9483180" lon="-5.6202770">
        <ele>732.5</ele>
        <time>2022-05-22T07:44:30Z</time>
      </trkpt>
      <trkpt lat="37.9483070" lon="-5.6202780">
        <ele>732.6</ele>
        <time>2022-05-22T07:44:31Z</time>
      </trkpt>
      <trkpt lat="37.9482940" lon="-5.6202830">
        <ele>732.8</ele>
        <time>2022-05-22T07:44:32Z</time>
      </trkpt>
      <trkpt lat="37.9482840" lon="-5.6202870">
        <ele>733.0</ele>
        <time>2022-05-22T07:44:33Z</time>
      </trkpt>
      <trkpt lat="37.9482740" lon="-5.6202870">
        <ele>733.1</ele>
        <time>2022-05-22T07:44:34Z</time>
      </trkpt>
      <trkpt lat="37.9482650" lon="-5.6202820">
        <ele>733.2</ele>
        <time>2022-05-22T07:44:35Z</time>
      </trkpt>
      <trkpt lat="37.9482550" lon="-5.6202710">
        <ele>733.4</ele>
        <time>2022-05-22T07:44:36Z</time>
      </trkpt>
      <trkpt lat="37.9482510" lon="-5.6202660">
        <ele>733.5</ele>
        <time>2022-05-22T07:44:37Z</time>
      </trkpt>
      <trkpt lat="37.9482440" lon="-5.6202600">
        <ele>733.6</ele>
        <time>2022-05-22T07:44:38Z</time>
      </trkpt>
      <trkpt lat="37.9482300" lon="-5.6202480">
        <ele>733.9</ele>
        <time>2022-05-22T07:44:39Z</time>
      </trkpt>
      <trkpt lat="37.9482190" lon="-5.6202330">
        <ele>734.1</ele>
        <time>2022-05-22T07:44:40Z</time>
      </trkpt>
      <trkpt lat="37.9482100" lon="-5.6202130">
        <ele>734.4</ele>
        <time>2022-05-22T07:44:41Z</time>
      </trkpt>
      <trkpt lat="37.9482000" lon="-5.6201950">
        <ele>734.7</ele>
        <time>2022-05-22T07:44:43Z</time>
      </trkpt>
      <trkpt lat="37.9481950" lon="-5.6201890">
        <ele>734.8</ele>
        <time>2022-05-22T07:44:44Z</time>
      </trkpt>
      <trkpt lat="37.9481880" lon="-5.6201730">
        <ele>735.0</ele>
        <time>2022-05-22T07:44:46Z</time>
      </trkpt>
      <trkpt lat="37.9481900" lon="-5.6201340">
        <ele>735.4</ele>
        <time>2022-05-22T07:44:48Z</time>
      </trkpt>
      <trkpt lat="37.9481920" lon="-5.6201250">
        <ele>735.5</ele>
        <time>2022-05-22T07:44:49Z</time>
      </trkpt>
      <trkpt lat="37.9481940" lon="-5.6201090">
        <ele>735.7</ele>
        <time>2022-05-22T07:44:50Z</time>
      </trkpt>
      <trkpt lat="37.9481960" lon="-5.6200910">
        <ele>736.0</ele>
        <time>2022-05-22T07:44:51Z</time>
      </trkpt>
      <trkpt lat="37.9481970" lon="-5.6200760">
        <ele>736.1</ele>
        <time>2022-05-22T07:44:52Z</time>
      </trkpt>
      <trkpt lat="37.9481980" lon="-5.6200560">
        <ele>736.4</ele>
        <time>2022-05-22T07:44:53Z</time>
      </trkpt>
      <trkpt lat="37.9481970" lon="-5.6200350">
        <ele>736.6</ele>
        <time>2022-05-22T07:44:55Z</time>
      </trkpt>
      <trkpt lat="37.9481920" lon="-5.6200170">
        <ele>736.9</ele>
        <time>2022-05-22T07:44:56Z</time>
      </trkpt>
      <trkpt lat="37.9481850" lon="-5.6199930">
        <ele>737.2</ele>
        <time>2022-05-22T07:44:57Z</time>
      </trkpt>
      <trkpt lat="37.9481820" lon="-5.6199830">
        <ele>737.3</ele>
        <time>2022-05-22T07:44:58Z</time>
      </trkpt>
      <trkpt lat="37.9481800" lon="-5.6199730">
        <ele>737.4</ele>
        <time>2022-05-22T07:44:59Z</time>
      </trkpt>
      <trkpt lat="37.9481720" lon="-5.6199450">
        <ele>737.8</ele>
        <time>2022-05-22T07:45:01Z</time>
      </trkpt>
      <trkpt lat="37.9481690" lon="-5.6199370">
        <ele>737.9</ele>
        <time>2022-05-22T07:45:02Z</time>
      </trkpt>
      <trkpt lat="37.9481660" lon="-5.6199280">
        <ele>738.0</ele>
        <time>2022-05-22T07:45:03Z</time>
      </trkpt>
      <trkpt lat="37.9481620" lon="-5.6199130">
        <ele>738.2</ele>
        <time>2022-05-22T07:45:04Z</time>
      </trkpt>
      <trkpt lat="37.9481570" lon="-5.6198940">
        <ele>738.5</ele>
        <time>2022-05-22T07:45:05Z</time>
      </trkpt>
      <trkpt lat="37.9481530" lon="-5.6198810">
        <ele>738.6</ele>
        <time>2022-05-22T07:45:06Z</time>
      </trkpt>
      <trkpt lat="37.9481490" lon="-5.6198690">
        <ele>738.8</ele>
        <time>2022-05-22T07:45:07Z</time>
      </trkpt>
      <trkpt lat="37.9481430" lon="-5.6198580">
        <ele>739.0</ele>
        <time>2022-05-22T07:45:08Z</time>
      </trkpt>
      <trkpt lat="37.9481360" lon="-5.6198440">
        <ele>739.2</ele>
        <time>2022-05-22T07:45:09Z</time>
      </trkpt>
      <trkpt lat="37.9481280" lon="-5.6198290">
        <ele>739.4</ele>
        <time>2022-05-22T07:45:10Z</time>
      </trkpt>
      <trkpt lat="37.9481170" lon="-5.6198090">
        <ele>739.6</ele>
        <time>2022-05-22T07:45:11Z</time>
      </trkpt>
      <trkpt lat="37.9481120" lon="-5.6198000">
        <ele>739.8</ele>
        <time>2022-05-22T07:45:13Z</time>
      </trkpt>
      <trkpt lat="37.9481080" lon="-5.6197900">
        <ele>739.9</ele>
        <time>2022-05-22T07:45:14Z</time>
      </trkpt>
      <trkpt lat="37.9481020" lon="-5.6197780">
        <ele>740.0</ele>
        <time>2022-05-22T07:45:15Z</time>
      </trkpt>
      <trkpt lat="37.9480910" lon="-5.6197590">
        <ele>740.3</ele>
        <time>2022-05-22T07:45:16Z</time>
      </trkpt>
      <trkpt lat="37.9480830" lon="-5.6197490">
        <ele>740.4</ele>
        <time>2022-05-22T07:45:18Z</time>
      </trkpt>
      <trkpt lat="37.9480760" lon="-5.6197390">
        <ele>740.6</ele>
        <time>2022-05-22T07:45:19Z</time>
      </trkpt>
      <trkpt lat="37.9480700" lon="-5.6197310">
        <ele>740.7</ele>
        <time>2022-05-22T07:45:20Z</time>
      </trkpt>
      <trkpt lat="37.9480630" lon="-5.6197190">
        <ele>740.8</ele>
        <time>2022-05-22T07:45:21Z</time>
      </trkpt>
      <trkpt lat="37.9480510" lon="-5.6196970">
        <ele>741.1</ele>
        <time>2022-05-22T07:45:22Z</time>
      </trkpt>
      <trkpt lat="37.9480400" lon="-5.6196780">
        <ele>741.3</ele>
        <time>2022-05-22T07:45:23Z</time>
      </trkpt>
      <trkpt lat="37.9480350" lon="-5.6196690">
        <ele>741.4</ele>
        <time>2022-05-22T07:45:25Z</time>
      </trkpt>
      <trkpt lat="37.9480300" lon="-5.6196590">
        <ele>741.5</ele>
        <time>2022-05-22T07:45:26Z</time>
      </trkpt>
      <trkpt lat="37.9480230" lon="-5.6196500">
        <ele>741.6</ele>
        <time>2022-05-22T07:45:27Z</time>
      </trkpt>
      <trkpt lat="37.9480160" lon="-5.6196360">
        <ele>741.7</ele>
        <time>2022-05-22T07:45:28Z</time>
      </trkpt>
      <trkpt lat="37.9480110" lon="-5.6196250">
        <ele>741.8</ele>
        <time>2022-05-22T07:45:29Z</time>
      </trkpt>
      <trkpt lat="37.9480050" lon="-5.6196050">
        <ele>742.0</ele>
        <time>2022-05-22T07:45:31Z</time>
      </trkpt>
      <trkpt lat="37.9480000" lon="-5.6195890">
        <ele>742.1</ele>
        <time>2022-05-22T07:45:32Z</time>
      </trkpt>
      <trkpt lat="37.9479910" lon="-5.6195670">
        <ele>742.3</ele>
        <time>2022-05-22T07:45:33Z</time>
      </trkpt>
      <trkpt lat="37.9479830" lon="-5.6195500">
        <ele>742.5</ele>
        <time>2022-05-22T07:45:35Z</time>
      </trkpt>
      <trkpt lat="37.9479770" lon="-5.6195370">
        <ele>742.6</ele>
        <time>2022-05-22T07:45:36Z</time>
      </trkpt>
      <trkpt lat="37.9479700" lon="-5.6195230">
        <ele>742.7</ele>
        <time>2022-05-22T07:45:37Z</time>
      </trkpt>
      <trkpt lat="37.9479630" lon="-5.6195120">
        <ele>742.8</ele>
        <time>2022-05-22T07:45:38Z</time>
      </trkpt>
      <trkpt lat="37.9479520" lon="-5.6194950">
        <ele>743.0</ele>
        <time>2022-05-22T07:45:40Z</time>
      </trkpt>
      <trkpt lat="37.9479430" lon="-5.6194790">
        <ele>743.1</ele>
        <time>2022-05-22T07:45:41Z</time>
      </trkpt>
      <trkpt lat="37.9479360" lon="-5.6194660">
        <ele>743.2</ele>
        <time>2022-05-22T07:45:42Z</time>
      </trkpt>
      <trkpt lat="37.9479310" lon="-5.6194510">
        <ele>743.3</ele>
        <time>2022-05-22T07:45:43Z</time>
      </trkpt>
      <trkpt lat="37.9479240" lon="-5.6194150">
        <ele>743.5</ele>
        <time>2022-05-22T07:45:45Z</time>
      </trkpt>
      <trkpt lat="37.9479220" lon="-5.6193890">
        <ele>743.6</ele>
        <time>2022-05-22T07:45:46Z</time>
      </trkpt>
      <trkpt lat="37.9479210" lon="-5.6193790">
        <ele>743.7</ele>
        <time>2022-05-22T07:45:47Z</time>
      </trkpt>
      <trkpt lat="37.9479200" lon="-5.6193680">
        <ele>743.7</ele>
        <time>2022-05-22T07:45:48Z</time>
      </trkpt>
      <trkpt lat="37.9479210" lon="-5.6193400">
        <ele>743.9</ele>
        <time>2022-05-22T07:45:49Z</time>
      </trkpt>
      <trkpt lat="37.9479200" lon="-5.6193270">
        <ele>743.9</ele>
        <time>2022-05-22T07:45:51Z</time>
      </trkpt>
      <trkpt lat="37.9479180" lon="-5.6193140">
        <ele>744.0</ele>
        <time>2022-05-22T07:45:52Z</time>
      </trkpt>
      <trkpt lat="37.9479170" lon="-5.6193010">
        <ele>744.0</ele>
        <time>2022-05-22T07:45:53Z</time>
      </trkpt>
      <trkpt lat="37.9479160" lon="-5.6192880">
        <ele>744.1</ele>
        <time>2022-05-22T07:45:54Z</time>
      </trkpt>
      <trkpt lat="37.9479150" lon="-5.6192770">
        <ele>744.1</ele>
        <time>2022-05-22T07:45:55Z</time>
      </trkpt>
      <trkpt lat="37.9479150" lon="-5.6192650">
        <ele>744.2</ele>
        <time>2022-05-22T07:45:56Z</time>
      </trkpt>
      <trkpt lat="37.9479150" lon="-5.6192440">
        <ele>744.3</ele>
        <time>2022-05-22T07:45:57Z</time>
      </trkpt>
      <trkpt lat="37.9479160" lon="-5.6192340">
        <ele>744.3</ele>
        <time>2022-05-22T07:45:58Z</time>
      </trkpt>
      <trkpt lat="37.9479180" lon="-5.6192090">
        <ele>744.4</ele>
        <time>2022-05-22T07:45:59Z</time>
      </trkpt>
      <trkpt lat="37.9479190" lon="-5.6191980">
        <ele>744.4</ele>
        <time>2022-05-22T07:46:01Z</time>
      </trkpt>
      <trkpt lat="37.9479200" lon="-5.6191860">
        <ele>744.5</ele>
        <time>2022-05-22T07:46:02Z</time>
      </trkpt>
      <trkpt lat="37.9479200" lon="-5.6191620">
        <ele>744.6</ele>
        <time>2022-05-22T07:46:03Z</time>
      </trkpt>
      <trkpt lat="37.9479180" lon="-5.6191520">
        <ele>744.6</ele>
        <time>2022-05-22T07:46:04Z</time>
      </trkpt>
      <trkpt lat="37.9479160" lon="-5.6191420">
        <ele>744.7</ele>
        <time>2022-05-22T07:46:05Z</time>
      </trkpt>
      <trkpt lat="37.9479160" lon="-5.6191330">
        <ele>744.7</ele>
        <time>2022-05-22T07:46:06Z</time>
      </trkpt>
      <trkpt lat="37.9479140" lon="-5.6191230">
        <ele>744.7</ele>
        <time>2022-05-22T07:46:07Z</time>
      </trkpt>
      <trkpt lat="37.9479060" lon="-5.6191220">
        <ele>744.8</ele>
        <time>2022-05-22T07:46:08Z</time>
      </trkpt>
      <trkpt lat="37.9479020" lon="-5.6191250">
        <ele>744.8</ele>
        <time>2022-05-22T07:46:10Z</time>
      </trkpt>
      <trkpt lat="37.9479030" lon="-5.6191270">
        <ele>744.8</ele>
        <time>2022-05-22T07:46:11Z</time>
      </trkpt>
      <trkpt lat="37.9479050" lon="-5.6191280">
        <ele>744.8</ele>
        <time>2022-05-22T07:46:12Z</time>
      </trkpt>
      <trkpt lat="37.9479060" lon="-5.6191290">
        <ele>744.8</ele>
        <time>2022-05-22T07:46:14Z</time>
      </trkpt>
      <trkpt lat="37.9479070" lon="-5.6191290">
        <ele>744.8</ele>
        <time>2022-05-22T07:46:15Z</time>
      </trkpt>
      <trkpt lat="37.9479080" lon="-5.6191300">
        <ele>744.8</ele>
        <time>2022-05-22T07:46:16Z</time>
      </trkpt>
      <trkpt lat="37.9479090" lon="-5.6191300">
        <ele>744.8</ele>
        <time>2022-05-22T07:46:18Z</time>
      </trkpt>
      <trkpt lat="37.9479100" lon="-5.6191300">
        <ele>744.8</ele>
        <time>2022-05-22T07:46:19Z</time>
      </trkpt>
      <trkpt lat="37.9479110" lon="-5.6191310">
        <ele>744.8</ele>
        <time>2022-05-22T07:46:20Z</time>
      </trkpt>
      <trkpt lat="37.9479120" lon="-5.6191310">
        <ele>744.8</ele>
        <time>2022-05-22T07:46:21Z</time>
      </trkpt>
      <trkpt lat="37.9479140" lon="-5.6191310">
        <ele>744.9</ele>
        <time>2022-05-22T07:46:22Z</time>
      </trkpt>
      <trkpt lat="37.9479130" lon="-5.6191290">
        <ele>744.9</ele>
        <time>2022-05-22T07:46:23Z</time>
      </trkpt>
      <trkpt lat="37.9479110" lon="-5.6191280">
        <ele>744.9</ele>
        <time>2022-05-22T07:46:24Z</time>
      </trkpt>
      <trkpt lat="37.9479100" lon="-5.6191270">
        <ele>744.9</ele>
        <time>2022-05-22T07:46:25Z</time>
      </trkpt>
      <trkpt lat="37.9479080" lon="-5.6191270">
        <ele>744.9</ele>
        <time>2022-05-22T07:46:26Z</time>
      </trkpt>
      <trkpt lat="37.9479060" lon="-5.6191260">
        <ele>744.9</ele>
        <time>2022-05-22T07:46:27Z</time>
      </trkpt>
      <trkpt lat="37.9479030" lon="-5.6191190">
        <ele>744.9</ele>
        <time>2022-05-22T07:46:28Z</time>
      </trkpt>
      <trkpt lat="37.9479010" lon="-5.6191150">
        <ele>745.0</ele>
        <time>2022-05-22T07:46:29Z</time>
      </trkpt>
      <trkpt lat="37.9478990" lon="-5.6191090">
        <ele>745.0</ele>
        <time>2022-05-22T07:46:30Z</time>
      </trkpt>
      <trkpt lat="37.9478940" lon="-5.6190880">
        <ele>745.1</ele>
        <time>2022-05-22T07:46:32Z</time>
      </trkpt>
      <trkpt lat="37.9478910" lon="-5.6190790">
        <ele>745.1</ele>
        <time>2022-05-22T07:46:34Z</time>
      </trkpt>
      <trkpt lat="37.9478880" lon="-5.6190680">
        <ele>745.2</ele>
        <time>2022-05-22T07:46:35Z</time>
      </trkpt>
      <trkpt lat="37.9478860" lon="-5.6190580">
        <ele>745.2</ele>
        <time>2022-05-22T07:46:36Z</time>
      </trkpt>
      <trkpt lat="37.9478860" lon="-5.6190510">
        <ele>745.3</ele>
        <time>2022-05-22T07:46:38Z</time>
      </trkpt>
      <trkpt lat="37.9478860" lon="-5.6190500">
        <ele>745.3</ele>
        <time>2022-05-22T07:46:39Z</time>
      </trkpt>
      <trkpt lat="37.9478860" lon="-5.6190490">
        <ele>745.3</ele>
        <time>2022-05-22T07:46:40Z</time>
      </trkpt>
      <trkpt lat="37.9478860" lon="-5.6190490">
        <ele>745.3</ele>
        <time>2022-05-22T07:46:41Z</time>
      </trkpt>
      <trkpt lat="37.9478860" lon="-5.6190490">
        <ele>745.3</ele>
        <time>2022-05-22T07:46:42Z</time>
      </trkpt>
      <trkpt lat="37.9478860" lon="-5.6190490">
        <ele>745.3</ele>
        <time>2022-05-22T07:46:43Z</time>
      </trkpt>
      <trkpt lat="37.9478860" lon="-5.6190490">
        <ele>745.3</ele>
        <time>2022-05-22T07:46:44Z</time>
      </trkpt>
      <trkpt lat="37.9478860" lon="-5.6190470">
        <ele>745.3</ele>
        <time>2022-05-22T07:46:45Z</time>
      </trkpt>
      <trkpt lat="37.9478850" lon="-5.6190410">
        <ele>745.3</ele>
        <time>2022-05-22T07:46:46Z</time>
      </trkpt>
      <trkpt lat="37.9478870" lon="-5.6190280">
        <ele>745.4</ele>
        <time>2022-05-22T07:46:47Z</time>
      </trkpt>
      <trkpt lat="37.9478890" lon="-5.6190010">
        <ele>745.5</ele>
        <time>2022-05-22T07:46:48Z</time>
      </trkpt>
      <trkpt lat="37.9478890" lon="-5.6189890">
        <ele>745.5</ele>
        <time>2022-05-22T07:46:49Z</time>
      </trkpt>
      <trkpt lat="37.9478900" lon="-5.6189770">
        <ele>745.6</ele>
        <time>2022-05-22T07:46:50Z</time>
      </trkpt>
      <trkpt lat="37.9478880" lon="-5.6189650">
        <ele>745.7</ele>
        <time>2022-05-22T07:46:51Z</time>
      </trkpt>
      <trkpt lat="37.9478870" lon="-5.6189550">
        <ele>745.7</ele>
        <time>2022-05-22T07:46:52Z</time>
      </trkpt>
      <trkpt lat="37.9478850" lon="-5.6189490">
        <ele>745.7</ele>
        <time>2022-05-22T07:46:53Z</time>
      </trkpt>
      <trkpt lat="37.9478850" lon="-5.6189410">
        <ele>745.8</ele>
        <time>2022-05-22T07:46:54Z</time>
      </trkpt>
      <trkpt lat="37.9478740" lon="-5.6189440">
        <ele>745.8</ele>
        <time>2022-05-22T07:46:56Z</time>
      </trkpt>
      <trkpt lat="37.9478710" lon="-5.6189350">
        <ele>745.9</ele>
        <time>2022-05-22T07:46:57Z</time>
      </trkpt>
      <trkpt lat="37.9478700" lon="-5.6189180">
        <ele>745.9</ele>
        <time>2022-05-22T07:46:58Z</time>
      </trkpt>
      <trkpt lat="37.9478700" lon="-5.6188990">
        <ele>746.0</ele>
        <time>2022-05-22T07:46:59Z</time>
      </trkpt>
      <trkpt lat="37.9478720" lon="-5.6188720">
        <ele>746.1</ele>
        <time>2022-05-22T07:47:00Z</time>
      </trkpt>
      <trkpt lat="37.9478730" lon="-5.6188620">
        <ele>746.1</ele>
        <time>2022-05-22T07:47:01Z</time>
      </trkpt>
      <trkpt lat="37.9478740" lon="-5.6188520">
        <ele>746.2</ele>
        <time>2022-05-22T07:47:02Z</time>
      </trkpt>
      <trkpt lat="37.9478740" lon="-5.6188420">
        <ele>746.2</ele>
        <time>2022-05-22T07:47:03Z</time>
      </trkpt>
      <trkpt lat="37.9478750" lon="-5.6188380">
        <ele>746.2</ele>
        <time>2022-05-22T07:47:04Z</time>
      </trkpt>
      <trkpt lat="37.9478720" lon="-5.6188280">
        <ele>746.2</ele>
        <time>2022-05-22T07:47:06Z</time>
      </trkpt>
      <trkpt lat="37.9478730" lon="-5.6188280">
        <ele>746.2</ele>
        <time>2022-05-22T07:47:07Z</time>
      </trkpt>
      <trkpt lat="37.9478740" lon="-5.6188300">
        <ele>746.2</ele>
        <time>2022-05-22T07:47:08Z</time>
      </trkpt>
      <trkpt lat="37.9478740" lon="-5.6188330">
        <ele>746.2</ele>
        <time>2022-05-22T07:47:09Z</time>
      </trkpt>
      <trkpt lat="37.9478740" lon="-5.6188370">
        <ele>746.3</ele>
        <time>2022-05-22T07:47:10Z</time>
      </trkpt>
      <trkpt lat="37.9478700" lon="-5.6188440">
        <ele>746.3</ele>
        <time>2022-05-22T07:47:11Z</time>
      </trkpt>
      <trkpt lat="37.9478630" lon="-5.6188470">
        <ele>746.3</ele>
        <time>2022-05-22T07:47:12Z</time>
      </trkpt>
      <trkpt lat="37.9478570" lon="-5.6188340">
        <ele>746.3</ele>
        <time>2022-05-22T07:47:15Z</time>
      </trkpt>
      <trkpt lat="37.9478600" lon="-5.6188340">
        <ele>746.4</ele>
        <time>2022-05-22T07:47:16Z</time>
      </trkpt>
      <trkpt lat="37.9478610" lon="-5.6188330">
        <ele>746.4</ele>
        <time>2022-05-22T07:47:17Z</time>
      </trkpt>
      <trkpt lat="37.9478610" lon="-5.6188330">
        <ele>746.4</ele>
        <time>2022-05-22T07:47:19Z</time>
      </trkpt>
      <trkpt lat="37.9478610" lon="-5.6188320">
        <ele>746.4</ele>
        <time>2022-05-22T07:47:20Z</time>
      </trkpt>
      <trkpt lat="37.9478610" lon="-5.6188290">
        <ele>746.4</ele>
        <time>2022-05-22T07:47:21Z</time>
      </trkpt>
      <trkpt lat="37.9478530" lon="-5.6188210">
        <ele>746.4</ele>
        <time>2022-05-22T07:47:22Z</time>
      </trkpt>
      <trkpt lat="37.9478460" lon="-5.6188150">
        <ele>746.4</ele>
        <time>2022-05-22T07:47:23Z</time>
      </trkpt>
      <trkpt lat="37.9478320" lon="-5.6187990">
        <ele>746.4</ele>
        <time>2022-05-22T07:47:24Z</time>
      </trkpt>
      <trkpt lat="37.9478200" lon="-5.6187790">
        <ele>746.5</ele>
        <time>2022-05-22T07:47:25Z</time>
      </trkpt>
      <trkpt lat="37.9478160" lon="-5.6187700">
        <ele>746.5</ele>
        <time>2022-05-22T07:47:26Z</time>
      </trkpt>
      <trkpt lat="37.9478110" lon="-5.6187620">
        <ele>746.5</ele>
        <time>2022-05-22T07:47:27Z</time>
      </trkpt>
      <trkpt lat="37.9477930" lon="-5.6187310">
        <ele>746.6</ele>
        <time>2022-05-22T07:47:29Z</time>
      </trkpt>
      <trkpt lat="37.9477870" lon="-5.6187220">
        <ele>746.6</ele>
        <time>2022-05-22T07:47:30Z</time>
      </trkpt>
      <trkpt lat="37.9477790" lon="-5.6187110">
        <ele>746.6</ele>
        <time>2022-05-22T07:47:31Z</time>
      </trkpt>
      <trkpt lat="37.9477690" lon="-5.6186990">
        <ele>746.6</ele>
        <time>2022-05-22T07:47:32Z</time>
      </trkpt>
      <trkpt lat="37.9477480" lon="-5.6186710">
        <ele>746.6</ele>
        <time>2022-05-22T07:47:34Z</time>
      </trkpt>
      <trkpt lat="37.9477370" lon="-5.6186490">
        <ele>746.6</ele>
        <time>2022-05-22T07:47:36Z</time>
      </trkpt>
      <trkpt lat="37.9477280" lon="-5.6186350">
        <ele>746.6</ele>
        <time>2022-05-22T07:47:37Z</time>
      </trkpt>
      <trkpt lat="37.9477190" lon="-5.6186220">
        <ele>746.6</ele>
        <time>2022-05-22T07:47:38Z</time>
      </trkpt>
      <trkpt lat="37.9477080" lon="-5.6186110">
        <ele>746.6</ele>
        <time>2022-05-22T07:47:39Z</time>
      </trkpt>
      <trkpt lat="37.9476970" lon="-5.6185990">
        <ele>746.7</ele>
        <time>2022-05-22T07:47:40Z</time>
      </trkpt>
      <trkpt lat="37.9476840" lon="-5.6185840">
        <ele>746.7</ele>
        <time>2022-05-22T07:47:41Z</time>
      </trkpt>
      <trkpt lat="37.9476750" lon="-5.6185760">
        <ele>746.7</ele>
        <time>2022-05-22T07:47:42Z</time>
      </trkpt>
      <trkpt lat="37.9476680" lon="-5.6185690">
        <ele>746.7</ele>
        <time>2022-05-22T07:47:43Z</time>
      </trkpt>
      <trkpt lat="37.9476590" lon="-5.6185600">
        <ele>746.7</ele>
        <time>2022-05-22T07:47:44Z</time>
      </trkpt>
      <trkpt lat="37.9476490" lon="-5.6185510">
        <ele>746.7</ele>
        <time>2022-05-22T07:47:45Z</time>
      </trkpt>
      <trkpt lat="37.9476370" lon="-5.6185420">
        <ele>746.7</ele>
        <time>2022-05-22T07:47:46Z</time>
      </trkpt>
      <trkpt lat="37.9476190" lon="-5.6185310">
        <ele>746.7</ele>
        <time>2022-05-22T07:47:48Z</time>
      </trkpt>
      <trkpt lat="37.9476050" lon="-5.6185200">
        <ele>746.7</ele>
        <time>2022-05-22T07:47:49Z</time>
      </trkpt>
      <trkpt lat="37.9476000" lon="-5.6185140">
        <ele>746.7</ele>
        <time>2022-05-22T07:47:50Z</time>
      </trkpt>
      <trkpt lat="37.9475940" lon="-5.6185080">
        <ele>746.8</ele>
        <time>2022-05-22T07:47:51Z</time>
      </trkpt>
      <trkpt lat="37.9475890" lon="-5.6185030">
        <ele>746.8</ele>
        <time>2022-05-22T07:47:52Z</time>
      </trkpt>
      <trkpt lat="37.9475810" lon="-5.6184890">
        <ele>746.8</ele>
        <time>2022-05-22T07:47:53Z</time>
      </trkpt>
      <trkpt lat="37.9475760" lon="-5.6184780">
        <ele>746.8</ele>
        <time>2022-05-22T07:47:54Z</time>
      </trkpt>
      <trkpt lat="37.9475710" lon="-5.6184670">
        <ele>746.8</ele>
        <time>2022-05-22T07:47:55Z</time>
      </trkpt>
      <trkpt lat="37.9475660" lon="-5.6184540">
        <ele>746.8</ele>
        <time>2022-05-22T07:47:56Z</time>
      </trkpt>
      <trkpt lat="37.9475610" lon="-5.6184410">
        <ele>746.8</ele>
        <time>2022-05-22T07:47:57Z</time>
      </trkpt>
      <trkpt lat="37.9475500" lon="-5.6184160">
        <ele>746.8</ele>
        <time>2022-05-22T07:47:59Z</time>
      </trkpt>
      <trkpt lat="37.9475460" lon="-5.6184020">
        <ele>746.9</ele>
        <time>2022-05-22T07:48:00Z</time>
      </trkpt>
      <trkpt lat="37.9475420" lon="-5.6183880">
        <ele>746.9</ele>
        <time>2022-05-22T07:48:01Z</time>
      </trkpt>
      <trkpt lat="37.9475390" lon="-5.6183750">
        <ele>746.9</ele>
        <time>2022-05-22T07:48:02Z</time>
      </trkpt>
      <trkpt lat="37.9475370" lon="-5.6183660">
        <ele>746.9</ele>
        <time>2022-05-22T07:48:03Z</time>
      </trkpt>
      <trkpt lat="37.9475300" lon="-5.6183400">
        <ele>746.9</ele>
        <time>2022-05-22T07:48:05Z</time>
      </trkpt>
      <trkpt lat="37.9475270" lon="-5.6183280">
        <ele>746.9</ele>
        <time>2022-05-22T07:48:06Z</time>
      </trkpt>
      <trkpt lat="37.9475240" lon="-5.6183120">
        <ele>746.9</ele>
        <time>2022-05-22T07:48:07Z</time>
      </trkpt>
      <trkpt lat="37.9475240" lon="-5.6182980">
        <ele>746.9</ele>
        <time>2022-05-22T07:48:08Z</time>
      </trkpt>
      <trkpt lat="37.9475190" lon="-5.6182680">
        <ele>746.9</ele>
        <time>2022-05-22T07:48:10Z</time>
      </trkpt>
      <trkpt lat="37.9475170" lon="-5.6182560">
        <ele>746.9</ele>
        <time>2022-05-22T07:48:11Z</time>
      </trkpt>
      <trkpt lat="37.9475140" lon="-5.6182410">
        <ele>746.9</ele>
        <time>2022-05-22T07:48:12Z</time>
      </trkpt>
      <trkpt lat="37.9475090" lon="-5.6182250">
        <ele>746.9</ele>
        <time>2022-05-22T07:48:13Z</time>
      </trkpt>
      <trkpt lat="37.9475020" lon="-5.6182090">
        <ele>746.9</ele>
        <time>2022-05-22T07:48:15Z</time>
      </trkpt>
      <trkpt lat="37.9474940" lon="-5.6182070">
        <ele>746.9</ele>
        <time>2022-05-22T07:48:16Z</time>
      </trkpt>
      <trkpt lat="37.9474920" lon="-5.6182120">
        <ele>746.9</ele>
        <time>2022-05-22T07:48:17Z</time>
      </trkpt>
      <trkpt lat="37.9474940" lon="-5.6182140">
        <ele>746.9</ele>
        <time>2022-05-22T07:48:18Z</time>
      </trkpt>
      <trkpt lat="37.9474950" lon="-5.6182170">
        <ele>746.9</ele>
        <time>2022-05-22T07:48:19Z</time>
      </trkpt>
      <trkpt lat="37.9474960" lon="-5.6182190">
        <ele>746.9</ele>
        <time>2022-05-22T07:48:20Z</time>
      </trkpt>
      <trkpt lat="37.9474970" lon="-5.6182210">
        <ele>746.9</ele>
        <time>2022-05-22T07:48:21Z</time>
      </trkpt>
      <trkpt lat="37.9474970" lon="-5.6182230">
        <ele>746.9</ele>
        <time>2022-05-22T07:48:22Z</time>
      </trkpt>
      <trkpt lat="37.9474970" lon="-5.6182230">
        <ele>746.9</ele>
        <time>2022-05-22T07:48:23Z</time>
      </trkpt>
      <trkpt lat="37.9474960" lon="-5.6182200">
        <ele>746.9</ele>
        <time>2022-05-22T07:48:24Z</time>
      </trkpt>
      <trkpt lat="37.9474940" lon="-5.6182140">
        <ele>746.9</ele>
        <time>2022-05-22T07:48:25Z</time>
      </trkpt>
      <trkpt lat="37.9474920" lon="-5.6182040">
        <ele>746.9</ele>
        <time>2022-05-22T07:48:26Z</time>
      </trkpt>
      <trkpt lat="37.9474890" lon="-5.6181890">
        <ele>746.9</ele>
        <time>2022-05-22T07:48:27Z</time>
      </trkpt>
      <trkpt lat="37.9474860" lon="-5.6181720">
        <ele>746.9</ele>
        <time>2022-05-22T07:48:28Z</time>
      </trkpt>
      <trkpt lat="37.9474780" lon="-5.6181430">
        <ele>746.9</ele>
        <time>2022-05-22T07:48:29Z</time>
      </trkpt>
      <trkpt lat="37.9474730" lon="-5.6181300">
        <ele>746.9</ele>
        <time>2022-05-22T07:48:31Z</time>
      </trkpt>
      <trkpt lat="37.9474680" lon="-5.6181170">
        <ele>746.9</ele>
        <time>2022-05-22T07:48:32Z</time>
      </trkpt>
      <trkpt lat="37.9474630" lon="-5.6181040">
        <ele>746.9</ele>
        <time>2022-05-22T07:48:33Z</time>
      </trkpt>
      <trkpt lat="37.9474580" lon="-5.6180910">
        <ele>746.9</ele>
        <time>2022-05-22T07:48:34Z</time>
      </trkpt>
      <trkpt lat="37.9474450" lon="-5.6180690">
        <ele>746.9</ele>
        <time>2022-05-22T07:48:35Z</time>
      </trkpt>
      <trkpt lat="37.9474400" lon="-5.6180600">
        <ele>746.9</ele>
        <time>2022-05-22T07:48:36Z</time>
      </trkpt>
      <trkpt lat="37.9474340" lon="-5.6180510">
        <ele>746.9</ele>
        <time>2022-05-22T07:48:37Z</time>
      </trkpt>
      <trkpt lat="37.9474260" lon="-5.6180370">
        <ele>746.9</ele>
        <time>2022-05-22T07:48:38Z</time>
      </trkpt>
      <trkpt lat="37.9474170" lon="-5.6180220">
        <ele>746.9</ele>
        <time>2022-05-22T07:48:39Z</time>
      </trkpt>
      <trkpt lat="37.9474100" lon="-5.6180070">
        <ele>746.9</ele>
        <time>2022-05-22T07:48:40Z</time>
      </trkpt>
      <trkpt lat="37.9474050" lon="-5.6179970">
        <ele>746.9</ele>
        <time>2022-05-22T07:48:41Z</time>
      </trkpt>
      <trkpt lat="37.9473980" lon="-5.6179840">
        <ele>746.9</ele>
        <time>2022-05-22T07:48:42Z</time>
      </trkpt>
      <trkpt lat="37.9473820" lon="-5.6179590">
        <ele>746.9</ele>
        <time>2022-05-22T07:48:43Z</time>
      </trkpt>
      <trkpt lat="37.9473760" lon="-5.6179480">
        <ele>746.9</ele>
        <time>2022-05-22T07:48:44Z</time>
      </trkpt>
      <trkpt lat="37.9473690" lon="-5.6179380">
        <ele>746.9</ele>
        <time>2022-05-22T07:48:45Z</time>
      </trkpt>
      <trkpt lat="37.9473590" lon="-5.6179250">
        <ele>746.9</ele>
        <time>2022-05-22T07:48:46Z</time>
      </trkpt>
      <trkpt lat="37.9473450" lon="-5.6179110">
        <ele>746.9</ele>
        <time>2022-05-22T07:48:47Z</time>
      </trkpt>
      <trkpt lat="37.9473320" lon="-5.6178980">
        <ele>746.9</ele>
        <time>2022-05-22T07:48:48Z</time>
      </trkpt>
      <trkpt lat="37.9473170" lon="-5.6178850">
        <ele>746.9</ele>
        <time>2022-05-22T07:48:49Z</time>
      </trkpt>
      <trkpt lat="37.9473030" lon="-5.6178730">
        <ele>746.9</ele>
        <time>2022-05-22T07:48:50Z</time>
      </trkpt>
      <trkpt lat="37.9472900" lon="-5.6178580">
        <ele>747.0</ele>
        <time>2022-05-22T07:48:51Z</time>
      </trkpt>
      <trkpt lat="37.9472700" lon="-5.6178360">
        <ele>747.1</ele>
        <time>2022-05-22T07:48:52Z</time>
      </trkpt>
      <trkpt lat="37.9472630" lon="-5.6178290">
        <ele>747.1</ele>
        <time>2022-05-22T07:48:53Z</time>
      </trkpt>
      <trkpt lat="37.9472490" lon="-5.6178180">
        <ele>747.1</ele>
        <time>2022-05-22T07:48:54Z</time>
      </trkpt>
      <trkpt lat="37.9472370" lon="-5.6178070">
        <ele>747.2</ele>
        <time>2022-05-22T07:48:55Z</time>
      </trkpt>
      <trkpt lat="37.9472250" lon="-5.6177980">
        <ele>747.3</ele>
        <time>2022-05-22T07:48:56Z</time>
      </trkpt>
      <trkpt lat="37.9472120" lon="-5.6177870">
        <ele>747.3</ele>
        <time>2022-05-22T07:48:57Z</time>
      </trkpt>
      <trkpt lat="37.9471970" lon="-5.6177770">
        <ele>747.4</ele>
        <time>2022-05-22T07:48:58Z</time>
      </trkpt>
      <trkpt lat="37.9471780" lon="-5.6177610">
        <ele>747.5</ele>
        <time>2022-05-22T07:49:00Z</time>
      </trkpt>
      <trkpt lat="37.9471680" lon="-5.6177540">
        <ele>747.6</ele>
        <time>2022-05-22T07:49:01Z</time>
      </trkpt>
      <trkpt lat="37.9471600" lon="-5.6177480">
        <ele>747.6</ele>
        <time>2022-05-22T07:49:02Z</time>
      </trkpt>
      <trkpt lat="37.9471510" lon="-5.6177410">
        <ele>747.7</ele>
        <time>2022-05-22T07:49:03Z</time>
      </trkpt>
      <trkpt lat="37.9471410" lon="-5.6177360">
        <ele>747.7</ele>
        <time>2022-05-22T07:49:04Z</time>
      </trkpt>
      <trkpt lat="37.9471310" lon="-5.6177310">
        <ele>747.8</ele>
        <time>2022-05-22T07:49:05Z</time>
      </trkpt>
      <trkpt lat="37.9471230" lon="-5.6177280">
        <ele>747.8</ele>
        <time>2022-05-22T07:49:06Z</time>
      </trkpt>
      <trkpt lat="37.9471130" lon="-5.6177250">
        <ele>747.9</ele>
        <time>2022-05-22T07:49:07Z</time>
      </trkpt>
      <trkpt lat="37.9471010" lon="-5.6177210">
        <ele>748.0</ele>
        <time>2022-05-22T07:49:08Z</time>
      </trkpt>
      <trkpt lat="37.9470910" lon="-5.6177200">
        <ele>748.0</ele>
        <time>2022-05-22T07:49:09Z</time>
      </trkpt>
      <trkpt lat="37.9470760" lon="-5.6177160">
        <ele>748.1</ele>
        <time>2022-05-22T07:49:10Z</time>
      </trkpt>
      <trkpt lat="37.9470680" lon="-5.6177140">
        <ele>748.2</ele>
        <time>2022-05-22T07:49:11Z</time>
      </trkpt>
      <trkpt lat="37.9470600" lon="-5.6177120">
        <ele>748.2</ele>
        <time>2022-05-22T07:49:12Z</time>
      </trkpt>
      <trkpt lat="37.9470520" lon="-5.6177100">
        <ele>748.3</ele>
        <time>2022-05-22T07:49:13Z</time>
      </trkpt>
      <trkpt lat="37.9470420" lon="-5.6177060">
        <ele>748.3</ele>
        <time>2022-05-22T07:49:14Z</time>
      </trkpt>
      <trkpt lat="37.9470280" lon="-5.6177050">
        <ele>748.4</ele>
        <time>2022-05-22T07:49:15Z</time>
      </trkpt>
      <trkpt lat="37.9470180" lon="-5.6177070">
        <ele>748.5</ele>
        <time>2022-05-22T07:49:16Z</time>
      </trkpt>
      <trkpt lat="37.9470060" lon="-5.6177100">
        <ele>748.6</ele>
        <time>2022-05-22T07:49:17Z</time>
      </trkpt>
      <trkpt lat="37.9469970" lon="-5.6177080">
        <ele>748.6</ele>
        <time>2022-05-22T07:49:18Z</time>
      </trkpt>
      <trkpt lat="37.9469840" lon="-5.6177040">
        <ele>748.7</ele>
        <time>2022-05-22T07:49:19Z</time>
      </trkpt>
      <trkpt lat="37.9469710" lon="-5.6177040">
        <ele>748.8</ele>
        <time>2022-05-22T07:49:21Z</time>
      </trkpt>
      <trkpt lat="37.9469620" lon="-5.6177050">
        <ele>748.9</ele>
        <time>2022-05-22T07:49:22Z</time>
      </trkpt>
      <trkpt lat="37.9469490" lon="-5.6177080">
        <ele>748.9</ele>
        <time>2022-05-22T07:49:23Z</time>
      </trkpt>
      <trkpt lat="37.9469380" lon="-5.6177110">
        <ele>749.0</ele>
        <time>2022-05-22T07:49:24Z</time>
      </trkpt>
      <trkpt lat="37.9469240" lon="-5.6177140">
        <ele>749.1</ele>
        <time>2022-05-22T07:49:25Z</time>
      </trkpt>
      <trkpt lat="37.9469090" lon="-5.6177160">
        <ele>749.2</ele>
        <time>2022-05-22T07:49:27Z</time>
      </trkpt>
      <trkpt lat="37.9468920" lon="-5.6177170">
        <ele>749.3</ele>
        <time>2022-05-22T07:49:28Z</time>
      </trkpt>
      <trkpt lat="37.9468780" lon="-5.6177160">
        <ele>749.4</ele>
        <time>2022-05-22T07:49:29Z</time>
      </trkpt>
      <trkpt lat="37.9468480" lon="-5.6177130">
        <ele>749.5</ele>
        <time>2022-05-22T07:49:31Z</time>
      </trkpt>
      <trkpt lat="37.9468400" lon="-5.6177120">
        <ele>749.6</ele>
        <time>2022-05-22T07:49:32Z</time>
      </trkpt>
      <trkpt lat="37.9468190" lon="-5.6177050">
        <ele>749.7</ele>
        <time>2022-05-22T07:49:33Z</time>
      </trkpt>
      <trkpt lat="37.9468110" lon="-5.6177000">
        <ele>749.7</ele>
        <time>2022-05-22T07:49:34Z</time>
      </trkpt>
      <trkpt lat="37.9468020" lon="-5.6176960">
        <ele>749.7</ele>
        <time>2022-05-22T07:49:35Z</time>
      </trkpt>
      <trkpt lat="37.9467860" lon="-5.6176780">
        <ele>749.8</ele>
        <time>2022-05-22T07:49:36Z</time>
      </trkpt>
      <trkpt lat="37.9467810" lon="-5.6176710">
        <ele>749.8</ele>
        <time>2022-05-22T07:49:37Z</time>
      </trkpt>
      <trkpt lat="37.9467760" lon="-5.6176640">
        <ele>749.9</ele>
        <time>2022-05-22T07:49:38Z</time>
      </trkpt>
      <trkpt lat="37.9467620" lon="-5.6176440">
        <ele>749.9</ele>
        <time>2022-05-22T07:49:39Z</time>
      </trkpt>
      <trkpt lat="37.9467550" lon="-5.6176370">
        <ele>750.0</ele>
        <time>2022-05-22T07:49:40Z</time>
      </trkpt>
      <trkpt lat="37.9467480" lon="-5.6176310">
        <ele>750.0</ele>
        <time>2022-05-22T07:49:41Z</time>
      </trkpt>
      <trkpt lat="37.9467310" lon="-5.6176000">
        <ele>750.1</ele>
        <time>2022-05-22T07:49:42Z</time>
      </trkpt>
      <trkpt lat="37.9467260" lon="-5.6175840">
        <ele>750.1</ele>
        <time>2022-05-22T07:49:43Z</time>
      </trkpt>
      <trkpt lat="37.9467200" lon="-5.6175660">
        <ele>750.2</ele>
        <time>2022-05-22T07:49:44Z</time>
      </trkpt>
      <trkpt lat="37.9467140" lon="-5.6175480">
        <ele>750.2</ele>
        <time>2022-05-22T07:49:45Z</time>
      </trkpt>
      <trkpt lat="37.9467080" lon="-5.6175260">
        <ele>750.3</ele>
        <time>2022-05-22T07:49:46Z</time>
      </trkpt>
      <trkpt lat="37.9467060" lon="-5.6175150">
        <ele>750.3</ele>
        <time>2022-05-22T07:49:47Z</time>
      </trkpt>
      <trkpt lat="37.9467030" lon="-5.6175050">
        <ele>750.3</ele>
        <time>2022-05-22T07:49:48Z</time>
      </trkpt>
      <trkpt lat="37.9467000" lon="-5.6174680">
        <ele>750.4</ele>
        <time>2022-05-22T07:49:49Z</time>
      </trkpt>
      <trkpt lat="37.9466990" lon="-5.6174510">
        <ele>750.5</ele>
        <time>2022-05-22T07:49:51Z</time>
      </trkpt>
      <trkpt lat="37.9466980" lon="-5.6174350">
        <ele>750.5</ele>
        <time>2022-05-22T07:49:52Z</time>
      </trkpt>
      <trkpt lat="37.9466970" lon="-5.6174190">
        <ele>750.5</ele>
        <time>2022-05-22T07:49:53Z</time>
      </trkpt>
      <trkpt lat="37.9467000" lon="-5.6174100">
        <ele>750.6</ele>
        <time>2022-05-22T07:49:54Z</time>
      </trkpt>
      <trkpt lat="37.9467060" lon="-5.6174050">
        <ele>750.6</ele>
        <time>2022-05-22T07:49:56Z</time>
      </trkpt>
      <trkpt lat="37.9467080" lon="-5.6174040">
        <ele>750.6</ele>
        <time>2022-05-22T07:49:58Z</time>
      </trkpt>
      <trkpt lat="37.9467110" lon="-5.6174070">
        <ele>750.6</ele>
        <time>2022-05-22T07:49:59Z</time>
      </trkpt>
      <trkpt lat="37.9467130" lon="-5.6174070">
        <ele>750.6</ele>
        <time>2022-05-22T07:50:00Z</time>
      </trkpt>
      <trkpt lat="37.9467150" lon="-5.6174040">
        <ele>750.6</ele>
        <time>2022-05-22T07:50:02Z</time>
      </trkpt>
      <trkpt lat="37.9467140" lon="-5.6174030">
        <ele>750.6</ele>
        <time>2022-05-22T07:50:03Z</time>
      </trkpt>
      <trkpt lat="37.9467140" lon="-5.6174030">
        <ele>750.6</ele>
        <time>2022-05-22T07:50:04Z</time>
      </trkpt>
      <trkpt lat="37.9467160" lon="-5.6174010">
        <ele>750.6</ele>
        <time>2022-05-22T07:50:06Z</time>
      </trkpt>
      <trkpt lat="37.9467170" lon="-5.6173860">
        <ele>750.7</ele>
        <time>2022-05-22T07:50:07Z</time>
      </trkpt>
      <trkpt lat="37.9467150" lon="-5.6173740">
        <ele>750.7</ele>
        <time>2022-05-22T07:50:08Z</time>
      </trkpt>
      <trkpt lat="37.9467010" lon="-5.6173230">
        <ele>750.8</ele>
        <time>2022-05-22T07:50:10Z</time>
      </trkpt>
      <trkpt lat="37.9466960" lon="-5.6173050">
        <ele>750.8</ele>
        <time>2022-05-22T07:50:11Z</time>
      </trkpt>
      <trkpt lat="37.9466960" lon="-5.6172870">
        <ele>750.8</ele>
        <time>2022-05-22T07:50:13Z</time>
      </trkpt>
      <trkpt lat="37.9466950" lon="-5.6172590">
        <ele>750.9</ele>
        <time>2022-05-22T07:50:14Z</time>
      </trkpt>
      <trkpt lat="37.9466950" lon="-5.6172460">
        <ele>750.9</ele>
        <time>2022-05-22T07:50:15Z</time>
      </trkpt>
      <trkpt lat="37.9466950" lon="-5.6172310">
        <ele>750.9</ele>
        <time>2022-05-22T07:50:16Z</time>
      </trkpt>
      <trkpt lat="37.9466860" lon="-5.6172170">
        <ele>750.9</ele>
        <time>2022-05-22T07:50:17Z</time>
      </trkpt>
      <trkpt lat="37.9466840" lon="-5.6172040">
        <ele>750.9</ele>
        <time>2022-05-22T07:50:18Z</time>
      </trkpt>
      <trkpt lat="37.9466820" lon="-5.6171830">
        <ele>751.0</ele>
        <time>2022-05-22T07:50:19Z</time>
      </trkpt>
      <trkpt lat="37.9466810" lon="-5.6171610">
        <ele>751.0</ele>
        <time>2022-05-22T07:50:20Z</time>
      </trkpt>
      <trkpt lat="37.9466800" lon="-5.6171420">
        <ele>751.0</ele>
        <time>2022-05-22T07:50:21Z</time>
      </trkpt>
      <trkpt lat="37.9466790" lon="-5.6171260">
        <ele>751.0</ele>
        <time>2022-05-22T07:50:22Z</time>
      </trkpt>
      <trkpt lat="37.9466790" lon="-5.6171090">
        <ele>751.0</ele>
        <time>2022-05-22T07:50:23Z</time>
      </trkpt>
      <trkpt lat="37.9466760" lon="-5.6170920">
        <ele>751.0</ele>
        <time>2022-05-22T07:50:24Z</time>
      </trkpt>
      <trkpt lat="37.9466710" lon="-5.6170620">
        <ele>751.0</ele>
        <time>2022-05-22T07:50:26Z</time>
      </trkpt>
      <trkpt lat="37.9466680" lon="-5.6170340">
        <ele>751.1</ele>
        <time>2022-05-22T07:50:27Z</time>
      </trkpt>
      <trkpt lat="37.9466660" lon="-5.6170200">
        <ele>751.1</ele>
        <time>2022-05-22T07:50:28Z</time>
      </trkpt>
      <trkpt lat="37.9466650" lon="-5.6170050">
        <ele>751.1</ele>
        <time>2022-05-22T07:50:29Z</time>
      </trkpt>
      <trkpt lat="37.9466630" lon="-5.6169820">
        <ele>751.1</ele>
        <time>2022-05-22T07:50:31Z</time>
      </trkpt>
      <trkpt lat="37.9466620" lon="-5.6169660">
        <ele>751.1</ele>
        <time>2022-05-22T07:50:32Z</time>
      </trkpt>
      <trkpt lat="37.9466590" lon="-5.6169300">
        <ele>751.1</ele>
        <time>2022-05-22T07:50:33Z</time>
      </trkpt>
      <trkpt lat="37.9466580" lon="-5.6169160">
        <ele>751.2</ele>
        <time>2022-05-22T07:50:34Z</time>
      </trkpt>
      <trkpt lat="37.9466570" lon="-5.6168990">
        <ele>751.2</ele>
        <time>2022-05-22T07:50:35Z</time>
      </trkpt>
      <trkpt lat="37.9466560" lon="-5.6168800">
        <ele>751.2</ele>
        <time>2022-05-22T07:50:36Z</time>
      </trkpt>
      <trkpt lat="37.9466600" lon="-5.6168440">
        <ele>751.2</ele>
        <time>2022-05-22T07:50:38Z</time>
      </trkpt>
      <trkpt lat="37.9466620" lon="-5.6168280">
        <ele>751.3</ele>
        <time>2022-05-22T07:50:39Z</time>
      </trkpt>
      <trkpt lat="37.9466630" lon="-5.6168110">
        <ele>751.3</ele>
        <time>2022-05-22T07:50:40Z</time>
      </trkpt>
      <trkpt lat="37.9466730" lon="-5.6167790">
        <ele>751.3</ele>
        <time>2022-05-22T07:50:42Z</time>
      </trkpt>
      <trkpt lat="37.9466740" lon="-5.6167640">
        <ele>751.4</ele>
        <time>2022-05-22T07:50:43Z</time>
      </trkpt>
      <trkpt lat="37.9466720" lon="-5.6167590">
        <ele>751.4</ele>
        <time>2022-05-22T07:50:44Z</time>
      </trkpt>
      <trkpt lat="37.9466710" lon="-5.6167570">
        <ele>751.4</ele>
        <time>2022-05-22T07:50:45Z</time>
      </trkpt>
      <trkpt lat="37.9466700" lon="-5.6167570">
        <ele>751.4</ele>
        <time>2022-05-22T07:50:46Z</time>
      </trkpt>
      <trkpt lat="37.9466690" lon="-5.6167570">
        <ele>751.4</ele>
        <time>2022-05-22T07:50:48Z</time>
      </trkpt>
      <trkpt lat="37.9466700" lon="-5.6167570">
        <ele>751.4</ele>
        <time>2022-05-22T07:50:49Z</time>
      </trkpt>
      <trkpt lat="37.9466700" lon="-5.6167570">
        <ele>751.4</ele>
        <time>2022-05-22T07:50:50Z</time>
      </trkpt>
      <trkpt lat="37.9466700" lon="-5.6167580">
        <ele>751.4</ele>
        <time>2022-05-22T07:50:51Z</time>
      </trkpt>
      <trkpt lat="37.9466720" lon="-5.6167580">
        <ele>751.4</ele>
        <time>2022-05-22T07:50:52Z</time>
      </trkpt>
      <trkpt lat="37.9466740" lon="-5.6167430">
        <ele>751.4</ele>
        <time>2022-05-22T07:50:53Z</time>
      </trkpt>
      <trkpt lat="37.9466750" lon="-5.6167330">
        <ele>751.4</ele>
        <time>2022-05-22T07:50:54Z</time>
      </trkpt>
      <trkpt lat="37.9466760" lon="-5.6167030">
        <ele>751.5</ele>
        <time>2022-05-22T07:50:56Z</time>
      </trkpt>
      <trkpt lat="37.9466790" lon="-5.6166780">
        <ele>751.5</ele>
        <time>2022-05-22T07:50:57Z</time>
      </trkpt>
      <trkpt lat="37.9466820" lon="-5.6166470">
        <ele>751.5</ele>
        <time>2022-05-22T07:50:58Z</time>
      </trkpt>
      <trkpt lat="37.9466850" lon="-5.6166220">
        <ele>751.5</ele>
        <time>2022-05-22T07:51:00Z</time>
      </trkpt>
      <trkpt lat="37.9466890" lon="-5.6166040">
        <ele>751.5</ele>
        <time>2022-05-22T07:51:01Z</time>
      </trkpt>
      <trkpt lat="37.9466930" lon="-5.6165830">
        <ele>751.5</ele>
        <time>2022-05-22T07:51:02Z</time>
      </trkpt>
      <trkpt lat="37.9467000" lon="-5.6165520">
        <ele>751.5</ele>
        <time>2022-05-22T07:51:03Z</time>
      </trkpt>
      <trkpt lat="37.9467020" lon="-5.6165380">
        <ele>751.5</ele>
        <time>2022-05-22T07:51:04Z</time>
      </trkpt>
      <trkpt lat="37.9467070" lon="-5.6165210">
        <ele>751.5</ele>
        <time>2022-05-22T07:51:05Z</time>
      </trkpt>
      <trkpt lat="37.9467120" lon="-5.6165020">
        <ele>751.5</ele>
        <time>2022-05-22T07:51:06Z</time>
      </trkpt>
      <trkpt lat="37.9467180" lon="-5.6164830">
        <ele>751.5</ele>
        <time>2022-05-22T07:51:07Z</time>
      </trkpt>
      <trkpt lat="37.9467270" lon="-5.6164630">
        <ele>751.5</ele>
        <time>2022-05-22T07:51:08Z</time>
      </trkpt>
      <trkpt lat="37.9467440" lon="-5.6164330">
        <ele>751.5</ele>
        <time>2022-05-22T07:51:10Z</time>
      </trkpt>
      <trkpt lat="37.9467530" lon="-5.6164150">
        <ele>751.5</ele>
        <time>2022-05-22T07:51:11Z</time>
      </trkpt>
      <trkpt lat="37.9467600" lon="-5.6164020">
        <ele>751.6</ele>
        <time>2022-05-22T07:51:12Z</time>
      </trkpt>
      <trkpt lat="37.9467720" lon="-5.6163830">
        <ele>751.6</ele>
        <time>2022-05-22T07:51:13Z</time>
      </trkpt>
      <trkpt lat="37.9467760" lon="-5.6163740">
        <ele>751.6</ele>
        <time>2022-05-22T07:51:14Z</time>
      </trkpt>
      <trkpt lat="37.9467800" lon="-5.6163640">
        <ele>751.6</ele>
        <time>2022-05-22T07:51:15Z</time>
      </trkpt>
      <trkpt lat="37.9467890" lon="-5.6163420">
        <ele>751.6</ele>
        <time>2022-05-22T07:51:16Z</time>
      </trkpt>
      <trkpt lat="37.9467940" lon="-5.6163310">
        <ele>751.6</ele>
        <time>2022-05-22T07:51:17Z</time>
      </trkpt>
      <trkpt lat="37.9467990" lon="-5.6163200">
        <ele>751.6</ele>
        <time>2022-05-22T07:51:18Z</time>
      </trkpt>
      <trkpt lat="37.9468110" lon="-5.6162910">
        <ele>751.6</ele>
        <time>2022-05-22T07:51:19Z</time>
      </trkpt>
      <trkpt lat="37.9468170" lon="-5.6162760">
        <ele>751.6</ele>
        <time>2022-05-22T07:51:21Z</time>
      </trkpt>
      <trkpt lat="37.9468240" lon="-5.6162600">
        <ele>751.6</ele>
        <time>2022-05-22T07:51:22Z</time>
      </trkpt>
      <trkpt lat="37.9468300" lon="-5.6162440">
        <ele>751.6</ele>
        <time>2022-05-22T07:51:23Z</time>
      </trkpt>
      <trkpt lat="37.9468400" lon="-5.6162280">
        <ele>751.6</ele>
        <time>2022-05-22T07:51:24Z</time>
      </trkpt>
      <trkpt lat="37.9468500" lon="-5.6162110">
        <ele>751.6</ele>
        <time>2022-05-22T07:51:25Z</time>
      </trkpt>
      <trkpt lat="37.9468590" lon="-5.6161960">
        <ele>751.6</ele>
        <time>2022-05-22T07:51:26Z</time>
      </trkpt>
      <trkpt lat="37.9468680" lon="-5.6161810">
        <ele>751.6</ele>
        <time>2022-05-22T07:51:27Z</time>
      </trkpt>
      <trkpt lat="37.9468770" lon="-5.6161680">
        <ele>751.6</ele>
        <time>2022-05-22T07:51:28Z</time>
      </trkpt>
      <trkpt lat="37.9468860" lon="-5.6161550">
        <ele>751.6</ele>
        <time>2022-05-22T07:51:29Z</time>
      </trkpt>
      <trkpt lat="37.9468950" lon="-5.6161440">
        <ele>751.6</ele>
        <time>2022-05-22T07:51:30Z</time>
      </trkpt>
      <trkpt lat="37.9469240" lon="-5.6161340">
        <ele>751.7</ele>
        <time>2022-05-22T07:51:32Z</time>
      </trkpt>
      <trkpt lat="37.9469380" lon="-5.6161260">
        <ele>751.7</ele>
        <time>2022-05-22T07:51:33Z</time>
      </trkpt>
      <trkpt lat="37.9469480" lon="-5.6161170">
        <ele>751.7</ele>
        <time>2022-05-22T07:51:34Z</time>
      </trkpt>
      <trkpt lat="37.9469650" lon="-5.6160970">
        <ele>751.7</ele>
        <time>2022-05-22T07:51:35Z</time>
      </trkpt>
      <trkpt lat="37.9469720" lon="-5.6160870">
        <ele>751.7</ele>
        <time>2022-05-22T07:51:37Z</time>
      </trkpt>
      <trkpt lat="37.9469790" lon="-5.6160760">
        <ele>751.7</ele>
        <time>2022-05-22T07:51:38Z</time>
      </trkpt>
      <trkpt lat="37.9469860" lon="-5.6160660">
        <ele>751.8</ele>
        <time>2022-05-22T07:51:39Z</time>
      </trkpt>
      <trkpt lat="37.9469930" lon="-5.6160560">
        <ele>751.8</ele>
        <time>2022-05-22T07:51:40Z</time>
      </trkpt>
      <trkpt lat="37.9470000" lon="-5.6160320">
        <ele>751.8</ele>
        <time>2022-05-22T07:51:41Z</time>
      </trkpt>
      <trkpt lat="37.9470020" lon="-5.6160210">
        <ele>751.8</ele>
        <time>2022-05-22T07:51:42Z</time>
      </trkpt>
      <trkpt lat="37.9470040" lon="-5.6160100">
        <ele>751.9</ele>
        <time>2022-05-22T07:51:43Z</time>
      </trkpt>
      <trkpt lat="37.9470060" lon="-5.6159780">
        <ele>751.9</ele>
        <time>2022-05-22T07:51:44Z</time>
      </trkpt>
      <trkpt lat="37.9470060" lon="-5.6159640">
        <ele>751.9</ele>
        <time>2022-05-22T07:51:45Z</time>
      </trkpt>
      <trkpt lat="37.9470060" lon="-5.6159500">
        <ele>751.9</ele>
        <time>2022-05-22T07:51:46Z</time>
      </trkpt>
      <trkpt lat="37.9470110" lon="-5.6159040">
        <ele>752.0</ele>
        <time>2022-05-22T07:51:48Z</time>
      </trkpt>
      <trkpt lat="37.9470130" lon="-5.6158930">
        <ele>752.1</ele>
        <time>2022-05-22T07:51:49Z</time>
      </trkpt>
      <trkpt lat="37.9470140" lon="-5.6158820">
        <ele>752.1</ele>
        <time>2022-05-22T07:51:50Z</time>
      </trkpt>
      <trkpt lat="37.9470160" lon="-5.6158700">
        <ele>752.1</ele>
        <time>2022-05-22T07:51:51Z</time>
      </trkpt>
      <trkpt lat="37.9470200" lon="-5.6158530">
        <ele>752.2</ele>
        <time>2022-05-22T07:51:52Z</time>
      </trkpt>
      <trkpt lat="37.9470240" lon="-5.6158320">
        <ele>752.3</ele>
        <time>2022-05-22T07:51:54Z</time>
      </trkpt>
      <trkpt lat="37.9470290" lon="-5.6158150">
        <ele>752.3</ele>
        <time>2022-05-22T07:51:55Z</time>
      </trkpt>
      <trkpt lat="37.9470350" lon="-5.6157960">
        <ele>752.4</ele>
        <time>2022-05-22T07:51:56Z</time>
      </trkpt>
      <trkpt lat="37.9470410" lon="-5.6157790">
        <ele>752.5</ele>
        <time>2022-05-22T07:51:57Z</time>
      </trkpt>
      <trkpt lat="37.9470500" lon="-5.6157550">
        <ele>752.6</ele>
        <time>2022-05-22T07:51:58Z</time>
      </trkpt>
      <trkpt lat="37.9470640" lon="-5.6157300">
        <ele>752.7</ele>
        <time>2022-05-22T07:51:59Z</time>
      </trkpt>
      <trkpt lat="37.9470690" lon="-5.6157230">
        <ele>752.7</ele>
        <time>2022-05-22T07:52:00Z</time>
      </trkpt>
      <trkpt lat="37.9470740" lon="-5.6157160">
        <ele>752.8</ele>
        <time>2022-05-22T07:52:01Z</time>
      </trkpt>
      <trkpt lat="37.9470880" lon="-5.6156940">
        <ele>752.9</ele>
        <time>2022-05-22T07:52:02Z</time>
      </trkpt>
      <trkpt lat="37.9470940" lon="-5.6156860">
        <ele>753.0</ele>
        <time>2022-05-22T07:52:03Z</time>
      </trkpt>
      <trkpt lat="37.9470990" lon="-5.6156770">
        <ele>753.1</ele>
        <time>2022-05-22T07:52:04Z</time>
      </trkpt>
      <trkpt lat="37.9471140" lon="-5.6156600">
        <ele>753.2</ele>
        <time>2022-05-22T07:52:05Z</time>
      </trkpt>
      <trkpt lat="37.9471200" lon="-5.6156530">
        <ele>753.3</ele>
        <time>2022-05-22T07:52:06Z</time>
      </trkpt>
      <trkpt lat="37.9471270" lon="-5.6156460">
        <ele>753.4</ele>
        <time>2022-05-22T07:52:07Z</time>
      </trkpt>
      <trkpt lat="37.9471370" lon="-5.6156370">
        <ele>753.5</ele>
        <time>2022-05-22T07:52:08Z</time>
      </trkpt>
      <trkpt lat="37.9471520" lon="-5.6156310">
        <ele>753.6</ele>
        <time>2022-05-22T07:52:09Z</time>
      </trkpt>
      <trkpt lat="37.9471670" lon="-5.6156170">
        <ele>753.8</ele>
        <time>2022-05-22T07:52:10Z</time>
      </trkpt>
      <trkpt lat="37.9471740" lon="-5.6156090">
        <ele>753.9</ele>
        <time>2022-05-22T07:52:11Z</time>
      </trkpt>
      <trkpt lat="37.9471800" lon="-5.6156010">
        <ele>754.0</ele>
        <time>2022-05-22T07:52:12Z</time>
      </trkpt>
      <trkpt lat="37.9471900" lon="-5.6155850">
        <ele>754.2</ele>
        <time>2022-05-22T07:52:13Z</time>
      </trkpt>
      <trkpt lat="37.9471990" lon="-5.6155680">
        <ele>754.3</ele>
        <time>2022-05-22T07:52:14Z</time>
      </trkpt>
      <trkpt lat="37.9472100" lon="-5.6155460">
        <ele>754.6</ele>
        <time>2022-05-22T07:52:15Z</time>
      </trkpt>
      <trkpt lat="37.9472150" lon="-5.6155370">
        <ele>754.7</ele>
        <time>2022-05-22T07:52:16Z</time>
      </trkpt>
      <trkpt lat="37.9472190" lon="-5.6155280">
        <ele>754.8</ele>
        <time>2022-05-22T07:52:17Z</time>
      </trkpt>
      <trkpt lat="37.9472260" lon="-5.6155140">
        <ele>755.0</ele>
        <time>2022-05-22T07:52:18Z</time>
      </trkpt>
      <trkpt lat="37.9472330" lon="-5.6155020">
        <ele>755.1</ele>
        <time>2022-05-22T07:52:19Z</time>
      </trkpt>
      <trkpt lat="37.9472360" lon="-5.6154880">
        <ele>755.3</ele>
        <time>2022-05-22T07:52:21Z</time>
      </trkpt>
      <trkpt lat="37.9472410" lon="-5.6154720">
        <ele>755.5</ele>
        <time>2022-05-22T07:52:22Z</time>
      </trkpt>
      <trkpt lat="37.9472480" lon="-5.6154550">
        <ele>755.7</ele>
        <time>2022-05-22T07:52:23Z</time>
      </trkpt>
      <trkpt lat="37.9472510" lon="-5.6154430">
        <ele>755.8</ele>
        <time>2022-05-22T07:52:24Z</time>
      </trkpt>
      <trkpt lat="37.9472540" lon="-5.6154190">
        <ele>756.1</ele>
        <time>2022-05-22T07:52:26Z</time>
      </trkpt>
      <trkpt lat="37.9472500" lon="-5.6154070">
        <ele>756.3</ele>
        <time>2022-05-22T07:52:27Z</time>
      </trkpt>
      <trkpt lat="37.9472480" lon="-5.6153970">
        <ele>756.4</ele>
        <time>2022-05-22T07:52:28Z</time>
      </trkpt>
      <trkpt lat="37.9472460" lon="-5.6153870">
        <ele>756.5</ele>
        <time>2022-05-22T07:52:29Z</time>
      </trkpt>
      <trkpt lat="37.9472450" lon="-5.6153750">
        <ele>756.7</ele>
        <time>2022-05-22T07:52:30Z</time>
      </trkpt>
      <trkpt lat="37.9472430" lon="-5.6153670">
        <ele>756.8</ele>
        <time>2022-05-22T07:52:31Z</time>
      </trkpt>
      <trkpt lat="37.9472410" lon="-5.6153560">
        <ele>756.9</ele>
        <time>2022-05-22T07:52:32Z</time>
      </trkpt>
      <trkpt lat="37.9472380" lon="-5.6153390">
        <ele>757.1</ele>
        <time>2022-05-22T07:52:33Z</time>
      </trkpt>
      <trkpt lat="37.9472380" lon="-5.6153270">
        <ele>757.3</ele>
        <time>2022-05-22T07:52:34Z</time>
      </trkpt>
      <trkpt lat="37.9472360" lon="-5.6153120">
        <ele>757.5</ele>
        <time>2022-05-22T07:52:35Z</time>
      </trkpt>
      <trkpt lat="37.9472360" lon="-5.6153000">
        <ele>757.6</ele>
        <time>2022-05-22T07:52:36Z</time>
      </trkpt>
      <trkpt lat="37.9472380" lon="-5.6152730">
        <ele>758.0</ele>
        <time>2022-05-22T07:52:38Z</time>
      </trkpt>
      <trkpt lat="37.9472400" lon="-5.6152600">
        <ele>758.2</ele>
        <time>2022-05-22T07:52:39Z</time>
      </trkpt>
      <trkpt lat="37.9472420" lon="-5.6152480">
        <ele>758.3</ele>
        <time>2022-05-22T07:52:40Z</time>
      </trkpt>
      <trkpt lat="37.9472490" lon="-5.6152270">
        <ele>758.6</ele>
        <time>2022-05-22T07:52:42Z</time>
      </trkpt>
      <trkpt lat="37.9472560" lon="-5.6152150">
        <ele>758.8</ele>
        <time>2022-05-22T07:52:43Z</time>
      </trkpt>
      <trkpt lat="37.9472660" lon="-5.6152010">
        <ele>759.1</ele>
        <time>2022-05-22T07:52:44Z</time>
      </trkpt>
      <trkpt lat="37.9472720" lon="-5.6151900">
        <ele>759.3</ele>
        <time>2022-05-22T07:52:45Z</time>
      </trkpt>
      <trkpt lat="37.9472820" lon="-5.6151770">
        <ele>759.5</ele>
        <time>2022-05-22T07:52:47Z</time>
      </trkpt>
      <trkpt lat="37.9472960" lon="-5.6151570">
        <ele>759.9</ele>
        <time>2022-05-22T07:52:48Z</time>
      </trkpt>
      <trkpt lat="37.9473030" lon="-5.6151470">
        <ele>760.1</ele>
        <time>2022-05-22T07:52:49Z</time>
      </trkpt>
      <trkpt lat="37.9473100" lon="-5.6151370">
        <ele>760.4</ele>
        <time>2022-05-22T07:52:50Z</time>
      </trkpt>
      <trkpt lat="37.9473160" lon="-5.6151320">
        <ele>760.5</ele>
        <time>2022-05-22T07:52:51Z</time>
      </trkpt>
      <trkpt lat="37.9473220" lon="-5.6151250">
        <ele>760.7</ele>
        <time>2022-05-22T07:52:52Z</time>
      </trkpt>
      <trkpt lat="37.9473280" lon="-5.6151170">
        <ele>760.8</ele>
        <time>2022-05-22T07:52:53Z</time>
      </trkpt>
      <trkpt lat="37.9473400" lon="-5.6151050">
        <ele>761.2</ele>
        <time>2022-05-22T07:52:55Z</time>
      </trkpt>
      <trkpt lat="37.9473500" lon="-5.6150930">
        <ele>761.4</ele>
        <time>2022-05-22T07:52:56Z</time>
      </trkpt>
      <trkpt lat="37.9473540" lon="-5.6150880">
        <ele>761.6</ele>
        <time>2022-05-22T07:52:57Z</time>
      </trkpt>
      <trkpt lat="37.9473600" lon="-5.6150820">
        <ele>761.7</ele>
        <time>2022-05-22T07:52:58Z</time>
      </trkpt>
      <trkpt lat="37.9473660" lon="-5.6150770">
        <ele>761.9</ele>
        <time>2022-05-22T07:52:59Z</time>
      </trkpt>
      <trkpt lat="37.9473720" lon="-5.6150710">
        <ele>762.1</ele>
        <time>2022-05-22T07:53:00Z</time>
      </trkpt>
      <trkpt lat="37.9473790" lon="-5.6150610">
        <ele>762.3</ele>
        <time>2022-05-22T07:53:02Z</time>
      </trkpt>
      <trkpt lat="37.9473880" lon="-5.6150520">
        <ele>762.6</ele>
        <time>2022-05-22T07:53:03Z</time>
      </trkpt>
      <trkpt lat="37.9473950" lon="-5.6150480">
        <ele>762.7</ele>
        <time>2022-05-22T07:53:04Z</time>
      </trkpt>
      <trkpt lat="37.9474010" lon="-5.6150450">
        <ele>762.9</ele>
        <time>2022-05-22T07:53:05Z</time>
      </trkpt>
      <trkpt lat="37.9474000" lon="-5.6150430">
        <ele>762.9</ele>
        <time>2022-05-22T07:53:06Z</time>
      </trkpt>
      <trkpt lat="37.9473980" lon="-5.6150390">
        <ele>763.0</ele>
        <time>2022-05-22T07:53:07Z</time>
      </trkpt>
      <trkpt lat="37.9474000" lon="-5.6150350">
        <ele>763.1</ele>
        <time>2022-05-22T07:53:08Z</time>
      </trkpt>
      <trkpt lat="37.9474050" lon="-5.6150270">
        <ele>763.3</ele>
        <time>2022-05-22T07:53:09Z</time>
      </trkpt>
      <trkpt lat="37.9474100" lon="-5.6150210">
        <ele>763.4</ele>
        <time>2022-05-22T07:53:10Z</time>
      </trkpt>
      <trkpt lat="37.9474160" lon="-5.6150090">
        <ele>763.7</ele>
        <time>2022-05-22T07:53:12Z</time>
      </trkpt>
      <trkpt lat="37.9474220" lon="-5.6149980">
        <ele>763.9</ele>
        <time>2022-05-22T07:53:13Z</time>
      </trkpt>
      <trkpt lat="37.9474240" lon="-5.6149960">
        <ele>764.0</ele>
        <time>2022-05-22T07:53:14Z</time>
      </trkpt>
      <trkpt lat="37.9474220" lon="-5.6149990">
        <ele>764.0</ele>
        <time>2022-05-22T07:53:15Z</time>
      </trkpt>
      <trkpt lat="37.9474190" lon="-5.6150010">
        <ele>764.1</ele>
        <time>2022-05-22T07:53:16Z</time>
      </trkpt>
      <trkpt lat="37.9474180" lon="-5.6150020">
        <ele>764.1</ele>
        <time>2022-05-22T07:53:17Z</time>
      </trkpt>
      <trkpt lat="37.9474170" lon="-5.6150020">
        <ele>764.2</ele>
        <time>2022-05-22T07:53:19Z</time>
      </trkpt>
      <trkpt lat="37.9474180" lon="-5.6150010">
        <ele>764.2</ele>
        <time>2022-05-22T07:53:20Z</time>
      </trkpt>
      <trkpt lat="37.9474190" lon="-5.6150000">
        <ele>764.2</ele>
        <time>2022-05-22T07:53:21Z</time>
      </trkpt>
      <trkpt lat="37.9474210" lon="-5.6149980">
        <ele>764.3</ele>
        <time>2022-05-22T07:53:22Z</time>
      </trkpt>
      <trkpt lat="37.9474250" lon="-5.6149950">
        <ele>764.4</ele>
        <time>2022-05-22T07:53:23Z</time>
      </trkpt>
      <trkpt lat="37.9474300" lon="-5.6149890">
        <ele>764.5</ele>
        <time>2022-05-22T07:53:24Z</time>
      </trkpt>
      <trkpt lat="37.9474340" lon="-5.6149830">
        <ele>764.7</ele>
        <time>2022-05-22T07:53:25Z</time>
      </trkpt>
      <trkpt lat="37.9474390" lon="-5.6149760">
        <ele>764.8</ele>
        <time>2022-05-22T07:53:26Z</time>
      </trkpt>
      <trkpt lat="37.9474430" lon="-5.6149680">
        <ele>765.0</ele>
        <time>2022-05-22T07:53:27Z</time>
      </trkpt>
      <trkpt lat="37.9474530" lon="-5.6149500">
        <ele>765.4</ele>
        <time>2022-05-22T07:53:29Z</time>
      </trkpt>
      <trkpt lat="37.9474640" lon="-5.6149320">
        <ele>765.8</ele>
        <time>2022-05-22T07:53:30Z</time>
      </trkpt>
      <trkpt lat="37.9474710" lon="-5.6149210">
        <ele>766.0</ele>
        <time>2022-05-22T07:53:31Z</time>
      </trkpt>
      <trkpt lat="37.9474760" lon="-5.6149120">
        <ele>766.2</ele>
        <time>2022-05-22T07:53:32Z</time>
      </trkpt>
      <trkpt lat="37.9474840" lon="-5.6148990">
        <ele>766.5</ele>
        <time>2022-05-22T07:53:33Z</time>
      </trkpt>
      <trkpt lat="37.9474900" lon="-5.6148890">
        <ele>766.7</ele>
        <time>2022-05-22T07:53:34Z</time>
      </trkpt>
      <trkpt lat="37.9474960" lon="-5.6148810">
        <ele>766.9</ele>
        <time>2022-05-22T07:53:35Z</time>
      </trkpt>
      <trkpt lat="37.9475050" lon="-5.6148700">
        <ele>767.1</ele>
        <time>2022-05-22T07:53:36Z</time>
      </trkpt>
      <trkpt lat="37.9475120" lon="-5.6148620">
        <ele>767.3</ele>
        <time>2022-05-22T07:53:37Z</time>
      </trkpt>
      <trkpt lat="37.9475170" lon="-5.6148550">
        <ele>767.5</ele>
        <time>2022-05-22T07:53:38Z</time>
      </trkpt>
      <trkpt lat="37.9475230" lon="-5.6148470">
        <ele>767.6</ele>
        <time>2022-05-22T07:53:39Z</time>
      </trkpt>
      <trkpt lat="37.9475280" lon="-5.6148390">
        <ele>767.8</ele>
        <time>2022-05-22T07:53:40Z</time>
      </trkpt>
      <trkpt lat="37.9475320" lon="-5.6148320">
        <ele>767.9</ele>
        <time>2022-05-22T07:53:41Z</time>
      </trkpt>
      <trkpt lat="37.9475380" lon="-5.6148280">
        <ele>768.0</ele>
        <time>2022-05-22T07:53:42Z</time>
      </trkpt>
      <trkpt lat="37.9475410" lon="-5.6148240">
        <ele>768.1</ele>
        <time>2022-05-22T07:53:44Z</time>
      </trkpt>
      <trkpt lat="37.9475430" lon="-5.6148200">
        <ele>768.2</ele>
        <time>2022-05-22T07:53:45Z</time>
      </trkpt>
      <trkpt lat="37.9475460" lon="-5.6148160">
        <ele>768.3</ele>
        <time>2022-05-22T07:53:46Z</time>
      </trkpt>
      <trkpt lat="37.9475490" lon="-5.6148120">
        <ele>768.4</ele>
        <time>2022-05-22T07:53:47Z</time>
      </trkpt>
      <trkpt lat="37.9475510" lon="-5.6148080">
        <ele>768.4</ele>
        <time>2022-05-22T07:53:48Z</time>
      </trkpt>
      <trkpt lat="37.9475540" lon="-5.6148040">
        <ele>768.5</ele>
        <time>2022-05-22T07:53:50Z</time>
      </trkpt>
      <trkpt lat="37.9475570" lon="-5.6148000">
        <ele>768.6</ele>
        <time>2022-05-22T07:53:51Z</time>
      </trkpt>
      <trkpt lat="37.9475600" lon="-5.6147950">
        <ele>768.7</ele>
        <time>2022-05-22T07:53:52Z</time>
      </trkpt>
      <trkpt lat="37.9475720" lon="-5.6147660">
        <ele>769.2</ele>
        <time>2022-05-22T07:53:53Z</time>
      </trkpt>
      <trkpt lat="37.9475790" lon="-5.6147490">
        <ele>769.4</ele>
        <time>2022-05-22T07:53:55Z</time>
      </trkpt>
      <trkpt lat="37.9475860" lon="-5.6147320">
        <ele>769.7</ele>
        <time>2022-05-22T07:53:56Z</time>
      </trkpt>
      <trkpt lat="37.9475930" lon="-5.6147150">
        <ele>770.0</ele>
        <time>2022-05-22T07:53:57Z</time>
      </trkpt>
      <trkpt lat="37.9475990" lon="-5.6146990">
        <ele>770.2</ele>
        <time>2022-05-22T07:53:58Z</time>
      </trkpt>
      <trkpt lat="37.9476050" lon="-5.6146800">
        <ele>770.5</ele>
        <time>2022-05-22T07:54:00Z</time>
      </trkpt>
      <trkpt lat="37.9476100" lon="-5.6146650">
        <ele>770.8</ele>
        <time>2022-05-22T07:54:01Z</time>
      </trkpt>
      <trkpt lat="37.9476150" lon="-5.6146470">
        <ele>771.0</ele>
        <time>2022-05-22T07:54:02Z</time>
      </trkpt>
      <trkpt lat="37.9476130" lon="-5.6146110">
        <ele>771.5</ele>
        <time>2022-05-22T07:54:03Z</time>
      </trkpt>
      <trkpt lat="37.9476130" lon="-5.6146050">
        <ele>771.6</ele>
        <time>2022-05-22T07:54:05Z</time>
      </trkpt>
      <trkpt lat="37.9476150" lon="-5.6145880">
        <ele>771.8</ele>
        <time>2022-05-22T07:54:06Z</time>
      </trkpt>
      <trkpt lat="37.9476140" lon="-5.6145780">
        <ele>771.9</ele>
        <time>2022-05-22T07:54:07Z</time>
      </trkpt>
      <trkpt lat="37.9476110" lon="-5.6145660">
        <ele>772.0</ele>
        <time>2022-05-22T07:54:08Z</time>
      </trkpt>
      <trkpt lat="37.9476090" lon="-5.6145540">
        <ele>771.8</ele>
        <time>2022-05-22T07:54:09Z</time>
      </trkpt>
      <trkpt lat="37.9476080" lon="-5.6145440">
        <ele>771.7</ele>
        <time>2022-05-22T07:54:10Z</time>
      </trkpt>
      <trkpt lat="37.9476090" lon="-5.6145330">
        <ele>771.6</ele>
        <time>2022-05-22T07:54:11Z</time>
      </trkpt>
      <trkpt lat="37.9476110" lon="-5.6145160">
        <ele>771.4</ele>
        <time>2022-05-22T07:54:13Z</time>
      </trkpt>
      <trkpt lat="37.9476110" lon="-5.6145030">
        <ele>771.2</ele>
        <time>2022-05-22T07:54:14Z</time>
      </trkpt>
      <trkpt lat="37.9476090" lon="-5.6144900">
        <ele>771.1</ele>
        <time>2022-05-22T07:54:15Z</time>
      </trkpt>
      <trkpt lat="37.9476080" lon="-5.6144810">
        <ele>770.9</ele>
        <time>2022-05-22T07:54:16Z</time>
      </trkpt>
      <trkpt lat="37.9476080" lon="-5.6144710">
        <ele>770.8</ele>
        <time>2022-05-22T07:54:17Z</time>
      </trkpt>
      <trkpt lat="37.9476100" lon="-5.6144610">
        <ele>770.7</ele>
        <time>2022-05-22T07:54:18Z</time>
      </trkpt>
      <trkpt lat="37.9476110" lon="-5.6144530">
        <ele>770.6</ele>
        <time>2022-05-22T07:54:19Z</time>
      </trkpt>
      <trkpt lat="37.9476160" lon="-5.6144350">
        <ele>770.3</ele>
        <time>2022-05-22T07:54:21Z</time>
      </trkpt>
      <trkpt lat="37.9476180" lon="-5.6144270">
        <ele>770.2</ele>
        <time>2022-05-22T07:54:22Z</time>
      </trkpt>
      <trkpt lat="37.9476200" lon="-5.6144190">
        <ele>770.1</ele>
        <time>2022-05-22T07:54:23Z</time>
      </trkpt>
      <trkpt lat="37.9476210" lon="-5.6144170">
        <ele>770.1</ele>
        <time>2022-05-22T07:54:24Z</time>
      </trkpt>
      <trkpt lat="37.9476220" lon="-5.6144170">
        <ele>770.1</ele>
        <time>2022-05-22T07:54:25Z</time>
      </trkpt>
      <trkpt lat="37.9476240" lon="-5.6144170">
        <ele>770.1</ele>
        <time>2022-05-22T07:54:26Z</time>
      </trkpt>
      <trkpt lat="37.9476240" lon="-5.6144320">
        <ele>769.9</ele>
        <time>2022-05-22T07:54:27Z</time>
      </trkpt>
      <trkpt lat="37.9476240" lon="-5.6144370">
        <ele>769.8</ele>
        <time>2022-05-22T07:54:28Z</time>
      </trkpt>
      <trkpt lat="37.9476240" lon="-5.6144400">
        <ele>769.8</ele>
        <time>2022-05-22T07:54:29Z</time>
      </trkpt>
      <trkpt lat="37.9476240" lon="-5.6144410">
        <ele>769.7</ele>
        <time>2022-05-22T07:54:30Z</time>
      </trkpt>
      <trkpt lat="37.9476240" lon="-5.6144420">
        <ele>769.7</ele>
        <time>2022-05-22T07:54:31Z</time>
      </trkpt>
      <trkpt lat="37.9476240" lon="-5.6144420">
        <ele>769.7</ele>
        <time>2022-05-22T07:54:32Z</time>
      </trkpt>
      <trkpt lat="37.9476240" lon="-5.6144430">
        <ele>769.7</ele>
        <time>2022-05-22T07:54:33Z</time>
      </trkpt>
      <trkpt lat="37.9476240" lon="-5.6144430">
        <ele>769.7</ele>
        <time>2022-05-22T07:54:34Z</time>
      </trkpt>
      <trkpt lat="37.9476240" lon="-5.6144430">
        <ele>769.7</ele>
        <time>2022-05-22T07:54:35Z</time>
      </trkpt>
      <trkpt lat="37.9476240" lon="-5.6144430">
        <ele>769.7</ele>
        <time>2022-05-22T07:54:36Z</time>
      </trkpt>
      <trkpt lat="37.9476240" lon="-5.6144430">
        <ele>769.7</ele>
        <time>2022-05-22T07:54:37Z</time>
      </trkpt>
      <trkpt lat="37.9476240" lon="-5.6144430">
        <ele>769.7</ele>
        <time>2022-05-22T07:54:38Z</time>
      </trkpt>
      <trkpt lat="37.9476240" lon="-5.6144430">
        <ele>769.7</ele>
        <time>2022-05-22T07:54:39Z</time>
      </trkpt>
      <trkpt lat="37.9476240" lon="-5.6144430">
        <ele>769.7</ele>
        <time>2022-05-22T07:54:40Z</time>
      </trkpt>
      <trkpt lat="37.9476240" lon="-5.6144430">
        <ele>769.7</ele>
        <time>2022-05-22T07:54:42Z</time>
      </trkpt>
      <trkpt lat="37.9476240" lon="-5.6144430">
        <ele>769.7</ele>
        <time>2022-05-22T07:54:43Z</time>
      </trkpt>
      <trkpt lat="37.9476240" lon="-5.6144430">
        <ele>769.7</ele>
        <time>2022-05-22T07:54:44Z</time>
      </trkpt>
      <trkpt lat="37.9476240" lon="-5.6144430">
        <ele>769.7</ele>
        <time>2022-05-22T07:54:45Z</time>
      </trkpt>
      <trkpt lat="37.9476240" lon="-5.6144430">
        <ele>769.7</ele>
        <time>2022-05-22T07:54:46Z</time>
      </trkpt>
      <trkpt lat="37.9476240" lon="-5.6144430">
        <ele>769.7</ele>
        <time>2022-05-22T07:54:47Z</time>
      </trkpt>
      <trkpt lat="37.9476240" lon="-5.6144430">
        <ele>769.7</ele>
        <time>2022-05-22T07:54:48Z</time>
      </trkpt>
      <trkpt lat="37.9476240" lon="-5.6144430">
        <ele>769.7</ele>
        <time>2022-05-22T07:54:49Z</time>
      </trkpt>
      <trkpt lat="37.9476260" lon="-5.6144450">
        <ele>769.7</ele>
        <time>2022-05-22T07:54:50Z</time>
      </trkpt>
      <trkpt lat="37.9476290" lon="-5.6144490">
        <ele>769.6</ele>
        <time>2022-05-22T07:54:51Z</time>
      </trkpt>
      <trkpt lat="37.9476330" lon="-5.6144580">
        <ele>769.5</ele>
        <time>2022-05-22T07:54:52Z</time>
      </trkpt>
      <trkpt lat="37.9476330" lon="-5.6144720">
        <ele>769.3</ele>
        <time>2022-05-22T07:54:53Z</time>
      </trkpt>
      <trkpt lat="37.9476320" lon="-5.6144750">
        <ele>769.2</ele>
        <time>2022-05-22T07:54:54Z</time>
      </trkpt>
      <trkpt lat="37.9476280" lon="-5.6144820">
        <ele>769.1</ele>
        <time>2022-05-22T07:54:56Z</time>
      </trkpt>
      <trkpt lat="37.9476210" lon="-5.6145080">
        <ele>768.8</ele>
        <time>2022-05-22T07:54:57Z</time>
      </trkpt>
      <trkpt lat="37.9476170" lon="-5.6145310">
        <ele>768.4</ele>
        <time>2022-05-22T07:54:58Z</time>
      </trkpt>
      <trkpt lat="37.9476150" lon="-5.6145470">
        <ele>768.2</ele>
        <time>2022-05-22T07:54:59Z</time>
      </trkpt>
      <trkpt lat="37.9476150" lon="-5.6145690">
        <ele>767.9</ele>
        <time>2022-05-22T07:55:00Z</time>
      </trkpt>
      <trkpt lat="37.9476150" lon="-5.6145810">
        <ele>767.8</ele>
        <time>2022-05-22T07:55:01Z</time>
      </trkpt>
      <trkpt lat="37.9476140" lon="-5.6145930">
        <ele>767.6</ele>
        <time>2022-05-22T07:55:03Z</time>
      </trkpt>
      <trkpt lat="37.9476140" lon="-5.6146050">
        <ele>767.4</ele>
        <time>2022-05-22T07:55:04Z</time>
      </trkpt>
      <trkpt lat="37.9476140" lon="-5.6146170">
        <ele>767.3</ele>
        <time>2022-05-22T07:55:06Z</time>
      </trkpt>
      <trkpt lat="37.9476140" lon="-5.6146290">
        <ele>767.1</ele>
        <time>2022-05-22T07:55:07Z</time>
      </trkpt>
      <trkpt lat="37.9476130" lon="-5.6146410">
        <ele>766.9</ele>
        <time>2022-05-22T07:55:08Z</time>
      </trkpt>
      <trkpt lat="37.9476080" lon="-5.6146600">
        <ele>766.6</ele>
        <time>2022-05-22T07:55:10Z</time>
      </trkpt>
      <trkpt lat="37.9476020" lon="-5.6146690">
        <ele>766.4</ele>
        <time>2022-05-22T07:55:12Z</time>
      </trkpt>
      <trkpt lat="37.9475980" lon="-5.6146790">
        <ele>766.3</ele>
        <time>2022-05-22T07:55:13Z</time>
      </trkpt>
      <trkpt lat="37.9475930" lon="-5.6146930">
        <ele>766.0</ele>
        <time>2022-05-22T07:55:14Z</time>
      </trkpt>
      <trkpt lat="37.9475840" lon="-5.6147150">
        <ele>765.7</ele>
        <time>2022-05-22T07:55:16Z</time>
      </trkpt>
      <trkpt lat="37.9475810" lon="-5.6147260">
        <ele>765.5</ele>
        <time>2022-05-22T07:55:17Z</time>
      </trkpt>
      <trkpt lat="37.9475770" lon="-5.6147390">
        <ele>765.2</ele>
        <time>2022-05-22T07:55:18Z</time>
      </trkpt>
      <trkpt lat="37.9475690" lon="-5.6147670">
        <ele>764.8</ele>
        <time>2022-05-22T07:55:20Z</time>
      </trkpt>
      <trkpt lat="37.9475660" lon="-5.6147760">
        <ele>764.6</ele>
        <time>2022-05-22T07:55:21Z</time>
      </trkpt>
      <trkpt lat="37.9475630" lon="-5.6147850">
        <ele>764.5</ele>
        <time>2022-05-22T07:55:22Z</time>
      </trkpt>
      <trkpt lat="37.9475590" lon="-5.6147990">
        <ele>764.2</ele>
        <time>2022-05-22T07:55:23Z</time>
      </trkpt>
      <trkpt lat="37.9475540" lon="-5.6148130">
        <ele>764.0</ele>
        <time>2022-05-22T07:55:24Z</time>
      </trkpt>
      <trkpt lat="37.9475490" lon="-5.6148250">
        <ele>763.8</ele>
        <time>2022-05-22T07:55:25Z</time>
      </trkpt>
      <trkpt lat="37.9475390" lon="-5.6148460">
        <ele>763.4</ele>
        <time>2022-05-22T07:55:27Z</time>
      </trkpt>
      <trkpt lat="37.9475310" lon="-5.6148560">
        <ele>763.1</ele>
        <time>2022-05-22T07:55:28Z</time>
      </trkpt>
      <trkpt lat="37.9475210" lon="-5.6148660">
        <ele>762.9</ele>
        <time>2022-05-22T07:55:29Z</time>
      </trkpt>
      <trkpt lat="37.9475160" lon="-5.6148750">
        <ele>762.7</ele>
        <time>2022-05-22T07:55:30Z</time>
      </trkpt>
      <trkpt lat="37.9475070" lon="-5.6148900">
        <ele>762.4</ele>
        <time>2022-05-22T07:55:31Z</time>
      </trkpt>
      <trkpt lat="37.9475010" lon="-5.6149030">
        <ele>762.2</ele>
        <time>2022-05-22T07:55:32Z</time>
      </trkpt>
      <trkpt lat="37.9474900" lon="-5.6149240">
        <ele>761.8</ele>
        <time>2022-05-22T07:55:34Z</time>
      </trkpt>
      <trkpt lat="37.9474850" lon="-5.6149340">
        <ele>761.6</ele>
        <time>2022-05-22T07:55:35Z</time>
      </trkpt>
      <trkpt lat="37.9474790" lon="-5.6149460">
        <ele>761.4</ele>
        <time>2022-05-22T07:55:36Z</time>
      </trkpt>
      <trkpt lat="37.9474740" lon="-5.6149550">
        <ele>761.2</ele>
        <time>2022-05-22T07:55:37Z</time>
      </trkpt>
      <trkpt lat="37.9474640" lon="-5.6149690">
        <ele>760.9</ele>
        <time>2022-05-22T07:55:38Z</time>
      </trkpt>
      <trkpt lat="37.9474600" lon="-5.6149770">
        <ele>760.8</ele>
        <time>2022-05-22T07:55:39Z</time>
      </trkpt>
      <trkpt lat="37.9474560" lon="-5.6149850">
        <ele>760.6</ele>
        <time>2022-05-22T07:55:40Z</time>
      </trkpt>
      <trkpt lat="37.9474510" lon="-5.6149920">
        <ele>760.5</ele>
        <time>2022-05-22T07:55:41Z</time>
      </trkpt>
      <trkpt lat="37.9474400" lon="-5.6150020">
        <ele>760.3</ele>
        <time>2022-05-22T07:55:42Z</time>
      </trkpt>
      <trkpt lat="37.9474330" lon="-5.6150060">
        <ele>760.1</ele>
        <time>2022-05-22T07:55:43Z</time>
      </trkpt>
      <trkpt lat="37.9474250" lon="-5.6150140">
        <ele>759.9</ele>
        <time>2022-05-22T07:55:44Z</time>
      </trkpt>
      <trkpt lat="37.9474100" lon="-5.6150310">
        <ele>759.6</ele>
        <time>2022-05-22T07:55:45Z</time>
      </trkpt>
      <trkpt lat="37.9474030" lon="-5.6150390">
        <ele>759.4</ele>
        <time>2022-05-22T07:55:46Z</time>
      </trkpt>
      <trkpt lat="37.9473960" lon="-5.6150470">
        <ele>759.3</ele>
        <time>2022-05-22T07:55:47Z</time>
      </trkpt>
      <trkpt lat="37.9473850" lon="-5.6150590">
        <ele>759.0</ele>
        <time>2022-05-22T07:55:48Z</time>
      </trkpt>
      <trkpt lat="37.9473760" lon="-5.6150650">
        <ele>758.9</ele>
        <time>2022-05-22T07:55:49Z</time>
      </trkpt>
      <trkpt lat="37.9473670" lon="-5.6150730">
        <ele>758.7</ele>
        <time>2022-05-22T07:55:50Z</time>
      </trkpt>
      <trkpt lat="37.9473600" lon="-5.6150780">
        <ele>758.6</ele>
        <time>2022-05-22T07:55:51Z</time>
      </trkpt>
      <trkpt lat="37.9473490" lon="-5.6150890">
        <ele>758.4</ele>
        <time>2022-05-22T07:55:53Z</time>
      </trkpt>
      <trkpt lat="37.9473430" lon="-5.6150970">
        <ele>758.2</ele>
        <time>2022-05-22T07:55:54Z</time>
      </trkpt>
      <trkpt lat="37.9473370" lon="-5.6151080">
        <ele>758.1</ele>
        <time>2022-05-22T07:55:55Z</time>
      </trkpt>
      <trkpt lat="37.9473330" lon="-5.6151190">
        <ele>757.9</ele>
        <time>2022-05-22T07:55:56Z</time>
      </trkpt>
      <trkpt lat="37.9473310" lon="-5.6151290">
        <ele>757.8</ele>
        <time>2022-05-22T07:55:57Z</time>
      </trkpt>
      <trkpt lat="37.9473250" lon="-5.6151430">
        <ele>757.6</ele>
        <time>2022-05-22T07:55:59Z</time>
      </trkpt>
      <trkpt lat="37.9473200" lon="-5.6151560">
        <ele>757.5</ele>
        <time>2022-05-22T07:56:00Z</time>
      </trkpt>
      <trkpt lat="37.9473150" lon="-5.6151670">
        <ele>757.3</ele>
        <time>2022-05-22T07:56:01Z</time>
      </trkpt>
      <trkpt lat="37.9473080" lon="-5.6151810">
        <ele>757.1</ele>
        <time>2022-05-22T07:56:02Z</time>
      </trkpt>
      <trkpt lat="37.9472960" lon="-5.6151970">
        <ele>756.9</ele>
        <time>2022-05-22T07:56:03Z</time>
      </trkpt>
      <trkpt lat="37.9472870" lon="-5.6152090">
        <ele>756.7</ele>
        <time>2022-05-22T07:56:04Z</time>
      </trkpt>
      <trkpt lat="37.9472760" lon="-5.6152270">
        <ele>756.4</ele>
        <time>2022-05-22T07:56:05Z</time>
      </trkpt>
      <trkpt lat="37.9472710" lon="-5.6152370">
        <ele>756.3</ele>
        <time>2022-05-22T07:56:06Z</time>
      </trkpt>
      <trkpt lat="37.9472650" lon="-5.6152480">
        <ele>756.1</ele>
        <time>2022-05-22T07:56:07Z</time>
      </trkpt>
      <trkpt lat="37.9472590" lon="-5.6152590">
        <ele>756.0</ele>
        <time>2022-05-22T07:56:08Z</time>
      </trkpt>
      <trkpt lat="37.9472550" lon="-5.6152710">
        <ele>755.8</ele>
        <time>2022-05-22T07:56:09Z</time>
      </trkpt>
      <trkpt lat="37.9472500" lon="-5.6152860">
        <ele>755.7</ele>
        <time>2022-05-22T07:56:10Z</time>
      </trkpt>
      <trkpt lat="37.9472470" lon="-5.6153010">
        <ele>755.5</ele>
        <time>2022-05-22T07:56:11Z</time>
      </trkpt>
      <trkpt lat="37.9472470" lon="-5.6153270">
        <ele>755.3</ele>
        <time>2022-05-22T07:56:12Z</time>
      </trkpt>
      <trkpt lat="37.9472490" lon="-5.6153380">
        <ele>755.2</ele>
        <time>2022-05-22T07:56:13Z</time>
      </trkpt>
      <trkpt lat="37.9472510" lon="-5.6153480">
        <ele>755.1</ele>
        <time>2022-05-22T07:56:14Z</time>
      </trkpt>
      <trkpt lat="37.9472560" lon="-5.6153740">
        <ele>754.8</ele>
        <time>2022-05-22T07:56:15Z</time>
      </trkpt>
      <trkpt lat="37.9472570" lon="-5.6153840">
        <ele>754.7</ele>
        <time>2022-05-22T07:56:16Z</time>
      </trkpt>
      <trkpt lat="37.9472580" lon="-5.6153940">
        <ele>754.6</ele>
        <time>2022-05-22T07:56:17Z</time>
      </trkpt>
      <trkpt lat="37.9472590" lon="-5.6154090">
        <ele>754.5</ele>
        <time>2022-05-22T07:56:18Z</time>
      </trkpt>
      <trkpt lat="37.9472580" lon="-5.6154300">
        <ele>754.3</ele>
        <time>2022-05-22T07:56:19Z</time>
      </trkpt>
      <trkpt lat="37.9472550" lon="-5.6154540">
        <ele>754.1</ele>
        <time>2022-05-22T07:56:21Z</time>
      </trkpt>
      <trkpt lat="37.9472530" lon="-5.6154660">
        <ele>754.0</ele>
        <time>2022-05-22T07:56:22Z</time>
      </trkpt>
      <trkpt lat="37.9472470" lon="-5.6154890">
        <ele>753.8</ele>
        <time>2022-05-22T07:56:23Z</time>
      </trkpt>
      <trkpt lat="37.9472440" lon="-5.6155000">
        <ele>753.8</ele>
        <time>2022-05-22T07:56:24Z</time>
      </trkpt>
      <trkpt lat="37.9472410" lon="-5.6155100">
        <ele>753.7</ele>
        <time>2022-05-22T07:56:25Z</time>
      </trkpt>
      <trkpt lat="37.9472350" lon="-5.6155260">
        <ele>753.6</ele>
        <time>2022-05-22T07:56:26Z</time>
      </trkpt>
      <trkpt lat="37.9472270" lon="-5.6155410">
        <ele>753.4</ele>
        <time>2022-05-22T07:56:27Z</time>
      </trkpt>
      <trkpt lat="37.9472180" lon="-5.6155570">
        <ele>753.3</ele>
        <time>2022-05-22T07:56:28Z</time>
      </trkpt>
      <trkpt lat="37.9472100" lon="-5.6155730">
        <ele>753.2</ele>
        <time>2022-05-22T07:56:29Z</time>
      </trkpt>
      <trkpt lat="37.9471980" lon="-5.6155960">
        <ele>753.1</ele>
        <time>2022-05-22T07:56:30Z</time>
      </trkpt>
      <trkpt lat="37.9471920" lon="-5.6156070">
        <ele>753.0</ele>
        <time>2022-05-22T07:56:31Z</time>
      </trkpt>
      <trkpt lat="37.9471860" lon="-5.6156170">
        <ele>752.9</ele>
        <time>2022-05-22T07:56:32Z</time>
      </trkpt>
      <trkpt lat="37.9471740" lon="-5.6156400">
        <ele>752.8</ele>
        <time>2022-05-22T07:56:33Z</time>
      </trkpt>
      <trkpt lat="37.9471690" lon="-5.6156500">
        <ele>752.7</ele>
        <time>2022-05-22T07:56:34Z</time>
      </trkpt>
      <trkpt lat="37.9471640" lon="-5.6156590">
        <ele>752.7</ele>
        <time>2022-05-22T07:56:35Z</time>
      </trkpt>
      <trkpt lat="37.9471550" lon="-5.6156740">
        <ele>752.6</ele>
        <time>2022-05-22T07:56:36Z</time>
      </trkpt>
      <trkpt lat="37.9471300" lon="-5.6156930">
        <ele>752.5</ele>
        <time>2022-05-22T07:56:38Z</time>
      </trkpt>
      <trkpt lat="37.9471170" lon="-5.6157030">
        <ele>752.4</ele>
        <time>2022-05-22T07:56:39Z</time>
      </trkpt>
      <trkpt lat="37.9471060" lon="-5.6157150">
        <ele>752.3</ele>
        <time>2022-05-22T07:56:40Z</time>
      </trkpt>
      <trkpt lat="37.9470910" lon="-5.6157320">
        <ele>752.3</ele>
        <time>2022-05-22T07:56:41Z</time>
      </trkpt>
      <trkpt lat="37.9470860" lon="-5.6157400">
        <ele>752.2</ele>
        <time>2022-05-22T07:56:42Z</time>
      </trkpt>
      <trkpt lat="37.9470800" lon="-5.6157480">
        <ele>752.2</ele>
        <time>2022-05-22T07:56:43Z</time>
      </trkpt>
      <trkpt lat="37.9470630" lon="-5.6157630">
        <ele>752.1</ele>
        <time>2022-05-22T07:56:44Z</time>
      </trkpt>
      <trkpt lat="37.9470550" lon="-5.6157660">
        <ele>752.1</ele>
        <time>2022-05-22T07:56:45Z</time>
      </trkpt>
      <trkpt lat="37.9470470" lon="-5.6157690">
        <ele>752.1</ele>
        <time>2022-05-22T07:56:46Z</time>
      </trkpt>
      <trkpt lat="37.9470370" lon="-5.6157740">
        <ele>752.1</ele>
        <time>2022-05-22T07:56:47Z</time>
      </trkpt>
      <trkpt lat="37.9470280" lon="-5.6157850">
        <ele>752.0</ele>
        <time>2022-05-22T07:56:48Z</time>
      </trkpt>
      <trkpt lat="37.9470210" lon="-5.6157990">
        <ele>752.0</ele>
        <time>2022-05-22T07:56:49Z</time>
      </trkpt>
      <trkpt lat="37.9470140" lon="-5.6158150">
        <ele>752.0</ele>
        <time>2022-05-22T07:56:50Z</time>
      </trkpt>
      <trkpt lat="37.9470060" lon="-5.6158290">
        <ele>751.9</ele>
        <time>2022-05-22T07:56:51Z</time>
      </trkpt>
      <trkpt lat="37.9469930" lon="-5.6158500">
        <ele>751.9</ele>
        <time>2022-05-22T07:56:52Z</time>
      </trkpt>
      <trkpt lat="37.9469880" lon="-5.6158600">
        <ele>751.9</ele>
        <time>2022-05-22T07:56:53Z</time>
      </trkpt>
      <trkpt lat="37.9469830" lon="-5.6158690">
        <ele>751.9</ele>
        <time>2022-05-22T07:56:54Z</time>
      </trkpt>
      <trkpt lat="37.9469790" lon="-5.6158860">
        <ele>751.8</ele>
        <time>2022-05-22T07:56:55Z</time>
      </trkpt>
      <trkpt lat="37.9469770" lon="-5.6159030">
        <ele>751.8</ele>
        <time>2022-05-22T07:56:56Z</time>
      </trkpt>
      <trkpt lat="37.9469760" lon="-5.6159300">
        <ele>751.8</ele>
        <time>2022-05-22T07:56:57Z</time>
      </trkpt>
      <trkpt lat="37.9469770" lon="-5.6159410">
        <ele>751.8</ele>
        <time>2022-05-22T07:56:58Z</time>
      </trkpt>
      <trkpt lat="37.9469780" lon="-5.6159520">
        <ele>751.8</ele>
        <time>2022-05-22T07:56:59Z</time>
      </trkpt>
      <trkpt lat="37.9469760" lon="-5.6159660">
        <ele>751.7</ele>
        <time>2022-05-22T07:57:00Z</time>
      </trkpt>
      <trkpt lat="37.9469760" lon="-5.6159820">
        <ele>751.7</ele>
        <time>2022-05-22T07:57:01Z</time>
      </trkpt>
      <trkpt lat="37.9469760" lon="-5.6159960">
        <ele>751.7</ele>
        <time>2022-05-22T07:57:02Z</time>
      </trkpt>
      <trkpt lat="37.9469700" lon="-5.6160310">
        <ele>751.7</ele>
        <time>2022-05-22T07:57:04Z</time>
      </trkpt>
      <trkpt lat="37.9469670" lon="-5.6160410">
        <ele>751.7</ele>
        <time>2022-05-22T07:57:05Z</time>
      </trkpt>
      <trkpt lat="37.9469630" lon="-5.6160570">
        <ele>751.7</ele>
        <time>2022-05-22T07:57:06Z</time>
      </trkpt>
      <trkpt lat="37.9469570" lon="-5.6160760">
        <ele>751.7</ele>
        <time>2022-05-22T07:57:07Z</time>
      </trkpt>
      <trkpt lat="37.9469500" lon="-5.6160940">
        <ele>751.6</ele>
        <time>2022-05-22T07:57:08Z</time>
      </trkpt>
      <trkpt lat="37.9469410" lon="-5.6161240">
        <ele>751.6</ele>
        <time>2022-05-22T07:57:10Z</time>
      </trkpt>
      <trkpt lat="37.9469360" lon="-5.6161390">
        <ele>751.6</ele>
        <time>2022-05-22T07:57:11Z</time>
      </trkpt>
      <trkpt lat="37.9469290" lon="-5.6161530">
        <ele>751.6</ele>
        <time>2022-05-22T07:57:12Z</time>
      </trkpt>
      <trkpt lat="37.9469240" lon="-5.6161650">
        <ele>751.6</ele>
        <time>2022-05-22T07:57:13Z</time>
      </trkpt>
      <trkpt lat="37.9469180" lon="-5.6161760">
        <ele>751.6</ele>
        <time>2022-05-22T07:57:14Z</time>
      </trkpt>
      <trkpt lat="37.9469090" lon="-5.6161860">
        <ele>751.6</ele>
        <time>2022-05-22T07:57:15Z</time>
      </trkpt>
      <trkpt lat="37.9469030" lon="-5.6161950">
        <ele>751.6</ele>
        <time>2022-05-22T07:57:16Z</time>
      </trkpt>
      <trkpt lat="37.9468950" lon="-5.6162060">
        <ele>751.6</ele>
        <time>2022-05-22T07:57:17Z</time>
      </trkpt>
      <trkpt lat="37.9468850" lon="-5.6162180">
        <ele>751.6</ele>
        <time>2022-05-22T07:57:18Z</time>
      </trkpt>
      <trkpt lat="37.9468710" lon="-5.6162370">
        <ele>751.6</ele>
        <time>2022-05-22T07:57:19Z</time>
      </trkpt>
      <trkpt lat="37.9468650" lon="-5.6162450">
        <ele>751.6</ele>
        <time>2022-05-22T07:57:20Z</time>
      </trkpt>
      <trkpt lat="37.9468590" lon="-5.6162540">
        <ele>751.6</ele>
        <time>2022-05-22T07:57:21Z</time>
      </trkpt>
      <trkpt lat="37.9468450" lon="-5.6162740">
        <ele>751.6</ele>
        <time>2022-05-22T07:57:22Z</time>
      </trkpt>
      <trkpt lat="37.9468410" lon="-5.6162820">
        <ele>751.6</ele>
        <time>2022-05-22T07:57:23Z</time>
      </trkpt>
      <trkpt lat="37.9468360" lon="-5.6162900">
        <ele>751.6</ele>
        <time>2022-05-22T07:57:24Z</time>
      </trkpt>
      <trkpt lat="37.9468260" lon="-5.6163140">
        <ele>751.6</ele>
        <time>2022-05-22T07:57:25Z</time>
      </trkpt>
      <trkpt lat="37.9468210" lon="-5.6163230">
        <ele>751.6</ele>
        <time>2022-05-22T07:57:26Z</time>
      </trkpt>
      <trkpt lat="37.9468170" lon="-5.6163330">
        <ele>751.6</ele>
        <time>2022-05-22T07:57:27Z</time>
      </trkpt>
      <trkpt lat="37.9468130" lon="-5.6163440">
        <ele>751.6</ele>
        <time>2022-05-22T07:57:28Z</time>
      </trkpt>
      <trkpt lat="37.9468080" lon="-5.6163580">
        <ele>751.6</ele>
        <time>2022-05-22T07:57:29Z</time>
      </trkpt>
      <trkpt lat="37.9468030" lon="-5.6163730">
        <ele>751.6</ele>
        <time>2022-05-22T07:57:30Z</time>
      </trkpt>
      <trkpt lat="37.9467940" lon="-5.6163980">
        <ele>751.5</ele>
        <time>2022-05-22T07:57:31Z</time>
      </trkpt>
      <trkpt lat="37.9467900" lon="-5.6164090">
        <ele>751.5</ele>
        <time>2022-05-22T07:57:32Z</time>
      </trkpt>
      <trkpt lat="37.9467870" lon="-5.6164190">
        <ele>751.5</ele>
        <time>2022-05-22T07:57:33Z</time>
      </trkpt>
      <trkpt lat="37.9467790" lon="-5.6164430">
        <ele>751.5</ele>
        <time>2022-05-22T07:57:34Z</time>
      </trkpt>
      <trkpt lat="37.9467750" lon="-5.6164530">
        <ele>751.5</ele>
        <time>2022-05-22T07:57:35Z</time>
      </trkpt>
      <trkpt lat="37.9467720" lon="-5.6164630">
        <ele>751.5</ele>
        <time>2022-05-22T07:57:36Z</time>
      </trkpt>
      <trkpt lat="37.9467640" lon="-5.6164920">
        <ele>751.5</ele>
        <time>2022-05-22T07:57:37Z</time>
      </trkpt>
      <trkpt lat="37.9467610" lon="-5.6165060">
        <ele>751.5</ele>
        <time>2022-05-22T07:57:39Z</time>
      </trkpt>
      <trkpt lat="37.9467580" lon="-5.6165200">
        <ele>751.5</ele>
        <time>2022-05-22T07:57:40Z</time>
      </trkpt>
      <trkpt lat="37.9467550" lon="-5.6165340">
        <ele>751.5</ele>
        <time>2022-05-22T07:57:41Z</time>
      </trkpt>
      <trkpt lat="37.9467520" lon="-5.6165480">
        <ele>751.5</ele>
        <time>2022-05-22T07:57:42Z</time>
      </trkpt>
      <trkpt lat="37.9467460" lon="-5.6165680">
        <ele>751.5</ele>
        <time>2022-05-22T07:57:44Z</time>
      </trkpt>
      <trkpt lat="37.9467410" lon="-5.6165850">
        <ele>751.5</ele>
        <time>2022-05-22T07:57:45Z</time>
      </trkpt>
      <trkpt lat="37.9467320" lon="-5.6166100">
        <ele>751.5</ele>
        <time>2022-05-22T07:57:46Z</time>
      </trkpt>
      <trkpt lat="37.9467280" lon="-5.6166210">
        <ele>751.5</ele>
        <time>2022-05-22T07:57:47Z</time>
      </trkpt>
      <trkpt lat="37.9467240" lon="-5.6166320">
        <ele>751.5</ele>
        <time>2022-05-22T07:57:48Z</time>
      </trkpt>
      <trkpt lat="37.9467190" lon="-5.6166500">
        <ele>751.5</ele>
        <time>2022-05-22T07:57:50Z</time>
      </trkpt>
      <trkpt lat="37.9467140" lon="-5.6166650">
        <ele>751.5</ele>
        <time>2022-05-22T07:57:51Z</time>
      </trkpt>
      <trkpt lat="37.9467090" lon="-5.6166800">
        <ele>751.5</ele>
        <time>2022-05-22T07:57:52Z</time>
      </trkpt>
      <trkpt lat="37.9467050" lon="-5.6166980">
        <ele>751.5</ele>
        <time>2022-05-22T07:57:53Z</time>
      </trkpt>
      <trkpt lat="37.9467010" lon="-5.6167140">
        <ele>751.4</ele>
        <time>2022-05-22T07:57:54Z</time>
      </trkpt>
      <trkpt lat="37.9466970" lon="-5.6167380">
        <ele>751.4</ele>
        <time>2022-05-22T07:57:55Z</time>
      </trkpt>
      <trkpt lat="37.9466940" lon="-5.6167570">
        <ele>751.4</ele>
        <time>2022-05-22T07:57:56Z</time>
      </trkpt>
      <trkpt lat="37.9466910" lon="-5.6167760">
        <ele>751.3</ele>
        <time>2022-05-22T07:57:57Z</time>
      </trkpt>
      <trkpt lat="37.9466890" lon="-5.6167890">
        <ele>751.3</ele>
        <time>2022-05-22T07:57:58Z</time>
      </trkpt>
      <trkpt lat="37.9466850" lon="-5.6168100">
        <ele>751.3</ele>
        <time>2022-05-22T07:57:59Z</time>
      </trkpt>
      <trkpt lat="37.9466820" lon="-5.6168250">
        <ele>751.3</ele>
        <time>2022-05-22T07:58:00Z</time>
      </trkpt>
      <trkpt lat="37.9466800" lon="-5.6168400">
        <ele>751.2</ele>
        <time>2022-05-22T07:58:01Z</time>
      </trkpt>
      <trkpt lat="37.9466770" lon="-5.6168550">
        <ele>751.2</ele>
        <time>2022-05-22T07:58:02Z</time>
      </trkpt>
      <trkpt lat="37.9466740" lon="-5.6168810">
        <ele>751.2</ele>
        <time>2022-05-22T07:58:03Z</time>
      </trkpt>
      <trkpt lat="37.9466730" lon="-5.6168920">
        <ele>751.2</ele>
        <time>2022-05-22T07:58:04Z</time>
      </trkpt>
      <trkpt lat="37.9466730" lon="-5.6169030">
        <ele>751.2</ele>
        <time>2022-05-22T07:58:05Z</time>
      </trkpt>
      <trkpt lat="37.9466730" lon="-5.6169300">
        <ele>751.1</ele>
        <time>2022-05-22T07:58:06Z</time>
      </trkpt>
      <trkpt lat="37.9466730" lon="-5.6169410">
        <ele>751.1</ele>
        <time>2022-05-22T07:58:07Z</time>
      </trkpt>
      <trkpt lat="37.9466730" lon="-5.6169520">
        <ele>751.1</ele>
        <time>2022-05-22T07:58:08Z</time>
      </trkpt>
      <trkpt lat="37.9466740" lon="-5.6169800">
        <ele>751.1</ele>
        <time>2022-05-22T07:58:09Z</time>
      </trkpt>
      <trkpt lat="37.9466740" lon="-5.6169900">
        <ele>751.1</ele>
        <time>2022-05-22T07:58:10Z</time>
      </trkpt>
      <trkpt lat="37.9466740" lon="-5.6170010">
        <ele>751.1</ele>
        <time>2022-05-22T07:58:11Z</time>
      </trkpt>
      <trkpt lat="37.9466760" lon="-5.6170280">
        <ele>751.0</ele>
        <time>2022-05-22T07:58:12Z</time>
      </trkpt>
      <trkpt lat="37.9466770" lon="-5.6170390">
        <ele>751.0</ele>
        <time>2022-05-22T07:58:13Z</time>
      </trkpt>
      <trkpt lat="37.9466780" lon="-5.6170500">
        <ele>751.0</ele>
        <time>2022-05-22T07:58:14Z</time>
      </trkpt>
      <trkpt lat="37.9466770" lon="-5.6170760">
        <ele>751.0</ele>
        <time>2022-05-22T07:58:15Z</time>
      </trkpt>
      <trkpt lat="37.9466760" lon="-5.6170860">
        <ele>751.0</ele>
        <time>2022-05-22T07:58:16Z</time>
      </trkpt>
      <trkpt lat="37.9466750" lon="-5.6170960">
        <ele>751.0</ele>
        <time>2022-05-22T07:58:17Z</time>
      </trkpt>
      <trkpt lat="37.9466750" lon="-5.6171140">
        <ele>751.0</ele>
        <time>2022-05-22T07:58:18Z</time>
      </trkpt>
      <trkpt lat="37.9466730" lon="-5.6171420">
        <ele>751.0</ele>
        <time>2022-05-22T07:58:20Z</time>
      </trkpt>
      <trkpt lat="37.9466710" lon="-5.6171590">
        <ele>750.9</ele>
        <time>2022-05-22T07:58:21Z</time>
      </trkpt>
      <trkpt lat="37.9466700" lon="-5.6171790">
        <ele>750.9</ele>
        <time>2022-05-22T07:58:22Z</time>
      </trkpt>
      <trkpt lat="37.9466730" lon="-5.6172080">
        <ele>750.9</ele>
        <time>2022-05-22T07:58:23Z</time>
      </trkpt>
      <trkpt lat="37.9466750" lon="-5.6172220">
        <ele>750.9</ele>
        <time>2022-05-22T07:58:25Z</time>
      </trkpt>
      <trkpt lat="37.9466770" lon="-5.6172350">
        <ele>750.8</ele>
        <time>2022-05-22T07:58:26Z</time>
      </trkpt>
      <trkpt lat="37.9466790" lon="-5.6172480">
        <ele>750.8</ele>
        <time>2022-05-22T07:58:27Z</time>
      </trkpt>
      <trkpt lat="37.9466810" lon="-5.6172610">
        <ele>750.8</ele>
        <time>2022-05-22T07:58:28Z</time>
      </trkpt>
      <trkpt lat="37.9466890" lon="-5.6172910">
        <ele>750.7</ele>
        <time>2022-05-22T07:58:29Z</time>
      </trkpt>
      <trkpt lat="37.9466910" lon="-5.6173060">
        <ele>750.7</ele>
        <time>2022-05-22T07:58:31Z</time>
      </trkpt>
      <trkpt lat="37.9466930" lon="-5.6173210">
        <ele>750.7</ele>
        <time>2022-05-22T07:58:32Z</time>
      </trkpt>
      <trkpt lat="37.9466950" lon="-5.6173360">
        <ele>750.6</ele>
        <time>2022-05-22T07:58:33Z</time>
      </trkpt>
      <trkpt lat="37.9466970" lon="-5.6173510">
        <ele>750.6</ele>
        <time>2022-05-22T07:58:34Z</time>
      </trkpt>
      <trkpt lat="37.9466960" lon="-5.6173680">
        <ele>750.6</ele>
        <time>2022-05-22T07:58:35Z</time>
      </trkpt>
      <trkpt lat="37.9466980" lon="-5.6173860">
        <ele>750.5</ele>
        <time>2022-05-22T07:58:36Z</time>
      </trkpt>
      <trkpt lat="37.9466980" lon="-5.6174050">
        <ele>750.5</ele>
        <time>2022-05-22T07:58:37Z</time>
      </trkpt>
      <trkpt lat="37.9466980" lon="-5.6174230">
        <ele>750.4</ele>
        <time>2022-05-22T07:58:38Z</time>
      </trkpt>
      <trkpt lat="37.9467000" lon="-5.6174390">
        <ele>750.4</ele>
        <time>2022-05-22T07:58:39Z</time>
      </trkpt>
      <trkpt lat="37.9467020" lon="-5.6174580">
        <ele>750.3</ele>
        <time>2022-05-22T07:58:40Z</time>
      </trkpt>
      <trkpt lat="37.9467050" lon="-5.6174790">
        <ele>750.3</ele>
        <time>2022-05-22T07:58:41Z</time>
      </trkpt>
      <trkpt lat="37.9467080" lon="-5.6174970">
        <ele>750.2</ele>
        <time>2022-05-22T07:58:42Z</time>
      </trkpt>
      <trkpt lat="37.9467100" lon="-5.6175450">
        <ele>750.1</ele>
        <time>2022-05-22T07:58:44Z</time>
      </trkpt>
      <trkpt lat="37.9467100" lon="-5.6175570">
        <ele>750.1</ele>
        <time>2022-05-22T07:58:45Z</time>
      </trkpt>
      <trkpt lat="37.9467110" lon="-5.6175700">
        <ele>750.0</ele>
        <time>2022-05-22T07:58:46Z</time>
      </trkpt>
      <trkpt lat="37.9467110" lon="-5.6175830">
        <ele>750.0</ele>
        <time>2022-05-22T07:58:47Z</time>
      </trkpt>
      <trkpt lat="37.9467120" lon="-5.6176000">
        <ele>749.9</ele>
        <time>2022-05-22T07:58:48Z</time>
      </trkpt>
      <trkpt lat="37.9467150" lon="-5.6176160">
        <ele>749.9</ele>
        <time>2022-05-22T07:58:49Z</time>
      </trkpt>
      <trkpt lat="37.9467190" lon="-5.6176400">
        <ele>749.8</ele>
        <time>2022-05-22T07:58:51Z</time>
      </trkpt>
      <trkpt lat="37.9467280" lon="-5.6176630">
        <ele>749.7</ele>
        <time>2022-05-22T07:58:52Z</time>
      </trkpt>
      <trkpt lat="37.9467330" lon="-5.6176710">
        <ele>749.7</ele>
        <time>2022-05-22T07:58:53Z</time>
      </trkpt>
      <trkpt lat="37.9467380" lon="-5.6176790">
        <ele>749.7</ele>
        <time>2022-05-22T07:58:54Z</time>
      </trkpt>
      <trkpt lat="37.9467490" lon="-5.6176930">
        <ele>749.6</ele>
        <time>2022-05-22T07:58:55Z</time>
      </trkpt>
      <trkpt lat="37.9467590" lon="-5.6177010">
        <ele>749.5</ele>
        <time>2022-05-22T07:58:56Z</time>
      </trkpt>
      <trkpt lat="37.9467780" lon="-5.6177100">
        <ele>749.4</ele>
        <time>2022-05-22T07:58:57Z</time>
      </trkpt>
      <trkpt lat="37.9467870" lon="-5.6177140">
        <ele>749.4</ele>
        <time>2022-05-22T07:58:58Z</time>
      </trkpt>
      <trkpt lat="37.9467950" lon="-5.6177180">
        <ele>749.3</ele>
        <time>2022-05-22T07:58:59Z</time>
      </trkpt>
      <trkpt lat="37.9468230" lon="-5.6177180">
        <ele>749.1</ele>
        <time>2022-05-22T07:59:00Z</time>
      </trkpt>
      <trkpt lat="37.9468340" lon="-5.6177160">
        <ele>749.0</ele>
        <time>2022-05-22T07:59:01Z</time>
      </trkpt>
      <trkpt lat="37.9468490" lon="-5.6177110">
        <ele>748.9</ele>
        <time>2022-05-22T07:59:02Z</time>
      </trkpt>
      <trkpt lat="37.9468660" lon="-5.6177020">
        <ele>748.8</ele>
        <time>2022-05-22T07:59:03Z</time>
      </trkpt>
      <trkpt lat="37.9468850" lon="-5.6176980">
        <ele>748.7</ele>
        <time>2022-05-22T07:59:04Z</time>
      </trkpt>
      <trkpt lat="37.9468930" lon="-5.6176960">
        <ele>748.6</ele>
        <time>2022-05-22T07:59:05Z</time>
      </trkpt>
      <trkpt lat="37.9469020" lon="-5.6176940">
        <ele>748.5</ele>
        <time>2022-05-22T07:59:06Z</time>
      </trkpt>
      <trkpt lat="37.9469150" lon="-5.6176900">
        <ele>748.4</ele>
        <time>2022-05-22T07:59:07Z</time>
      </trkpt>
      <trkpt lat="37.9469300" lon="-5.6176850">
        <ele>748.3</ele>
        <time>2022-05-22T07:59:08Z</time>
      </trkpt>
      <trkpt lat="37.9469480" lon="-5.6176790">
        <ele>748.2</ele>
        <time>2022-05-22T07:59:09Z</time>
      </trkpt>
      <trkpt lat="37.9469650" lon="-5.6176750">
        <ele>748.1</ele>
        <time>2022-05-22T07:59:10Z</time>
      </trkpt>
      <trkpt lat="37.9469840" lon="-5.6176730">
        <ele>748.0</ele>
        <time>2022-05-22T07:59:11Z</time>
      </trkpt>
      <trkpt lat="37.9470000" lon="-5.6176700">
        <ele>747.8</ele>
        <time>2022-05-22T07:59:12Z</time>
      </trkpt>
      <trkpt lat="37.9470280" lon="-5.6176640">
        <ele>747.7</ele>
        <time>2022-05-22T07:59:13Z</time>
      </trkpt>
      <trkpt lat="37.9470370" lon="-5.6176630">
        <ele>747.6</ele>
        <time>2022-05-22T07:59:14Z</time>
      </trkpt>
      <trkpt lat="37.9470540" lon="-5.6176600">
        <ele>747.5</ele>
        <time>2022-05-22T07:59:15Z</time>
      </trkpt>
      <trkpt lat="37.9470700" lon="-5.6176590">
        <ele>747.4</ele>
        <time>2022-05-22T07:59:16Z</time>
      </trkpt>
      <trkpt lat="37.9471040" lon="-5.6176670">
        <ele>747.3</ele>
        <time>2022-05-22T07:59:18Z</time>
      </trkpt>
      <trkpt lat="37.9471170" lon="-5.6176730">
        <ele>747.2</ele>
        <time>2022-05-22T07:59:19Z</time>
      </trkpt>
      <trkpt lat="37.9471290" lon="-5.6176790">
        <ele>747.1</ele>
        <time>2022-05-22T07:59:20Z</time>
      </trkpt>
      <trkpt lat="37.9471430" lon="-5.6176850">
        <ele>747.1</ele>
        <time>2022-05-22T07:59:21Z</time>
      </trkpt>
      <trkpt lat="37.9471570" lon="-5.6176930">
        <ele>747.0</ele>
        <time>2022-05-22T07:59:22Z</time>
      </trkpt>
      <trkpt lat="37.9471700" lon="-5.6176990">
        <ele>747.0</ele>
        <time>2022-05-22T07:59:23Z</time>
      </trkpt>
      <trkpt lat="37.9471830" lon="-5.6177050">
        <ele>747.0</ele>
        <time>2022-05-22T07:59:24Z</time>
      </trkpt>
      <trkpt lat="37.9471920" lon="-5.6177120">
        <ele>746.9</ele>
        <time>2022-05-22T07:59:25Z</time>
      </trkpt>
      <trkpt lat="37.9471850" lon="-5.6177290">
        <ele>746.9</ele>
        <time>2022-05-22T07:59:26Z</time>
      </trkpt>
      <trkpt lat="37.9471920" lon="-5.6177350">
        <ele>746.9</ele>
        <time>2022-05-22T07:59:27Z</time>
      </trkpt>
      <trkpt lat="37.9472000" lon="-5.6177420">
        <ele>746.9</ele>
        <time>2022-05-22T07:59:28Z</time>
      </trkpt>
      <trkpt lat="37.9472170" lon="-5.6177550">
        <ele>746.9</ele>
        <time>2022-05-22T07:59:29Z</time>
      </trkpt>
      <trkpt lat="37.9472240" lon="-5.6177610">
        <ele>746.9</ele>
        <time>2022-05-22T07:59:30Z</time>
      </trkpt>
      <trkpt lat="37.9472310" lon="-5.6177670">
        <ele>746.9</ele>
        <time>2022-05-22T07:59:31Z</time>
      </trkpt>
      <trkpt lat="37.9472440" lon="-5.6177760">
        <ele>746.9</ele>
        <time>2022-05-22T07:59:32Z</time>
      </trkpt>
      <trkpt lat="37.9472490" lon="-5.6177800">
        <ele>746.9</ele>
        <time>2022-05-22T07:59:33Z</time>
      </trkpt>
      <trkpt lat="37.9472570" lon="-5.6177820">
        <ele>746.9</ele>
        <time>2022-05-22T07:59:34Z</time>
      </trkpt>
      <trkpt lat="37.9472620" lon="-5.6177840">
        <ele>746.9</ele>
        <time>2022-05-22T07:59:35Z</time>
      </trkpt>
      <trkpt lat="37.9472620" lon="-5.6177850">
        <ele>746.9</ele>
        <time>2022-05-22T07:59:36Z</time>
      </trkpt>
      <trkpt lat="37.9472640" lon="-5.6177850">
        <ele>746.9</ele>
        <time>2022-05-22T07:59:37Z</time>
      </trkpt>
      <trkpt lat="37.9472660" lon="-5.6177840">
        <ele>746.9</ele>
        <time>2022-05-22T07:59:38Z</time>
      </trkpt>
      <trkpt lat="37.9472670" lon="-5.6177830">
        <ele>746.9</ele>
        <time>2022-05-22T07:59:39Z</time>
      </trkpt>
      <trkpt lat="37.9472670" lon="-5.6177840">
        <ele>746.9</ele>
        <time>2022-05-22T07:59:40Z</time>
      </trkpt>
      <trkpt lat="37.9472680" lon="-5.6177850">
        <ele>746.9</ele>
        <time>2022-05-22T07:59:41Z</time>
      </trkpt>
      <trkpt lat="37.9472680" lon="-5.6177850">
        <ele>746.9</ele>
        <time>2022-05-22T07:59:42Z</time>
      </trkpt>
      <trkpt lat="37.9472680" lon="-5.6177850">
        <ele>746.9</ele>
        <time>2022-05-22T07:59:43Z</time>
      </trkpt>
      <trkpt lat="37.9472690" lon="-5.6177850">
        <ele>746.9</ele>
        <time>2022-05-22T07:59:44Z</time>
      </trkpt>
      <trkpt lat="37.9472700" lon="-5.6177850">
        <ele>746.9</ele>
        <time>2022-05-22T07:59:45Z</time>
      </trkpt>
      <trkpt lat="37.9472710" lon="-5.6177840">
        <ele>746.9</ele>
        <time>2022-05-22T07:59:46Z</time>
      </trkpt>
      <trkpt lat="37.9472750" lon="-5.6177860">
        <ele>746.9</ele>
        <time>2022-05-22T07:59:47Z</time>
      </trkpt>
      <trkpt lat="37.9472810" lon="-5.6177940">
        <ele>746.9</ele>
        <time>2022-05-22T07:59:48Z</time>
      </trkpt>
      <trkpt lat="37.9472870" lon="-5.6178020">
        <ele>746.9</ele>
        <time>2022-05-22T07:59:49Z</time>
      </trkpt>
      <trkpt lat="37.9473090" lon="-5.6178310">
        <ele>746.9</ele>
        <time>2022-05-22T07:59:50Z</time>
      </trkpt>
      <trkpt lat="37.9473130" lon="-5.6178350">
        <ele>746.9</ele>
        <time>2022-05-22T07:59:51Z</time>
      </trkpt>
      <trkpt lat="37.9473290" lon="-5.6178510">
        <ele>746.9</ele>
        <time>2022-05-22T07:59:52Z</time>
      </trkpt>
      <trkpt lat="37.9473360" lon="-5.6178570">
        <ele>746.9</ele>
        <time>2022-05-22T07:59:53Z</time>
      </trkpt>
      <trkpt lat="37.9473430" lon="-5.6178640">
        <ele>746.9</ele>
        <time>2022-05-22T07:59:54Z</time>
      </trkpt>
      <trkpt lat="37.9473660" lon="-5.6178950">
        <ele>746.9</ele>
        <time>2022-05-22T07:59:56Z</time>
      </trkpt>
      <trkpt lat="37.9473700" lon="-5.6179010">
        <ele>746.9</ele>
        <time>2022-05-22T07:59:57Z</time>
      </trkpt>
      <trkpt lat="37.9473780" lon="-5.6179130">
        <ele>746.9</ele>
        <time>2022-05-22T07:59:58Z</time>
      </trkpt>
      <trkpt lat="37.9473940" lon="-5.6179400">
        <ele>746.9</ele>
        <time>2022-05-22T08:00:00Z</time>
      </trkpt>
      <trkpt lat="37.9474010" lon="-5.6179540">
        <ele>746.9</ele>
        <time>2022-05-22T08:00:01Z</time>
      </trkpt>
      <trkpt lat="37.9474090" lon="-5.6179690">
        <ele>746.9</ele>
        <time>2022-05-22T08:00:02Z</time>
      </trkpt>
      <trkpt lat="37.9474160" lon="-5.6179810">
        <ele>746.9</ele>
        <time>2022-05-22T08:00:03Z</time>
      </trkpt>
      <trkpt lat="37.9474330" lon="-5.6180050">
        <ele>746.9</ele>
        <time>2022-05-22T08:00:05Z</time>
      </trkpt>
      <trkpt lat="37.9474430" lon="-5.6180160">
        <ele>746.9</ele>
        <time>2022-05-22T08:00:06Z</time>
      </trkpt>
      <trkpt lat="37.9474540" lon="-5.6180380">
        <ele>746.9</ele>
        <time>2022-05-22T08:00:07Z</time>
      </trkpt>
      <trkpt lat="37.9474650" lon="-5.6180600">
        <ele>746.9</ele>
        <time>2022-05-22T08:00:08Z</time>
      </trkpt>
      <trkpt lat="37.9474700" lon="-5.6180670">
        <ele>746.9</ele>
        <time>2022-05-22T08:00:09Z</time>
      </trkpt>
      <trkpt lat="37.9474760" lon="-5.6180750">
        <ele>746.9</ele>
        <time>2022-05-22T08:00:10Z</time>
      </trkpt>
      <trkpt lat="37.9474850" lon="-5.6180910">
        <ele>746.9</ele>
        <time>2022-05-22T08:00:11Z</time>
      </trkpt>
      <trkpt lat="37.9474920" lon="-5.6181050">
        <ele>746.9</ele>
        <time>2022-05-22T08:00:12Z</time>
      </trkpt>
      <trkpt lat="37.9474990" lon="-5.6181220">
        <ele>746.9</ele>
        <time>2022-05-22T08:00:13Z</time>
      </trkpt>
      <trkpt lat="37.9475070" lon="-5.6181390">
        <ele>746.8</ele>
        <time>2022-05-22T08:00:14Z</time>
      </trkpt>
      <trkpt lat="37.9475140" lon="-5.6181540">
        <ele>746.8</ele>
        <time>2022-05-22T08:00:15Z</time>
      </trkpt>
      <trkpt lat="37.9475320" lon="-5.6181880">
        <ele>746.8</ele>
        <time>2022-05-22T08:00:17Z</time>
      </trkpt>
      <trkpt lat="37.9475400" lon="-5.6182050">
        <ele>746.8</ele>
        <time>2022-05-22T08:00:18Z</time>
      </trkpt>
      <trkpt lat="37.9475440" lon="-5.6182190">
        <ele>746.8</ele>
        <time>2022-05-22T08:00:19Z</time>
      </trkpt>
      <trkpt lat="37.9475490" lon="-5.6182410">
        <ele>746.7</ele>
        <time>2022-05-22T08:00:20Z</time>
      </trkpt>
      <trkpt lat="37.9475520" lon="-5.6182600">
        <ele>746.7</ele>
        <time>2022-05-22T08:00:21Z</time>
      </trkpt>
      <trkpt lat="37.9475550" lon="-5.6182800">
        <ele>746.7</ele>
        <time>2022-05-22T08:00:22Z</time>
      </trkpt>
      <trkpt lat="37.9475590" lon="-5.6182950">
        <ele>746.7</ele>
        <time>2022-05-22T08:00:23Z</time>
      </trkpt>
      <trkpt lat="37.9475620" lon="-5.6183130">
        <ele>746.7</ele>
        <time>2022-05-22T08:00:24Z</time>
      </trkpt>
      <trkpt lat="37.9475670" lon="-5.6183440">
        <ele>746.7</ele>
        <time>2022-05-22T08:00:26Z</time>
      </trkpt>
      <trkpt lat="37.9475730" lon="-5.6183700">
        <ele>746.7</ele>
        <time>2022-05-22T08:00:27Z</time>
      </trkpt>
      <trkpt lat="37.9475760" lon="-5.6183800">
        <ele>746.6</ele>
        <time>2022-05-22T08:00:28Z</time>
      </trkpt>
      <trkpt lat="37.9475790" lon="-5.6183900">
        <ele>746.6</ele>
        <time>2022-05-22T08:00:29Z</time>
      </trkpt>
      <trkpt lat="37.9475870" lon="-5.6184150">
        <ele>746.6</ele>
        <time>2022-05-22T08:00:30Z</time>
      </trkpt>
      <trkpt lat="37.9475920" lon="-5.6184270">
        <ele>746.6</ele>
        <time>2022-05-22T08:00:31Z</time>
      </trkpt>
      <trkpt lat="37.9475970" lon="-5.6184400">
        <ele>746.6</ele>
        <time>2022-05-22T08:00:32Z</time>
      </trkpt>
      <trkpt lat="37.9476070" lon="-5.6184540">
        <ele>746.6</ele>
        <time>2022-05-22T08:00:33Z</time>
      </trkpt>
      <trkpt lat="37.9476200" lon="-5.6184680">
        <ele>746.6</ele>
        <time>2022-05-22T08:00:34Z</time>
      </trkpt>
      <trkpt lat="37.9476310" lon="-5.6184830">
        <ele>746.6</ele>
        <time>2022-05-22T08:00:35Z</time>
      </trkpt>
      <trkpt lat="37.9476420" lon="-5.6184970">
        <ele>746.6</ele>
        <time>2022-05-22T08:00:36Z</time>
      </trkpt>
      <trkpt lat="37.9476580" lon="-5.6185100">
        <ele>746.5</ele>
        <time>2022-05-22T08:00:37Z</time>
      </trkpt>
      <trkpt lat="37.9476720" lon="-5.6185360">
        <ele>746.5</ele>
        <time>2022-05-22T08:00:39Z</time>
      </trkpt>
      <trkpt lat="37.9476820" lon="-5.6185610">
        <ele>746.4</ele>
        <time>2022-05-22T08:00:40Z</time>
      </trkpt>
      <trkpt lat="37.9476850" lon="-5.6185690">
        <ele>746.4</ele>
        <time>2022-05-22T08:00:41Z</time>
      </trkpt>
      <trkpt lat="37.9476890" lon="-5.6185780">
        <ele>746.4</ele>
        <time>2022-05-22T08:00:42Z</time>
      </trkpt>
      <trkpt lat="37.9476980" lon="-5.6185940">
        <ele>746.3</ele>
        <time>2022-05-22T08:00:43Z</time>
      </trkpt>
      <trkpt lat="37.9477070" lon="-5.6186080">
        <ele>746.3</ele>
        <time>2022-05-22T08:00:44Z</time>
      </trkpt>
      <trkpt lat="37.9477210" lon="-5.6186240">
        <ele>746.2</ele>
        <time>2022-05-22T08:00:45Z</time>
      </trkpt>
      <trkpt lat="37.9477300" lon="-5.6186330">
        <ele>746.2</ele>
        <time>2022-05-22T08:00:46Z</time>
      </trkpt>
      <trkpt lat="37.9477410" lon="-5.6186430">
        <ele>746.1</ele>
        <time>2022-05-22T08:00:47Z</time>
      </trkpt>
      <trkpt lat="37.9477550" lon="-5.6186600">
        <ele>746.0</ele>
        <time>2022-05-22T08:00:48Z</time>
      </trkpt>
      <trkpt lat="37.9477640" lon="-5.6186690">
        <ele>746.0</ele>
        <time>2022-05-22T08:00:49Z</time>
      </trkpt>
      <trkpt lat="37.9477730" lon="-5.6186780">
        <ele>745.9</ele>
        <time>2022-05-22T08:00:50Z</time>
      </trkpt>
      <trkpt lat="37.9477820" lon="-5.6186850">
        <ele>745.8</ele>
        <time>2022-05-22T08:00:51Z</time>
      </trkpt>
      <trkpt lat="37.9477890" lon="-5.6186910">
        <ele>745.8</ele>
        <time>2022-05-22T08:00:52Z</time>
      </trkpt>
      <trkpt lat="37.9478030" lon="-5.6187110">
        <ele>745.7</ele>
        <time>2022-05-22T08:00:54Z</time>
      </trkpt>
      <trkpt lat="37.9478080" lon="-5.6187200">
        <ele>745.6</ele>
        <time>2022-05-22T08:00:55Z</time>
      </trkpt>
      <trkpt lat="37.9478180" lon="-5.6187330">
        <ele>745.5</ele>
        <time>2022-05-22T08:00:56Z</time>
      </trkpt>
      <trkpt lat="37.9478230" lon="-5.6187390">
        <ele>745.5</ele>
        <time>2022-05-22T08:00:57Z</time>
      </trkpt>
      <trkpt lat="37.9478320" lon="-5.6187520">
        <ele>745.4</ele>
        <time>2022-05-22T08:00:59Z</time>
      </trkpt>
      <trkpt lat="37.9478380" lon="-5.6187630">
        <ele>745.3</ele>
        <time>2022-05-22T08:01:00Z</time>
      </trkpt>
      <trkpt lat="37.9478430" lon="-5.6187730">
        <ele>745.3</ele>
        <time>2022-05-22T08:01:01Z</time>
      </trkpt>
      <trkpt lat="37.9478490" lon="-5.6187870">
        <ele>745.2</ele>
        <time>2022-05-22T08:01:02Z</time>
      </trkpt>
      <trkpt lat="37.9478540" lon="-5.6187990">
        <ele>745.1</ele>
        <time>2022-05-22T08:01:03Z</time>
      </trkpt>
      <trkpt lat="37.9478610" lon="-5.6188120">
        <ele>745.1</ele>
        <time>2022-05-22T08:01:04Z</time>
      </trkpt>
      <trkpt lat="37.9478740" lon="-5.6188370">
        <ele>744.9</ele>
        <time>2022-05-22T08:01:05Z</time>
      </trkpt>
      <trkpt lat="37.9478770" lon="-5.6188460">
        <ele>744.9</ele>
        <time>2022-05-22T08:01:06Z</time>
      </trkpt>
      <trkpt lat="37.9478800" lon="-5.6188550">
        <ele>744.8</ele>
        <time>2022-05-22T08:01:07Z</time>
      </trkpt>
      <trkpt lat="37.9478820" lon="-5.6188770">
        <ele>744.7</ele>
        <time>2022-05-22T08:01:09Z</time>
      </trkpt>
      <trkpt lat="37.9478850" lon="-5.6188940">
        <ele>744.6</ele>
        <time>2022-05-22T08:01:10Z</time>
      </trkpt>
      <trkpt lat="37.9478880" lon="-5.6189140">
        <ele>744.6</ele>
        <time>2022-05-22T08:01:11Z</time>
      </trkpt>
      <trkpt lat="37.9478910" lon="-5.6189320">
        <ele>744.5</ele>
        <time>2022-05-22T08:01:12Z</time>
      </trkpt>
      <trkpt lat="37.9478960" lon="-5.6189590">
        <ele>744.4</ele>
        <time>2022-05-22T08:01:13Z</time>
      </trkpt>
      <trkpt lat="37.9478980" lon="-5.6189700">
        <ele>744.3</ele>
        <time>2022-05-22T08:01:14Z</time>
      </trkpt>
      <trkpt lat="37.9479000" lon="-5.6189810">
        <ele>744.3</ele>
        <time>2022-05-22T08:01:15Z</time>
      </trkpt>
      <trkpt lat="37.9479010" lon="-5.6190000">
        <ele>744.2</ele>
        <time>2022-05-22T08:01:16Z</time>
      </trkpt>
      <trkpt lat="37.9479030" lon="-5.6190200">
        <ele>744.1</ele>
        <time>2022-05-22T08:01:17Z</time>
      </trkpt>
      <trkpt lat="37.9479050" lon="-5.6190340">
        <ele>744.0</ele>
        <time>2022-05-22T08:01:18Z</time>
      </trkpt>
      <trkpt lat="37.9479060" lon="-5.6190480">
        <ele>744.0</ele>
        <time>2022-05-22T08:01:19Z</time>
      </trkpt>
      <trkpt lat="37.9479050" lon="-5.6190620">
        <ele>743.9</ele>
        <time>2022-05-22T08:01:20Z</time>
      </trkpt>
      <trkpt lat="37.9479040" lon="-5.6190810">
        <ele>743.8</ele>
        <time>2022-05-22T08:01:21Z</time>
      </trkpt>
      <trkpt lat="37.9479050" lon="-5.6191010">
        <ele>743.7</ele>
        <time>2022-05-22T08:01:22Z</time>
      </trkpt>
      <trkpt lat="37.9479070" lon="-5.6191180">
        <ele>743.6</ele>
        <time>2022-05-22T08:01:23Z</time>
      </trkpt>
      <trkpt lat="37.9479090" lon="-5.6191380">
        <ele>743.5</ele>
        <time>2022-05-22T08:01:24Z</time>
      </trkpt>
      <trkpt lat="37.9479120" lon="-5.6191540">
        <ele>743.4</ele>
        <time>2022-05-22T08:01:25Z</time>
      </trkpt>
      <trkpt lat="37.9479150" lon="-5.6191730">
        <ele>743.3</ele>
        <time>2022-05-22T08:01:26Z</time>
      </trkpt>
      <trkpt lat="37.9479240" lon="-5.6191980">
        <ele>743.1</ele>
        <time>2022-05-22T08:01:27Z</time>
      </trkpt>
      <trkpt lat="37.9479280" lon="-5.6192110">
        <ele>743.0</ele>
        <time>2022-05-22T08:01:28Z</time>
      </trkpt>
      <trkpt lat="37.9479310" lon="-5.6192240">
        <ele>742.9</ele>
        <time>2022-05-22T08:01:29Z</time>
      </trkpt>
      <trkpt lat="37.9479380" lon="-5.6192500">
        <ele>742.7</ele>
        <time>2022-05-22T08:01:30Z</time>
      </trkpt>
      <trkpt lat="37.9479400" lon="-5.6192590">
        <ele>742.6</ele>
        <time>2022-05-22T08:01:31Z</time>
      </trkpt>
      <trkpt lat="37.9479420" lon="-5.6192680">
        <ele>742.5</ele>
        <time>2022-05-22T08:01:32Z</time>
      </trkpt>
      <trkpt lat="37.9479460" lon="-5.6192980">
        <ele>742.3</ele>
        <time>2022-05-22T08:01:33Z</time>
      </trkpt>
      <trkpt lat="37.9479460" lon="-5.6193120">
        <ele>742.1</ele>
        <time>2022-05-22T08:01:35Z</time>
      </trkpt>
      <trkpt lat="37.9479470" lon="-5.6193260">
        <ele>742.0</ele>
        <time>2022-05-22T08:01:36Z</time>
      </trkpt>
      <trkpt lat="37.9479470" lon="-5.6193400">
        <ele>741.9</ele>
        <time>2022-05-22T08:01:37Z</time>
      </trkpt>
      <trkpt lat="37.9479480" lon="-5.6193540">
        <ele>741.8</ele>
        <time>2022-05-22T08:01:38Z</time>
      </trkpt>
      <trkpt lat="37.9479480" lon="-5.6193810">
        <ele>741.5</ele>
        <time>2022-05-22T08:01:39Z</time>
      </trkpt>
      <trkpt lat="37.9479470" lon="-5.6193960">
        <ele>741.4</ele>
        <time>2022-05-22T08:01:40Z</time>
      </trkpt>
      <trkpt lat="37.9479470" lon="-5.6194140">
        <ele>741.2</ele>
        <time>2022-05-22T08:01:41Z</time>
      </trkpt>
      <trkpt lat="37.9479490" lon="-5.6194380">
        <ele>740.9</ele>
        <time>2022-05-22T08:01:42Z</time>
      </trkpt>
      <trkpt lat="37.9479530" lon="-5.6194650">
        <ele>740.6</ele>
        <time>2022-05-22T08:01:43Z</time>
      </trkpt>
      <trkpt lat="37.9479560" lon="-5.6194740">
        <ele>740.5</ele>
        <time>2022-05-22T08:01:44Z</time>
      </trkpt>
      <trkpt lat="37.9479590" lon="-5.6194830">
        <ele>740.4</ele>
        <time>2022-05-22T08:01:45Z</time>
      </trkpt>
      <trkpt lat="37.9479700" lon="-5.6195070">
        <ele>740.1</ele>
        <time>2022-05-22T08:01:46Z</time>
      </trkpt>
      <trkpt lat="37.9479750" lon="-5.6195170">
        <ele>740.0</ele>
        <time>2022-05-22T08:01:47Z</time>
      </trkpt>
      <trkpt lat="37.9479790" lon="-5.6195270">
        <ele>739.8</ele>
        <time>2022-05-22T08:01:48Z</time>
      </trkpt>
      <trkpt lat="37.9479870" lon="-5.6195410">
        <ele>739.6</ele>
        <time>2022-05-22T08:01:49Z</time>
      </trkpt>
      <trkpt lat="37.9479940" lon="-5.6195560">
        <ele>739.4</ele>
        <time>2022-05-22T08:01:50Z</time>
      </trkpt>
      <trkpt lat="37.9480000" lon="-5.6195720">
        <ele>739.2</ele>
        <time>2022-05-22T08:01:51Z</time>
      </trkpt>
      <trkpt lat="37.9480070" lon="-5.6195890">
        <ele>738.9</ele>
        <time>2022-05-22T08:01:52Z</time>
      </trkpt>
      <trkpt lat="37.9480120" lon="-5.6196070">
        <ele>738.7</ele>
        <time>2022-05-22T08:01:53Z</time>
      </trkpt>
      <trkpt lat="37.9480180" lon="-5.6196240">
        <ele>738.4</ele>
        <time>2022-05-22T08:01:54Z</time>
      </trkpt>
      <trkpt lat="37.9480270" lon="-5.6196480">
        <ele>738.0</ele>
        <time>2022-05-22T08:01:55Z</time>
      </trkpt>
      <trkpt lat="37.9480300" lon="-5.6196570">
        <ele>737.9</ele>
        <time>2022-05-22T08:01:56Z</time>
      </trkpt>
      <trkpt lat="37.9480340" lon="-5.6196660">
        <ele>737.8</ele>
        <time>2022-05-22T08:01:57Z</time>
      </trkpt>
      <trkpt lat="37.9480420" lon="-5.6196910">
        <ele>737.4</ele>
        <time>2022-05-22T08:01:58Z</time>
      </trkpt>
      <trkpt lat="37.9480460" lon="-5.6197020">
        <ele>737.2</ele>
        <time>2022-05-22T08:01:59Z</time>
      </trkpt>
      <trkpt lat="37.9480510" lon="-5.6197140">
        <ele>737.0</ele>
        <time>2022-05-22T08:02:00Z</time>
      </trkpt>
      <trkpt lat="37.9480610" lon="-5.6197390">
        <ele>736.7</ele>
        <time>2022-05-22T08:02:01Z</time>
      </trkpt>
      <trkpt lat="37.9480660" lon="-5.6197480">
        <ele>736.5</ele>
        <time>2022-05-22T08:02:02Z</time>
      </trkpt>
      <trkpt lat="37.9480700" lon="-5.6197580">
        <ele>736.4</ele>
        <time>2022-05-22T08:02:03Z</time>
      </trkpt>
      <trkpt lat="37.9480780" lon="-5.6197730">
        <ele>736.1</ele>
        <time>2022-05-22T08:02:04Z</time>
      </trkpt>
      <trkpt lat="37.9480850" lon="-5.6197900">
        <ele>735.9</ele>
        <time>2022-05-22T08:02:05Z</time>
      </trkpt>
      <trkpt lat="37.9480960" lon="-5.6198150">
        <ele>735.5</ele>
        <time>2022-05-22T08:02:06Z</time>
      </trkpt>
      <trkpt lat="37.9481000" lon="-5.6198260">
        <ele>735.4</ele>
        <time>2022-05-22T08:02:07Z</time>
      </trkpt>
      <trkpt lat="37.9481050" lon="-5.6198360">
        <ele>735.2</ele>
        <time>2022-05-22T08:02:08Z</time>
      </trkpt>
      <trkpt lat="37.9481110" lon="-5.6198490">
        <ele>735.0</ele>
        <time>2022-05-22T08:02:09Z</time>
      </trkpt>
      <trkpt lat="37.9481150" lon="-5.6198630">
        <ele>734.8</ele>
        <time>2022-05-22T08:02:10Z</time>
      </trkpt>
      <trkpt lat="37.9481140" lon="-5.6198800">
        <ele>734.6</ele>
        <time>2022-05-22T08:02:11Z</time>
      </trkpt>
      <trkpt lat="37.9481190" lon="-5.6199040">
        <ele>734.3</ele>
        <time>2022-05-22T08:02:12Z</time>
      </trkpt>
      <trkpt lat="37.9481220" lon="-5.6199160">
        <ele>734.1</ele>
        <time>2022-05-22T08:02:13Z</time>
      </trkpt>
      <trkpt lat="37.9481260" lon="-5.6199270">
        <ele>733.9</ele>
        <time>2022-05-22T08:02:14Z</time>
      </trkpt>
      <trkpt lat="37.9481340" lon="-5.6199510">
        <ele>733.6</ele>
        <time>2022-05-22T08:02:15Z</time>
      </trkpt>
      <trkpt lat="37.9481370" lon="-5.6199620">
        <ele>733.4</ele>
        <time>2022-05-22T08:02:16Z</time>
      </trkpt>
      <trkpt lat="37.9481400" lon="-5.6199730">
        <ele>733.3</ele>
        <time>2022-05-22T08:02:17Z</time>
      </trkpt>
      <trkpt lat="37.9481430" lon="-5.6199900">
        <ele>733.1</ele>
        <time>2022-05-22T08:02:18Z</time>
      </trkpt>
      <trkpt lat="37.9481470" lon="-5.6200150">
        <ele>732.8</ele>
        <time>2022-05-22T08:02:19Z</time>
      </trkpt>
      <trkpt lat="37.9481540" lon="-5.6200300">
        <ele>732.6</ele>
        <time>2022-05-22T08:02:20Z</time>
      </trkpt>
      <trkpt lat="37.9481610" lon="-5.6200450">
        <ele>732.3</ele>
        <time>2022-05-22T08:02:21Z</time>
      </trkpt>
      <trkpt lat="37.9481690" lon="-5.6200600">
        <ele>732.1</ele>
        <time>2022-05-22T08:02:22Z</time>
      </trkpt>
      <trkpt lat="37.9481760" lon="-5.6200790">
        <ele>731.9</ele>
        <time>2022-05-22T08:02:23Z</time>
      </trkpt>
      <trkpt lat="37.9481830" lon="-5.6200990">
        <ele>731.6</ele>
        <time>2022-05-22T08:02:24Z</time>
      </trkpt>
      <trkpt lat="37.9481880" lon="-5.6201180">
        <ele>731.4</ele>
        <time>2022-05-22T08:02:25Z</time>
      </trkpt>
      <trkpt lat="37.9481990" lon="-5.6201400">
        <ele>731.1</ele>
        <time>2022-05-22T08:02:26Z</time>
      </trkpt>
      <trkpt lat="37.9482040" lon="-5.6201490">
        <ele>731.0</ele>
        <time>2022-05-22T08:02:27Z</time>
      </trkpt>
      <trkpt lat="37.9482090" lon="-5.6201570">
        <ele>730.9</ele>
        <time>2022-05-22T08:02:28Z</time>
      </trkpt>
      <trkpt lat="37.9482190" lon="-5.6201810">
        <ele>730.6</ele>
        <time>2022-05-22T08:02:29Z</time>
      </trkpt>
      <trkpt lat="37.9482220" lon="-5.6201890">
        <ele>730.5</ele>
        <time>2022-05-22T08:02:30Z</time>
      </trkpt>
      <trkpt lat="37.9482260" lon="-5.6201980">
        <ele>730.4</ele>
        <time>2022-05-22T08:02:31Z</time>
      </trkpt>
      <trkpt lat="37.9482290" lon="-5.6202150">
        <ele>730.3</ele>
        <time>2022-05-22T08:02:32Z</time>
      </trkpt>
      <trkpt lat="37.9482330" lon="-5.6202380">
        <ele>730.0</ele>
        <time>2022-05-22T08:02:33Z</time>
      </trkpt>
      <trkpt lat="37.9482370" lon="-5.6202650">
        <ele>729.8</ele>
        <time>2022-05-22T08:02:34Z</time>
      </trkpt>
      <trkpt lat="37.9482390" lon="-5.6202760">
        <ele>729.7</ele>
        <time>2022-05-22T08:02:35Z</time>
      </trkpt>
      <trkpt lat="37.9482420" lon="-5.6202870">
        <ele>729.6</ele>
        <time>2022-05-22T08:02:36Z</time>
      </trkpt>
      <trkpt lat="37.9482480" lon="-5.6203040">
        <ele>729.4</ele>
        <time>2022-05-22T08:02:37Z</time>
      </trkpt>
      <trkpt lat="37.9482530" lon="-5.6203190">
        <ele>729.3</ele>
        <time>2022-05-22T08:02:38Z</time>
      </trkpt>
      <trkpt lat="37.9482610" lon="-5.6203460">
        <ele>729.0</ele>
        <time>2022-05-22T08:02:39Z</time>
      </trkpt>
      <trkpt lat="37.9482650" lon="-5.6203560">
        <ele>728.9</ele>
        <time>2022-05-22T08:02:40Z</time>
      </trkpt>
      <trkpt lat="37.9482680" lon="-5.6203670">
        <ele>728.8</ele>
        <time>2022-05-22T08:02:41Z</time>
      </trkpt>
      <trkpt lat="37.9482710" lon="-5.6203760">
        <ele>728.7</ele>
        <time>2022-05-22T08:02:42Z</time>
      </trkpt>
      <trkpt lat="37.9482720" lon="-5.6203870">
        <ele>728.6</ele>
        <time>2022-05-22T08:02:43Z</time>
      </trkpt>
      <trkpt lat="37.9482720" lon="-5.6204010">
        <ele>728.5</ele>
        <time>2022-05-22T08:02:44Z</time>
      </trkpt>
      <trkpt lat="37.9482730" lon="-5.6204170">
        <ele>728.3</ele>
        <time>2022-05-22T08:02:45Z</time>
      </trkpt>
      <trkpt lat="37.9482740" lon="-5.6204330">
        <ele>728.2</ele>
        <time>2022-05-22T08:02:46Z</time>
      </trkpt>
      <trkpt lat="37.9482740" lon="-5.6204460">
        <ele>728.0</ele>
        <time>2022-05-22T08:02:47Z</time>
      </trkpt>
      <trkpt lat="37.9482750" lon="-5.6204560">
        <ele>727.9</ele>
        <time>2022-05-22T08:02:48Z</time>
      </trkpt>
      <trkpt lat="37.9482740" lon="-5.6204450">
        <ele>727.8</ele>
        <time>2022-05-22T08:02:49Z</time>
      </trkpt>
      <trkpt lat="37.9482750" lon="-5.6204560">
        <ele>727.7</ele>
        <time>2022-05-22T08:02:50Z</time>
      </trkpt>
      <trkpt lat="37.9482760" lon="-5.6204680">
        <ele>727.6</ele>
        <time>2022-05-22T08:02:51Z</time>
      </trkpt>
      <trkpt lat="37.9482770" lon="-5.6204810">
        <ele>727.5</ele>
        <time>2022-05-22T08:02:52Z</time>
      </trkpt>
      <trkpt lat="37.9482780" lon="-5.6204950">
        <ele>727.3</ele>
        <time>2022-05-22T08:02:53Z</time>
      </trkpt>
      <trkpt lat="37.9482790" lon="-5.6205080">
        <ele>727.2</ele>
        <time>2022-05-22T08:02:54Z</time>
      </trkpt>
      <trkpt lat="37.9482800" lon="-5.6205200">
        <ele>727.0</ele>
        <time>2022-05-22T08:02:55Z</time>
      </trkpt>
      <trkpt lat="37.9482810" lon="-5.6205370">
        <ele>726.9</ele>
        <time>2022-05-22T08:02:57Z</time>
      </trkpt>
      <trkpt lat="37.9482800" lon="-5.6205470">
        <ele>726.7</ele>
        <time>2022-05-22T08:02:58Z</time>
      </trkpt>
      <trkpt lat="37.9482770" lon="-5.6205600">
        <ele>726.6</ele>
        <time>2022-05-22T08:02:59Z</time>
      </trkpt>
      <trkpt lat="37.9482710" lon="-5.6206000">
        <ele>726.1</ele>
        <time>2022-05-22T08:03:00Z</time>
      </trkpt>
      <trkpt lat="37.9482700" lon="-5.6206090">
        <ele>726.0</ele>
        <time>2022-05-22T08:03:01Z</time>
      </trkpt>
      <trkpt lat="37.9482710" lon="-5.6206270">
        <ele>725.8</ele>
        <time>2022-05-22T08:03:02Z</time>
      </trkpt>
      <trkpt lat="37.9482710" lon="-5.6206450">
        <ele>725.6</ele>
        <time>2022-05-22T08:03:03Z</time>
      </trkpt>
      <trkpt lat="37.9482720" lon="-5.6206670">
        <ele>725.3</ele>
        <time>2022-05-22T08:03:04Z</time>
      </trkpt>
      <trkpt lat="37.9482740" lon="-5.6206850">
        <ele>725.1</ele>
        <time>2022-05-22T08:03:05Z</time>
      </trkpt>
      <trkpt lat="37.9482760" lon="-5.6207020">
        <ele>724.9</ele>
        <time>2022-05-22T08:03:06Z</time>
      </trkpt>
      <trkpt lat="37.9482760" lon="-5.6207200">
        <ele>724.6</ele>
        <time>2022-05-22T08:03:07Z</time>
      </trkpt>
      <trkpt lat="37.9482750" lon="-5.6207460">
        <ele>724.3</ele>
        <time>2022-05-22T08:03:08Z</time>
      </trkpt>
      <trkpt lat="37.9482770" lon="-5.6207570">
        <ele>724.2</ele>
        <time>2022-05-22T08:03:09Z</time>
      </trkpt>
      <trkpt lat="37.9482780" lon="-5.6207680">
        <ele>724.0</ele>
        <time>2022-05-22T08:03:10Z</time>
      </trkpt>
      <trkpt lat="37.9482820" lon="-5.6207850">
        <ele>723.8</ele>
        <time>2022-05-22T08:03:11Z</time>
      </trkpt>
      <trkpt lat="37.9482850" lon="-5.6207990">
        <ele>723.6</ele>
        <time>2022-05-22T08:03:12Z</time>
      </trkpt>
      <trkpt lat="37.9482890" lon="-5.6208260">
        <ele>723.2</ele>
        <time>2022-05-22T08:03:14Z</time>
      </trkpt>
      <trkpt lat="37.9482900" lon="-5.6208510">
        <ele>722.9</ele>
        <time>2022-05-22T08:03:15Z</time>
      </trkpt>
      <trkpt lat="37.9482900" lon="-5.6208660">
        <ele>722.7</ele>
        <time>2022-05-22T08:03:16Z</time>
      </trkpt>
      <trkpt lat="37.9482870" lon="-5.6208780">
        <ele>722.5</ele>
        <time>2022-05-22T08:03:17Z</time>
      </trkpt>
      <trkpt lat="37.9482820" lon="-5.6208910">
        <ele>722.3</ele>
        <time>2022-05-22T08:03:18Z</time>
      </trkpt>
      <trkpt lat="37.9482790" lon="-5.6209050">
        <ele>722.1</ele>
        <time>2022-05-22T08:03:19Z</time>
      </trkpt>
      <trkpt lat="37.9482750" lon="-5.6209150">
        <ele>721.9</ele>
        <time>2022-05-22T08:03:20Z</time>
      </trkpt>
      <trkpt lat="37.9482720" lon="-5.6209290">
        <ele>721.7</ele>
        <time>2022-05-22T08:03:21Z</time>
      </trkpt>
      <trkpt lat="37.9482700" lon="-5.6209410">
        <ele>721.6</ele>
        <time>2022-05-22T08:03:22Z</time>
      </trkpt>
      <trkpt lat="37.9482680" lon="-5.6209510">
        <ele>721.4</ele>
        <time>2022-05-22T08:03:23Z</time>
      </trkpt>
      <trkpt lat="37.9482670" lon="-5.6209660">
        <ele>721.2</ele>
        <time>2022-05-22T08:03:24Z</time>
      </trkpt>
      <trkpt lat="37.9482660" lon="-5.6209840">
        <ele>720.9</ele>
        <time>2022-05-22T08:03:25Z</time>
      </trkpt>
      <trkpt lat="37.9482670" lon="-5.6210020">
        <ele>720.7</ele>
        <time>2022-05-22T08:03:26Z</time>
      </trkpt>
      <trkpt lat="37.9482690" lon="-5.6210230">
        <ele>720.4</ele>
        <time>2022-05-22T08:03:27Z</time>
      </trkpt>
      <trkpt lat="37.9482710" lon="-5.6210370">
        <ele>720.3</ele>
        <time>2022-05-22T08:03:28Z</time>
      </trkpt>
      <trkpt lat="37.9482730" lon="-5.6210510">
        <ele>720.1</ele>
        <time>2022-05-22T08:03:29Z</time>
      </trkpt>
      <trkpt lat="37.9482770" lon="-5.6210670">
        <ele>719.8</ele>
        <time>2022-05-22T08:03:30Z</time>
      </trkpt>
      <trkpt lat="37.9482840" lon="-5.6210920">
        <ele>719.5</ele>
        <time>2022-05-22T08:03:31Z</time>
      </trkpt>
      <trkpt lat="37.9482860" lon="-5.6211020">
        <ele>719.3</ele>
        <time>2022-05-22T08:03:32Z</time>
      </trkpt>
      <trkpt lat="37.9482880" lon="-5.6211110">
        <ele>719.2</ele>
        <time>2022-05-22T08:03:33Z</time>
      </trkpt>
      <trkpt lat="37.9482930" lon="-5.6211220">
        <ele>719.0</ele>
        <time>2022-05-22T08:03:34Z</time>
      </trkpt>
      <trkpt lat="37.9482970" lon="-5.6211370">
        <ele>718.8</ele>
        <time>2022-05-22T08:03:35Z</time>
      </trkpt>
      <trkpt lat="37.9483000" lon="-5.6211520">
        <ele>718.6</ele>
        <time>2022-05-22T08:03:36Z</time>
      </trkpt>
      <trkpt lat="37.9483020" lon="-5.6211640">
        <ele>718.4</ele>
        <time>2022-05-22T08:03:37Z</time>
      </trkpt>
      <trkpt lat="37.9483050" lon="-5.6211760">
        <ele>718.2</ele>
        <time>2022-05-22T08:03:38Z</time>
      </trkpt>
      <trkpt lat="37.9483130" lon="-5.6211940">
        <ele>717.9</ele>
        <time>2022-05-22T08:03:39Z</time>
      </trkpt>
      <trkpt lat="37.9483210" lon="-5.6212050">
        <ele>717.7</ele>
        <time>2022-05-22T08:03:40Z</time>
      </trkpt>
      <trkpt lat="37.9483260" lon="-5.6212170">
        <ele>717.5</ele>
        <time>2022-05-22T08:03:41Z</time>
      </trkpt>
      <trkpt lat="37.9483340" lon="-5.6212270">
        <ele>717.3</ele>
        <time>2022-05-22T08:03:42Z</time>
      </trkpt>
      <trkpt lat="37.9483470" lon="-5.6212380">
        <ele>717.1</ele>
        <time>2022-05-22T08:03:43Z</time>
      </trkpt>
      <trkpt lat="37.9483590" lon="-5.6212490">
        <ele>716.8</ele>
        <time>2022-05-22T08:03:44Z</time>
      </trkpt>
      <trkpt lat="37.9483730" lon="-5.6212610">
        <ele>716.6</ele>
        <time>2022-05-22T08:03:45Z</time>
      </trkpt>
      <trkpt lat="37.9483900" lon="-5.6212700">
        <ele>716.2</ele>
        <time>2022-05-22T08:03:46Z</time>
      </trkpt>
      <trkpt lat="37.9484080" lon="-5.6212720">
        <ele>715.9</ele>
        <time>2022-05-22T08:03:47Z</time>
      </trkpt>
      <trkpt lat="37.9484270" lon="-5.6212800">
        <ele>715.6</ele>
        <time>2022-05-22T08:03:49Z</time>
      </trkpt>
      <trkpt lat="37.9484470" lon="-5.6212950">
        <ele>715.3</ele>
        <time>2022-05-22T08:03:50Z</time>
      </trkpt>
      <trkpt lat="37.9484570" lon="-5.6213030">
        <ele>715.1</ele>
        <time>2022-05-22T08:03:51Z</time>
      </trkpt>
      <trkpt lat="37.9484670" lon="-5.6213110">
        <ele>714.9</ele>
        <time>2022-05-22T08:03:52Z</time>
      </trkpt>
      <trkpt lat="37.9484850" lon="-5.6213230">
        <ele>714.6</ele>
        <time>2022-05-22T08:03:53Z</time>
      </trkpt>
      <trkpt lat="37.9484930" lon="-5.6213270">
        <ele>714.6</ele>
        <time>2022-05-22T08:03:54Z</time>
      </trkpt>
      <trkpt lat="37.9485010" lon="-5.6213310">
        <ele>714.5</ele>
        <time>2022-05-22T08:03:55Z</time>
      </trkpt>
      <trkpt lat="37.9485130" lon="-5.6213380">
        <ele>714.3</ele>
        <time>2022-05-22T08:03:56Z</time>
      </trkpt>
      <trkpt lat="37.9485250" lon="-5.6213450">
        <ele>714.1</ele>
        <time>2022-05-22T08:03:57Z</time>
      </trkpt>
      <trkpt lat="37.9485440" lon="-5.6213550">
        <ele>713.8</ele>
        <time>2022-05-22T08:03:59Z</time>
      </trkpt>
      <trkpt lat="37.9485590" lon="-5.6213550">
        <ele>713.6</ele>
        <time>2022-05-22T08:04:00Z</time>
      </trkpt>
      <trkpt lat="37.9485740" lon="-5.6213570">
        <ele>713.4</ele>
        <time>2022-05-22T08:04:01Z</time>
      </trkpt>
      <trkpt lat="37.9485890" lon="-5.6213610">
        <ele>713.2</ele>
        <time>2022-05-22T08:04:02Z</time>
      </trkpt>
      <trkpt lat="37.9486010" lon="-5.6213660">
        <ele>713.1</ele>
        <time>2022-05-22T08:04:03Z</time>
      </trkpt>
      <trkpt lat="37.9486180" lon="-5.6213720">
        <ele>712.8</ele>
        <time>2022-05-22T08:04:04Z</time>
      </trkpt>
      <trkpt lat="37.9486310" lon="-5.6213770">
        <ele>712.6</ele>
        <time>2022-05-22T08:04:05Z</time>
      </trkpt>
      <trkpt lat="37.9486440" lon="-5.6213840">
        <ele>712.5</ele>
        <time>2022-05-22T08:04:06Z</time>
      </trkpt>
      <trkpt lat="37.9486590" lon="-5.6213910">
        <ele>712.3</ele>
        <time>2022-05-22T08:04:07Z</time>
      </trkpt>
      <trkpt lat="37.9486730" lon="-5.6213980">
        <ele>712.1</ele>
        <time>2022-05-22T08:04:08Z</time>
      </trkpt>
      <trkpt lat="37.9486890" lon="-5.6214080">
        <ele>711.9</ele>
        <time>2022-05-22T08:04:09Z</time>
      </trkpt>
      <trkpt lat="37.9487040" lon="-5.6214180">
        <ele>711.6</ele>
        <time>2022-05-22T08:04:10Z</time>
      </trkpt>
      <trkpt lat="37.9487190" lon="-5.6214280">
        <ele>711.4</ele>
        <time>2022-05-22T08:04:11Z</time>
      </trkpt>
      <trkpt lat="37.9487330" lon="-5.6214400">
        <ele>711.2</ele>
        <time>2022-05-22T08:04:12Z</time>
      </trkpt>
      <trkpt lat="37.9487450" lon="-5.6214520">
        <ele>711.0</ele>
        <time>2022-05-22T08:04:13Z</time>
      </trkpt>
      <trkpt lat="37.9487570" lon="-5.6214640">
        <ele>710.9</ele>
        <time>2022-05-22T08:04:14Z</time>
      </trkpt>
      <trkpt lat="37.9487690" lon="-5.6214780">
        <ele>710.7</ele>
        <time>2022-05-22T08:04:15Z</time>
      </trkpt>
      <trkpt lat="37.9487790" lon="-5.6214940">
        <ele>710.5</ele>
        <time>2022-05-22T08:04:16Z</time>
      </trkpt>
      <trkpt lat="37.9487870" lon="-5.6215070">
        <ele>710.3</ele>
        <time>2022-05-22T08:04:17Z</time>
      </trkpt>
      <trkpt lat="37.9487970" lon="-5.6215220">
        <ele>710.1</ele>
        <time>2022-05-22T08:04:18Z</time>
      </trkpt>
      <trkpt lat="37.9488040" lon="-5.6215380">
        <ele>709.9</ele>
        <time>2022-05-22T08:04:19Z</time>
      </trkpt>
      <trkpt lat="37.9488110" lon="-5.6215640">
        <ele>709.7</ele>
        <time>2022-05-22T08:04:20Z</time>
      </trkpt>
      <trkpt lat="37.9488130" lon="-5.6215750">
        <ele>709.6</ele>
        <time>2022-05-22T08:04:21Z</time>
      </trkpt>
      <trkpt lat="37.9488140" lon="-5.6215860">
        <ele>709.4</ele>
        <time>2022-05-22T08:04:22Z</time>
      </trkpt>
      <trkpt lat="37.9488190" lon="-5.6216020">
        <ele>709.3</ele>
        <time>2022-05-22T08:04:23Z</time>
      </trkpt>
      <trkpt lat="37.9488240" lon="-5.6216180">
        <ele>709.1</ele>
        <time>2022-05-22T08:04:24Z</time>
      </trkpt>
      <trkpt lat="37.9488310" lon="-5.6216440">
        <ele>708.8</ele>
        <time>2022-05-22T08:04:25Z</time>
      </trkpt>
      <trkpt lat="37.9488330" lon="-5.6216560">
        <ele>708.6</ele>
        <time>2022-05-22T08:04:26Z</time>
      </trkpt>
      <trkpt lat="37.9488360" lon="-5.6216680">
        <ele>708.5</ele>
        <time>2022-05-22T08:04:27Z</time>
      </trkpt>
      <trkpt lat="37.9488390" lon="-5.6216830">
        <ele>708.3</ele>
        <time>2022-05-22T08:04:28Z</time>
      </trkpt>
      <trkpt lat="37.9488460" lon="-5.6217010">
        <ele>708.1</ele>
        <time>2022-05-22T08:04:29Z</time>
      </trkpt>
      <trkpt lat="37.9488570" lon="-5.6217220">
        <ele>707.8</ele>
        <time>2022-05-22T08:04:30Z</time>
      </trkpt>
      <trkpt lat="37.9488620" lon="-5.6217300">
        <ele>707.6</ele>
        <time>2022-05-22T08:04:31Z</time>
      </trkpt>
      <trkpt lat="37.9488670" lon="-5.6217380">
        <ele>707.5</ele>
        <time>2022-05-22T08:04:32Z</time>
      </trkpt>
      <trkpt lat="37.9488810" lon="-5.6217620">
        <ele>707.2</ele>
        <time>2022-05-22T08:04:33Z</time>
      </trkpt>
      <trkpt lat="37.9488860" lon="-5.6217730">
        <ele>707.0</ele>
        <time>2022-05-22T08:04:34Z</time>
      </trkpt>
      <trkpt lat="37.9488920" lon="-5.6217840">
        <ele>706.8</ele>
        <time>2022-05-22T08:04:35Z</time>
      </trkpt>
      <trkpt lat="37.9489010" lon="-5.6218010">
        <ele>706.6</ele>
        <time>2022-05-22T08:04:36Z</time>
      </trkpt>
      <trkpt lat="37.9489100" lon="-5.6218190">
        <ele>706.4</ele>
        <time>2022-05-22T08:04:37Z</time>
      </trkpt>
      <trkpt lat="37.9489180" lon="-5.6218380">
        <ele>706.1</ele>
        <time>2022-05-22T08:04:38Z</time>
      </trkpt>
      <trkpt lat="37.9489240" lon="-5.6218540">
        <ele>705.9</ele>
        <time>2022-05-22T08:04:39Z</time>
      </trkpt>
      <trkpt lat="37.9489290" lon="-5.6218680">
        <ele>705.8</ele>
        <time>2022-05-22T08:04:40Z</time>
      </trkpt>
      <trkpt lat="37.9489340" lon="-5.6218870">
        <ele>705.6</ele>
        <time>2022-05-22T08:04:41Z</time>
      </trkpt>
      <trkpt lat="37.9489420" lon="-5.6219110">
        <ele>705.3</ele>
        <time>2022-05-22T08:04:42Z</time>
      </trkpt>
      <trkpt lat="37.9489440" lon="-5.6219210">
        <ele>705.2</ele>
        <time>2022-05-22T08:04:43Z</time>
      </trkpt>
      <trkpt lat="37.9489470" lon="-5.6219300">
        <ele>705.1</ele>
        <time>2022-05-22T08:04:44Z</time>
      </trkpt>
      <trkpt lat="37.9489500" lon="-5.6219420">
        <ele>705.0</ele>
        <time>2022-05-22T08:04:45Z</time>
      </trkpt>
      <trkpt lat="37.9489560" lon="-5.6219570">
        <ele>704.8</ele>
        <time>2022-05-22T08:04:46Z</time>
      </trkpt>
      <trkpt lat="37.9489620" lon="-5.6219690">
        <ele>704.7</ele>
        <time>2022-05-22T08:04:47Z</time>
      </trkpt>
      <trkpt lat="37.9489740" lon="-5.6219890">
        <ele>704.4</ele>
        <time>2022-05-22T08:04:48Z</time>
      </trkpt>
      <trkpt lat="37.9489830" lon="-5.6220040">
        <ele>704.2</ele>
        <time>2022-05-22T08:04:49Z</time>
      </trkpt>
      <trkpt lat="37.9489950" lon="-5.6220170">
        <ele>704.0</ele>
        <time>2022-05-22T08:04:50Z</time>
      </trkpt>
      <trkpt lat="37.9490050" lon="-5.6220310">
        <ele>703.9</ele>
        <time>2022-05-22T08:04:51Z</time>
      </trkpt>
      <trkpt lat="37.9490170" lon="-5.6220440">
        <ele>703.7</ele>
        <time>2022-05-22T08:04:52Z</time>
      </trkpt>
      <trkpt lat="37.9490300" lon="-5.6220590">
        <ele>703.5</ele>
        <time>2022-05-22T08:04:53Z</time>
      </trkpt>
      <trkpt lat="37.9490420" lon="-5.6220740">
        <ele>703.3</ele>
        <time>2022-05-22T08:04:54Z</time>
      </trkpt>
      <trkpt lat="37.9490540" lon="-5.6220860">
        <ele>703.1</ele>
        <time>2022-05-22T08:04:55Z</time>
      </trkpt>
      <trkpt lat="37.9490640" lon="-5.6220980">
        <ele>703.0</ele>
        <time>2022-05-22T08:04:56Z</time>
      </trkpt>
      <trkpt lat="37.9490720" lon="-5.6221110">
        <ele>702.9</ele>
        <time>2022-05-22T08:04:57Z</time>
      </trkpt>
      <trkpt lat="37.9490830" lon="-5.6221320">
        <ele>702.7</ele>
        <time>2022-05-22T08:04:58Z</time>
      </trkpt>
      <trkpt lat="37.9490880" lon="-5.6221410">
        <ele>702.6</ele>
        <time>2022-05-22T08:04:59Z</time>
      </trkpt>
      <trkpt lat="37.9490930" lon="-5.6221510">
        <ele>702.5</ele>
        <time>2022-05-22T08:05:00Z</time>
      </trkpt>
      <trkpt lat="37.9491000" lon="-5.6221660">
        <ele>702.4</ele>
        <time>2022-05-22T08:05:01Z</time>
      </trkpt>
      <trkpt lat="37.9491060" lon="-5.6221840">
        <ele>702.2</ele>
        <time>2022-05-22T08:05:02Z</time>
      </trkpt>
      <trkpt lat="37.9491150" lon="-5.6222010">
        <ele>702.1</ele>
        <time>2022-05-22T08:05:03Z</time>
      </trkpt>
      <trkpt lat="37.9491230" lon="-5.6222130">
        <ele>702.0</ele>
        <time>2022-05-22T08:05:04Z</time>
      </trkpt>
      <trkpt lat="37.9491410" lon="-5.6222290">
        <ele>701.7</ele>
        <time>2022-05-22T08:05:05Z</time>
      </trkpt>
      <trkpt lat="37.9491480" lon="-5.6222340">
        <ele>701.7</ele>
        <time>2022-05-22T08:05:06Z</time>
      </trkpt>
      <trkpt lat="37.9491550" lon="-5.6222390">
        <ele>701.6</ele>
        <time>2022-05-22T08:05:07Z</time>
      </trkpt>
      <trkpt lat="37.9491700" lon="-5.6222440">
        <ele>701.5</ele>
        <time>2022-05-22T08:05:08Z</time>
      </trkpt>
      <trkpt lat="37.9491850" lon="-5.6222510">
        <ele>701.3</ele>
        <time>2022-05-22T08:05:09Z</time>
      </trkpt>
      <trkpt lat="37.9491990" lon="-5.6222560">
        <ele>701.2</ele>
        <time>2022-05-22T08:05:10Z</time>
      </trkpt>
      <trkpt lat="37.9492130" lon="-5.6222600">
        <ele>701.0</ele>
        <time>2022-05-22T08:05:11Z</time>
      </trkpt>
      <trkpt lat="37.9492270" lon="-5.6222610">
        <ele>700.9</ele>
        <time>2022-05-22T08:05:12Z</time>
      </trkpt>
      <trkpt lat="37.9492430" lon="-5.6222630">
        <ele>700.7</ele>
        <time>2022-05-22T08:05:13Z</time>
      </trkpt>
      <trkpt lat="37.9492590" lon="-5.6222650">
        <ele>700.6</ele>
        <time>2022-05-22T08:05:14Z</time>
      </trkpt>
      <trkpt lat="37.9492760" lon="-5.6222640">
        <ele>700.4</ele>
        <time>2022-05-22T08:05:15Z</time>
      </trkpt>
      <trkpt lat="37.9493060" lon="-5.6222650">
        <ele>700.1</ele>
        <time>2022-05-22T08:05:17Z</time>
      </trkpt>
      <trkpt lat="37.9493130" lon="-5.6222660">
        <ele>700.0</ele>
        <time>2022-05-22T08:05:18Z</time>
      </trkpt>
      <trkpt lat="37.9493270" lon="-5.6222690">
        <ele>699.9</ele>
        <time>2022-05-22T08:05:19Z</time>
      </trkpt>
      <trkpt lat="37.9493440" lon="-5.6222710">
        <ele>699.7</ele>
        <time>2022-05-22T08:05:20Z</time>
      </trkpt>
      <trkpt lat="37.9493640" lon="-5.6222750">
        <ele>699.5</ele>
        <time>2022-05-22T08:05:21Z</time>
      </trkpt>
      <trkpt lat="37.9493770" lon="-5.6222800">
        <ele>699.4</ele>
        <time>2022-05-22T08:05:22Z</time>
      </trkpt>
      <trkpt lat="37.9493980" lon="-5.6222900">
        <ele>699.2</ele>
        <time>2022-05-22T08:05:24Z</time>
      </trkpt>
      <trkpt lat="37.9494110" lon="-5.6222920">
        <ele>699.1</ele>
        <time>2022-05-22T08:05:25Z</time>
      </trkpt>
      <trkpt lat="37.9494340" lon="-5.6222940">
        <ele>698.9</ele>
        <time>2022-05-22T08:05:26Z</time>
      </trkpt>
      <trkpt lat="37.9494450" lon="-5.6222970">
        <ele>698.8</ele>
        <time>2022-05-22T08:05:27Z</time>
      </trkpt>
      <trkpt lat="37.9494660" lon="-5.6223030">
        <ele>698.6</ele>
        <time>2022-05-22T08:05:28Z</time>
      </trkpt>
      <trkpt lat="37.9494750" lon="-5.6223060">
        <ele>698.5</ele>
        <time>2022-05-22T08:05:29Z</time>
      </trkpt>
      <trkpt lat="37.9494840" lon="-5.6223090">
        <ele>698.5</ele>
        <time>2022-05-22T08:05:30Z</time>
      </trkpt>
      <trkpt lat="37.9494990" lon="-5.6223130">
        <ele>698.3</ele>
        <time>2022-05-22T08:05:31Z</time>
      </trkpt>
      <trkpt lat="37.9495140" lon="-5.6223180">
        <ele>698.2</ele>
        <time>2022-05-22T08:05:32Z</time>
      </trkpt>
      <trkpt lat="37.9495300" lon="-5.6223230">
        <ele>698.0</ele>
        <time>2022-05-22T08:05:33Z</time>
      </trkpt>
      <trkpt lat="37.9495450" lon="-5.6223300">
        <ele>697.9</ele>
        <time>2022-05-22T08:05:34Z</time>
      </trkpt>
      <trkpt lat="37.9495590" lon="-5.6223380">
        <ele>697.8</ele>
        <time>2022-05-22T08:05:35Z</time>
      </trkpt>
      <trkpt lat="37.9495720" lon="-5.6223460">
        <ele>697.6</ele>
        <time>2022-05-22T08:05:36Z</time>
      </trkpt>
      <trkpt lat="37.9495850" lon="-5.6223540">
        <ele>697.5</ele>
        <time>2022-05-22T08:05:37Z</time>
      </trkpt>
      <trkpt lat="37.9495960" lon="-5.6223630">
        <ele>697.4</ele>
        <time>2022-05-22T08:05:38Z</time>
      </trkpt>
      <trkpt lat="37.9496100" lon="-5.6223840">
        <ele>697.2</ele>
        <time>2022-05-22T08:05:39Z</time>
      </trkpt>
      <trkpt lat="37.9496140" lon="-5.6223940">
        <ele>697.1</ele>
        <time>2022-05-22T08:05:40Z</time>
      </trkpt>
      <trkpt lat="37.9496170" lon="-5.6224030">
        <ele>697.0</ele>
        <time>2022-05-22T08:05:41Z</time>
      </trkpt>
      <trkpt lat="37.9496200" lon="-5.6224200">
        <ele>696.9</ele>
        <time>2022-05-22T08:05:42Z</time>
      </trkpt>
      <trkpt lat="37.9496240" lon="-5.6224370">
        <ele>696.7</ele>
        <time>2022-05-22T08:05:43Z</time>
      </trkpt>
      <trkpt lat="37.9496390" lon="-5.6224510">
        <ele>696.6</ele>
        <time>2022-05-22T08:05:44Z</time>
      </trkpt>
      <trkpt lat="37.9496480" lon="-5.6224560">
        <ele>696.5</ele>
        <time>2022-05-22T08:05:45Z</time>
      </trkpt>
      <trkpt lat="37.9496570" lon="-5.6224620">
        <ele>696.4</ele>
        <time>2022-05-22T08:05:46Z</time>
      </trkpt>
      <trkpt lat="37.9496830" lon="-5.6224730">
        <ele>696.1</ele>
        <time>2022-05-22T08:05:47Z</time>
      </trkpt>
      <trkpt lat="37.9496980" lon="-5.6224820">
        <ele>696.0</ele>
        <time>2022-05-22T08:05:48Z</time>
      </trkpt>
      <trkpt lat="37.9497110" lon="-5.6224940">
        <ele>695.8</ele>
        <time>2022-05-22T08:05:49Z</time>
      </trkpt>
      <trkpt lat="37.9497230" lon="-5.6225060">
        <ele>695.7</ele>
        <time>2022-05-22T08:05:50Z</time>
      </trkpt>
      <trkpt lat="37.9497350" lon="-5.6225200">
        <ele>695.5</ele>
        <time>2022-05-22T08:05:51Z</time>
      </trkpt>
      <trkpt lat="37.9497460" lon="-5.6225340">
        <ele>695.4</ele>
        <time>2022-05-22T08:05:52Z</time>
      </trkpt>
      <trkpt lat="37.9497570" lon="-5.6225470">
        <ele>695.2</ele>
        <time>2022-05-22T08:05:53Z</time>
      </trkpt>
      <trkpt lat="37.9497750" lon="-5.6225720">
        <ele>695.0</ele>
        <time>2022-05-22T08:05:54Z</time>
      </trkpt>
      <trkpt lat="37.9497830" lon="-5.6225830">
        <ele>694.9</ele>
        <time>2022-05-22T08:05:55Z</time>
      </trkpt>
      <trkpt lat="37.9497910" lon="-5.6225930">
        <ele>694.7</ele>
        <time>2022-05-22T08:05:56Z</time>
      </trkpt>
      <trkpt lat="37.9498070" lon="-5.6226110">
        <ele>694.5</ele>
        <time>2022-05-22T08:05:57Z</time>
      </trkpt>
      <trkpt lat="37.9498150" lon="-5.6226170">
        <ele>694.4</ele>
        <time>2022-05-22T08:05:58Z</time>
      </trkpt>
      <trkpt lat="37.9498230" lon="-5.6226230">
        <ele>694.4</ele>
        <time>2022-05-22T08:05:59Z</time>
      </trkpt>
      <trkpt lat="37.9498370" lon="-5.6226310">
        <ele>694.2</ele>
        <time>2022-05-22T08:06:00Z</time>
      </trkpt>
      <trkpt lat="37.9498510" lon="-5.6226370">
        <ele>694.1</ele>
        <time>2022-05-22T08:06:01Z</time>
      </trkpt>
      <trkpt lat="37.9498720" lon="-5.6226430">
        <ele>693.8</ele>
        <time>2022-05-22T08:06:02Z</time>
      </trkpt>
      <trkpt lat="37.9498800" lon="-5.6226450">
        <ele>693.8</ele>
        <time>2022-05-22T08:06:03Z</time>
      </trkpt>
      <trkpt lat="37.9498880" lon="-5.6226460">
        <ele>693.7</ele>
        <time>2022-05-22T08:06:04Z</time>
      </trkpt>
      <trkpt lat="37.9498980" lon="-5.6226490">
        <ele>693.6</ele>
        <time>2022-05-22T08:06:05Z</time>
      </trkpt>
      <trkpt lat="37.9499090" lon="-5.6226470">
        <ele>693.5</ele>
        <time>2022-05-22T08:06:06Z</time>
      </trkpt>
      <trkpt lat="37.9499240" lon="-5.6226480">
        <ele>693.3</ele>
        <time>2022-05-22T08:06:07Z</time>
      </trkpt>
      <trkpt lat="37.9499450" lon="-5.6226530">
        <ele>693.1</ele>
        <time>2022-05-22T08:06:08Z</time>
      </trkpt>
      <trkpt lat="37.9499550" lon="-5.6226550">
        <ele>693.0</ele>
        <time>2022-05-22T08:06:09Z</time>
      </trkpt>
      <trkpt lat="37.9499660" lon="-5.6226570">
        <ele>692.9</ele>
        <time>2022-05-22T08:06:10Z</time>
      </trkpt>
      <trkpt lat="37.9499810" lon="-5.6226550">
        <ele>692.8</ele>
        <time>2022-05-22T08:06:11Z</time>
      </trkpt>
      <trkpt lat="37.9500020" lon="-5.6226470">
        <ele>692.6</ele>
        <time>2022-05-22T08:06:13Z</time>
      </trkpt>
      <trkpt lat="37.9500300" lon="-5.6226400">
        <ele>692.3</ele>
        <time>2022-05-22T08:06:14Z</time>
      </trkpt>
      <trkpt lat="37.9500440" lon="-5.6226340">
        <ele>692.2</ele>
        <time>2022-05-22T08:06:15Z</time>
      </trkpt>
      <trkpt lat="37.9500560" lon="-5.6226270">
        <ele>692.1</ele>
        <time>2022-05-22T08:06:16Z</time>
      </trkpt>
      <trkpt lat="37.9500770" lon="-5.6226160">
        <ele>691.9</ele>
        <time>2022-05-22T08:06:17Z</time>
      </trkpt>
      <trkpt lat="37.9500850" lon="-5.6226130">
        <ele>691.8</ele>
        <time>2022-05-22T08:06:18Z</time>
      </trkpt>
      <trkpt lat="37.9500930" lon="-5.6226090">
        <ele>691.7</ele>
        <time>2022-05-22T08:06:19Z</time>
      </trkpt>
      <trkpt lat="37.9501210" lon="-5.6226000">
        <ele>691.5</ele>
        <time>2022-05-22T08:06:20Z</time>
      </trkpt>
      <trkpt lat="37.9501340" lon="-5.6225960">
        <ele>691.5</ele>
        <time>2022-05-22T08:06:21Z</time>
      </trkpt>
      <trkpt lat="37.9501510" lon="-5.6225880">
        <ele>691.3</ele>
        <time>2022-05-22T08:06:22Z</time>
      </trkpt>
      <trkpt lat="37.9501640" lon="-5.6225850">
        <ele>691.3</ele>
        <time>2022-05-22T08:06:23Z</time>
      </trkpt>
      <trkpt lat="37.9501780" lon="-5.6225820">
        <ele>691.2</ele>
        <time>2022-05-22T08:06:24Z</time>
      </trkpt>
      <trkpt lat="37.9501920" lon="-5.6225800">
        <ele>691.1</ele>
        <time>2022-05-22T08:06:25Z</time>
      </trkpt>
      <trkpt lat="37.9502070" lon="-5.6225770">
        <ele>691.1</ele>
        <time>2022-05-22T08:06:26Z</time>
      </trkpt>
      <trkpt lat="37.9502210" lon="-5.6225730">
        <ele>691.0</ele>
        <time>2022-05-22T08:06:27Z</time>
      </trkpt>
      <trkpt lat="37.9502340" lon="-5.6225700">
        <ele>690.9</ele>
        <time>2022-05-22T08:06:28Z</time>
      </trkpt>
      <trkpt lat="37.9502480" lon="-5.6225680">
        <ele>690.9</ele>
        <time>2022-05-22T08:06:29Z</time>
      </trkpt>
      <trkpt lat="37.9502700" lon="-5.6225610">
        <ele>690.8</ele>
        <time>2022-05-22T08:06:30Z</time>
      </trkpt>
      <trkpt lat="37.9502780" lon="-5.6225580">
        <ele>690.8</ele>
        <time>2022-05-22T08:06:31Z</time>
      </trkpt>
      <trkpt lat="37.9502860" lon="-5.6225550">
        <ele>690.8</ele>
        <time>2022-05-22T08:06:32Z</time>
      </trkpt>
      <trkpt lat="37.9502990" lon="-5.6225520">
        <ele>690.7</ele>
        <time>2022-05-22T08:06:33Z</time>
      </trkpt>
      <trkpt lat="37.9503110" lon="-5.6225490">
        <ele>690.7</ele>
        <time>2022-05-22T08:06:34Z</time>
      </trkpt>
      <trkpt lat="37.9503200" lon="-5.6225470">
        <ele>690.7</ele>
        <time>2022-05-22T08:06:35Z</time>
      </trkpt>
      <trkpt lat="37.9503430" lon="-5.6225450">
        <ele>690.6</ele>
        <time>2022-05-22T08:06:36Z</time>
      </trkpt>
      <trkpt lat="37.9503550" lon="-5.6225460">
        <ele>690.6</ele>
        <time>2022-05-22T08:06:37Z</time>
      </trkpt>
      <trkpt lat="37.9503670" lon="-5.6225470">
        <ele>690.5</ele>
        <time>2022-05-22T08:06:38Z</time>
      </trkpt>
      <trkpt lat="37.9503820" lon="-5.6225480">
        <ele>690.5</ele>
        <time>2022-05-22T08:06:39Z</time>
      </trkpt>
      <trkpt lat="37.9503970" lon="-5.6225480">
        <ele>690.5</ele>
        <time>2022-05-22T08:06:40Z</time>
      </trkpt>
      <trkpt lat="37.9504110" lon="-5.6225490">
        <ele>690.4</ele>
        <time>2022-05-22T08:06:41Z</time>
      </trkpt>
      <trkpt lat="37.9504250" lon="-5.6225510">
        <ele>690.4</ele>
        <time>2022-05-22T08:06:42Z</time>
      </trkpt>
      <trkpt lat="37.9504380" lon="-5.6225530">
        <ele>690.4</ele>
        <time>2022-05-22T08:06:43Z</time>
      </trkpt>
      <trkpt lat="37.9504520" lon="-5.6225570">
        <ele>690.3</ele>
        <time>2022-05-22T08:06:44Z</time>
      </trkpt>
      <trkpt lat="37.9504670" lon="-5.6225600">
        <ele>690.3</ele>
        <time>2022-05-22T08:06:45Z</time>
      </trkpt>
      <trkpt lat="37.9504800" lon="-5.6225610">
        <ele>690.3</ele>
        <time>2022-05-22T08:06:46Z</time>
      </trkpt>
      <trkpt lat="37.9504990" lon="-5.6225660">
        <ele>690.2</ele>
        <time>2022-05-22T08:06:47Z</time>
      </trkpt>
      <trkpt lat="37.9505070" lon="-5.6225690">
        <ele>690.2</ele>
        <time>2022-05-22T08:06:48Z</time>
      </trkpt>
      <trkpt lat="37.9505160" lon="-5.6225720">
        <ele>690.2</ele>
        <time>2022-05-22T08:06:49Z</time>
      </trkpt>
      <trkpt lat="37.9505460" lon="-5.6225870">
        <ele>690.1</ele>
        <time>2022-05-22T08:06:51Z</time>
      </trkpt>
      <trkpt lat="37.9505520" lon="-5.6225900">
        <ele>690.1</ele>
        <time>2022-05-22T08:06:52Z</time>
      </trkpt>
      <trkpt lat="37.9505650" lon="-5.6225950">
        <ele>690.1</ele>
        <time>2022-05-22T08:06:53Z</time>
      </trkpt>
      <trkpt lat="37.9505780" lon="-5.6226020">
        <ele>690.1</ele>
        <time>2022-05-22T08:06:54Z</time>
      </trkpt>
      <trkpt lat="37.9505910" lon="-5.6226100">
        <ele>690.1</ele>
        <time>2022-05-22T08:06:55Z</time>
      </trkpt>
      <trkpt lat="37.9506050" lon="-5.6226190">
        <ele>690.1</ele>
        <time>2022-05-22T08:06:56Z</time>
      </trkpt>
      <trkpt lat="37.9506310" lon="-5.6226320">
        <ele>690.0</ele>
        <time>2022-05-22T08:06:57Z</time>
      </trkpt>
      <trkpt lat="37.9506400" lon="-5.6226360">
        <ele>690.0</ele>
        <time>2022-05-22T08:06:58Z</time>
      </trkpt>
      <trkpt lat="37.9506660" lon="-5.6226520">
        <ele>690.0</ele>
        <time>2022-05-22T08:06:59Z</time>
      </trkpt>
      <trkpt lat="37.9506770" lon="-5.6226590">
        <ele>690.0</ele>
        <time>2022-05-22T08:07:00Z</time>
      </trkpt>
      <trkpt lat="37.9506900" lon="-5.6226680">
        <ele>690.0</ele>
        <time>2022-05-22T08:07:01Z</time>
      </trkpt>
      <trkpt lat="37.9507050" lon="-5.6226760">
        <ele>690.0</ele>
        <time>2022-05-22T08:07:02Z</time>
      </trkpt>
      <trkpt lat="37.9507190" lon="-5.6226840">
        <ele>690.0</ele>
        <time>2022-05-22T08:07:03Z</time>
      </trkpt>
      <trkpt lat="37.9507330" lon="-5.6226920">
        <ele>689.9</ele>
        <time>2022-05-22T08:07:04Z</time>
      </trkpt>
      <trkpt lat="37.9507450" lon="-5.6226990">
        <ele>689.9</ele>
        <time>2022-05-22T08:07:05Z</time>
      </trkpt>
      <trkpt lat="37.9507550" lon="-5.6227060">
        <ele>689.9</ele>
        <time>2022-05-22T08:07:06Z</time>
      </trkpt>
      <trkpt lat="37.9507590" lon="-5.6227160">
        <ele>689.9</ele>
        <time>2022-05-22T08:07:07Z</time>
      </trkpt>
      <trkpt lat="37.9507810" lon="-5.6227380">
        <ele>689.9</ele>
        <time>2022-05-22T08:07:09Z</time>
      </trkpt>
      <trkpt lat="37.9507900" lon="-5.6227430">
        <ele>689.8</ele>
        <time>2022-05-22T08:07:10Z</time>
      </trkpt>
      <trkpt lat="37.9508000" lon="-5.6227480">
        <ele>689.8</ele>
        <time>2022-05-22T08:07:11Z</time>
      </trkpt>
      <trkpt lat="37.9508160" lon="-5.6227530">
        <ele>689.8</ele>
        <time>2022-05-22T08:07:13Z</time>
      </trkpt>
      <trkpt lat="37.9508360" lon="-5.6227620">
        <ele>689.8</ele>
        <time>2022-05-22T08:07:14Z</time>
      </trkpt>
      <trkpt lat="37.9508460" lon="-5.6227640">
        <ele>689.7</ele>
        <time>2022-05-22T08:07:15Z</time>
      </trkpt>
      <trkpt lat="37.9508590" lon="-5.6227620">
        <ele>689.7</ele>
        <time>2022-05-22T08:07:17Z</time>
      </trkpt>
      <trkpt lat="37.9508760" lon="-5.6227600">
        <ele>689.7</ele>
        <time>2022-05-22T08:07:18Z</time>
      </trkpt>
      <trkpt lat="37.9508860" lon="-5.6227610">
        <ele>689.7</ele>
        <time>2022-05-22T08:07:19Z</time>
      </trkpt>
      <trkpt lat="37.9508970" lon="-5.6227650">
        <ele>689.6</ele>
        <time>2022-05-22T08:07:20Z</time>
      </trkpt>
      <trkpt lat="37.9509100" lon="-5.6227720">
        <ele>689.6</ele>
        <time>2022-05-22T08:07:22Z</time>
      </trkpt>
      <trkpt lat="37.9509220" lon="-5.6227790">
        <ele>689.6</ele>
        <time>2022-05-22T08:07:23Z</time>
      </trkpt>
      <trkpt lat="37.9509380" lon="-5.6227850">
        <ele>689.6</ele>
        <time>2022-05-22T08:07:24Z</time>
      </trkpt>
      <trkpt lat="37.9509600" lon="-5.6227950">
        <ele>689.5</ele>
        <time>2022-05-22T08:07:25Z</time>
      </trkpt>
      <trkpt lat="37.9509720" lon="-5.6228000">
        <ele>689.5</ele>
        <time>2022-05-22T08:07:26Z</time>
      </trkpt>
      <trkpt lat="37.9509860" lon="-5.6228050">
        <ele>689.4</ele>
        <time>2022-05-22T08:07:27Z</time>
      </trkpt>
      <trkpt lat="37.9509990" lon="-5.6228100">
        <ele>689.4</ele>
        <time>2022-05-22T08:07:28Z</time>
      </trkpt>
      <trkpt lat="37.9510380" lon="-5.6228230">
        <ele>689.3</ele>
        <time>2022-05-22T08:07:30Z</time>
      </trkpt>
      <trkpt lat="37.9510470" lon="-5.6228270">
        <ele>689.3</ele>
        <time>2022-05-22T08:07:31Z</time>
      </trkpt>
      <trkpt lat="37.9510560" lon="-5.6228310">
        <ele>689.3</ele>
        <time>2022-05-22T08:07:32Z</time>
      </trkpt>
      <trkpt lat="37.9510650" lon="-5.6228360">
        <ele>689.3</ele>
        <time>2022-05-22T08:07:33Z</time>
      </trkpt>
      <trkpt lat="37.9510780" lon="-5.6228430">
        <ele>689.2</ele>
        <time>2022-05-22T08:07:34Z</time>
      </trkpt>
      <trkpt lat="37.9510890" lon="-5.6228480">
        <ele>689.2</ele>
        <time>2022-05-22T08:07:35Z</time>
      </trkpt>
      <trkpt lat="37.9510950" lon="-5.6228500">
        <ele>689.2</ele>
        <time>2022-05-22T08:07:36Z</time>
      </trkpt>
      <trkpt lat="37.9511060" lon="-5.6228550">
        <ele>689.2</ele>
        <time>2022-05-22T08:07:37Z</time>
      </trkpt>
      <trkpt lat="37.9511180" lon="-5.6228610">
        <ele>689.1</ele>
        <time>2022-05-22T08:07:38Z</time>
      </trkpt>
      <trkpt lat="37.9511280" lon="-5.6228640">
        <ele>689.1</ele>
        <time>2022-05-22T08:07:39Z</time>
      </trkpt>
      <trkpt lat="37.9511480" lon="-5.6228620">
        <ele>689.1</ele>
        <time>2022-05-22T08:07:40Z</time>
      </trkpt>
      <trkpt lat="37.9511560" lon="-5.6228600">
        <ele>689.0</ele>
        <time>2022-05-22T08:07:41Z</time>
      </trkpt>
      <trkpt lat="37.9511640" lon="-5.6228580">
        <ele>689.0</ele>
        <time>2022-05-22T08:07:42Z</time>
      </trkpt>
      <trkpt lat="37.9511690" lon="-5.6228540">
        <ele>689.0</ele>
        <time>2022-05-22T08:07:43Z</time>
      </trkpt>
      <trkpt lat="37.9511710" lon="-5.6228410">
        <ele>689.0</ele>
        <time>2022-05-22T08:07:44Z</time>
      </trkpt>
      <trkpt lat="37.9511780" lon="-5.6228390">
        <ele>688.9</ele>
        <time>2022-05-22T08:07:45Z</time>
      </trkpt>
      <trkpt lat="37.9511870" lon="-5.6228390">
        <ele>688.9</ele>
        <time>2022-05-22T08:07:46Z</time>
      </trkpt>
      <trkpt lat="37.9512010" lon="-5.6228400">
        <ele>688.9</ele>
        <time>2022-05-22T08:07:47Z</time>
      </trkpt>
      <trkpt lat="37.9512190" lon="-5.6228420">
        <ele>688.8</ele>
        <time>2022-05-22T08:07:48Z</time>
      </trkpt>
      <trkpt lat="37.9512500" lon="-5.6228420">
        <ele>688.8</ele>
        <time>2022-05-22T08:07:49Z</time>
      </trkpt>
      <trkpt lat="37.9512590" lon="-5.6228410">
        <ele>688.7</ele>
        <time>2022-05-22T08:07:50Z</time>
      </trkpt>
      <trkpt lat="37.9512910" lon="-5.6228400">
        <ele>688.6</ele>
        <time>2022-05-22T08:07:51Z</time>
      </trkpt>
      <trkpt lat="37.9513020" lon="-5.6228400">
        <ele>688.6</ele>
        <time>2022-05-22T08:07:52Z</time>
      </trkpt>
      <trkpt lat="37.9513190" lon="-5.6228370">
        <ele>688.6</ele>
        <time>2022-05-22T08:07:53Z</time>
      </trkpt>
      <trkpt lat="37.9513360" lon="-5.6228340">
        <ele>688.5</ele>
        <time>2022-05-22T08:07:54Z</time>
      </trkpt>
      <trkpt lat="37.9513640" lon="-5.6228310">
        <ele>688.5</ele>
        <time>2022-05-22T08:07:55Z</time>
      </trkpt>
      <trkpt lat="37.9513730" lon="-5.6228300">
        <ele>688.4</ele>
        <time>2022-05-22T08:07:56Z</time>
      </trkpt>
      <trkpt lat="37.9513880" lon="-5.6228270">
        <ele>688.4</ele>
        <time>2022-05-22T08:07:57Z</time>
      </trkpt>
      <trkpt lat="37.9514030" lon="-5.6228250">
        <ele>688.4</ele>
        <time>2022-05-22T08:07:58Z</time>
      </trkpt>
      <trkpt lat="37.9514180" lon="-5.6228230">
        <ele>688.3</ele>
        <time>2022-05-22T08:07:59Z</time>
      </trkpt>
      <trkpt lat="37.9514330" lon="-5.6228210">
        <ele>688.3</ele>
        <time>2022-05-22T08:08:00Z</time>
      </trkpt>
      <trkpt lat="37.9514540" lon="-5.6228290">
        <ele>688.2</ele>
        <time>2022-05-22T08:08:01Z</time>
      </trkpt>
      <trkpt lat="37.9514630" lon="-5.6228300">
        <ele>688.2</ele>
        <time>2022-05-22T08:08:02Z</time>
      </trkpt>
      <trkpt lat="37.9514710" lon="-5.6228320">
        <ele>688.2</ele>
        <time>2022-05-22T08:08:03Z</time>
      </trkpt>
      <trkpt lat="37.9514930" lon="-5.6228320">
        <ele>688.2</ele>
        <time>2022-05-22T08:08:04Z</time>
      </trkpt>
      <trkpt lat="37.9515020" lon="-5.6228320">
        <ele>688.1</ele>
        <time>2022-05-22T08:08:05Z</time>
      </trkpt>
      <trkpt lat="37.9515100" lon="-5.6228320">
        <ele>688.1</ele>
        <time>2022-05-22T08:08:06Z</time>
      </trkpt>
      <trkpt lat="37.9515350" lon="-5.6228280">
        <ele>688.1</ele>
        <time>2022-05-22T08:08:07Z</time>
      </trkpt>
      <trkpt lat="37.9515470" lon="-5.6228260">
        <ele>688.0</ele>
        <time>2022-05-22T08:08:09Z</time>
      </trkpt>
      <trkpt lat="37.9515590" lon="-5.6228230">
        <ele>688.0</ele>
        <time>2022-05-22T08:08:10Z</time>
      </trkpt>
      <trkpt lat="37.9515720" lon="-5.6228210">
        <ele>688.0</ele>
        <time>2022-05-22T08:08:11Z</time>
      </trkpt>
      <trkpt lat="37.9515840" lon="-5.6228180">
        <ele>687.9</ele>
        <time>2022-05-22T08:08:12Z</time>
      </trkpt>
      <trkpt lat="37.9515990" lon="-5.6228130">
        <ele>687.9</ele>
        <time>2022-05-22T08:08:13Z</time>
      </trkpt>
      <trkpt lat="37.9516120" lon="-5.6228100">
        <ele>687.9</ele>
        <time>2022-05-22T08:08:14Z</time>
      </trkpt>
      <trkpt lat="37.9516270" lon="-5.6228060">
        <ele>687.9</ele>
        <time>2022-05-22T08:08:15Z</time>
      </trkpt>
      <trkpt lat="37.9516420" lon="-5.6228020">
        <ele>687.8</ele>
        <time>2022-05-22T08:08:16Z</time>
      </trkpt>
      <trkpt lat="37.9516650" lon="-5.6227990">
        <ele>687.8</ele>
        <time>2022-05-22T08:08:17Z</time>
      </trkpt>
      <trkpt lat="37.9516720" lon="-5.6227980">
        <ele>687.8</ele>
        <time>2022-05-22T08:08:18Z</time>
      </trkpt>
      <trkpt lat="37.9516800" lon="-5.6227970">
        <ele>687.7</ele>
        <time>2022-05-22T08:08:19Z</time>
      </trkpt>
      <trkpt lat="37.9516940" lon="-5.6227970">
        <ele>687.7</ele>
        <time>2022-05-22T08:08:20Z</time>
      </trkpt>
      <trkpt lat="37.9517090" lon="-5.6227980">
        <ele>687.7</ele>
        <time>2022-05-22T08:08:21Z</time>
      </trkpt>
      <trkpt lat="37.9517240" lon="-5.6228000">
        <ele>687.6</ele>
        <time>2022-05-22T08:08:22Z</time>
      </trkpt>
      <trkpt lat="37.9517380" lon="-5.6228010">
        <ele>687.6</ele>
        <time>2022-05-22T08:08:23Z</time>
      </trkpt>
      <trkpt lat="37.9517530" lon="-5.6228030">
        <ele>687.6</ele>
        <time>2022-05-22T08:08:24Z</time>
      </trkpt>
      <trkpt lat="37.9517670" lon="-5.6228040">
        <ele>687.6</ele>
        <time>2022-05-22T08:08:25Z</time>
      </trkpt>
      <trkpt lat="37.9517870" lon="-5.6228100">
        <ele>687.5</ele>
        <time>2022-05-22T08:08:26Z</time>
      </trkpt>
      <trkpt lat="37.9517960" lon="-5.6228120">
        <ele>687.5</ele>
        <time>2022-05-22T08:08:27Z</time>
      </trkpt>
      <trkpt lat="37.9518040" lon="-5.6228140">
        <ele>687.5</ele>
        <time>2022-05-22T08:08:28Z</time>
      </trkpt>
      <trkpt lat="37.9518290" lon="-5.6228210">
        <ele>687.4</ele>
        <time>2022-05-22T08:08:30Z</time>
      </trkpt>
      <trkpt lat="37.9518380" lon="-5.6228220">
        <ele>687.4</ele>
        <time>2022-05-22T08:08:31Z</time>
      </trkpt>
      <trkpt lat="37.9518510" lon="-5.6228210">
        <ele>687.4</ele>
        <time>2022-05-22T08:08:32Z</time>
      </trkpt>
      <trkpt lat="37.9518660" lon="-5.6228190">
        <ele>687.3</ele>
        <time>2022-05-22T08:08:33Z</time>
      </trkpt>
      <trkpt lat="37.9518870" lon="-5.6228220">
        <ele>687.3</ele>
        <time>2022-05-22T08:08:34Z</time>
      </trkpt>
      <trkpt lat="37.9518950" lon="-5.6228230">
        <ele>687.3</ele>
        <time>2022-05-22T08:08:35Z</time>
      </trkpt>
      <trkpt lat="37.9519030" lon="-5.6228240">
        <ele>687.2</ele>
        <time>2022-05-22T08:08:36Z</time>
      </trkpt>
      <trkpt lat="37.9519180" lon="-5.6228250">
        <ele>687.2</ele>
        <time>2022-05-22T08:08:37Z</time>
      </trkpt>
      <trkpt lat="37.9519340" lon="-5.6228280">
        <ele>687.2</ele>
        <time>2022-05-22T08:08:38Z</time>
      </trkpt>
      <trkpt lat="37.9519600" lon="-5.6228380">
        <ele>687.1</ele>
        <time>2022-05-22T08:08:39Z</time>
      </trkpt>
      <trkpt lat="37.9519750" lon="-5.6228420">
        <ele>687.1</ele>
        <time>2022-05-22T08:08:40Z</time>
      </trkpt>
      <trkpt lat="37.9519910" lon="-5.6228440">
        <ele>687.0</ele>
        <time>2022-05-22T08:08:41Z</time>
      </trkpt>
      <trkpt lat="37.9520050" lon="-5.6228490">
        <ele>687.0</ele>
        <time>2022-05-22T08:08:42Z</time>
      </trkpt>
      <trkpt lat="37.9520190" lon="-5.6228560">
        <ele>687.0</ele>
        <time>2022-05-22T08:08:43Z</time>
      </trkpt>
      <trkpt lat="37.9520380" lon="-5.6228710">
        <ele>686.9</ele>
        <time>2022-05-22T08:08:44Z</time>
      </trkpt>
      <trkpt lat="37.9520450" lon="-5.6228780">
        <ele>686.9</ele>
        <time>2022-05-22T08:08:45Z</time>
      </trkpt>
      <trkpt lat="37.9520520" lon="-5.6228860">
        <ele>686.9</ele>
        <time>2022-05-22T08:08:46Z</time>
      </trkpt>
      <trkpt lat="37.9520630" lon="-5.6228920">
        <ele>686.8</ele>
        <time>2022-05-22T08:08:47Z</time>
      </trkpt>
      <trkpt lat="37.9520710" lon="-5.6228950">
        <ele>686.8</ele>
        <time>2022-05-22T08:08:48Z</time>
      </trkpt>
      <trkpt lat="37.9520820" lon="-5.6229030">
        <ele>686.8</ele>
        <time>2022-05-22T08:08:49Z</time>
      </trkpt>
      <trkpt lat="37.9520960" lon="-5.6229150">
        <ele>686.8</ele>
        <time>2022-05-22T08:08:51Z</time>
      </trkpt>
      <trkpt lat="37.9521090" lon="-5.6229240">
        <ele>686.7</ele>
        <time>2022-05-22T08:08:52Z</time>
      </trkpt>
      <trkpt lat="37.9521300" lon="-5.6229290">
        <ele>686.7</ele>
        <time>2022-05-22T08:08:53Z</time>
      </trkpt>
      <trkpt lat="37.9521400" lon="-5.6229300">
        <ele>686.7</ele>
        <time>2022-05-22T08:08:54Z</time>
      </trkpt>
      <trkpt lat="37.9521500" lon="-5.6229310">
        <ele>686.7</ele>
        <time>2022-05-22T08:08:55Z</time>
      </trkpt>
      <trkpt lat="37.9521690" lon="-5.6229320">
        <ele>686.6</ele>
        <time>2022-05-22T08:08:56Z</time>
      </trkpt>
      <trkpt lat="37.9521780" lon="-5.6229340">
        <ele>686.6</ele>
        <time>2022-05-22T08:08:57Z</time>
      </trkpt>
      <trkpt lat="37.9521860" lon="-5.6229350">
        <ele>686.6</ele>
        <time>2022-05-22T08:08:58Z</time>
      </trkpt>
      <trkpt lat="37.9522010" lon="-5.6229350">
        <ele>686.6</ele>
        <time>2022-05-22T08:08:59Z</time>
      </trkpt>
      <trkpt lat="37.9522170" lon="-5.6229340">
        <ele>686.6</ele>
        <time>2022-05-22T08:09:00Z</time>
      </trkpt>
      <trkpt lat="37.9522320" lon="-5.6229340">
        <ele>686.5</ele>
        <time>2022-05-22T08:09:01Z</time>
      </trkpt>
      <trkpt lat="37.9522460" lon="-5.6229360">
        <ele>686.5</ele>
        <time>2022-05-22T08:09:02Z</time>
      </trkpt>
      <trkpt lat="37.9522600" lon="-5.6229380">
        <ele>686.5</ele>
        <time>2022-05-22T08:09:03Z</time>
      </trkpt>
      <trkpt lat="37.9522750" lon="-5.6229410">
        <ele>686.5</ele>
        <time>2022-05-22T08:09:04Z</time>
      </trkpt>
      <trkpt lat="37.9522900" lon="-5.6229430">
        <ele>686.5</ele>
        <time>2022-05-22T08:09:05Z</time>
      </trkpt>
      <trkpt lat="37.9523030" lon="-5.6229460">
        <ele>686.5</ele>
        <time>2022-05-22T08:09:06Z</time>
      </trkpt>
      <trkpt lat="37.9523160" lon="-5.6229480">
        <ele>686.5</ele>
        <time>2022-05-22T08:09:07Z</time>
      </trkpt>
      <trkpt lat="37.9523280" lon="-5.6229480">
        <ele>686.5</ele>
        <time>2022-05-22T08:09:08Z</time>
      </trkpt>
      <trkpt lat="37.9523350" lon="-5.6229450">
        <ele>686.3</ele>
        <time>2022-05-22T08:09:09Z</time>
      </trkpt>
      <trkpt lat="37.9523370" lon="-5.6229280">
        <ele>686.3</ele>
        <time>2022-05-22T08:09:10Z</time>
      </trkpt>
      <trkpt lat="37.9523370" lon="-5.6229090">
        <ele>686.3</ele>
        <time>2022-05-22T08:09:11Z</time>
      </trkpt>
      <trkpt lat="37.9523380" lon="-5.6228950">
        <ele>686.2</ele>
        <time>2022-05-22T08:09:12Z</time>
      </trkpt>
      <trkpt lat="37.9523390" lon="-5.6228790">
        <ele>686.2</ele>
        <time>2022-05-22T08:09:13Z</time>
      </trkpt>
      <trkpt lat="37.9523430" lon="-5.6228650">
        <ele>686.2</ele>
        <time>2022-05-22T08:09:14Z</time>
      </trkpt>
      <trkpt lat="37.9523480" lon="-5.6228530">
        <ele>686.1</ele>
        <time>2022-05-22T08:09:15Z</time>
      </trkpt>
      <trkpt lat="37.9523560" lon="-5.6228360">
        <ele>686.1</ele>
        <time>2022-05-22T08:09:16Z</time>
      </trkpt>
      <trkpt lat="37.9523770" lon="-5.6228150">
        <ele>686.0</ele>
        <time>2022-05-22T08:09:18Z</time>
      </trkpt>
      <trkpt lat="37.9523900" lon="-5.6228030">
        <ele>686.0</ele>
        <time>2022-05-22T08:09:19Z</time>
      </trkpt>
      <trkpt lat="37.9524050" lon="-5.6227900">
        <ele>686.0</ele>
        <time>2022-05-22T08:09:20Z</time>
      </trkpt>
      <trkpt lat="37.9524280" lon="-5.6227670">
        <ele>685.9</ele>
        <time>2022-05-22T08:09:21Z</time>
      </trkpt>
      <trkpt lat="37.9524370" lon="-5.6227600">
        <ele>685.9</ele>
        <time>2022-05-22T08:09:22Z</time>
      </trkpt>
      <trkpt lat="37.9524580" lon="-5.6227470">
        <ele>685.8</ele>
        <time>2022-05-22T08:09:23Z</time>
      </trkpt>
      <trkpt lat="37.9524650" lon="-5.6227440">
        <ele>685.8</ele>
        <time>2022-05-22T08:09:24Z</time>
      </trkpt>
      <trkpt lat="37.9524730" lon="-5.6227410">
        <ele>685.8</ele>
        <time>2022-05-22T08:09:25Z</time>
      </trkpt>
      <trkpt lat="37.9524870" lon="-5.6227360">
        <ele>685.8</ele>
        <time>2022-05-22T08:09:26Z</time>
      </trkpt>
      <trkpt lat="37.9525230" lon="-5.6227350">
        <ele>685.7</ele>
        <time>2022-05-22T08:09:28Z</time>
      </trkpt>
      <trkpt lat="37.9525570" lon="-5.6227390">
        <ele>685.7</ele>
        <time>2022-05-22T08:09:29Z</time>
      </trkpt>
      <trkpt lat="37.9525730" lon="-5.6227430">
        <ele>685.6</ele>
        <time>2022-05-22T08:09:30Z</time>
      </trkpt>
      <trkpt lat="37.9526060" lon="-5.6227380">
        <ele>685.6</ele>
        <time>2022-05-22T08:09:31Z</time>
      </trkpt>
      <trkpt lat="37.9526130" lon="-5.6227340">
        <ele>685.6</ele>
        <time>2022-05-22T08:09:32Z</time>
      </trkpt>
      <trkpt lat="37.9526240" lon="-5.6227270">
        <ele>685.6</ele>
        <time>2022-05-22T08:09:33Z</time>
      </trkpt>
      <trkpt lat="37.9526360" lon="-5.6227170">
        <ele>685.5</ele>
        <time>2022-05-22T08:09:34Z</time>
      </trkpt>
      <trkpt lat="37.9526570" lon="-5.6226990">
        <ele>685.5</ele>
        <time>2022-05-22T08:09:35Z</time>
      </trkpt>
      <trkpt lat="37.9526690" lon="-5.6226900">
        <ele>685.5</ele>
        <time>2022-05-22T08:09:37Z</time>
      </trkpt>
      <trkpt lat="37.9526820" lon="-5.6226800">
        <ele>685.5</ele>
        <time>2022-05-22T08:09:38Z</time>
      </trkpt>
      <trkpt lat="37.9526940" lon="-5.6226730">
        <ele>685.5</ele>
        <time>2022-05-22T08:09:39Z</time>
      </trkpt>
      <trkpt lat="37.9527230" lon="-5.6226580">
        <ele>685.4</ele>
        <time>2022-05-22T08:09:40Z</time>
      </trkpt>
      <trkpt lat="37.9527290" lon="-5.6226530">
        <ele>685.4</ele>
        <time>2022-05-22T08:09:41Z</time>
      </trkpt>
      <trkpt lat="37.9527510" lon="-5.6226340">
        <ele>685.4</ele>
        <time>2022-05-22T08:09:42Z</time>
      </trkpt>
      <trkpt lat="37.9527600" lon="-5.6226270">
        <ele>685.4</ele>
        <time>2022-05-22T08:09:43Z</time>
      </trkpt>
      <trkpt lat="37.9527770" lon="-5.6226110">
        <ele>685.4</ele>
        <time>2022-05-22T08:09:44Z</time>
      </trkpt>
      <trkpt lat="37.9527840" lon="-5.6226050">
        <ele>685.4</ele>
        <time>2022-05-22T08:09:45Z</time>
      </trkpt>
      <trkpt lat="37.9527900" lon="-5.6225980">
        <ele>685.4</ele>
        <time>2022-05-22T08:09:46Z</time>
      </trkpt>
      <trkpt lat="37.9528030" lon="-5.6225750">
        <ele>685.4</ele>
        <time>2022-05-22T08:09:47Z</time>
      </trkpt>
      <trkpt lat="37.9528090" lon="-5.6225640">
        <ele>685.4</ele>
        <time>2022-05-22T08:09:48Z</time>
      </trkpt>
      <trkpt lat="37.9528150" lon="-5.6225530">
        <ele>685.4</ele>
        <time>2022-05-22T08:09:49Z</time>
      </trkpt>
      <trkpt lat="37.9528250" lon="-5.6225390">
        <ele>685.4</ele>
        <time>2022-05-22T08:09:50Z</time>
      </trkpt>
      <trkpt lat="37.9528360" lon="-5.6225250">
        <ele>685.4</ele>
        <time>2022-05-22T08:09:51Z</time>
      </trkpt>
      <trkpt lat="37.9528470" lon="-5.6225120">
        <ele>685.4</ele>
        <time>2022-05-22T08:09:52Z</time>
      </trkpt>
      <trkpt lat="37.9528560" lon="-5.6224960">
        <ele>685.4</ele>
        <time>2022-05-22T08:09:53Z</time>
      </trkpt>
      <trkpt lat="37.9528670" lon="-5.6224820">
        <ele>685.4</ele>
        <time>2022-05-22T08:09:54Z</time>
      </trkpt>
      <trkpt lat="37.9528770" lon="-5.6224670">
        <ele>685.4</ele>
        <time>2022-05-22T08:09:55Z</time>
      </trkpt>
      <trkpt lat="37.9528880" lon="-5.6224520">
        <ele>685.4</ele>
        <time>2022-05-22T08:09:56Z</time>
      </trkpt>
      <trkpt lat="37.9529020" lon="-5.6224360">
        <ele>685.4</ele>
        <time>2022-05-22T08:09:57Z</time>
      </trkpt>
      <trkpt lat="37.9529120" lon="-5.6224220">
        <ele>685.4</ele>
        <time>2022-05-22T08:09:58Z</time>
      </trkpt>
      <trkpt lat="37.9529220" lon="-5.6224080">
        <ele>685.4</ele>
        <time>2022-05-22T08:09:59Z</time>
      </trkpt>
      <trkpt lat="37.9529360" lon="-5.6223910">
        <ele>685.4</ele>
        <time>2022-05-22T08:10:00Z</time>
      </trkpt>
      <trkpt lat="37.9529530" lon="-5.6223650">
        <ele>685.4</ele>
        <time>2022-05-22T08:10:02Z</time>
      </trkpt>
      <trkpt lat="37.9529630" lon="-5.6223490">
        <ele>685.4</ele>
        <time>2022-05-22T08:10:03Z</time>
      </trkpt>
      <trkpt lat="37.9529720" lon="-5.6223370">
        <ele>685.4</ele>
        <time>2022-05-22T08:10:04Z</time>
      </trkpt>
      <trkpt lat="37.9529880" lon="-5.6223200">
        <ele>685.4</ele>
        <time>2022-05-22T08:10:05Z</time>
      </trkpt>
      <trkpt lat="37.9529980" lon="-5.6223110">
        <ele>685.4</ele>
        <time>2022-05-22T08:10:06Z</time>
      </trkpt>
      <trkpt lat="37.9530120" lon="-5.6222950">
        <ele>685.4</ele>
        <time>2022-05-22T08:10:07Z</time>
      </trkpt>
      <trkpt lat="37.9530190" lon="-5.6222870">
        <ele>685.4</ele>
        <time>2022-05-22T08:10:08Z</time>
      </trkpt>
      <trkpt lat="37.9530250" lon="-5.6222790">
        <ele>685.4</ele>
        <time>2022-05-22T08:10:09Z</time>
      </trkpt>
      <trkpt lat="37.9530380" lon="-5.6222650">
        <ele>685.5</ele>
        <time>2022-05-22T08:10:10Z</time>
      </trkpt>
      <trkpt lat="37.9530500" lon="-5.6222510">
        <ele>685.5</ele>
        <time>2022-05-22T08:10:11Z</time>
      </trkpt>
      <trkpt lat="37.9530620" lon="-5.6222360">
        <ele>685.5</ele>
        <time>2022-05-22T08:10:12Z</time>
      </trkpt>
      <trkpt lat="37.9530750" lon="-5.6222220">
        <ele>685.5</ele>
        <time>2022-05-22T08:10:13Z</time>
      </trkpt>
      <trkpt lat="37.9530860" lon="-5.6222110">
        <ele>685.6</ele>
        <time>2022-05-22T08:10:14Z</time>
      </trkpt>
      <trkpt lat="37.9530970" lon="-5.6222000">
        <ele>685.6</ele>
        <time>2022-05-22T08:10:15Z</time>
      </trkpt>
      <trkpt lat="37.9531120" lon="-5.6221820">
        <ele>685.7</ele>
        <time>2022-05-22T08:10:16Z</time>
      </trkpt>
      <trkpt lat="37.9531180" lon="-5.6221730">
        <ele>685.7</ele>
        <time>2022-05-22T08:10:17Z</time>
      </trkpt>
      <trkpt lat="37.9531230" lon="-5.6221650">
        <ele>685.7</ele>
        <time>2022-05-22T08:10:18Z</time>
      </trkpt>
      <trkpt lat="37.9531280" lon="-5.6221540">
        <ele>685.8</ele>
        <time>2022-05-22T08:10:19Z</time>
      </trkpt>
      <trkpt lat="37.9531340" lon="-5.6221410">
        <ele>685.8</ele>
        <time>2022-05-22T08:10:20Z</time>
      </trkpt>
      <trkpt lat="37.9531410" lon="-5.6221260">
        <ele>685.9</ele>
        <time>2022-05-22T08:10:21Z</time>
      </trkpt>
      <trkpt lat="37.9531530" lon="-5.6221040">
        <ele>685.9</ele>
        <time>2022-05-22T08:10:22Z</time>
      </trkpt>
      <trkpt lat="37.9531580" lon="-5.6220960">
        <ele>686.0</ele>
        <time>2022-05-22T08:10:23Z</time>
      </trkpt>
      <trkpt lat="37.9531630" lon="-5.6220880">
        <ele>686.0</ele>
        <time>2022-05-22T08:10:24Z</time>
      </trkpt>
      <trkpt lat="37.9531750" lon="-5.6220690">
        <ele>686.1</ele>
        <time>2022-05-22T08:10:25Z</time>
      </trkpt>
      <trkpt lat="37.9531820" lon="-5.6220570">
        <ele>686.1</ele>
        <time>2022-05-22T08:10:26Z</time>
      </trkpt>
      <trkpt lat="37.9531920" lon="-5.6220410">
        <ele>686.2</ele>
        <time>2022-05-22T08:10:27Z</time>
      </trkpt>
      <trkpt lat="37.9532000" lon="-5.6220280">
        <ele>686.2</ele>
        <time>2022-05-22T08:10:28Z</time>
      </trkpt>
      <trkpt lat="37.9532130" lon="-5.6220050">
        <ele>686.3</ele>
        <time>2022-05-22T08:10:29Z</time>
      </trkpt>
      <trkpt lat="37.9532190" lon="-5.6219970">
        <ele>686.4</ele>
        <time>2022-05-22T08:10:30Z</time>
      </trkpt>
      <trkpt lat="37.9532240" lon="-5.6219880">
        <ele>686.4</ele>
        <time>2022-05-22T08:10:31Z</time>
      </trkpt>
      <trkpt lat="37.9532330" lon="-5.6219700">
        <ele>686.5</ele>
        <time>2022-05-22T08:10:33Z</time>
      </trkpt>
      <trkpt lat="37.9532400" lon="-5.6219560">
        <ele>686.6</ele>
        <time>2022-05-22T08:10:34Z</time>
      </trkpt>
      <trkpt lat="37.9532560" lon="-5.6219230">
        <ele>686.7</ele>
        <time>2022-05-22T08:10:35Z</time>
      </trkpt>
      <trkpt lat="37.9532590" lon="-5.6219160">
        <ele>686.7</ele>
        <time>2022-05-22T08:10:36Z</time>
      </trkpt>
      <trkpt lat="37.9532640" lon="-5.6218990">
        <ele>686.8</ele>
        <time>2022-05-22T08:10:37Z</time>
      </trkpt>
      <trkpt lat="37.9532700" lon="-5.6218820">
        <ele>686.9</ele>
        <time>2022-05-22T08:10:38Z</time>
      </trkpt>
      <trkpt lat="37.9532780" lon="-5.6218560">
        <ele>687.0</ele>
        <time>2022-05-22T08:10:39Z</time>
      </trkpt>
      <trkpt lat="37.9532810" lon="-5.6218450">
        <ele>687.0</ele>
        <time>2022-05-22T08:10:40Z</time>
      </trkpt>
      <trkpt lat="37.9532850" lon="-5.6218350">
        <ele>687.0</ele>
        <time>2022-05-22T08:10:41Z</time>
      </trkpt>
      <trkpt lat="37.9532880" lon="-5.6218200">
        <ele>687.1</ele>
        <time>2022-05-22T08:10:42Z</time>
      </trkpt>
      <trkpt lat="37.9532910" lon="-5.6218090">
        <ele>687.1</ele>
        <time>2022-05-22T08:10:43Z</time>
      </trkpt>
      <trkpt lat="37.9532910" lon="-5.6218010">
        <ele>687.1</ele>
        <time>2022-05-22T08:10:44Z</time>
      </trkpt>
      <trkpt lat="37.9532960" lon="-5.6217890">
        <ele>687.2</ele>
        <time>2022-05-22T08:10:45Z</time>
      </trkpt>
      <trkpt lat="37.9533060" lon="-5.6217600">
        <ele>687.3</ele>
        <time>2022-05-22T08:10:47Z</time>
      </trkpt>
      <trkpt lat="37.9533120" lon="-5.6217390">
        <ele>687.4</ele>
        <time>2022-05-22T08:10:48Z</time>
      </trkpt>
      <trkpt lat="37.9533170" lon="-5.6217250">
        <ele>687.4</ele>
        <time>2022-05-22T08:10:50Z</time>
      </trkpt>
      <trkpt lat="37.9533230" lon="-5.6217090">
        <ele>687.5</ele>
        <time>2022-05-22T08:10:51Z</time>
      </trkpt>
      <trkpt lat="37.9533270" lon="-5.6216980">
        <ele>687.5</ele>
        <time>2022-05-22T08:10:52Z</time>
      </trkpt>
      <trkpt lat="37.9533310" lon="-5.6216870">
        <ele>687.5</ele>
        <time>2022-05-22T08:10:53Z</time>
      </trkpt>
      <trkpt lat="37.9533360" lon="-5.6216760">
        <ele>687.6</ele>
        <time>2022-05-22T08:10:54Z</time>
      </trkpt>
      <trkpt lat="37.9533430" lon="-5.6216620">
        <ele>687.6</ele>
        <time>2022-05-22T08:10:55Z</time>
      </trkpt>
      <trkpt lat="37.9533470" lon="-5.6216530">
        <ele>687.6</ele>
        <time>2022-05-22T08:10:56Z</time>
      </trkpt>
      <trkpt lat="37.9533530" lon="-5.6216420">
        <ele>687.7</ele>
        <time>2022-05-22T08:10:57Z</time>
      </trkpt>
      <trkpt lat="37.9533580" lon="-5.6216270">
        <ele>687.7</ele>
        <time>2022-05-22T08:10:58Z</time>
      </trkpt>
      <trkpt lat="37.9533700" lon="-5.6216020">
        <ele>687.8</ele>
        <time>2022-05-22T08:11:00Z</time>
      </trkpt>
      <trkpt lat="37.9533810" lon="-5.6215810">
        <ele>687.8</ele>
        <time>2022-05-22T08:11:01Z</time>
      </trkpt>
      <trkpt lat="37.9533850" lon="-5.6215720">
        <ele>687.9</ele>
        <time>2022-05-22T08:11:02Z</time>
      </trkpt>
      <trkpt lat="37.9533900" lon="-5.6215630">
        <ele>687.9</ele>
        <time>2022-05-22T08:11:03Z</time>
      </trkpt>
      <trkpt lat="37.9534060" lon="-5.6215320">
        <ele>687.9</ele>
        <time>2022-05-22T08:11:05Z</time>
      </trkpt>
      <trkpt lat="37.9534100" lon="-5.6215230">
        <ele>687.9</ele>
        <time>2022-05-22T08:11:06Z</time>
      </trkpt>
      <trkpt lat="37.9534150" lon="-5.6215090">
        <ele>687.9</ele>
        <time>2022-05-22T08:11:07Z</time>
      </trkpt>
      <trkpt lat="37.9534190" lon="-5.6214970">
        <ele>688.0</ele>
        <time>2022-05-22T08:11:08Z</time>
      </trkpt>
      <trkpt lat="37.9534210" lon="-5.6214820">
        <ele>688.0</ele>
        <time>2022-05-22T08:11:09Z</time>
      </trkpt>
      <trkpt lat="37.9534220" lon="-5.6214680">
        <ele>688.0</ele>
        <time>2022-05-22T08:11:10Z</time>
      </trkpt>
      <trkpt lat="37.9534230" lon="-5.6214320">
        <ele>688.0</ele>
        <time>2022-05-22T08:11:12Z</time>
      </trkpt>
      <trkpt lat="37.9534140" lon="-5.6214080">
        <ele>688.0</ele>
        <time>2022-05-22T08:11:13Z</time>
      </trkpt>
      <trkpt lat="37.9534080" lon="-5.6213980">
        <ele>688.0</ele>
        <time>2022-05-22T08:11:14Z</time>
      </trkpt>
      <trkpt lat="37.9534030" lon="-5.6213880">
        <ele>688.0</ele>
        <time>2022-05-22T08:11:15Z</time>
      </trkpt>
      <trkpt lat="37.9533770" lon="-5.6213700">
        <ele>688.0</ele>
        <time>2022-05-22T08:11:16Z</time>
      </trkpt>
      <trkpt lat="37.9533650" lon="-5.6213660">
        <ele>688.0</ele>
        <time>2022-05-22T08:11:17Z</time>
      </trkpt>
      <trkpt lat="37.9533570" lon="-5.6213570">
        <ele>688.0</ele>
        <time>2022-05-22T08:11:18Z</time>
      </trkpt>
      <trkpt lat="37.9533410" lon="-5.6213490">
        <ele>688.0</ele>
        <time>2022-05-22T08:11:19Z</time>
      </trkpt>
      <trkpt lat="37.9533240" lon="-5.6213430">
        <ele>688.0</ele>
        <time>2022-05-22T08:11:20Z</time>
      </trkpt>
      <trkpt lat="37.9533090" lon="-5.6213410">
        <ele>688.0</ele>
        <time>2022-05-22T08:11:21Z</time>
      </trkpt>
      <trkpt lat="37.9532940" lon="-5.6213390">
        <ele>688.0</ele>
        <time>2022-05-22T08:11:22Z</time>
      </trkpt>
      <trkpt lat="37.9532780" lon="-5.6213340">
        <ele>688.0</ele>
        <time>2022-05-22T08:11:23Z</time>
      </trkpt>
      <trkpt lat="37.9532710" lon="-5.6213300">
        <ele>688.0</ele>
        <time>2022-05-22T08:11:24Z</time>
      </trkpt>
      <trkpt lat="37.9532700" lon="-5.6213300">
        <ele>688.0</ele>
        <time>2022-05-22T08:11:25Z</time>
      </trkpt>
      <trkpt lat="37.9532700" lon="-5.6213300">
        <ele>688.0</ele>
        <time>2022-05-22T08:11:27Z</time>
      </trkpt>
      <trkpt lat="37.9532690" lon="-5.6213300">
        <ele>688.0</ele>
        <time>2022-05-22T08:11:28Z</time>
      </trkpt>
      <trkpt lat="37.9532680" lon="-5.6213300">
        <ele>688.0</ele>
        <time>2022-05-22T08:11:29Z</time>
      </trkpt>
      <trkpt lat="37.9532670" lon="-5.6213300">
        <ele>688.0</ele>
        <time>2022-05-22T08:11:30Z</time>
      </trkpt>
      <trkpt lat="37.9532670" lon="-5.6213300">
        <ele>688.0</ele>
        <time>2022-05-22T08:11:31Z</time>
      </trkpt>
      <trkpt lat="37.9532660" lon="-5.6213300">
        <ele>688.0</ele>
        <time>2022-05-22T08:11:32Z</time>
      </trkpt>
      <trkpt lat="37.9532650" lon="-5.6213300">
        <ele>688.0</ele>
        <time>2022-05-22T08:11:33Z</time>
      </trkpt>
      <trkpt lat="37.9532650" lon="-5.6213300">
        <ele>688.0</ele>
        <time>2022-05-22T08:11:34Z</time>
      </trkpt>
      <trkpt lat="37.9532640" lon="-5.6213300">
        <ele>688.0</ele>
        <time>2022-05-22T08:11:35Z</time>
      </trkpt>
      <trkpt lat="37.9532630" lon="-5.6213300">
        <ele>688.0</ele>
        <time>2022-05-22T08:11:36Z</time>
      </trkpt>
      <trkpt lat="37.9532620" lon="-5.6213290">
        <ele>688.0</ele>
        <time>2022-05-22T08:11:37Z</time>
      </trkpt>
      <trkpt lat="37.9532620" lon="-5.6213290">
        <ele>688.0</ele>
        <time>2022-05-22T08:11:38Z</time>
      </trkpt>
      <trkpt lat="37.9532610" lon="-5.6213290">
        <ele>688.0</ele>
        <time>2022-05-22T08:11:39Z</time>
      </trkpt>
      <trkpt lat="37.9532600" lon="-5.6213290">
        <ele>688.0</ele>
        <time>2022-05-22T08:11:40Z</time>
      </trkpt>
      <trkpt lat="37.9532600" lon="-5.6213290">
        <ele>688.0</ele>
        <time>2022-05-22T08:11:41Z</time>
      </trkpt>
      <trkpt lat="37.9532590" lon="-5.6213290">
        <ele>688.0</ele>
        <time>2022-05-22T08:11:42Z</time>
      </trkpt>
      <trkpt lat="37.9532580" lon="-5.6213290">
        <ele>688.0</ele>
        <time>2022-05-22T08:11:43Z</time>
      </trkpt>
      <trkpt lat="37.9532570" lon="-5.6213290">
        <ele>688.0</ele>
        <time>2022-05-22T08:11:44Z</time>
      </trkpt>
      <trkpt lat="37.9532570" lon="-5.6213290">
        <ele>688.0</ele>
        <time>2022-05-22T08:11:45Z</time>
      </trkpt>
      <trkpt lat="37.9532560" lon="-5.6213290">
        <ele>688.0</ele>
        <time>2022-05-22T08:11:46Z</time>
      </trkpt>
      <trkpt lat="37.9532550" lon="-5.6213290">
        <ele>688.0</ele>
        <time>2022-05-22T08:11:47Z</time>
      </trkpt>
      <trkpt lat="37.9532550" lon="-5.6213290">
        <ele>688.0</ele>
        <time>2022-05-22T08:11:48Z</time>
      </trkpt>
      <trkpt lat="37.9532540" lon="-5.6213290">
        <ele>688.0</ele>
        <time>2022-05-22T08:11:49Z</time>
      </trkpt>
      <trkpt lat="37.9532530" lon="-5.6213290">
        <ele>688.0</ele>
        <time>2022-05-22T08:11:50Z</time>
      </trkpt>
      <trkpt lat="37.9532520" lon="-5.6213290">
        <ele>688.0</ele>
        <time>2022-05-22T08:11:51Z</time>
      </trkpt>
      <trkpt lat="37.9532520" lon="-5.6213290">
        <ele>688.0</ele>
        <time>2022-05-22T08:11:52Z</time>
      </trkpt>
      <trkpt lat="37.9532510" lon="-5.6213290">
        <ele>688.0</ele>
        <time>2022-05-22T08:11:53Z</time>
      </trkpt>
      <trkpt lat="37.9532500" lon="-5.6213290">
        <ele>688.0</ele>
        <time>2022-05-22T08:11:54Z</time>
      </trkpt>
      <trkpt lat="37.9532500" lon="-5.6213290">
        <ele>688.0</ele>
        <time>2022-05-22T08:11:55Z</time>
      </trkpt>
      <trkpt lat="37.9532490" lon="-5.6213290">
        <ele>688.0</ele>
        <time>2022-05-22T08:11:56Z</time>
      </trkpt>
      <trkpt lat="37.9532480" lon="-5.6213290">
        <ele>688.0</ele>
        <time>2022-05-22T08:11:57Z</time>
      </trkpt>
      <trkpt lat="37.9532470" lon="-5.6213290">
        <ele>688.0</ele>
        <time>2022-05-22T08:11:58Z</time>
      </trkpt>
      <trkpt lat="37.9532470" lon="-5.6213290">
        <ele>688.0</ele>
        <time>2022-05-22T08:11:59Z</time>
      </trkpt>
      <trkpt lat="37.9532460" lon="-5.6213290">
        <ele>688.0</ele>
        <time>2022-05-22T08:12:00Z</time>
      </trkpt>
      <trkpt lat="37.9532450" lon="-5.6213290">
        <ele>688.0</ele>
        <time>2022-05-22T08:12:01Z</time>
      </trkpt>
      <trkpt lat="37.9532450" lon="-5.6213290">
        <ele>688.0</ele>
        <time>2022-05-22T08:12:02Z</time>
      </trkpt>
      <trkpt lat="37.9532440" lon="-5.6213290">
        <ele>688.0</ele>
        <time>2022-05-22T08:12:03Z</time>
      </trkpt>
      <trkpt lat="37.9532430" lon="-5.6213290">
        <ele>688.0</ele>
        <time>2022-05-22T08:12:04Z</time>
      </trkpt>
      <trkpt lat="37.9532420" lon="-5.6213290">
        <ele>688.0</ele>
        <time>2022-05-22T08:12:05Z</time>
      </trkpt>
      <trkpt lat="37.9532420" lon="-5.6213290">
        <ele>688.0</ele>
        <time>2022-05-22T08:12:06Z</time>
      </trkpt>
      <trkpt lat="37.9532410" lon="-5.6213290">
        <ele>688.0</ele>
        <time>2022-05-22T08:12:07Z</time>
      </trkpt>
      <trkpt lat="37.9532290" lon="-5.6213270">
        <ele>688.0</ele>
        <time>2022-05-22T08:12:08Z</time>
      </trkpt>
      <trkpt lat="37.9532160" lon="-5.6213270">
        <ele>688.0</ele>
        <time>2022-05-22T08:12:09Z</time>
      </trkpt>
      <trkpt lat="37.9532100" lon="-5.6213280">
        <ele>688.0</ele>
        <time>2022-05-22T08:12:10Z</time>
      </trkpt>
      <trkpt lat="37.9531980" lon="-5.6213280">
        <ele>688.0</ele>
        <time>2022-05-22T08:12:11Z</time>
      </trkpt>
      <trkpt lat="37.9531870" lon="-5.6213290">
        <ele>688.0</ele>
        <time>2022-05-22T08:12:12Z</time>
      </trkpt>
      <trkpt lat="37.9531750" lon="-5.6213330">
        <ele>688.0</ele>
        <time>2022-05-22T08:12:13Z</time>
      </trkpt>
      <trkpt lat="37.9531540" lon="-5.6213390">
        <ele>688.0</ele>
        <time>2022-05-22T08:12:14Z</time>
      </trkpt>
      <trkpt lat="37.9531470" lon="-5.6213410">
        <ele>688.0</ele>
        <time>2022-05-22T08:12:15Z</time>
      </trkpt>
      <trkpt lat="37.9531390" lon="-5.6213420">
        <ele>688.0</ele>
        <time>2022-05-22T08:12:16Z</time>
      </trkpt>
      <trkpt lat="37.9531220" lon="-5.6213440">
        <ele>688.0</ele>
        <time>2022-05-22T08:12:17Z</time>
      </trkpt>
      <trkpt lat="37.9531160" lon="-5.6213470">
        <ele>688.0</ele>
        <time>2022-05-22T08:12:18Z</time>
      </trkpt>
      <trkpt lat="37.9531100" lon="-5.6213490">
        <ele>688.0</ele>
        <time>2022-05-22T08:12:19Z</time>
      </trkpt>
      <trkpt lat="37.9531030" lon="-5.6213510">
        <ele>688.0</ele>
        <time>2022-05-22T08:12:20Z</time>
      </trkpt>
      <trkpt lat="37.9530830" lon="-5.6213560">
        <ele>688.0</ele>
        <time>2022-05-22T08:12:21Z</time>
      </trkpt>
      <trkpt lat="37.9530720" lon="-5.6213580">
        <ele>688.0</ele>
        <time>2022-05-22T08:12:22Z</time>
      </trkpt>
      <trkpt lat="37.9530620" lon="-5.6213590">
        <ele>688.0</ele>
        <time>2022-05-22T08:12:23Z</time>
      </trkpt>
      <trkpt lat="37.9530440" lon="-5.6213600">
        <ele>688.0</ele>
        <time>2022-05-22T08:12:24Z</time>
      </trkpt>
      <trkpt lat="37.9530300" lon="-5.6213600">
        <ele>688.0</ele>
        <time>2022-05-22T08:12:25Z</time>
      </trkpt>
      <trkpt lat="37.9530090" lon="-5.6213580">
        <ele>688.0</ele>
        <time>2022-05-22T08:12:26Z</time>
      </trkpt>
      <trkpt lat="37.9529940" lon="-5.6213550">
        <ele>688.0</ele>
        <time>2022-05-22T08:12:28Z</time>
      </trkpt>
      <trkpt lat="37.9529720" lon="-5.6213540">
        <ele>688.0</ele>
        <time>2022-05-22T08:12:29Z</time>
      </trkpt>
      <trkpt lat="37.9529630" lon="-5.6213540">
        <ele>688.0</ele>
        <time>2022-05-22T08:12:30Z</time>
      </trkpt>
      <trkpt lat="37.9529550" lon="-5.6213540">
        <ele>688.0</ele>
        <time>2022-05-22T08:12:31Z</time>
      </trkpt>
      <trkpt lat="37.9529340" lon="-5.6213510">
        <ele>688.0</ele>
        <time>2022-05-22T08:12:32Z</time>
      </trkpt>
      <trkpt lat="37.9529240" lon="-5.6213460">
        <ele>688.0</ele>
        <time>2022-05-22T08:12:33Z</time>
      </trkpt>
      <trkpt lat="37.9529110" lon="-5.6213410">
        <ele>688.0</ele>
        <time>2022-05-22T08:12:34Z</time>
      </trkpt>
      <trkpt lat="37.9528980" lon="-5.6213360">
        <ele>688.0</ele>
        <time>2022-05-22T08:12:35Z</time>
      </trkpt>
      <trkpt lat="37.9528840" lon="-5.6213350">
        <ele>688.1</ele>
        <time>2022-05-22T08:12:36Z</time>
      </trkpt>
      <trkpt lat="37.9528570" lon="-5.6213360">
        <ele>688.1</ele>
        <time>2022-05-22T08:12:38Z</time>
      </trkpt>
      <trkpt lat="37.9528380" lon="-5.6213290">
        <ele>688.1</ele>
        <time>2022-05-22T08:12:40Z</time>
      </trkpt>
      <trkpt lat="37.9528270" lon="-5.6213220">
        <ele>688.1</ele>
        <time>2022-05-22T08:12:41Z</time>
      </trkpt>
      <trkpt lat="37.9528160" lon="-5.6213120">
        <ele>688.1</ele>
        <time>2022-05-22T08:12:42Z</time>
      </trkpt>
      <trkpt lat="37.9528040" lon="-5.6212960">
        <ele>688.1</ele>
        <time>2022-05-22T08:12:43Z</time>
      </trkpt>
      <trkpt lat="37.9527910" lon="-5.6212740">
        <ele>688.1</ele>
        <time>2022-05-22T08:12:44Z</time>
      </trkpt>
      <trkpt lat="37.9527850" lon="-5.6212640">
        <ele>688.1</ele>
        <time>2022-05-22T08:12:45Z</time>
      </trkpt>
      <trkpt lat="37.9527800" lon="-5.6212540">
        <ele>688.2</ele>
        <time>2022-05-22T08:12:46Z</time>
      </trkpt>
      <trkpt lat="37.9527610" lon="-5.6212310">
        <ele>688.2</ele>
        <time>2022-05-22T08:12:47Z</time>
      </trkpt>
      <trkpt lat="37.9527500" lon="-5.6212200">
        <ele>688.2</ele>
        <time>2022-05-22T08:12:49Z</time>
      </trkpt>
      <trkpt lat="37.9527390" lon="-5.6212090">
        <ele>688.2</ele>
        <time>2022-05-22T08:12:50Z</time>
      </trkpt>
      <trkpt lat="37.9527320" lon="-5.6212010">
        <ele>688.2</ele>
        <time>2022-05-22T08:12:51Z</time>
      </trkpt>
      <trkpt lat="37.9527230" lon="-5.6211900">
        <ele>688.3</ele>
        <time>2022-05-22T08:12:53Z</time>
      </trkpt>
      <trkpt lat="37.9527140" lon="-5.6211890">
        <ele>688.3</ele>
        <time>2022-05-22T08:12:54Z</time>
      </trkpt>
      <trkpt lat="37.9527080" lon="-5.6211910">
        <ele>688.3</ele>
        <time>2022-05-22T08:12:55Z</time>
      </trkpt>
      <trkpt lat="37.9527080" lon="-5.6211920">
        <ele>688.3</ele>
        <time>2022-05-22T08:12:56Z</time>
      </trkpt>
      <trkpt lat="37.9526980" lon="-5.6211950">
        <ele>688.3</ele>
        <time>2022-05-22T08:12:58Z</time>
      </trkpt>
      <trkpt lat="37.9527000" lon="-5.6211860">
        <ele>688.3</ele>
        <time>2022-05-22T08:13:00Z</time>
      </trkpt>
      <trkpt lat="37.9527070" lon="-5.6211790">
        <ele>688.3</ele>
        <time>2022-05-22T08:13:01Z</time>
      </trkpt>
      <trkpt lat="37.9527120" lon="-5.6211770">
        <ele>688.3</ele>
        <time>2022-05-22T08:13:02Z</time>
      </trkpt>
      <trkpt lat="37.9527160" lon="-5.6211760">
        <ele>688.3</ele>
        <time>2022-05-22T08:13:03Z</time>
      </trkpt>
      <trkpt lat="37.9527190" lon="-5.6211760">
        <ele>688.3</ele>
        <time>2022-05-22T08:13:04Z</time>
      </trkpt>
      <trkpt lat="37.9527210" lon="-5.6211760">
        <ele>688.3</ele>
        <time>2022-05-22T08:13:05Z</time>
      </trkpt>
      <trkpt lat="37.9527230" lon="-5.6211760">
        <ele>688.3</ele>
        <time>2022-05-22T08:13:06Z</time>
      </trkpt>
      <trkpt lat="37.9527230" lon="-5.6211750">
        <ele>688.3</ele>
        <time>2022-05-22T08:13:07Z</time>
      </trkpt>
      <trkpt lat="37.9527230" lon="-5.6211740">
        <ele>688.3</ele>
        <time>2022-05-22T08:13:08Z</time>
      </trkpt>
      <trkpt lat="37.9527240" lon="-5.6211720">
        <ele>688.3</ele>
        <time>2022-05-22T08:13:09Z</time>
      </trkpt>
      <trkpt lat="37.9527240" lon="-5.6211710">
        <ele>688.3</ele>
        <time>2022-05-22T08:13:10Z</time>
      </trkpt>
      <trkpt lat="37.9527240" lon="-5.6211690">
        <ele>688.3</ele>
        <time>2022-05-22T08:13:11Z</time>
      </trkpt>
      <trkpt lat="37.9527230" lon="-5.6211680">
        <ele>688.3</ele>
        <time>2022-05-22T08:13:12Z</time>
      </trkpt>
      <trkpt lat="37.9527220" lon="-5.6211670">
        <ele>688.3</ele>
        <time>2022-05-22T08:13:13Z</time>
      </trkpt>
      <trkpt lat="37.9527220" lon="-5.6211660">
        <ele>688.3</ele>
        <time>2022-05-22T08:13:14Z</time>
      </trkpt>
      <trkpt lat="37.9527210" lon="-5.6211660">
        <ele>688.3</ele>
        <time>2022-05-22T08:13:15Z</time>
      </trkpt>
      <trkpt lat="37.9527200" lon="-5.6211660">
        <ele>688.3</ele>
        <time>2022-05-22T08:13:16Z</time>
      </trkpt>
      <trkpt lat="37.9527190" lon="-5.6211660">
        <ele>688.3</ele>
        <time>2022-05-22T08:13:17Z</time>
      </trkpt>
      <trkpt lat="37.9527180" lon="-5.6211650">
        <ele>688.3</ele>
        <time>2022-05-22T08:13:18Z</time>
      </trkpt>
      <trkpt lat="37.9527190" lon="-5.6211680">
        <ele>688.3</ele>
        <time>2022-05-22T08:13:19Z</time>
      </trkpt>
      <trkpt lat="37.9527190" lon="-5.6211690">
        <ele>688.4</ele>
        <time>2022-05-22T08:13:20Z</time>
      </trkpt>
      <trkpt lat="37.9527190" lon="-5.6211690">
        <ele>688.4</ele>
        <time>2022-05-22T08:13:21Z</time>
      </trkpt>
      <trkpt lat="37.9527190" lon="-5.6211690">
        <ele>688.4</ele>
        <time>2022-05-22T08:13:23Z</time>
      </trkpt>
      <trkpt lat="37.9527190" lon="-5.6211700">
        <ele>688.4</ele>
        <time>2022-05-22T08:13:24Z</time>
      </trkpt>
      <trkpt lat="37.9527190" lon="-5.6211700">
        <ele>688.4</ele>
        <time>2022-05-22T08:13:25Z</time>
      </trkpt>
      <trkpt lat="37.9527160" lon="-5.6211660">
        <ele>688.4</ele>
        <time>2022-05-22T08:13:26Z</time>
      </trkpt>
      <trkpt lat="37.9527090" lon="-5.6211580">
        <ele>688.4</ele>
        <time>2022-05-22T08:13:27Z</time>
      </trkpt>
      <trkpt lat="37.9527000" lon="-5.6211490">
        <ele>688.4</ele>
        <time>2022-05-22T08:13:28Z</time>
      </trkpt>
      <trkpt lat="37.9526910" lon="-5.6211380">
        <ele>688.4</ele>
        <time>2022-05-22T08:13:29Z</time>
      </trkpt>
      <trkpt lat="37.9526830" lon="-5.6211290">
        <ele>688.4</ele>
        <time>2022-05-22T08:13:30Z</time>
      </trkpt>
      <trkpt lat="37.9526750" lon="-5.6211180">
        <ele>688.4</ele>
        <time>2022-05-22T08:13:31Z</time>
      </trkpt>
      <trkpt lat="37.9526670" lon="-5.6211060">
        <ele>688.4</ele>
        <time>2022-05-22T08:13:32Z</time>
      </trkpt>
      <trkpt lat="37.9526630" lon="-5.6211190">
        <ele>688.4</ele>
        <time>2022-05-22T08:13:33Z</time>
      </trkpt>
      <trkpt lat="37.9526590" lon="-5.6211190">
        <ele>688.4</ele>
        <time>2022-05-22T08:13:34Z</time>
      </trkpt>
      <trkpt lat="37.9526560" lon="-5.6211150">
        <ele>688.4</ele>
        <time>2022-05-22T08:13:35Z</time>
      </trkpt>
      <trkpt lat="37.9526550" lon="-5.6211110">
        <ele>688.4</ele>
        <time>2022-05-22T08:13:37Z</time>
      </trkpt>
      <trkpt lat="37.9526510" lon="-5.6211070">
        <ele>688.4</ele>
        <time>2022-05-22T08:13:38Z</time>
      </trkpt>
      <trkpt lat="37.9526430" lon="-5.6211020">
        <ele>688.4</ele>
        <time>2022-05-22T08:13:39Z</time>
      </trkpt>
      <trkpt lat="37.9526330" lon="-5.6210930">
        <ele>688.4</ele>
        <time>2022-05-22T08:13:40Z</time>
      </trkpt>
      <trkpt lat="37.9526180" lon="-5.6210750">
        <ele>688.4</ele>
        <time>2022-05-22T08:13:41Z</time>
      </trkpt>
      <trkpt lat="37.9526090" lon="-5.6210580">
        <ele>688.4</ele>
        <time>2022-05-22T08:13:42Z</time>
      </trkpt>
      <trkpt lat="37.9526000" lon="-5.6210410">
        <ele>688.4</ele>
        <time>2022-05-22T08:13:43Z</time>
      </trkpt>
      <trkpt lat="37.9525910" lon="-5.6210260">
        <ele>688.4</ele>
        <time>2022-05-22T08:13:44Z</time>
      </trkpt>
      <trkpt lat="37.9525820" lon="-5.6210120">
        <ele>688.3</ele>
        <time>2022-05-22T08:13:45Z</time>
      </trkpt>
      <trkpt lat="37.9525700" lon="-5.6209960">
        <ele>688.3</ele>
        <time>2022-05-22T08:13:47Z</time>
      </trkpt>
      <trkpt lat="37.9525600" lon="-5.6209860">
        <ele>688.3</ele>
        <time>2022-05-22T08:13:48Z</time>
      </trkpt>
      <trkpt lat="37.9525440" lon="-5.6209730">
        <ele>688.3</ele>
        <time>2022-05-22T08:13:49Z</time>
      </trkpt>
      <trkpt lat="37.9525310" lon="-5.6209670">
        <ele>688.3</ele>
        <time>2022-05-22T08:13:50Z</time>
      </trkpt>
      <trkpt lat="37.9525180" lon="-5.6209610">
        <ele>688.3</ele>
        <time>2022-05-22T08:13:51Z</time>
      </trkpt>
      <trkpt lat="37.9525070" lon="-5.6209550">
        <ele>688.3</ele>
        <time>2022-05-22T08:13:52Z</time>
      </trkpt>
      <trkpt lat="37.9524980" lon="-5.6209490">
        <ele>688.3</ele>
        <time>2022-05-22T08:13:53Z</time>
      </trkpt>
      <trkpt lat="37.9524830" lon="-5.6209290">
        <ele>688.3</ele>
        <time>2022-05-22T08:13:54Z</time>
      </trkpt>
      <trkpt lat="37.9524790" lon="-5.6209190">
        <ele>688.2</ele>
        <time>2022-05-22T08:13:55Z</time>
      </trkpt>
      <trkpt lat="37.9524750" lon="-5.6209090">
        <ele>688.2</ele>
        <time>2022-05-22T08:13:56Z</time>
      </trkpt>
      <trkpt lat="37.9524710" lon="-5.6208980">
        <ele>688.2</ele>
        <time>2022-05-22T08:13:57Z</time>
      </trkpt>
      <trkpt lat="37.9524630" lon="-5.6208880">
        <ele>688.2</ele>
        <time>2022-05-22T08:13:58Z</time>
      </trkpt>
      <trkpt lat="37.9524500" lon="-5.6208810">
        <ele>688.2</ele>
        <time>2022-05-22T08:13:59Z</time>
      </trkpt>
      <trkpt lat="37.9524310" lon="-5.6208730">
        <ele>688.2</ele>
        <time>2022-05-22T08:14:00Z</time>
      </trkpt>
      <trkpt lat="37.9524220" lon="-5.6208690">
        <ele>688.2</ele>
        <time>2022-05-22T08:14:01Z</time>
      </trkpt>
      <trkpt lat="37.9524130" lon="-5.6208660">
        <ele>688.2</ele>
        <time>2022-05-22T08:14:02Z</time>
      </trkpt>
      <trkpt lat="37.9523930" lon="-5.6208600">
        <ele>688.3</ele>
        <time>2022-05-22T08:14:03Z</time>
      </trkpt>
      <trkpt lat="37.9523840" lon="-5.6208580">
        <ele>688.3</ele>
        <time>2022-05-22T08:14:04Z</time>
      </trkpt>
      <trkpt lat="37.9523740" lon="-5.6208560">
        <ele>688.3</ele>
        <time>2022-05-22T08:14:05Z</time>
      </trkpt>
      <trkpt lat="37.9523620" lon="-5.6208540">
        <ele>688.3</ele>
        <time>2022-05-22T08:14:06Z</time>
      </trkpt>
      <trkpt lat="37.9523430" lon="-5.6208570">
        <ele>688.3</ele>
        <time>2022-05-22T08:14:07Z</time>
      </trkpt>
      <trkpt lat="37.9523290" lon="-5.6208580">
        <ele>688.3</ele>
        <time>2022-05-22T08:14:08Z</time>
      </trkpt>
      <trkpt lat="37.9523190" lon="-5.6208600">
        <ele>688.3</ele>
        <time>2022-05-22T08:14:09Z</time>
      </trkpt>
      <trkpt lat="37.9523070" lon="-5.6208610">
        <ele>688.3</ele>
        <time>2022-05-22T08:14:10Z</time>
      </trkpt>
      <trkpt lat="37.9522960" lon="-5.6208590">
        <ele>688.3</ele>
        <time>2022-05-22T08:14:11Z</time>
      </trkpt>
      <trkpt lat="37.9522840" lon="-5.6208560">
        <ele>688.3</ele>
        <time>2022-05-22T08:14:12Z</time>
      </trkpt>
      <trkpt lat="37.9522720" lon="-5.6208530">
        <ele>688.3</ele>
        <time>2022-05-22T08:14:13Z</time>
      </trkpt>
      <trkpt lat="37.9522520" lon="-5.6208460">
        <ele>688.3</ele>
        <time>2022-05-22T08:14:14Z</time>
      </trkpt>
      <trkpt lat="37.9522390" lon="-5.6208440">
        <ele>688.3</ele>
        <time>2022-05-22T08:14:15Z</time>
      </trkpt>
      <trkpt lat="37.9522150" lon="-5.6208430">
        <ele>688.3</ele>
        <time>2022-05-22T08:14:16Z</time>
      </trkpt>
      <trkpt lat="37.9522030" lon="-5.6208430">
        <ele>688.3</ele>
        <time>2022-05-22T08:14:18Z</time>
      </trkpt>
      <trkpt lat="37.9521920" lon="-5.6208440">
        <ele>688.3</ele>
        <time>2022-05-22T08:14:19Z</time>
      </trkpt>
      <trkpt lat="37.9521800" lon="-5.6208440">
        <ele>688.3</ele>
        <time>2022-05-22T08:14:20Z</time>
      </trkpt>
      <trkpt lat="37.9521690" lon="-5.6208440">
        <ele>688.3</ele>
        <time>2022-05-22T08:14:21Z</time>
      </trkpt>
      <trkpt lat="37.9521520" lon="-5.6208390">
        <ele>688.3</ele>
        <time>2022-05-22T08:14:23Z</time>
      </trkpt>
      <trkpt lat="37.9521390" lon="-5.6208340">
        <ele>688.4</ele>
        <time>2022-05-22T08:14:24Z</time>
      </trkpt>
      <trkpt lat="37.9521270" lon="-5.6208300">
        <ele>688.4</ele>
        <time>2022-05-22T08:14:25Z</time>
      </trkpt>
      <trkpt lat="37.9521120" lon="-5.6208230">
        <ele>688.4</ele>
        <time>2022-05-22T08:14:26Z</time>
      </trkpt>
      <trkpt lat="37.9520910" lon="-5.6208160">
        <ele>688.4</ele>
        <time>2022-05-22T08:14:27Z</time>
      </trkpt>
      <trkpt lat="37.9520820" lon="-5.6208130">
        <ele>688.4</ele>
        <time>2022-05-22T08:14:28Z</time>
      </trkpt>
      <trkpt lat="37.9520730" lon="-5.6208100">
        <ele>688.4</ele>
        <time>2022-05-22T08:14:29Z</time>
      </trkpt>
      <trkpt lat="37.9520590" lon="-5.6208050">
        <ele>688.4</ele>
        <time>2022-05-22T08:14:30Z</time>
      </trkpt>
      <trkpt lat="37.9520450" lon="-5.6207980">
        <ele>688.4</ele>
        <time>2022-05-22T08:14:31Z</time>
      </trkpt>
      <trkpt lat="37.9520330" lon="-5.6207920">
        <ele>688.4</ele>
        <time>2022-05-22T08:14:32Z</time>
      </trkpt>
      <trkpt lat="37.9520190" lon="-5.6207860">
        <ele>688.4</ele>
        <time>2022-05-22T08:14:33Z</time>
      </trkpt>
      <trkpt lat="37.9520070" lon="-5.6207780">
        <ele>688.4</ele>
        <time>2022-05-22T08:14:34Z</time>
      </trkpt>
      <trkpt lat="37.9519930" lon="-5.6207720">
        <ele>688.4</ele>
        <time>2022-05-22T08:14:35Z</time>
      </trkpt>
      <trkpt lat="37.9519830" lon="-5.6207690">
        <ele>688.4</ele>
        <time>2022-05-22T08:14:37Z</time>
      </trkpt>
      <trkpt lat="37.9519880" lon="-5.6207600">
        <ele>688.4</ele>
        <time>2022-05-22T08:14:38Z</time>
      </trkpt>
      <trkpt lat="37.9519860" lon="-5.6207580">
        <ele>688.4</ele>
        <time>2022-05-22T08:14:39Z</time>
      </trkpt>
      <trkpt lat="37.9519850" lon="-5.6207580">
        <ele>688.4</ele>
        <time>2022-05-22T08:14:40Z</time>
      </trkpt>
      <trkpt lat="37.9519880" lon="-5.6207590">
        <ele>688.4</ele>
        <time>2022-05-22T08:14:41Z</time>
      </trkpt>
      <trkpt lat="37.9519880" lon="-5.6207610">
        <ele>688.4</ele>
        <time>2022-05-22T08:14:42Z</time>
      </trkpt>
      <trkpt lat="37.9519870" lon="-5.6207620">
        <ele>688.4</ele>
        <time>2022-05-22T08:14:43Z</time>
      </trkpt>
      <trkpt lat="37.9519830" lon="-5.6207570">
        <ele>688.4</ele>
        <time>2022-05-22T08:14:45Z</time>
      </trkpt>
      <trkpt lat="37.9519750" lon="-5.6207470">
        <ele>688.5</ele>
        <time>2022-05-22T08:14:46Z</time>
      </trkpt>
      <trkpt lat="37.9519700" lon="-5.6207390">
        <ele>688.5</ele>
        <time>2022-05-22T08:14:47Z</time>
      </trkpt>
      <trkpt lat="37.9519630" lon="-5.6207300">
        <ele>688.5</ele>
        <time>2022-05-22T08:14:48Z</time>
      </trkpt>
      <trkpt lat="37.9519560" lon="-5.6207200">
        <ele>688.5</ele>
        <time>2022-05-22T08:14:49Z</time>
      </trkpt>
      <trkpt lat="37.9519480" lon="-5.6207070">
        <ele>688.5</ele>
        <time>2022-05-22T08:14:50Z</time>
      </trkpt>
      <trkpt lat="37.9519390" lon="-5.6206920">
        <ele>688.5</ele>
        <time>2022-05-22T08:14:52Z</time>
      </trkpt>
      <trkpt lat="37.9519300" lon="-5.6206770">
        <ele>688.5</ele>
        <time>2022-05-22T08:14:53Z</time>
      </trkpt>
      <trkpt lat="37.9519170" lon="-5.6206570">
        <ele>688.5</ele>
        <time>2022-05-22T08:14:54Z</time>
      </trkpt>
      <trkpt lat="37.9519010" lon="-5.6206290">
        <ele>688.5</ele>
        <time>2022-05-22T08:14:56Z</time>
      </trkpt>
      <trkpt lat="37.9518930" lon="-5.6206150">
        <ele>688.5</ele>
        <time>2022-05-22T08:14:57Z</time>
      </trkpt>
      <trkpt lat="37.9518860" lon="-5.6205990">
        <ele>688.5</ele>
        <time>2022-05-22T08:14:58Z</time>
      </trkpt>
      <trkpt lat="37.9518680" lon="-5.6205650">
        <ele>688.6</ele>
        <time>2022-05-22T08:14:59Z</time>
      </trkpt>
      <trkpt lat="37.9518640" lon="-5.6205580">
        <ele>688.6</ele>
        <time>2022-05-22T08:15:00Z</time>
      </trkpt>
      <trkpt lat="37.9518550" lon="-5.6205430">
        <ele>688.6</ele>
        <time>2022-05-22T08:15:01Z</time>
      </trkpt>
      <trkpt lat="37.9518480" lon="-5.6205310">
        <ele>688.6</ele>
        <time>2022-05-22T08:15:02Z</time>
      </trkpt>
      <trkpt lat="37.9518390" lon="-5.6205190">
        <ele>688.6</ele>
        <time>2022-05-22T08:15:04Z</time>
      </trkpt>
      <trkpt lat="37.9518180" lon="-5.6205070">
        <ele>688.6</ele>
        <time>2022-05-22T08:15:05Z</time>
      </trkpt>
      <trkpt lat="37.9518110" lon="-5.6205050">
        <ele>688.7</ele>
        <time>2022-05-22T08:15:06Z</time>
      </trkpt>
      <trkpt lat="37.9518040" lon="-5.6205020">
        <ele>688.7</ele>
        <time>2022-05-22T08:15:07Z</time>
      </trkpt>
      <trkpt lat="37.9517830" lon="-5.6204950">
        <ele>688.7</ele>
        <time>2022-05-22T08:15:08Z</time>
      </trkpt>
      <trkpt lat="37.9517740" lon="-5.6204920">
        <ele>688.7</ele>
        <time>2022-05-22T08:15:09Z</time>
      </trkpt>
      <trkpt lat="37.9517660" lon="-5.6204890">
        <ele>688.7</ele>
        <time>2022-05-22T08:15:10Z</time>
      </trkpt>
      <trkpt lat="37.9517480" lon="-5.6204800">
        <ele>688.7</ele>
        <time>2022-05-22T08:15:11Z</time>
      </trkpt>
      <trkpt lat="37.9517370" lon="-5.6204760">
        <ele>688.7</ele>
        <time>2022-05-22T08:15:12Z</time>
      </trkpt>
      <trkpt lat="37.9517260" lon="-5.6204760">
        <ele>688.8</ele>
        <time>2022-05-22T08:15:13Z</time>
      </trkpt>
      <trkpt lat="37.9517170" lon="-5.6204810">
        <ele>688.8</ele>
        <time>2022-05-22T08:15:14Z</time>
      </trkpt>
      <trkpt lat="37.9517130" lon="-5.6204780">
        <ele>688.8</ele>
        <time>2022-05-22T08:15:15Z</time>
      </trkpt>
      <trkpt lat="37.9517120" lon="-5.6204740">
        <ele>688.8</ele>
        <time>2022-05-22T08:15:16Z</time>
      </trkpt>
      <trkpt lat="37.9517110" lon="-5.6204710">
        <ele>688.8</ele>
        <time>2022-05-22T08:15:17Z</time>
      </trkpt>
      <trkpt lat="37.9517120" lon="-5.6204710">
        <ele>688.8</ele>
        <time>2022-05-22T08:15:18Z</time>
      </trkpt>
      <trkpt lat="37.9517120" lon="-5.6204710">
        <ele>688.8</ele>
        <time>2022-05-22T08:15:19Z</time>
      </trkpt>
      <trkpt lat="37.9517120" lon="-5.6204710">
        <ele>688.8</ele>
        <time>2022-05-22T08:15:20Z</time>
      </trkpt>
      <trkpt lat="37.9517120" lon="-5.6204720">
        <ele>688.8</ele>
        <time>2022-05-22T08:15:21Z</time>
      </trkpt>
      <trkpt lat="37.9517120" lon="-5.6204730">
        <ele>688.8</ele>
        <time>2022-05-22T08:15:22Z</time>
      </trkpt>
      <trkpt lat="37.9517110" lon="-5.6204730">
        <ele>688.8</ele>
        <time>2022-05-22T08:15:23Z</time>
      </trkpt>
      <trkpt lat="37.9517100" lon="-5.6204730">
        <ele>688.8</ele>
        <time>2022-05-22T08:15:24Z</time>
      </trkpt>
      <trkpt lat="37.9517100" lon="-5.6204720">
        <ele>688.8</ele>
        <time>2022-05-22T08:15:25Z</time>
      </trkpt>
      <trkpt lat="37.9517090" lon="-5.6204710">
        <ele>688.8</ele>
        <time>2022-05-22T08:15:26Z</time>
      </trkpt>
      <trkpt lat="37.9517050" lon="-5.6204690">
        <ele>688.8</ele>
        <time>2022-05-22T08:15:27Z</time>
      </trkpt>
      <trkpt lat="37.9517000" lon="-5.6204640">
        <ele>688.8</ele>
        <time>2022-05-22T08:15:29Z</time>
      </trkpt>
      <trkpt lat="37.9516980" lon="-5.6204620">
        <ele>688.8</ele>
        <time>2022-05-22T08:15:30Z</time>
      </trkpt>
      <trkpt lat="37.9516940" lon="-5.6204580">
        <ele>688.8</ele>
        <time>2022-05-22T08:15:31Z</time>
      </trkpt>
      <trkpt lat="37.9516890" lon="-5.6204500">
        <ele>688.8</ele>
        <time>2022-05-22T08:15:32Z</time>
      </trkpt>
      <trkpt lat="37.9516840" lon="-5.6204430">
        <ele>688.8</ele>
        <time>2022-05-22T08:15:33Z</time>
      </trkpt>
      <trkpt lat="37.9516760" lon="-5.6204340">
        <ele>688.8</ele>
        <time>2022-05-22T08:15:34Z</time>
      </trkpt>
      <trkpt lat="37.9516650" lon="-5.6204250">
        <ele>688.9</ele>
        <time>2022-05-22T08:15:35Z</time>
      </trkpt>
      <trkpt lat="37.9516560" lon="-5.6204180">
        <ele>688.9</ele>
        <time>2022-05-22T08:15:36Z</time>
      </trkpt>
      <trkpt lat="37.9516470" lon="-5.6204100">
        <ele>688.9</ele>
        <time>2022-05-22T08:15:37Z</time>
      </trkpt>
      <trkpt lat="37.9516370" lon="-5.6204000">
        <ele>688.9</ele>
        <time>2022-05-22T08:15:38Z</time>
      </trkpt>
      <trkpt lat="37.9516240" lon="-5.6203880">
        <ele>688.9</ele>
        <time>2022-05-22T08:15:39Z</time>
      </trkpt>
      <trkpt lat="37.9516120" lon="-5.6203740">
        <ele>688.9</ele>
        <time>2022-05-22T08:15:40Z</time>
      </trkpt>
      <trkpt lat="37.9516010" lon="-5.6203600">
        <ele>688.9</ele>
        <time>2022-05-22T08:15:41Z</time>
      </trkpt>
      <trkpt lat="37.9515910" lon="-5.6203470">
        <ele>688.9</ele>
        <time>2022-05-22T08:15:42Z</time>
      </trkpt>
      <trkpt lat="37.9515820" lon="-5.6203310">
        <ele>688.9</ele>
        <time>2022-05-22T08:15:43Z</time>
      </trkpt>
      <trkpt lat="37.9515740" lon="-5.6203100">
        <ele>689.0</ele>
        <time>2022-05-22T08:15:44Z</time>
      </trkpt>
      <trkpt lat="37.9515580" lon="-5.6202590">
        <ele>689.0</ele>
        <time>2022-05-22T08:15:46Z</time>
      </trkpt>
      <trkpt lat="37.9515500" lon="-5.6202240">
        <ele>689.0</ele>
        <time>2022-05-22T08:15:47Z</time>
      </trkpt>
      <trkpt lat="37.9515470" lon="-5.6202120">
        <ele>689.0</ele>
        <time>2022-05-22T08:15:48Z</time>
      </trkpt>
      <trkpt lat="37.9515430" lon="-5.6201910">
        <ele>689.0</ele>
        <time>2022-05-22T08:15:49Z</time>
      </trkpt>
      <trkpt lat="37.9515400" lon="-5.6201500">
        <ele>689.0</ele>
        <time>2022-05-22T08:15:51Z</time>
      </trkpt>
      <trkpt lat="37.9515410" lon="-5.6201260">
        <ele>689.0</ele>
        <time>2022-05-22T08:15:52Z</time>
      </trkpt>
      <trkpt lat="37.9515440" lon="-5.6201080">
        <ele>689.0</ele>
        <time>2022-05-22T08:15:53Z</time>
      </trkpt>
      <trkpt lat="37.9515490" lon="-5.6200700">
        <ele>689.0</ele>
        <time>2022-05-22T08:15:54Z</time>
      </trkpt>
      <trkpt lat="37.9515500" lon="-5.6200620">
        <ele>689.0</ele>
        <time>2022-05-22T08:15:55Z</time>
      </trkpt>
      <trkpt lat="37.9515540" lon="-5.6200280">
        <ele>689.0</ele>
        <time>2022-05-22T08:15:57Z</time>
      </trkpt>
      <trkpt lat="37.9515550" lon="-5.6200160">
        <ele>689.1</ele>
        <time>2022-05-22T08:15:58Z</time>
      </trkpt>
      <trkpt lat="37.9515570" lon="-5.6199950">
        <ele>689.1</ele>
        <time>2022-05-22T08:16:00Z</time>
      </trkpt>
      <trkpt lat="37.9515590" lon="-5.6199810">
        <ele>689.1</ele>
        <time>2022-05-22T08:16:01Z</time>
      </trkpt>
      <trkpt lat="37.9515610" lon="-5.6199650">
        <ele>689.1</ele>
        <time>2022-05-22T08:16:02Z</time>
      </trkpt>
      <trkpt lat="37.9515640" lon="-5.6199380">
        <ele>689.1</ele>
        <time>2022-05-22T08:16:03Z</time>
      </trkpt>
      <trkpt lat="37.9515680" lon="-5.6199140">
        <ele>689.1</ele>
        <time>2022-05-22T08:16:04Z</time>
      </trkpt>
      <trkpt lat="37.9515700" lon="-5.6199030">
        <ele>689.1</ele>
        <time>2022-05-22T08:16:05Z</time>
      </trkpt>
      <trkpt lat="37.9515720" lon="-5.6198930">
        <ele>689.1</ele>
        <time>2022-05-22T08:16:06Z</time>
      </trkpt>
      <trkpt lat="37.9515760" lon="-5.6198800">
        <ele>689.1</ele>
        <time>2022-05-22T08:16:07Z</time>
      </trkpt>
      <trkpt lat="37.9515800" lon="-5.6198590">
        <ele>689.1</ele>
        <time>2022-05-22T08:16:08Z</time>
      </trkpt>
      <trkpt lat="37.9515860" lon="-5.6198340">
        <ele>689.1</ele>
        <time>2022-05-22T08:16:09Z</time>
      </trkpt>
      <trkpt lat="37.9515890" lon="-5.6198230">
        <ele>689.1</ele>
        <time>2022-05-22T08:16:10Z</time>
      </trkpt>
      <trkpt lat="37.9515910" lon="-5.6198120">
        <ele>689.1</ele>
        <time>2022-05-22T08:16:11Z</time>
      </trkpt>
      <trkpt lat="37.9515960" lon="-5.6197730">
        <ele>689.2</ele>
        <time>2022-05-22T08:16:13Z</time>
      </trkpt>
      <trkpt lat="37.9515980" lon="-5.6197570">
        <ele>689.2</ele>
        <time>2022-05-22T08:16:14Z</time>
      </trkpt>
      <trkpt lat="37.9516060" lon="-5.6197210">
        <ele>689.2</ele>
        <time>2022-05-22T08:16:15Z</time>
      </trkpt>
      <trkpt lat="37.9516110" lon="-5.6197030">
        <ele>689.2</ele>
        <time>2022-05-22T08:16:17Z</time>
      </trkpt>
      <trkpt lat="37.9516150" lon="-5.6196860">
        <ele>689.1</ele>
        <time>2022-05-22T08:16:18Z</time>
      </trkpt>
      <trkpt lat="37.9516200" lon="-5.6196690">
        <ele>689.1</ele>
        <time>2022-05-22T08:16:19Z</time>
      </trkpt>
      <trkpt lat="37.9516240" lon="-5.6196520">
        <ele>689.1</ele>
        <time>2022-05-22T08:16:20Z</time>
      </trkpt>
      <trkpt lat="37.9516390" lon="-5.6196210">
        <ele>689.1</ele>
        <time>2022-05-22T08:16:21Z</time>
      </trkpt>
      <trkpt lat="37.9516530" lon="-5.6195920">
        <ele>689.1</ele>
        <time>2022-05-22T08:16:23Z</time>
      </trkpt>
      <trkpt lat="37.9516610" lon="-5.6195760">
        <ele>689.1</ele>
        <time>2022-05-22T08:16:25Z</time>
      </trkpt>
      <trkpt lat="37.9516740" lon="-5.6195420">
        <ele>689.1</ele>
        <time>2022-05-22T08:16:26Z</time>
      </trkpt>
      <trkpt lat="37.9516780" lon="-5.6195300">
        <ele>689.1</ele>
        <time>2022-05-22T08:16:27Z</time>
      </trkpt>
      <trkpt lat="37.9516830" lon="-5.6195160">
        <ele>689.1</ele>
        <time>2022-05-22T08:16:28Z</time>
      </trkpt>
      <trkpt lat="37.9516890" lon="-5.6194990">
        <ele>689.1</ele>
        <time>2022-05-22T08:16:30Z</time>
      </trkpt>
      <trkpt lat="37.9516940" lon="-5.6194810">
        <ele>689.1</ele>
        <time>2022-05-22T08:16:31Z</time>
      </trkpt>
      <trkpt lat="37.9516980" lon="-5.6194590">
        <ele>689.1</ele>
        <time>2022-05-22T08:16:32Z</time>
      </trkpt>
      <trkpt lat="37.9516990" lon="-5.6194320">
        <ele>689.1</ele>
        <time>2022-05-22T08:16:33Z</time>
      </trkpt>
      <trkpt lat="37.9516980" lon="-5.6194210">
        <ele>689.1</ele>
        <time>2022-05-22T08:16:34Z</time>
      </trkpt>
      <trkpt lat="37.9516970" lon="-5.6194100">
        <ele>689.1</ele>
        <time>2022-05-22T08:16:35Z</time>
      </trkpt>
      <trkpt lat="37.9516890" lon="-5.6193840">
        <ele>689.1</ele>
        <time>2022-05-22T08:16:36Z</time>
      </trkpt>
      <trkpt lat="37.9516840" lon="-5.6193730">
        <ele>689.1</ele>
        <time>2022-05-22T08:16:37Z</time>
      </trkpt>
      <trkpt lat="37.9516800" lon="-5.6193630">
        <ele>689.0</ele>
        <time>2022-05-22T08:16:38Z</time>
      </trkpt>
      <trkpt lat="37.9516750" lon="-5.6193480">
        <ele>689.0</ele>
        <time>2022-05-22T08:16:39Z</time>
      </trkpt>
      <trkpt lat="37.9516610" lon="-5.6193370">
        <ele>689.0</ele>
        <time>2022-05-22T08:16:40Z</time>
      </trkpt>
      <trkpt lat="37.9516440" lon="-5.6193260">
        <ele>689.0</ele>
        <time>2022-05-22T08:16:41Z</time>
      </trkpt>
      <trkpt lat="37.9516360" lon="-5.6193120">
        <ele>689.0</ele>
        <time>2022-05-22T08:16:42Z</time>
      </trkpt>
      <trkpt lat="37.9516260" lon="-5.6192880">
        <ele>689.0</ele>
        <time>2022-05-22T08:16:43Z</time>
      </trkpt>
      <trkpt lat="37.9516210" lon="-5.6192790">
        <ele>689.0</ele>
        <time>2022-05-22T08:16:44Z</time>
      </trkpt>
      <trkpt lat="37.9516160" lon="-5.6192700">
        <ele>689.0</ele>
        <time>2022-05-22T08:16:45Z</time>
      </trkpt>
      <trkpt lat="37.9516100" lon="-5.6192550">
        <ele>689.0</ele>
        <time>2022-05-22T08:16:46Z</time>
      </trkpt>
      <trkpt lat="37.9515970" lon="-5.6192430">
        <ele>689.0</ele>
        <time>2022-05-22T08:16:47Z</time>
      </trkpt>
      <trkpt lat="37.9515870" lon="-5.6192330">
        <ele>689.0</ele>
        <time>2022-05-22T08:16:48Z</time>
      </trkpt>
      <trkpt lat="37.9515800" lon="-5.6192270">
        <ele>689.0</ele>
        <time>2022-05-22T08:16:49Z</time>
      </trkpt>
      <trkpt lat="37.9515740" lon="-5.6191990">
        <ele>689.0</ele>
        <time>2022-05-22T08:16:51Z</time>
      </trkpt>
      <trkpt lat="37.9515800" lon="-5.6191920">
        <ele>689.0</ele>
        <time>2022-05-22T08:16:52Z</time>
      </trkpt>
      <trkpt lat="37.9515920" lon="-5.6192010">
        <ele>689.0</ele>
        <time>2022-05-22T08:16:53Z</time>
      </trkpt>
      <trkpt lat="37.9515960" lon="-5.6192000">
        <ele>689.0</ele>
        <time>2022-05-22T08:16:54Z</time>
      </trkpt>
      <trkpt lat="37.9515970" lon="-5.6192010">
        <ele>689.0</ele>
        <time>2022-05-22T08:16:55Z</time>
      </trkpt>
      <trkpt lat="37.9515980" lon="-5.6192010">
        <ele>689.0</ele>
        <time>2022-05-22T08:16:56Z</time>
      </trkpt>
      <trkpt lat="37.9515980" lon="-5.6192010">
        <ele>689.0</ele>
        <time>2022-05-22T08:16:57Z</time>
      </trkpt>
      <trkpt lat="37.9515980" lon="-5.6192010">
        <ele>689.0</ele>
        <time>2022-05-22T08:16:58Z</time>
      </trkpt>
      <trkpt lat="37.9515970" lon="-5.6192020">
        <ele>689.0</ele>
        <time>2022-05-22T08:17:00Z</time>
      </trkpt>
      <trkpt lat="37.9515970" lon="-5.6192010">
        <ele>689.0</ele>
        <time>2022-05-22T08:17:01Z</time>
      </trkpt>
      <trkpt lat="37.9515960" lon="-5.6192000">
        <ele>689.0</ele>
        <time>2022-05-22T08:17:02Z</time>
      </trkpt>
      <trkpt lat="37.9515940" lon="-5.6191980">
        <ele>689.0</ele>
        <time>2022-05-22T08:17:03Z</time>
      </trkpt>
      <trkpt lat="37.9515890" lon="-5.6191920">
        <ele>689.0</ele>
        <time>2022-05-22T08:17:04Z</time>
      </trkpt>
      <trkpt lat="37.9515840" lon="-5.6191820">
        <ele>689.0</ele>
        <time>2022-05-22T08:17:06Z</time>
      </trkpt>
      <trkpt lat="37.9515810" lon="-5.6191730">
        <ele>689.0</ele>
        <time>2022-05-22T08:17:07Z</time>
      </trkpt>
      <trkpt lat="37.9515780" lon="-5.6191610">
        <ele>689.0</ele>
        <time>2022-05-22T08:17:08Z</time>
      </trkpt>
      <trkpt lat="37.9515710" lon="-5.6191390">
        <ele>689.0</ele>
        <time>2022-05-22T08:17:09Z</time>
      </trkpt>
      <trkpt lat="37.9515670" lon="-5.6191280">
        <ele>689.0</ele>
        <time>2022-05-22T08:17:10Z</time>
      </trkpt>
      <trkpt lat="37.9515630" lon="-5.6191160">
        <ele>689.0</ele>
        <time>2022-05-22T08:17:11Z</time>
      </trkpt>
      <trkpt lat="37.9515570" lon="-5.6191010">
        <ele>688.9</ele>
        <time>2022-05-22T08:17:12Z</time>
      </trkpt>
      <trkpt lat="37.9515450" lon="-5.6190700">
        <ele>688.9</ele>
        <time>2022-05-22T08:17:14Z</time>
      </trkpt>
      <trkpt lat="37.9515360" lon="-5.6190450">
        <ele>688.9</ele>
        <time>2022-05-22T08:17:15Z</time>
      </trkpt>
      <trkpt lat="37.9515310" lon="-5.6190340">
        <ele>688.9</ele>
        <time>2022-05-22T08:17:16Z</time>
      </trkpt>
      <trkpt lat="37.9515270" lon="-5.6190230">
        <ele>688.9</ele>
        <time>2022-05-22T08:17:17Z</time>
      </trkpt>
      <trkpt lat="37.9515230" lon="-5.6190120">
        <ele>688.9</ele>
        <time>2022-05-22T08:17:18Z</time>
      </trkpt>
      <trkpt lat="37.9515190" lon="-5.6190000">
        <ele>688.9</ele>
        <time>2022-05-22T08:17:19Z</time>
      </trkpt>
      <trkpt lat="37.9515150" lon="-5.6189870">
        <ele>688.9</ele>
        <time>2022-05-22T08:17:20Z</time>
      </trkpt>
      <trkpt lat="37.9515120" lon="-5.6189730">
        <ele>688.9</ele>
        <time>2022-05-22T08:17:21Z</time>
      </trkpt>
      <trkpt lat="37.9515120" lon="-5.6189520">
        <ele>688.9</ele>
        <time>2022-05-22T08:17:22Z</time>
      </trkpt>
      <trkpt lat="37.9515110" lon="-5.6189270">
        <ele>688.9</ele>
        <time>2022-05-22T08:17:23Z</time>
      </trkpt>
      <trkpt lat="37.9515140" lon="-5.6189140">
        <ele>688.9</ele>
        <time>2022-05-22T08:17:24Z</time>
      </trkpt>
      <trkpt lat="37.9515160" lon="-5.6189000">
        <ele>688.9</ele>
        <time>2022-05-22T08:17:25Z</time>
      </trkpt>
      <trkpt lat="37.9515180" lon="-5.6188830">
        <ele>688.9</ele>
        <time>2022-05-22T08:17:26Z</time>
      </trkpt>
      <trkpt lat="37.9515180" lon="-5.6188660">
        <ele>688.9</ele>
        <time>2022-05-22T08:17:27Z</time>
      </trkpt>
      <trkpt lat="37.9515180" lon="-5.6188440">
        <ele>688.9</ele>
        <time>2022-05-22T08:17:28Z</time>
      </trkpt>
      <trkpt lat="37.9515180" lon="-5.6188220">
        <ele>688.9</ele>
        <time>2022-05-22T08:17:29Z</time>
      </trkpt>
      <trkpt lat="37.9515170" lon="-5.6188070">
        <ele>688.9</ele>
        <time>2022-05-22T08:17:30Z</time>
      </trkpt>
      <trkpt lat="37.9515160" lon="-5.6187860">
        <ele>688.9</ele>
        <time>2022-05-22T08:17:31Z</time>
      </trkpt>
      <trkpt lat="37.9515280" lon="-5.6187700">
        <ele>688.9</ele>
        <time>2022-05-22T08:17:32Z</time>
      </trkpt>
      <trkpt lat="37.9515400" lon="-5.6187510">
        <ele>688.9</ele>
        <time>2022-05-22T08:17:34Z</time>
      </trkpt>
      <trkpt lat="37.9515420" lon="-5.6187380">
        <ele>688.9</ele>
        <time>2022-05-22T08:17:35Z</time>
      </trkpt>
      <trkpt lat="37.9515450" lon="-5.6187260">
        <ele>688.9</ele>
        <time>2022-05-22T08:17:36Z</time>
      </trkpt>
      <trkpt lat="37.9515470" lon="-5.6187140">
        <ele>688.9</ele>
        <time>2022-05-22T08:17:37Z</time>
      </trkpt>
      <trkpt lat="37.9515540" lon="-5.6187120">
        <ele>688.9</ele>
        <time>2022-05-22T08:17:38Z</time>
      </trkpt>
      <trkpt lat="37.9515600" lon="-5.6187170">
        <ele>688.9</ele>
        <time>2022-05-22T08:17:40Z</time>
      </trkpt>
      <trkpt lat="37.9515610" lon="-5.6187190">
        <ele>688.9</ele>
        <time>2022-05-22T08:17:41Z</time>
      </trkpt>
      <trkpt lat="37.9515600" lon="-5.6187220">
        <ele>688.9</ele>
        <time>2022-05-22T08:17:42Z</time>
      </trkpt>
      <trkpt lat="37.9515590" lon="-5.6187230">
        <ele>688.9</ele>
        <time>2022-05-22T08:17:43Z</time>
      </trkpt>
      <trkpt lat="37.9515580" lon="-5.6187230">
        <ele>688.9</ele>
        <time>2022-05-22T08:17:44Z</time>
      </trkpt>
      <trkpt lat="37.9515560" lon="-5.6187210">
        <ele>688.9</ele>
        <time>2022-05-22T08:17:45Z</time>
      </trkpt>
      <trkpt lat="37.9515540" lon="-5.6187180">
        <ele>688.9</ele>
        <time>2022-05-22T08:17:46Z</time>
      </trkpt>
      <trkpt lat="37.9515530" lon="-5.6187140">
        <ele>688.9</ele>
        <time>2022-05-22T08:17:47Z</time>
      </trkpt>
      <trkpt lat="37.9515530" lon="-5.6187100">
        <ele>688.9</ele>
        <time>2022-05-22T08:17:48Z</time>
      </trkpt>
      <trkpt lat="37.9515530" lon="-5.6187090">
        <ele>688.9</ele>
        <time>2022-05-22T08:17:50Z</time>
      </trkpt>
      <trkpt lat="37.9515540" lon="-5.6187080">
        <ele>688.9</ele>
        <time>2022-05-22T08:17:51Z</time>
      </trkpt>
      <trkpt lat="37.9515550" lon="-5.6187040">
        <ele>688.9</ele>
        <time>2022-05-22T08:17:52Z</time>
      </trkpt>
      <trkpt lat="37.9515550" lon="-5.6187010">
        <ele>688.9</ele>
        <time>2022-05-22T08:17:53Z</time>
      </trkpt>
      <trkpt lat="37.9515530" lon="-5.6186980">
        <ele>688.9</ele>
        <time>2022-05-22T08:17:54Z</time>
      </trkpt>
      <trkpt lat="37.9515520" lon="-5.6186940">
        <ele>688.9</ele>
        <time>2022-05-22T08:17:55Z</time>
      </trkpt>
      <trkpt lat="37.9515510" lon="-5.6186890">
        <ele>688.9</ele>
        <time>2022-05-22T08:17:56Z</time>
      </trkpt>
      <trkpt lat="37.9515490" lon="-5.6186820">
        <ele>688.9</ele>
        <time>2022-05-22T08:17:57Z</time>
      </trkpt>
      <trkpt lat="37.9515470" lon="-5.6186770">
        <ele>688.9</ele>
        <time>2022-05-22T08:17:58Z</time>
      </trkpt>
      <trkpt lat="37.9515220" lon="-5.6186450">
        <ele>688.9</ele>
        <time>2022-05-22T08:17:59Z</time>
      </trkpt>
      <trkpt lat="37.9515210" lon="-5.6186410">
        <ele>688.9</ele>
        <time>2022-05-22T08:18:00Z</time>
      </trkpt>
      <trkpt lat="37.9515210" lon="-5.6186380">
        <ele>688.9</ele>
        <time>2022-05-22T08:18:01Z</time>
      </trkpt>
      <trkpt lat="37.9515210" lon="-5.6186340">
        <ele>688.9</ele>
        <time>2022-05-22T08:18:02Z</time>
      </trkpt>
      <trkpt lat="37.9515280" lon="-5.6186200">
        <ele>688.9</ele>
        <time>2022-05-22T08:18:03Z</time>
      </trkpt>
      <trkpt lat="37.9515300" lon="-5.6186390">
        <ele>688.9</ele>
        <time>2022-05-22T08:18:04Z</time>
      </trkpt>
      <trkpt lat="37.9515310" lon="-5.6186420">
        <ele>688.9</ele>
        <time>2022-05-22T08:18:05Z</time>
      </trkpt>
      <trkpt lat="37.9515310" lon="-5.6186470">
        <ele>688.9</ele>
        <time>2022-05-22T08:18:06Z</time>
      </trkpt>
      <trkpt lat="37.9515300" lon="-5.6186480">
        <ele>688.9</ele>
        <time>2022-05-22T08:18:07Z</time>
      </trkpt>
      <trkpt lat="37.9515290" lon="-5.6186480">
        <ele>688.9</ele>
        <time>2022-05-22T08:18:08Z</time>
      </trkpt>
      <trkpt lat="37.9515370" lon="-5.6186200">
        <ele>688.9</ele>
        <time>2022-05-22T08:18:09Z</time>
      </trkpt>
      <trkpt lat="37.9515410" lon="-5.6186080">
        <ele>688.9</ele>
        <time>2022-05-22T08:18:10Z</time>
      </trkpt>
      <trkpt lat="37.9515410" lon="-5.6186030">
        <ele>688.9</ele>
        <time>2022-05-22T08:18:11Z</time>
      </trkpt>
      <trkpt lat="37.9515410" lon="-5.6186010">
        <ele>688.9</ele>
        <time>2022-05-22T08:18:12Z</time>
      </trkpt>
      <trkpt lat="37.9515410" lon="-5.6186000">
        <ele>688.9</ele>
        <time>2022-05-22T08:18:13Z</time>
      </trkpt>
      <trkpt lat="37.9515410" lon="-5.6186000">
        <ele>688.9</ele>
        <time>2022-05-22T08:18:14Z</time>
      </trkpt>
      <trkpt lat="37.9515410" lon="-5.6186000">
        <ele>688.9</ele>
        <time>2022-05-22T08:18:15Z</time>
      </trkpt>
      <trkpt lat="37.9515370" lon="-5.6185910">
        <ele>688.9</ele>
        <time>2022-05-22T08:18:16Z</time>
      </trkpt>
      <trkpt lat="37.9515340" lon="-5.6185820">
        <ele>688.9</ele>
        <time>2022-05-22T08:18:17Z</time>
      </trkpt>
      <trkpt lat="37.9515420" lon="-5.6185760">
        <ele>688.9</ele>
        <time>2022-05-22T08:18:18Z</time>
      </trkpt>
      <trkpt lat="37.9515440" lon="-5.6185730">
        <ele>688.9</ele>
        <time>2022-05-22T08:18:19Z</time>
      </trkpt>
      <trkpt lat="37.9515440" lon="-5.6185730">
        <ele>688.9</ele>
        <time>2022-05-22T08:18:20Z</time>
      </trkpt>
      <trkpt lat="37.9515380" lon="-5.6185630">
        <ele>688.9</ele>
        <time>2022-05-22T08:18:21Z</time>
      </trkpt>
      <trkpt lat="37.9515350" lon="-5.6185590">
        <ele>688.9</ele>
        <time>2022-05-22T08:18:22Z</time>
      </trkpt>
      <trkpt lat="37.9515340" lon="-5.6185550">
        <ele>688.9</ele>
        <time>2022-05-22T08:18:23Z</time>
      </trkpt>
      <trkpt lat="37.9515320" lon="-5.6185530">
        <ele>688.9</ele>
        <time>2022-05-22T08:18:24Z</time>
      </trkpt>
      <trkpt lat="37.9515320" lon="-5.6185510">
        <ele>688.9</ele>
        <time>2022-05-22T08:18:25Z</time>
      </trkpt>
      <trkpt lat="37.9515320" lon="-5.6185480">
        <ele>688.9</ele>
        <time>2022-05-22T08:18:26Z</time>
      </trkpt>
      <trkpt lat="37.9515320" lon="-5.6185430">
        <ele>688.9</ele>
        <time>2022-05-22T08:18:27Z</time>
      </trkpt>
      <trkpt lat="37.9515310" lon="-5.6185390">
        <ele>688.9</ele>
        <time>2022-05-22T08:18:28Z</time>
      </trkpt>
      <trkpt lat="37.9515300" lon="-5.6185360">
        <ele>688.9</ele>
        <time>2022-05-22T08:18:29Z</time>
      </trkpt>
      <trkpt lat="37.9515280" lon="-5.6185330">
        <ele>688.9</ele>
        <time>2022-05-22T08:18:30Z</time>
      </trkpt>
      <trkpt lat="37.9515250" lon="-5.6185280">
        <ele>688.9</ele>
        <time>2022-05-22T08:18:31Z</time>
      </trkpt>
      <trkpt lat="37.9515210" lon="-5.6185240">
        <ele>688.9</ele>
        <time>2022-05-22T08:18:32Z</time>
      </trkpt>
      <trkpt lat="37.9515190" lon="-5.6185200">
        <ele>688.9</ele>
        <time>2022-05-22T08:18:33Z</time>
      </trkpt>
      <trkpt lat="37.9515160" lon="-5.6185200">
        <ele>688.9</ele>
        <time>2022-05-22T08:18:34Z</time>
      </trkpt>
      <trkpt lat="37.9515140" lon="-5.6185210">
        <ele>688.9</ele>
        <time>2022-05-22T08:18:35Z</time>
      </trkpt>
      <trkpt lat="37.9515120" lon="-5.6185210">
        <ele>688.9</ele>
        <time>2022-05-22T08:18:36Z</time>
      </trkpt>
      <trkpt lat="37.9515120" lon="-5.6185210">
        <ele>688.9</ele>
        <time>2022-05-22T08:18:37Z</time>
      </trkpt>
      <trkpt lat="37.9515110" lon="-5.6185200">
        <ele>688.9</ele>
        <time>2022-05-22T08:18:38Z</time>
      </trkpt>
      <trkpt lat="37.9515110" lon="-5.6185180">
        <ele>688.9</ele>
        <time>2022-05-22T08:18:39Z</time>
      </trkpt>
      <trkpt lat="37.9515130" lon="-5.6185170">
        <ele>688.9</ele>
        <time>2022-05-22T08:18:40Z</time>
      </trkpt>
      <trkpt lat="37.9515150" lon="-5.6185150">
        <ele>688.9</ele>
        <time>2022-05-22T08:18:41Z</time>
      </trkpt>
      <trkpt lat="37.9515180" lon="-5.6185130">
        <ele>688.9</ele>
        <time>2022-05-22T08:18:42Z</time>
      </trkpt>
      <trkpt lat="37.9515220" lon="-5.6185100">
        <ele>688.9</ele>
        <time>2022-05-22T08:18:43Z</time>
      </trkpt>
      <trkpt lat="37.9515250" lon="-5.6185070">
        <ele>688.9</ele>
        <time>2022-05-22T08:18:44Z</time>
      </trkpt>
      <trkpt lat="37.9515270" lon="-5.6185060">
        <ele>688.9</ele>
        <time>2022-05-22T08:18:45Z</time>
      </trkpt>
      <trkpt lat="37.9515290" lon="-5.6185050">
        <ele>688.9</ele>
        <time>2022-05-22T08:18:46Z</time>
      </trkpt>
      <trkpt lat="37.9515310" lon="-5.6185050">
        <ele>688.9</ele>
        <time>2022-05-22T08:18:47Z</time>
      </trkpt>
      <trkpt lat="37.9515330" lon="-5.6185060">
        <ele>688.9</ele>
        <time>2022-05-22T08:18:48Z</time>
      </trkpt>
      <trkpt lat="37.9515360" lon="-5.6185070">
        <ele>688.9</ele>
        <time>2022-05-22T08:18:49Z</time>
      </trkpt>
      <trkpt lat="37.9515380" lon="-5.6185090">
        <ele>688.9</ele>
        <time>2022-05-22T08:18:50Z</time>
      </trkpt>
      <trkpt lat="37.9515410" lon="-5.6185110">
        <ele>688.9</ele>
        <time>2022-05-22T08:18:51Z</time>
      </trkpt>
      <trkpt lat="37.9515430" lon="-5.6185130">
        <ele>688.9</ele>
        <time>2022-05-22T08:18:52Z</time>
      </trkpt>
      <trkpt lat="37.9515450" lon="-5.6185130">
        <ele>688.9</ele>
        <time>2022-05-22T08:18:53Z</time>
      </trkpt>
      <trkpt lat="37.9515450" lon="-5.6185120">
        <ele>688.9</ele>
        <time>2022-05-22T08:18:54Z</time>
      </trkpt>
      <trkpt lat="37.9515460" lon="-5.6185090">
        <ele>688.9</ele>
        <time>2022-05-22T08:18:55Z</time>
      </trkpt>
      <trkpt lat="37.9515480" lon="-5.6185050">
        <ele>688.9</ele>
        <time>2022-05-22T08:18:56Z</time>
      </trkpt>
      <trkpt lat="37.9515480" lon="-5.6185020">
        <ele>688.9</ele>
        <time>2022-05-22T08:18:57Z</time>
      </trkpt>
      <trkpt lat="37.9515490" lon="-5.6185000">
        <ele>688.9</ele>
        <time>2022-05-22T08:18:58Z</time>
      </trkpt>
      <trkpt lat="37.9515490" lon="-5.6184970">
        <ele>688.9</ele>
        <time>2022-05-22T08:18:59Z</time>
      </trkpt>
      <trkpt lat="37.9515500" lon="-5.6184940">
        <ele>688.9</ele>
        <time>2022-05-22T08:19:00Z</time>
      </trkpt>
      <trkpt lat="37.9515500" lon="-5.6184930">
        <ele>688.9</ele>
        <time>2022-05-22T08:19:01Z</time>
      </trkpt>
      <trkpt lat="37.9515500" lon="-5.6184910">
        <ele>688.9</ele>
        <time>2022-05-22T08:19:02Z</time>
      </trkpt>
      <trkpt lat="37.9515500" lon="-5.6184890">
        <ele>688.9</ele>
        <time>2022-05-22T08:19:03Z</time>
      </trkpt>
      <trkpt lat="37.9515510" lon="-5.6184880">
        <ele>688.9</ele>
        <time>2022-05-22T08:19:04Z</time>
      </trkpt>
      <trkpt lat="37.9515520" lon="-5.6184860">
        <ele>688.9</ele>
        <time>2022-05-22T08:19:05Z</time>
      </trkpt>
      <trkpt lat="37.9515530" lon="-5.6184830">
        <ele>688.9</ele>
        <time>2022-05-22T08:19:06Z</time>
      </trkpt>
      <trkpt lat="37.9515530" lon="-5.6184830">
        <ele>688.9</ele>
        <time>2022-05-22T08:19:07Z</time>
      </trkpt>
      <trkpt lat="37.9515510" lon="-5.6184840">
        <ele>688.9</ele>
        <time>2022-05-22T08:19:08Z</time>
      </trkpt>
      <trkpt lat="37.9515490" lon="-5.6184850">
        <ele>688.9</ele>
        <time>2022-05-22T08:19:09Z</time>
      </trkpt>
      <trkpt lat="37.9515440" lon="-5.6184880">
        <ele>688.9</ele>
        <time>2022-05-22T08:19:10Z</time>
      </trkpt>
      <trkpt lat="37.9515420" lon="-5.6184880">
        <ele>688.9</ele>
        <time>2022-05-22T08:19:11Z</time>
      </trkpt>
      <trkpt lat="37.9515400" lon="-5.6184890">
        <ele>688.9</ele>
        <time>2022-05-22T08:19:12Z</time>
      </trkpt>
      <trkpt lat="37.9515380" lon="-5.6184890">
        <ele>688.9</ele>
        <time>2022-05-22T08:19:13Z</time>
      </trkpt>
      <trkpt lat="37.9515370" lon="-5.6184890">
        <ele>688.9</ele>
        <time>2022-05-22T08:19:14Z</time>
      </trkpt>
      <trkpt lat="37.9515330" lon="-5.6184870">
        <ele>688.9</ele>
        <time>2022-05-22T08:19:15Z</time>
      </trkpt>
      <trkpt lat="37.9515310" lon="-5.6184860">
        <ele>688.9</ele>
        <time>2022-05-22T08:19:16Z</time>
      </trkpt>
      <trkpt lat="37.9515250" lon="-5.6184860">
        <ele>688.9</ele>
        <time>2022-05-22T08:19:17Z</time>
      </trkpt>
      <trkpt lat="37.9515200" lon="-5.6184890">
        <ele>688.9</ele>
        <time>2022-05-22T08:19:18Z</time>
      </trkpt>
      <trkpt lat="37.9515150" lon="-5.6184930">
        <ele>688.9</ele>
        <time>2022-05-22T08:19:19Z</time>
      </trkpt>
      <trkpt lat="37.9515100" lon="-5.6184980">
        <ele>688.9</ele>
        <time>2022-05-22T08:19:20Z</time>
      </trkpt>
      <trkpt lat="37.9515050" lon="-5.6185030">
        <ele>688.9</ele>
        <time>2022-05-22T08:19:21Z</time>
      </trkpt>
      <trkpt lat="37.9515000" lon="-5.6185080">
        <ele>688.9</ele>
        <time>2022-05-22T08:19:22Z</time>
      </trkpt>
      <trkpt lat="37.9514950" lon="-5.6185120">
        <ele>688.9</ele>
        <time>2022-05-22T08:19:23Z</time>
      </trkpt>
      <trkpt lat="37.9514910" lon="-5.6185140">
        <ele>688.9</ele>
        <time>2022-05-22T08:19:24Z</time>
      </trkpt>
      <trkpt lat="37.9514880" lon="-5.6185130">
        <ele>688.9</ele>
        <time>2022-05-22T08:19:25Z</time>
      </trkpt>
      <trkpt lat="37.9514870" lon="-5.6185120">
        <ele>688.9</ele>
        <time>2022-05-22T08:19:26Z</time>
      </trkpt>
      <trkpt lat="37.9514860" lon="-5.6185110">
        <ele>688.9</ele>
        <time>2022-05-22T08:19:27Z</time>
      </trkpt>
      <trkpt lat="37.9514850" lon="-5.6185090">
        <ele>688.9</ele>
        <time>2022-05-22T08:19:28Z</time>
      </trkpt>
      <trkpt lat="37.9514850" lon="-5.6185080">
        <ele>688.9</ele>
        <time>2022-05-22T08:19:29Z</time>
      </trkpt>
      <trkpt lat="37.9514840" lon="-5.6185030">
        <ele>688.9</ele>
        <time>2022-05-22T08:19:30Z</time>
      </trkpt>
      <trkpt lat="37.9514840" lon="-5.6185010">
        <ele>688.9</ele>
        <time>2022-05-22T08:19:31Z</time>
      </trkpt>
      <trkpt lat="37.9514850" lon="-5.6184990">
        <ele>688.9</ele>
        <time>2022-05-22T08:19:32Z</time>
      </trkpt>
      <trkpt lat="37.9514850" lon="-5.6184980">
        <ele>688.9</ele>
        <time>2022-05-22T08:19:33Z</time>
      </trkpt>
      <trkpt lat="37.9514850" lon="-5.6184950">
        <ele>688.9</ele>
        <time>2022-05-22T08:19:34Z</time>
      </trkpt>
      <trkpt lat="37.9514850" lon="-5.6184920">
        <ele>688.9</ele>
        <time>2022-05-22T08:19:35Z</time>
      </trkpt>
      <trkpt lat="37.9514840" lon="-5.6184880">
        <ele>688.9</ele>
        <time>2022-05-22T08:19:36Z</time>
      </trkpt>
      <trkpt lat="37.9514830" lon="-5.6184850">
        <ele>688.9</ele>
        <time>2022-05-22T08:19:37Z</time>
      </trkpt>
      <trkpt lat="37.9514830" lon="-5.6184810">
        <ele>688.9</ele>
        <time>2022-05-22T08:19:38Z</time>
      </trkpt>
      <trkpt lat="37.9514820" lon="-5.6184770">
        <ele>688.9</ele>
        <time>2022-05-22T08:19:39Z</time>
      </trkpt>
      <trkpt lat="37.9514810" lon="-5.6184730">
        <ele>688.9</ele>
        <time>2022-05-22T08:19:40Z</time>
      </trkpt>
      <trkpt lat="37.9514800" lon="-5.6184690">
        <ele>688.9</ele>
        <time>2022-05-22T08:19:41Z</time>
      </trkpt>
      <trkpt lat="37.9514770" lon="-5.6184600">
        <ele>688.9</ele>
        <time>2022-05-22T08:19:42Z</time>
      </trkpt>
      <trkpt lat="37.9514730" lon="-5.6184510">
        <ele>688.9</ele>
        <time>2022-05-22T08:19:43Z</time>
      </trkpt>
      <trkpt lat="37.9514710" lon="-5.6184500">
        <ele>688.9</ele>
        <time>2022-05-22T08:19:44Z</time>
      </trkpt>
      <trkpt lat="37.9514710" lon="-5.6184520">
        <ele>688.9</ele>
        <time>2022-05-22T08:19:45Z</time>
      </trkpt>
      <trkpt lat="37.9514710" lon="-5.6184530">
        <ele>688.9</ele>
        <time>2022-05-22T08:19:46Z</time>
      </trkpt>
      <trkpt lat="37.9514720" lon="-5.6184530">
        <ele>688.9</ele>
        <time>2022-05-22T08:19:47Z</time>
      </trkpt>
      <trkpt lat="37.9514700" lon="-5.6184510">
        <ele>688.9</ele>
        <time>2022-05-22T08:19:49Z</time>
      </trkpt>
      <trkpt lat="37.9514690" lon="-5.6184500">
        <ele>688.9</ele>
        <time>2022-05-22T08:19:50Z</time>
      </trkpt>
      <trkpt lat="37.9514690" lon="-5.6184500">
        <ele>688.9</ele>
        <time>2022-05-22T08:19:51Z</time>
      </trkpt>
      <trkpt lat="37.9514680" lon="-5.6184490">
        <ele>688.9</ele>
        <time>2022-05-22T08:19:52Z</time>
      </trkpt>
      <trkpt lat="37.9514670" lon="-5.6184480">
        <ele>688.9</ele>
        <time>2022-05-22T08:19:53Z</time>
      </trkpt>
      <trkpt lat="37.9514660" lon="-5.6184480">
        <ele>688.9</ele>
        <time>2022-05-22T08:19:54Z</time>
      </trkpt>
      <trkpt lat="37.9514650" lon="-5.6184480">
        <ele>688.9</ele>
        <time>2022-05-22T08:19:55Z</time>
      </trkpt>
      <trkpt lat="37.9514630" lon="-5.6184470">
        <ele>688.9</ele>
        <time>2022-05-22T08:19:56Z</time>
      </trkpt>
      <trkpt lat="37.9514600" lon="-5.6184480">
        <ele>688.9</ele>
        <time>2022-05-22T08:19:57Z</time>
      </trkpt>
      <trkpt lat="37.9514570" lon="-5.6184490">
        <ele>688.9</ele>
        <time>2022-05-22T08:19:58Z</time>
      </trkpt>
      <trkpt lat="37.9514540" lon="-5.6184490">
        <ele>688.9</ele>
        <time>2022-05-22T08:19:59Z</time>
      </trkpt>
      <trkpt lat="37.9514510" lon="-5.6184500">
        <ele>688.9</ele>
        <time>2022-05-22T08:20:00Z</time>
      </trkpt>
      <trkpt lat="37.9514480" lon="-5.6184520">
        <ele>688.9</ele>
        <time>2022-05-22T08:20:01Z</time>
      </trkpt>
      <trkpt lat="37.9514460" lon="-5.6184540">
        <ele>688.9</ele>
        <time>2022-05-22T08:20:02Z</time>
      </trkpt>
      <trkpt lat="37.9514170" lon="-5.6184290">
        <ele>688.9</ele>
        <time>2022-05-22T08:20:07Z</time>
      </trkpt>
      <trkpt lat="37.9514150" lon="-5.6184230">
        <ele>688.9</ele>
        <time>2022-05-22T08:20:08Z</time>
      </trkpt>
      <trkpt lat="37.9514140" lon="-5.6184160">
        <ele>688.9</ele>
        <time>2022-05-22T08:20:09Z</time>
      </trkpt>
      <trkpt lat="37.9514130" lon="-5.6184090">
        <ele>688.9</ele>
        <time>2022-05-22T08:20:10Z</time>
      </trkpt>
      <trkpt lat="37.9514370" lon="-5.6184330">
        <ele>688.9</ele>
        <time>2022-05-22T08:20:11Z</time>
      </trkpt>
      <trkpt lat="37.9514620" lon="-5.6184650">
        <ele>689.0</ele>
        <time>2022-05-22T08:20:19Z</time>
      </trkpt>
      <trkpt lat="37.9514870" lon="-5.6184960">
        <ele>689.0</ele>
        <time>2022-05-22T08:20:20Z</time>
      </trkpt>
      <trkpt lat="37.9515110" lon="-5.6185280">
        <ele>689.0</ele>
        <time>2022-05-22T08:20:21Z</time>
      </trkpt>
      <trkpt lat="37.9515360" lon="-5.6185600">
        <ele>689.0</ele>
        <time>2022-05-22T08:20:22Z</time>
      </trkpt>
      <trkpt lat="37.9515610" lon="-5.6185910">
        <ele>689.0</ele>
        <time>2022-05-22T08:22:24Z</time>
      </trkpt>
      <trkpt lat="37.9515860" lon="-5.6186230">
        <ele>689.0</ele>
        <time>2022-05-22T08:22:25Z</time>
      </trkpt>
      <trkpt lat="37.9516110" lon="-5.6186550">
        <ele>689.0</ele>
        <time>2022-05-22T08:22:26Z</time>
      </trkpt>
      <trkpt lat="37.9516020" lon="-5.6187110">
        <ele>689.0</ele>
        <time>2022-05-22T08:22:27Z</time>
      </trkpt>
      <trkpt lat="37.9515900" lon="-5.6187400">
        <ele>689.0</ele>
        <time>2022-05-22T08:22:28Z</time>
      </trkpt>
      <trkpt lat="37.9515780" lon="-5.6187700">
        <ele>689.1</ele>
        <time>2022-05-22T08:22:29Z</time>
      </trkpt>
      <trkpt lat="37.9515660" lon="-5.6187990">
        <ele>689.1</ele>
        <time>2022-05-22T08:22:30Z</time>
      </trkpt>
      <trkpt lat="37.9515540" lon="-5.6188290">
        <ele>689.1</ele>
        <time>2022-05-22T08:22:31Z</time>
      </trkpt>
      <trkpt lat="37.9515530" lon="-5.6188410">
        <ele>689.1</ele>
        <time>2022-05-22T08:22:32Z</time>
      </trkpt>
      <trkpt lat="37.9515510" lon="-5.6188490">
        <ele>689.1</ele>
        <time>2022-05-22T08:22:33Z</time>
      </trkpt>
      <trkpt lat="37.9515500" lon="-5.6188590">
        <ele>689.1</ele>
        <time>2022-05-22T08:22:34Z</time>
      </trkpt>
      <trkpt lat="37.9515500" lon="-5.6188670">
        <ele>689.1</ele>
        <time>2022-05-22T08:22:35Z</time>
      </trkpt>
      <trkpt lat="37.9515500" lon="-5.6188740">
        <ele>689.1</ele>
        <time>2022-05-22T08:22:36Z</time>
      </trkpt>
      <trkpt lat="37.9515510" lon="-5.6188810">
        <ele>689.1</ele>
        <time>2022-05-22T08:22:37Z</time>
      </trkpt>
      <trkpt lat="37.9515500" lon="-5.6188900">
        <ele>689.1</ele>
        <time>2022-05-22T08:22:38Z</time>
      </trkpt>
      <trkpt lat="37.9515510" lon="-5.6189010">
        <ele>689.1</ele>
        <time>2022-05-22T08:22:39Z</time>
      </trkpt>
      <trkpt lat="37.9515500" lon="-5.6189110">
        <ele>689.1</ele>
        <time>2022-05-22T08:22:40Z</time>
      </trkpt>
      <trkpt lat="37.9515480" lon="-5.6189240">
        <ele>689.1</ele>
        <time>2022-05-22T08:22:41Z</time>
      </trkpt>
      <trkpt lat="37.9515450" lon="-5.6189360">
        <ele>689.0</ele>
        <time>2022-05-22T08:22:42Z</time>
      </trkpt>
      <trkpt lat="37.9515410" lon="-5.6189480">
        <ele>689.0</ele>
        <time>2022-05-22T08:22:43Z</time>
      </trkpt>
      <trkpt lat="37.9515400" lon="-5.6189720">
        <ele>689.0</ele>
        <time>2022-05-22T08:22:44Z</time>
      </trkpt>
      <trkpt lat="37.9515400" lon="-5.6189840">
        <ele>689.0</ele>
        <time>2022-05-22T08:22:45Z</time>
      </trkpt>
      <trkpt lat="37.9515410" lon="-5.6189950">
        <ele>689.0</ele>
        <time>2022-05-22T08:22:46Z</time>
      </trkpt>
      <trkpt lat="37.9515420" lon="-5.6190140">
        <ele>689.0</ele>
        <time>2022-05-22T08:22:47Z</time>
      </trkpt>
      <trkpt lat="37.9515440" lon="-5.6190360">
        <ele>689.0</ele>
        <time>2022-05-22T08:22:48Z</time>
      </trkpt>
      <trkpt lat="37.9515470" lon="-5.6190550">
        <ele>689.0</ele>
        <time>2022-05-22T08:22:49Z</time>
      </trkpt>
      <trkpt lat="37.9515510" lon="-5.6190720">
        <ele>689.0</ele>
        <time>2022-05-22T08:22:50Z</time>
      </trkpt>
      <trkpt lat="37.9515550" lon="-5.6190890">
        <ele>689.0</ele>
        <time>2022-05-22T08:22:51Z</time>
      </trkpt>
      <trkpt lat="37.9515600" lon="-5.6191060">
        <ele>689.0</ele>
        <time>2022-05-22T08:22:52Z</time>
      </trkpt>
      <trkpt lat="37.9515680" lon="-5.6191320">
        <ele>688.9</ele>
        <time>2022-05-22T08:22:53Z</time>
      </trkpt>
      <trkpt lat="37.9515720" lon="-5.6191430">
        <ele>688.9</ele>
        <time>2022-05-22T08:22:54Z</time>
      </trkpt>
      <trkpt lat="37.9515750" lon="-5.6191540">
        <ele>688.9</ele>
        <time>2022-05-22T08:22:55Z</time>
      </trkpt>
      <trkpt lat="37.9515790" lon="-5.6191710">
        <ele>688.9</ele>
        <time>2022-05-22T08:22:56Z</time>
      </trkpt>
      <trkpt lat="37.9515820" lon="-5.6191890">
        <ele>688.9</ele>
        <time>2022-05-22T08:22:57Z</time>
      </trkpt>
      <trkpt lat="37.9515860" lon="-5.6192050">
        <ele>688.9</ele>
        <time>2022-05-22T08:22:58Z</time>
      </trkpt>
      <trkpt lat="37.9515900" lon="-5.6192230">
        <ele>688.9</ele>
        <time>2022-05-22T08:22:59Z</time>
      </trkpt>
      <trkpt lat="37.9515950" lon="-5.6192400">
        <ele>688.9</ele>
        <time>2022-05-22T08:23:00Z</time>
      </trkpt>
      <trkpt lat="37.9516000" lon="-5.6192570">
        <ele>688.9</ele>
        <time>2022-05-22T08:23:01Z</time>
      </trkpt>
      <trkpt lat="37.9516130" lon="-5.6192790">
        <ele>688.9</ele>
        <time>2022-05-22T08:23:02Z</time>
      </trkpt>
      <trkpt lat="37.9516190" lon="-5.6192860">
        <ele>688.9</ele>
        <time>2022-05-22T08:23:03Z</time>
      </trkpt>
      <trkpt lat="37.9516250" lon="-5.6192930">
        <ele>688.9</ele>
        <time>2022-05-22T08:23:04Z</time>
      </trkpt>
      <trkpt lat="37.9516360" lon="-5.6192880">
        <ele>688.9</ele>
        <time>2022-05-22T08:23:05Z</time>
      </trkpt>
      <trkpt lat="37.9516400" lon="-5.6192820">
        <ele>688.9</ele>
        <time>2022-05-22T08:23:06Z</time>
      </trkpt>
      <trkpt lat="37.9516420" lon="-5.6192750">
        <ele>688.9</ele>
        <time>2022-05-22T08:23:07Z</time>
      </trkpt>
      <trkpt lat="37.9516420" lon="-5.6192720">
        <ele>688.9</ele>
        <time>2022-05-22T08:23:08Z</time>
      </trkpt>
      <trkpt lat="37.9516430" lon="-5.6192700">
        <ele>688.9</ele>
        <time>2022-05-22T08:23:09Z</time>
      </trkpt>
      <trkpt lat="37.9516440" lon="-5.6192700">
        <ele>688.9</ele>
        <time>2022-05-22T08:23:10Z</time>
      </trkpt>
      <trkpt lat="37.9516440" lon="-5.6192720">
        <ele>688.9</ele>
        <time>2022-05-22T08:23:11Z</time>
      </trkpt>
      <trkpt lat="37.9516440" lon="-5.6192740">
        <ele>688.9</ele>
        <time>2022-05-22T08:23:12Z</time>
      </trkpt>
      <trkpt lat="37.9516450" lon="-5.6192760">
        <ele>688.9</ele>
        <time>2022-05-22T08:23:13Z</time>
      </trkpt>
      <trkpt lat="37.9516510" lon="-5.6192770">
        <ele>688.9</ele>
        <time>2022-05-22T08:23:15Z</time>
      </trkpt>
      <trkpt lat="37.9516520" lon="-5.6192780">
        <ele>688.9</ele>
        <time>2022-05-22T08:23:16Z</time>
      </trkpt>
      <trkpt lat="37.9516540" lon="-5.6192780">
        <ele>688.9</ele>
        <time>2022-05-22T08:23:17Z</time>
      </trkpt>
      <trkpt lat="37.9516550" lon="-5.6192790">
        <ele>688.9</ele>
        <time>2022-05-22T08:23:18Z</time>
      </trkpt>
      <trkpt lat="37.9516560" lon="-5.6192790">
        <ele>688.9</ele>
        <time>2022-05-22T08:23:19Z</time>
      </trkpt>
      <trkpt lat="37.9516590" lon="-5.6192800">
        <ele>688.9</ele>
        <time>2022-05-22T08:23:21Z</time>
      </trkpt>
      <trkpt lat="37.9516600" lon="-5.6192830">
        <ele>688.9</ele>
        <time>2022-05-22T08:23:22Z</time>
      </trkpt>
      <trkpt lat="37.9516640" lon="-5.6192880">
        <ele>688.9</ele>
        <time>2022-05-22T08:23:23Z</time>
      </trkpt>
      <trkpt lat="37.9516700" lon="-5.6192970">
        <ele>688.9</ele>
        <time>2022-05-22T08:23:24Z</time>
      </trkpt>
      <trkpt lat="37.9516620" lon="-5.6192950">
        <ele>688.9</ele>
        <time>2022-05-22T08:23:25Z</time>
      </trkpt>
      <trkpt lat="37.9516570" lon="-5.6193000">
        <ele>688.9</ele>
        <time>2022-05-22T08:23:26Z</time>
      </trkpt>
      <trkpt lat="37.9516580" lon="-5.6193070">
        <ele>688.9</ele>
        <time>2022-05-22T08:23:27Z</time>
      </trkpt>
      <trkpt lat="37.9516600" lon="-5.6193140">
        <ele>688.9</ele>
        <time>2022-05-22T08:23:28Z</time>
      </trkpt>
      <trkpt lat="37.9516630" lon="-5.6193230">
        <ele>688.9</ele>
        <time>2022-05-22T08:23:29Z</time>
      </trkpt>
      <trkpt lat="37.9516680" lon="-5.6193330">
        <ele>688.9</ele>
        <time>2022-05-22T08:23:30Z</time>
      </trkpt>
      <trkpt lat="37.9516880" lon="-5.6193610">
        <ele>688.9</ele>
        <time>2022-05-22T08:23:32Z</time>
      </trkpt>
      <trkpt lat="37.9517050" lon="-5.6193670">
        <ele>688.9</ele>
        <time>2022-05-22T08:23:33Z</time>
      </trkpt>
      <trkpt lat="37.9517250" lon="-5.6193820">
        <ele>688.9</ele>
        <time>2022-05-22T08:23:35Z</time>
      </trkpt>
      <trkpt lat="37.9517350" lon="-5.6193970">
        <ele>688.9</ele>
        <time>2022-05-22T08:23:36Z</time>
      </trkpt>
      <trkpt lat="37.9517540" lon="-5.6194300">
        <ele>688.9</ele>
        <time>2022-05-22T08:23:38Z</time>
      </trkpt>
      <trkpt lat="37.9517630" lon="-5.6194640">
        <ele>688.9</ele>
        <time>2022-05-22T08:23:39Z</time>
      </trkpt>
      <trkpt lat="37.9517630" lon="-5.6194800">
        <ele>688.9</ele>
        <time>2022-05-22T08:23:41Z</time>
      </trkpt>
      <trkpt lat="37.9517630" lon="-5.6194970">
        <ele>688.9</ele>
        <time>2022-05-22T08:23:42Z</time>
      </trkpt>
      <trkpt lat="37.9517640" lon="-5.6195140">
        <ele>688.9</ele>
        <time>2022-05-22T08:23:43Z</time>
      </trkpt>
      <trkpt lat="37.9517560" lon="-5.6195470">
        <ele>689.0</ele>
        <time>2022-05-22T08:23:44Z</time>
      </trkpt>
      <trkpt lat="37.9517510" lon="-5.6195600">
        <ele>689.0</ele>
        <time>2022-05-22T08:23:45Z</time>
      </trkpt>
      <trkpt lat="37.9517480" lon="-5.6195780">
        <ele>689.0</ele>
        <time>2022-05-22T08:23:46Z</time>
      </trkpt>
      <trkpt lat="37.9517430" lon="-5.6195960">
        <ele>689.0</ele>
        <time>2022-05-22T08:23:47Z</time>
      </trkpt>
      <trkpt lat="37.9517270" lon="-5.6196210">
        <ele>689.0</ele>
        <time>2022-05-22T08:23:48Z</time>
      </trkpt>
      <trkpt lat="37.9517190" lon="-5.6196320">
        <ele>689.0</ele>
        <time>2022-05-22T08:23:49Z</time>
      </trkpt>
      <trkpt lat="37.9516950" lon="-5.6196520">
        <ele>689.0</ele>
        <time>2022-05-22T08:23:50Z</time>
      </trkpt>
      <trkpt lat="37.9516880" lon="-5.6196580">
        <ele>689.0</ele>
        <time>2022-05-22T08:23:51Z</time>
      </trkpt>
      <trkpt lat="37.9516750" lon="-5.6196690">
        <ele>689.0</ele>
        <time>2022-05-22T08:23:52Z</time>
      </trkpt>
      <trkpt lat="37.9516620" lon="-5.6196810">
        <ele>689.1</ele>
        <time>2022-05-22T08:23:53Z</time>
      </trkpt>
      <trkpt lat="37.9516350" lon="-5.6197190">
        <ele>689.1</ele>
        <time>2022-05-22T08:23:55Z</time>
      </trkpt>
      <trkpt lat="37.9516300" lon="-5.6197290">
        <ele>689.1</ele>
        <time>2022-05-22T08:23:56Z</time>
      </trkpt>
      <trkpt lat="37.9516240" lon="-5.6197390">
        <ele>689.1</ele>
        <time>2022-05-22T08:23:57Z</time>
      </trkpt>
      <trkpt lat="37.9516180" lon="-5.6197490">
        <ele>689.1</ele>
        <time>2022-05-22T08:23:58Z</time>
      </trkpt>
      <trkpt lat="37.9516100" lon="-5.6197630">
        <ele>689.1</ele>
        <time>2022-05-22T08:23:59Z</time>
      </trkpt>
      <trkpt lat="37.9515980" lon="-5.6197780">
        <ele>689.1</ele>
        <time>2022-05-22T08:24:00Z</time>
      </trkpt>
      <trkpt lat="37.9515910" lon="-5.6197840">
        <ele>689.1</ele>
        <time>2022-05-22T08:24:01Z</time>
      </trkpt>
      <trkpt lat="37.9515820" lon="-5.6197880">
        <ele>689.1</ele>
        <time>2022-05-22T08:24:02Z</time>
      </trkpt>
      <trkpt lat="37.9515740" lon="-5.6197930">
        <ele>689.1</ele>
        <time>2022-05-22T08:24:03Z</time>
      </trkpt>
      <trkpt lat="37.9515650" lon="-5.6197950">
        <ele>689.2</ele>
        <time>2022-05-22T08:24:05Z</time>
      </trkpt>
      <trkpt lat="37.9515570" lon="-5.6197960">
        <ele>689.2</ele>
        <time>2022-05-22T08:24:06Z</time>
      </trkpt>
      <trkpt lat="37.9515430" lon="-5.6197930">
        <ele>689.2</ele>
        <time>2022-05-22T08:24:07Z</time>
      </trkpt>
      <trkpt lat="37.9515330" lon="-5.6197840">
        <ele>689.9</ele>
        <time>2022-05-22T08:24:09Z</time>
      </trkpt>
      <trkpt lat="37.9515210" lon="-5.6197630">
        <ele>690.1</ele>
        <time>2022-05-22T08:24:10Z</time>
      </trkpt>
      <trkpt lat="37.9515100" lon="-5.6197520">
        <ele>690.3</ele>
        <time>2022-05-22T08:24:11Z</time>
      </trkpt>
      <trkpt lat="37.9514990" lon="-5.6197370">
        <ele>690.5</ele>
        <time>2022-05-22T08:24:12Z</time>
      </trkpt>
      <trkpt lat="37.9514840" lon="-5.6197210">
        <ele>690.7</ele>
        <time>2022-05-22T08:24:13Z</time>
      </trkpt>
      <trkpt lat="37.9514770" lon="-5.6197150">
        <ele>690.8</ele>
        <time>2022-05-22T08:24:14Z</time>
      </trkpt>
      <trkpt lat="37.9514710" lon="-5.6197090">
        <ele>690.9</ele>
        <time>2022-05-22T08:24:15Z</time>
      </trkpt>
      <trkpt lat="37.9514580" lon="-5.6196990">
        <ele>691.2</ele>
        <time>2022-05-22T08:24:17Z</time>
      </trkpt>
      <trkpt lat="37.9514500" lon="-5.6196850">
        <ele>691.4</ele>
        <time>2022-05-22T08:24:18Z</time>
      </trkpt>
      <trkpt lat="37.9514420" lon="-5.6196720">
        <ele>691.5</ele>
        <time>2022-05-22T08:24:19Z</time>
      </trkpt>
      <trkpt lat="37.9514370" lon="-5.6196620">
        <ele>691.7</ele>
        <time>2022-05-22T08:24:20Z</time>
      </trkpt>
      <trkpt lat="37.9514360" lon="-5.6196500">
        <ele>691.8</ele>
        <time>2022-05-22T08:24:21Z</time>
      </trkpt>
      <trkpt lat="37.9514330" lon="-5.6196240">
        <ele>692.1</ele>
        <time>2022-05-22T08:24:23Z</time>
      </trkpt>
      <trkpt lat="37.9514340" lon="-5.6196120">
        <ele>692.3</ele>
        <time>2022-05-22T08:24:24Z</time>
      </trkpt>
      <trkpt lat="37.9514340" lon="-5.6196000">
        <ele>692.5</ele>
        <time>2022-05-22T08:24:25Z</time>
      </trkpt>
      <trkpt lat="37.9514270" lon="-5.6195780">
        <ele>692.8</ele>
        <time>2022-05-22T08:24:27Z</time>
      </trkpt>
      <trkpt lat="37.9514230" lon="-5.6195640">
        <ele>693.0</ele>
        <time>2022-05-22T08:24:29Z</time>
      </trkpt>
      <trkpt lat="37.9514180" lon="-5.6195520">
        <ele>693.2</ele>
        <time>2022-05-22T08:24:30Z</time>
      </trkpt>
      <trkpt lat="37.9514130" lon="-5.6195290">
        <ele>693.5</ele>
        <time>2022-05-22T08:24:31Z</time>
      </trkpt>
      <trkpt lat="37.9514140" lon="-5.6195090">
        <ele>693.8</ele>
        <time>2022-05-22T08:24:32Z</time>
      </trkpt>
      <trkpt lat="37.9514130" lon="-5.6194930">
        <ele>694.0</ele>
        <time>2022-05-22T08:24:34Z</time>
      </trkpt>
      <trkpt lat="37.9514110" lon="-5.6194790">
        <ele>694.2</ele>
        <time>2022-05-22T08:24:35Z</time>
      </trkpt>
      <trkpt lat="37.9514090" lon="-5.6194650">
        <ele>694.4</ele>
        <time>2022-05-22T08:24:36Z</time>
      </trkpt>
      <trkpt lat="37.9514050" lon="-5.6194360">
        <ele>694.9</ele>
        <time>2022-05-22T08:24:38Z</time>
      </trkpt>
      <trkpt lat="37.9514020" lon="-5.6194230">
        <ele>695.1</ele>
        <time>2022-05-22T08:24:39Z</time>
      </trkpt>
      <trkpt lat="37.9513990" lon="-5.6194120">
        <ele>695.3</ele>
        <time>2022-05-22T08:24:40Z</time>
      </trkpt>
      <trkpt lat="37.9513960" lon="-5.6193980">
        <ele>695.5</ele>
        <time>2022-05-22T08:24:41Z</time>
      </trkpt>
      <trkpt lat="37.9513900" lon="-5.6193780">
        <ele>695.8</ele>
        <time>2022-05-22T08:24:42Z</time>
      </trkpt>
      <trkpt lat="37.9513870" lon="-5.6193620">
        <ele>696.1</ele>
        <time>2022-05-22T08:24:44Z</time>
      </trkpt>
      <trkpt lat="37.9513860" lon="-5.6193400">
        <ele>696.5</ele>
        <time>2022-05-22T08:24:46Z</time>
      </trkpt>
      <trkpt lat="37.9513910" lon="-5.6193270">
        <ele>696.7</ele>
        <time>2022-05-22T08:24:47Z</time>
      </trkpt>
      <trkpt lat="37.9513990" lon="-5.6193150">
        <ele>697.0</ele>
        <time>2022-05-22T08:24:48Z</time>
      </trkpt>
      <trkpt lat="37.9514070" lon="-5.6193110">
        <ele>697.2</ele>
        <time>2022-05-22T08:24:50Z</time>
      </trkpt>
      <trkpt lat="37.9514120" lon="-5.6193090">
        <ele>697.3</ele>
        <time>2022-05-22T08:24:51Z</time>
      </trkpt>
      <trkpt lat="37.9514150" lon="-5.6193120">
        <ele>697.3</ele>
        <time>2022-05-22T08:24:52Z</time>
      </trkpt>
      <trkpt lat="37.9514150" lon="-5.6193100">
        <ele>697.4</ele>
        <time>2022-05-22T08:24:53Z</time>
      </trkpt>
      <trkpt lat="37.9514100" lon="-5.6192970">
        <ele>697.6</ele>
        <time>2022-05-22T08:24:54Z</time>
      </trkpt>
      <trkpt lat="37.9514070" lon="-5.6192890">
        <ele>697.8</ele>
        <time>2022-05-22T08:24:55Z</time>
      </trkpt>
      <trkpt lat="37.9514050" lon="-5.6192810">
        <ele>697.9</ele>
        <time>2022-05-22T08:24:56Z</time>
      </trkpt>
      <trkpt lat="37.9514020" lon="-5.6192730">
        <ele>698.1</ele>
        <time>2022-05-22T08:24:57Z</time>
      </trkpt>
      <trkpt lat="37.9513990" lon="-5.6192650">
        <ele>698.2</ele>
        <time>2022-05-22T08:24:58Z</time>
      </trkpt>
      <trkpt lat="37.9513940" lon="-5.6192520">
        <ele>698.5</ele>
        <time>2022-05-22T08:24:59Z</time>
      </trkpt>
      <trkpt lat="37.9513850" lon="-5.6192350">
        <ele>698.8</ele>
        <time>2022-05-22T08:25:00Z</time>
      </trkpt>
      <trkpt lat="37.9513810" lon="-5.6192240">
        <ele>699.0</ele>
        <time>2022-05-22T08:25:01Z</time>
      </trkpt>
      <trkpt lat="37.9513760" lon="-5.6192090">
        <ele>699.3</ele>
        <time>2022-05-22T08:25:02Z</time>
      </trkpt>
      <trkpt lat="37.9513710" lon="-5.6191830">
        <ele>699.7</ele>
        <time>2022-05-22T08:25:03Z</time>
      </trkpt>
      <trkpt lat="37.9513690" lon="-5.6191700">
        <ele>700.0</ele>
        <time>2022-05-22T08:25:05Z</time>
      </trkpt>
      <trkpt lat="37.9513650" lon="-5.6191540">
        <ele>700.2</ele>
        <time>2022-05-22T08:25:06Z</time>
      </trkpt>
      <trkpt lat="37.9513610" lon="-5.6191440">
        <ele>700.4</ele>
        <time>2022-05-22T08:25:07Z</time>
      </trkpt>
      <trkpt lat="37.9513570" lon="-5.6191320">
        <ele>700.6</ele>
        <time>2022-05-22T08:25:08Z</time>
      </trkpt>
      <trkpt lat="37.9513540" lon="-5.6191220">
        <ele>700.8</ele>
        <time>2022-05-22T08:25:09Z</time>
      </trkpt>
      <trkpt lat="37.9513500" lon="-5.6191050">
        <ele>701.1</ele>
        <time>2022-05-22T08:25:10Z</time>
      </trkpt>
      <trkpt lat="37.9513450" lon="-5.6190860">
        <ele>701.4</ele>
        <time>2022-05-22T08:25:11Z</time>
      </trkpt>
      <trkpt lat="37.9513420" lon="-5.6190750">
        <ele>701.6</ele>
        <time>2022-05-22T08:25:12Z</time>
      </trkpt>
      <trkpt lat="37.9513390" lon="-5.6190590">
        <ele>701.9</ele>
        <time>2022-05-22T08:25:14Z</time>
      </trkpt>
      <trkpt lat="37.9513360" lon="-5.6190490">
        <ele>702.1</ele>
        <time>2022-05-22T08:25:15Z</time>
      </trkpt>
      <trkpt lat="37.9513340" lon="-5.6190360">
        <ele>702.3</ele>
        <time>2022-05-22T08:25:16Z</time>
      </trkpt>
      <trkpt lat="37.9513310" lon="-5.6190200">
        <ele>702.5</ele>
        <time>2022-05-22T08:25:17Z</time>
      </trkpt>
      <trkpt lat="37.9513320" lon="-5.6190140">
        <ele>702.6</ele>
        <time>2022-05-22T08:25:18Z</time>
      </trkpt>
      <trkpt lat="37.9513320" lon="-5.6190010">
        <ele>702.8</ele>
        <time>2022-05-22T08:25:19Z</time>
      </trkpt>
      <trkpt lat="37.9513310" lon="-5.6189930">
        <ele>703.0</ele>
        <time>2022-05-22T08:25:20Z</time>
      </trkpt>
      <trkpt lat="37.9513310" lon="-5.6189850">
        <ele>703.1</ele>
        <time>2022-05-22T08:25:21Z</time>
      </trkpt>
      <trkpt lat="37.9513300" lon="-5.6189770">
        <ele>703.2</ele>
        <time>2022-05-22T08:25:22Z</time>
      </trkpt>
      <trkpt lat="37.9513290" lon="-5.6189690">
        <ele>703.3</ele>
        <time>2022-05-22T08:25:23Z</time>
      </trkpt>
      <trkpt lat="37.9513290" lon="-5.6189600">
        <ele>703.5</ele>
        <time>2022-05-22T08:25:24Z</time>
      </trkpt>
      <trkpt lat="37.9513280" lon="-5.6189500">
        <ele>703.6</ele>
        <time>2022-05-22T08:25:25Z</time>
      </trkpt>
      <trkpt lat="37.9513260" lon="-5.6189400">
        <ele>703.7</ele>
        <time>2022-05-22T08:25:27Z</time>
      </trkpt>
      <trkpt lat="37.9513250" lon="-5.6189280">
        <ele>703.9</ele>
        <time>2022-05-22T08:25:28Z</time>
      </trkpt>
      <trkpt lat="37.9513220" lon="-5.6189110">
        <ele>704.1</ele>
        <time>2022-05-22T08:25:29Z</time>
      </trkpt>
      <trkpt lat="37.9513180" lon="-5.6188990">
        <ele>704.3</ele>
        <time>2022-05-22T08:25:30Z</time>
      </trkpt>
      <trkpt lat="37.9513130" lon="-5.6188880">
        <ele>704.4</ele>
        <time>2022-05-22T08:25:31Z</time>
      </trkpt>
      <trkpt lat="37.9513040" lon="-5.6188770">
        <ele>704.6</ele>
        <time>2022-05-22T08:25:32Z</time>
      </trkpt>
      <trkpt lat="37.9512890" lon="-5.6188670">
        <ele>704.8</ele>
        <time>2022-05-22T08:25:33Z</time>
      </trkpt>
      <trkpt lat="37.9512810" lon="-5.6188570">
        <ele>705.0</ele>
        <time>2022-05-22T08:25:34Z</time>
      </trkpt>
      <trkpt lat="37.9512750" lon="-5.6188490">
        <ele>705.1</ele>
        <time>2022-05-22T08:25:35Z</time>
      </trkpt>
      <trkpt lat="37.9512680" lon="-5.6188400">
        <ele>705.2</ele>
        <time>2022-05-22T08:25:36Z</time>
      </trkpt>
      <trkpt lat="37.9512620" lon="-5.6188280">
        <ele>705.3</ele>
        <time>2022-05-22T08:25:37Z</time>
      </trkpt>
      <trkpt lat="37.9512590" lon="-5.6188170">
        <ele>705.4</ele>
        <time>2022-05-22T08:25:38Z</time>
      </trkpt>
      <trkpt lat="37.9512570" lon="-5.6188050">
        <ele>705.5</ele>
        <time>2022-05-22T08:25:39Z</time>
      </trkpt>
      <trkpt lat="37.9512560" lon="-5.6187900">
        <ele>705.6</ele>
        <time>2022-05-22T08:25:40Z</time>
      </trkpt>
      <trkpt lat="37.9512550" lon="-5.6187760">
        <ele>705.7</ele>
        <time>2022-05-22T08:25:41Z</time>
      </trkpt>
      <trkpt lat="37.9512570" lon="-5.6187610">
        <ele>705.8</ele>
        <time>2022-05-22T08:25:42Z</time>
      </trkpt>
      <trkpt lat="37.9512590" lon="-5.6187410">
        <ele>706.0</ele>
        <time>2022-05-22T08:25:43Z</time>
      </trkpt>
      <trkpt lat="37.9512600" lon="-5.6187260">
        <ele>706.1</ele>
        <time>2022-05-22T08:25:44Z</time>
      </trkpt>
      <trkpt lat="37.9512630" lon="-5.6187110">
        <ele>706.1</ele>
        <time>2022-05-22T08:25:45Z</time>
      </trkpt>
      <trkpt lat="37.9512680" lon="-5.6186860">
        <ele>706.3</ele>
        <time>2022-05-22T08:25:46Z</time>
      </trkpt>
      <trkpt lat="37.9512790" lon="-5.6186390">
        <ele>706.6</ele>
        <time>2022-05-22T08:25:49Z</time>
      </trkpt>
      <trkpt lat="37.9512830" lon="-5.6186260">
        <ele>706.6</ele>
        <time>2022-05-22T08:25:50Z</time>
      </trkpt>
      <trkpt lat="37.9512860" lon="-5.6186130">
        <ele>706.7</ele>
        <time>2022-05-22T08:25:51Z</time>
      </trkpt>
      <trkpt lat="37.9512890" lon="-5.6186000">
        <ele>706.8</ele>
        <time>2022-05-22T08:25:52Z</time>
      </trkpt>
      <trkpt lat="37.9512960" lon="-5.6185820">
        <ele>706.9</ele>
        <time>2022-05-22T08:25:54Z</time>
      </trkpt>
      <trkpt lat="37.9512980" lon="-5.6185680">
        <ele>707.0</ele>
        <time>2022-05-22T08:25:55Z</time>
      </trkpt>
      <trkpt lat="37.9513050" lon="-5.6185440">
        <ele>707.1</ele>
        <time>2022-05-22T08:25:56Z</time>
      </trkpt>
      <trkpt lat="37.9513080" lon="-5.6185340">
        <ele>707.1</ele>
        <time>2022-05-22T08:25:57Z</time>
      </trkpt>
      <trkpt lat="37.9513110" lon="-5.6185250">
        <ele>707.2</ele>
        <time>2022-05-22T08:25:58Z</time>
      </trkpt>
      <trkpt lat="37.9513160" lon="-5.6185090">
        <ele>707.3</ele>
        <time>2022-05-22T08:25:59Z</time>
      </trkpt>
      <trkpt lat="37.9513210" lon="-5.6184890">
        <ele>707.4</ele>
        <time>2022-05-22T08:26:00Z</time>
      </trkpt>
      <trkpt lat="37.9513310" lon="-5.6184650">
        <ele>707.5</ele>
        <time>2022-05-22T08:26:01Z</time>
      </trkpt>
      <trkpt lat="37.9513360" lon="-5.6184550">
        <ele>707.6</ele>
        <time>2022-05-22T08:26:02Z</time>
      </trkpt>
      <trkpt lat="37.9513400" lon="-5.6184460">
        <ele>707.6</ele>
        <time>2022-05-22T08:26:03Z</time>
      </trkpt>
      <trkpt lat="37.9513410" lon="-5.6184350">
        <ele>707.7</ele>
        <time>2022-05-22T08:26:05Z</time>
      </trkpt>
      <trkpt lat="37.9513390" lon="-5.6184230">
        <ele>707.7</ele>
        <time>2022-05-22T08:26:06Z</time>
      </trkpt>
      <trkpt lat="37.9513370" lon="-5.6184150">
        <ele>707.8</ele>
        <time>2022-05-22T08:26:07Z</time>
      </trkpt>
      <trkpt lat="37.9513350" lon="-5.6184080">
        <ele>707.8</ele>
        <time>2022-05-22T08:26:08Z</time>
      </trkpt>
      <trkpt lat="37.9513300" lon="-5.6183900">
        <ele>707.9</ele>
        <time>2022-05-22T08:26:09Z</time>
      </trkpt>
      <trkpt lat="37.9513280" lon="-5.6183810">
        <ele>707.9</ele>
        <time>2022-05-22T08:26:10Z</time>
      </trkpt>
      <trkpt lat="37.9513260" lon="-5.6183720">
        <ele>708.0</ele>
        <time>2022-05-22T08:26:11Z</time>
      </trkpt>
      <trkpt lat="37.9513240" lon="-5.6183630">
        <ele>708.0</ele>
        <time>2022-05-22T08:26:12Z</time>
      </trkpt>
      <trkpt lat="37.9513240" lon="-5.6183520">
        <ele>708.1</ele>
        <time>2022-05-22T08:26:13Z</time>
      </trkpt>
      <trkpt lat="37.9513240" lon="-5.6183400">
        <ele>708.1</ele>
        <time>2022-05-22T08:26:14Z</time>
      </trkpt>
      <trkpt lat="37.9513240" lon="-5.6183250">
        <ele>708.2</ele>
        <time>2022-05-22T08:26:15Z</time>
      </trkpt>
      <trkpt lat="37.9513270" lon="-5.6183000">
        <ele>708.3</ele>
        <time>2022-05-22T08:26:16Z</time>
      </trkpt>
      <trkpt lat="37.9513270" lon="-5.6182940">
        <ele>708.4</ele>
        <time>2022-05-22T08:26:18Z</time>
      </trkpt>
      <trkpt lat="37.9513270" lon="-5.6182880">
        <ele>708.4</ele>
        <time>2022-05-22T08:26:19Z</time>
      </trkpt>
      <trkpt lat="37.9513280" lon="-5.6182820">
        <ele>708.4</ele>
        <time>2022-05-22T08:26:20Z</time>
      </trkpt>
      <trkpt lat="37.9513280" lon="-5.6182760">
        <ele>708.4</ele>
        <time>2022-05-22T08:26:21Z</time>
      </trkpt>
      <trkpt lat="37.9513290" lon="-5.6182700">
        <ele>708.5</ele>
        <time>2022-05-22T08:26:22Z</time>
      </trkpt>
      <trkpt lat="37.9513290" lon="-5.6182640">
        <ele>708.5</ele>
        <time>2022-05-22T08:26:23Z</time>
      </trkpt>
      <trkpt lat="37.9513290" lon="-5.6182590">
        <ele>708.5</ele>
        <time>2022-05-22T08:26:24Z</time>
      </trkpt>
      <trkpt lat="37.9513300" lon="-5.6182530">
        <ele>708.6</ele>
        <time>2022-05-22T08:26:25Z</time>
      </trkpt>
      <trkpt lat="37.9513300" lon="-5.6182470">
        <ele>708.6</ele>
        <time>2022-05-22T08:26:26Z</time>
      </trkpt>
      <trkpt lat="37.9513300" lon="-5.6182410">
        <ele>708.6</ele>
        <time>2022-05-22T08:26:27Z</time>
      </trkpt>
      <trkpt lat="37.9513310" lon="-5.6182350">
        <ele>708.6</ele>
        <time>2022-05-22T08:26:28Z</time>
      </trkpt>
      <trkpt lat="37.9513330" lon="-5.6182210">
        <ele>708.7</ele>
        <time>2022-05-22T08:26:30Z</time>
      </trkpt>
      <trkpt lat="37.9513360" lon="-5.6182070">
        <ele>708.8</ele>
        <time>2022-05-22T08:26:31Z</time>
      </trkpt>
      <trkpt lat="37.9513390" lon="-5.6181970">
        <ele>708.8</ele>
        <time>2022-05-22T08:26:32Z</time>
      </trkpt>
      <trkpt lat="37.9513420" lon="-5.6181870">
        <ele>708.9</ele>
        <time>2022-05-22T08:26:33Z</time>
      </trkpt>
      <trkpt lat="37.9513480" lon="-5.6181710">
        <ele>709.0</ele>
        <time>2022-05-22T08:26:34Z</time>
      </trkpt>
      <trkpt lat="37.9513520" lon="-5.6181580">
        <ele>709.0</ele>
        <time>2022-05-22T08:26:35Z</time>
      </trkpt>
      <trkpt lat="37.9513560" lon="-5.6181450">
        <ele>709.1</ele>
        <time>2022-05-22T08:26:36Z</time>
      </trkpt>
      <trkpt lat="37.9513600" lon="-5.6181300">
        <ele>709.2</ele>
        <time>2022-05-22T08:26:37Z</time>
      </trkpt>
      <trkpt lat="37.9513640" lon="-5.6181150">
        <ele>709.3</ele>
        <time>2022-05-22T08:26:38Z</time>
      </trkpt>
      <trkpt lat="37.9513660" lon="-5.6180990">
        <ele>709.3</ele>
        <time>2022-05-22T08:26:39Z</time>
      </trkpt>
      <trkpt lat="37.9513690" lon="-5.6180760">
        <ele>709.4</ele>
        <time>2022-05-22T08:26:40Z</time>
      </trkpt>
      <trkpt lat="37.9513760" lon="-5.6180470">
        <ele>709.6</ele>
        <time>2022-05-22T08:26:41Z</time>
      </trkpt>
      <trkpt lat="37.9513800" lon="-5.6180340">
        <ele>709.6</ele>
        <time>2022-05-22T08:26:42Z</time>
      </trkpt>
      <trkpt lat="37.9513840" lon="-5.6180210">
        <ele>709.7</ele>
        <time>2022-05-22T08:26:43Z</time>
      </trkpt>
      <trkpt lat="37.9513910" lon="-5.6180050">
        <ele>709.8</ele>
        <time>2022-05-22T08:26:44Z</time>
      </trkpt>
      <trkpt lat="37.9514010" lon="-5.6179830">
        <ele>709.9</ele>
        <time>2022-05-22T08:26:45Z</time>
      </trkpt>
      <trkpt lat="37.9514150" lon="-5.6179470">
        <ele>710.1</ele>
        <time>2022-05-22T08:26:47Z</time>
      </trkpt>
      <trkpt lat="37.9514190" lon="-5.6179330">
        <ele>710.2</ele>
        <time>2022-05-22T08:26:48Z</time>
      </trkpt>
      <trkpt lat="37.9514210" lon="-5.6179110">
        <ele>710.3</ele>
        <time>2022-05-22T08:26:50Z</time>
      </trkpt>
      <trkpt lat="37.9514250" lon="-5.6178900">
        <ele>710.4</ele>
        <time>2022-05-22T08:26:52Z</time>
      </trkpt>
      <trkpt lat="37.9514250" lon="-5.6178870">
        <ele>710.4</ele>
        <time>2022-05-22T08:26:53Z</time>
      </trkpt>
      <trkpt lat="37.9514260" lon="-5.6178860">
        <ele>710.4</ele>
        <time>2022-05-22T08:26:54Z</time>
      </trkpt>
      <trkpt lat="37.9514270" lon="-5.6178850">
        <ele>710.4</ele>
        <time>2022-05-22T08:26:55Z</time>
      </trkpt>
      <trkpt lat="37.9514280" lon="-5.6178840">
        <ele>710.4</ele>
        <time>2022-05-22T08:26:56Z</time>
      </trkpt>
      <trkpt lat="37.9514290" lon="-5.6178850">
        <ele>710.4</ele>
        <time>2022-05-22T08:26:57Z</time>
      </trkpt>
      <trkpt lat="37.9514300" lon="-5.6178840">
        <ele>710.4</ele>
        <time>2022-05-22T08:26:58Z</time>
      </trkpt>
      <trkpt lat="37.9514310" lon="-5.6178840">
        <ele>710.4</ele>
        <time>2022-05-22T08:26:59Z</time>
      </trkpt>
      <trkpt lat="37.9514310" lon="-5.6178840">
        <ele>710.4</ele>
        <time>2022-05-22T08:27:00Z</time>
      </trkpt>
      <trkpt lat="37.9514320" lon="-5.6178840">
        <ele>710.4</ele>
        <time>2022-05-22T08:27:01Z</time>
      </trkpt>
      <trkpt lat="37.9514330" lon="-5.6178840">
        <ele>710.4</ele>
        <time>2022-05-22T08:27:02Z</time>
      </trkpt>
      <trkpt lat="37.9514330" lon="-5.6178840">
        <ele>710.4</ele>
        <time>2022-05-22T08:27:03Z</time>
      </trkpt>
      <trkpt lat="37.9514330" lon="-5.6178840">
        <ele>710.4</ele>
        <time>2022-05-22T08:27:04Z</time>
      </trkpt>
      <trkpt lat="37.9514330" lon="-5.6178840">
        <ele>710.4</ele>
        <time>2022-05-22T08:27:05Z</time>
      </trkpt>
      <trkpt lat="37.9514330" lon="-5.6178840">
        <ele>710.4</ele>
        <time>2022-05-22T08:27:06Z</time>
      </trkpt>
      <trkpt lat="37.9514330" lon="-5.6178900">
        <ele>710.5</ele>
        <time>2022-05-22T08:27:07Z</time>
      </trkpt>
      <trkpt lat="37.9514340" lon="-5.6178950">
        <ele>710.5</ele>
        <time>2022-05-22T08:27:08Z</time>
      </trkpt>
      <trkpt lat="37.9514340" lon="-5.6178960">
        <ele>710.5</ele>
        <time>2022-05-22T08:27:09Z</time>
      </trkpt>
      <trkpt lat="37.9514340" lon="-5.6178960">
        <ele>710.5</ele>
        <time>2022-05-22T08:27:10Z</time>
      </trkpt>
      <trkpt lat="37.9514340" lon="-5.6178970">
        <ele>710.5</ele>
        <time>2022-05-22T08:27:11Z</time>
      </trkpt>
      <trkpt lat="37.9514340" lon="-5.6178970">
        <ele>710.5</ele>
        <time>2022-05-22T08:27:12Z</time>
      </trkpt>
      <trkpt lat="37.9514340" lon="-5.6178970">
        <ele>710.5</ele>
        <time>2022-05-22T08:27:13Z</time>
      </trkpt>
      <trkpt lat="37.9514340" lon="-5.6178980">
        <ele>710.5</ele>
        <time>2022-05-22T08:27:14Z</time>
      </trkpt>
      <trkpt lat="37.9514340" lon="-5.6178980">
        <ele>710.5</ele>
        <time>2022-05-22T08:27:15Z</time>
      </trkpt>
      <trkpt lat="37.9514340" lon="-5.6178980">
        <ele>710.5</ele>
        <time>2022-05-22T08:27:16Z</time>
      </trkpt>
      <trkpt lat="37.9514340" lon="-5.6178970">
        <ele>710.5</ele>
        <time>2022-05-22T08:27:17Z</time>
      </trkpt>
      <trkpt lat="37.9514340" lon="-5.6178930">
        <ele>710.5</ele>
        <time>2022-05-22T08:27:18Z</time>
      </trkpt>
      <trkpt lat="37.9514340" lon="-5.6178860">
        <ele>710.5</ele>
        <time>2022-05-22T08:27:19Z</time>
      </trkpt>
      <trkpt lat="37.9514330" lon="-5.6178770">
        <ele>710.6</ele>
        <time>2022-05-22T08:27:20Z</time>
      </trkpt>
      <trkpt lat="37.9514330" lon="-5.6178680">
        <ele>710.6</ele>
        <time>2022-05-22T08:27:21Z</time>
      </trkpt>
      <trkpt lat="37.9514350" lon="-5.6178530">
        <ele>710.7</ele>
        <time>2022-05-22T08:27:22Z</time>
      </trkpt>
      <trkpt lat="37.9514370" lon="-5.6178420">
        <ele>710.8</ele>
        <time>2022-05-22T08:27:23Z</time>
      </trkpt>
      <trkpt lat="37.9514400" lon="-5.6178290">
        <ele>710.8</ele>
        <time>2022-05-22T08:27:24Z</time>
      </trkpt>
      <trkpt lat="37.9514420" lon="-5.6178160">
        <ele>710.9</ele>
        <time>2022-05-22T08:27:25Z</time>
      </trkpt>
      <trkpt lat="37.9514510" lon="-5.6178070">
        <ele>710.9</ele>
        <time>2022-05-22T08:27:27Z</time>
      </trkpt>
      <trkpt lat="37.9514540" lon="-5.6177980">
        <ele>711.0</ele>
        <time>2022-05-22T08:27:28Z</time>
      </trkpt>
      <trkpt lat="37.9514590" lon="-5.6177880">
        <ele>711.1</ele>
        <time>2022-05-22T08:27:29Z</time>
      </trkpt>
      <trkpt lat="37.9514690" lon="-5.6177660">
        <ele>711.2</ele>
        <time>2022-05-22T08:27:30Z</time>
      </trkpt>
      <trkpt lat="37.9514750" lon="-5.6177540">
        <ele>711.2</ele>
        <time>2022-05-22T08:27:31Z</time>
      </trkpt>
      <trkpt lat="37.9514810" lon="-5.6177430">
        <ele>711.3</ele>
        <time>2022-05-22T08:27:32Z</time>
      </trkpt>
      <trkpt lat="37.9514870" lon="-5.6177290">
        <ele>711.4</ele>
        <time>2022-05-22T08:27:33Z</time>
      </trkpt>
      <trkpt lat="37.9514960" lon="-5.6177110">
        <ele>711.5</ele>
        <time>2022-05-22T08:27:34Z</time>
      </trkpt>
      <trkpt lat="37.9515020" lon="-5.6176960">
        <ele>711.6</ele>
        <time>2022-05-22T08:27:35Z</time>
      </trkpt>
      <trkpt lat="37.9515090" lon="-5.6176800">
        <ele>711.7</ele>
        <time>2022-05-22T08:27:36Z</time>
      </trkpt>
      <trkpt lat="37.9515160" lon="-5.6176550">
        <ele>711.8</ele>
        <time>2022-05-22T08:27:37Z</time>
      </trkpt>
      <trkpt lat="37.9515180" lon="-5.6176410">
        <ele>712.6</ele>
        <time>2022-05-22T08:27:38Z</time>
      </trkpt>
      <trkpt lat="37.9515180" lon="-5.6176260">
        <ele>712.6</ele>
        <time>2022-05-22T08:27:39Z</time>
      </trkpt>
      <trkpt lat="37.9515160" lon="-5.6175980">
        <ele>712.6</ele>
        <time>2022-05-22T08:27:41Z</time>
      </trkpt>
      <trkpt lat="37.9515180" lon="-5.6175880">
        <ele>712.6</ele>
        <time>2022-05-22T08:27:42Z</time>
      </trkpt>
      <trkpt lat="37.9515200" lon="-5.6175790">
        <ele>712.6</ele>
        <time>2022-05-22T08:27:43Z</time>
      </trkpt>
      <trkpt lat="37.9515220" lon="-5.6175760">
        <ele>712.6</ele>
        <time>2022-05-22T08:27:44Z</time>
      </trkpt>
      <trkpt lat="37.9515240" lon="-5.6175740">
        <ele>712.6</ele>
        <time>2022-05-22T08:27:45Z</time>
      </trkpt>
      <trkpt lat="37.9515250" lon="-5.6175740">
        <ele>712.6</ele>
        <time>2022-05-22T08:27:46Z</time>
      </trkpt>
      <trkpt lat="37.9515260" lon="-5.6175750">
        <ele>712.6</ele>
        <time>2022-05-22T08:27:47Z</time>
      </trkpt>
      <trkpt lat="37.9515260" lon="-5.6175750">
        <ele>712.6</ele>
        <time>2022-05-22T08:27:48Z</time>
      </trkpt>
      <trkpt lat="37.9515250" lon="-5.6175740">
        <ele>712.6</ele>
        <time>2022-05-22T08:27:50Z</time>
      </trkpt>
      <trkpt lat="37.9515240" lon="-5.6175740">
        <ele>712.6</ele>
        <time>2022-05-22T08:27:51Z</time>
      </trkpt>
      <trkpt lat="37.9515230" lon="-5.6175730">
        <ele>712.6</ele>
        <time>2022-05-22T08:27:52Z</time>
      </trkpt>
      <trkpt lat="37.9515230" lon="-5.6175710">
        <ele>712.6</ele>
        <time>2022-05-22T08:27:53Z</time>
      </trkpt>
      <trkpt lat="37.9515230" lon="-5.6175690">
        <ele>712.6</ele>
        <time>2022-05-22T08:27:54Z</time>
      </trkpt>
      <trkpt lat="37.9515230" lon="-5.6175650">
        <ele>712.6</ele>
        <time>2022-05-22T08:27:55Z</time>
      </trkpt>
      <trkpt lat="37.9515230" lon="-5.6175610">
        <ele>712.6</ele>
        <time>2022-05-22T08:27:56Z</time>
      </trkpt>
      <trkpt lat="37.9515220" lon="-5.6175480">
        <ele>712.6</ele>
        <time>2022-05-22T08:27:57Z</time>
      </trkpt>
      <trkpt lat="37.9515190" lon="-5.6175220">
        <ele>712.6</ele>
        <time>2022-05-22T08:27:58Z</time>
      </trkpt>
      <trkpt lat="37.9515180" lon="-5.6175110">
        <ele>712.6</ele>
        <time>2022-05-22T08:27:59Z</time>
      </trkpt>
      <trkpt lat="37.9515180" lon="-5.6175060">
        <ele>712.6</ele>
        <time>2022-05-22T08:28:00Z</time>
      </trkpt>
      <trkpt lat="37.9515180" lon="-5.6175000">
        <ele>712.6</ele>
        <time>2022-05-22T08:28:01Z</time>
      </trkpt>
      <trkpt lat="37.9515160" lon="-5.6174890">
        <ele>712.6</ele>
        <time>2022-05-22T08:28:02Z</time>
      </trkpt>
      <trkpt lat="37.9515170" lon="-5.6174780">
        <ele>712.6</ele>
        <time>2022-05-22T08:28:03Z</time>
      </trkpt>
      <trkpt lat="37.9515190" lon="-5.6174510">
        <ele>712.6</ele>
        <time>2022-05-22T08:28:04Z</time>
      </trkpt>
      <trkpt lat="37.9515200" lon="-5.6174410">
        <ele>712.6</ele>
        <time>2022-05-22T08:28:05Z</time>
      </trkpt>
      <trkpt lat="37.9515210" lon="-5.6174310">
        <ele>712.6</ele>
        <time>2022-05-22T08:28:06Z</time>
      </trkpt>
      <trkpt lat="37.9515290" lon="-5.6173970">
        <ele>712.6</ele>
        <time>2022-05-22T08:28:07Z</time>
      </trkpt>
      <trkpt lat="37.9515320" lon="-5.6173860">
        <ele>712.6</ele>
        <time>2022-05-22T08:28:08Z</time>
      </trkpt>
      <trkpt lat="37.9515370" lon="-5.6173730">
        <ele>712.6</ele>
        <time>2022-05-22T08:28:09Z</time>
      </trkpt>
      <trkpt lat="37.9515400" lon="-5.6173830">
        <ele>712.6</ele>
        <time>2022-05-22T08:28:10Z</time>
      </trkpt>
      <trkpt lat="37.9515410" lon="-5.6173930">
        <ele>712.6</ele>
        <time>2022-05-22T08:28:12Z</time>
      </trkpt>
      <trkpt lat="37.9515480" lon="-5.6173740">
        <ele>712.6</ele>
        <time>2022-05-22T08:28:13Z</time>
      </trkpt>
      <trkpt lat="37.9515560" lon="-5.6173530">
        <ele>712.6</ele>
        <time>2022-05-22T08:28:15Z</time>
      </trkpt>
      <trkpt lat="37.9515640" lon="-5.6173330">
        <ele>712.6</ele>
        <time>2022-05-22T08:28:16Z</time>
      </trkpt>
      <trkpt lat="37.9515700" lon="-5.6173180">
        <ele>712.6</ele>
        <time>2022-05-22T08:28:17Z</time>
      </trkpt>
      <trkpt lat="37.9515800" lon="-5.6172930">
        <ele>712.6</ele>
        <time>2022-05-22T08:28:18Z</time>
      </trkpt>
      <trkpt lat="37.9515910" lon="-5.6172640">
        <ele>712.6</ele>
        <time>2022-05-22T08:28:20Z</time>
      </trkpt>
      <trkpt lat="37.9515960" lon="-5.6172360">
        <ele>712.6</ele>
        <time>2022-05-22T08:28:21Z</time>
      </trkpt>
      <trkpt lat="37.9515970" lon="-5.6172250">
        <ele>712.6</ele>
        <time>2022-05-22T08:28:22Z</time>
      </trkpt>
      <trkpt lat="37.9515980" lon="-5.6172140">
        <ele>712.6</ele>
        <time>2022-05-22T08:28:23Z</time>
      </trkpt>
      <trkpt lat="37.9515970" lon="-5.6171990">
        <ele>712.6</ele>
        <time>2022-05-22T08:28:24Z</time>
      </trkpt>
      <trkpt lat="37.9515920" lon="-5.6171820">
        <ele>712.6</ele>
        <time>2022-05-22T08:28:25Z</time>
      </trkpt>
      <trkpt lat="37.9515840" lon="-5.6171750">
        <ele>712.6</ele>
        <time>2022-05-22T08:28:26Z</time>
      </trkpt>
      <trkpt lat="37.9515760" lon="-5.6171710">
        <ele>712.6</ele>
        <time>2022-05-22T08:28:27Z</time>
      </trkpt>
      <trkpt lat="37.9515690" lon="-5.6171590">
        <ele>712.6</ele>
        <time>2022-05-22T08:28:28Z</time>
      </trkpt>
      <trkpt lat="37.9515640" lon="-5.6171450">
        <ele>712.6</ele>
        <time>2022-05-22T08:28:29Z</time>
      </trkpt>
      <trkpt lat="37.9515600" lon="-5.6171290">
        <ele>712.6</ele>
        <time>2022-05-22T08:28:30Z</time>
      </trkpt>
      <trkpt lat="37.9515530" lon="-5.6171070">
        <ele>712.6</ele>
        <time>2022-05-22T08:28:31Z</time>
      </trkpt>
      <trkpt lat="37.9515420" lon="-5.6170840">
        <ele>712.6</ele>
        <time>2022-05-22T08:28:32Z</time>
      </trkpt>
      <trkpt lat="37.9515380" lon="-5.6170750">
        <ele>712.6</ele>
        <time>2022-05-22T08:28:33Z</time>
      </trkpt>
      <trkpt lat="37.9515330" lon="-5.6170650">
        <ele>712.6</ele>
        <time>2022-05-22T08:28:34Z</time>
      </trkpt>
      <trkpt lat="37.9515250" lon="-5.6170520">
        <ele>712.6</ele>
        <time>2022-05-22T08:28:35Z</time>
      </trkpt>
      <trkpt lat="37.9514890" lon="-5.6170490">
        <ele>712.6</ele>
        <time>2022-05-22T08:28:37Z</time>
      </trkpt>
      <trkpt lat="37.9514760" lon="-5.6170380">
        <ele>712.6</ele>
        <time>2022-05-22T08:28:38Z</time>
      </trkpt>
      <trkpt lat="37.9514650" lon="-5.6170310">
        <ele>712.6</ele>
        <time>2022-05-22T08:28:39Z</time>
      </trkpt>
      <trkpt lat="37.9514580" lon="-5.6170300">
        <ele>712.6</ele>
        <time>2022-05-22T08:28:40Z</time>
      </trkpt>
      <trkpt lat="37.9514510" lon="-5.6170300">
        <ele>712.6</ele>
        <time>2022-05-22T08:28:41Z</time>
      </trkpt>
      <trkpt lat="37.9514360" lon="-5.6170260">
        <ele>712.6</ele>
        <time>2022-05-22T08:28:42Z</time>
      </trkpt>
      <trkpt lat="37.9514290" lon="-5.6170280">
        <ele>712.6</ele>
        <time>2022-05-22T08:28:43Z</time>
      </trkpt>
      <trkpt lat="37.9514280" lon="-5.6170350">
        <ele>712.6</ele>
        <time>2022-05-22T08:28:45Z</time>
      </trkpt>
      <trkpt lat="37.9514260" lon="-5.6170390">
        <ele>712.6</ele>
        <time>2022-05-22T08:28:46Z</time>
      </trkpt>
      <trkpt lat="37.9514190" lon="-5.6170420">
        <ele>712.6</ele>
        <time>2022-05-22T08:28:47Z</time>
      </trkpt>
      <trkpt lat="37.9514090" lon="-5.6170440">
        <ele>712.6</ele>
        <time>2022-05-22T08:28:48Z</time>
      </trkpt>
      <trkpt lat="37.9514000" lon="-5.6170460">
        <ele>712.6</ele>
        <time>2022-05-22T08:28:49Z</time>
      </trkpt>
      <trkpt lat="37.9513930" lon="-5.6170470">
        <ele>712.6</ele>
        <time>2022-05-22T08:28:50Z</time>
      </trkpt>
      <trkpt lat="37.9513820" lon="-5.6170470">
        <ele>712.6</ele>
        <time>2022-05-22T08:28:51Z</time>
      </trkpt>
      <trkpt lat="37.9513730" lon="-5.6170480">
        <ele>712.6</ele>
        <time>2022-05-22T08:28:52Z</time>
      </trkpt>
      <trkpt lat="37.9513520" lon="-5.6170470">
        <ele>712.6</ele>
        <time>2022-05-22T08:28:53Z</time>
      </trkpt>
      <trkpt lat="37.9513420" lon="-5.6170440">
        <ele>712.6</ele>
        <time>2022-05-22T08:28:55Z</time>
      </trkpt>
      <trkpt lat="37.9513310" lon="-5.6170410">
        <ele>712.6</ele>
        <time>2022-05-22T08:28:56Z</time>
      </trkpt>
      <trkpt lat="37.9513200" lon="-5.6170380">
        <ele>712.6</ele>
        <time>2022-05-22T08:28:57Z</time>
      </trkpt>
      <trkpt lat="37.9513090" lon="-5.6170360">
        <ele>712.6</ele>
        <time>2022-05-22T08:28:58Z</time>
      </trkpt>
      <trkpt lat="37.9512960" lon="-5.6170050">
        <ele>712.6</ele>
        <time>2022-05-22T08:28:59Z</time>
      </trkpt>
      <trkpt lat="37.9512900" lon="-5.6169870">
        <ele>712.6</ele>
        <time>2022-05-22T08:29:00Z</time>
      </trkpt>
      <trkpt lat="37.9512850" lon="-5.6169710">
        <ele>712.6</ele>
        <time>2022-05-22T08:29:01Z</time>
      </trkpt>
      <trkpt lat="37.9512800" lon="-5.6169530">
        <ele>712.6</ele>
        <time>2022-05-22T08:29:02Z</time>
      </trkpt>
      <trkpt lat="37.9512730" lon="-5.6169370">
        <ele>712.6</ele>
        <time>2022-05-22T08:29:03Z</time>
      </trkpt>
      <trkpt lat="37.9512630" lon="-5.6169180">
        <ele>712.6</ele>
        <time>2022-05-22T08:29:05Z</time>
      </trkpt>
      <trkpt lat="37.9512560" lon="-5.6169090">
        <ele>712.6</ele>
        <time>2022-05-22T08:29:06Z</time>
      </trkpt>
      <trkpt lat="37.9512480" lon="-5.6169010">
        <ele>712.6</ele>
        <time>2022-05-22T08:29:07Z</time>
      </trkpt>
      <trkpt lat="37.9512370" lon="-5.6168940">
        <ele>712.6</ele>
        <time>2022-05-22T08:29:08Z</time>
      </trkpt>
      <trkpt lat="37.9512270" lon="-5.6168980">
        <ele>712.6</ele>
        <time>2022-05-22T08:29:09Z</time>
      </trkpt>
      <trkpt lat="37.9512160" lon="-5.6169350">
        <ele>712.6</ele>
        <time>2022-05-22T08:29:10Z</time>
      </trkpt>
      <trkpt lat="37.9512140" lon="-5.6169440">
        <ele>712.6</ele>
        <time>2022-05-22T08:29:11Z</time>
      </trkpt>
      <trkpt lat="37.9512120" lon="-5.6169520">
        <ele>712.6</ele>
        <time>2022-05-22T08:29:12Z</time>
      </trkpt>
      <trkpt lat="37.9512120" lon="-5.6169600">
        <ele>712.6</ele>
        <time>2022-05-22T08:29:13Z</time>
      </trkpt>
      <trkpt lat="37.9512110" lon="-5.6169660">
        <ele>712.6</ele>
        <time>2022-05-22T08:29:14Z</time>
      </trkpt>
      <trkpt lat="37.9512110" lon="-5.6169710">
        <ele>712.6</ele>
        <time>2022-05-22T08:29:15Z</time>
      </trkpt>
      <trkpt lat="37.9512100" lon="-5.6169750">
        <ele>712.6</ele>
        <time>2022-05-22T08:29:17Z</time>
      </trkpt>
      <trkpt lat="37.9512090" lon="-5.6169750">
        <ele>712.6</ele>
        <time>2022-05-22T08:29:18Z</time>
      </trkpt>
      <trkpt lat="37.9512070" lon="-5.6169740">
        <ele>712.6</ele>
        <time>2022-05-22T08:29:19Z</time>
      </trkpt>
      <trkpt lat="37.9512050" lon="-5.6169710">
        <ele>712.6</ele>
        <time>2022-05-22T08:29:20Z</time>
      </trkpt>
      <trkpt lat="37.9512000" lon="-5.6169690">
        <ele>712.6</ele>
        <time>2022-05-22T08:29:21Z</time>
      </trkpt>
      <trkpt lat="37.9511930" lon="-5.6169650">
        <ele>712.6</ele>
        <time>2022-05-22T08:29:22Z</time>
      </trkpt>
      <trkpt lat="37.9511880" lon="-5.6169630">
        <ele>712.6</ele>
        <time>2022-05-22T08:29:23Z</time>
      </trkpt>
      <trkpt lat="37.9511810" lon="-5.6169610">
        <ele>712.6</ele>
        <time>2022-05-22T08:29:24Z</time>
      </trkpt>
      <trkpt lat="37.9511760" lon="-5.6169590">
        <ele>712.6</ele>
        <time>2022-05-22T08:29:25Z</time>
      </trkpt>
      <trkpt lat="37.9511730" lon="-5.6169680">
        <ele>712.6</ele>
        <time>2022-05-22T08:29:26Z</time>
      </trkpt>
      <trkpt lat="37.9511700" lon="-5.6169720">
        <ele>712.6</ele>
        <time>2022-05-22T08:29:27Z</time>
      </trkpt>
      <trkpt lat="37.9511650" lon="-5.6169780">
        <ele>712.6</ele>
        <time>2022-05-22T08:29:28Z</time>
      </trkpt>
      <trkpt lat="37.9511620" lon="-5.6169800">
        <ele>712.6</ele>
        <time>2022-05-22T08:29:29Z</time>
      </trkpt>
      <trkpt lat="37.9511580" lon="-5.6169840">
        <ele>712.6</ele>
        <time>2022-05-22T08:29:30Z</time>
      </trkpt>
      <trkpt lat="37.9511560" lon="-5.6169850">
        <ele>712.6</ele>
        <time>2022-05-22T08:29:31Z</time>
      </trkpt>
      <trkpt lat="37.9511530" lon="-5.6169870">
        <ele>712.6</ele>
        <time>2022-05-22T08:29:32Z</time>
      </trkpt>
      <trkpt lat="37.9511510" lon="-5.6169890">
        <ele>712.6</ele>
        <time>2022-05-22T08:29:33Z</time>
      </trkpt>
      <trkpt lat="37.9511470" lon="-5.6169890">
        <ele>712.6</ele>
        <time>2022-05-22T08:29:34Z</time>
      </trkpt>
      <trkpt lat="37.9511450" lon="-5.6169840">
        <ele>712.6</ele>
        <time>2022-05-22T08:29:35Z</time>
      </trkpt>
      <trkpt lat="37.9511440" lon="-5.6169790">
        <ele>712.6</ele>
        <time>2022-05-22T08:29:36Z</time>
      </trkpt>
      <trkpt lat="37.9511420" lon="-5.6169780">
        <ele>712.6</ele>
        <time>2022-05-22T08:29:37Z</time>
      </trkpt>
      <trkpt lat="37.9511380" lon="-5.6169790">
        <ele>712.6</ele>
        <time>2022-05-22T08:29:38Z</time>
      </trkpt>
      <trkpt lat="37.9511370" lon="-5.6169810">
        <ele>712.6</ele>
        <time>2022-05-22T08:29:39Z</time>
      </trkpt>
      <trkpt lat="37.9511340" lon="-5.6169800">
        <ele>712.6</ele>
        <time>2022-05-22T08:29:40Z</time>
      </trkpt>
      <trkpt lat="37.9511300" lon="-5.6169850">
        <ele>712.6</ele>
        <time>2022-05-22T08:29:41Z</time>
      </trkpt>
      <trkpt lat="37.9511290" lon="-5.6169900">
        <ele>712.6</ele>
        <time>2022-05-22T08:29:42Z</time>
      </trkpt>
      <trkpt lat="37.9511230" lon="-5.6169980">
        <ele>712.6</ele>
        <time>2022-05-22T08:29:44Z</time>
      </trkpt>
      <trkpt lat="37.9511120" lon="-5.6170090">
        <ele>712.6</ele>
        <time>2022-05-22T08:29:46Z</time>
      </trkpt>
      <trkpt lat="37.9511030" lon="-5.6170150">
        <ele>712.6</ele>
        <time>2022-05-22T08:29:47Z</time>
      </trkpt>
      <trkpt lat="37.9510990" lon="-5.6170130">
        <ele>712.6</ele>
        <time>2022-05-22T08:29:48Z</time>
      </trkpt>
      <trkpt lat="37.9510960" lon="-5.6170160">
        <ele>712.6</ele>
        <time>2022-05-22T08:29:49Z</time>
      </trkpt>
      <trkpt lat="37.9510920" lon="-5.6170190">
        <ele>712.6</ele>
        <time>2022-05-22T08:29:50Z</time>
      </trkpt>
      <trkpt lat="37.9510890" lon="-5.6170230">
        <ele>712.6</ele>
        <time>2022-05-22T08:29:51Z</time>
      </trkpt>
      <trkpt lat="37.9510870" lon="-5.6170260">
        <ele>712.6</ele>
        <time>2022-05-22T08:29:52Z</time>
      </trkpt>
      <trkpt lat="37.9510850" lon="-5.6170280">
        <ele>712.6</ele>
        <time>2022-05-22T08:29:53Z</time>
      </trkpt>
      <trkpt lat="37.9510840" lon="-5.6170290">
        <ele>712.6</ele>
        <time>2022-05-22T08:29:54Z</time>
      </trkpt>
      <trkpt lat="37.9510830" lon="-5.6170310">
        <ele>712.6</ele>
        <time>2022-05-22T08:29:55Z</time>
      </trkpt>
      <trkpt lat="37.9510810" lon="-5.6170310">
        <ele>712.6</ele>
        <time>2022-05-22T08:29:56Z</time>
      </trkpt>
      <trkpt lat="37.9510770" lon="-5.6170310">
        <ele>712.6</ele>
        <time>2022-05-22T08:29:57Z</time>
      </trkpt>
      <trkpt lat="37.9510740" lon="-5.6170320">
        <ele>712.6</ele>
        <time>2022-05-22T08:29:58Z</time>
      </trkpt>
      <trkpt lat="37.9510710" lon="-5.6170340">
        <ele>712.6</ele>
        <time>2022-05-22T08:29:59Z</time>
      </trkpt>
      <trkpt lat="37.9510650" lon="-5.6170360">
        <ele>712.6</ele>
        <time>2022-05-22T08:30:01Z</time>
      </trkpt>
      <trkpt lat="37.9510620" lon="-5.6170380">
        <ele>712.6</ele>
        <time>2022-05-22T08:30:02Z</time>
      </trkpt>
      <trkpt lat="37.9510570" lon="-5.6170390">
        <ele>712.6</ele>
        <time>2022-05-22T08:30:03Z</time>
      </trkpt>
      <trkpt lat="37.9510520" lon="-5.6170390">
        <ele>712.6</ele>
        <time>2022-05-22T08:30:04Z</time>
      </trkpt>
      <trkpt lat="37.9510400" lon="-5.6170400">
        <ele>712.6</ele>
        <time>2022-05-22T08:30:06Z</time>
      </trkpt>
      <trkpt lat="37.9510320" lon="-5.6170380">
        <ele>712.6</ele>
        <time>2022-05-22T08:30:07Z</time>
      </trkpt>
      <trkpt lat="37.9510240" lon="-5.6170360">
        <ele>712.6</ele>
        <time>2022-05-22T08:30:08Z</time>
      </trkpt>
      <trkpt lat="37.9510170" lon="-5.6170360">
        <ele>712.6</ele>
        <time>2022-05-22T08:30:09Z</time>
      </trkpt>
      <trkpt lat="37.9510090" lon="-5.6170350">
        <ele>712.6</ele>
        <time>2022-05-22T08:30:10Z</time>
      </trkpt>
      <trkpt lat="37.9510010" lon="-5.6170360">
        <ele>712.6</ele>
        <time>2022-05-22T08:30:11Z</time>
      </trkpt>
      <trkpt lat="37.9509930" lon="-5.6170360">
        <ele>712.6</ele>
        <time>2022-05-22T08:30:12Z</time>
      </trkpt>
      <trkpt lat="37.9509850" lon="-5.6170360">
        <ele>712.6</ele>
        <time>2022-05-22T08:30:13Z</time>
      </trkpt>
      <trkpt lat="37.9509750" lon="-5.6170340">
        <ele>712.6</ele>
        <time>2022-05-22T08:30:14Z</time>
      </trkpt>
      <trkpt lat="37.9509700" lon="-5.6170320">
        <ele>712.6</ele>
        <time>2022-05-22T08:30:15Z</time>
      </trkpt>
      <trkpt lat="37.9509740" lon="-5.6170110">
        <ele>712.7</ele>
        <time>2022-05-22T08:30:16Z</time>
      </trkpt>
      <trkpt lat="37.9509750" lon="-5.6170040">
        <ele>712.7</ele>
        <time>2022-05-22T08:30:17Z</time>
      </trkpt>
      <trkpt lat="37.9509760" lon="-5.6169980">
        <ele>712.7</ele>
        <time>2022-05-22T08:30:18Z</time>
      </trkpt>
      <trkpt lat="37.9509760" lon="-5.6169910">
        <ele>712.7</ele>
        <time>2022-05-22T08:30:21Z</time>
      </trkpt>
      <trkpt lat="37.9509760" lon="-5.6169920">
        <ele>712.7</ele>
        <time>2022-05-22T08:30:22Z</time>
      </trkpt>
      <trkpt lat="37.9509770" lon="-5.6169940">
        <ele>712.7</ele>
        <time>2022-05-22T08:30:23Z</time>
      </trkpt>
      <trkpt lat="37.9509800" lon="-5.6169940">
        <ele>712.7</ele>
        <time>2022-05-22T08:30:24Z</time>
      </trkpt>
      <trkpt lat="37.9509850" lon="-5.6169950">
        <ele>712.7</ele>
        <time>2022-05-22T08:30:25Z</time>
      </trkpt>
      <trkpt lat="37.9509870" lon="-5.6169950">
        <ele>712.7</ele>
        <time>2022-05-22T08:30:26Z</time>
      </trkpt>
      <trkpt lat="37.9509880" lon="-5.6169960">
        <ele>712.7</ele>
        <time>2022-05-22T08:30:27Z</time>
      </trkpt>
      <trkpt lat="37.9509830" lon="-5.6170030">
        <ele>712.7</ele>
        <time>2022-05-22T08:30:29Z</time>
      </trkpt>
      <trkpt lat="37.9509810" lon="-5.6170130">
        <ele>712.7</ele>
        <time>2022-05-22T08:30:30Z</time>
      </trkpt>
      <trkpt lat="37.9509800" lon="-5.6170250">
        <ele>712.7</ele>
        <time>2022-05-22T08:30:31Z</time>
      </trkpt>
      <trkpt lat="37.9509830" lon="-5.6170380">
        <ele>712.7</ele>
        <time>2022-05-22T08:30:32Z</time>
      </trkpt>
      <trkpt lat="37.9509890" lon="-5.6170460">
        <ele>712.7</ele>
        <time>2022-05-22T08:30:33Z</time>
      </trkpt>
      <trkpt lat="37.9509990" lon="-5.6170630">
        <ele>712.7</ele>
        <time>2022-05-22T08:30:34Z</time>
      </trkpt>
      <trkpt lat="37.9510020" lon="-5.6170710">
        <ele>712.7</ele>
        <time>2022-05-22T08:30:35Z</time>
      </trkpt>
      <trkpt lat="37.9510060" lon="-5.6170800">
        <ele>712.7</ele>
        <time>2022-05-22T08:30:36Z</time>
      </trkpt>
      <trkpt lat="37.9510100" lon="-5.6170890">
        <ele>712.7</ele>
        <time>2022-05-22T08:30:37Z</time>
      </trkpt>
      <trkpt lat="37.9510150" lon="-5.6171020">
        <ele>712.7</ele>
        <time>2022-05-22T08:30:38Z</time>
      </trkpt>
      <trkpt lat="37.9510190" lon="-5.6171170">
        <ele>712.7</ele>
        <time>2022-05-22T08:30:39Z</time>
      </trkpt>
      <trkpt lat="37.9510240" lon="-5.6171280">
        <ele>712.7</ele>
        <time>2022-05-22T08:30:40Z</time>
      </trkpt>
      <trkpt lat="37.9510310" lon="-5.6171370">
        <ele>712.7</ele>
        <time>2022-05-22T08:30:41Z</time>
      </trkpt>
      <trkpt lat="37.9510380" lon="-5.6171460">
        <ele>712.7</ele>
        <time>2022-05-22T08:30:42Z</time>
      </trkpt>
      <trkpt lat="37.9510450" lon="-5.6171460">
        <ele>712.7</ele>
        <time>2022-05-22T08:30:43Z</time>
      </trkpt>
      <trkpt lat="37.9510420" lon="-5.6171540">
        <ele>712.7</ele>
        <time>2022-05-22T08:30:44Z</time>
      </trkpt>
      <trkpt lat="37.9510360" lon="-5.6171640">
        <ele>712.7</ele>
        <time>2022-05-22T08:30:45Z</time>
      </trkpt>
      <trkpt lat="37.9510330" lon="-5.6171730">
        <ele>712.7</ele>
        <time>2022-05-22T08:30:46Z</time>
      </trkpt>
      <trkpt lat="37.9510330" lon="-5.6171780">
        <ele>712.7</ele>
        <time>2022-05-22T08:30:47Z</time>
      </trkpt>
      <trkpt lat="37.9510390" lon="-5.6171880">
        <ele>712.8</ele>
        <time>2022-05-22T08:30:48Z</time>
      </trkpt>
      <trkpt lat="37.9510480" lon="-5.6171670">
        <ele>712.8</ele>
        <time>2022-05-22T08:30:50Z</time>
      </trkpt>
      <trkpt lat="37.9510550" lon="-5.6171690">
        <ele>712.8</ele>
        <time>2022-05-22T08:30:51Z</time>
      </trkpt>
      <trkpt lat="37.9510610" lon="-5.6171720">
        <ele>712.8</ele>
        <time>2022-05-22T08:30:52Z</time>
      </trkpt>
      <trkpt lat="37.9510760" lon="-5.6171860">
        <ele>712.8</ele>
        <time>2022-05-22T08:30:54Z</time>
      </trkpt>
      <trkpt lat="37.9510840" lon="-5.6171950">
        <ele>712.8</ele>
        <time>2022-05-22T08:30:55Z</time>
      </trkpt>
      <trkpt lat="37.9510900" lon="-5.6172030">
        <ele>712.8</ele>
        <time>2022-05-22T08:30:56Z</time>
      </trkpt>
      <trkpt lat="37.9510960" lon="-5.6172090">
        <ele>712.8</ele>
        <time>2022-05-22T08:30:57Z</time>
      </trkpt>
      <trkpt lat="37.9511010" lon="-5.6172150">
        <ele>712.8</ele>
        <time>2022-05-22T08:30:58Z</time>
      </trkpt>
      <trkpt lat="37.9511030" lon="-5.6172200">
        <ele>712.8</ele>
        <time>2022-05-22T08:30:59Z</time>
      </trkpt>
      <trkpt lat="37.9511020" lon="-5.6172240">
        <ele>712.8</ele>
        <time>2022-05-22T08:31:00Z</time>
      </trkpt>
      <trkpt lat="37.9511020" lon="-5.6172290">
        <ele>712.8</ele>
        <time>2022-05-22T08:31:01Z</time>
      </trkpt>
      <trkpt lat="37.9511030" lon="-5.6172360">
        <ele>712.8</ele>
        <time>2022-05-22T08:31:02Z</time>
      </trkpt>
      <trkpt lat="37.9511050" lon="-5.6172400">
        <ele>712.8</ele>
        <time>2022-05-22T08:31:03Z</time>
      </trkpt>
      <trkpt lat="37.9511090" lon="-5.6172430">
        <ele>712.8</ele>
        <time>2022-05-22T08:31:04Z</time>
      </trkpt>
      <trkpt lat="37.9511130" lon="-5.6172460">
        <ele>712.8</ele>
        <time>2022-05-22T08:31:05Z</time>
      </trkpt>
      <trkpt lat="37.9511180" lon="-5.6172490">
        <ele>712.8</ele>
        <time>2022-05-22T08:31:06Z</time>
      </trkpt>
      <trkpt lat="37.9511230" lon="-5.6172530">
        <ele>712.8</ele>
        <time>2022-05-22T08:31:07Z</time>
      </trkpt>
      <trkpt lat="37.9511340" lon="-5.6172600">
        <ele>712.8</ele>
        <time>2022-05-22T08:31:08Z</time>
      </trkpt>
      <trkpt lat="37.9511380" lon="-5.6172640">
        <ele>712.8</ele>
        <time>2022-05-22T08:31:09Z</time>
      </trkpt>
      <trkpt lat="37.9511420" lon="-5.6172680">
        <ele>712.8</ele>
        <time>2022-05-22T08:31:10Z</time>
      </trkpt>
      <trkpt lat="37.9511470" lon="-5.6172700">
        <ele>712.8</ele>
        <time>2022-05-22T08:31:11Z</time>
      </trkpt>
      <trkpt lat="37.9511520" lon="-5.6172690">
        <ele>712.8</ele>
        <time>2022-05-22T08:31:12Z</time>
      </trkpt>
      <trkpt lat="37.9511580" lon="-5.6172670">
        <ele>712.8</ele>
        <time>2022-05-22T08:31:13Z</time>
      </trkpt>
      <trkpt lat="37.9511670" lon="-5.6172650">
        <ele>712.9</ele>
        <time>2022-05-22T08:31:14Z</time>
      </trkpt>
      <trkpt lat="37.9511720" lon="-5.6172680">
        <ele>712.9</ele>
        <time>2022-05-22T08:31:15Z</time>
      </trkpt>
      <trkpt lat="37.9511760" lon="-5.6172710">
        <ele>712.9</ele>
        <time>2022-05-22T08:31:16Z</time>
      </trkpt>
      <trkpt lat="37.9511820" lon="-5.6172720">
        <ele>712.9</ele>
        <time>2022-05-22T08:31:17Z</time>
      </trkpt>
      <trkpt lat="37.9511880" lon="-5.6172710">
        <ele>712.9</ele>
        <time>2022-05-22T08:31:19Z</time>
      </trkpt>
      <trkpt lat="37.9511980" lon="-5.6172690">
        <ele>712.9</ele>
        <time>2022-05-22T08:31:20Z</time>
      </trkpt>
      <trkpt lat="37.9512050" lon="-5.6172670">
        <ele>712.9</ele>
        <time>2022-05-22T08:31:21Z</time>
      </trkpt>
      <trkpt lat="37.9512110" lon="-5.6172640">
        <ele>712.9</ele>
        <time>2022-05-22T08:31:22Z</time>
      </trkpt>
      <trkpt lat="37.9512170" lon="-5.6172610">
        <ele>712.9</ele>
        <time>2022-05-22T08:31:23Z</time>
      </trkpt>
      <trkpt lat="37.9512230" lon="-5.6172560">
        <ele>712.9</ele>
        <time>2022-05-22T08:31:24Z</time>
      </trkpt>
      <trkpt lat="37.9512290" lon="-5.6172520">
        <ele>712.9</ele>
        <time>2022-05-22T08:31:25Z</time>
      </trkpt>
      <trkpt lat="37.9512390" lon="-5.6172440">
        <ele>712.9</ele>
        <time>2022-05-22T08:31:26Z</time>
      </trkpt>
      <trkpt lat="37.9512430" lon="-5.6172390">
        <ele>712.9</ele>
        <time>2022-05-22T08:31:27Z</time>
      </trkpt>
      <trkpt lat="37.9512470" lon="-5.6172340">
        <ele>712.9</ele>
        <time>2022-05-22T08:31:28Z</time>
      </trkpt>
      <trkpt lat="37.9511930" lon="-5.6171320">
        <ele>712.9</ele>
        <time>2022-05-22T08:31:31Z</time>
      </trkpt>
      <trkpt lat="37.9511320" lon="-5.6170390">
        <ele>713.0</ele>
        <time>2022-05-22T08:31:38Z</time>
      </trkpt>
      <trkpt lat="37.9510710" lon="-5.6169470">
        <ele>713.0</ele>
        <time>2022-05-22T08:36:00Z</time>
      </trkpt>
      <trkpt lat="37.9510100" lon="-5.6168540">
        <ele>713.0</ele>
        <time>2022-05-22T08:36:01Z</time>
      </trkpt>
      <trkpt lat="37.9509820" lon="-5.6168570">
        <ele>713.0</ele>
        <time>2022-05-22T08:36:02Z</time>
      </trkpt>
      <trkpt lat="37.9510050" lon="-5.6168180">
        <ele>713.0</ele>
        <time>2022-05-22T08:36:04Z</time>
      </trkpt>
      <trkpt lat="37.9510020" lon="-5.6168290">
        <ele>713.0</ele>
        <time>2022-05-22T08:36:05Z</time>
      </trkpt>
      <trkpt lat="37.9509910" lon="-5.6168520">
        <ele>712.9</ele>
        <time>2022-05-22T08:36:06Z</time>
      </trkpt>
      <trkpt lat="37.9509810" lon="-5.6168660">
        <ele>712.9</ele>
        <time>2022-05-22T08:36:07Z</time>
      </trkpt>
      <trkpt lat="37.9509750" lon="-5.6168750">
        <ele>712.9</ele>
        <time>2022-05-22T08:36:08Z</time>
      </trkpt>
      <trkpt lat="37.9509720" lon="-5.6168820">
        <ele>712.9</ele>
        <time>2022-05-22T08:36:09Z</time>
      </trkpt>
      <trkpt lat="37.9509830" lon="-5.6168910">
        <ele>712.9</ele>
        <time>2022-05-22T08:36:10Z</time>
      </trkpt>
      <trkpt lat="37.9509940" lon="-5.6168950">
        <ele>712.9</ele>
        <time>2022-05-22T08:36:11Z</time>
      </trkpt>
      <trkpt lat="37.9510060" lon="-5.6168990">
        <ele>712.9</ele>
        <time>2022-05-22T08:36:13Z</time>
      </trkpt>
      <trkpt lat="37.9510180" lon="-5.6169040">
        <ele>712.9</ele>
        <time>2022-05-22T08:36:14Z</time>
      </trkpt>
      <trkpt lat="37.9510450" lon="-5.6169090">
        <ele>712.9</ele>
        <time>2022-05-22T08:36:15Z</time>
      </trkpt>
      <trkpt lat="37.9510780" lon="-5.6169100">
        <ele>712.9</ele>
        <time>2022-05-22T08:36:16Z</time>
      </trkpt>
      <trkpt lat="37.9510850" lon="-5.6169110">
        <ele>712.9</ele>
        <time>2022-05-22T08:36:17Z</time>
      </trkpt>
      <trkpt lat="37.9511030" lon="-5.6168970">
        <ele>712.8</ele>
        <time>2022-05-22T08:36:18Z</time>
      </trkpt>
      <trkpt lat="37.9511100" lon="-5.6168890">
        <ele>712.8</ele>
        <time>2022-05-22T08:36:19Z</time>
      </trkpt>
      <trkpt lat="37.9511170" lon="-5.6168810">
        <ele>712.8</ele>
        <time>2022-05-22T08:36:20Z</time>
      </trkpt>
      <trkpt lat="37.9511240" lon="-5.6168760">
        <ele>712.8</ele>
        <time>2022-05-22T08:36:21Z</time>
      </trkpt>
      <trkpt lat="37.9511260" lon="-5.6168740">
        <ele>712.8</ele>
        <time>2022-05-22T08:36:22Z</time>
      </trkpt>
      <trkpt lat="37.9511330" lon="-5.6168700">
        <ele>712.8</ele>
        <time>2022-05-22T08:36:24Z</time>
      </trkpt>
      <trkpt lat="37.9511360" lon="-5.6168690">
        <ele>712.8</ele>
        <time>2022-05-22T08:36:25Z</time>
      </trkpt>
      <trkpt lat="37.9511440" lon="-5.6168680">
        <ele>712.8</ele>
        <time>2022-05-22T08:36:26Z</time>
      </trkpt>
      <trkpt lat="37.9511490" lon="-5.6168670">
        <ele>712.8</ele>
        <time>2022-05-22T08:36:27Z</time>
      </trkpt>
      <trkpt lat="37.9511550" lon="-5.6168630">
        <ele>712.8</ele>
        <time>2022-05-22T08:36:29Z</time>
      </trkpt>
      <trkpt lat="37.9511590" lon="-5.6168620">
        <ele>712.8</ele>
        <time>2022-05-22T08:36:30Z</time>
      </trkpt>
      <trkpt lat="37.9511630" lon="-5.6168620">
        <ele>712.8</ele>
        <time>2022-05-22T08:36:31Z</time>
      </trkpt>
      <trkpt lat="37.9511670" lon="-5.6168620">
        <ele>712.8</ele>
        <time>2022-05-22T08:36:32Z</time>
      </trkpt>
      <trkpt lat="37.9511750" lon="-5.6168640">
        <ele>712.8</ele>
        <time>2022-05-22T08:36:33Z</time>
      </trkpt>
      <trkpt lat="37.9511840" lon="-5.6168670">
        <ele>712.8</ele>
        <time>2022-05-22T08:36:34Z</time>
      </trkpt>
      <trkpt lat="37.9511960" lon="-5.6168720">
        <ele>712.7</ele>
        <time>2022-05-22T08:36:36Z</time>
      </trkpt>
      <trkpt lat="37.9512060" lon="-5.6168780">
        <ele>712.7</ele>
        <time>2022-05-22T08:36:37Z</time>
      </trkpt>
      <trkpt lat="37.9512260" lon="-5.6168860">
        <ele>712.7</ele>
        <time>2022-05-22T08:36:38Z</time>
      </trkpt>
      <trkpt lat="37.9512350" lon="-5.6168900">
        <ele>712.7</ele>
        <time>2022-05-22T08:36:39Z</time>
      </trkpt>
      <trkpt lat="37.9512440" lon="-5.6168940">
        <ele>712.7</ele>
        <time>2022-05-22T08:36:40Z</time>
      </trkpt>
      <trkpt lat="37.9512550" lon="-5.6168990">
        <ele>712.7</ele>
        <time>2022-05-22T08:36:41Z</time>
      </trkpt>
      <trkpt lat="37.9512650" lon="-5.6169040">
        <ele>712.7</ele>
        <time>2022-05-22T08:36:42Z</time>
      </trkpt>
      <trkpt lat="37.9512740" lon="-5.6169090">
        <ele>712.7</ele>
        <time>2022-05-22T08:36:43Z</time>
      </trkpt>
      <trkpt lat="37.9512920" lon="-5.6169120">
        <ele>712.6</ele>
        <time>2022-05-22T08:36:45Z</time>
      </trkpt>
      <trkpt lat="37.9513080" lon="-5.6169110">
        <ele>712.6</ele>
        <time>2022-05-22T08:36:46Z</time>
      </trkpt>
      <trkpt lat="37.9513180" lon="-5.6169120">
        <ele>712.6</ele>
        <time>2022-05-22T08:36:47Z</time>
      </trkpt>
      <trkpt lat="37.9513250" lon="-5.6169200">
        <ele>712.7</ele>
        <time>2022-05-22T08:36:48Z</time>
      </trkpt>
      <trkpt lat="37.9513300" lon="-5.6169250">
        <ele>712.7</ele>
        <time>2022-05-22T08:36:49Z</time>
      </trkpt>
      <trkpt lat="37.9513330" lon="-5.6169320">
        <ele>712.7</ele>
        <time>2022-05-22T08:36:50Z</time>
      </trkpt>
      <trkpt lat="37.9513370" lon="-5.6169340">
        <ele>712.7</ele>
        <time>2022-05-22T08:36:51Z</time>
      </trkpt>
      <trkpt lat="37.9513420" lon="-5.6169360">
        <ele>712.7</ele>
        <time>2022-05-22T08:36:52Z</time>
      </trkpt>
      <trkpt lat="37.9513450" lon="-5.6169360">
        <ele>712.7</ele>
        <time>2022-05-22T08:36:53Z</time>
      </trkpt>
      <trkpt lat="37.9513540" lon="-5.6169360">
        <ele>712.8</ele>
        <time>2022-05-22T08:36:55Z</time>
      </trkpt>
      <trkpt lat="37.9513600" lon="-5.6169370">
        <ele>712.8</ele>
        <time>2022-05-22T08:36:56Z</time>
      </trkpt>
      <trkpt lat="37.9513660" lon="-5.6169380">
        <ele>712.8</ele>
        <time>2022-05-22T08:36:57Z</time>
      </trkpt>
      <trkpt lat="37.9513710" lon="-5.6169400">
        <ele>712.8</ele>
        <time>2022-05-22T08:36:58Z</time>
      </trkpt>
      <trkpt lat="37.9513750" lon="-5.6169410">
        <ele>712.8</ele>
        <time>2022-05-22T08:36:59Z</time>
      </trkpt>
      <trkpt lat="37.9513830" lon="-5.6169440">
        <ele>712.9</ele>
        <time>2022-05-22T08:37:00Z</time>
      </trkpt>
      <trkpt lat="37.9513920" lon="-5.6169480">
        <ele>712.9</ele>
        <time>2022-05-22T08:37:02Z</time>
      </trkpt>
      <trkpt lat="37.9513990" lon="-5.6169530">
        <ele>712.9</ele>
        <time>2022-05-22T08:37:03Z</time>
      </trkpt>
      <trkpt lat="37.9514060" lon="-5.6169590">
        <ele>712.9</ele>
        <time>2022-05-22T08:37:04Z</time>
      </trkpt>
      <trkpt lat="37.9514160" lon="-5.6169710">
        <ele>712.9</ele>
        <time>2022-05-22T08:37:05Z</time>
      </trkpt>
      <trkpt lat="37.9514340" lon="-5.6169890">
        <ele>713.0</ele>
        <time>2022-05-22T08:37:07Z</time>
      </trkpt>
      <trkpt lat="37.9514410" lon="-5.6169960">
        <ele>713.0</ele>
        <time>2022-05-22T08:37:08Z</time>
      </trkpt>
      <trkpt lat="37.9514490" lon="-5.6170040">
        <ele>713.0</ele>
        <time>2022-05-22T08:37:09Z</time>
      </trkpt>
      <trkpt lat="37.9514700" lon="-5.6170310">
        <ele>713.0</ele>
        <time>2022-05-22T08:37:10Z</time>
      </trkpt>
      <trkpt lat="37.9514790" lon="-5.6170450">
        <ele>713.0</ele>
        <time>2022-05-22T08:37:12Z</time>
      </trkpt>
      <trkpt lat="37.9514880" lon="-5.6170580">
        <ele>713.0</ele>
        <time>2022-05-22T08:37:14Z</time>
      </trkpt>
      <trkpt lat="37.9514970" lon="-5.6170710">
        <ele>713.0</ele>
        <time>2022-05-22T08:37:15Z</time>
      </trkpt>
      <trkpt lat="37.9515040" lon="-5.6170880">
        <ele>713.0</ele>
        <time>2022-05-22T08:37:16Z</time>
      </trkpt>
      <trkpt lat="37.9515070" lon="-5.6171030">
        <ele>712.9</ele>
        <time>2022-05-22T08:37:17Z</time>
      </trkpt>
      <trkpt lat="37.9515110" lon="-5.6171180">
        <ele>712.9</ele>
        <time>2022-05-22T08:37:18Z</time>
      </trkpt>
      <trkpt lat="37.9515160" lon="-5.6171370">
        <ele>712.9</ele>
        <time>2022-05-22T08:37:19Z</time>
      </trkpt>
      <trkpt lat="37.9515250" lon="-5.6171700">
        <ele>712.9</ele>
        <time>2022-05-22T08:37:21Z</time>
      </trkpt>
      <trkpt lat="37.9515290" lon="-5.6171830">
        <ele>712.8</ele>
        <time>2022-05-22T08:37:22Z</time>
      </trkpt>
      <trkpt lat="37.9515310" lon="-5.6171990">
        <ele>712.8</ele>
        <time>2022-05-22T08:37:23Z</time>
      </trkpt>
      <trkpt lat="37.9515340" lon="-5.6172240">
        <ele>712.8</ele>
        <time>2022-05-22T08:37:25Z</time>
      </trkpt>
      <trkpt lat="37.9515350" lon="-5.6172360">
        <ele>712.8</ele>
        <time>2022-05-22T08:37:26Z</time>
      </trkpt>
      <trkpt lat="37.9515320" lon="-5.6172670">
        <ele>712.7</ele>
        <time>2022-05-22T08:37:28Z</time>
      </trkpt>
      <trkpt lat="37.9515300" lon="-5.6172840">
        <ele>712.7</ele>
        <time>2022-05-22T08:37:29Z</time>
      </trkpt>
      <trkpt lat="37.9515290" lon="-5.6172910">
        <ele>712.7</ele>
        <time>2022-05-22T08:37:30Z</time>
      </trkpt>
      <trkpt lat="37.9515280" lon="-5.6172960">
        <ele>712.7</ele>
        <time>2022-05-22T08:37:31Z</time>
      </trkpt>
      <trkpt lat="37.9515290" lon="-5.6173000">
        <ele>712.7</ele>
        <time>2022-05-22T08:37:32Z</time>
      </trkpt>
      <trkpt lat="37.9515290" lon="-5.6173030">
        <ele>712.7</ele>
        <time>2022-05-22T08:37:33Z</time>
      </trkpt>
      <trkpt lat="37.9515280" lon="-5.6173050">
        <ele>712.7</ele>
        <time>2022-05-22T08:37:34Z</time>
      </trkpt>
      <trkpt lat="37.9515270" lon="-5.6173060">
        <ele>712.7</ele>
        <time>2022-05-22T08:37:35Z</time>
      </trkpt>
      <trkpt lat="37.9515270" lon="-5.6173060">
        <ele>712.7</ele>
        <time>2022-05-22T08:37:36Z</time>
      </trkpt>
      <trkpt lat="37.9515260" lon="-5.6173070">
        <ele>712.7</ele>
        <time>2022-05-22T08:37:37Z</time>
      </trkpt>
      <trkpt lat="37.9515240" lon="-5.6173040">
        <ele>712.7</ele>
        <time>2022-05-22T08:37:38Z</time>
      </trkpt>
      <trkpt lat="37.9515230" lon="-5.6173020">
        <ele>712.7</ele>
        <time>2022-05-22T08:37:39Z</time>
      </trkpt>
      <trkpt lat="37.9515220" lon="-5.6172990">
        <ele>712.7</ele>
        <time>2022-05-22T08:37:41Z</time>
      </trkpt>
      <trkpt lat="37.9515210" lon="-5.6172980">
        <ele>712.7</ele>
        <time>2022-05-22T08:37:42Z</time>
      </trkpt>
      <trkpt lat="37.9515210" lon="-5.6172970">
        <ele>712.7</ele>
        <time>2022-05-22T08:37:43Z</time>
      </trkpt>
      <trkpt lat="37.9515210" lon="-5.6172970">
        <ele>712.7</ele>
        <time>2022-05-22T08:37:44Z</time>
      </trkpt>
      <trkpt lat="37.9515200" lon="-5.6172970">
        <ele>712.7</ele>
        <time>2022-05-22T08:37:45Z</time>
      </trkpt>
      <trkpt lat="37.9515200" lon="-5.6172960">
        <ele>712.7</ele>
        <time>2022-05-22T08:37:46Z</time>
      </trkpt>
      <trkpt lat="37.9515190" lon="-5.6172970">
        <ele>712.7</ele>
        <time>2022-05-22T08:37:47Z</time>
      </trkpt>
      <trkpt lat="37.9515190" lon="-5.6172990">
        <ele>712.7</ele>
        <time>2022-05-22T08:37:48Z</time>
      </trkpt>
      <trkpt lat="37.9515160" lon="-5.6173050">
        <ele>712.7</ele>
        <time>2022-05-22T08:37:49Z</time>
      </trkpt>
      <trkpt lat="37.9515130" lon="-5.6173100">
        <ele>712.7</ele>
        <time>2022-05-22T08:37:50Z</time>
      </trkpt>
      <trkpt lat="37.9515090" lon="-5.6173160">
        <ele>712.6</ele>
        <time>2022-05-22T08:37:52Z</time>
      </trkpt>
      <trkpt lat="37.9515050" lon="-5.6173220">
        <ele>712.6</ele>
        <time>2022-05-22T08:37:53Z</time>
      </trkpt>
      <trkpt lat="37.9515020" lon="-5.6173290">
        <ele>712.6</ele>
        <time>2022-05-22T08:37:55Z</time>
      </trkpt>
      <trkpt lat="37.9515020" lon="-5.6173360">
        <ele>712.6</ele>
        <time>2022-05-22T08:37:56Z</time>
      </trkpt>
      <trkpt lat="37.9515110" lon="-5.6173420">
        <ele>712.6</ele>
        <time>2022-05-22T08:37:57Z</time>
      </trkpt>
      <trkpt lat="37.9515210" lon="-5.6173460">
        <ele>712.6</ele>
        <time>2022-05-22T08:37:58Z</time>
      </trkpt>
      <trkpt lat="37.9515290" lon="-5.6173530">
        <ele>712.6</ele>
        <time>2022-05-22T08:37:59Z</time>
      </trkpt>
      <trkpt lat="37.9515330" lon="-5.6173560">
        <ele>712.6</ele>
        <time>2022-05-22T08:38:00Z</time>
      </trkpt>
      <trkpt lat="37.9515360" lon="-5.6173600">
        <ele>712.6</ele>
        <time>2022-05-22T08:38:01Z</time>
      </trkpt>
      <trkpt lat="37.9515390" lon="-5.6173630">
        <ele>712.6</ele>
        <time>2022-05-22T08:38:02Z</time>
      </trkpt>
      <trkpt lat="37.9515400" lon="-5.6173650">
        <ele>712.6</ele>
        <time>2022-05-22T08:38:03Z</time>
      </trkpt>
      <trkpt lat="37.9515410" lon="-5.6173660">
        <ele>712.6</ele>
        <time>2022-05-22T08:38:04Z</time>
      </trkpt>
      <trkpt lat="37.9515450" lon="-5.6173670">
        <ele>712.6</ele>
        <time>2022-05-22T08:38:05Z</time>
      </trkpt>
      <trkpt lat="37.9515480" lon="-5.6173680">
        <ele>712.6</ele>
        <time>2022-05-22T08:38:06Z</time>
      </trkpt>
      <trkpt lat="37.9515550" lon="-5.6173690">
        <ele>712.6</ele>
        <time>2022-05-22T08:38:07Z</time>
      </trkpt>
      <trkpt lat="37.9515580" lon="-5.6173730">
        <ele>712.6</ele>
        <time>2022-05-22T08:38:08Z</time>
      </trkpt>
      <trkpt lat="37.9515620" lon="-5.6173830">
        <ele>712.6</ele>
        <time>2022-05-22T08:38:10Z</time>
      </trkpt>
      <trkpt lat="37.9515610" lon="-5.6173870">
        <ele>712.6</ele>
        <time>2022-05-22T08:38:11Z</time>
      </trkpt>
      <trkpt lat="37.9515580" lon="-5.6173880">
        <ele>712.6</ele>
        <time>2022-05-22T08:38:12Z</time>
      </trkpt>
      <trkpt lat="37.9515590" lon="-5.6173940">
        <ele>712.6</ele>
        <time>2022-05-22T08:38:13Z</time>
      </trkpt>
      <trkpt lat="37.9515610" lon="-5.6173990">
        <ele>712.6</ele>
        <time>2022-05-22T08:38:14Z</time>
      </trkpt>
      <trkpt lat="37.9515630" lon="-5.6174050">
        <ele>712.6</ele>
        <time>2022-05-22T08:38:15Z</time>
      </trkpt>
      <trkpt lat="37.9515660" lon="-5.6174090">
        <ele>712.6</ele>
        <time>2022-05-22T08:38:16Z</time>
      </trkpt>
      <trkpt lat="37.9515680" lon="-5.6174130">
        <ele>712.6</ele>
        <time>2022-05-22T08:38:17Z</time>
      </trkpt>
      <trkpt lat="37.9515700" lon="-5.6174170">
        <ele>712.6</ele>
        <time>2022-05-22T08:38:18Z</time>
      </trkpt>
      <trkpt lat="37.9515730" lon="-5.6174220">
        <ele>712.6</ele>
        <time>2022-05-22T08:38:19Z</time>
      </trkpt>
      <trkpt lat="37.9515760" lon="-5.6174250">
        <ele>712.6</ele>
        <time>2022-05-22T08:38:20Z</time>
      </trkpt>
      <trkpt lat="37.9515780" lon="-5.6174270">
        <ele>712.6</ele>
        <time>2022-05-22T08:38:21Z</time>
      </trkpt>
      <trkpt lat="37.9515810" lon="-5.6174290">
        <ele>712.6</ele>
        <time>2022-05-22T08:38:22Z</time>
      </trkpt>
      <trkpt lat="37.9515830" lon="-5.6174310">
        <ele>712.6</ele>
        <time>2022-05-22T08:38:23Z</time>
      </trkpt>
      <trkpt lat="37.9515850" lon="-5.6174330">
        <ele>712.6</ele>
        <time>2022-05-22T08:38:24Z</time>
      </trkpt>
      <trkpt lat="37.9515860" lon="-5.6174340">
        <ele>712.6</ele>
        <time>2022-05-22T08:38:25Z</time>
      </trkpt>
      <trkpt lat="37.9515870" lon="-5.6174340">
        <ele>712.6</ele>
        <time>2022-05-22T08:38:26Z</time>
      </trkpt>
      <trkpt lat="37.9515910" lon="-5.6174320">
        <ele>712.6</ele>
        <time>2022-05-22T08:38:27Z</time>
      </trkpt>
      <trkpt lat="37.9515930" lon="-5.6174310">
        <ele>712.6</ele>
        <time>2022-05-22T08:38:28Z</time>
      </trkpt>
      <trkpt lat="37.9515940" lon="-5.6174310">
        <ele>712.6</ele>
        <time>2022-05-22T08:38:29Z</time>
      </trkpt>
      <trkpt lat="37.9515950" lon="-5.6174300">
        <ele>712.6</ele>
        <time>2022-05-22T08:38:30Z</time>
      </trkpt>
      <trkpt lat="37.9515960" lon="-5.6174300">
        <ele>712.6</ele>
        <time>2022-05-22T08:38:31Z</time>
      </trkpt>
      <trkpt lat="37.9515960" lon="-5.6174300">
        <ele>712.6</ele>
        <time>2022-05-22T08:38:32Z</time>
      </trkpt>
      <trkpt lat="37.9515960" lon="-5.6174300">
        <ele>712.6</ele>
        <time>2022-05-22T08:38:33Z</time>
      </trkpt>
      <trkpt lat="37.9515960" lon="-5.6174300">
        <ele>712.6</ele>
        <time>2022-05-22T08:38:34Z</time>
      </trkpt>
      <trkpt lat="37.9515960" lon="-5.6174300">
        <ele>712.6</ele>
        <time>2022-05-22T08:38:35Z</time>
      </trkpt>
      <trkpt lat="37.9515960" lon="-5.6174300">
        <ele>712.6</ele>
        <time>2022-05-22T08:38:36Z</time>
      </trkpt>
      <trkpt lat="37.9515960" lon="-5.6174300">
        <ele>712.6</ele>
        <time>2022-05-22T08:38:37Z</time>
      </trkpt>
      <trkpt lat="37.9515960" lon="-5.6174300">
        <ele>712.6</ele>
        <time>2022-05-22T08:38:38Z</time>
      </trkpt>
      <trkpt lat="37.9515960" lon="-5.6174300">
        <ele>712.6</ele>
        <time>2022-05-22T08:38:39Z</time>
      </trkpt>
      <trkpt lat="37.9515960" lon="-5.6174300">
        <ele>712.6</ele>
        <time>2022-05-22T08:38:40Z</time>
      </trkpt>
      <trkpt lat="37.9515960" lon="-5.6174300">
        <ele>712.6</ele>
        <time>2022-05-22T08:38:41Z</time>
      </trkpt>
      <trkpt lat="37.9515960" lon="-5.6174300">
        <ele>712.6</ele>
        <time>2022-05-22T08:38:42Z</time>
      </trkpt>
      <trkpt lat="37.9515960" lon="-5.6174300">
        <ele>712.6</ele>
        <time>2022-05-22T08:38:43Z</time>
      </trkpt>
      <trkpt lat="37.9515960" lon="-5.6174300">
        <ele>712.6</ele>
        <time>2022-05-22T08:38:44Z</time>
      </trkpt>
      <trkpt lat="37.9515960" lon="-5.6174300">
        <ele>712.6</ele>
        <time>2022-05-22T08:38:45Z</time>
      </trkpt>
      <trkpt lat="37.9515960" lon="-5.6174300">
        <ele>712.6</ele>
        <time>2022-05-22T08:38:46Z</time>
      </trkpt>
      <trkpt lat="37.9515960" lon="-5.6174300">
        <ele>712.6</ele>
        <time>2022-05-22T08:38:47Z</time>
      </trkpt>
      <trkpt lat="37.9515960" lon="-5.6174300">
        <ele>712.6</ele>
        <time>2022-05-22T08:38:48Z</time>
      </trkpt>
      <trkpt lat="37.9515960" lon="-5.6174300">
        <ele>712.6</ele>
        <time>2022-05-22T08:38:49Z</time>
      </trkpt>
      <trkpt lat="37.9515960" lon="-5.6174300">
        <ele>712.6</ele>
        <time>2022-05-22T08:38:50Z</time>
      </trkpt>
      <trkpt lat="37.9515960" lon="-5.6174300">
        <ele>712.6</ele>
        <time>2022-05-22T08:38:51Z</time>
      </trkpt>
      <trkpt lat="37.9515960" lon="-5.6174300">
        <ele>712.6</ele>
        <time>2022-05-22T08:38:52Z</time>
      </trkpt>
      <trkpt lat="37.9515960" lon="-5.6174300">
        <ele>712.6</ele>
        <time>2022-05-22T08:38:53Z</time>
      </trkpt>
      <trkpt lat="37.9515960" lon="-5.6174300">
        <ele>712.6</ele>
        <time>2022-05-22T08:38:54Z</time>
      </trkpt>
      <trkpt lat="37.9515960" lon="-5.6174300">
        <ele>712.6</ele>
        <time>2022-05-22T08:38:55Z</time>
      </trkpt>
      <trkpt lat="37.9515960" lon="-5.6174300">
        <ele>712.6</ele>
        <time>2022-05-22T08:38:56Z</time>
      </trkpt>
      <trkpt lat="37.9515960" lon="-5.6174300">
        <ele>712.6</ele>
        <time>2022-05-22T08:38:57Z</time>
      </trkpt>
      <trkpt lat="37.9515960" lon="-5.6174300">
        <ele>712.6</ele>
        <time>2022-05-22T08:38:58Z</time>
      </trkpt>
      <trkpt lat="37.9515960" lon="-5.6174300">
        <ele>712.6</ele>
        <time>2022-05-22T08:38:59Z</time>
      </trkpt>
      <trkpt lat="37.9515960" lon="-5.6174300">
        <ele>712.6</ele>
        <time>2022-05-22T08:39:00Z</time>
      </trkpt>
      <trkpt lat="37.9515960" lon="-5.6174300">
        <ele>712.6</ele>
        <time>2022-05-22T08:39:01Z</time>
      </trkpt>
      <trkpt lat="37.9515960" lon="-5.6174300">
        <ele>712.6</ele>
        <time>2022-05-22T08:39:02Z</time>
      </trkpt>
      <trkpt lat="37.9515960" lon="-5.6174300">
        <ele>712.6</ele>
        <time>2022-05-22T08:39:03Z</time>
      </trkpt>
      <trkpt lat="37.9515960" lon="-5.6174300">
        <ele>712.6</ele>
        <time>2022-05-22T08:39:04Z</time>
      </trkpt>
      <trkpt lat="37.9515960" lon="-5.6174300">
        <ele>712.6</ele>
        <time>2022-05-22T08:39:05Z</time>
      </trkpt>
      <trkpt lat="37.9515960" lon="-5.6174300">
        <ele>712.6</ele>
        <time>2022-05-22T08:39:06Z</time>
      </trkpt>
      <trkpt lat="37.9515960" lon="-5.6174300">
        <ele>712.6</ele>
        <time>2022-05-22T08:39:07Z</time>
      </trkpt>
      <trkpt lat="37.9515960" lon="-5.6174300">
        <ele>712.6</ele>
        <time>2022-05-22T08:39:08Z</time>
      </trkpt>
      <trkpt lat="37.9515960" lon="-5.6174300">
        <ele>712.6</ele>
        <time>2022-05-22T08:39:09Z</time>
      </trkpt>
      <trkpt lat="37.9515960" lon="-5.6174300">
        <ele>712.6</ele>
        <time>2022-05-22T08:39:10Z</time>
      </trkpt>
      <trkpt lat="37.9515960" lon="-5.6174300">
        <ele>712.6</ele>
        <time>2022-05-22T08:39:11Z</time>
      </trkpt>
      <trkpt lat="37.9515960" lon="-5.6174300">
        <ele>712.6</ele>
        <time>2022-05-22T08:39:12Z</time>
      </trkpt>
      <trkpt lat="37.9515960" lon="-5.6174300">
        <ele>712.6</ele>
        <time>2022-05-22T08:39:13Z</time>
      </trkpt>
      <trkpt lat="37.9515960" lon="-5.6174300">
        <ele>712.6</ele>
        <time>2022-05-22T08:39:14Z</time>
      </trkpt>
      <trkpt lat="37.9515960" lon="-5.6174300">
        <ele>712.6</ele>
        <time>2022-05-22T08:39:15Z</time>
      </trkpt>
      <trkpt lat="37.9515960" lon="-5.6174300">
        <ele>712.6</ele>
        <time>2022-05-22T08:39:16Z</time>
      </trkpt>
      <trkpt lat="37.9515960" lon="-5.6174300">
        <ele>712.6</ele>
        <time>2022-05-22T08:39:17Z</time>
      </trkpt>
      <trkpt lat="37.9515960" lon="-5.6174300">
        <ele>712.6</ele>
        <time>2022-05-22T08:39:18Z</time>
      </trkpt>
      <trkpt lat="37.9515960" lon="-5.6174300">
        <ele>712.6</ele>
        <time>2022-05-22T08:39:19Z</time>
      </trkpt>
      <trkpt lat="37.9515960" lon="-5.6174300">
        <ele>712.6</ele>
        <time>2022-05-22T08:39:20Z</time>
      </trkpt>
      <trkpt lat="37.9515960" lon="-5.6174300">
        <ele>712.6</ele>
        <time>2022-05-22T08:39:21Z</time>
      </trkpt>
      <trkpt lat="37.9515960" lon="-5.6174300">
        <ele>712.6</ele>
        <time>2022-05-22T08:39:22Z</time>
      </trkpt>
      <trkpt lat="37.9515960" lon="-5.6174300">
        <ele>712.6</ele>
        <time>2022-05-22T08:39:23Z</time>
      </trkpt>
      <trkpt lat="37.9515960" lon="-5.6174300">
        <ele>712.6</ele>
        <time>2022-05-22T08:39:24Z</time>
      </trkpt>
      <trkpt lat="37.9515960" lon="-5.6174300">
        <ele>712.6</ele>
        <time>2022-05-22T08:39:25Z</time>
      </trkpt>
      <trkpt lat="37.9515960" lon="-5.6174300">
        <ele>712.6</ele>
        <time>2022-05-22T08:39:26Z</time>
      </trkpt>
      <trkpt lat="37.9515960" lon="-5.6174300">
        <ele>712.6</ele>
        <time>2022-05-22T08:39:27Z</time>
      </trkpt>
      <trkpt lat="37.9515960" lon="-5.6174300">
        <ele>712.6</ele>
        <time>2022-05-22T08:39:28Z</time>
      </trkpt>
      <trkpt lat="37.9515960" lon="-5.6174300">
        <ele>712.6</ele>
        <time>2022-05-22T08:39:29Z</time>
      </trkpt>
      <trkpt lat="37.9515960" lon="-5.6174300">
        <ele>712.6</ele>
        <time>2022-05-22T08:39:30Z</time>
      </trkpt>
      <trkpt lat="37.9515960" lon="-5.6174300">
        <ele>712.6</ele>
        <time>2022-05-22T08:39:31Z</time>
      </trkpt>
      <trkpt lat="37.9515960" lon="-5.6174300">
        <ele>712.6</ele>
        <time>2022-05-22T08:39:32Z</time>
      </trkpt>
      <trkpt lat="37.9515960" lon="-5.6174300">
        <ele>712.6</ele>
        <time>2022-05-22T08:39:33Z</time>
      </trkpt>
      <trkpt lat="37.9515960" lon="-5.6174300">
        <ele>712.6</ele>
        <time>2022-05-22T08:39:34Z</time>
      </trkpt>
      <trkpt lat="37.9515960" lon="-5.6174300">
        <ele>712.6</ele>
        <time>2022-05-22T08:39:35Z</time>
      </trkpt>
      <trkpt lat="37.9515960" lon="-5.6174300">
        <ele>712.6</ele>
        <time>2022-05-22T08:39:36Z</time>
      </trkpt>
      <trkpt lat="37.9515960" lon="-5.6174300">
        <ele>712.6</ele>
        <time>2022-05-22T08:39:37Z</time>
      </trkpt>
      <trkpt lat="37.9515960" lon="-5.6174300">
        <ele>712.6</ele>
        <time>2022-05-22T08:39:38Z</time>
      </trkpt>
      <trkpt lat="37.9515960" lon="-5.6174300">
        <ele>712.6</ele>
        <time>2022-05-22T08:39:39Z</time>
      </trkpt>
      <trkpt lat="37.9515960" lon="-5.6174300">
        <ele>712.6</ele>
        <time>2022-05-22T08:39:40Z</time>
      </trkpt>
      <trkpt lat="37.9515960" lon="-5.6174300">
        <ele>712.6</ele>
        <time>2022-05-22T08:39:41Z</time>
      </trkpt>
      <trkpt lat="37.9515970" lon="-5.6174300">
        <ele>712.6</ele>
        <time>2022-05-22T08:39:42Z</time>
      </trkpt>
      <trkpt lat="37.9515970" lon="-5.6174370">
        <ele>712.6</ele>
        <time>2022-05-22T08:39:43Z</time>
      </trkpt>
      <trkpt lat="37.9516140" lon="-5.6174510">
        <ele>712.6</ele>
        <time>2022-05-22T08:39:44Z</time>
      </trkpt>
      <trkpt lat="37.9516370" lon="-5.6174760">
        <ele>712.6</ele>
        <time>2022-05-22T08:39:45Z</time>
      </trkpt>
      <trkpt lat="37.9516440" lon="-5.6174840">
        <ele>712.6</ele>
        <time>2022-05-22T08:39:46Z</time>
      </trkpt>
      <trkpt lat="37.9516180" lon="-5.6174480">
        <ele>712.6</ele>
        <time>2022-05-22T08:39:47Z</time>
      </trkpt>
      <trkpt lat="37.9516210" lon="-5.6174450">
        <ele>712.6</ele>
        <time>2022-05-22T08:39:48Z</time>
      </trkpt>
      <trkpt lat="37.9516380" lon="-5.6174530">
        <ele>712.6</ele>
        <time>2022-05-22T08:39:50Z</time>
      </trkpt>
      <trkpt lat="37.9516520" lon="-5.6174580">
        <ele>712.6</ele>
        <time>2022-05-22T08:39:51Z</time>
      </trkpt>
      <trkpt lat="37.9516820" lon="-5.6174790">
        <ele>712.6</ele>
        <time>2022-05-22T08:39:52Z</time>
      </trkpt>
      <trkpt lat="37.9516930" lon="-5.6174920">
        <ele>712.6</ele>
        <time>2022-05-22T08:39:53Z</time>
      </trkpt>
      <trkpt lat="37.9517050" lon="-5.6175300">
        <ele>712.6</ele>
        <time>2022-05-22T08:39:54Z</time>
      </trkpt>
      <trkpt lat="37.9517080" lon="-5.6175430">
        <ele>712.5</ele>
        <time>2022-05-22T08:39:55Z</time>
      </trkpt>
      <trkpt lat="37.9517210" lon="-5.6175800">
        <ele>712.3</ele>
        <time>2022-05-22T08:39:56Z</time>
      </trkpt>
      <trkpt lat="37.9517260" lon="-5.6175900">
        <ele>712.3</ele>
        <time>2022-05-22T08:39:57Z</time>
      </trkpt>
      <trkpt lat="37.9517350" lon="-5.6176130">
        <ele>712.2</ele>
        <time>2022-05-22T08:39:59Z</time>
      </trkpt>
      <trkpt lat="37.9517400" lon="-5.6176290">
        <ele>712.2</ele>
        <time>2022-05-22T08:40:00Z</time>
      </trkpt>
      <trkpt lat="37.9517570" lon="-5.6176410">
        <ele>712.1</ele>
        <time>2022-05-22T08:40:02Z</time>
      </trkpt>
      <trkpt lat="37.9517660" lon="-5.6176510">
        <ele>712.1</ele>
        <time>2022-05-22T08:40:03Z</time>
      </trkpt>
      <trkpt lat="37.9517740" lon="-5.6176580">
        <ele>712.0</ele>
        <time>2022-05-22T08:40:04Z</time>
      </trkpt>
      <trkpt lat="37.9517820" lon="-5.6176640">
        <ele>712.0</ele>
        <time>2022-05-22T08:40:05Z</time>
      </trkpt>
      <trkpt lat="37.9517910" lon="-5.6176730">
        <ele>711.9</ele>
        <time>2022-05-22T08:40:06Z</time>
      </trkpt>
      <trkpt lat="37.9518060" lon="-5.6176930">
        <ele>711.8</ele>
        <time>2022-05-22T08:40:07Z</time>
      </trkpt>
      <trkpt lat="37.9518110" lon="-5.6177000">
        <ele>711.8</ele>
        <time>2022-05-22T08:40:08Z</time>
      </trkpt>
      <trkpt lat="37.9518160" lon="-5.6177070">
        <ele>711.8</ele>
        <time>2022-05-22T08:40:09Z</time>
      </trkpt>
      <trkpt lat="37.9518300" lon="-5.6177260">
        <ele>711.7</ele>
        <time>2022-05-22T08:40:10Z</time>
      </trkpt>
      <trkpt lat="37.9518360" lon="-5.6177340">
        <ele>711.7</ele>
        <time>2022-05-22T08:40:11Z</time>
      </trkpt>
      <trkpt lat="37.9518410" lon="-5.6177410">
        <ele>711.6</ele>
        <time>2022-05-22T08:40:12Z</time>
      </trkpt>
      <trkpt lat="37.9518560" lon="-5.6177620">
        <ele>711.5</ele>
        <time>2022-05-22T08:40:13Z</time>
      </trkpt>
      <trkpt lat="37.9518610" lon="-5.6177680">
        <ele>711.5</ele>
        <time>2022-05-22T08:40:14Z</time>
      </trkpt>
      <trkpt lat="37.9518660" lon="-5.6177750">
        <ele>711.5</ele>
        <time>2022-05-22T08:40:15Z</time>
      </trkpt>
      <trkpt lat="37.9518800" lon="-5.6177950">
        <ele>711.3</ele>
        <time>2022-05-22T08:40:16Z</time>
      </trkpt>
      <trkpt lat="37.9518870" lon="-5.6178040">
        <ele>711.3</ele>
        <time>2022-05-22T08:40:18Z</time>
      </trkpt>
      <trkpt lat="37.9518940" lon="-5.6178130">
        <ele>711.2</ele>
        <time>2022-05-22T08:40:19Z</time>
      </trkpt>
      <trkpt lat="37.9518980" lon="-5.6178140">
        <ele>711.2</ele>
        <time>2022-05-22T08:40:20Z</time>
      </trkpt>
      <trkpt lat="37.9519020" lon="-5.6178170">
        <ele>711.2</ele>
        <time>2022-05-22T08:40:21Z</time>
      </trkpt>
      <trkpt lat="37.9519050" lon="-5.6178190">
        <ele>711.2</ele>
        <time>2022-05-22T08:40:22Z</time>
      </trkpt>
      <trkpt lat="37.9519080" lon="-5.6178250">
        <ele>711.1</ele>
        <time>2022-05-22T08:40:23Z</time>
      </trkpt>
      <trkpt lat="37.9519110" lon="-5.6178320">
        <ele>711.1</ele>
        <time>2022-05-22T08:40:24Z</time>
      </trkpt>
      <trkpt lat="37.9519150" lon="-5.6178400">
        <ele>711.0</ele>
        <time>2022-05-22T08:40:25Z</time>
      </trkpt>
      <trkpt lat="37.9519200" lon="-5.6178480">
        <ele>711.0</ele>
        <time>2022-05-22T08:40:26Z</time>
      </trkpt>
      <trkpt lat="37.9519240" lon="-5.6178560">
        <ele>710.9</ele>
        <time>2022-05-22T08:40:27Z</time>
      </trkpt>
      <trkpt lat="37.9519370" lon="-5.6178720">
        <ele>710.8</ele>
        <time>2022-05-22T08:40:28Z</time>
      </trkpt>
      <trkpt lat="37.9519470" lon="-5.6178840">
        <ele>710.7</ele>
        <time>2022-05-22T08:40:30Z</time>
      </trkpt>
      <trkpt lat="37.9519530" lon="-5.6178890">
        <ele>710.7</ele>
        <time>2022-05-22T08:40:31Z</time>
      </trkpt>
      <trkpt lat="37.9519590" lon="-5.6178940">
        <ele>710.6</ele>
        <time>2022-05-22T08:40:32Z</time>
      </trkpt>
      <trkpt lat="37.9519640" lon="-5.6179000">
        <ele>710.5</ele>
        <time>2022-05-22T08:40:33Z</time>
      </trkpt>
      <trkpt lat="37.9519680" lon="-5.6179030">
        <ele>710.5</ele>
        <time>2022-05-22T08:40:34Z</time>
      </trkpt>
      <trkpt lat="37.9519690" lon="-5.6179050">
        <ele>710.5</ele>
        <time>2022-05-22T08:40:35Z</time>
      </trkpt>
      <trkpt lat="37.9519700" lon="-5.6179090">
        <ele>710.5</ele>
        <time>2022-05-22T08:40:36Z</time>
      </trkpt>
      <trkpt lat="37.9519730" lon="-5.6179130">
        <ele>710.4</ele>
        <time>2022-05-22T08:40:37Z</time>
      </trkpt>
      <trkpt lat="37.9519750" lon="-5.6179180">
        <ele>710.4</ele>
        <time>2022-05-22T08:40:38Z</time>
      </trkpt>
      <trkpt lat="37.9519790" lon="-5.6179230">
        <ele>710.3</ele>
        <time>2022-05-22T08:40:39Z</time>
      </trkpt>
      <trkpt lat="37.9519880" lon="-5.6179340">
        <ele>710.2</ele>
        <time>2022-05-22T08:40:40Z</time>
      </trkpt>
      <trkpt lat="37.9519940" lon="-5.6179410">
        <ele>710.1</ele>
        <time>2022-05-22T08:40:42Z</time>
      </trkpt>
      <trkpt lat="37.9519990" lon="-5.6179480">
        <ele>710.1</ele>
        <time>2022-05-22T08:40:43Z</time>
      </trkpt>
      <trkpt lat="37.9520050" lon="-5.6179550">
        <ele>710.0</ele>
        <time>2022-05-22T08:40:44Z</time>
      </trkpt>
      <trkpt lat="37.9520090" lon="-5.6179620">
        <ele>709.9</ele>
        <time>2022-05-22T08:40:45Z</time>
      </trkpt>
      <trkpt lat="37.9520100" lon="-5.6179710">
        <ele>709.8</ele>
        <time>2022-05-22T08:40:46Z</time>
      </trkpt>
      <trkpt lat="37.9520120" lon="-5.6179830">
        <ele>709.7</ele>
        <time>2022-05-22T08:40:47Z</time>
      </trkpt>
      <trkpt lat="37.9520150" lon="-5.6179920">
        <ele>709.6</ele>
        <time>2022-05-22T08:40:48Z</time>
      </trkpt>
      <trkpt lat="37.9520180" lon="-5.6179990">
        <ele>709.6</ele>
        <time>2022-05-22T08:40:49Z</time>
      </trkpt>
      <trkpt lat="37.9520240" lon="-5.6180080">
        <ele>709.4</ele>
        <time>2022-05-22T08:40:50Z</time>
      </trkpt>
      <trkpt lat="37.9520310" lon="-5.6180200">
        <ele>709.3</ele>
        <time>2022-05-22T08:40:51Z</time>
      </trkpt>
      <trkpt lat="37.9520360" lon="-5.6180270">
        <ele>709.2</ele>
        <time>2022-05-22T08:40:52Z</time>
      </trkpt>
      <trkpt lat="37.9520450" lon="-5.6180360">
        <ele>709.1</ele>
        <time>2022-05-22T08:40:53Z</time>
      </trkpt>
      <trkpt lat="37.9520530" lon="-5.6180430">
        <ele>708.9</ele>
        <time>2022-05-22T08:40:54Z</time>
      </trkpt>
      <trkpt lat="37.9520610" lon="-5.6180470">
        <ele>708.8</ele>
        <time>2022-05-22T08:40:55Z</time>
      </trkpt>
      <trkpt lat="37.9520710" lon="-5.6180530">
        <ele>708.7</ele>
        <time>2022-05-22T08:40:56Z</time>
      </trkpt>
      <trkpt lat="37.9520840" lon="-5.6180610">
        <ele>708.5</ele>
        <time>2022-05-22T08:40:57Z</time>
      </trkpt>
      <trkpt lat="37.9521030" lon="-5.6180530">
        <ele>708.3</ele>
        <time>2022-05-22T08:40:58Z</time>
      </trkpt>
      <trkpt lat="37.9521090" lon="-5.6180450">
        <ele>708.2</ele>
        <time>2022-05-22T08:40:59Z</time>
      </trkpt>
      <trkpt lat="37.9521150" lon="-5.6180370">
        <ele>708.1</ele>
        <time>2022-05-22T08:41:00Z</time>
      </trkpt>
      <trkpt lat="37.9521210" lon="-5.6180240">
        <ele>707.9</ele>
        <time>2022-05-22T08:41:02Z</time>
      </trkpt>
      <trkpt lat="37.9521250" lon="-5.6180140">
        <ele>707.8</ele>
        <time>2022-05-22T08:41:03Z</time>
      </trkpt>
      <trkpt lat="37.9521320" lon="-5.6180010">
        <ele>707.7</ele>
        <time>2022-05-22T08:41:04Z</time>
      </trkpt>
      <trkpt lat="37.9521360" lon="-5.6179950">
        <ele>707.7</ele>
        <time>2022-05-22T08:41:05Z</time>
      </trkpt>
      <trkpt lat="37.9521380" lon="-5.6179860">
        <ele>707.6</ele>
        <time>2022-05-22T08:41:06Z</time>
      </trkpt>
      <trkpt lat="37.9521390" lon="-5.6179760">
        <ele>707.5</ele>
        <time>2022-05-22T08:41:07Z</time>
      </trkpt>
      <trkpt lat="37.9521430" lon="-5.6179640">
        <ele>707.4</ele>
        <time>2022-05-22T08:41:08Z</time>
      </trkpt>
      <trkpt lat="37.9521470" lon="-5.6179540">
        <ele>707.4</ele>
        <time>2022-05-22T08:41:09Z</time>
      </trkpt>
      <trkpt lat="37.9521550" lon="-5.6179450">
        <ele>707.3</ele>
        <time>2022-05-22T08:41:10Z</time>
      </trkpt>
      <trkpt lat="37.9521610" lon="-5.6179400">
        <ele>707.3</ele>
        <time>2022-05-22T08:41:11Z</time>
      </trkpt>
      <trkpt lat="37.9521670" lon="-5.6179350">
        <ele>707.2</ele>
        <time>2022-05-22T08:41:12Z</time>
      </trkpt>
      <trkpt lat="37.9521720" lon="-5.6179330">
        <ele>707.2</ele>
        <time>2022-05-22T08:41:13Z</time>
      </trkpt>
      <trkpt lat="37.9521740" lon="-5.6179280">
        <ele>707.2</ele>
        <time>2022-05-22T08:41:14Z</time>
      </trkpt>
      <trkpt lat="37.9521810" lon="-5.6179170">
        <ele>707.1</ele>
        <time>2022-05-22T08:41:16Z</time>
      </trkpt>
      <trkpt lat="37.9521830" lon="-5.6179110">
        <ele>707.1</ele>
        <time>2022-05-22T08:41:17Z</time>
      </trkpt>
      <trkpt lat="37.9521860" lon="-5.6179070">
        <ele>707.0</ele>
        <time>2022-05-22T08:41:18Z</time>
      </trkpt>
      <trkpt lat="37.9521890" lon="-5.6178980">
        <ele>707.0</ele>
        <time>2022-05-22T08:41:19Z</time>
      </trkpt>
      <trkpt lat="37.9521930" lon="-5.6178880">
        <ele>707.0</ele>
        <time>2022-05-22T08:41:20Z</time>
      </trkpt>
      <trkpt lat="37.9521960" lon="-5.6178770">
        <ele>707.0</ele>
        <time>2022-05-22T08:41:21Z</time>
      </trkpt>
      <trkpt lat="37.9521990" lon="-5.6178650">
        <ele>706.9</ele>
        <time>2022-05-22T08:41:22Z</time>
      </trkpt>
      <trkpt lat="37.9522020" lon="-5.6178520">
        <ele>706.9</ele>
        <time>2022-05-22T08:41:23Z</time>
      </trkpt>
      <trkpt lat="37.9522060" lon="-5.6178380">
        <ele>706.9</ele>
        <time>2022-05-22T08:41:24Z</time>
      </trkpt>
      <trkpt lat="37.9522120" lon="-5.6178240">
        <ele>706.8</ele>
        <time>2022-05-22T08:41:25Z</time>
      </trkpt>
      <trkpt lat="37.9522330" lon="-5.6177960">
        <ele>706.8</ele>
        <time>2022-05-22T08:41:27Z</time>
      </trkpt>
      <trkpt lat="37.9522440" lon="-5.6177850">
        <ele>706.7</ele>
        <time>2022-05-22T08:41:28Z</time>
      </trkpt>
      <trkpt lat="37.9522550" lon="-5.6177740">
        <ele>706.7</ele>
        <time>2022-05-22T08:41:29Z</time>
      </trkpt>
      <trkpt lat="37.9522790" lon="-5.6177580">
        <ele>706.6</ele>
        <time>2022-05-22T08:41:30Z</time>
      </trkpt>
      <trkpt lat="37.9522870" lon="-5.6177510">
        <ele>706.6</ele>
        <time>2022-05-22T08:41:31Z</time>
      </trkpt>
      <trkpt lat="37.9523030" lon="-5.6177400">
        <ele>706.5</ele>
        <time>2022-05-22T08:41:32Z</time>
      </trkpt>
      <trkpt lat="37.9523140" lon="-5.6177330">
        <ele>706.4</ele>
        <time>2022-05-22T08:41:33Z</time>
      </trkpt>
      <trkpt lat="37.9523360" lon="-5.6177310">
        <ele>706.3</ele>
        <time>2022-05-22T08:41:34Z</time>
      </trkpt>
      <trkpt lat="37.9523450" lon="-5.6177320">
        <ele>706.2</ele>
        <time>2022-05-22T08:41:35Z</time>
      </trkpt>
      <trkpt lat="37.9523550" lon="-5.6177330">
        <ele>706.1</ele>
        <time>2022-05-22T08:41:36Z</time>
      </trkpt>
      <trkpt lat="37.9523790" lon="-5.6177480">
        <ele>705.9</ele>
        <time>2022-05-22T08:41:38Z</time>
      </trkpt>
      <trkpt lat="37.9523920" lon="-5.6177590">
        <ele>705.8</ele>
        <time>2022-05-22T08:41:40Z</time>
      </trkpt>
      <trkpt lat="37.9524030" lon="-5.6177690">
        <ele>705.6</ele>
        <time>2022-05-22T08:41:41Z</time>
      </trkpt>
      <trkpt lat="37.9524120" lon="-5.6177750">
        <ele>705.5</ele>
        <time>2022-05-22T08:41:42Z</time>
      </trkpt>
      <trkpt lat="37.9524210" lon="-5.6177820">
        <ele>705.4</ele>
        <time>2022-05-22T08:41:43Z</time>
      </trkpt>
      <trkpt lat="37.9524320" lon="-5.6177880">
        <ele>705.3</ele>
        <time>2022-05-22T08:41:44Z</time>
      </trkpt>
      <trkpt lat="37.9524400" lon="-5.6177920">
        <ele>705.2</ele>
        <time>2022-05-22T08:41:45Z</time>
      </trkpt>
      <trkpt lat="37.9524470" lon="-5.6177970">
        <ele>705.1</ele>
        <time>2022-05-22T08:41:46Z</time>
      </trkpt>
      <trkpt lat="37.9524530" lon="-5.6178020">
        <ele>705.0</ele>
        <time>2022-05-22T08:41:47Z</time>
      </trkpt>
      <trkpt lat="37.9524630" lon="-5.6178100">
        <ele>704.9</ele>
        <time>2022-05-22T08:41:48Z</time>
      </trkpt>
      <trkpt lat="37.9524700" lon="-5.6178170">
        <ele>704.8</ele>
        <time>2022-05-22T08:41:49Z</time>
      </trkpt>
      <trkpt lat="37.9524810" lon="-5.6178260">
        <ele>704.6</ele>
        <time>2022-05-22T08:41:50Z</time>
      </trkpt>
      <trkpt lat="37.9524880" lon="-5.6178320">
        <ele>704.5</ele>
        <time>2022-05-22T08:41:51Z</time>
      </trkpt>
      <trkpt lat="37.9524940" lon="-5.6178360">
        <ele>704.4</ele>
        <time>2022-05-22T08:41:52Z</time>
      </trkpt>
      <trkpt lat="37.9525010" lon="-5.6178420">
        <ele>704.3</ele>
        <time>2022-05-22T08:41:53Z</time>
      </trkpt>
      <trkpt lat="37.9525080" lon="-5.6178430">
        <ele>704.2</ele>
        <time>2022-05-22T08:41:55Z</time>
      </trkpt>
      <trkpt lat="37.9525190" lon="-5.6178440">
        <ele>704.1</ele>
        <time>2022-05-22T08:41:56Z</time>
      </trkpt>
      <trkpt lat="37.9525260" lon="-5.6178450">
        <ele>704.0</ele>
        <time>2022-05-22T08:41:57Z</time>
      </trkpt>
      <trkpt lat="37.9525320" lon="-5.6178460">
        <ele>704.0</ele>
        <time>2022-05-22T08:41:58Z</time>
      </trkpt>
      <trkpt lat="37.9525380" lon="-5.6178470">
        <ele>703.9</ele>
        <time>2022-05-22T08:41:59Z</time>
      </trkpt>
      <trkpt lat="37.9525440" lon="-5.6178470">
        <ele>703.9</ele>
        <time>2022-05-22T08:42:00Z</time>
      </trkpt>
      <trkpt lat="37.9525540" lon="-5.6178460">
        <ele>703.8</ele>
        <time>2022-05-22T08:42:01Z</time>
      </trkpt>
      <trkpt lat="37.9525740" lon="-5.6178360">
        <ele>703.5</ele>
        <time>2022-05-22T08:42:02Z</time>
      </trkpt>
      <trkpt lat="37.9525860" lon="-5.6178280">
        <ele>703.4</ele>
        <time>2022-05-22T08:42:03Z</time>
      </trkpt>
      <trkpt lat="37.9525980" lon="-5.6178200">
        <ele>703.3</ele>
        <time>2022-05-22T08:42:04Z</time>
      </trkpt>
      <trkpt lat="37.9526290" lon="-5.6177970">
        <ele>703.0</ele>
        <time>2022-05-22T08:42:05Z</time>
      </trkpt>
      <trkpt lat="37.9526430" lon="-5.6177880">
        <ele>702.9</ele>
        <time>2022-05-22T08:42:06Z</time>
      </trkpt>
      <trkpt lat="37.9526540" lon="-5.6177820">
        <ele>702.8</ele>
        <time>2022-05-22T08:42:07Z</time>
      </trkpt>
      <trkpt lat="37.9526590" lon="-5.6177790">
        <ele>702.7</ele>
        <time>2022-05-22T08:42:08Z</time>
      </trkpt>
      <trkpt lat="37.9526620" lon="-5.6177780">
        <ele>702.7</ele>
        <time>2022-05-22T08:42:09Z</time>
      </trkpt>
      <trkpt lat="37.9526640" lon="-5.6177770">
        <ele>702.7</ele>
        <time>2022-05-22T08:42:10Z</time>
      </trkpt>
      <trkpt lat="37.9526660" lon="-5.6177760">
        <ele>702.6</ele>
        <time>2022-05-22T08:42:11Z</time>
      </trkpt>
      <trkpt lat="37.9526680" lon="-5.6177740">
        <ele>702.6</ele>
        <time>2022-05-22T08:42:12Z</time>
      </trkpt>
      <trkpt lat="37.9526700" lon="-5.6177720">
        <ele>702.6</ele>
        <time>2022-05-22T08:42:13Z</time>
      </trkpt>
      <trkpt lat="37.9526710" lon="-5.6177700">
        <ele>702.6</ele>
        <time>2022-05-22T08:42:14Z</time>
      </trkpt>
      <trkpt lat="37.9526720" lon="-5.6177690">
        <ele>702.6</ele>
        <time>2022-05-22T08:42:15Z</time>
      </trkpt>
      <trkpt lat="37.9526740" lon="-5.6177670">
        <ele>702.6</ele>
        <time>2022-05-22T08:42:16Z</time>
      </trkpt>
      <trkpt lat="37.9526750" lon="-5.6177660">
        <ele>702.5</ele>
        <time>2022-05-22T08:42:17Z</time>
      </trkpt>
      <trkpt lat="37.9526740" lon="-5.6177630">
        <ele>702.5</ele>
        <time>2022-05-22T08:42:18Z</time>
      </trkpt>
      <trkpt lat="37.9526730" lon="-5.6177600">
        <ele>702.5</ele>
        <time>2022-05-22T08:42:19Z</time>
      </trkpt>
      <trkpt lat="37.9526730" lon="-5.6177600">
        <ele>702.5</ele>
        <time>2022-05-22T08:42:20Z</time>
      </trkpt>
      <trkpt lat="37.9526730" lon="-5.6177590">
        <ele>702.5</ele>
        <time>2022-05-22T08:42:21Z</time>
      </trkpt>
      <trkpt lat="37.9526730" lon="-5.6177590">
        <ele>702.5</ele>
        <time>2022-05-22T08:42:22Z</time>
      </trkpt>
      <trkpt lat="37.9526720" lon="-5.6177590">
        <ele>702.5</ele>
        <time>2022-05-22T08:42:23Z</time>
      </trkpt>
      <trkpt lat="37.9526720" lon="-5.6177590">
        <ele>702.5</ele>
        <time>2022-05-22T08:42:24Z</time>
      </trkpt>
      <trkpt lat="37.9526720" lon="-5.6177590">
        <ele>702.5</ele>
        <time>2022-05-22T08:42:26Z</time>
      </trkpt>
      <trkpt lat="37.9526720" lon="-5.6177590">
        <ele>702.5</ele>
        <time>2022-05-22T08:42:27Z</time>
      </trkpt>
      <trkpt lat="37.9526720" lon="-5.6177590">
        <ele>702.5</ele>
        <time>2022-05-22T08:42:28Z</time>
      </trkpt>
      <trkpt lat="37.9526710" lon="-5.6177590">
        <ele>702.5</ele>
        <time>2022-05-22T08:42:29Z</time>
      </trkpt>
      <trkpt lat="37.9526740" lon="-5.6177580">
        <ele>702.4</ele>
        <time>2022-05-22T08:42:30Z</time>
      </trkpt>
      <trkpt lat="37.9526790" lon="-5.6177520">
        <ele>702.4</ele>
        <time>2022-05-22T08:42:31Z</time>
      </trkpt>
      <trkpt lat="37.9526830" lon="-5.6177500">
        <ele>702.3</ele>
        <time>2022-05-22T08:42:32Z</time>
      </trkpt>
      <trkpt lat="37.9526890" lon="-5.6177490">
        <ele>702.3</ele>
        <time>2022-05-22T08:42:33Z</time>
      </trkpt>
      <trkpt lat="37.9526950" lon="-5.6177460">
        <ele>702.2</ele>
        <time>2022-05-22T08:42:34Z</time>
      </trkpt>
      <trkpt lat="37.9527020" lon="-5.6177410">
        <ele>702.1</ele>
        <time>2022-05-22T08:42:35Z</time>
      </trkpt>
      <trkpt lat="37.9527070" lon="-5.6177350">
        <ele>702.1</ele>
        <time>2022-05-22T08:42:36Z</time>
      </trkpt>
      <trkpt lat="37.9527170" lon="-5.6177110">
        <ele>701.9</ele>
        <time>2022-05-22T08:42:37Z</time>
      </trkpt>
      <trkpt lat="37.9527210" lon="-5.6177010">
        <ele>701.8</ele>
        <time>2022-05-22T08:42:38Z</time>
      </trkpt>
      <trkpt lat="37.9527240" lon="-5.6176910">
        <ele>701.7</ele>
        <time>2022-05-22T08:42:39Z</time>
      </trkpt>
      <trkpt lat="37.9527120" lon="-5.6176910">
        <ele>701.6</ele>
        <time>2022-05-22T08:42:40Z</time>
      </trkpt>
      <trkpt lat="37.9527130" lon="-5.6176860">
        <ele>701.5</ele>
        <time>2022-05-22T08:42:42Z</time>
      </trkpt>
      <trkpt lat="37.9527160" lon="-5.6176830">
        <ele>701.5</ele>
        <time>2022-05-22T08:42:43Z</time>
      </trkpt>
      <trkpt lat="37.9527200" lon="-5.6176860">
        <ele>701.4</ele>
        <time>2022-05-22T08:42:44Z</time>
      </trkpt>
      <trkpt lat="37.9527230" lon="-5.6176900">
        <ele>701.4</ele>
        <time>2022-05-22T08:42:45Z</time>
      </trkpt>
      <trkpt lat="37.9527250" lon="-5.6176970">
        <ele>701.3</ele>
        <time>2022-05-22T08:42:46Z</time>
      </trkpt>
      <trkpt lat="37.9527280" lon="-5.6177010">
        <ele>701.3</ele>
        <time>2022-05-22T08:42:47Z</time>
      </trkpt>
      <trkpt lat="37.9527330" lon="-5.6177050">
        <ele>701.2</ele>
        <time>2022-05-22T08:42:49Z</time>
      </trkpt>
      <trkpt lat="37.9527350" lon="-5.6176980">
        <ele>701.1</ele>
        <time>2022-05-22T08:42:50Z</time>
      </trkpt>
      <trkpt lat="37.9527380" lon="-5.6176750">
        <ele>700.9</ele>
        <time>2022-05-22T08:42:51Z</time>
      </trkpt>
      <trkpt lat="37.9527400" lon="-5.6176670">
        <ele>700.9</ele>
        <time>2022-05-22T08:42:52Z</time>
      </trkpt>
      <trkpt lat="37.9527420" lon="-5.6176630">
        <ele>700.8</ele>
        <time>2022-05-22T08:42:54Z</time>
      </trkpt>
      <trkpt lat="37.9527430" lon="-5.6176600">
        <ele>700.8</ele>
        <time>2022-05-22T08:42:55Z</time>
      </trkpt>
      <trkpt lat="37.9527440" lon="-5.6176570">
        <ele>700.8</ele>
        <time>2022-05-22T08:42:56Z</time>
      </trkpt>
      <trkpt lat="37.9527450" lon="-5.6176560">
        <ele>700.7</ele>
        <time>2022-05-22T08:42:57Z</time>
      </trkpt>
      <trkpt lat="37.9527460" lon="-5.6176560">
        <ele>700.7</ele>
        <time>2022-05-22T08:42:58Z</time>
      </trkpt>
      <trkpt lat="37.9527470" lon="-5.6176660">
        <ele>700.6</ele>
        <time>2022-05-22T08:43:00Z</time>
      </trkpt>
      <trkpt lat="37.9527470" lon="-5.6176730">
        <ele>700.6</ele>
        <time>2022-05-22T08:43:01Z</time>
      </trkpt>
      <trkpt lat="37.9527480" lon="-5.6176780">
        <ele>700.5</ele>
        <time>2022-05-22T08:43:02Z</time>
      </trkpt>
      <trkpt lat="37.9527500" lon="-5.6176870">
        <ele>700.4</ele>
        <time>2022-05-22T08:43:03Z</time>
      </trkpt>
      <trkpt lat="37.9527540" lon="-5.6176970">
        <ele>700.3</ele>
        <time>2022-05-22T08:43:05Z</time>
      </trkpt>
      <trkpt lat="37.9527580" lon="-5.6177040">
        <ele>700.3</ele>
        <time>2022-05-22T08:43:06Z</time>
      </trkpt>
      <trkpt lat="37.9527630" lon="-5.6177110">
        <ele>700.2</ele>
        <time>2022-05-22T08:43:07Z</time>
      </trkpt>
      <trkpt lat="37.9527670" lon="-5.6177170">
        <ele>700.1</ele>
        <time>2022-05-22T08:43:08Z</time>
      </trkpt>
      <trkpt lat="37.9527790" lon="-5.6177310">
        <ele>699.9</ele>
        <time>2022-05-22T08:43:10Z</time>
      </trkpt>
      <trkpt lat="37.9527860" lon="-5.6177370">
        <ele>699.8</ele>
        <time>2022-05-22T08:43:11Z</time>
      </trkpt>
      <trkpt lat="37.9527960" lon="-5.6177470">
        <ele>699.7</ele>
        <time>2022-05-22T08:43:12Z</time>
      </trkpt>
      <trkpt lat="37.9528020" lon="-5.6177570">
        <ele>699.6</ele>
        <time>2022-05-22T08:43:13Z</time>
      </trkpt>
      <trkpt lat="37.9528260" lon="-5.6177750">
        <ele>699.3</ele>
        <time>2022-05-22T08:43:15Z</time>
      </trkpt>
      <trkpt lat="37.9528450" lon="-5.6177870">
        <ele>699.1</ele>
        <time>2022-05-22T08:43:16Z</time>
      </trkpt>
      <trkpt lat="37.9528550" lon="-5.6177930">
        <ele>699.0</ele>
        <time>2022-05-22T08:43:17Z</time>
      </trkpt>
      <trkpt lat="37.9528600" lon="-5.6177920">
        <ele>698.9</ele>
        <time>2022-05-22T08:43:18Z</time>
      </trkpt>
      <trkpt lat="37.9528620" lon="-5.6177890">
        <ele>698.9</ele>
        <time>2022-05-22T08:43:20Z</time>
      </trkpt>
      <trkpt lat="37.9528620" lon="-5.6177860">
        <ele>698.9</ele>
        <time>2022-05-22T08:43:21Z</time>
      </trkpt>
      <trkpt lat="37.9528620" lon="-5.6177850">
        <ele>698.8</ele>
        <time>2022-05-22T08:43:22Z</time>
      </trkpt>
      <trkpt lat="37.9528620" lon="-5.6177830">
        <ele>698.8</ele>
        <time>2022-05-22T08:43:23Z</time>
      </trkpt>
      <trkpt lat="37.9528610" lon="-5.6177820">
        <ele>698.8</ele>
        <time>2022-05-22T08:43:24Z</time>
      </trkpt>
      <trkpt lat="37.9528620" lon="-5.6177810">
        <ele>698.8</ele>
        <time>2022-05-22T08:43:25Z</time>
      </trkpt>
      <trkpt lat="37.9528620" lon="-5.6177800">
        <ele>698.8</ele>
        <time>2022-05-22T08:43:26Z</time>
      </trkpt>
      <trkpt lat="37.9528630" lon="-5.6177810">
        <ele>698.8</ele>
        <time>2022-05-22T08:43:27Z</time>
      </trkpt>
      <trkpt lat="37.9528640" lon="-5.6177820">
        <ele>698.8</ele>
        <time>2022-05-22T08:43:28Z</time>
      </trkpt>
      <trkpt lat="37.9528650" lon="-5.6177840">
        <ele>698.8</ele>
        <time>2022-05-22T08:43:29Z</time>
      </trkpt>
      <trkpt lat="37.9528660" lon="-5.6177850">
        <ele>698.7</ele>
        <time>2022-05-22T08:43:31Z</time>
      </trkpt>
      <trkpt lat="37.9528650" lon="-5.6177870">
        <ele>698.7</ele>
        <time>2022-05-22T08:43:32Z</time>
      </trkpt>
      <trkpt lat="37.9528660" lon="-5.6177890">
        <ele>698.7</ele>
        <time>2022-05-22T08:43:34Z</time>
      </trkpt>
      <trkpt lat="37.9528670" lon="-5.6177920">
        <ele>698.7</ele>
        <time>2022-05-22T08:43:36Z</time>
      </trkpt>
      <trkpt lat="37.9528670" lon="-5.6177940">
        <ele>698.7</ele>
        <time>2022-05-22T08:43:37Z</time>
      </trkpt>
      <trkpt lat="37.9528660" lon="-5.6177950">
        <ele>698.7</ele>
        <time>2022-05-22T08:43:38Z</time>
      </trkpt>
      <trkpt lat="37.9528660" lon="-5.6177970">
        <ele>698.6</ele>
        <time>2022-05-22T08:43:39Z</time>
      </trkpt>
      <trkpt lat="37.9528660" lon="-5.6177990">
        <ele>698.6</ele>
        <time>2022-05-22T08:43:40Z</time>
      </trkpt>
      <trkpt lat="37.9528650" lon="-5.6178000">
        <ele>698.6</ele>
        <time>2022-05-22T08:43:41Z</time>
      </trkpt>
      <trkpt lat="37.9528660" lon="-5.6178030">
        <ele>698.6</ele>
        <time>2022-05-22T08:43:42Z</time>
      </trkpt>
      <trkpt lat="37.9528680" lon="-5.6178070">
        <ele>698.6</ele>
        <time>2022-05-22T08:43:44Z</time>
      </trkpt>
      <trkpt lat="37.9528740" lon="-5.6178130">
        <ele>698.5</ele>
        <time>2022-05-22T08:43:45Z</time>
      </trkpt>
      <trkpt lat="37.9528800" lon="-5.6178190">
        <ele>698.4</ele>
        <time>2022-05-22T08:43:47Z</time>
      </trkpt>
      <trkpt lat="37.9528850" lon="-5.6178280">
        <ele>698.4</ele>
        <time>2022-05-22T08:43:48Z</time>
      </trkpt>
      <trkpt lat="37.9528900" lon="-5.6178370">
        <ele>698.3</ele>
        <time>2022-05-22T08:43:49Z</time>
      </trkpt>
      <trkpt lat="37.9529000" lon="-5.6178510">
        <ele>698.2</ele>
        <time>2022-05-22T08:43:50Z</time>
      </trkpt>
      <trkpt lat="37.9529210" lon="-5.6178600">
        <ele>698.0</ele>
        <time>2022-05-22T08:43:51Z</time>
      </trkpt>
      <trkpt lat="37.9529280" lon="-5.6178600">
        <ele>698.0</ele>
        <time>2022-05-22T08:43:53Z</time>
      </trkpt>
      <trkpt lat="37.9529360" lon="-5.6178590">
        <ele>697.9</ele>
        <time>2022-05-22T08:43:54Z</time>
      </trkpt>
      <trkpt lat="37.9529640" lon="-5.6178660">
        <ele>697.8</ele>
        <time>2022-05-22T08:43:55Z</time>
      </trkpt>
      <trkpt lat="37.9529930" lon="-5.6178730">
        <ele>697.6</ele>
        <time>2022-05-22T08:43:56Z</time>
      </trkpt>
      <trkpt lat="37.9530180" lon="-5.6178710">
        <ele>697.5</ele>
        <time>2022-05-22T08:43:57Z</time>
      </trkpt>
      <trkpt lat="37.9530300" lon="-5.6178820">
        <ele>697.4</ele>
        <time>2022-05-22T08:43:59Z</time>
      </trkpt>
      <trkpt lat="37.9530340" lon="-5.6178950">
        <ele>697.4</ele>
        <time>2022-05-22T08:44:00Z</time>
      </trkpt>
      <trkpt lat="37.9530350" lon="-5.6179020">
        <ele>697.4</ele>
        <time>2022-05-22T08:44:01Z</time>
      </trkpt>
      <trkpt lat="37.9530360" lon="-5.6179070">
        <ele>697.4</ele>
        <time>2022-05-22T08:44:02Z</time>
      </trkpt>
      <trkpt lat="37.9530380" lon="-5.6179120">
        <ele>697.3</ele>
        <time>2022-05-22T08:44:03Z</time>
      </trkpt>
      <trkpt lat="37.9530400" lon="-5.6179150">
        <ele>697.3</ele>
        <time>2022-05-22T08:44:04Z</time>
      </trkpt>
      <trkpt lat="37.9530440" lon="-5.6179210">
        <ele>697.3</ele>
        <time>2022-05-22T08:44:05Z</time>
      </trkpt>
      <trkpt lat="37.9530480" lon="-5.6179260">
        <ele>697.3</ele>
        <time>2022-05-22T08:44:06Z</time>
      </trkpt>
      <trkpt lat="37.9530510" lon="-5.6179310">
        <ele>697.3</ele>
        <time>2022-05-22T08:44:07Z</time>
      </trkpt>
      <trkpt lat="37.9530520" lon="-5.6179320">
        <ele>697.3</ele>
        <time>2022-05-22T08:44:08Z</time>
      </trkpt>
      <trkpt lat="37.9530550" lon="-5.6179340">
        <ele>697.3</ele>
        <time>2022-05-22T08:44:09Z</time>
      </trkpt>
      <trkpt lat="37.9530570" lon="-5.6179370">
        <ele>697.3</ele>
        <time>2022-05-22T08:44:10Z</time>
      </trkpt>
      <trkpt lat="37.9530580" lon="-5.6179410">
        <ele>697.2</ele>
        <time>2022-05-22T08:44:11Z</time>
      </trkpt>
      <trkpt lat="37.9530570" lon="-5.6179440">
        <ele>697.2</ele>
        <time>2022-05-22T08:44:12Z</time>
      </trkpt>
      <trkpt lat="37.9530560" lon="-5.6179450">
        <ele>697.2</ele>
        <time>2022-05-22T08:44:13Z</time>
      </trkpt>
      <trkpt lat="37.9530550" lon="-5.6179450">
        <ele>697.2</ele>
        <time>2022-05-22T08:44:14Z</time>
      </trkpt>
      <trkpt lat="37.9530540" lon="-5.6179450">
        <ele>697.2</ele>
        <time>2022-05-22T08:44:15Z</time>
      </trkpt>
      <trkpt lat="37.9530520" lon="-5.6179450">
        <ele>697.2</ele>
        <time>2022-05-22T08:44:16Z</time>
      </trkpt>
      <trkpt lat="37.9530510" lon="-5.6179460">
        <ele>697.2</ele>
        <time>2022-05-22T08:44:17Z</time>
      </trkpt>
      <trkpt lat="37.9530500" lon="-5.6179460">
        <ele>697.2</ele>
        <time>2022-05-22T08:44:18Z</time>
      </trkpt>
      <trkpt lat="37.9530490" lon="-5.6179460">
        <ele>697.2</ele>
        <time>2022-05-22T08:44:20Z</time>
      </trkpt>
      <trkpt lat="37.9530480" lon="-5.6179460">
        <ele>697.2</ele>
        <time>2022-05-22T08:44:21Z</time>
      </trkpt>
      <trkpt lat="37.9530470" lon="-5.6179470">
        <ele>697.2</ele>
        <time>2022-05-22T08:44:22Z</time>
      </trkpt>
      <trkpt lat="37.9530450" lon="-5.6179470">
        <ele>697.2</ele>
        <time>2022-05-22T08:44:23Z</time>
      </trkpt>
      <trkpt lat="37.9530440" lon="-5.6179470">
        <ele>697.2</ele>
        <time>2022-05-22T08:44:24Z</time>
      </trkpt>
      <trkpt lat="37.9530430" lon="-5.6179470">
        <ele>697.2</ele>
        <time>2022-05-22T08:44:25Z</time>
      </trkpt>
      <trkpt lat="37.9530420" lon="-5.6179480">
        <ele>697.2</ele>
        <time>2022-05-22T08:44:26Z</time>
      </trkpt>
      <trkpt lat="37.9530410" lon="-5.6179480">
        <ele>697.2</ele>
        <time>2022-05-22T08:44:27Z</time>
      </trkpt>
      <trkpt lat="37.9530400" lon="-5.6179480">
        <ele>697.2</ele>
        <time>2022-05-22T08:44:28Z</time>
      </trkpt>
      <trkpt lat="37.9530390" lon="-5.6179480">
        <ele>697.2</ele>
        <time>2022-05-22T08:44:29Z</time>
      </trkpt>
      <trkpt lat="37.9530370" lon="-5.6179490">
        <ele>697.2</ele>
        <time>2022-05-22T08:44:30Z</time>
      </trkpt>
      <trkpt lat="37.9530360" lon="-5.6179490">
        <ele>697.2</ele>
        <time>2022-05-22T08:44:31Z</time>
      </trkpt>
      <trkpt lat="37.9530350" lon="-5.6179490">
        <ele>697.2</ele>
        <time>2022-05-22T08:44:32Z</time>
      </trkpt>
      <trkpt lat="37.9530340" lon="-5.6179490">
        <ele>697.2</ele>
        <time>2022-05-22T08:44:33Z</time>
      </trkpt>
      <trkpt lat="37.9530330" lon="-5.6179500">
        <ele>697.2</ele>
        <time>2022-05-22T08:44:34Z</time>
      </trkpt>
      <trkpt lat="37.9530320" lon="-5.6179500">
        <ele>697.2</ele>
        <time>2022-05-22T08:44:35Z</time>
      </trkpt>
      <trkpt lat="37.9530300" lon="-5.6179500">
        <ele>697.1</ele>
        <time>2022-05-22T08:44:36Z</time>
      </trkpt>
      <trkpt lat="37.9530290" lon="-5.6179500">
        <ele>697.1</ele>
        <time>2022-05-22T08:44:37Z</time>
      </trkpt>
      <trkpt lat="37.9530280" lon="-5.6179510">
        <ele>697.1</ele>
        <time>2022-05-22T08:44:39Z</time>
      </trkpt>
      <trkpt lat="37.9530270" lon="-5.6179510">
        <ele>697.1</ele>
        <time>2022-05-22T08:44:40Z</time>
      </trkpt>
      <trkpt lat="37.9530260" lon="-5.6179510">
        <ele>697.1</ele>
        <time>2022-05-22T08:44:41Z</time>
      </trkpt>
      <trkpt lat="37.9530250" lon="-5.6179510">
        <ele>697.1</ele>
        <time>2022-05-22T08:44:42Z</time>
      </trkpt>
      <trkpt lat="37.9530240" lon="-5.6179520">
        <ele>697.1</ele>
        <time>2022-05-22T08:44:43Z</time>
      </trkpt>
      <trkpt lat="37.9530220" lon="-5.6179520">
        <ele>697.1</ele>
        <time>2022-05-22T08:44:44Z</time>
      </trkpt>
      <trkpt lat="37.9530060" lon="-5.6179520">
        <ele>697.1</ele>
        <time>2022-05-22T08:44:46Z</time>
      </trkpt>
      <trkpt lat="37.9530030" lon="-5.6179520">
        <ele>697.1</ele>
        <time>2022-05-22T08:44:47Z</time>
      </trkpt>
      <trkpt lat="37.9530010" lon="-5.6179520">
        <ele>697.1</ele>
        <time>2022-05-22T08:44:48Z</time>
      </trkpt>
      <trkpt lat="37.9530000" lon="-5.6179520">
        <ele>697.0</ele>
        <time>2022-05-22T08:44:50Z</time>
      </trkpt>
      <trkpt lat="37.9530000" lon="-5.6179520">
        <ele>697.0</ele>
        <time>2022-05-22T08:44:51Z</time>
      </trkpt>
      <trkpt lat="37.9530000" lon="-5.6179520">
        <ele>697.0</ele>
        <time>2022-05-22T08:44:52Z</time>
      </trkpt>
      <trkpt lat="37.9530000" lon="-5.6179520">
        <ele>697.0</ele>
        <time>2022-05-22T08:44:53Z</time>
      </trkpt>
      <trkpt lat="37.9530000" lon="-5.6179520">
        <ele>697.0</ele>
        <time>2022-05-22T08:44:54Z</time>
      </trkpt>
      <trkpt lat="37.9530000" lon="-5.6179520">
        <ele>697.0</ele>
        <time>2022-05-22T08:44:55Z</time>
      </trkpt>
      <trkpt lat="37.9530000" lon="-5.6179520">
        <ele>697.0</ele>
        <time>2022-05-22T08:44:56Z</time>
      </trkpt>
      <trkpt lat="37.9530000" lon="-5.6179520">
        <ele>697.0</ele>
        <time>2022-05-22T08:44:57Z</time>
      </trkpt>
      <trkpt lat="37.9530000" lon="-5.6179520">
        <ele>697.0</ele>
        <time>2022-05-22T08:44:58Z</time>
      </trkpt>
      <trkpt lat="37.9530000" lon="-5.6179520">
        <ele>697.0</ele>
        <time>2022-05-22T08:44:59Z</time>
      </trkpt>
      <trkpt lat="37.9530060" lon="-5.6179520">
        <ele>697.0</ele>
        <time>2022-05-22T08:45:00Z</time>
      </trkpt>
      <trkpt lat="37.9530100" lon="-5.6179590">
        <ele>697.0</ele>
        <time>2022-05-22T08:45:01Z</time>
      </trkpt>
      <trkpt lat="37.9530100" lon="-5.6179590">
        <ele>697.0</ele>
        <time>2022-05-22T08:45:02Z</time>
      </trkpt>
      <trkpt lat="37.9530050" lon="-5.6179600">
        <ele>697.0</ele>
        <time>2022-05-22T08:45:03Z</time>
      </trkpt>
      <trkpt lat="37.9530040" lon="-5.6179600">
        <ele>697.0</ele>
        <time>2022-05-22T08:45:04Z</time>
      </trkpt>
      <trkpt lat="37.9530040" lon="-5.6179610">
        <ele>697.0</ele>
        <time>2022-05-22T08:45:05Z</time>
      </trkpt>
      <trkpt lat="37.9530040" lon="-5.6179610">
        <ele>697.0</ele>
        <time>2022-05-22T08:45:06Z</time>
      </trkpt>
      <trkpt lat="37.9530040" lon="-5.6179610">
        <ele>697.0</ele>
        <time>2022-05-22T08:45:07Z</time>
      </trkpt>
      <trkpt lat="37.9530040" lon="-5.6179610">
        <ele>697.0</ele>
        <time>2022-05-22T08:45:08Z</time>
      </trkpt>
      <trkpt lat="37.9530060" lon="-5.6179620">
        <ele>697.0</ele>
        <time>2022-05-22T08:45:09Z</time>
      </trkpt>
      <trkpt lat="37.9530070" lon="-5.6179620">
        <ele>697.0</ele>
        <time>2022-05-22T08:45:10Z</time>
      </trkpt>
      <trkpt lat="37.9530090" lon="-5.6179630">
        <ele>697.0</ele>
        <time>2022-05-22T08:45:11Z</time>
      </trkpt>
      <trkpt lat="37.9530130" lon="-5.6179700">
        <ele>697.0</ele>
        <time>2022-05-22T08:45:12Z</time>
      </trkpt>
      <trkpt lat="37.9530140" lon="-5.6179730">
        <ele>697.0</ele>
        <time>2022-05-22T08:45:13Z</time>
      </trkpt>
      <trkpt lat="37.9530180" lon="-5.6179750">
        <ele>696.9</ele>
        <time>2022-05-22T08:45:14Z</time>
      </trkpt>
      <trkpt lat="37.9530230" lon="-5.6179760">
        <ele>696.9</ele>
        <time>2022-05-22T08:45:15Z</time>
      </trkpt>
      <trkpt lat="37.9530340" lon="-5.6179790">
        <ele>696.9</ele>
        <time>2022-05-22T08:45:17Z</time>
      </trkpt>
      <trkpt lat="37.9530450" lon="-5.6179840">
        <ele>696.9</ele>
        <time>2022-05-22T08:45:18Z</time>
      </trkpt>
      <trkpt lat="37.9530530" lon="-5.6179890">
        <ele>696.9</ele>
        <time>2022-05-22T08:45:19Z</time>
      </trkpt>
      <trkpt lat="37.9530620" lon="-5.6179950">
        <ele>696.8</ele>
        <time>2022-05-22T08:45:20Z</time>
      </trkpt>
      <trkpt lat="37.9530710" lon="-5.6179980">
        <ele>696.8</ele>
        <time>2022-05-22T08:45:21Z</time>
      </trkpt>
      <trkpt lat="37.9530760" lon="-5.6179990">
        <ele>696.8</ele>
        <time>2022-05-22T08:45:22Z</time>
      </trkpt>
      <trkpt lat="37.9530930" lon="-5.6179980">
        <ele>696.8</ele>
        <time>2022-05-22T08:45:25Z</time>
      </trkpt>
      <trkpt lat="37.9530960" lon="-5.6179970">
        <ele>696.8</ele>
        <time>2022-05-22T08:45:26Z</time>
      </trkpt>
      <trkpt lat="37.9531000" lon="-5.6179950">
        <ele>696.8</ele>
        <time>2022-05-22T08:45:27Z</time>
      </trkpt>
      <trkpt lat="37.9531100" lon="-5.6179990">
        <ele>696.7</ele>
        <time>2022-05-22T08:45:28Z</time>
      </trkpt>
      <trkpt lat="37.9531150" lon="-5.6180030">
        <ele>696.7</ele>
        <time>2022-05-22T08:45:29Z</time>
      </trkpt>
      <trkpt lat="37.9531200" lon="-5.6180080">
        <ele>696.7</ele>
        <time>2022-05-22T08:45:30Z</time>
      </trkpt>
      <trkpt lat="37.9531250" lon="-5.6180130">
        <ele>696.7</ele>
        <time>2022-05-22T08:45:31Z</time>
      </trkpt>
      <trkpt lat="37.9531310" lon="-5.6180180">
        <ele>696.7</ele>
        <time>2022-05-22T08:45:32Z</time>
      </trkpt>
      <trkpt lat="37.9531360" lon="-5.6180220">
        <ele>696.7</ele>
        <time>2022-05-22T08:45:33Z</time>
      </trkpt>
      <trkpt lat="37.9531460" lon="-5.6180420">
        <ele>696.6</ele>
        <time>2022-05-22T08:45:34Z</time>
      </trkpt>
      <trkpt lat="37.9531540" lon="-5.6180560">
        <ele>696.6</ele>
        <time>2022-05-22T08:45:35Z</time>
      </trkpt>
      <trkpt lat="37.9531590" lon="-5.6180610">
        <ele>696.6</ele>
        <time>2022-05-22T08:45:36Z</time>
      </trkpt>
      <trkpt lat="37.9531650" lon="-5.6180650">
        <ele>696.6</ele>
        <time>2022-05-22T08:45:37Z</time>
      </trkpt>
      <trkpt lat="37.9531710" lon="-5.6180700">
        <ele>696.6</ele>
        <time>2022-05-22T08:45:38Z</time>
      </trkpt>
      <trkpt lat="37.9531770" lon="-5.6180720">
        <ele>696.6</ele>
        <time>2022-05-22T08:45:39Z</time>
      </trkpt>
      <trkpt lat="37.9531850" lon="-5.6180770">
        <ele>696.6</ele>
        <time>2022-05-22T08:45:40Z</time>
      </trkpt>
      <trkpt lat="37.9531930" lon="-5.6180810">
        <ele>696.5</ele>
        <time>2022-05-22T08:45:41Z</time>
      </trkpt>
      <trkpt lat="37.9531980" lon="-5.6180870">
        <ele>696.5</ele>
        <time>2022-05-22T08:45:42Z</time>
      </trkpt>
      <trkpt lat="37.9532030" lon="-5.6180950">
        <ele>696.5</ele>
        <time>2022-05-22T08:45:43Z</time>
      </trkpt>
      <trkpt lat="37.9532090" lon="-5.6181050">
        <ele>696.5</ele>
        <time>2022-05-22T08:45:44Z</time>
      </trkpt>
      <trkpt lat="37.9532140" lon="-5.6181140">
        <ele>696.5</ele>
        <time>2022-05-22T08:45:45Z</time>
      </trkpt>
      <trkpt lat="37.9532220" lon="-5.6181280">
        <ele>696.5</ele>
        <time>2022-05-22T08:45:46Z</time>
      </trkpt>
      <trkpt lat="37.9532280" lon="-5.6181370">
        <ele>696.4</ele>
        <time>2022-05-22T08:45:47Z</time>
      </trkpt>
      <trkpt lat="37.9532350" lon="-5.6181450">
        <ele>696.4</ele>
        <time>2022-05-22T08:45:48Z</time>
      </trkpt>
      <trkpt lat="37.9532440" lon="-5.6181510">
        <ele>696.4</ele>
        <time>2022-05-22T08:45:49Z</time>
      </trkpt>
      <trkpt lat="37.9532560" lon="-5.6181610">
        <ele>696.4</ele>
        <time>2022-05-22T08:45:51Z</time>
      </trkpt>
      <trkpt lat="37.9532650" lon="-5.6181740">
        <ele>696.4</ele>
        <time>2022-05-22T08:45:52Z</time>
      </trkpt>
      <trkpt lat="37.9532660" lon="-5.6182040">
        <ele>696.3</ele>
        <time>2022-05-22T08:45:53Z</time>
      </trkpt>
      <trkpt lat="37.9532660" lon="-5.6182280">
        <ele>696.3</ele>
        <time>2022-05-22T08:45:55Z</time>
      </trkpt>
      <trkpt lat="37.9532680" lon="-5.6182380">
        <ele>696.3</ele>
        <time>2022-05-22T08:45:56Z</time>
      </trkpt>
      <trkpt lat="37.9532790" lon="-5.6182520">
        <ele>696.3</ele>
        <time>2022-05-22T08:45:57Z</time>
      </trkpt>
      <trkpt lat="37.9532830" lon="-5.6182580">
        <ele>696.3</ele>
        <time>2022-05-22T08:45:58Z</time>
      </trkpt>
      <trkpt lat="37.9532880" lon="-5.6182630">
        <ele>696.2</ele>
        <time>2022-05-22T08:46:00Z</time>
      </trkpt>
      <trkpt lat="37.9532920" lon="-5.6182690">
        <ele>696.2</ele>
        <time>2022-05-22T08:46:01Z</time>
      </trkpt>
      <trkpt lat="37.9532970" lon="-5.6182750">
        <ele>696.2</ele>
        <time>2022-05-22T08:46:02Z</time>
      </trkpt>
      <trkpt lat="37.9533010" lon="-5.6182800">
        <ele>696.2</ele>
        <time>2022-05-22T08:46:03Z</time>
      </trkpt>
      <trkpt lat="37.9533060" lon="-5.6182860">
        <ele>696.2</ele>
        <time>2022-05-22T08:46:04Z</time>
      </trkpt>
      <trkpt lat="37.9533110" lon="-5.6182910">
        <ele>696.2</ele>
        <time>2022-05-22T08:46:05Z</time>
      </trkpt>
      <trkpt lat="37.9533150" lon="-5.6182970">
        <ele>696.2</ele>
        <time>2022-05-22T08:46:06Z</time>
      </trkpt>
      <trkpt lat="37.9533200" lon="-5.6183030">
        <ele>696.2</ele>
        <time>2022-05-22T08:46:07Z</time>
      </trkpt>
      <trkpt lat="37.9533390" lon="-5.6183060">
        <ele>696.1</ele>
        <time>2022-05-22T08:46:08Z</time>
      </trkpt>
      <trkpt lat="37.9533480" lon="-5.6183100">
        <ele>696.1</ele>
        <time>2022-05-22T08:46:10Z</time>
      </trkpt>
      <trkpt lat="37.9533570" lon="-5.6183150">
        <ele>696.1</ele>
        <time>2022-05-22T08:46:11Z</time>
      </trkpt>
      <trkpt lat="37.9533650" lon="-5.6183210">
        <ele>696.1</ele>
        <time>2022-05-22T08:46:12Z</time>
      </trkpt>
      <trkpt lat="37.9533730" lon="-5.6183260">
        <ele>696.1</ele>
        <time>2022-05-22T08:46:13Z</time>
      </trkpt>
      <trkpt lat="37.9533970" lon="-5.6183300">
        <ele>696.1</ele>
        <time>2022-05-22T08:46:14Z</time>
      </trkpt>
      <trkpt lat="37.9534100" lon="-5.6183290">
        <ele>696.0</ele>
        <time>2022-05-22T08:46:15Z</time>
      </trkpt>
      <trkpt lat="37.9534250" lon="-5.6183270">
        <ele>696.0</ele>
        <time>2022-05-22T08:46:16Z</time>
      </trkpt>
      <trkpt lat="37.9534390" lon="-5.6183270">
        <ele>696.0</ele>
        <time>2022-05-22T08:46:17Z</time>
      </trkpt>
      <trkpt lat="37.9534620" lon="-5.6183350">
        <ele>695.9</ele>
        <time>2022-05-22T08:46:18Z</time>
      </trkpt>
      <trkpt lat="37.9534730" lon="-5.6183400">
        <ele>695.9</ele>
        <time>2022-05-22T08:46:19Z</time>
      </trkpt>
      <trkpt lat="37.9534840" lon="-5.6183460">
        <ele>695.9</ele>
        <time>2022-05-22T08:46:20Z</time>
      </trkpt>
      <trkpt lat="37.9535120" lon="-5.6183500">
        <ele>695.8</ele>
        <time>2022-05-22T08:46:22Z</time>
      </trkpt>
      <trkpt lat="37.9535220" lon="-5.6183500">
        <ele>695.8</ele>
        <time>2022-05-22T08:46:23Z</time>
      </trkpt>
      <trkpt lat="37.9535370" lon="-5.6183510">
        <ele>695.8</ele>
        <time>2022-05-22T08:46:24Z</time>
      </trkpt>
      <trkpt lat="37.9535670" lon="-5.6183600">
        <ele>695.7</ele>
        <time>2022-05-22T08:46:26Z</time>
      </trkpt>
      <trkpt lat="37.9535790" lon="-5.6183690">
        <ele>695.7</ele>
        <time>2022-05-22T08:46:27Z</time>
      </trkpt>
      <trkpt lat="37.9535930" lon="-5.6183840">
        <ele>695.7</ele>
        <time>2022-05-22T08:46:28Z</time>
      </trkpt>
      <trkpt lat="37.9535990" lon="-5.6184180">
        <ele>695.7</ele>
        <time>2022-05-22T08:46:30Z</time>
      </trkpt>
      <trkpt lat="37.9535840" lon="-5.6184540">
        <ele>695.6</ele>
        <time>2022-05-22T08:46:31Z</time>
      </trkpt>
      <trkpt lat="37.9535880" lon="-5.6184650">
        <ele>695.6</ele>
        <time>2022-05-22T08:46:32Z</time>
      </trkpt>
      <trkpt lat="37.9535900" lon="-5.6184680">
        <ele>695.6</ele>
        <time>2022-05-22T08:46:33Z</time>
      </trkpt>
      <trkpt lat="37.9535970" lon="-5.6184700">
        <ele>695.6</ele>
        <time>2022-05-22T08:46:34Z</time>
      </trkpt>
      <trkpt lat="37.9536080" lon="-5.6184770">
        <ele>695.6</ele>
        <time>2022-05-22T08:46:36Z</time>
      </trkpt>
      <trkpt lat="37.9536210" lon="-5.6184840">
        <ele>695.7</ele>
        <time>2022-05-22T08:46:37Z</time>
      </trkpt>
      <trkpt lat="37.9536350" lon="-5.6184890">
        <ele>695.7</ele>
        <time>2022-05-22T08:46:38Z</time>
      </trkpt>
      <trkpt lat="37.9536470" lon="-5.6184900">
        <ele>695.7</ele>
        <time>2022-05-22T08:46:39Z</time>
      </trkpt>
      <trkpt lat="37.9536590" lon="-5.6184870">
        <ele>695.7</ele>
        <time>2022-05-22T08:46:40Z</time>
      </trkpt>
      <trkpt lat="37.9536760" lon="-5.6184830">
        <ele>695.7</ele>
        <time>2022-05-22T08:46:42Z</time>
      </trkpt>
      <trkpt lat="37.9537050" lon="-5.6184740">
        <ele>695.7</ele>
        <time>2022-05-22T08:46:44Z</time>
      </trkpt>
      <trkpt lat="37.9537120" lon="-5.6184720">
        <ele>695.7</ele>
        <time>2022-05-22T08:46:45Z</time>
      </trkpt>
      <trkpt lat="37.9537260" lon="-5.6184680">
        <ele>695.7</ele>
        <time>2022-05-22T08:46:46Z</time>
      </trkpt>
      <trkpt lat="37.9537380" lon="-5.6184610">
        <ele>695.7</ele>
        <time>2022-05-22T08:46:47Z</time>
      </trkpt>
      <trkpt lat="37.9537390" lon="-5.6184510">
        <ele>695.7</ele>
        <time>2022-05-22T08:46:48Z</time>
      </trkpt>
      <trkpt lat="37.9537410" lon="-5.6184440">
        <ele>695.7</ele>
        <time>2022-05-22T08:46:50Z</time>
      </trkpt>
      <trkpt lat="37.9537400" lon="-5.6184440">
        <ele>695.7</ele>
        <time>2022-05-22T08:46:51Z</time>
      </trkpt>
      <trkpt lat="37.9537390" lon="-5.6184460">
        <ele>695.7</ele>
        <time>2022-05-22T08:46:52Z</time>
      </trkpt>
      <trkpt lat="37.9537390" lon="-5.6184470">
        <ele>695.7</ele>
        <time>2022-05-22T08:46:53Z</time>
      </trkpt>
      <trkpt lat="37.9537390" lon="-5.6184480">
        <ele>695.7</ele>
        <time>2022-05-22T08:46:54Z</time>
      </trkpt>
      <trkpt lat="37.9537390" lon="-5.6184500">
        <ele>695.7</ele>
        <time>2022-05-22T08:46:55Z</time>
      </trkpt>
      <trkpt lat="37.9537390" lon="-5.6184510">
        <ele>695.7</ele>
        <time>2022-05-22T08:46:56Z</time>
      </trkpt>
      <trkpt lat="37.9537390" lon="-5.6184520">
        <ele>695.7</ele>
        <time>2022-05-22T08:46:57Z</time>
      </trkpt>
      <trkpt lat="37.9537380" lon="-5.6184520">
        <ele>695.7</ele>
        <time>2022-05-22T08:46:58Z</time>
      </trkpt>
      <trkpt lat="37.9537380" lon="-5.6184530">
        <ele>695.7</ele>
        <time>2022-05-22T08:46:59Z</time>
      </trkpt>
      <trkpt lat="37.9537380" lon="-5.6184540">
        <ele>695.7</ele>
        <time>2022-05-22T08:47:00Z</time>
      </trkpt>
      <trkpt lat="37.9537390" lon="-5.6184550">
        <ele>695.7</ele>
        <time>2022-05-22T08:47:01Z</time>
      </trkpt>
      <trkpt lat="37.9537390" lon="-5.6184560">
        <ele>695.7</ele>
        <time>2022-05-22T08:47:04Z</time>
      </trkpt>
      <trkpt lat="37.9537400" lon="-5.6184580">
        <ele>695.7</ele>
        <time>2022-05-22T08:47:06Z</time>
      </trkpt>
      <trkpt lat="37.9537400" lon="-5.6184580">
        <ele>695.7</ele>
        <time>2022-05-22T08:47:07Z</time>
      </trkpt>
      <trkpt lat="37.9537420" lon="-5.6184530">
        <ele>695.7</ele>
        <time>2022-05-22T08:47:09Z</time>
      </trkpt>
      <trkpt lat="37.9537420" lon="-5.6184520">
        <ele>695.7</ele>
        <time>2022-05-22T08:47:10Z</time>
      </trkpt>
      <trkpt lat="37.9537420" lon="-5.6184510">
        <ele>695.7</ele>
        <time>2022-05-22T08:47:11Z</time>
      </trkpt>
      <trkpt lat="37.9537420" lon="-5.6184510">
        <ele>695.7</ele>
        <time>2022-05-22T08:47:12Z</time>
      </trkpt>
      <trkpt lat="37.9537420" lon="-5.6184510">
        <ele>695.7</ele>
        <time>2022-05-22T08:47:13Z</time>
      </trkpt>
      <trkpt lat="37.9537420" lon="-5.6184510">
        <ele>695.7</ele>
        <time>2022-05-22T08:47:14Z</time>
      </trkpt>
      <trkpt lat="37.9537420" lon="-5.6184510">
        <ele>695.7</ele>
        <time>2022-05-22T08:47:15Z</time>
      </trkpt>
      <trkpt lat="37.9537420" lon="-5.6184500">
        <ele>695.7</ele>
        <time>2022-05-22T08:47:16Z</time>
      </trkpt>
      <trkpt lat="37.9537420" lon="-5.6184500">
        <ele>695.7</ele>
        <time>2022-05-22T08:47:17Z</time>
      </trkpt>
      <trkpt lat="37.9537430" lon="-5.6184510">
        <ele>695.7</ele>
        <time>2022-05-22T08:47:18Z</time>
      </trkpt>
      <trkpt lat="37.9537440" lon="-5.6184760">
        <ele>695.7</ele>
        <time>2022-05-22T08:47:19Z</time>
      </trkpt>
      <trkpt lat="37.9537440" lon="-5.6184920">
        <ele>695.7</ele>
        <time>2022-05-22T08:47:20Z</time>
      </trkpt>
      <trkpt lat="37.9537440" lon="-5.6184950">
        <ele>695.7</ele>
        <time>2022-05-22T08:47:21Z</time>
      </trkpt>
      <trkpt lat="37.9537440" lon="-5.6184960">
        <ele>695.7</ele>
        <time>2022-05-22T08:47:22Z</time>
      </trkpt>
      <trkpt lat="37.9537440" lon="-5.6184970">
        <ele>695.7</ele>
        <time>2022-05-22T08:47:23Z</time>
      </trkpt>
      <trkpt lat="37.9537440" lon="-5.6184970">
        <ele>695.7</ele>
        <time>2022-05-22T08:47:24Z</time>
      </trkpt>
      <trkpt lat="37.9537440" lon="-5.6185000">
        <ele>695.7</ele>
        <time>2022-05-22T08:47:25Z</time>
      </trkpt>
      <trkpt lat="37.9537480" lon="-5.6185100">
        <ele>695.7</ele>
        <time>2022-05-22T08:47:26Z</time>
      </trkpt>
      <trkpt lat="37.9537570" lon="-5.6185140">
        <ele>695.7</ele>
        <time>2022-05-22T08:47:27Z</time>
      </trkpt>
      <trkpt lat="37.9537660" lon="-5.6185160">
        <ele>695.7</ele>
        <time>2022-05-22T08:47:28Z</time>
      </trkpt>
      <trkpt lat="37.9537780" lon="-5.6185150">
        <ele>695.7</ele>
        <time>2022-05-22T08:47:29Z</time>
      </trkpt>
      <trkpt lat="37.9537900" lon="-5.6185150">
        <ele>695.7</ele>
        <time>2022-05-22T08:47:30Z</time>
      </trkpt>
      <trkpt lat="37.9538010" lon="-5.6185140">
        <ele>695.7</ele>
        <time>2022-05-22T08:47:31Z</time>
      </trkpt>
      <trkpt lat="37.9538250" lon="-5.6185110">
        <ele>695.7</ele>
        <time>2022-05-22T08:47:32Z</time>
      </trkpt>
      <trkpt lat="37.9538370" lon="-5.6185100">
        <ele>695.7</ele>
        <time>2022-05-22T08:47:33Z</time>
      </trkpt>
      <trkpt lat="37.9538160" lon="-5.6185100">
        <ele>695.7</ele>
        <time>2022-05-22T08:47:34Z</time>
      </trkpt>
      <trkpt lat="37.9538130" lon="-5.6185140">
        <ele>695.7</ele>
        <time>2022-05-22T08:47:35Z</time>
      </trkpt>
      <trkpt lat="37.9538260" lon="-5.6185150">
        <ele>695.6</ele>
        <time>2022-05-22T08:47:36Z</time>
      </trkpt>
      <trkpt lat="37.9538360" lon="-5.6185180">
        <ele>695.6</ele>
        <time>2022-05-22T08:47:37Z</time>
      </trkpt>
      <trkpt lat="37.9538490" lon="-5.6185240">
        <ele>695.6</ele>
        <time>2022-05-22T08:47:38Z</time>
      </trkpt>
      <trkpt lat="37.9538640" lon="-5.6185250">
        <ele>695.6</ele>
        <time>2022-05-22T08:47:39Z</time>
      </trkpt>
      <trkpt lat="37.9538820" lon="-5.6185230">
        <ele>695.5</ele>
        <time>2022-05-22T08:47:41Z</time>
      </trkpt>
      <trkpt lat="37.9538930" lon="-5.6185230">
        <ele>695.5</ele>
        <time>2022-05-22T08:47:42Z</time>
      </trkpt>
      <trkpt lat="37.9539060" lon="-5.6185230">
        <ele>695.5</ele>
        <time>2022-05-22T08:47:43Z</time>
      </trkpt>
      <trkpt lat="37.9539210" lon="-5.6185260">
        <ele>695.5</ele>
        <time>2022-05-22T08:47:44Z</time>
      </trkpt>
      <trkpt lat="37.9539320" lon="-5.6185310">
        <ele>695.5</ele>
        <time>2022-05-22T08:47:45Z</time>
      </trkpt>
      <trkpt lat="37.9539390" lon="-5.6185400">
        <ele>695.4</ele>
        <time>2022-05-22T08:47:46Z</time>
      </trkpt>
      <trkpt lat="37.9539430" lon="-5.6185480">
        <ele>695.4</ele>
        <time>2022-05-22T08:47:47Z</time>
      </trkpt>
      <trkpt lat="37.9539430" lon="-5.6185590">
        <ele>695.4</ele>
        <time>2022-05-22T08:47:48Z</time>
      </trkpt>
      <trkpt lat="37.9539450" lon="-5.6185690">
        <ele>695.4</ele>
        <time>2022-05-22T08:47:49Z</time>
      </trkpt>
      <trkpt lat="37.9539520" lon="-5.6185810">
        <ele>695.4</ele>
        <time>2022-05-22T08:47:50Z</time>
      </trkpt>
      <trkpt lat="37.9539600" lon="-5.6185890">
        <ele>695.4</ele>
        <time>2022-05-22T08:47:51Z</time>
      </trkpt>
      <trkpt lat="37.9539660" lon="-5.6185960">
        <ele>695.4</ele>
        <time>2022-05-22T08:47:52Z</time>
      </trkpt>
      <trkpt lat="37.9539740" lon="-5.6186020">
        <ele>695.3</ele>
        <time>2022-05-22T08:47:53Z</time>
      </trkpt>
      <trkpt lat="37.9539820" lon="-5.6186080">
        <ele>695.3</ele>
        <time>2022-05-22T08:47:54Z</time>
      </trkpt>
      <trkpt lat="37.9539980" lon="-5.6186130">
        <ele>695.3</ele>
        <time>2022-05-22T08:47:55Z</time>
      </trkpt>
      <trkpt lat="37.9540120" lon="-5.6186200">
        <ele>695.3</ele>
        <time>2022-05-22T08:47:57Z</time>
      </trkpt>
      <trkpt lat="37.9540560" lon="-5.6186090">
        <ele>695.2</ele>
        <time>2022-05-22T08:47:58Z</time>
      </trkpt>
      <trkpt lat="37.9540910" lon="-5.6185950">
        <ele>695.1</ele>
        <time>2022-05-22T08:47:59Z</time>
      </trkpt>
      <trkpt lat="37.9541100" lon="-5.6185870">
        <ele>695.1</ele>
        <time>2022-05-22T08:48:00Z</time>
      </trkpt>
      <trkpt lat="37.9541240" lon="-5.6185830">
        <ele>695.1</ele>
        <time>2022-05-22T08:48:01Z</time>
      </trkpt>
      <trkpt lat="37.9541420" lon="-5.6185700">
        <ele>695.0</ele>
        <time>2022-05-22T08:48:02Z</time>
      </trkpt>
      <trkpt lat="37.9541520" lon="-5.6185650">
        <ele>695.0</ele>
        <time>2022-05-22T08:48:03Z</time>
      </trkpt>
      <trkpt lat="37.9541650" lon="-5.6185620">
        <ele>695.0</ele>
        <time>2022-05-22T08:48:04Z</time>
      </trkpt>
      <trkpt lat="37.9541760" lon="-5.6185620">
        <ele>695.0</ele>
        <time>2022-05-22T08:48:06Z</time>
      </trkpt>
      <trkpt lat="37.9541870" lon="-5.6185630">
        <ele>694.9</ele>
        <time>2022-05-22T08:48:07Z</time>
      </trkpt>
      <trkpt lat="37.9542060" lon="-5.6185630">
        <ele>694.9</ele>
        <time>2022-05-22T08:48:08Z</time>
      </trkpt>
      <trkpt lat="37.9542160" lon="-5.6185620">
        <ele>694.9</ele>
        <time>2022-05-22T08:48:09Z</time>
      </trkpt>
      <trkpt lat="37.9542260" lon="-5.6185600">
        <ele>694.9</ele>
        <time>2022-05-22T08:48:11Z</time>
      </trkpt>
      <trkpt lat="37.9542370" lon="-5.6185590">
        <ele>694.9</ele>
        <time>2022-05-22T08:48:12Z</time>
      </trkpt>
      <trkpt lat="37.9542470" lon="-5.6185570">
        <ele>694.8</ele>
        <time>2022-05-22T08:48:13Z</time>
      </trkpt>
      <trkpt lat="37.9542570" lon="-5.6185560">
        <ele>694.8</ele>
        <time>2022-05-22T08:48:14Z</time>
      </trkpt>
      <trkpt lat="37.9542700" lon="-5.6185520">
        <ele>694.8</ele>
        <time>2022-05-22T08:48:15Z</time>
      </trkpt>
      <trkpt lat="37.9542840" lon="-5.6185460">
        <ele>694.8</ele>
        <time>2022-05-22T08:48:16Z</time>
      </trkpt>
      <trkpt lat="37.9542990" lon="-5.6185390">
        <ele>694.8</ele>
        <time>2022-05-22T08:48:17Z</time>
      </trkpt>
      <trkpt lat="37.9543140" lon="-5.6185320">
        <ele>694.7</ele>
        <time>2022-05-22T08:48:18Z</time>
      </trkpt>
      <trkpt lat="37.9543450" lon="-5.6185200">
        <ele>694.7</ele>
        <time>2022-05-22T08:48:19Z</time>
      </trkpt>
      <trkpt lat="37.9543530" lon="-5.6185190">
        <ele>694.7</ele>
        <time>2022-05-22T08:48:20Z</time>
      </trkpt>
      <trkpt lat="37.9543770" lon="-5.6185270">
        <ele>694.6</ele>
        <time>2022-05-22T08:48:21Z</time>
      </trkpt>
      <trkpt lat="37.9543870" lon="-5.6185340">
        <ele>694.6</ele>
        <time>2022-05-22T08:48:22Z</time>
      </trkpt>
      <trkpt lat="37.9544130" lon="-5.6185560">
        <ele>694.5</ele>
        <time>2022-05-22T08:48:24Z</time>
      </trkpt>
      <trkpt lat="37.9544180" lon="-5.6185600">
        <ele>694.5</ele>
        <time>2022-05-22T08:48:25Z</time>
      </trkpt>
      <trkpt lat="37.9544300" lon="-5.6185680">
        <ele>694.5</ele>
        <time>2022-05-22T08:48:26Z</time>
      </trkpt>
      <trkpt lat="37.9544460" lon="-5.6185700">
        <ele>694.4</ele>
        <time>2022-05-22T08:48:27Z</time>
      </trkpt>
      <trkpt lat="37.9544670" lon="-5.6185650">
        <ele>694.4</ele>
        <time>2022-05-22T08:48:28Z</time>
      </trkpt>
      <trkpt lat="37.9544920" lon="-5.6185570">
        <ele>694.3</ele>
        <time>2022-05-22T08:48:30Z</time>
      </trkpt>
      <trkpt lat="37.9545050" lon="-5.6185530">
        <ele>694.2</ele>
        <time>2022-05-22T08:48:31Z</time>
      </trkpt>
      <trkpt lat="37.9545200" lon="-5.6185460">
        <ele>694.1</ele>
        <time>2022-05-22T08:48:32Z</time>
      </trkpt>
      <trkpt lat="37.9545350" lon="-5.6185400">
        <ele>694.0</ele>
        <time>2022-05-22T08:48:33Z</time>
      </trkpt>
      <trkpt lat="37.9545470" lon="-5.6185390">
        <ele>694.0</ele>
        <time>2022-05-22T08:48:34Z</time>
      </trkpt>
      <trkpt lat="37.9545650" lon="-5.6185510">
        <ele>693.9</ele>
        <time>2022-05-22T08:48:35Z</time>
      </trkpt>
      <trkpt lat="37.9545740" lon="-5.6185580">
        <ele>693.8</ele>
        <time>2022-05-22T08:48:36Z</time>
      </trkpt>
      <trkpt lat="37.9545820" lon="-5.6185640">
        <ele>693.7</ele>
        <time>2022-05-22T08:48:37Z</time>
      </trkpt>
      <trkpt lat="37.9546050" lon="-5.6185610">
        <ele>693.6</ele>
        <time>2022-05-22T08:48:38Z</time>
      </trkpt>
      <trkpt lat="37.9546130" lon="-5.6185600">
        <ele>693.5</ele>
        <time>2022-05-22T08:48:39Z</time>
      </trkpt>
      <trkpt lat="37.9546210" lon="-5.6185580">
        <ele>693.5</ele>
        <time>2022-05-22T08:48:40Z</time>
      </trkpt>
      <trkpt lat="37.9546500" lon="-5.6185600">
        <ele>693.3</ele>
        <time>2022-05-22T08:48:41Z</time>
      </trkpt>
      <trkpt lat="37.9546580" lon="-5.6185680">
        <ele>693.2</ele>
        <time>2022-05-22T08:48:43Z</time>
      </trkpt>
      <trkpt lat="37.9546670" lon="-5.6185770">
        <ele>693.1</ele>
        <time>2022-05-22T08:48:44Z</time>
      </trkpt>
      <trkpt lat="37.9546750" lon="-5.6185860">
        <ele>693.1</ele>
        <time>2022-05-22T08:48:46Z</time>
      </trkpt>
      <trkpt lat="37.9546840" lon="-5.6185940">
        <ele>693.0</ele>
        <time>2022-05-22T08:48:47Z</time>
      </trkpt>
      <trkpt lat="37.9546930" lon="-5.6186120">
        <ele>692.9</ele>
        <time>2022-05-22T08:48:48Z</time>
      </trkpt>
      <trkpt lat="37.9546970" lon="-5.6186230">
        <ele>692.8</ele>
        <time>2022-05-22T08:48:49Z</time>
      </trkpt>
      <trkpt lat="37.9547010" lon="-5.6186340">
        <ele>692.7</ele>
        <time>2022-05-22T08:48:50Z</time>
      </trkpt>
      <trkpt lat="37.9547130" lon="-5.6186540">
        <ele>692.6</ele>
        <time>2022-05-22T08:48:51Z</time>
      </trkpt>
      <trkpt lat="37.9547190" lon="-5.6186650">
        <ele>692.5</ele>
        <time>2022-05-22T08:48:52Z</time>
      </trkpt>
      <trkpt lat="37.9547200" lon="-5.6186700">
        <ele>692.4</ele>
        <time>2022-05-22T08:48:53Z</time>
      </trkpt>
      <trkpt lat="37.9547140" lon="-5.6186680">
        <ele>692.4</ele>
        <time>2022-05-22T08:48:55Z</time>
      </trkpt>
      <trkpt lat="37.9547090" lon="-5.6186640">
        <ele>692.3</ele>
        <time>2022-05-22T08:48:56Z</time>
      </trkpt>
      <trkpt lat="37.9547020" lon="-5.6186590">
        <ele>692.3</ele>
        <time>2022-05-22T08:48:57Z</time>
      </trkpt>
      <trkpt lat="37.9546980" lon="-5.6186560">
        <ele>692.2</ele>
        <time>2022-05-22T08:48:58Z</time>
      </trkpt>
      <trkpt lat="37.9546880" lon="-5.6186360">
        <ele>692.1</ele>
        <time>2022-05-22T08:49:00Z</time>
      </trkpt>
      <trkpt lat="37.9546860" lon="-5.6186310">
        <ele>692.0</ele>
        <time>2022-05-22T08:49:01Z</time>
      </trkpt>
      <trkpt lat="37.9546850" lon="-5.6186270">
        <ele>692.0</ele>
        <time>2022-05-22T08:49:02Z</time>
      </trkpt>
      <trkpt lat="37.9546840" lon="-5.6186240">
        <ele>692.0</ele>
        <time>2022-05-22T08:49:03Z</time>
      </trkpt>
      <trkpt lat="37.9546820" lon="-5.6186220">
        <ele>692.0</ele>
        <time>2022-05-22T08:49:04Z</time>
      </trkpt>
      <trkpt lat="37.9546810" lon="-5.6186190">
        <ele>691.9</ele>
        <time>2022-05-22T08:49:05Z</time>
      </trkpt>
      <trkpt lat="37.9546800" lon="-5.6186170">
        <ele>691.9</ele>
        <time>2022-05-22T08:49:06Z</time>
      </trkpt>
      <trkpt lat="37.9546760" lon="-5.6186160">
        <ele>691.9</ele>
        <time>2022-05-22T08:49:07Z</time>
      </trkpt>
      <trkpt lat="37.9546690" lon="-5.6186140">
        <ele>691.8</ele>
        <time>2022-05-22T08:49:09Z</time>
      </trkpt>
      <trkpt lat="37.9546620" lon="-5.6186130">
        <ele>691.8</ele>
        <time>2022-05-22T08:49:10Z</time>
      </trkpt>
      <trkpt lat="37.9546540" lon="-5.6186110">
        <ele>691.7</ele>
        <time>2022-05-22T08:49:11Z</time>
      </trkpt>
      <trkpt lat="37.9546460" lon="-5.6186070">
        <ele>691.6</ele>
        <time>2022-05-22T08:49:12Z</time>
      </trkpt>
      <trkpt lat="37.9546400" lon="-5.6186060">
        <ele>691.6</ele>
        <time>2022-05-22T08:49:13Z</time>
      </trkpt>
      <trkpt lat="37.9546330" lon="-5.6186050">
        <ele>691.5</ele>
        <time>2022-05-22T08:49:14Z</time>
      </trkpt>
      <trkpt lat="37.9546190" lon="-5.6186030">
        <ele>691.4</ele>
        <time>2022-05-22T08:49:15Z</time>
      </trkpt>
      <trkpt lat="37.9546110" lon="-5.6186030">
        <ele>691.3</ele>
        <time>2022-05-22T08:49:17Z</time>
      </trkpt>
      <trkpt lat="37.9546040" lon="-5.6186030">
        <ele>691.3</ele>
        <time>2022-05-22T08:49:18Z</time>
      </trkpt>
      <trkpt lat="37.9545970" lon="-5.6186040">
        <ele>691.2</ele>
        <time>2022-05-22T08:49:19Z</time>
      </trkpt>
      <trkpt lat="37.9545860" lon="-5.6186030">
        <ele>691.1</ele>
        <time>2022-05-22T08:49:20Z</time>
      </trkpt>
      <trkpt lat="37.9545760" lon="-5.6186010">
        <ele>691.0</ele>
        <time>2022-05-22T08:49:21Z</time>
      </trkpt>
      <trkpt lat="37.9545560" lon="-5.6185990">
        <ele>690.8</ele>
        <time>2022-05-22T08:49:23Z</time>
      </trkpt>
      <trkpt lat="37.9545500" lon="-5.6186030">
        <ele>690.8</ele>
        <time>2022-05-22T08:49:24Z</time>
      </trkpt>
      <trkpt lat="37.9545430" lon="-5.6186110">
        <ele>690.7</ele>
        <time>2022-05-22T08:49:25Z</time>
      </trkpt>
      <trkpt lat="37.9545380" lon="-5.6186230">
        <ele>690.6</ele>
        <time>2022-05-22T08:49:26Z</time>
      </trkpt>
      <trkpt lat="37.9545340" lon="-5.6186310">
        <ele>690.6</ele>
        <time>2022-05-22T08:49:27Z</time>
      </trkpt>
      <trkpt lat="37.9545300" lon="-5.6186420">
        <ele>690.5</ele>
        <time>2022-05-22T08:49:28Z</time>
      </trkpt>
      <trkpt lat="37.9545330" lon="-5.6186440">
        <ele>690.5</ele>
        <time>2022-05-22T08:49:29Z</time>
      </trkpt>
      <trkpt lat="37.9545340" lon="-5.6186450">
        <ele>690.5</ele>
        <time>2022-05-22T08:49:30Z</time>
      </trkpt>
      <trkpt lat="37.9545380" lon="-5.6186460">
        <ele>690.5</ele>
        <time>2022-05-22T08:49:31Z</time>
      </trkpt>
      <trkpt lat="37.9545410" lon="-5.6186500">
        <ele>690.4</ele>
        <time>2022-05-22T08:49:33Z</time>
      </trkpt>
      <trkpt lat="37.9545460" lon="-5.6186560">
        <ele>690.4</ele>
        <time>2022-05-22T08:49:34Z</time>
      </trkpt>
      <trkpt lat="37.9545510" lon="-5.6186610">
        <ele>690.3</ele>
        <time>2022-05-22T08:49:35Z</time>
      </trkpt>
      <trkpt lat="37.9545570" lon="-5.6186680">
        <ele>690.3</ele>
        <time>2022-05-22T08:49:36Z</time>
      </trkpt>
      <trkpt lat="37.9545670" lon="-5.6186780">
        <ele>690.2</ele>
        <time>2022-05-22T08:49:37Z</time>
      </trkpt>
      <trkpt lat="37.9545780" lon="-5.6186910">
        <ele>690.1</ele>
        <time>2022-05-22T08:49:39Z</time>
      </trkpt>
      <trkpt lat="37.9545920" lon="-5.6187080">
        <ele>690.0</ele>
        <time>2022-05-22T08:49:40Z</time>
      </trkpt>
      <trkpt lat="37.9545980" lon="-5.6187160">
        <ele>689.9</ele>
        <time>2022-05-22T08:49:41Z</time>
      </trkpt>
      <trkpt lat="37.9546040" lon="-5.6187240">
        <ele>689.9</ele>
        <time>2022-05-22T08:49:42Z</time>
      </trkpt>
      <trkpt lat="37.9546140" lon="-5.6187380">
        <ele>689.8</ele>
        <time>2022-05-22T08:49:43Z</time>
      </trkpt>
      <trkpt lat="37.9546260" lon="-5.6187520">
        <ele>689.7</ele>
        <time>2022-05-22T08:49:44Z</time>
      </trkpt>
      <trkpt lat="37.9546510" lon="-5.6187790">
        <ele>689.6</ele>
        <time>2022-05-22T08:49:45Z</time>
      </trkpt>
      <trkpt lat="37.9546600" lon="-5.6187860">
        <ele>689.5</ele>
        <time>2022-05-22T08:49:46Z</time>
      </trkpt>
      <trkpt lat="37.9546720" lon="-5.6187950">
        <ele>689.4</ele>
        <time>2022-05-22T08:49:47Z</time>
      </trkpt>
      <trkpt lat="37.9546840" lon="-5.6188060">
        <ele>689.4</ele>
        <time>2022-05-22T08:49:48Z</time>
      </trkpt>
      <trkpt lat="37.9547080" lon="-5.6188270">
        <ele>689.2</ele>
        <time>2022-05-22T08:49:50Z</time>
      </trkpt>
      <trkpt lat="37.9547170" lon="-5.6188360">
        <ele>689.1</ele>
        <time>2022-05-22T08:49:51Z</time>
      </trkpt>
      <trkpt lat="37.9547300" lon="-5.6188450">
        <ele>689.1</ele>
        <time>2022-05-22T08:49:52Z</time>
      </trkpt>
      <trkpt lat="37.9547420" lon="-5.6188570">
        <ele>689.0</ele>
        <time>2022-05-22T08:49:53Z</time>
      </trkpt>
      <trkpt lat="37.9547530" lon="-5.6188680">
        <ele>688.9</ele>
        <time>2022-05-22T08:49:54Z</time>
      </trkpt>
      <trkpt lat="37.9547640" lon="-5.6188790">
        <ele>688.8</ele>
        <time>2022-05-22T08:49:55Z</time>
      </trkpt>
      <trkpt lat="37.9547820" lon="-5.6188910">
        <ele>688.7</ele>
        <time>2022-05-22T08:49:56Z</time>
      </trkpt>
      <trkpt lat="37.9547940" lon="-5.6188950">
        <ele>688.7</ele>
        <time>2022-05-22T08:49:57Z</time>
      </trkpt>
      <trkpt lat="37.9548130" lon="-5.6189080">
        <ele>688.6</ele>
        <time>2022-05-22T08:49:58Z</time>
      </trkpt>
      <trkpt lat="37.9548200" lon="-5.6189140">
        <ele>688.5</ele>
        <time>2022-05-22T08:49:59Z</time>
      </trkpt>
      <trkpt lat="37.9548270" lon="-5.6189200">
        <ele>688.5</ele>
        <time>2022-05-22T08:50:00Z</time>
      </trkpt>
      <trkpt lat="37.9548350" lon="-5.6189270">
        <ele>688.4</ele>
        <time>2022-05-22T08:50:01Z</time>
      </trkpt>
      <trkpt lat="37.9548480" lon="-5.6189330">
        <ele>688.3</ele>
        <time>2022-05-22T08:50:02Z</time>
      </trkpt>
      <trkpt lat="37.9548640" lon="-5.6189250">
        <ele>688.2</ele>
        <time>2022-05-22T08:50:04Z</time>
      </trkpt>
      <trkpt lat="37.9548700" lon="-5.6189170">
        <ele>688.2</ele>
        <time>2022-05-22T08:50:05Z</time>
      </trkpt>
      <trkpt lat="37.9548760" lon="-5.6189100">
        <ele>688.1</ele>
        <time>2022-05-22T08:50:06Z</time>
      </trkpt>
      <trkpt lat="37.9548830" lon="-5.6189060">
        <ele>688.1</ele>
        <time>2022-05-22T08:50:07Z</time>
      </trkpt>
      <trkpt lat="37.9548930" lon="-5.6189070">
        <ele>688.0</ele>
        <time>2022-05-22T08:50:08Z</time>
      </trkpt>
      <trkpt lat="37.9549040" lon="-5.6189050">
        <ele>688.0</ele>
        <time>2022-05-22T08:50:09Z</time>
      </trkpt>
      <trkpt lat="37.9549140" lon="-5.6189050">
        <ele>687.9</ele>
        <time>2022-05-22T08:50:10Z</time>
      </trkpt>
      <trkpt lat="37.9549270" lon="-5.6189070">
        <ele>687.8</ele>
        <time>2022-05-22T08:50:11Z</time>
      </trkpt>
      <trkpt lat="37.9549440" lon="-5.6189180">
        <ele>687.7</ele>
        <time>2022-05-22T08:50:12Z</time>
      </trkpt>
      <trkpt lat="37.9549660" lon="-5.6189370">
        <ele>687.6</ele>
        <time>2022-05-22T08:50:14Z</time>
      </trkpt>
      <trkpt lat="37.9549750" lon="-5.6189440">
        <ele>687.5</ele>
        <time>2022-05-22T08:50:15Z</time>
      </trkpt>
      <trkpt lat="37.9549850" lon="-5.6189540">
        <ele>687.5</ele>
        <time>2022-05-22T08:50:16Z</time>
      </trkpt>
      <trkpt lat="37.9549950" lon="-5.6189630">
        <ele>687.4</ele>
        <time>2022-05-22T08:50:17Z</time>
      </trkpt>
      <trkpt lat="37.9550130" lon="-5.6189820">
        <ele>687.3</ele>
        <time>2022-05-22T08:50:19Z</time>
      </trkpt>
      <trkpt lat="37.9550220" lon="-5.6189920">
        <ele>687.3</ele>
        <time>2022-05-22T08:50:20Z</time>
      </trkpt>
      <trkpt lat="37.9550370" lon="-5.6190080">
        <ele>687.2</ele>
        <time>2022-05-22T08:50:21Z</time>
      </trkpt>
      <trkpt lat="37.9550440" lon="-5.6190150">
        <ele>687.1</ele>
        <time>2022-05-22T08:50:22Z</time>
      </trkpt>
      <trkpt lat="37.9550500" lon="-5.6190210">
        <ele>687.1</ele>
        <time>2022-05-22T08:50:23Z</time>
      </trkpt>
      <trkpt lat="37.9550760" lon="-5.6190450">
        <ele>687.0</ele>
        <time>2022-05-22T08:50:24Z</time>
      </trkpt>
      <trkpt lat="37.9550820" lon="-5.6190490">
        <ele>686.9</ele>
        <time>2022-05-22T08:50:25Z</time>
      </trkpt>
      <trkpt lat="37.9550940" lon="-5.6190520">
        <ele>686.9</ele>
        <time>2022-05-22T08:50:26Z</time>
      </trkpt>
      <trkpt lat="37.9551090" lon="-5.6190540">
        <ele>686.9</ele>
        <time>2022-05-22T08:50:27Z</time>
      </trkpt>
      <trkpt lat="37.9551240" lon="-5.6190530">
        <ele>686.8</ele>
        <time>2022-05-22T08:50:28Z</time>
      </trkpt>
      <trkpt lat="37.9551390" lon="-5.6190540">
        <ele>686.8</ele>
        <time>2022-05-22T08:50:29Z</time>
      </trkpt>
      <trkpt lat="37.9551540" lon="-5.6190600">
        <ele>686.8</ele>
        <time>2022-05-22T08:50:30Z</time>
      </trkpt>
      <trkpt lat="37.9551660" lon="-5.6190650">
        <ele>686.8</ele>
        <time>2022-05-22T08:50:32Z</time>
      </trkpt>
      <trkpt lat="37.9551780" lon="-5.6190690">
        <ele>686.8</ele>
        <time>2022-05-22T08:50:33Z</time>
      </trkpt>
      <trkpt lat="37.9551900" lon="-5.6190740">
        <ele>686.8</ele>
        <time>2022-05-22T08:50:34Z</time>
      </trkpt>
      <trkpt lat="37.9552010" lon="-5.6190680">
        <ele>686.8</ele>
        <time>2022-05-22T08:50:35Z</time>
      </trkpt>
      <trkpt lat="37.9552110" lon="-5.6190600">
        <ele>686.8</ele>
        <time>2022-05-22T08:50:36Z</time>
      </trkpt>
      <trkpt lat="37.9552180" lon="-5.6190580">
        <ele>686.8</ele>
        <time>2022-05-22T08:50:37Z</time>
      </trkpt>
      <trkpt lat="37.9552250" lon="-5.6190580">
        <ele>686.8</ele>
        <time>2022-05-22T08:50:38Z</time>
      </trkpt>
      <trkpt lat="37.9552320" lon="-5.6190600">
        <ele>686.8</ele>
        <time>2022-05-22T08:50:39Z</time>
      </trkpt>
      <trkpt lat="37.9552400" lon="-5.6190650">
        <ele>686.8</ele>
        <time>2022-05-22T08:50:40Z</time>
      </trkpt>
      <trkpt lat="37.9552470" lon="-5.6190680">
        <ele>686.8</ele>
        <time>2022-05-22T08:50:41Z</time>
      </trkpt>
      <trkpt lat="37.9552580" lon="-5.6190730">
        <ele>686.9</ele>
        <time>2022-05-22T08:50:42Z</time>
      </trkpt>
      <trkpt lat="37.9552660" lon="-5.6190740">
        <ele>686.9</ele>
        <time>2022-05-22T08:50:43Z</time>
      </trkpt>
      <trkpt lat="37.9552740" lon="-5.6190780">
        <ele>686.9</ele>
        <time>2022-05-22T08:50:44Z</time>
      </trkpt>
      <trkpt lat="37.9552870" lon="-5.6190930">
        <ele>687.0</ele>
        <time>2022-05-22T08:50:45Z</time>
      </trkpt>
      <trkpt lat="37.9553090" lon="-5.6191270">
        <ele>687.1</ele>
        <time>2022-05-22T08:50:47Z</time>
      </trkpt>
      <trkpt lat="37.9553140" lon="-5.6191400">
        <ele>687.1</ele>
        <time>2022-05-22T08:50:48Z</time>
      </trkpt>
      <trkpt lat="37.9553200" lon="-5.6191470">
        <ele>687.2</ele>
        <time>2022-05-22T08:50:49Z</time>
      </trkpt>
      <trkpt lat="37.9553250" lon="-5.6191510">
        <ele>687.2</ele>
        <time>2022-05-22T08:50:50Z</time>
      </trkpt>
      <trkpt lat="37.9553310" lon="-5.6191560">
        <ele>687.2</ele>
        <time>2022-05-22T08:50:51Z</time>
      </trkpt>
      <trkpt lat="37.9553370" lon="-5.6191570">
        <ele>687.2</ele>
        <time>2022-05-22T08:50:52Z</time>
      </trkpt>
      <trkpt lat="37.9553450" lon="-5.6191590">
        <ele>687.3</ele>
        <time>2022-05-22T08:50:53Z</time>
      </trkpt>
      <trkpt lat="37.9553550" lon="-5.6191610">
        <ele>687.3</ele>
        <time>2022-05-22T08:50:54Z</time>
      </trkpt>
      <trkpt lat="37.9553680" lon="-5.6191620">
        <ele>687.4</ele>
        <time>2022-05-22T08:50:56Z</time>
      </trkpt>
      <trkpt lat="37.9553750" lon="-5.6191620">
        <ele>687.4</ele>
        <time>2022-05-22T08:50:57Z</time>
      </trkpt>
      <trkpt lat="37.9553800" lon="-5.6191600">
        <ele>687.4</ele>
        <time>2022-05-22T08:50:58Z</time>
      </trkpt>
      <trkpt lat="37.9553850" lon="-5.6191520">
        <ele>687.5</ele>
        <time>2022-05-22T08:50:59Z</time>
      </trkpt>
      <trkpt lat="37.9553870" lon="-5.6191460">
        <ele>687.5</ele>
        <time>2022-05-22T08:51:00Z</time>
      </trkpt>
      <trkpt lat="37.9553880" lon="-5.6191400">
        <ele>687.5</ele>
        <time>2022-05-22T08:51:01Z</time>
      </trkpt>
      <trkpt lat="37.9553900" lon="-5.6191330">
        <ele>687.5</ele>
        <time>2022-05-22T08:51:02Z</time>
      </trkpt>
      <trkpt lat="37.9553970" lon="-5.6191310">
        <ele>687.6</ele>
        <time>2022-05-22T08:51:03Z</time>
      </trkpt>
      <trkpt lat="37.9554030" lon="-5.6191330">
        <ele>687.6</ele>
        <time>2022-05-22T08:51:04Z</time>
      </trkpt>
      <trkpt lat="37.9554100" lon="-5.6191390">
        <ele>687.6</ele>
        <time>2022-05-22T08:51:06Z</time>
      </trkpt>
      <trkpt lat="37.9554150" lon="-5.6191390">
        <ele>687.6</ele>
        <time>2022-05-22T08:51:07Z</time>
      </trkpt>
      <trkpt lat="37.9554200" lon="-5.6191360">
        <ele>687.7</ele>
        <time>2022-05-22T08:51:08Z</time>
      </trkpt>
      <trkpt lat="37.9554240" lon="-5.6191340">
        <ele>687.7</ele>
        <time>2022-05-22T08:51:09Z</time>
      </trkpt>
      <trkpt lat="37.9554270" lon="-5.6191350">
        <ele>687.7</ele>
        <time>2022-05-22T08:51:10Z</time>
      </trkpt>
      <trkpt lat="37.9554310" lon="-5.6191330">
        <ele>687.7</ele>
        <time>2022-05-22T08:51:11Z</time>
      </trkpt>
      <trkpt lat="37.9554350" lon="-5.6191320">
        <ele>687.7</ele>
        <time>2022-05-22T08:51:12Z</time>
      </trkpt>
      <trkpt lat="37.9554410" lon="-5.6191310">
        <ele>687.8</ele>
        <time>2022-05-22T08:51:13Z</time>
      </trkpt>
      <trkpt lat="37.9554490" lon="-5.6191280">
        <ele>687.8</ele>
        <time>2022-05-22T08:51:14Z</time>
      </trkpt>
      <trkpt lat="37.9554550" lon="-5.6191280">
        <ele>687.8</ele>
        <time>2022-05-22T08:51:15Z</time>
      </trkpt>
      <trkpt lat="37.9554610" lon="-5.6191290">
        <ele>687.8</ele>
        <time>2022-05-22T08:51:16Z</time>
      </trkpt>
      <trkpt lat="37.9554640" lon="-5.6191290">
        <ele>687.8</ele>
        <time>2022-05-22T08:51:18Z</time>
      </trkpt>
      <trkpt lat="37.9554650" lon="-5.6191300">
        <ele>687.9</ele>
        <time>2022-05-22T08:51:19Z</time>
      </trkpt>
      <trkpt lat="37.9554670" lon="-5.6191300">
        <ele>687.9</ele>
        <time>2022-05-22T08:51:20Z</time>
      </trkpt>
      <trkpt lat="37.9554680" lon="-5.6191280">
        <ele>687.9</ele>
        <time>2022-05-22T08:51:21Z</time>
      </trkpt>
      <trkpt lat="37.9554710" lon="-5.6191270">
        <ele>687.9</ele>
        <time>2022-05-22T08:51:22Z</time>
      </trkpt>
      <trkpt lat="37.9554720" lon="-5.6191270">
        <ele>687.9</ele>
        <time>2022-05-22T08:51:24Z</time>
      </trkpt>
      <trkpt lat="37.9554730" lon="-5.6191260">
        <ele>687.9</ele>
        <time>2022-05-22T08:51:25Z</time>
      </trkpt>
      <trkpt lat="37.9554760" lon="-5.6191240">
        <ele>687.9</ele>
        <time>2022-05-22T08:51:26Z</time>
      </trkpt>
      <trkpt lat="37.9554850" lon="-5.6191210">
        <ele>687.9</ele>
        <time>2022-05-22T08:51:27Z</time>
      </trkpt>
      <trkpt lat="37.9554900" lon="-5.6191210">
        <ele>688.0</ele>
        <time>2022-05-22T08:51:28Z</time>
      </trkpt>
      <trkpt lat="37.9554950" lon="-5.6191210">
        <ele>688.0</ele>
        <time>2022-05-22T08:51:29Z</time>
      </trkpt>
      <trkpt lat="37.9555000" lon="-5.6191210">
        <ele>688.0</ele>
        <time>2022-05-22T08:51:30Z</time>
      </trkpt>
      <trkpt lat="37.9555050" lon="-5.6191200">
        <ele>688.0</ele>
        <time>2022-05-22T08:51:31Z</time>
      </trkpt>
      <trkpt lat="37.9555100" lon="-5.6191200">
        <ele>688.0</ele>
        <time>2022-05-22T08:51:32Z</time>
      </trkpt>
      <trkpt lat="37.9555150" lon="-5.6191200">
        <ele>688.0</ele>
        <time>2022-05-22T08:51:34Z</time>
      </trkpt>
      <trkpt lat="37.9555210" lon="-5.6191200">
        <ele>688.0</ele>
        <time>2022-05-22T08:51:35Z</time>
      </trkpt>
      <trkpt lat="37.9555260" lon="-5.6191190">
        <ele>688.0</ele>
        <time>2022-05-22T08:51:36Z</time>
      </trkpt>
      <trkpt lat="37.9555310" lon="-5.6191190">
        <ele>688.1</ele>
        <time>2022-05-22T08:51:37Z</time>
      </trkpt>
      <trkpt lat="37.9555360" lon="-5.6191190">
        <ele>688.1</ele>
        <time>2022-05-22T08:51:38Z</time>
      </trkpt>
      <trkpt lat="37.9555410" lon="-5.6191180">
        <ele>688.1</ele>
        <time>2022-05-22T08:51:39Z</time>
      </trkpt>
      <trkpt lat="37.9555530" lon="-5.6191100">
        <ele>688.1</ele>
        <time>2022-05-22T08:51:40Z</time>
      </trkpt>
      <trkpt lat="37.9555600" lon="-5.6191060">
        <ele>688.1</ele>
        <time>2022-05-22T08:51:41Z</time>
      </trkpt>
      <trkpt lat="37.9555700" lon="-5.6191040">
        <ele>688.1</ele>
        <time>2022-05-22T08:51:42Z</time>
      </trkpt>
      <trkpt lat="37.9555970" lon="-5.6191020">
        <ele>688.2</ele>
        <time>2022-05-22T08:51:43Z</time>
      </trkpt>
      <trkpt lat="37.9556110" lon="-5.6191010">
        <ele>688.2</ele>
        <time>2022-05-22T08:51:44Z</time>
      </trkpt>
      <trkpt lat="37.9556580" lon="-5.6191010">
        <ele>688.2</ele>
        <time>2022-05-22T08:51:46Z</time>
      </trkpt>
      <trkpt lat="37.9556730" lon="-5.6191070">
        <ele>688.2</ele>
        <time>2022-05-22T08:51:47Z</time>
      </trkpt>
      <trkpt lat="37.9556890" lon="-5.6191130">
        <ele>688.2</ele>
        <time>2022-05-22T08:51:48Z</time>
      </trkpt>
      <trkpt lat="37.9557170" lon="-5.6191320">
        <ele>688.2</ele>
        <time>2022-05-22T08:51:49Z</time>
      </trkpt>
      <trkpt lat="37.9557260" lon="-5.6191390">
        <ele>688.2</ele>
        <time>2022-05-22T08:51:50Z</time>
      </trkpt>
      <trkpt lat="37.9557550" lon="-5.6191610">
        <ele>688.2</ele>
        <time>2022-05-22T08:51:51Z</time>
      </trkpt>
      <trkpt lat="37.9557620" lon="-5.6191670">
        <ele>688.2</ele>
        <time>2022-05-22T08:51:52Z</time>
      </trkpt>
      <trkpt lat="37.9557740" lon="-5.6191760">
        <ele>688.2</ele>
        <time>2022-05-22T08:51:53Z</time>
      </trkpt>
      <trkpt lat="37.9557880" lon="-5.6191850">
        <ele>688.2</ele>
        <time>2022-05-22T08:51:54Z</time>
      </trkpt>
      <trkpt lat="37.9558040" lon="-5.6191950">
        <ele>688.3</ele>
        <time>2022-05-22T08:51:55Z</time>
      </trkpt>
      <trkpt lat="37.9558180" lon="-5.6192040">
        <ele>688.3</ele>
        <time>2022-05-22T08:51:56Z</time>
      </trkpt>
      <trkpt lat="37.9558450" lon="-5.6192160">
        <ele>688.3</ele>
        <time>2022-05-22T08:51:57Z</time>
      </trkpt>
      <trkpt lat="37.9558580" lon="-5.6192210">
        <ele>688.2</ele>
        <time>2022-05-22T08:51:58Z</time>
      </trkpt>
      <trkpt lat="37.9558900" lon="-5.6192350">
        <ele>688.2</ele>
        <time>2022-05-22T08:51:59Z</time>
      </trkpt>
      <trkpt lat="37.9559000" lon="-5.6192400">
        <ele>688.2</ele>
        <time>2022-05-22T08:52:00Z</time>
      </trkpt>
      <trkpt lat="37.9559240" lon="-5.6192530">
        <ele>688.2</ele>
        <time>2022-05-22T08:52:01Z</time>
      </trkpt>
      <trkpt lat="37.9559330" lon="-5.6192580">
        <ele>688.1</ele>
        <time>2022-05-22T08:52:02Z</time>
      </trkpt>
      <trkpt lat="37.9559480" lon="-5.6192700">
        <ele>688.1</ele>
        <time>2022-05-22T08:52:03Z</time>
      </trkpt>
      <trkpt lat="37.9559590" lon="-5.6192840">
        <ele>688.1</ele>
        <time>2022-05-22T08:52:04Z</time>
      </trkpt>
      <trkpt lat="37.9559680" lon="-5.6192980">
        <ele>688.0</ele>
        <time>2022-05-22T08:52:05Z</time>
      </trkpt>
      <trkpt lat="37.9559760" lon="-5.6193110">
        <ele>688.0</ele>
        <time>2022-05-22T08:52:06Z</time>
      </trkpt>
      <trkpt lat="37.9559900" lon="-5.6193350">
        <ele>687.9</ele>
        <time>2022-05-22T08:52:08Z</time>
      </trkpt>
      <trkpt lat="37.9559930" lon="-5.6193430">
        <ele>687.9</ele>
        <time>2022-05-22T08:52:09Z</time>
      </trkpt>
      <trkpt lat="37.9559960" lon="-5.6193520">
        <ele>687.9</ele>
        <time>2022-05-22T08:52:10Z</time>
      </trkpt>
      <trkpt lat="37.9559990" lon="-5.6193650">
        <ele>687.9</ele>
        <time>2022-05-22T08:52:11Z</time>
      </trkpt>
      <trkpt lat="37.9560000" lon="-5.6193800">
        <ele>687.8</ele>
        <time>2022-05-22T08:52:12Z</time>
      </trkpt>
      <trkpt lat="37.9559960" lon="-5.6194040">
        <ele>687.8</ele>
        <time>2022-05-22T08:52:14Z</time>
      </trkpt>
      <trkpt lat="37.9559860" lon="-5.6194190">
        <ele>687.7</ele>
        <time>2022-05-22T08:52:15Z</time>
      </trkpt>
      <trkpt lat="37.9559760" lon="-5.6194340">
        <ele>687.7</ele>
        <time>2022-05-22T08:52:16Z</time>
      </trkpt>
      <trkpt lat="37.9559630" lon="-5.6194500">
        <ele>687.7</ele>
        <time>2022-05-22T08:52:17Z</time>
      </trkpt>
      <trkpt lat="37.9559550" lon="-5.6194570">
        <ele>687.6</ele>
        <time>2022-05-22T08:52:18Z</time>
      </trkpt>
      <trkpt lat="37.9559470" lon="-5.6194640">
        <ele>687.6</ele>
        <time>2022-05-22T08:52:19Z</time>
      </trkpt>
      <trkpt lat="37.9559340" lon="-5.6194710">
        <ele>687.6</ele>
        <time>2022-05-22T08:52:20Z</time>
      </trkpt>
      <trkpt lat="37.9558980" lon="-5.6194860">
        <ele>687.5</ele>
        <time>2022-05-22T08:52:22Z</time>
      </trkpt>
      <trkpt lat="37.9558820" lon="-5.6194890">
        <ele>687.5</ele>
        <time>2022-05-22T08:52:23Z</time>
      </trkpt>
      <trkpt lat="37.9558380" lon="-5.6195010">
        <ele>687.3</ele>
        <time>2022-05-22T08:52:25Z</time>
      </trkpt>
      <trkpt lat="37.9558210" lon="-5.6195100">
        <ele>687.3</ele>
        <time>2022-05-22T08:52:27Z</time>
      </trkpt>
      <trkpt lat="37.9558090" lon="-5.6195170">
        <ele>687.3</ele>
        <time>2022-05-22T08:52:28Z</time>
      </trkpt>
      <trkpt lat="37.9558010" lon="-5.6195230">
        <ele>687.3</ele>
        <time>2022-05-22T08:52:29Z</time>
      </trkpt>
      <trkpt lat="37.9557920" lon="-5.6195330">
        <ele>687.2</ele>
        <time>2022-05-22T08:52:30Z</time>
      </trkpt>
      <trkpt lat="37.9557750" lon="-5.6195500">
        <ele>687.2</ele>
        <time>2022-05-22T08:52:31Z</time>
      </trkpt>
      <trkpt lat="37.9557670" lon="-5.6195570">
        <ele>687.1</ele>
        <time>2022-05-22T08:52:32Z</time>
      </trkpt>
      <trkpt lat="37.9557600" lon="-5.6195650">
        <ele>687.1</ele>
        <time>2022-05-22T08:52:33Z</time>
      </trkpt>
      <trkpt lat="37.9557520" lon="-5.6195740">
        <ele>687.1</ele>
        <time>2022-05-22T08:52:34Z</time>
      </trkpt>
      <trkpt lat="37.9557440" lon="-5.6195830">
        <ele>687.0</ele>
        <time>2022-05-22T08:52:35Z</time>
      </trkpt>
      <trkpt lat="37.9557350" lon="-5.6195940">
        <ele>687.0</ele>
        <time>2022-05-22T08:52:36Z</time>
      </trkpt>
      <trkpt lat="37.9557210" lon="-5.6196170">
        <ele>686.9</ele>
        <time>2022-05-22T08:52:37Z</time>
      </trkpt>
      <trkpt lat="37.9557150" lon="-5.6196270">
        <ele>686.9</ele>
        <time>2022-05-22T08:52:38Z</time>
      </trkpt>
      <trkpt lat="37.9557090" lon="-5.6196370">
        <ele>686.9</ele>
        <time>2022-05-22T08:52:39Z</time>
      </trkpt>
      <trkpt lat="37.9557030" lon="-5.6196480">
        <ele>686.8</ele>
        <time>2022-05-22T08:52:40Z</time>
      </trkpt>
      <trkpt lat="37.9556960" lon="-5.6196610">
        <ele>686.8</ele>
        <time>2022-05-22T08:52:41Z</time>
      </trkpt>
      <trkpt lat="37.9556890" lon="-5.6196740">
        <ele>686.8</ele>
        <time>2022-05-22T08:52:42Z</time>
      </trkpt>
      <trkpt lat="37.9556820" lon="-5.6196850">
        <ele>686.7</ele>
        <time>2022-05-22T08:52:43Z</time>
      </trkpt>
      <trkpt lat="37.9556700" lon="-5.6197000">
        <ele>686.7</ele>
        <time>2022-05-22T08:52:44Z</time>
      </trkpt>
      <trkpt lat="37.9556570" lon="-5.6197170">
        <ele>686.6</ele>
        <time>2022-05-22T08:52:46Z</time>
      </trkpt>
      <trkpt lat="37.9556480" lon="-5.6197270">
        <ele>686.6</ele>
        <time>2022-05-22T08:52:47Z</time>
      </trkpt>
      <trkpt lat="37.9556300" lon="-5.6197460">
        <ele>686.5</ele>
        <time>2022-05-22T08:52:48Z</time>
      </trkpt>
      <trkpt lat="37.9556230" lon="-5.6197560">
        <ele>686.5</ele>
        <time>2022-05-22T08:52:49Z</time>
      </trkpt>
      <trkpt lat="37.9556150" lon="-5.6197650">
        <ele>686.4</ele>
        <time>2022-05-22T08:52:50Z</time>
      </trkpt>
      <trkpt lat="37.9555910" lon="-5.6197950">
        <ele>686.3</ele>
        <time>2022-05-22T08:52:51Z</time>
      </trkpt>
      <trkpt lat="37.9555810" lon="-5.6198070">
        <ele>686.3</ele>
        <time>2022-05-22T08:52:53Z</time>
      </trkpt>
      <trkpt lat="37.9555710" lon="-5.6198180">
        <ele>686.2</ele>
        <time>2022-05-22T08:52:54Z</time>
      </trkpt>
      <trkpt lat="37.9555610" lon="-5.6198300">
        <ele>686.2</ele>
        <time>2022-05-22T08:52:55Z</time>
      </trkpt>
      <trkpt lat="37.9555530" lon="-5.6198410">
        <ele>686.1</ele>
        <time>2022-05-22T08:52:56Z</time>
      </trkpt>
      <trkpt lat="37.9555450" lon="-5.6198520">
        <ele>686.1</ele>
        <time>2022-05-22T08:52:57Z</time>
      </trkpt>
      <trkpt lat="37.9555350" lon="-5.6198660">
        <ele>686.1</ele>
        <time>2022-05-22T08:52:59Z</time>
      </trkpt>
      <trkpt lat="37.9555270" lon="-5.6198770">
        <ele>686.0</ele>
        <time>2022-05-22T08:53:00Z</time>
      </trkpt>
      <trkpt lat="37.9555160" lon="-5.6198910">
        <ele>686.0</ele>
        <time>2022-05-22T08:53:01Z</time>
      </trkpt>
      <trkpt lat="37.9555070" lon="-5.6199010">
        <ele>685.9</ele>
        <time>2022-05-22T08:53:02Z</time>
      </trkpt>
      <trkpt lat="37.9554990" lon="-5.6199080">
        <ele>685.9</ele>
        <time>2022-05-22T08:53:03Z</time>
      </trkpt>
      <trkpt lat="37.9554890" lon="-5.6199170">
        <ele>685.9</ele>
        <time>2022-05-22T08:53:04Z</time>
      </trkpt>
      <trkpt lat="37.9554780" lon="-5.6199260">
        <ele>685.9</ele>
        <time>2022-05-22T08:53:05Z</time>
      </trkpt>
      <trkpt lat="37.9554660" lon="-5.6199360">
        <ele>685.8</ele>
        <time>2022-05-22T08:53:06Z</time>
      </trkpt>
      <trkpt lat="37.9554500" lon="-5.6199500">
        <ele>685.8</ele>
        <time>2022-05-22T08:53:07Z</time>
      </trkpt>
      <trkpt lat="37.9554400" lon="-5.6199600">
        <ele>685.8</ele>
        <time>2022-05-22T08:53:08Z</time>
      </trkpt>
      <trkpt lat="37.9554300" lon="-5.6199730">
        <ele>685.7</ele>
        <time>2022-05-22T08:53:09Z</time>
      </trkpt>
      <trkpt lat="37.9554200" lon="-5.6199890">
        <ele>685.7</ele>
        <time>2022-05-22T08:53:11Z</time>
      </trkpt>
      <trkpt lat="37.9554200" lon="-5.6200000">
        <ele>685.8</ele>
        <time>2022-05-22T08:53:12Z</time>
      </trkpt>
      <trkpt lat="37.9554200" lon="-5.6200120">
        <ele>685.8</ele>
        <time>2022-05-22T08:53:13Z</time>
      </trkpt>
      <trkpt lat="37.9554140" lon="-5.6200180">
        <ele>685.9</ele>
        <time>2022-05-22T08:53:14Z</time>
      </trkpt>
      <trkpt lat="37.9554060" lon="-5.6200200">
        <ele>685.9</ele>
        <time>2022-05-22T08:53:15Z</time>
      </trkpt>
      <trkpt lat="37.9553850" lon="-5.6200170">
        <ele>686.1</ele>
        <time>2022-05-22T08:53:16Z</time>
      </trkpt>
      <trkpt lat="37.9553770" lon="-5.6200160">
        <ele>686.1</ele>
        <time>2022-05-22T08:53:17Z</time>
      </trkpt>
      <trkpt lat="37.9553680" lon="-5.6200150">
        <ele>686.2</ele>
        <time>2022-05-22T08:53:18Z</time>
      </trkpt>
      <trkpt lat="37.9553490" lon="-5.6200120">
        <ele>686.3</ele>
        <time>2022-05-22T08:53:19Z</time>
      </trkpt>
      <trkpt lat="37.9553350" lon="-5.6200100">
        <ele>686.4</ele>
        <time>2022-05-22T08:53:20Z</time>
      </trkpt>
      <trkpt lat="37.9553250" lon="-5.6200080">
        <ele>686.4</ele>
        <time>2022-05-22T08:53:21Z</time>
      </trkpt>
      <trkpt lat="37.9553160" lon="-5.6200040">
        <ele>686.5</ele>
        <time>2022-05-22T08:53:22Z</time>
      </trkpt>
      <trkpt lat="37.9553080" lon="-5.6199950">
        <ele>686.5</ele>
        <time>2022-05-22T08:53:23Z</time>
      </trkpt>
      <trkpt lat="37.9553030" lon="-5.6199930">
        <ele>686.5</ele>
        <time>2022-05-22T08:53:24Z</time>
      </trkpt>
      <trkpt lat="37.9552940" lon="-5.6199920">
        <ele>686.6</ele>
        <time>2022-05-22T08:53:26Z</time>
      </trkpt>
      <trkpt lat="37.9552850" lon="-5.6199880">
        <ele>686.6</ele>
        <time>2022-05-22T08:53:27Z</time>
      </trkpt>
      <trkpt lat="37.9552760" lon="-5.6199860">
        <ele>686.7</ele>
        <time>2022-05-22T08:53:28Z</time>
      </trkpt>
      <trkpt lat="37.9552560" lon="-5.6199900">
        <ele>686.8</ele>
        <time>2022-05-22T08:53:29Z</time>
      </trkpt>
      <trkpt lat="37.9552470" lon="-5.6199930">
        <ele>686.8</ele>
        <time>2022-05-22T08:53:30Z</time>
      </trkpt>
      <trkpt lat="37.9552380" lon="-5.6199960">
        <ele>686.8</ele>
        <time>2022-05-22T08:53:31Z</time>
      </trkpt>
      <trkpt lat="37.9552170" lon="-5.6200060">
        <ele>686.9</ele>
        <time>2022-05-22T08:53:32Z</time>
      </trkpt>
      <trkpt lat="37.9552040" lon="-5.6200110">
        <ele>687.0</ele>
        <time>2022-05-22T08:53:33Z</time>
      </trkpt>
      <trkpt lat="37.9551890" lon="-5.6200170">
        <ele>687.0</ele>
        <time>2022-05-22T08:53:35Z</time>
      </trkpt>
      <trkpt lat="37.9551750" lon="-5.6200220">
        <ele>687.0</ele>
        <time>2022-05-22T08:53:36Z</time>
      </trkpt>
      <trkpt lat="37.9551640" lon="-5.6200260">
        <ele>687.1</ele>
        <time>2022-05-22T08:53:37Z</time>
      </trkpt>
      <trkpt lat="37.9551470" lon="-5.6200310">
        <ele>687.1</ele>
        <time>2022-05-22T08:53:38Z</time>
      </trkpt>
      <trkpt lat="37.9551270" lon="-5.6200360">
        <ele>687.1</ele>
        <time>2022-05-22T08:53:39Z</time>
      </trkpt>
      <trkpt lat="37.9551190" lon="-5.6200390">
        <ele>687.1</ele>
        <time>2022-05-22T08:53:40Z</time>
      </trkpt>
      <trkpt lat="37.9551100" lon="-5.6200410">
        <ele>687.1</ele>
        <time>2022-05-22T08:53:41Z</time>
      </trkpt>
      <trkpt lat="37.9551000" lon="-5.6200440">
        <ele>687.1</ele>
        <time>2022-05-22T08:53:42Z</time>
      </trkpt>
      <trkpt lat="37.9550890" lon="-5.6200490">
        <ele>687.1</ele>
        <time>2022-05-22T08:53:43Z</time>
      </trkpt>
      <trkpt lat="37.9550770" lon="-5.6200530">
        <ele>687.1</ele>
        <time>2022-05-22T08:53:44Z</time>
      </trkpt>
      <trkpt lat="37.9550670" lon="-5.6200580">
        <ele>687.1</ele>
        <time>2022-05-22T08:53:45Z</time>
      </trkpt>
      <trkpt lat="37.9550470" lon="-5.6200680">
        <ele>687.1</ele>
        <time>2022-05-22T08:53:47Z</time>
      </trkpt>
      <trkpt lat="37.9550360" lon="-5.6200740">
        <ele>687.1</ele>
        <time>2022-05-22T08:53:48Z</time>
      </trkpt>
      <trkpt lat="37.9550230" lon="-5.6200820">
        <ele>687.0</ele>
        <time>2022-05-22T08:53:49Z</time>
      </trkpt>
      <trkpt lat="37.9550080" lon="-5.6200910">
        <ele>687.0</ele>
        <time>2022-05-22T08:53:50Z</time>
      </trkpt>
      <trkpt lat="37.9549960" lon="-5.6200980">
        <ele>687.0</ele>
        <time>2022-05-22T08:53:51Z</time>
      </trkpt>
      <trkpt lat="37.9549790" lon="-5.6201070">
        <ele>686.9</ele>
        <time>2022-05-22T08:53:52Z</time>
      </trkpt>
      <trkpt lat="37.9549670" lon="-5.6201140">
        <ele>686.9</ele>
        <time>2022-05-22T08:53:53Z</time>
      </trkpt>
      <trkpt lat="37.9549520" lon="-5.6201220">
        <ele>686.8</ele>
        <time>2022-05-22T08:53:55Z</time>
      </trkpt>
      <trkpt lat="37.9549410" lon="-5.6201280">
        <ele>686.8</ele>
        <time>2022-05-22T08:53:56Z</time>
      </trkpt>
      <trkpt lat="37.9549210" lon="-5.6201400">
        <ele>686.7</ele>
        <time>2022-05-22T08:53:57Z</time>
      </trkpt>
      <trkpt lat="37.9549120" lon="-5.6201450">
        <ele>686.7</ele>
        <time>2022-05-22T08:53:58Z</time>
      </trkpt>
      <trkpt lat="37.9549040" lon="-5.6201500">
        <ele>686.6</ele>
        <time>2022-05-22T08:53:59Z</time>
      </trkpt>
      <trkpt lat="37.9548920" lon="-5.6201570">
        <ele>686.6</ele>
        <time>2022-05-22T08:54:00Z</time>
      </trkpt>
      <trkpt lat="37.9548790" lon="-5.6201660">
        <ele>686.5</ele>
        <time>2022-05-22T08:54:01Z</time>
      </trkpt>
      <trkpt lat="37.9548660" lon="-5.6201740">
        <ele>686.4</ele>
        <time>2022-05-22T08:54:02Z</time>
      </trkpt>
      <trkpt lat="37.9548530" lon="-5.6201820">
        <ele>686.4</ele>
        <time>2022-05-22T08:54:03Z</time>
      </trkpt>
      <trkpt lat="37.9548390" lon="-5.6201910">
        <ele>686.3</ele>
        <time>2022-05-22T08:54:04Z</time>
      </trkpt>
      <trkpt lat="37.9548250" lon="-5.6202010">
        <ele>686.2</ele>
        <time>2022-05-22T08:54:05Z</time>
      </trkpt>
      <trkpt lat="37.9548130" lon="-5.6202110">
        <ele>686.1</ele>
        <time>2022-05-22T08:54:06Z</time>
      </trkpt>
      <trkpt lat="37.9547990" lon="-5.6202210">
        <ele>686.0</ele>
        <time>2022-05-22T08:54:07Z</time>
      </trkpt>
      <trkpt lat="37.9547840" lon="-5.6202310">
        <ele>685.9</ele>
        <time>2022-05-22T08:54:08Z</time>
      </trkpt>
      <trkpt lat="37.9547700" lon="-5.6202410">
        <ele>685.8</ele>
        <time>2022-05-22T08:54:09Z</time>
      </trkpt>
      <trkpt lat="37.9547460" lon="-5.6202550">
        <ele>685.7</ele>
        <time>2022-05-22T08:54:10Z</time>
      </trkpt>
      <trkpt lat="37.9547320" lon="-5.6202610">
        <ele>685.6</ele>
        <time>2022-05-22T08:54:11Z</time>
      </trkpt>
      <trkpt lat="37.9547140" lon="-5.6202750">
        <ele>685.4</ele>
        <time>2022-05-22T08:54:12Z</time>
      </trkpt>
      <trkpt lat="37.9547060" lon="-5.6202810">
        <ele>685.4</ele>
        <time>2022-05-22T08:54:13Z</time>
      </trkpt>
      <trkpt lat="37.9546990" lon="-5.6202880">
        <ele>685.3</ele>
        <time>2022-05-22T08:54:14Z</time>
      </trkpt>
      <trkpt lat="37.9546820" lon="-5.6203040">
        <ele>685.2</ele>
        <time>2022-05-22T08:54:15Z</time>
      </trkpt>
      <trkpt lat="37.9546760" lon="-5.6203100">
        <ele>685.1</ele>
        <time>2022-05-22T08:54:16Z</time>
      </trkpt>
      <trkpt lat="37.9546690" lon="-5.6203170">
        <ele>685.1</ele>
        <time>2022-05-22T08:54:17Z</time>
      </trkpt>
      <trkpt lat="37.9546590" lon="-5.6203270">
        <ele>685.0</ele>
        <time>2022-05-22T08:54:18Z</time>
      </trkpt>
      <trkpt lat="37.9546410" lon="-5.6203460">
        <ele>684.8</ele>
        <time>2022-05-22T08:54:20Z</time>
      </trkpt>
      <trkpt lat="37.9546310" lon="-5.6203600">
        <ele>684.7</ele>
        <time>2022-05-22T08:54:21Z</time>
      </trkpt>
      <trkpt lat="37.9546180" lon="-5.6203740">
        <ele>684.6</ele>
        <time>2022-05-22T08:54:22Z</time>
      </trkpt>
      <trkpt lat="37.9546070" lon="-5.6203870">
        <ele>684.5</ele>
        <time>2022-05-22T08:54:23Z</time>
      </trkpt>
      <trkpt lat="37.9545990" lon="-5.6204040">
        <ele>684.5</ele>
        <time>2022-05-22T08:54:24Z</time>
      </trkpt>
      <trkpt lat="37.9545830" lon="-5.6204400">
        <ele>684.3</ele>
        <time>2022-05-22T08:54:25Z</time>
      </trkpt>
      <trkpt lat="37.9545810" lon="-5.6204470">
        <ele>684.3</ele>
        <time>2022-05-22T08:54:26Z</time>
      </trkpt>
      <trkpt lat="37.9545780" lon="-5.6204630">
        <ele>684.2</ele>
        <time>2022-05-22T08:54:27Z</time>
      </trkpt>
      <trkpt lat="37.9545740" lon="-5.6204920">
        <ele>684.1</ele>
        <time>2022-05-22T08:54:29Z</time>
      </trkpt>
      <trkpt lat="37.9545700" lon="-5.6205110">
        <ele>684.1</ele>
        <time>2022-05-22T08:54:30Z</time>
      </trkpt>
      <trkpt lat="37.9545670" lon="-5.6205250">
        <ele>684.0</ele>
        <time>2022-05-22T08:54:31Z</time>
      </trkpt>
      <trkpt lat="37.9545580" lon="-5.6205520">
        <ele>684.0</ele>
        <time>2022-05-22T08:54:32Z</time>
      </trkpt>
      <trkpt lat="37.9545550" lon="-5.6205630">
        <ele>683.9</ele>
        <time>2022-05-22T08:54:33Z</time>
      </trkpt>
      <trkpt lat="37.9545520" lon="-5.6205750">
        <ele>683.9</ele>
        <time>2022-05-22T08:54:34Z</time>
      </trkpt>
      <trkpt lat="37.9545480" lon="-5.6205930">
        <ele>683.9</ele>
        <time>2022-05-22T08:54:35Z</time>
      </trkpt>
      <trkpt lat="37.9545450" lon="-5.6206110">
        <ele>683.8</ele>
        <time>2022-05-22T08:54:36Z</time>
      </trkpt>
      <trkpt lat="37.9545420" lon="-5.6206490">
        <ele>683.7</ele>
        <time>2022-05-22T08:54:37Z</time>
      </trkpt>
      <trkpt lat="37.9545400" lon="-5.6206660">
        <ele>683.7</ele>
        <time>2022-05-22T08:54:38Z</time>
      </trkpt>
      <trkpt lat="37.9545360" lon="-5.6207040">
        <ele>683.6</ele>
        <time>2022-05-22T08:54:40Z</time>
      </trkpt>
      <trkpt lat="37.9545340" lon="-5.6207200">
        <ele>683.6</ele>
        <time>2022-05-22T08:54:41Z</time>
      </trkpt>
      <trkpt lat="37.9545340" lon="-5.6207470">
        <ele>683.5</ele>
        <time>2022-05-22T08:54:42Z</time>
      </trkpt>
      <trkpt lat="37.9545330" lon="-5.6207570">
        <ele>683.5</ele>
        <time>2022-05-22T08:54:43Z</time>
      </trkpt>
      <trkpt lat="37.9545310" lon="-5.6207680">
        <ele>683.5</ele>
        <time>2022-05-22T08:54:44Z</time>
      </trkpt>
      <trkpt lat="37.9545220" lon="-5.6207920">
        <ele>683.4</ele>
        <time>2022-05-22T08:54:45Z</time>
      </trkpt>
      <trkpt lat="37.9545180" lon="-5.6208010">
        <ele>683.4</ele>
        <time>2022-05-22T08:54:46Z</time>
      </trkpt>
      <trkpt lat="37.9545140" lon="-5.6208100">
        <ele>683.4</ele>
        <time>2022-05-22T08:54:47Z</time>
      </trkpt>
      <trkpt lat="37.9545050" lon="-5.6208240">
        <ele>683.3</ele>
        <time>2022-05-22T08:54:48Z</time>
      </trkpt>
      <trkpt lat="37.9544870" lon="-5.6208470">
        <ele>683.2</ele>
        <time>2022-05-22T08:54:50Z</time>
      </trkpt>
      <trkpt lat="37.9544760" lon="-5.6208620">
        <ele>683.2</ele>
        <time>2022-05-22T08:54:51Z</time>
      </trkpt>
      <trkpt lat="37.9544640" lon="-5.6208760">
        <ele>683.1</ele>
        <time>2022-05-22T08:54:52Z</time>
      </trkpt>
      <trkpt lat="37.9544520" lon="-5.6208870">
        <ele>683.1</ele>
        <time>2022-05-22T08:54:53Z</time>
      </trkpt>
      <trkpt lat="37.9544390" lon="-5.6208980">
        <ele>683.0</ele>
        <time>2022-05-22T08:54:54Z</time>
      </trkpt>
      <trkpt lat="37.9544250" lon="-5.6209040">
        <ele>683.0</ele>
        <time>2022-05-22T08:54:55Z</time>
      </trkpt>
      <trkpt lat="37.9544100" lon="-5.6209100">
        <ele>682.9</ele>
        <time>2022-05-22T08:54:56Z</time>
      </trkpt>
      <trkpt lat="37.9543780" lon="-5.6209170">
        <ele>682.8</ele>
        <time>2022-05-22T08:54:57Z</time>
      </trkpt>
      <trkpt lat="37.9543710" lon="-5.6209150">
        <ele>682.8</ele>
        <time>2022-05-22T08:54:58Z</time>
      </trkpt>
      <trkpt lat="37.9543540" lon="-5.6209140">
        <ele>682.7</ele>
        <time>2022-05-22T08:55:00Z</time>
      </trkpt>
      <trkpt lat="37.9543410" lon="-5.6209180">
        <ele>682.7</ele>
        <time>2022-05-22T08:55:01Z</time>
      </trkpt>
      <trkpt lat="37.9543260" lon="-5.6209280">
        <ele>682.6</ele>
        <time>2022-05-22T08:55:02Z</time>
      </trkpt>
      <trkpt lat="37.9543150" lon="-5.6209360">
        <ele>682.6</ele>
        <time>2022-05-22T08:55:03Z</time>
      </trkpt>
      <trkpt lat="37.9543010" lon="-5.6209470">
        <ele>682.5</ele>
        <time>2022-05-22T08:55:04Z</time>
      </trkpt>
      <trkpt lat="37.9542870" lon="-5.6209630">
        <ele>682.4</ele>
        <time>2022-05-22T08:55:06Z</time>
      </trkpt>
      <trkpt lat="37.9542780" lon="-5.6209800">
        <ele>682.4</ele>
        <time>2022-05-22T08:55:07Z</time>
      </trkpt>
      <trkpt lat="37.9542690" lon="-5.6209950">
        <ele>682.3</ele>
        <time>2022-05-22T08:55:08Z</time>
      </trkpt>
      <trkpt lat="37.9542610" lon="-5.6210100">
        <ele>682.3</ele>
        <time>2022-05-22T08:55:09Z</time>
      </trkpt>
      <trkpt lat="37.9542520" lon="-5.6210270">
        <ele>682.2</ele>
        <time>2022-05-22T08:55:10Z</time>
      </trkpt>
      <trkpt lat="37.9542440" lon="-5.6210440">
        <ele>682.1</ele>
        <time>2022-05-22T08:55:11Z</time>
      </trkpt>
      <trkpt lat="37.9542360" lon="-5.6210610">
        <ele>682.1</ele>
        <time>2022-05-22T08:55:12Z</time>
      </trkpt>
      <trkpt lat="37.9542230" lon="-5.6210940">
        <ele>682.0</ele>
        <time>2022-05-22T08:55:13Z</time>
      </trkpt>
      <trkpt lat="37.9542190" lon="-5.6211100">
        <ele>681.9</ele>
        <time>2022-05-22T08:55:14Z</time>
      </trkpt>
      <trkpt lat="37.9542070" lon="-5.6211460">
        <ele>681.8</ele>
        <time>2022-05-22T08:55:16Z</time>
      </trkpt>
      <trkpt lat="37.9542010" lon="-5.6211580">
        <ele>681.7</ele>
        <time>2022-05-22T08:55:17Z</time>
      </trkpt>
      <trkpt lat="37.9541870" lon="-5.6211780">
        <ele>681.6</ele>
        <time>2022-05-22T08:55:18Z</time>
      </trkpt>
      <trkpt lat="37.9541800" lon="-5.6211880">
        <ele>681.5</ele>
        <time>2022-05-22T08:55:19Z</time>
      </trkpt>
      <trkpt lat="37.9541730" lon="-5.6211970">
        <ele>681.5</ele>
        <time>2022-05-22T08:55:20Z</time>
      </trkpt>
      <trkpt lat="37.9541620" lon="-5.6212130">
        <ele>681.4</ele>
        <time>2022-05-22T08:55:22Z</time>
      </trkpt>
      <trkpt lat="37.9541540" lon="-5.6212250">
        <ele>681.3</ele>
        <time>2022-05-22T08:55:23Z</time>
      </trkpt>
      <trkpt lat="37.9541450" lon="-5.6212380">
        <ele>681.3</ele>
        <time>2022-05-22T08:55:24Z</time>
      </trkpt>
      <trkpt lat="37.9541350" lon="-5.6212500">
        <ele>681.2</ele>
        <time>2022-05-22T08:55:25Z</time>
      </trkpt>
      <trkpt lat="37.9541230" lon="-5.6212620">
        <ele>681.1</ele>
        <time>2022-05-22T08:55:26Z</time>
      </trkpt>
      <trkpt lat="37.9541090" lon="-5.6212730">
        <ele>681.0</ele>
        <time>2022-05-22T08:55:27Z</time>
      </trkpt>
      <trkpt lat="37.9540960" lon="-5.6212790">
        <ele>681.0</ele>
        <time>2022-05-22T08:55:28Z</time>
      </trkpt>
      <trkpt lat="37.9540820" lon="-5.6212880">
        <ele>680.9</ele>
        <time>2022-05-22T08:55:29Z</time>
      </trkpt>
      <trkpt lat="37.9540680" lon="-5.6212950">
        <ele>680.8</ele>
        <time>2022-05-22T08:55:30Z</time>
      </trkpt>
      <trkpt lat="37.9540520" lon="-5.6213000">
        <ele>680.8</ele>
        <time>2022-05-22T08:55:31Z</time>
      </trkpt>
      <trkpt lat="37.9540370" lon="-5.6213040">
        <ele>680.7</ele>
        <time>2022-05-22T08:55:32Z</time>
      </trkpt>
      <trkpt lat="37.9540210" lon="-5.6213070">
        <ele>680.6</ele>
        <time>2022-05-22T08:55:33Z</time>
      </trkpt>
      <trkpt lat="37.9540070" lon="-5.6213080">
        <ele>680.6</ele>
        <time>2022-05-22T08:55:34Z</time>
      </trkpt>
      <trkpt lat="37.9539890" lon="-5.6213090">
        <ele>680.5</ele>
        <time>2022-05-22T08:55:35Z</time>
      </trkpt>
      <trkpt lat="37.9539520" lon="-5.6213060">
        <ele>680.4</ele>
        <time>2022-05-22T08:55:36Z</time>
      </trkpt>
      <trkpt lat="37.9539390" lon="-5.6213080">
        <ele>680.3</ele>
        <time>2022-05-22T08:55:37Z</time>
      </trkpt>
      <trkpt lat="37.9539260" lon="-5.6213110">
        <ele>680.3</ele>
        <time>2022-05-22T08:55:38Z</time>
      </trkpt>
      <trkpt lat="37.9539050" lon="-5.6213160">
        <ele>680.2</ele>
        <time>2022-05-22T08:55:40Z</time>
      </trkpt>
      <trkpt lat="37.9538860" lon="-5.6213220">
        <ele>680.2</ele>
        <time>2022-05-22T08:55:41Z</time>
      </trkpt>
      <trkpt lat="37.9538750" lon="-5.6213250">
        <ele>680.1</ele>
        <time>2022-05-22T08:55:42Z</time>
      </trkpt>
      <trkpt lat="37.9538550" lon="-5.6213320">
        <ele>680.1</ele>
        <time>2022-05-22T08:55:43Z</time>
      </trkpt>
      <trkpt lat="37.9538470" lon="-5.6213350">
        <ele>680.0</ele>
        <time>2022-05-22T08:55:44Z</time>
      </trkpt>
      <trkpt lat="37.9538390" lon="-5.6213390">
        <ele>680.0</ele>
        <time>2022-05-22T08:55:45Z</time>
      </trkpt>
      <trkpt lat="37.9538260" lon="-5.6213460">
        <ele>680.0</ele>
        <time>2022-05-22T08:55:46Z</time>
      </trkpt>
      <trkpt lat="37.9538130" lon="-5.6213550">
        <ele>679.9</ele>
        <time>2022-05-22T08:55:47Z</time>
      </trkpt>
      <trkpt lat="37.9537990" lon="-5.6213630">
        <ele>679.9</ele>
        <time>2022-05-22T08:55:48Z</time>
      </trkpt>
      <trkpt lat="37.9537850" lon="-5.6213720">
        <ele>679.9</ele>
        <time>2022-05-22T08:55:49Z</time>
      </trkpt>
      <trkpt lat="37.9537730" lon="-5.6213810">
        <ele>679.9</ele>
        <time>2022-05-22T08:55:50Z</time>
      </trkpt>
      <trkpt lat="37.9537600" lon="-5.6213890">
        <ele>679.8</ele>
        <time>2022-05-22T08:55:51Z</time>
      </trkpt>
      <trkpt lat="37.9537250" lon="-5.6214160">
        <ele>679.8</ele>
        <time>2022-05-22T08:55:53Z</time>
      </trkpt>
      <trkpt lat="37.9537110" lon="-5.6214260">
        <ele>679.8</ele>
        <time>2022-05-22T08:55:54Z</time>
      </trkpt>
      <trkpt lat="37.9537000" lon="-5.6214350">
        <ele>679.8</ele>
        <time>2022-05-22T08:55:55Z</time>
      </trkpt>
      <trkpt lat="37.9536880" lon="-5.6214450">
        <ele>679.7</ele>
        <time>2022-05-22T08:55:56Z</time>
      </trkpt>
      <trkpt lat="37.9536730" lon="-5.6214600">
        <ele>679.7</ele>
        <time>2022-05-22T08:55:58Z</time>
      </trkpt>
      <trkpt lat="37.9536640" lon="-5.6214740">
        <ele>679.7</ele>
        <time>2022-05-22T08:55:59Z</time>
      </trkpt>
      <trkpt lat="37.9536520" lon="-5.6214930">
        <ele>679.7</ele>
        <time>2022-05-22T08:56:00Z</time>
      </trkpt>
      <trkpt lat="37.9536350" lon="-5.6215110">
        <ele>679.7</ele>
        <time>2022-05-22T08:56:02Z</time>
      </trkpt>
      <trkpt lat="37.9536210" lon="-5.6215380">
        <ele>679.7</ele>
        <time>2022-05-22T08:56:03Z</time>
      </trkpt>
      <trkpt lat="37.9536150" lon="-5.6215520">
        <ele>679.7</ele>
        <time>2022-05-22T08:56:04Z</time>
      </trkpt>
      <trkpt lat="37.9536100" lon="-5.6215660">
        <ele>679.7</ele>
        <time>2022-05-22T08:56:05Z</time>
      </trkpt>
      <trkpt lat="37.9536050" lon="-5.6215830">
        <ele>679.7</ele>
        <time>2022-05-22T08:56:06Z</time>
      </trkpt>
      <trkpt lat="37.9536090" lon="-5.6216130">
        <ele>679.7</ele>
        <time>2022-05-22T08:56:08Z</time>
      </trkpt>
      <trkpt lat="37.9536050" lon="-5.6216320">
        <ele>679.7</ele>
        <time>2022-05-22T08:56:09Z</time>
      </trkpt>
      <trkpt lat="37.9535960" lon="-5.6216510">
        <ele>679.7</ele>
        <time>2022-05-22T08:56:10Z</time>
      </trkpt>
      <trkpt lat="37.9535900" lon="-5.6216630">
        <ele>679.7</ele>
        <time>2022-05-22T08:56:11Z</time>
      </trkpt>
      <trkpt lat="37.9535790" lon="-5.6216870">
        <ele>679.8</ele>
        <time>2022-05-22T08:56:13Z</time>
      </trkpt>
      <trkpt lat="37.9535690" lon="-5.6217050">
        <ele>679.8</ele>
        <time>2022-05-22T08:56:14Z</time>
      </trkpt>
      <trkpt lat="37.9535610" lon="-5.6217180">
        <ele>679.8</ele>
        <time>2022-05-22T08:56:15Z</time>
      </trkpt>
      <trkpt lat="37.9535550" lon="-5.6217310">
        <ele>679.8</ele>
        <time>2022-05-22T08:56:16Z</time>
      </trkpt>
      <trkpt lat="37.9535430" lon="-5.6217540">
        <ele>679.8</ele>
        <time>2022-05-22T08:56:18Z</time>
      </trkpt>
      <trkpt lat="37.9535360" lon="-5.6217680">
        <ele>679.8</ele>
        <time>2022-05-22T08:56:19Z</time>
      </trkpt>
      <trkpt lat="37.9535200" lon="-5.6218010">
        <ele>679.9</ele>
        <time>2022-05-22T08:56:21Z</time>
      </trkpt>
      <trkpt lat="37.9535130" lon="-5.6218160">
        <ele>679.9</ele>
        <time>2022-05-22T08:56:22Z</time>
      </trkpt>
      <trkpt lat="37.9535060" lon="-5.6218310">
        <ele>679.9</ele>
        <time>2022-05-22T08:56:23Z</time>
      </trkpt>
      <trkpt lat="37.9535000" lon="-5.6218480">
        <ele>679.9</ele>
        <time>2022-05-22T08:56:24Z</time>
      </trkpt>
      <trkpt lat="37.9534930" lon="-5.6218640">
        <ele>680.0</ele>
        <time>2022-05-22T08:56:25Z</time>
      </trkpt>
      <trkpt lat="37.9534850" lon="-5.6218970">
        <ele>680.0</ele>
        <time>2022-05-22T08:56:26Z</time>
      </trkpt>
      <trkpt lat="37.9534800" lon="-5.6219190">
        <ele>680.0</ele>
        <time>2022-05-22T08:56:28Z</time>
      </trkpt>
      <trkpt lat="37.9534750" lon="-5.6219340">
        <ele>680.0</ele>
        <time>2022-05-22T08:56:29Z</time>
      </trkpt>
      <trkpt lat="37.9534670" lon="-5.6219680">
        <ele>680.1</ele>
        <time>2022-05-22T08:56:30Z</time>
      </trkpt>
      <trkpt lat="37.9534630" lon="-5.6219860">
        <ele>680.1</ele>
        <time>2022-05-22T08:56:31Z</time>
      </trkpt>
      <trkpt lat="37.9534600" lon="-5.6219980">
        <ele>680.1</ele>
        <time>2022-05-22T08:56:32Z</time>
      </trkpt>
      <trkpt lat="37.9534560" lon="-5.6220110">
        <ele>680.2</ele>
        <time>2022-05-22T08:56:33Z</time>
      </trkpt>
      <trkpt lat="37.9534480" lon="-5.6220310">
        <ele>680.2</ele>
        <time>2022-05-22T08:56:35Z</time>
      </trkpt>
      <trkpt lat="37.9534400" lon="-5.6220480">
        <ele>680.2</ele>
        <time>2022-05-22T08:56:36Z</time>
      </trkpt>
      <trkpt lat="37.9534340" lon="-5.6220590">
        <ele>680.2</ele>
        <time>2022-05-22T08:56:37Z</time>
      </trkpt>
      <trkpt lat="37.9534270" lon="-5.6220730">
        <ele>680.3</ele>
        <time>2022-05-22T08:56:38Z</time>
      </trkpt>
      <trkpt lat="37.9534190" lon="-5.6220930">
        <ele>680.3</ele>
        <time>2022-05-22T08:56:40Z</time>
      </trkpt>
      <trkpt lat="37.9534100" lon="-5.6221170">
        <ele>680.3</ele>
        <time>2022-05-22T08:56:41Z</time>
      </trkpt>
      <trkpt lat="37.9534060" lon="-5.6221270">
        <ele>680.4</ele>
        <time>2022-05-22T08:56:42Z</time>
      </trkpt>
      <trkpt lat="37.9534020" lon="-5.6221370">
        <ele>680.4</ele>
        <time>2022-05-22T08:56:43Z</time>
      </trkpt>
      <trkpt lat="37.9533950" lon="-5.6221520">
        <ele>680.4</ele>
        <time>2022-05-22T08:56:44Z</time>
      </trkpt>
      <trkpt lat="37.9533870" lon="-5.6221680">
        <ele>680.4</ele>
        <time>2022-05-22T08:56:45Z</time>
      </trkpt>
      <trkpt lat="37.9533790" lon="-5.6221830">
        <ele>680.5</ele>
        <time>2022-05-22T08:56:46Z</time>
      </trkpt>
      <trkpt lat="37.9533690" lon="-5.6221990">
        <ele>680.5</ele>
        <time>2022-05-22T08:56:47Z</time>
      </trkpt>
      <trkpt lat="37.9533430" lon="-5.6222430">
        <ele>680.6</ele>
        <time>2022-05-22T08:56:49Z</time>
      </trkpt>
      <trkpt lat="37.9533340" lon="-5.6222560">
        <ele>680.6</ele>
        <time>2022-05-22T08:56:50Z</time>
      </trkpt>
      <trkpt lat="37.9533220" lon="-5.6222660">
        <ele>680.7</ele>
        <time>2022-05-22T08:56:51Z</time>
      </trkpt>
      <trkpt lat="37.9533130" lon="-5.6222730">
        <ele>680.7</ele>
        <time>2022-05-22T08:56:52Z</time>
      </trkpt>
      <trkpt lat="37.9533040" lon="-5.6222800">
        <ele>680.7</ele>
        <time>2022-05-22T08:56:53Z</time>
      </trkpt>
      <trkpt lat="37.9532910" lon="-5.6222940">
        <ele>680.8</ele>
        <time>2022-05-22T08:56:55Z</time>
      </trkpt>
      <trkpt lat="37.9532790" lon="-5.6223070">
        <ele>680.8</ele>
        <time>2022-05-22T08:56:56Z</time>
      </trkpt>
      <trkpt lat="37.9532620" lon="-5.6223330">
        <ele>680.9</ele>
        <time>2022-05-22T08:56:57Z</time>
      </trkpt>
      <trkpt lat="37.9532550" lon="-5.6223460">
        <ele>680.9</ele>
        <time>2022-05-22T08:56:59Z</time>
      </trkpt>
      <trkpt lat="37.9532480" lon="-5.6223590">
        <ele>681.0</ele>
        <time>2022-05-22T08:57:00Z</time>
      </trkpt>
      <trkpt lat="37.9532420" lon="-5.6223720">
        <ele>681.0</ele>
        <time>2022-05-22T08:57:01Z</time>
      </trkpt>
      <trkpt lat="37.9532350" lon="-5.6223850">
        <ele>681.1</ele>
        <time>2022-05-22T08:57:02Z</time>
      </trkpt>
      <trkpt lat="37.9532320" lon="-5.6223950">
        <ele>681.1</ele>
        <time>2022-05-22T08:57:03Z</time>
      </trkpt>
      <trkpt lat="37.9532250" lon="-5.6224090">
        <ele>681.1</ele>
        <time>2022-05-22T08:57:04Z</time>
      </trkpt>
      <trkpt lat="37.9532170" lon="-5.6224190">
        <ele>681.2</ele>
        <time>2022-05-22T08:57:05Z</time>
      </trkpt>
      <trkpt lat="37.9532000" lon="-5.6224350">
        <ele>681.2</ele>
        <time>2022-05-22T08:57:06Z</time>
      </trkpt>
      <trkpt lat="37.9531910" lon="-5.6224410">
        <ele>681.3</ele>
        <time>2022-05-22T08:57:08Z</time>
      </trkpt>
      <trkpt lat="37.9531830" lon="-5.6224470">
        <ele>681.4</ele>
        <time>2022-05-22T08:57:09Z</time>
      </trkpt>
      <trkpt lat="37.9531720" lon="-5.6224530">
        <ele>681.5</ele>
        <time>2022-05-22T08:57:10Z</time>
      </trkpt>
      <trkpt lat="37.9531600" lon="-5.6224570">
        <ele>681.6</ele>
        <time>2022-05-22T08:57:11Z</time>
      </trkpt>
      <trkpt lat="37.9531500" lon="-5.6224590">
        <ele>681.7</ele>
        <time>2022-05-22T08:57:12Z</time>
      </trkpt>
      <trkpt lat="37.9531370" lon="-5.6224600">
        <ele>681.8</ele>
        <time>2022-05-22T08:57:13Z</time>
      </trkpt>
      <trkpt lat="37.9531280" lon="-5.6224650">
        <ele>681.9</ele>
        <time>2022-05-22T08:57:14Z</time>
      </trkpt>
      <trkpt lat="37.9531160" lon="-5.6224690">
        <ele>682.0</ele>
        <time>2022-05-22T08:57:15Z</time>
      </trkpt>
      <trkpt lat="37.9531030" lon="-5.6224740">
        <ele>682.1</ele>
        <time>2022-05-22T08:57:16Z</time>
      </trkpt>
      <trkpt lat="37.9530890" lon="-5.6224790">
        <ele>682.2</ele>
        <time>2022-05-22T08:57:17Z</time>
      </trkpt>
      <trkpt lat="37.9530740" lon="-5.6224840">
        <ele>682.3</ele>
        <time>2022-05-22T08:57:18Z</time>
      </trkpt>
      <trkpt lat="37.9530600" lon="-5.6224880">
        <ele>682.5</ele>
        <time>2022-05-22T08:57:19Z</time>
      </trkpt>
      <trkpt lat="37.9530470" lon="-5.6224930">
        <ele>682.6</ele>
        <time>2022-05-22T08:57:20Z</time>
      </trkpt>
      <trkpt lat="37.9530340" lon="-5.6224980">
        <ele>682.7</ele>
        <time>2022-05-22T08:57:21Z</time>
      </trkpt>
      <trkpt lat="37.9530150" lon="-5.6225040">
        <ele>682.9</ele>
        <time>2022-05-22T08:57:22Z</time>
      </trkpt>
      <trkpt lat="37.9530000" lon="-5.6225080">
        <ele>683.0</ele>
        <time>2022-05-22T08:57:23Z</time>
      </trkpt>
      <trkpt lat="37.9529790" lon="-5.6225160">
        <ele>683.2</ele>
        <time>2022-05-22T08:57:24Z</time>
      </trkpt>
      <trkpt lat="37.9529710" lon="-5.6225190">
        <ele>683.3</ele>
        <time>2022-05-22T08:57:25Z</time>
      </trkpt>
      <trkpt lat="37.9529630" lon="-5.6225230">
        <ele>683.4</ele>
        <time>2022-05-22T08:57:26Z</time>
      </trkpt>
      <trkpt lat="37.9529460" lon="-5.6225380">
        <ele>683.5</ele>
        <time>2022-05-22T08:57:27Z</time>
      </trkpt>
      <trkpt lat="37.9529400" lon="-5.6225440">
        <ele>683.6</ele>
        <time>2022-05-22T08:57:28Z</time>
      </trkpt>
      <trkpt lat="37.9529330" lon="-5.6225500">
        <ele>683.7</ele>
        <time>2022-05-22T08:57:29Z</time>
      </trkpt>
      <trkpt lat="37.9529210" lon="-5.6225570">
        <ele>683.8</ele>
        <time>2022-05-22T08:57:30Z</time>
      </trkpt>
      <trkpt lat="37.9529080" lon="-5.6225650">
        <ele>683.9</ele>
        <time>2022-05-22T08:57:31Z</time>
      </trkpt>
      <trkpt lat="37.9528950" lon="-5.6225720">
        <ele>684.1</ele>
        <time>2022-05-22T08:57:32Z</time>
      </trkpt>
      <trkpt lat="37.9528830" lon="-5.6225760">
        <ele>684.2</ele>
        <time>2022-05-22T08:57:33Z</time>
      </trkpt>
      <trkpt lat="37.9528680" lon="-5.6225780">
        <ele>684.3</ele>
        <time>2022-05-22T08:57:34Z</time>
      </trkpt>
      <trkpt lat="37.9528540" lon="-5.6225800">
        <ele>684.4</ele>
        <time>2022-05-22T08:57:35Z</time>
      </trkpt>
      <trkpt lat="37.9528410" lon="-5.6225820">
        <ele>684.5</ele>
        <time>2022-05-22T08:57:36Z</time>
      </trkpt>
      <trkpt lat="37.9528300" lon="-5.6225800">
        <ele>684.6</ele>
        <time>2022-05-22T08:57:37Z</time>
      </trkpt>
      <trkpt lat="37.9528200" lon="-5.6225760">
        <ele>684.7</ele>
        <time>2022-05-22T08:57:38Z</time>
      </trkpt>
      <trkpt lat="37.9528040" lon="-5.6225840">
        <ele>684.9</ele>
        <time>2022-05-22T08:57:39Z</time>
      </trkpt>
      <trkpt lat="37.9527940" lon="-5.6225950">
        <ele>685.0</ele>
        <time>2022-05-22T08:57:41Z</time>
      </trkpt>
      <trkpt lat="37.9527860" lon="-5.6226040">
        <ele>685.1</ele>
        <time>2022-05-22T08:57:42Z</time>
      </trkpt>
      <trkpt lat="37.9527780" lon="-5.6226130">
        <ele>685.2</ele>
        <time>2022-05-22T08:57:43Z</time>
      </trkpt>
      <trkpt lat="37.9527620" lon="-5.6226360">
        <ele>685.4</ele>
        <time>2022-05-22T08:57:45Z</time>
      </trkpt>
      <trkpt lat="37.9527550" lon="-5.6226450">
        <ele>685.4</ele>
        <time>2022-05-22T08:57:46Z</time>
      </trkpt>
      <trkpt lat="37.9527490" lon="-5.6226520">
        <ele>685.4</ele>
        <time>2022-05-22T08:57:47Z</time>
      </trkpt>
      <trkpt lat="37.9527420" lon="-5.6226610">
        <ele>685.4</ele>
        <time>2022-05-22T08:57:48Z</time>
      </trkpt>
      <trkpt lat="37.9527350" lon="-5.6226720">
        <ele>685.4</ele>
        <time>2022-05-22T08:57:49Z</time>
      </trkpt>
      <trkpt lat="37.9527230" lon="-5.6226890">
        <ele>685.4</ele>
        <time>2022-05-22T08:57:50Z</time>
      </trkpt>
      <trkpt lat="37.9527170" lon="-5.6226970">
        <ele>685.5</ele>
        <time>2022-05-22T08:57:51Z</time>
      </trkpt>
      <trkpt lat="37.9527100" lon="-5.6227040">
        <ele>685.5</ele>
        <time>2022-05-22T08:57:52Z</time>
      </trkpt>
      <trkpt lat="37.9527010" lon="-5.6227120">
        <ele>685.5</ele>
        <time>2022-05-22T08:57:53Z</time>
      </trkpt>
      <trkpt lat="37.9526810" lon="-5.6227220">
        <ele>685.5</ele>
        <time>2022-05-22T08:57:54Z</time>
      </trkpt>
      <trkpt lat="37.9526720" lon="-5.6227250">
        <ele>685.5</ele>
        <time>2022-05-22T08:57:55Z</time>
      </trkpt>
      <trkpt lat="37.9526630" lon="-5.6227290">
        <ele>685.5</ele>
        <time>2022-05-22T08:57:56Z</time>
      </trkpt>
      <trkpt lat="37.9526510" lon="-5.6227360">
        <ele>685.5</ele>
        <time>2022-05-22T08:57:57Z</time>
      </trkpt>
      <trkpt lat="37.9526410" lon="-5.6227410">
        <ele>685.6</ele>
        <time>2022-05-22T08:57:58Z</time>
      </trkpt>
      <trkpt lat="37.9526280" lon="-5.6227500">
        <ele>685.6</ele>
        <time>2022-05-22T08:58:00Z</time>
      </trkpt>
      <trkpt lat="37.9526070" lon="-5.6227660">
        <ele>685.6</ele>
        <time>2022-05-22T08:58:01Z</time>
      </trkpt>
      <trkpt lat="37.9525960" lon="-5.6227750">
        <ele>685.6</ele>
        <time>2022-05-22T08:58:03Z</time>
      </trkpt>
      <trkpt lat="37.9525760" lon="-5.6227940">
        <ele>685.7</ele>
        <time>2022-05-22T08:58:04Z</time>
      </trkpt>
      <trkpt lat="37.9525660" lon="-5.6228020">
        <ele>685.7</ele>
        <time>2022-05-22T08:58:05Z</time>
      </trkpt>
      <trkpt lat="37.9525570" lon="-5.6228110">
        <ele>685.7</ele>
        <time>2022-05-22T08:58:06Z</time>
      </trkpt>
      <trkpt lat="37.9525400" lon="-5.6228240">
        <ele>685.8</ele>
        <time>2022-05-22T08:58:08Z</time>
      </trkpt>
      <trkpt lat="37.9525290" lon="-5.6228320">
        <ele>685.8</ele>
        <time>2022-05-22T08:58:09Z</time>
      </trkpt>
      <trkpt lat="37.9525160" lon="-5.6228440">
        <ele>685.8</ele>
        <time>2022-05-22T08:58:10Z</time>
      </trkpt>
      <trkpt lat="37.9525010" lon="-5.6228580">
        <ele>685.8</ele>
        <time>2022-05-22T08:58:11Z</time>
      </trkpt>
      <trkpt lat="37.9524820" lon="-5.6228740">
        <ele>685.9</ele>
        <time>2022-05-22T08:58:13Z</time>
      </trkpt>
      <trkpt lat="37.9524710" lon="-5.6228830">
        <ele>685.9</ele>
        <time>2022-05-22T08:58:14Z</time>
      </trkpt>
      <trkpt lat="37.9524550" lon="-5.6228990">
        <ele>686.0</ele>
        <time>2022-05-22T08:58:15Z</time>
      </trkpt>
      <trkpt lat="37.9524390" lon="-5.6229090">
        <ele>686.0</ele>
        <time>2022-05-22T08:58:17Z</time>
      </trkpt>
      <trkpt lat="37.9524290" lon="-5.6229150">
        <ele>686.0</ele>
        <time>2022-05-22T08:58:18Z</time>
      </trkpt>
      <trkpt lat="37.9524120" lon="-5.6229220">
        <ele>686.1</ele>
        <time>2022-05-22T08:58:19Z</time>
      </trkpt>
      <trkpt lat="37.9523940" lon="-5.6229300">
        <ele>686.1</ele>
        <time>2022-05-22T08:58:20Z</time>
      </trkpt>
      <trkpt lat="37.9523860" lon="-5.6229340">
        <ele>686.1</ele>
        <time>2022-05-22T08:58:21Z</time>
      </trkpt>
      <trkpt lat="37.9523780" lon="-5.6229370">
        <ele>686.2</ele>
        <time>2022-05-22T08:58:22Z</time>
      </trkpt>
      <trkpt lat="37.9523690" lon="-5.6229420">
        <ele>686.2</ele>
        <time>2022-05-22T08:58:23Z</time>
      </trkpt>
      <trkpt lat="37.9523510" lon="-5.6229600">
        <ele>686.2</ele>
        <time>2022-05-22T08:58:25Z</time>
      </trkpt>
      <trkpt lat="37.9523430" lon="-5.6229670">
        <ele>686.3</ele>
        <time>2022-05-22T08:58:26Z</time>
      </trkpt>
      <trkpt lat="37.9523390" lon="-5.6229730">
        <ele>686.3</ele>
        <time>2022-05-22T08:58:27Z</time>
      </trkpt>
      <trkpt lat="37.9523380" lon="-5.6229770">
        <ele>686.3</ele>
        <time>2022-05-22T08:58:28Z</time>
      </trkpt>
      <trkpt lat="37.9523390" lon="-5.6229810">
        <ele>686.3</ele>
        <time>2022-05-22T08:58:29Z</time>
      </trkpt>
      <trkpt lat="37.9523370" lon="-5.6229860">
        <ele>686.3</ele>
        <time>2022-05-22T08:58:30Z</time>
      </trkpt>
      <trkpt lat="37.9523390" lon="-5.6229870">
        <ele>686.3</ele>
        <time>2022-05-22T08:58:31Z</time>
      </trkpt>
      <trkpt lat="37.9523410" lon="-5.6229880">
        <ele>686.3</ele>
        <time>2022-05-22T08:58:32Z</time>
      </trkpt>
      <trkpt lat="37.9523430" lon="-5.6229890">
        <ele>686.3</ele>
        <time>2022-05-22T08:58:33Z</time>
      </trkpt>
      <trkpt lat="37.9523470" lon="-5.6229870">
        <ele>686.3</ele>
        <time>2022-05-22T08:58:34Z</time>
      </trkpt>
      <trkpt lat="37.9523500" lon="-5.6229780">
        <ele>686.4</ele>
        <time>2022-05-22T08:58:35Z</time>
      </trkpt>
      <trkpt lat="37.9523520" lon="-5.6229810">
        <ele>686.4</ele>
        <time>2022-05-22T08:58:36Z</time>
      </trkpt>
      <trkpt lat="37.9523520" lon="-5.6229950">
        <ele>686.4</ele>
        <time>2022-05-22T08:58:37Z</time>
      </trkpt>
      <trkpt lat="37.9523540" lon="-5.6230220">
        <ele>686.4</ele>
        <time>2022-05-22T08:58:38Z</time>
      </trkpt>
      <trkpt lat="37.9523560" lon="-5.6230320">
        <ele>686.4</ele>
        <time>2022-05-22T08:58:39Z</time>
      </trkpt>
      <trkpt lat="37.9523580" lon="-5.6230420">
        <ele>686.4</ele>
        <time>2022-05-22T08:58:40Z</time>
      </trkpt>
      <trkpt lat="37.9523690" lon="-5.6230650">
        <ele>686.3</ele>
        <time>2022-05-22T08:58:41Z</time>
      </trkpt>
      <trkpt lat="37.9523740" lon="-5.6230750">
        <ele>686.3</ele>
        <time>2022-05-22T08:58:42Z</time>
      </trkpt>
      <trkpt lat="37.9523800" lon="-5.6230850">
        <ele>686.3</ele>
        <time>2022-05-22T08:58:43Z</time>
      </trkpt>
      <trkpt lat="37.9523840" lon="-5.6230980">
        <ele>686.3</ele>
        <time>2022-05-22T08:58:44Z</time>
      </trkpt>
      <trkpt lat="37.9523860" lon="-5.6231060">
        <ele>686.3</ele>
        <time>2022-05-22T08:58:45Z</time>
      </trkpt>
      <trkpt lat="37.9523870" lon="-5.6231070">
        <ele>686.3</ele>
        <time>2022-05-22T08:58:46Z</time>
      </trkpt>
      <trkpt lat="37.9523880" lon="-5.6231070">
        <ele>686.2</ele>
        <time>2022-05-22T08:58:47Z</time>
      </trkpt>
      <trkpt lat="37.9523880" lon="-5.6231100">
        <ele>686.2</ele>
        <time>2022-05-22T08:58:48Z</time>
      </trkpt>
      <trkpt lat="37.9523930" lon="-5.6231230">
        <ele>686.2</ele>
        <time>2022-05-22T08:58:49Z</time>
      </trkpt>
      <trkpt lat="37.9524020" lon="-5.6231350">
        <ele>686.2</ele>
        <time>2022-05-22T08:58:50Z</time>
      </trkpt>
      <trkpt lat="37.9524130" lon="-5.6231480">
        <ele>686.2</ele>
        <time>2022-05-22T08:58:51Z</time>
      </trkpt>
      <trkpt lat="37.9524220" lon="-5.6231620">
        <ele>686.1</ele>
        <time>2022-05-22T08:58:52Z</time>
      </trkpt>
      <trkpt lat="37.9524350" lon="-5.6231820">
        <ele>686.1</ele>
        <time>2022-05-22T08:58:53Z</time>
      </trkpt>
      <trkpt lat="37.9524470" lon="-5.6232040">
        <ele>686.0</ele>
        <time>2022-05-22T08:58:54Z</time>
      </trkpt>
      <trkpt lat="37.9524520" lon="-5.6232120">
        <ele>686.0</ele>
        <time>2022-05-22T08:58:55Z</time>
      </trkpt>
      <trkpt lat="37.9524570" lon="-5.6232200">
        <ele>686.0</ele>
        <time>2022-05-22T08:58:56Z</time>
      </trkpt>
      <trkpt lat="37.9524720" lon="-5.6232410">
        <ele>685.9</ele>
        <time>2022-05-22T08:58:57Z</time>
      </trkpt>
      <trkpt lat="37.9524780" lon="-5.6232500">
        <ele>685.9</ele>
        <time>2022-05-22T08:58:58Z</time>
      </trkpt>
      <trkpt lat="37.9524840" lon="-5.6232590">
        <ele>685.9</ele>
        <time>2022-05-22T08:58:59Z</time>
      </trkpt>
      <trkpt lat="37.9524930" lon="-5.6232710">
        <ele>685.8</ele>
        <time>2022-05-22T08:59:00Z</time>
      </trkpt>
      <trkpt lat="37.9525020" lon="-5.6232850">
        <ele>685.8</ele>
        <time>2022-05-22T08:59:01Z</time>
      </trkpt>
      <trkpt lat="37.9525110" lon="-5.6232980">
        <ele>685.7</ele>
        <time>2022-05-22T08:59:02Z</time>
      </trkpt>
      <trkpt lat="37.9525190" lon="-5.6233120">
        <ele>685.7</ele>
        <time>2022-05-22T08:59:03Z</time>
      </trkpt>
      <trkpt lat="37.9525330" lon="-5.6233340">
        <ele>685.6</ele>
        <time>2022-05-22T08:59:04Z</time>
      </trkpt>
      <trkpt lat="37.9525380" lon="-5.6233430">
        <ele>685.6</ele>
        <time>2022-05-22T08:59:05Z</time>
      </trkpt>
      <trkpt lat="37.9525440" lon="-5.6233520">
        <ele>685.5</ele>
        <time>2022-05-22T08:59:06Z</time>
      </trkpt>
      <trkpt lat="37.9525520" lon="-5.6233650">
        <ele>685.5</ele>
        <time>2022-05-22T08:59:07Z</time>
      </trkpt>
      <trkpt lat="37.9525640" lon="-5.6233790">
        <ele>685.4</ele>
        <time>2022-05-22T08:59:08Z</time>
      </trkpt>
      <trkpt lat="37.9525770" lon="-5.6233930">
        <ele>685.3</ele>
        <time>2022-05-22T08:59:09Z</time>
      </trkpt>
      <trkpt lat="37.9525850" lon="-5.6234010">
        <ele>685.3</ele>
        <time>2022-05-22T08:59:10Z</time>
      </trkpt>
      <trkpt lat="37.9525920" lon="-5.6234080">
        <ele>685.3</ele>
        <time>2022-05-22T08:59:11Z</time>
      </trkpt>
      <trkpt lat="37.9526030" lon="-5.6234210">
        <ele>685.2</ele>
        <time>2022-05-22T08:59:12Z</time>
      </trkpt>
      <trkpt lat="37.9526140" lon="-5.6234340">
        <ele>685.1</ele>
        <time>2022-05-22T08:59:13Z</time>
      </trkpt>
      <trkpt lat="37.9526250" lon="-5.6234470">
        <ele>685.1</ele>
        <time>2022-05-22T08:59:14Z</time>
      </trkpt>
      <trkpt lat="37.9526340" lon="-5.6234570">
        <ele>685.0</ele>
        <time>2022-05-22T08:59:15Z</time>
      </trkpt>
      <trkpt lat="37.9526460" lon="-5.6234700">
        <ele>685.0</ele>
        <time>2022-05-22T08:59:16Z</time>
      </trkpt>
      <trkpt lat="37.9526570" lon="-5.6234820">
        <ele>684.9</ele>
        <time>2022-05-22T08:59:17Z</time>
      </trkpt>
      <trkpt lat="37.9526670" lon="-5.6234950">
        <ele>684.8</ele>
        <time>2022-05-22T08:59:18Z</time>
      </trkpt>
      <trkpt lat="37.9526780" lon="-5.6235090">
        <ele>684.8</ele>
        <time>2022-05-22T08:59:19Z</time>
      </trkpt>
      <trkpt lat="37.9526890" lon="-5.6235220">
        <ele>684.7</ele>
        <time>2022-05-22T08:59:20Z</time>
      </trkpt>
      <trkpt lat="37.9527010" lon="-5.6235350">
        <ele>684.6</ele>
        <time>2022-05-22T08:59:21Z</time>
      </trkpt>
      <trkpt lat="37.9527230" lon="-5.6235600">
        <ele>684.5</ele>
        <time>2022-05-22T08:59:22Z</time>
      </trkpt>
      <trkpt lat="37.9527330" lon="-5.6235710">
        <ele>684.4</ele>
        <time>2022-05-22T08:59:23Z</time>
      </trkpt>
      <trkpt lat="37.9527520" lon="-5.6235870">
        <ele>684.3</ele>
        <time>2022-05-22T08:59:24Z</time>
      </trkpt>
      <trkpt lat="37.9527580" lon="-5.6235930">
        <ele>684.3</ele>
        <time>2022-05-22T08:59:25Z</time>
      </trkpt>
      <trkpt lat="37.9527650" lon="-5.6235990">
        <ele>684.2</ele>
        <time>2022-05-22T08:59:26Z</time>
      </trkpt>
      <trkpt lat="37.9527810" lon="-5.6236160">
        <ele>684.1</ele>
        <time>2022-05-22T08:59:27Z</time>
      </trkpt>
      <trkpt lat="37.9527870" lon="-5.6236220">
        <ele>684.1</ele>
        <time>2022-05-22T08:59:28Z</time>
      </trkpt>
      <trkpt lat="37.9527930" lon="-5.6236280">
        <ele>684.1</ele>
        <time>2022-05-22T08:59:29Z</time>
      </trkpt>
      <trkpt lat="37.9528020" lon="-5.6236350">
        <ele>684.0</ele>
        <time>2022-05-22T08:59:30Z</time>
      </trkpt>
      <trkpt lat="37.9528110" lon="-5.6236440">
        <ele>683.9</ele>
        <time>2022-05-22T08:59:31Z</time>
      </trkpt>
      <trkpt lat="37.9528220" lon="-5.6236530">
        <ele>683.9</ele>
        <time>2022-05-22T08:59:32Z</time>
      </trkpt>
      <trkpt lat="37.9528330" lon="-5.6236630">
        <ele>683.8</ele>
        <time>2022-05-22T08:59:33Z</time>
      </trkpt>
      <trkpt lat="37.9528500" lon="-5.6236790">
        <ele>683.6</ele>
        <time>2022-05-22T08:59:35Z</time>
      </trkpt>
      <trkpt lat="37.9528590" lon="-5.6236870">
        <ele>683.6</ele>
        <time>2022-05-22T08:59:36Z</time>
      </trkpt>
      <trkpt lat="37.9528680" lon="-5.6236960">
        <ele>683.5</ele>
        <time>2022-05-22T08:59:37Z</time>
      </trkpt>
      <trkpt lat="37.9528780" lon="-5.6237060">
        <ele>683.4</ele>
        <time>2022-05-22T08:59:38Z</time>
      </trkpt>
      <trkpt lat="37.9528950" lon="-5.6237230">
        <ele>683.3</ele>
        <time>2022-05-22T08:59:39Z</time>
      </trkpt>
      <trkpt lat="37.9529030" lon="-5.6237300">
        <ele>683.3</ele>
        <time>2022-05-22T08:59:40Z</time>
      </trkpt>
      <trkpt lat="37.9529100" lon="-5.6237370">
        <ele>683.2</ele>
        <time>2022-05-22T08:59:41Z</time>
      </trkpt>
      <trkpt lat="37.9529220" lon="-5.6237470">
        <ele>683.1</ele>
        <time>2022-05-22T08:59:42Z</time>
      </trkpt>
      <trkpt lat="37.9529350" lon="-5.6237580">
        <ele>683.0</ele>
        <time>2022-05-22T08:59:43Z</time>
      </trkpt>
      <trkpt lat="37.9529470" lon="-5.6237690">
        <ele>682.9</ele>
        <time>2022-05-22T08:59:44Z</time>
      </trkpt>
      <trkpt lat="37.9529600" lon="-5.6237820">
        <ele>682.8</ele>
        <time>2022-05-22T08:59:45Z</time>
      </trkpt>
      <trkpt lat="37.9529720" lon="-5.6237940">
        <ele>682.7</ele>
        <time>2022-05-22T08:59:46Z</time>
      </trkpt>
      <trkpt lat="37.9529830" lon="-5.6238070">
        <ele>682.7</ele>
        <time>2022-05-22T08:59:47Z</time>
      </trkpt>
      <trkpt lat="37.9529940" lon="-5.6238220">
        <ele>682.6</ele>
        <time>2022-05-22T08:59:48Z</time>
      </trkpt>
      <trkpt lat="37.9530050" lon="-5.6238380">
        <ele>682.5</ele>
        <time>2022-05-22T08:59:49Z</time>
      </trkpt>
      <trkpt lat="37.9530160" lon="-5.6238540">
        <ele>682.4</ele>
        <time>2022-05-22T08:59:50Z</time>
      </trkpt>
      <trkpt lat="37.9530280" lon="-5.6238680">
        <ele>682.3</ele>
        <time>2022-05-22T08:59:51Z</time>
      </trkpt>
      <trkpt lat="37.9530400" lon="-5.6238810">
        <ele>682.2</ele>
        <time>2022-05-22T08:59:52Z</time>
      </trkpt>
      <trkpt lat="37.9530500" lon="-5.6238960">
        <ele>682.1</ele>
        <time>2022-05-22T08:59:53Z</time>
      </trkpt>
      <trkpt lat="37.9530590" lon="-5.6239120">
        <ele>682.0</ele>
        <time>2022-05-22T08:59:54Z</time>
      </trkpt>
      <trkpt lat="37.9530670" lon="-5.6239240">
        <ele>682.0</ele>
        <time>2022-05-22T08:59:55Z</time>
      </trkpt>
      <trkpt lat="37.9530770" lon="-5.6239380">
        <ele>681.9</ele>
        <time>2022-05-22T08:59:56Z</time>
      </trkpt>
      <trkpt lat="37.9530950" lon="-5.6239640">
        <ele>681.8</ele>
        <time>2022-05-22T08:59:57Z</time>
      </trkpt>
      <trkpt lat="37.9531030" lon="-5.6239780">
        <ele>681.7</ele>
        <time>2022-05-22T08:59:59Z</time>
      </trkpt>
      <trkpt lat="37.9531120" lon="-5.6239910">
        <ele>681.6</ele>
        <time>2022-05-22T09:00:00Z</time>
      </trkpt>
      <trkpt lat="37.9531250" lon="-5.6240110">
        <ele>681.5</ele>
        <time>2022-05-22T09:00:01Z</time>
      </trkpt>
      <trkpt lat="37.9531340" lon="-5.6240260">
        <ele>681.4</ele>
        <time>2022-05-22T09:00:03Z</time>
      </trkpt>
      <trkpt lat="37.9531430" lon="-5.6240370">
        <ele>681.4</ele>
        <time>2022-05-22T09:00:04Z</time>
      </trkpt>
      <trkpt lat="37.9531520" lon="-5.6240480">
        <ele>681.3</ele>
        <time>2022-05-22T09:00:05Z</time>
      </trkpt>
      <trkpt lat="37.9531640" lon="-5.6240580">
        <ele>681.2</ele>
        <time>2022-05-22T09:00:06Z</time>
      </trkpt>
      <trkpt lat="37.9531800" lon="-5.6240720">
        <ele>681.1</ele>
        <time>2022-05-22T09:00:07Z</time>
      </trkpt>
      <trkpt lat="37.9531880" lon="-5.6240790">
        <ele>681.1</ele>
        <time>2022-05-22T09:00:08Z</time>
      </trkpt>
      <trkpt lat="37.9531960" lon="-5.6240860">
        <ele>681.0</ele>
        <time>2022-05-22T09:00:09Z</time>
      </trkpt>
      <trkpt lat="37.9532240" lon="-5.6241050">
        <ele>680.8</ele>
        <time>2022-05-22T09:00:11Z</time>
      </trkpt>
      <trkpt lat="37.9532300" lon="-5.6241090">
        <ele>680.8</ele>
        <time>2022-05-22T09:00:12Z</time>
      </trkpt>
      <trkpt lat="37.9532510" lon="-5.6241240">
        <ele>680.6</ele>
        <time>2022-05-22T09:00:13Z</time>
      </trkpt>
      <trkpt lat="37.9532620" lon="-5.6241300">
        <ele>680.5</ele>
        <time>2022-05-22T09:00:15Z</time>
      </trkpt>
      <trkpt lat="37.9532730" lon="-5.6241370">
        <ele>680.4</ele>
        <time>2022-05-22T09:00:16Z</time>
      </trkpt>
      <trkpt lat="37.9532840" lon="-5.6241430">
        <ele>680.4</ele>
        <time>2022-05-22T09:00:17Z</time>
      </trkpt>
      <trkpt lat="37.9532950" lon="-5.6241490">
        <ele>680.3</ele>
        <time>2022-05-22T09:00:18Z</time>
      </trkpt>
      <trkpt lat="37.9533210" lon="-5.6241580">
        <ele>680.1</ele>
        <time>2022-05-22T09:00:19Z</time>
      </trkpt>
      <trkpt lat="37.9533340" lon="-5.6241610">
        <ele>679.9</ele>
        <time>2022-05-22T09:00:20Z</time>
      </trkpt>
      <trkpt lat="37.9533470" lon="-5.6241640">
        <ele>679.8</ele>
        <time>2022-05-22T09:00:21Z</time>
      </trkpt>
      <trkpt lat="37.9533600" lon="-5.6241690">
        <ele>679.7</ele>
        <time>2022-05-22T09:00:22Z</time>
      </trkpt>
      <trkpt lat="37.9533810" lon="-5.6241750">
        <ele>679.5</ele>
        <time>2022-05-22T09:00:23Z</time>
      </trkpt>
      <trkpt lat="37.9533900" lon="-5.6241770">
        <ele>679.4</ele>
        <time>2022-05-22T09:00:24Z</time>
      </trkpt>
      <trkpt lat="37.9533990" lon="-5.6241800">
        <ele>679.4</ele>
        <time>2022-05-22T09:00:25Z</time>
      </trkpt>
      <trkpt lat="37.9534170" lon="-5.6241830">
        <ele>679.2</ele>
        <time>2022-05-22T09:00:26Z</time>
      </trkpt>
      <trkpt lat="37.9534240" lon="-5.6241840">
        <ele>679.1</ele>
        <time>2022-05-22T09:00:27Z</time>
      </trkpt>
      <trkpt lat="37.9534340" lon="-5.6241850">
        <ele>679.0</ele>
        <time>2022-05-22T09:00:28Z</time>
      </trkpt>
      <trkpt lat="37.9534460" lon="-5.6241890">
        <ele>678.9</ele>
        <time>2022-05-22T09:00:29Z</time>
      </trkpt>
      <trkpt lat="37.9534580" lon="-5.6241940">
        <ele>678.8</ele>
        <time>2022-05-22T09:00:30Z</time>
      </trkpt>
      <trkpt lat="37.9534800" lon="-5.6242030">
        <ele>678.6</ele>
        <time>2022-05-22T09:00:32Z</time>
      </trkpt>
      <trkpt lat="37.9535030" lon="-5.6242120">
        <ele>678.3</ele>
        <time>2022-05-22T09:00:33Z</time>
      </trkpt>
      <trkpt lat="37.9535150" lon="-5.6242160">
        <ele>678.2</ele>
        <time>2022-05-22T09:00:35Z</time>
      </trkpt>
      <trkpt lat="37.9535270" lon="-5.6242210">
        <ele>678.1</ele>
        <time>2022-05-22T09:00:36Z</time>
      </trkpt>
      <trkpt lat="37.9535390" lon="-5.6242250">
        <ele>677.9</ele>
        <time>2022-05-22T09:00:37Z</time>
      </trkpt>
      <trkpt lat="37.9535510" lon="-5.6242290">
        <ele>677.8</ele>
        <time>2022-05-22T09:00:38Z</time>
      </trkpt>
      <trkpt lat="37.9535640" lon="-5.6242330">
        <ele>677.7</ele>
        <time>2022-05-22T09:00:39Z</time>
      </trkpt>
      <trkpt lat="37.9535780" lon="-5.6242370">
        <ele>677.5</ele>
        <time>2022-05-22T09:00:40Z</time>
      </trkpt>
      <trkpt lat="37.9536080" lon="-5.6242410">
        <ele>677.2</ele>
        <time>2022-05-22T09:00:41Z</time>
      </trkpt>
      <trkpt lat="37.9536140" lon="-5.6242420">
        <ele>677.1</ele>
        <time>2022-05-22T09:00:42Z</time>
      </trkpt>
      <trkpt lat="37.9536250" lon="-5.6242440">
        <ele>677.0</ele>
        <time>2022-05-22T09:00:43Z</time>
      </trkpt>
      <trkpt lat="37.9536330" lon="-5.6242450">
        <ele>676.9</ele>
        <time>2022-05-22T09:00:44Z</time>
      </trkpt>
      <trkpt lat="37.9536450" lon="-5.6242460">
        <ele>676.8</ele>
        <time>2022-05-22T09:00:45Z</time>
      </trkpt>
      <trkpt lat="37.9536570" lon="-5.6242420">
        <ele>676.6</ele>
        <time>2022-05-22T09:00:46Z</time>
      </trkpt>
      <trkpt lat="37.9536710" lon="-5.6242350">
        <ele>676.5</ele>
        <time>2022-05-22T09:00:47Z</time>
      </trkpt>
      <trkpt lat="37.9536820" lon="-5.6242300">
        <ele>676.4</ele>
        <time>2022-05-22T09:00:48Z</time>
      </trkpt>
      <trkpt lat="37.9536920" lon="-5.6242280">
        <ele>676.2</ele>
        <time>2022-05-22T09:00:49Z</time>
      </trkpt>
      <trkpt lat="37.9537050" lon="-5.6242250">
        <ele>676.1</ele>
        <time>2022-05-22T09:00:50Z</time>
      </trkpt>
      <trkpt lat="37.9537190" lon="-5.6242240">
        <ele>675.9</ele>
        <time>2022-05-22T09:00:51Z</time>
      </trkpt>
      <trkpt lat="37.9537450" lon="-5.6242260">
        <ele>675.6</ele>
        <time>2022-05-22T09:00:53Z</time>
      </trkpt>
      <trkpt lat="37.9537570" lon="-5.6242240">
        <ele>675.5</ele>
        <time>2022-05-22T09:00:54Z</time>
      </trkpt>
      <trkpt lat="37.9537670" lon="-5.6242210">
        <ele>675.4</ele>
        <time>2022-05-22T09:00:55Z</time>
      </trkpt>
      <trkpt lat="37.9537780" lon="-5.6242200">
        <ele>675.3</ele>
        <time>2022-05-22T09:00:56Z</time>
      </trkpt>
      <trkpt lat="37.9538000" lon="-5.6242180">
        <ele>675.0</ele>
        <time>2022-05-22T09:00:57Z</time>
      </trkpt>
      <trkpt lat="37.9538100" lon="-5.6242170">
        <ele>674.9</ele>
        <time>2022-05-22T09:00:58Z</time>
      </trkpt>
      <trkpt lat="37.9538190" lon="-5.6242160">
        <ele>674.8</ele>
        <time>2022-05-22T09:00:59Z</time>
      </trkpt>
      <trkpt lat="37.9538340" lon="-5.6242170">
        <ele>674.6</ele>
        <time>2022-05-22T09:01:00Z</time>
      </trkpt>
      <trkpt lat="37.9538480" lon="-5.6242210">
        <ele>674.5</ele>
        <time>2022-05-22T09:01:01Z</time>
      </trkpt>
      <trkpt lat="37.9538600" lon="-5.6242220">
        <ele>674.3</ele>
        <time>2022-05-22T09:01:02Z</time>
      </trkpt>
      <trkpt lat="37.9538890" lon="-5.6242460">
        <ele>673.9</ele>
        <time>2022-05-22T09:01:03Z</time>
      </trkpt>
      <trkpt lat="37.9539040" lon="-5.6242520">
        <ele>673.7</ele>
        <time>2022-05-22T09:01:04Z</time>
      </trkpt>
      <trkpt lat="37.9539200" lon="-5.6242560">
        <ele>673.6</ele>
        <time>2022-05-22T09:01:05Z</time>
      </trkpt>
      <trkpt lat="37.9539350" lon="-5.6242580">
        <ele>673.4</ele>
        <time>2022-05-22T09:01:06Z</time>
      </trkpt>
      <trkpt lat="37.9539480" lon="-5.6242590">
        <ele>673.2</ele>
        <time>2022-05-22T09:01:07Z</time>
      </trkpt>
      <trkpt lat="37.9539670" lon="-5.6242630">
        <ele>673.0</ele>
        <time>2022-05-22T09:01:08Z</time>
      </trkpt>
      <trkpt lat="37.9539920" lon="-5.6242690">
        <ele>672.7</ele>
        <time>2022-05-22T09:01:09Z</time>
      </trkpt>
      <trkpt lat="37.9540040" lon="-5.6242710">
        <ele>672.6</ele>
        <time>2022-05-22T09:01:11Z</time>
      </trkpt>
      <trkpt lat="37.9540160" lon="-5.6242730">
        <ele>672.5</ele>
        <time>2022-05-22T09:01:12Z</time>
      </trkpt>
      <trkpt lat="37.9540280" lon="-5.6242750">
        <ele>672.3</ele>
        <time>2022-05-22T09:01:13Z</time>
      </trkpt>
      <trkpt lat="37.9540400" lon="-5.6242760">
        <ele>672.2</ele>
        <time>2022-05-22T09:01:14Z</time>
      </trkpt>
      <trkpt lat="37.9540610" lon="-5.6242720">
        <ele>671.9</ele>
        <time>2022-05-22T09:01:15Z</time>
      </trkpt>
      <trkpt lat="37.9540700" lon="-5.6242680">
        <ele>671.8</ele>
        <time>2022-05-22T09:01:16Z</time>
      </trkpt>
      <trkpt lat="37.9540780" lon="-5.6242640">
        <ele>671.7</ele>
        <time>2022-05-22T09:01:17Z</time>
      </trkpt>
      <trkpt lat="37.9541040" lon="-5.6242530">
        <ele>671.4</ele>
        <time>2022-05-22T09:01:18Z</time>
      </trkpt>
      <trkpt lat="37.9541180" lon="-5.6242470">
        <ele>671.3</ele>
        <time>2022-05-22T09:01:19Z</time>
      </trkpt>
      <trkpt lat="37.9541310" lon="-5.6242420">
        <ele>671.1</ele>
        <time>2022-05-22T09:01:20Z</time>
      </trkpt>
      <trkpt lat="37.9541510" lon="-5.6242330">
        <ele>670.9</ele>
        <time>2022-05-22T09:01:22Z</time>
      </trkpt>
      <trkpt lat="37.9541750" lon="-5.6242350">
        <ele>670.6</ele>
        <time>2022-05-22T09:01:23Z</time>
      </trkpt>
      <trkpt lat="37.9541860" lon="-5.6242380">
        <ele>670.5</ele>
        <time>2022-05-22T09:01:24Z</time>
      </trkpt>
      <trkpt lat="37.9541960" lon="-5.6242400">
        <ele>670.4</ele>
        <time>2022-05-22T09:01:25Z</time>
      </trkpt>
      <trkpt lat="37.9542170" lon="-5.6242390">
        <ele>670.2</ele>
        <time>2022-05-22T09:01:26Z</time>
      </trkpt>
      <trkpt lat="37.9542340" lon="-5.6242340">
        <ele>670.0</ele>
        <time>2022-05-22T09:01:28Z</time>
      </trkpt>
      <trkpt lat="37.9542470" lon="-5.6242300">
        <ele>669.9</ele>
        <time>2022-05-22T09:01:29Z</time>
      </trkpt>
      <trkpt lat="37.9542650" lon="-5.6242280">
        <ele>669.7</ele>
        <time>2022-05-22T09:01:30Z</time>
      </trkpt>
      <trkpt lat="37.9542830" lon="-5.6242380">
        <ele>669.5</ele>
        <time>2022-05-22T09:01:32Z</time>
      </trkpt>
      <trkpt lat="37.9542920" lon="-5.6242460">
        <ele>669.4</ele>
        <time>2022-05-22T09:01:33Z</time>
      </trkpt>
      <trkpt lat="37.9542980" lon="-5.6242520">
        <ele>669.3</ele>
        <time>2022-05-22T09:01:34Z</time>
      </trkpt>
      <trkpt lat="37.9543070" lon="-5.6242600">
        <ele>669.2</ele>
        <time>2022-05-22T09:01:35Z</time>
      </trkpt>
      <trkpt lat="37.9543220" lon="-5.6242670">
        <ele>669.1</ele>
        <time>2022-05-22T09:01:36Z</time>
      </trkpt>
      <trkpt lat="37.9543510" lon="-5.6242750">
        <ele>668.8</ele>
        <time>2022-05-22T09:01:37Z</time>
      </trkpt>
      <trkpt lat="37.9543610" lon="-5.6242760">
        <ele>668.7</ele>
        <time>2022-05-22T09:01:39Z</time>
      </trkpt>
      <trkpt lat="37.9543720" lon="-5.6242780">
        <ele>668.6</ele>
        <time>2022-05-22T09:01:40Z</time>
      </trkpt>
      <trkpt lat="37.9543830" lon="-5.6242790">
        <ele>668.5</ele>
        <time>2022-05-22T09:01:41Z</time>
      </trkpt>
      <trkpt lat="37.9543940" lon="-5.6242800">
        <ele>668.4</ele>
        <time>2022-05-22T09:01:42Z</time>
      </trkpt>
      <trkpt lat="37.9544090" lon="-5.6242800">
        <ele>668.2</ele>
        <time>2022-05-22T09:01:43Z</time>
      </trkpt>
      <trkpt lat="37.9544250" lon="-5.6242810">
        <ele>668.1</ele>
        <time>2022-05-22T09:01:44Z</time>
      </trkpt>
      <trkpt lat="37.9544410" lon="-5.6242800">
        <ele>667.9</ele>
        <time>2022-05-22T09:01:45Z</time>
      </trkpt>
      <trkpt lat="37.9544580" lon="-5.6242780">
        <ele>667.8</ele>
        <time>2022-05-22T09:01:46Z</time>
      </trkpt>
      <trkpt lat="37.9544910" lon="-5.6242720">
        <ele>667.5</ele>
        <time>2022-05-22T09:01:47Z</time>
      </trkpt>
      <trkpt lat="37.9545120" lon="-5.6242650">
        <ele>667.2</ele>
        <time>2022-05-22T09:01:48Z</time>
      </trkpt>
      <trkpt lat="37.9545240" lon="-5.6242620">
        <ele>667.1</ele>
        <time>2022-05-22T09:01:49Z</time>
      </trkpt>
      <trkpt lat="37.9545330" lon="-5.6242590">
        <ele>667.0</ele>
        <time>2022-05-22T09:01:51Z</time>
      </trkpt>
      <trkpt lat="37.9545350" lon="-5.6242570">
        <ele>667.0</ele>
        <time>2022-05-22T09:01:52Z</time>
      </trkpt>
      <trkpt lat="37.9545410" lon="-5.6242560">
        <ele>667.0</ele>
        <time>2022-05-22T09:01:53Z</time>
      </trkpt>
      <trkpt lat="37.9545500" lon="-5.6242570">
        <ele>666.9</ele>
        <time>2022-05-22T09:01:54Z</time>
      </trkpt>
      <trkpt lat="37.9545590" lon="-5.6242580">
        <ele>666.8</ele>
        <time>2022-05-22T09:01:55Z</time>
      </trkpt>
      <trkpt lat="37.9545710" lon="-5.6242610">
        <ele>666.7</ele>
        <time>2022-05-22T09:01:56Z</time>
      </trkpt>
      <trkpt lat="37.9545820" lon="-5.6242650">
        <ele>666.6</ele>
        <time>2022-05-22T09:01:57Z</time>
      </trkpt>
      <trkpt lat="37.9546040" lon="-5.6242740">
        <ele>666.3</ele>
        <time>2022-05-22T09:01:59Z</time>
      </trkpt>
      <trkpt lat="37.9546170" lon="-5.6242790">
        <ele>666.2</ele>
        <time>2022-05-22T09:02:00Z</time>
      </trkpt>
      <trkpt lat="37.9546300" lon="-5.6242880">
        <ele>665.9</ele>
        <time>2022-05-22T09:02:01Z</time>
      </trkpt>
      <trkpt lat="37.9546510" lon="-5.6242990">
        <ele>665.8</ele>
        <time>2022-05-22T09:02:02Z</time>
      </trkpt>
      <trkpt lat="37.9546670" lon="-5.6243090">
        <ele>665.5</ele>
        <time>2022-05-22T09:02:04Z</time>
      </trkpt>
      <trkpt lat="37.9546810" lon="-5.6243150">
        <ele>665.5</ele>
        <time>2022-05-22T09:02:05Z</time>
      </trkpt>
      <trkpt lat="37.9546930" lon="-5.6243210">
        <ele>665.2</ele>
        <time>2022-05-22T09:02:06Z</time>
      </trkpt>
      <trkpt lat="37.9547120" lon="-5.6243310">
        <ele>665.1</ele>
        <time>2022-05-22T09:02:07Z</time>
      </trkpt>
      <trkpt lat="37.9547230" lon="-5.6243370">
        <ele>664.8</ele>
        <time>2022-05-22T09:02:08Z</time>
      </trkpt>
      <trkpt lat="37.9547320" lon="-5.6243410">
        <ele>664.7</ele>
        <time>2022-05-22T09:02:09Z</time>
      </trkpt>
      <trkpt lat="37.9547410" lon="-5.6243420">
        <ele>664.6</ele>
        <time>2022-05-22T09:02:10Z</time>
      </trkpt>
      <trkpt lat="37.9547500" lon="-5.6243450">
        <ele>664.5</ele>
        <time>2022-05-22T09:02:11Z</time>
      </trkpt>
      <trkpt lat="37.9547590" lon="-5.6243500">
        <ele>664.3</ele>
        <time>2022-05-22T09:02:12Z</time>
      </trkpt>
      <trkpt lat="37.9547700" lon="-5.6243570">
        <ele>664.3</ele>
        <time>2022-05-22T09:02:14Z</time>
      </trkpt>
      <trkpt lat="37.9547810" lon="-5.6243660">
        <ele>664.1</ele>
        <time>2022-05-22T09:02:15Z</time>
      </trkpt>
      <trkpt lat="37.9547920" lon="-5.6243800">
        <ele>664.0</ele>
        <time>2022-05-22T09:02:16Z</time>
      </trkpt>
      <trkpt lat="37.9548040" lon="-5.6244010">
        <ele>664.0</ele>
        <time>2022-05-22T09:02:18Z</time>
      </trkpt>
      <trkpt lat="37.9548030" lon="-5.6244110">
        <ele>663.9</ele>
        <time>2022-05-22T09:02:19Z</time>
      </trkpt>
      <trkpt lat="37.9547990" lon="-5.6244160">
        <ele>663.8</ele>
        <time>2022-05-22T09:02:20Z</time>
      </trkpt>
      <trkpt lat="37.9547910" lon="-5.6244170">
        <ele>663.7</ele>
        <time>2022-05-22T09:02:21Z</time>
      </trkpt>
      <trkpt lat="37.9547870" lon="-5.6244170">
        <ele>663.6</ele>
        <time>2022-05-22T09:02:22Z</time>
      </trkpt>
      <trkpt lat="37.9547850" lon="-5.6244160">
        <ele>663.5</ele>
        <time>2022-05-22T09:02:23Z</time>
      </trkpt>
      <trkpt lat="37.9547870" lon="-5.6244190">
        <ele>663.4</ele>
        <time>2022-05-22T09:02:24Z</time>
      </trkpt>
      <trkpt lat="37.9547880" lon="-5.6244230">
        <ele>663.3</ele>
        <time>2022-05-22T09:02:25Z</time>
      </trkpt>
      <trkpt lat="37.9547890" lon="-5.6244290">
        <ele>663.1</ele>
        <time>2022-05-22T09:02:26Z</time>
      </trkpt>
      <trkpt lat="37.9547970" lon="-5.6244490">
        <ele>663.1</ele>
        <time>2022-05-22T09:02:28Z</time>
      </trkpt>
      <trkpt lat="37.9548290" lon="-5.6244930">
        <ele>663.2</ele>
        <time>2022-05-22T09:02:30Z</time>
      </trkpt>
      <trkpt lat="37.9548380" lon="-5.6245030">
        <ele>663.0</ele>
        <time>2022-05-22T09:02:32Z</time>
      </trkpt>
      <trkpt lat="37.9548480" lon="-5.6245130">
        <ele>662.9</ele>
        <time>2022-05-22T09:02:33Z</time>
      </trkpt>
      <trkpt lat="37.9548620" lon="-5.6245230">
        <ele>662.8</ele>
        <time>2022-05-22T09:02:34Z</time>
      </trkpt>
      <trkpt lat="37.9548730" lon="-5.6245310">
        <ele>662.9</ele>
        <time>2022-05-22T09:02:35Z</time>
      </trkpt>
      <trkpt lat="37.9548860" lon="-5.6245400">
        <ele>662.7</ele>
        <time>2022-05-22T09:02:36Z</time>
      </trkpt>
      <trkpt lat="37.9549000" lon="-5.6245530">
        <ele>662.6</ele>
        <time>2022-05-22T09:02:38Z</time>
      </trkpt>
      <trkpt lat="37.9548990" lon="-5.6245570">
        <ele>662.5</ele>
        <time>2022-05-22T09:02:39Z</time>
      </trkpt>
      <trkpt lat="37.9548980" lon="-5.6245580">
        <ele>662.4</ele>
        <time>2022-05-22T09:02:40Z</time>
      </trkpt>
      <trkpt lat="37.9548970" lon="-5.6245580">
        <ele>662.3</ele>
        <time>2022-05-22T09:02:41Z</time>
      </trkpt>
      <trkpt lat="37.9548970" lon="-5.6245570">
        <ele>662.2</ele>
        <time>2022-05-22T09:02:42Z</time>
      </trkpt>
      <trkpt lat="37.9548950" lon="-5.6245540">
        <ele>662.1</ele>
        <time>2022-05-22T09:02:44Z</time>
      </trkpt>
      <trkpt lat="37.9548940" lon="-5.6245540">
        <ele>662.0</ele>
        <time>2022-05-22T09:02:45Z</time>
      </trkpt>
      <trkpt lat="37.9548930" lon="-5.6245550">
        <ele>661.9</ele>
        <time>2022-05-22T09:02:46Z</time>
      </trkpt>
      <trkpt lat="37.9548920" lon="-5.6245550">
        <ele>661.7</ele>
        <time>2022-05-22T09:02:47Z</time>
      </trkpt>
      <trkpt lat="37.9548920" lon="-5.6245550">
        <ele>661.6</ele>
        <time>2022-05-22T09:02:48Z</time>
      </trkpt>
      <trkpt lat="37.9548930" lon="-5.6245560">
        <ele>661.5</ele>
        <time>2022-05-22T09:02:49Z</time>
      </trkpt>
      <trkpt lat="37.9548930" lon="-5.6245560">
        <ele>661.4</ele>
        <time>2022-05-22T09:02:50Z</time>
      </trkpt>
      <trkpt lat="37.9548930" lon="-5.6245560">
        <ele>661.3</ele>
        <time>2022-05-22T09:02:51Z</time>
      </trkpt>
      <trkpt lat="37.9548920" lon="-5.6245560">
        <ele>661.2</ele>
        <time>2022-05-22T09:02:52Z</time>
      </trkpt>
      <trkpt lat="37.9548920" lon="-5.6245560">
        <ele>661.1</ele>
        <time>2022-05-22T09:02:53Z</time>
      </trkpt>
      <trkpt lat="37.9548920" lon="-5.6245560">
        <ele>660.9</ele>
        <time>2022-05-22T09:02:54Z</time>
      </trkpt>
      <trkpt lat="37.9548920" lon="-5.6245560">
        <ele>660.8</ele>
        <time>2022-05-22T09:02:55Z</time>
      </trkpt>
      <trkpt lat="37.9548900" lon="-5.6245590">
        <ele>660.7</ele>
        <time>2022-05-22T09:02:56Z</time>
      </trkpt>
      <trkpt lat="37.9548900" lon="-5.6245640">
        <ele>660.6</ele>
        <time>2022-05-22T09:02:57Z</time>
      </trkpt>
      <trkpt lat="37.9548890" lon="-5.6245720">
        <ele>660.6</ele>
        <time>2022-05-22T09:02:58Z</time>
      </trkpt>
      <trkpt lat="37.9548830" lon="-5.6245870">
        <ele>660.4</ele>
        <time>2022-05-22T09:02:59Z</time>
      </trkpt>
      <trkpt lat="37.9548810" lon="-5.6246050">
        <ele>660.4</ele>
        <time>2022-05-22T09:03:01Z</time>
      </trkpt>
      <trkpt lat="37.9548830" lon="-5.6246290">
        <ele>660.4</ele>
        <time>2022-05-22T09:03:02Z</time>
      </trkpt>
      <trkpt lat="37.9548890" lon="-5.6246400">
        <ele>660.4</ele>
        <time>2022-05-22T09:03:03Z</time>
      </trkpt>
      <trkpt lat="37.9548930" lon="-5.6246420">
        <ele>660.4</ele>
        <time>2022-05-22T09:03:04Z</time>
      </trkpt>
      <trkpt lat="37.9548970" lon="-5.6246420">
        <ele>660.4</ele>
        <time>2022-05-22T09:03:05Z</time>
      </trkpt>
      <trkpt lat="37.9548990" lon="-5.6246430">
        <ele>660.4</ele>
        <time>2022-05-22T09:03:06Z</time>
      </trkpt>
      <trkpt lat="37.9549010" lon="-5.6246450">
        <ele>660.4</ele>
        <time>2022-05-22T09:03:07Z</time>
      </trkpt>
      <trkpt lat="37.9549010" lon="-5.6246490">
        <ele>660.4</ele>
        <time>2022-05-22T09:03:08Z</time>
      </trkpt>
      <trkpt lat="37.9549010" lon="-5.6246510">
        <ele>660.4</ele>
        <time>2022-05-22T09:03:09Z</time>
      </trkpt>
      <trkpt lat="37.9549010" lon="-5.6246530">
        <ele>660.4</ele>
        <time>2022-05-22T09:03:10Z</time>
      </trkpt>
      <trkpt lat="37.9549010" lon="-5.6246540">
        <ele>660.4</ele>
        <time>2022-05-22T09:03:11Z</time>
      </trkpt>
      <trkpt lat="37.9549010" lon="-5.6246560">
        <ele>660.4</ele>
        <time>2022-05-22T09:03:12Z</time>
      </trkpt>
      <trkpt lat="37.9549020" lon="-5.6246530">
        <ele>660.4</ele>
        <time>2022-05-22T09:03:13Z</time>
      </trkpt>
      <trkpt lat="37.9549030" lon="-5.6246480">
        <ele>660.4</ele>
        <time>2022-05-22T09:03:14Z</time>
      </trkpt>
      <trkpt lat="37.9549040" lon="-5.6246440">
        <ele>660.4</ele>
        <time>2022-05-22T09:03:15Z</time>
      </trkpt>
      <trkpt lat="37.9549060" lon="-5.6246390">
        <ele>660.4</ele>
        <time>2022-05-22T09:03:16Z</time>
      </trkpt>
      <trkpt lat="37.9549070" lon="-5.6246340">
        <ele>660.4</ele>
        <time>2022-05-22T09:03:17Z</time>
      </trkpt>
      <trkpt lat="37.9549080" lon="-5.6246290">
        <ele>660.4</ele>
        <time>2022-05-22T09:03:18Z</time>
      </trkpt>
      <trkpt lat="37.9549090" lon="-5.6246250">
        <ele>660.4</ele>
        <time>2022-05-22T09:03:19Z</time>
      </trkpt>
      <trkpt lat="37.9549100" lon="-5.6246200">
        <ele>660.4</ele>
        <time>2022-05-22T09:03:20Z</time>
      </trkpt>
      <trkpt lat="37.9549110" lon="-5.6246150">
        <ele>660.4</ele>
        <time>2022-05-22T09:03:21Z</time>
      </trkpt>
      <trkpt lat="37.9549120" lon="-5.6246100">
        <ele>660.4</ele>
        <time>2022-05-22T09:03:22Z</time>
      </trkpt>
      <trkpt lat="37.9549130" lon="-5.6246060">
        <ele>660.4</ele>
        <time>2022-05-22T09:03:23Z</time>
      </trkpt>
      <trkpt lat="37.9549150" lon="-5.6246010">
        <ele>660.4</ele>
        <time>2022-05-22T09:03:24Z</time>
      </trkpt>
      <trkpt lat="37.9549160" lon="-5.6245960">
        <ele>660.4</ele>
        <time>2022-05-22T09:03:25Z</time>
      </trkpt>
      <trkpt lat="37.9549170" lon="-5.6245910">
        <ele>660.4</ele>
        <time>2022-05-22T09:03:26Z</time>
      </trkpt>
      <trkpt lat="37.9549180" lon="-5.6245870">
        <ele>660.4</ele>
        <time>2022-05-22T09:03:27Z</time>
      </trkpt>
      <trkpt lat="37.9549190" lon="-5.6245820">
        <ele>660.4</ele>
        <time>2022-05-22T09:03:28Z</time>
      </trkpt>
      <trkpt lat="37.9549200" lon="-5.6245770">
        <ele>660.4</ele>
        <time>2022-05-22T09:03:29Z</time>
      </trkpt>
      <trkpt lat="37.9549210" lon="-5.6245720">
        <ele>660.4</ele>
        <time>2022-05-22T09:03:30Z</time>
      </trkpt>
      <trkpt lat="37.9549230" lon="-5.6245680">
        <ele>660.4</ele>
        <time>2022-05-22T09:03:31Z</time>
      </trkpt>
      <trkpt lat="37.9549240" lon="-5.6245630">
        <ele>660.4</ele>
        <time>2022-05-22T09:03:32Z</time>
      </trkpt>
      <trkpt lat="37.9549250" lon="-5.6245580">
        <ele>660.4</ele>
        <time>2022-05-22T09:03:33Z</time>
      </trkpt>
      <trkpt lat="37.9549260" lon="-5.6245530">
        <ele>660.4</ele>
        <time>2022-05-22T09:03:34Z</time>
      </trkpt>
      <trkpt lat="37.9549270" lon="-5.6245490">
        <ele>660.4</ele>
        <time>2022-05-22T09:03:35Z</time>
      </trkpt>
      <trkpt lat="37.9549280" lon="-5.6245440">
        <ele>660.4</ele>
        <time>2022-05-22T09:03:36Z</time>
      </trkpt>
      <trkpt lat="37.9549290" lon="-5.6245390">
        <ele>660.4</ele>
        <time>2022-05-22T09:03:37Z</time>
      </trkpt>
      <trkpt lat="37.9549300" lon="-5.6245340">
        <ele>660.4</ele>
        <time>2022-05-22T09:03:38Z</time>
      </trkpt>
      <trkpt lat="37.9549320" lon="-5.6245300">
        <ele>660.4</ele>
        <time>2022-05-22T09:03:39Z</time>
      </trkpt>
      <trkpt lat="37.9549330" lon="-5.6245250">
        <ele>660.4</ele>
        <time>2022-05-22T09:03:40Z</time>
      </trkpt>
      <trkpt lat="37.9549340" lon="-5.6245200">
        <ele>660.4</ele>
        <time>2022-05-22T09:03:41Z</time>
      </trkpt>
      <trkpt lat="37.9549350" lon="-5.6245160">
        <ele>660.4</ele>
        <time>2022-05-22T09:03:42Z</time>
      </trkpt>
      <trkpt lat="37.9549360" lon="-5.6245110">
        <ele>660.4</ele>
        <time>2022-05-22T09:03:43Z</time>
      </trkpt>
      <trkpt lat="37.9549370" lon="-5.6245060">
        <ele>660.4</ele>
        <time>2022-05-22T09:03:44Z</time>
      </trkpt>
      <trkpt lat="37.9549380" lon="-5.6245010">
        <ele>660.4</ele>
        <time>2022-05-22T09:03:45Z</time>
      </trkpt>
      <trkpt lat="37.9549390" lon="-5.6244970">
        <ele>660.4</ele>
        <time>2022-05-22T09:03:46Z</time>
      </trkpt>
      <trkpt lat="37.9549410" lon="-5.6244920">
        <ele>660.4</ele>
        <time>2022-05-22T09:03:47Z</time>
      </trkpt>
      <trkpt lat="37.9549420" lon="-5.6244870">
        <ele>660.4</ele>
        <time>2022-05-22T09:03:48Z</time>
      </trkpt>
      <trkpt lat="37.9549430" lon="-5.6244820">
        <ele>660.4</ele>
        <time>2022-05-22T09:03:49Z</time>
      </trkpt>
      <trkpt lat="37.9549440" lon="-5.6244780">
        <ele>660.4</ele>
        <time>2022-05-22T09:12:08Z</time>
      </trkpt>
      <trkpt lat="37.9549450" lon="-5.6244730">
        <ele>660.4</ele>
        <time>2022-05-22T09:12:09Z</time>
      </trkpt>
      <trkpt lat="37.9549170" lon="-5.6245230">
        <ele>660.4</ele>
        <time>2022-05-22T09:12:10Z</time>
      </trkpt>
      <trkpt lat="37.9549470" lon="-5.6245340">
        <ele>660.4</ele>
        <time>2022-05-22T09:12:12Z</time>
      </trkpt>
      <trkpt lat="37.9549620" lon="-5.6245250">
        <ele>660.4</ele>
        <time>2022-05-22T09:12:13Z</time>
      </trkpt>
      <trkpt lat="37.9549750" lon="-5.6245130">
        <ele>660.4</ele>
        <time>2022-05-22T09:12:14Z</time>
      </trkpt>
      <trkpt lat="37.9549890" lon="-5.6245000">
        <ele>660.3</ele>
        <time>2022-05-22T09:12:15Z</time>
      </trkpt>
      <trkpt lat="37.9550170" lon="-5.6244730">
        <ele>660.3</ele>
        <time>2022-05-22T09:12:16Z</time>
      </trkpt>
      <trkpt lat="37.9550220" lon="-5.6244640">
        <ele>660.2</ele>
        <time>2022-05-22T09:12:17Z</time>
      </trkpt>
      <trkpt lat="37.9550290" lon="-5.6244440">
        <ele>660.2</ele>
        <time>2022-05-22T09:12:18Z</time>
      </trkpt>
      <trkpt lat="37.9550300" lon="-5.6244460">
        <ele>660.2</ele>
        <time>2022-05-22T09:12:19Z</time>
      </trkpt>
      <trkpt lat="37.9550310" lon="-5.6244500">
        <ele>660.2</ele>
        <time>2022-05-22T09:12:20Z</time>
      </trkpt>
      <trkpt lat="37.9550390" lon="-5.6244100">
        <ele>660.0</ele>
        <time>2022-05-22T09:12:22Z</time>
      </trkpt>
      <trkpt lat="37.9550360" lon="-5.6243900">
        <ele>660.0</ele>
        <time>2022-05-22T09:12:23Z</time>
      </trkpt>
      <trkpt lat="37.9550330" lon="-5.6243790">
        <ele>660.0</ele>
        <time>2022-05-22T09:12:24Z</time>
      </trkpt>
      <trkpt lat="37.9550280" lon="-5.6243690">
        <ele>659.9</ele>
        <time>2022-05-22T09:12:25Z</time>
      </trkpt>
      <trkpt lat="37.9550270" lon="-5.6243670">
        <ele>659.9</ele>
        <time>2022-05-22T09:12:26Z</time>
      </trkpt>
      <trkpt lat="37.9550250" lon="-5.6243610">
        <ele>659.9</ele>
        <time>2022-05-22T09:12:27Z</time>
      </trkpt>
      <trkpt lat="37.9550260" lon="-5.6243570">
        <ele>659.9</ele>
        <time>2022-05-22T09:12:29Z</time>
      </trkpt>
      <trkpt lat="37.9550280" lon="-5.6243540">
        <ele>659.9</ele>
        <time>2022-05-22T09:12:30Z</time>
      </trkpt>
      <trkpt lat="37.9550330" lon="-5.6243500">
        <ele>659.9</ele>
        <time>2022-05-22T09:12:31Z</time>
      </trkpt>
      <trkpt lat="37.9550360" lon="-5.6243460">
        <ele>659.8</ele>
        <time>2022-05-22T09:12:32Z</time>
      </trkpt>
      <trkpt lat="37.9550410" lon="-5.6243430">
        <ele>659.8</ele>
        <time>2022-05-22T09:12:33Z</time>
      </trkpt>
      <trkpt lat="37.9550480" lon="-5.6243410">
        <ele>659.8</ele>
        <time>2022-05-22T09:12:35Z</time>
      </trkpt>
      <trkpt lat="37.9550540" lon="-5.6243390">
        <ele>659.8</ele>
        <time>2022-05-22T09:12:36Z</time>
      </trkpt>
      <trkpt lat="37.9550620" lon="-5.6243350">
        <ele>659.8</ele>
        <time>2022-05-22T09:12:37Z</time>
      </trkpt>
      <trkpt lat="37.9550710" lon="-5.6243320">
        <ele>659.7</ele>
        <time>2022-05-22T09:12:38Z</time>
      </trkpt>
      <trkpt lat="37.9550810" lon="-5.6243300">
        <ele>659.7</ele>
        <time>2022-05-22T09:12:39Z</time>
      </trkpt>
      <trkpt lat="37.9550940" lon="-5.6243310">
        <ele>659.7</ele>
        <time>2022-05-22T09:12:40Z</time>
      </trkpt>
      <trkpt lat="37.9550950" lon="-5.6243370">
        <ele>659.6</ele>
        <time>2022-05-22T09:12:41Z</time>
      </trkpt>
      <trkpt lat="37.9551010" lon="-5.6243430">
        <ele>659.6</ele>
        <time>2022-05-22T09:12:42Z</time>
      </trkpt>
      <trkpt lat="37.9551070" lon="-5.6243490">
        <ele>659.6</ele>
        <time>2022-05-22T09:12:43Z</time>
      </trkpt>
      <trkpt lat="37.9551120" lon="-5.6243540">
        <ele>659.6</ele>
        <time>2022-05-22T09:12:45Z</time>
      </trkpt>
      <trkpt lat="37.9551140" lon="-5.6243550">
        <ele>659.6</ele>
        <time>2022-05-22T09:12:46Z</time>
      </trkpt>
      <trkpt lat="37.9551150" lon="-5.6243560">
        <ele>659.6</ele>
        <time>2022-05-22T09:12:47Z</time>
      </trkpt>
      <trkpt lat="37.9551170" lon="-5.6243590">
        <ele>659.6</ele>
        <time>2022-05-22T09:12:48Z</time>
      </trkpt>
      <trkpt lat="37.9551190" lon="-5.6243580">
        <ele>659.6</ele>
        <time>2022-05-22T09:12:50Z</time>
      </trkpt>
      <trkpt lat="37.9551230" lon="-5.6243570">
        <ele>659.6</ele>
        <time>2022-05-22T09:12:51Z</time>
      </trkpt>
      <trkpt lat="37.9551280" lon="-5.6243550">
        <ele>659.5</ele>
        <time>2022-05-22T09:12:52Z</time>
      </trkpt>
      <trkpt lat="37.9551340" lon="-5.6243520">
        <ele>659.5</ele>
        <time>2022-05-22T09:12:53Z</time>
      </trkpt>
      <trkpt lat="37.9551420" lon="-5.6243490">
        <ele>659.5</ele>
        <time>2022-05-22T09:12:54Z</time>
      </trkpt>
      <trkpt lat="37.9551580" lon="-5.6243410">
        <ele>659.5</ele>
        <time>2022-05-22T09:12:55Z</time>
      </trkpt>
      <trkpt lat="37.9551780" lon="-5.6243320">
        <ele>659.4</ele>
        <time>2022-05-22T09:12:57Z</time>
      </trkpt>
      <trkpt lat="37.9552050" lon="-5.6243210">
        <ele>659.3</ele>
        <time>2022-05-22T09:12:58Z</time>
      </trkpt>
      <trkpt lat="37.9552170" lon="-5.6243170">
        <ele>659.3</ele>
        <time>2022-05-22T09:12:59Z</time>
      </trkpt>
      <trkpt lat="37.9552260" lon="-5.6243100">
        <ele>659.3</ele>
        <time>2022-05-22T09:13:00Z</time>
      </trkpt>
      <trkpt lat="37.9552460" lon="-5.6242910">
        <ele>659.2</ele>
        <time>2022-05-22T09:13:02Z</time>
      </trkpt>
      <trkpt lat="37.9552590" lon="-5.6242860">
        <ele>659.2</ele>
        <time>2022-05-22T09:13:03Z</time>
      </trkpt>
      <trkpt lat="37.9552750" lon="-5.6242890">
        <ele>659.2</ele>
        <time>2022-05-22T09:13:04Z</time>
      </trkpt>
      <trkpt lat="37.9553010" lon="-5.6243000">
        <ele>659.1</ele>
        <time>2022-05-22T09:13:05Z</time>
      </trkpt>
      <trkpt lat="37.9553110" lon="-5.6243020">
        <ele>659.1</ele>
        <time>2022-05-22T09:13:07Z</time>
      </trkpt>
      <trkpt lat="37.9553210" lon="-5.6243050">
        <ele>659.1</ele>
        <time>2022-05-22T09:13:08Z</time>
      </trkpt>
      <trkpt lat="37.9553300" lon="-5.6243080">
        <ele>659.0</ele>
        <time>2022-05-22T09:13:09Z</time>
      </trkpt>
      <trkpt lat="37.9553400" lon="-5.6243110">
        <ele>659.0</ele>
        <time>2022-05-22T09:13:10Z</time>
      </trkpt>
      <trkpt lat="37.9553530" lon="-5.6243080">
        <ele>659.0</ele>
        <time>2022-05-22T09:13:11Z</time>
      </trkpt>
      <trkpt lat="37.9553670" lon="-5.6243040">
        <ele>659.0</ele>
        <time>2022-05-22T09:13:12Z</time>
      </trkpt>
      <trkpt lat="37.9553880" lon="-5.6242960">
        <ele>658.9</ele>
        <time>2022-05-22T09:13:13Z</time>
      </trkpt>
      <trkpt lat="37.9553970" lon="-5.6242920">
        <ele>658.9</ele>
        <time>2022-05-22T09:13:14Z</time>
      </trkpt>
      <trkpt lat="37.9554060" lon="-5.6242890">
        <ele>658.9</ele>
        <time>2022-05-22T09:13:15Z</time>
      </trkpt>
      <trkpt lat="37.9554200" lon="-5.6242840">
        <ele>658.8</ele>
        <time>2022-05-22T09:13:17Z</time>
      </trkpt>
      <trkpt lat="37.9554330" lon="-5.6242780">
        <ele>658.8</ele>
        <time>2022-05-22T09:13:18Z</time>
      </trkpt>
      <trkpt lat="37.9554470" lon="-5.6242680">
        <ele>658.8</ele>
        <time>2022-05-22T09:13:19Z</time>
      </trkpt>
      <trkpt lat="37.9554610" lon="-5.6242590">
        <ele>658.8</ele>
        <time>2022-05-22T09:13:20Z</time>
      </trkpt>
      <trkpt lat="37.9554740" lon="-5.6242500">
        <ele>658.7</ele>
        <time>2022-05-22T09:13:21Z</time>
      </trkpt>
      <trkpt lat="37.9554860" lon="-5.6242430">
        <ele>658.7</ele>
        <time>2022-05-22T09:13:22Z</time>
      </trkpt>
      <trkpt lat="37.9554990" lon="-5.6242370">
        <ele>658.7</ele>
        <time>2022-05-22T09:13:23Z</time>
      </trkpt>
      <trkpt lat="37.9555110" lon="-5.6242280">
        <ele>658.7</ele>
        <time>2022-05-22T09:13:24Z</time>
      </trkpt>
      <trkpt lat="37.9555190" lon="-5.6242230">
        <ele>658.6</ele>
        <time>2022-05-22T09:13:25Z</time>
      </trkpt>
      <trkpt lat="37.9555280" lon="-5.6242150">
        <ele>658.6</ele>
        <time>2022-05-22T09:13:26Z</time>
      </trkpt>
      <trkpt lat="37.9555360" lon="-5.6242060">
        <ele>658.6</ele>
        <time>2022-05-22T09:13:27Z</time>
      </trkpt>
      <trkpt lat="37.9555450" lon="-5.6241980">
        <ele>658.6</ele>
        <time>2022-05-22T09:13:28Z</time>
      </trkpt>
      <trkpt lat="37.9555550" lon="-5.6241910">
        <ele>658.6</ele>
        <time>2022-05-22T09:13:29Z</time>
      </trkpt>
      <trkpt lat="37.9555670" lon="-5.6241800">
        <ele>658.5</ele>
        <time>2022-05-22T09:13:31Z</time>
      </trkpt>
      <trkpt lat="37.9555760" lon="-5.6241740">
        <ele>658.5</ele>
        <time>2022-05-22T09:13:32Z</time>
      </trkpt>
      <trkpt lat="37.9555850" lon="-5.6241680">
        <ele>658.5</ele>
        <time>2022-05-22T09:13:33Z</time>
      </trkpt>
      <trkpt lat="37.9555940" lon="-5.6241620">
        <ele>658.5</ele>
        <time>2022-05-22T09:13:34Z</time>
      </trkpt>
      <trkpt lat="37.9556030" lon="-5.6241590">
        <ele>658.5</ele>
        <time>2022-05-22T09:13:35Z</time>
      </trkpt>
      <trkpt lat="37.9556110" lon="-5.6241570">
        <ele>658.4</ele>
        <time>2022-05-22T09:13:36Z</time>
      </trkpt>
      <trkpt lat="37.9556180" lon="-5.6241540">
        <ele>658.4</ele>
        <time>2022-05-22T09:13:37Z</time>
      </trkpt>
      <trkpt lat="37.9556260" lon="-5.6241510">
        <ele>658.4</ele>
        <time>2022-05-22T09:13:38Z</time>
      </trkpt>
      <trkpt lat="37.9556340" lon="-5.6241470">
        <ele>658.4</ele>
        <time>2022-05-22T09:13:39Z</time>
      </trkpt>
      <trkpt lat="37.9556430" lon="-5.6241420">
        <ele>658.4</ele>
        <time>2022-05-22T09:13:40Z</time>
      </trkpt>
      <trkpt lat="37.9556510" lon="-5.6241360">
        <ele>658.4</ele>
        <time>2022-05-22T09:13:41Z</time>
      </trkpt>
      <trkpt lat="37.9556600" lon="-5.6241320">
        <ele>658.3</ele>
        <time>2022-05-22T09:13:42Z</time>
      </trkpt>
      <trkpt lat="37.9556690" lon="-5.6241280">
        <ele>658.3</ele>
        <time>2022-05-22T09:13:44Z</time>
      </trkpt>
      <trkpt lat="37.9556790" lon="-5.6241240">
        <ele>658.3</ele>
        <time>2022-05-22T09:13:45Z</time>
      </trkpt>
      <trkpt lat="37.9556910" lon="-5.6241190">
        <ele>658.3</ele>
        <time>2022-05-22T09:13:46Z</time>
      </trkpt>
      <trkpt lat="37.9557010" lon="-5.6241130">
        <ele>658.2</ele>
        <time>2022-05-22T09:13:47Z</time>
      </trkpt>
      <trkpt lat="37.9557120" lon="-5.6241070">
        <ele>658.2</ele>
        <time>2022-05-22T09:13:48Z</time>
      </trkpt>
      <trkpt lat="37.9557200" lon="-5.6241010">
        <ele>658.2</ele>
        <time>2022-05-22T09:13:49Z</time>
      </trkpt>
      <trkpt lat="37.9557290" lon="-5.6240960">
        <ele>658.2</ele>
        <time>2022-05-22T09:13:50Z</time>
      </trkpt>
      <trkpt lat="37.9557390" lon="-5.6240900">
        <ele>658.2</ele>
        <time>2022-05-22T09:13:51Z</time>
      </trkpt>
      <trkpt lat="37.9557470" lon="-5.6240830">
        <ele>658.1</ele>
        <time>2022-05-22T09:13:52Z</time>
      </trkpt>
      <trkpt lat="37.9557560" lon="-5.6240760">
        <ele>658.1</ele>
        <time>2022-05-22T09:13:53Z</time>
      </trkpt>
      <trkpt lat="37.9557620" lon="-5.6240710">
        <ele>658.1</ele>
        <time>2022-05-22T09:13:54Z</time>
      </trkpt>
      <trkpt lat="37.9557810" lon="-5.6240570">
        <ele>658.1</ele>
        <time>2022-05-22T09:13:56Z</time>
      </trkpt>
      <trkpt lat="37.9557870" lon="-5.6240520">
        <ele>658.0</ele>
        <time>2022-05-22T09:13:57Z</time>
      </trkpt>
      <trkpt lat="37.9557940" lon="-5.6240480">
        <ele>658.0</ele>
        <time>2022-05-22T09:13:58Z</time>
      </trkpt>
      <trkpt lat="37.9558060" lon="-5.6240420">
        <ele>658.0</ele>
        <time>2022-05-22T09:13:59Z</time>
      </trkpt>
      <trkpt lat="37.9558170" lon="-5.6240360">
        <ele>658.0</ele>
        <time>2022-05-22T09:14:00Z</time>
      </trkpt>
      <trkpt lat="37.9558260" lon="-5.6240310">
        <ele>658.0</ele>
        <time>2022-05-22T09:14:01Z</time>
      </trkpt>
      <trkpt lat="37.9558360" lon="-5.6240250">
        <ele>658.0</ele>
        <time>2022-05-22T09:14:02Z</time>
      </trkpt>
      <trkpt lat="37.9558460" lon="-5.6240190">
        <ele>657.9</ele>
        <time>2022-05-22T09:14:03Z</time>
      </trkpt>
      <trkpt lat="37.9558640" lon="-5.6240090">
        <ele>657.9</ele>
        <time>2022-05-22T09:14:05Z</time>
      </trkpt>
      <trkpt lat="37.9558750" lon="-5.6240050">
        <ele>657.9</ele>
        <time>2022-05-22T09:14:06Z</time>
      </trkpt>
      <trkpt lat="37.9558840" lon="-5.6240010">
        <ele>657.9</ele>
        <time>2022-05-22T09:14:07Z</time>
      </trkpt>
      <trkpt lat="37.9558940" lon="-5.6239970">
        <ele>657.9</ele>
        <time>2022-05-22T09:14:08Z</time>
      </trkpt>
      <trkpt lat="37.9559050" lon="-5.6239910">
        <ele>657.9</ele>
        <time>2022-05-22T09:14:10Z</time>
      </trkpt>
      <trkpt lat="37.9559130" lon="-5.6239860">
        <ele>657.8</ele>
        <time>2022-05-22T09:14:11Z</time>
      </trkpt>
      <trkpt lat="37.9559230" lon="-5.6239810">
        <ele>657.8</ele>
        <time>2022-05-22T09:14:12Z</time>
      </trkpt>
      <trkpt lat="37.9559330" lon="-5.6239760">
        <ele>657.8</ele>
        <time>2022-05-22T09:14:13Z</time>
      </trkpt>
      <trkpt lat="37.9559450" lon="-5.6239700">
        <ele>657.8</ele>
        <time>2022-05-22T09:14:14Z</time>
      </trkpt>
      <trkpt lat="37.9559530" lon="-5.6239650">
        <ele>657.8</ele>
        <time>2022-05-22T09:14:15Z</time>
      </trkpt>
      <trkpt lat="37.9559630" lon="-5.6239590">
        <ele>657.8</ele>
        <time>2022-05-22T09:14:16Z</time>
      </trkpt>
      <trkpt lat="37.9559700" lon="-5.6239540">
        <ele>657.7</ele>
        <time>2022-05-22T09:14:17Z</time>
      </trkpt>
      <trkpt lat="37.9559780" lon="-5.6239500">
        <ele>657.7</ele>
        <time>2022-05-22T09:14:18Z</time>
      </trkpt>
      <trkpt lat="37.9559870" lon="-5.6239450">
        <ele>657.7</ele>
        <time>2022-05-22T09:14:19Z</time>
      </trkpt>
      <trkpt lat="37.9559940" lon="-5.6239410">
        <ele>657.7</ele>
        <time>2022-05-22T09:14:20Z</time>
      </trkpt>
      <trkpt lat="37.9560010" lon="-5.6239360">
        <ele>657.7</ele>
        <time>2022-05-22T09:14:21Z</time>
      </trkpt>
      <trkpt lat="37.9560110" lon="-5.6239310">
        <ele>657.7</ele>
        <time>2022-05-22T09:14:23Z</time>
      </trkpt>
      <trkpt lat="37.9560190" lon="-5.6239260">
        <ele>657.7</ele>
        <time>2022-05-22T09:14:24Z</time>
      </trkpt>
      <trkpt lat="37.9560330" lon="-5.6239160">
        <ele>657.6</ele>
        <time>2022-05-22T09:14:25Z</time>
      </trkpt>
      <trkpt lat="37.9560400" lon="-5.6239090">
        <ele>657.6</ele>
        <time>2022-05-22T09:14:26Z</time>
      </trkpt>
      <trkpt lat="37.9560600" lon="-5.6238960">
        <ele>657.6</ele>
        <time>2022-05-22T09:14:27Z</time>
      </trkpt>
      <trkpt lat="37.9560670" lon="-5.6238920">
        <ele>657.6</ele>
        <time>2022-05-22T09:14:28Z</time>
      </trkpt>
      <trkpt lat="37.9560740" lon="-5.6238880">
        <ele>657.6</ele>
        <time>2022-05-22T09:14:29Z</time>
      </trkpt>
      <trkpt lat="37.9560900" lon="-5.6238730">
        <ele>657.5</ele>
        <time>2022-05-22T09:14:30Z</time>
      </trkpt>
      <trkpt lat="37.9560970" lon="-5.6238660">
        <ele>657.5</ele>
        <time>2022-05-22T09:14:32Z</time>
      </trkpt>
      <trkpt lat="37.9561050" lon="-5.6238590">
        <ele>657.5</ele>
        <time>2022-05-22T09:14:33Z</time>
      </trkpt>
      <trkpt lat="37.9561150" lon="-5.6238480">
        <ele>657.5</ele>
        <time>2022-05-22T09:14:34Z</time>
      </trkpt>
      <trkpt lat="37.9561240" lon="-5.6238400">
        <ele>657.5</ele>
        <time>2022-05-22T09:14:35Z</time>
      </trkpt>
      <trkpt lat="37.9561320" lon="-5.6238340">
        <ele>657.5</ele>
        <time>2022-05-22T09:14:36Z</time>
      </trkpt>
      <trkpt lat="37.9561430" lon="-5.6238280">
        <ele>657.5</ele>
        <time>2022-05-22T09:14:37Z</time>
      </trkpt>
      <trkpt lat="37.9561620" lon="-5.6238200">
        <ele>657.4</ele>
        <time>2022-05-22T09:14:39Z</time>
      </trkpt>
      <trkpt lat="37.9561710" lon="-5.6238170">
        <ele>657.4</ele>
        <time>2022-05-22T09:14:40Z</time>
      </trkpt>
      <trkpt lat="37.9561800" lon="-5.6238140">
        <ele>657.4</ele>
        <time>2022-05-22T09:14:41Z</time>
      </trkpt>
      <trkpt lat="37.9561890" lon="-5.6238110">
        <ele>657.4</ele>
        <time>2022-05-22T09:14:42Z</time>
      </trkpt>
      <trkpt lat="37.9561990" lon="-5.6238070">
        <ele>657.4</ele>
        <time>2022-05-22T09:14:43Z</time>
      </trkpt>
      <trkpt lat="37.9562170" lon="-5.6238000">
        <ele>657.3</ele>
        <time>2022-05-22T09:14:44Z</time>
      </trkpt>
      <trkpt lat="37.9562360" lon="-5.6237910">
        <ele>657.3</ele>
        <time>2022-05-22T09:14:45Z</time>
      </trkpt>
      <trkpt lat="37.9562440" lon="-5.6237870">
        <ele>657.3</ele>
        <time>2022-05-22T09:14:47Z</time>
      </trkpt>
      <trkpt lat="37.9562530" lon="-5.6237830">
        <ele>657.3</ele>
        <time>2022-05-22T09:14:48Z</time>
      </trkpt>
      <trkpt lat="37.9562680" lon="-5.6237780">
        <ele>657.3</ele>
        <time>2022-05-22T09:14:49Z</time>
      </trkpt>
      <trkpt lat="37.9562920" lon="-5.6237680">
        <ele>657.2</ele>
        <time>2022-05-22T09:14:51Z</time>
      </trkpt>
      <trkpt lat="37.9563040" lon="-5.6237630">
        <ele>657.2</ele>
        <time>2022-05-22T09:14:52Z</time>
      </trkpt>
      <trkpt lat="37.9563110" lon="-5.6237590">
        <ele>657.2</ele>
        <time>2022-05-22T09:14:53Z</time>
      </trkpt>
      <trkpt lat="37.9563180" lon="-5.6237550">
        <ele>657.2</ele>
        <time>2022-05-22T09:14:54Z</time>
      </trkpt>
      <trkpt lat="37.9563250" lon="-5.6237500">
        <ele>657.2</ele>
        <time>2022-05-22T09:14:55Z</time>
      </trkpt>
      <trkpt lat="37.9563340" lon="-5.6237440">
        <ele>657.2</ele>
        <time>2022-05-22T09:14:56Z</time>
      </trkpt>
      <trkpt lat="37.9563450" lon="-5.6237360">
        <ele>657.2</ele>
        <time>2022-05-22T09:14:58Z</time>
      </trkpt>
      <trkpt lat="37.9563550" lon="-5.6237290">
        <ele>657.1</ele>
        <time>2022-05-22T09:14:59Z</time>
      </trkpt>
      <trkpt lat="37.9563710" lon="-5.6237200">
        <ele>657.1</ele>
        <time>2022-05-22T09:15:00Z</time>
      </trkpt>
      <trkpt lat="37.9563880" lon="-5.6237100">
        <ele>657.1</ele>
        <time>2022-05-22T09:15:02Z</time>
      </trkpt>
      <trkpt lat="37.9563980" lon="-5.6237050">
        <ele>657.1</ele>
        <time>2022-05-22T09:15:03Z</time>
      </trkpt>
      <trkpt lat="37.9564090" lon="-5.6237000">
        <ele>657.1</ele>
        <time>2022-05-22T09:15:04Z</time>
      </trkpt>
      <trkpt lat="37.9564250" lon="-5.6236930">
        <ele>657.0</ele>
        <time>2022-05-22T09:15:05Z</time>
      </trkpt>
      <trkpt lat="37.9564350" lon="-5.6236890">
        <ele>657.0</ele>
        <time>2022-05-22T09:15:06Z</time>
      </trkpt>
      <trkpt lat="37.9564470" lon="-5.6236840">
        <ele>657.0</ele>
        <time>2022-05-22T09:15:07Z</time>
      </trkpt>
      <trkpt lat="37.9564580" lon="-5.6236790">
        <ele>657.0</ele>
        <time>2022-05-22T09:15:08Z</time>
      </trkpt>
      <trkpt lat="37.9564770" lon="-5.6236720">
        <ele>657.0</ele>
        <time>2022-05-22T09:15:09Z</time>
      </trkpt>
      <trkpt lat="37.9564850" lon="-5.6236690">
        <ele>656.9</ele>
        <time>2022-05-22T09:15:10Z</time>
      </trkpt>
      <trkpt lat="37.9564920" lon="-5.6236660">
        <ele>656.9</ele>
        <time>2022-05-22T09:15:11Z</time>
      </trkpt>
      <trkpt lat="37.9565130" lon="-5.6236560">
        <ele>656.9</ele>
        <time>2022-05-22T09:15:13Z</time>
      </trkpt>
      <trkpt lat="37.9565210" lon="-5.6236530">
        <ele>656.9</ele>
        <time>2022-05-22T09:15:14Z</time>
      </trkpt>
      <trkpt lat="37.9565290" lon="-5.6236490">
        <ele>656.9</ele>
        <time>2022-05-22T09:15:15Z</time>
      </trkpt>
      <trkpt lat="37.9565510" lon="-5.6236370">
        <ele>656.9</ele>
        <time>2022-05-22T09:15:16Z</time>
      </trkpt>
      <trkpt lat="37.9565610" lon="-5.6236310">
        <ele>656.8</ele>
        <time>2022-05-22T09:15:18Z</time>
      </trkpt>
      <trkpt lat="37.9565710" lon="-5.6236250">
        <ele>656.8</ele>
        <time>2022-05-22T09:15:19Z</time>
      </trkpt>
      <trkpt lat="37.9565820" lon="-5.6236190">
        <ele>656.8</ele>
        <time>2022-05-22T09:15:20Z</time>
      </trkpt>
      <trkpt lat="37.9565920" lon="-5.6236130">
        <ele>656.8</ele>
        <time>2022-05-22T09:15:21Z</time>
      </trkpt>
      <trkpt lat="37.9566030" lon="-5.6236070">
        <ele>656.8</ele>
        <time>2022-05-22T09:15:23Z</time>
      </trkpt>
      <trkpt lat="37.9566170" lon="-5.6236020">
        <ele>656.8</ele>
        <time>2022-05-22T09:15:24Z</time>
      </trkpt>
      <trkpt lat="37.9566300" lon="-5.6235980">
        <ele>656.7</ele>
        <time>2022-05-22T09:15:25Z</time>
      </trkpt>
      <trkpt lat="37.9566390" lon="-5.6235950">
        <ele>656.7</ele>
        <time>2022-05-22T09:15:26Z</time>
      </trkpt>
      <trkpt lat="37.9566500" lon="-5.6235900">
        <ele>656.7</ele>
        <time>2022-05-22T09:15:27Z</time>
      </trkpt>
      <trkpt lat="37.9566690" lon="-5.6235790">
        <ele>656.7</ele>
        <time>2022-05-22T09:15:28Z</time>
      </trkpt>
      <trkpt lat="37.9566770" lon="-5.6235740">
        <ele>656.7</ele>
        <time>2022-05-22T09:15:30Z</time>
      </trkpt>
      <trkpt lat="37.9566860" lon="-5.6235690">
        <ele>656.7</ele>
        <time>2022-05-22T09:15:31Z</time>
      </trkpt>
      <trkpt lat="37.9567010" lon="-5.6235590">
        <ele>656.6</ele>
        <time>2022-05-22T09:15:32Z</time>
      </trkpt>
      <trkpt lat="37.9567060" lon="-5.6235560">
        <ele>656.6</ele>
        <time>2022-05-22T09:15:34Z</time>
      </trkpt>
      <trkpt lat="37.9567110" lon="-5.6235520">
        <ele>656.6</ele>
        <time>2022-05-22T09:15:35Z</time>
      </trkpt>
      <trkpt lat="37.9567160" lon="-5.6235490">
        <ele>656.6</ele>
        <time>2022-05-22T09:15:36Z</time>
      </trkpt>
      <trkpt lat="37.9567220" lon="-5.6235450">
        <ele>656.6</ele>
        <time>2022-05-22T09:15:37Z</time>
      </trkpt>
      <trkpt lat="37.9567310" lon="-5.6235400">
        <ele>656.6</ele>
        <time>2022-05-22T09:15:38Z</time>
      </trkpt>
      <trkpt lat="37.9567400" lon="-5.6235360">
        <ele>656.6</ele>
        <time>2022-05-22T09:15:39Z</time>
      </trkpt>
      <trkpt lat="37.9567540" lon="-5.6235260">
        <ele>656.6</ele>
        <time>2022-05-22T09:15:41Z</time>
      </trkpt>
      <trkpt lat="37.9567740" lon="-5.6235120">
        <ele>656.5</ele>
        <time>2022-05-22T09:15:42Z</time>
      </trkpt>
      <trkpt lat="37.9567850" lon="-5.6235050">
        <ele>656.5</ele>
        <time>2022-05-22T09:15:43Z</time>
      </trkpt>
      <trkpt lat="37.9568020" lon="-5.6234920">
        <ele>656.5</ele>
        <time>2022-05-22T09:15:44Z</time>
      </trkpt>
      <trkpt lat="37.9568090" lon="-5.6234870">
        <ele>656.5</ele>
        <time>2022-05-22T09:15:45Z</time>
      </trkpt>
      <trkpt lat="37.9568160" lon="-5.6234810">
        <ele>656.5</ele>
        <time>2022-05-22T09:15:46Z</time>
      </trkpt>
      <trkpt lat="37.9568270" lon="-5.6234740">
        <ele>656.5</ele>
        <time>2022-05-22T09:15:47Z</time>
      </trkpt>
      <trkpt lat="37.9568400" lon="-5.6234670">
        <ele>656.5</ele>
        <time>2022-05-22T09:15:48Z</time>
      </trkpt>
      <trkpt lat="37.9568610" lon="-5.6234550">
        <ele>656.4</ele>
        <time>2022-05-22T09:15:49Z</time>
      </trkpt>
      <trkpt lat="37.9568680" lon="-5.6234510">
        <ele>656.4</ele>
        <time>2022-05-22T09:15:50Z</time>
      </trkpt>
      <trkpt lat="37.9568760" lon="-5.6234470">
        <ele>656.4</ele>
        <time>2022-05-22T09:15:51Z</time>
      </trkpt>
      <trkpt lat="37.9568900" lon="-5.6234390">
        <ele>656.4</ele>
        <time>2022-05-22T09:15:52Z</time>
      </trkpt>
      <trkpt lat="37.9569020" lon="-5.6234310">
        <ele>656.4</ele>
        <time>2022-05-22T09:15:53Z</time>
      </trkpt>
      <trkpt lat="37.9569170" lon="-5.6234240">
        <ele>656.4</ele>
        <time>2022-05-22T09:15:55Z</time>
      </trkpt>
      <trkpt lat="37.9569270" lon="-5.6234180">
        <ele>656.4</ele>
        <time>2022-05-22T09:15:56Z</time>
      </trkpt>
      <trkpt lat="37.9569460" lon="-5.6234090">
        <ele>656.3</ele>
        <time>2022-05-22T09:15:57Z</time>
      </trkpt>
      <trkpt lat="37.9569610" lon="-5.6234020">
        <ele>656.3</ele>
        <time>2022-05-22T09:15:58Z</time>
      </trkpt>
      <trkpt lat="37.9569800" lon="-5.6233930">
        <ele>656.3</ele>
        <time>2022-05-22T09:15:59Z</time>
      </trkpt>
      <trkpt lat="37.9569880" lon="-5.6233890">
        <ele>656.3</ele>
        <time>2022-05-22T09:16:00Z</time>
      </trkpt>
      <trkpt lat="37.9569960" lon="-5.6233850">
        <ele>656.3</ele>
        <time>2022-05-22T09:16:01Z</time>
      </trkpt>
      <trkpt lat="37.9570070" lon="-5.6233810">
        <ele>656.3</ele>
        <time>2022-05-22T09:16:02Z</time>
      </trkpt>
      <trkpt lat="37.9570180" lon="-5.6233780">
        <ele>656.2</ele>
        <time>2022-05-22T09:16:03Z</time>
      </trkpt>
      <trkpt lat="37.9570340" lon="-5.6233750">
        <ele>656.2</ele>
        <time>2022-05-22T09:16:05Z</time>
      </trkpt>
      <trkpt lat="37.9570520" lon="-5.6233680">
        <ele>656.2</ele>
        <time>2022-05-22T09:16:06Z</time>
      </trkpt>
      <trkpt lat="37.9570630" lon="-5.6233630">
        <ele>656.2</ele>
        <time>2022-05-22T09:16:07Z</time>
      </trkpt>
      <trkpt lat="37.9570750" lon="-5.6233570">
        <ele>656.2</ele>
        <time>2022-05-22T09:16:08Z</time>
      </trkpt>
      <trkpt lat="37.9570850" lon="-5.6233520">
        <ele>656.1</ele>
        <time>2022-05-22T09:16:09Z</time>
      </trkpt>
      <trkpt lat="37.9571060" lon="-5.6233360">
        <ele>656.1</ele>
        <time>2022-05-22T09:16:11Z</time>
      </trkpt>
      <trkpt lat="37.9571190" lon="-5.6233280">
        <ele>656.1</ele>
        <time>2022-05-22T09:16:12Z</time>
      </trkpt>
      <trkpt lat="37.9571310" lon="-5.6233210">
        <ele>656.1</ele>
        <time>2022-05-22T09:16:13Z</time>
      </trkpt>
      <trkpt lat="37.9571430" lon="-5.6233150">
        <ele>656.0</ele>
        <time>2022-05-22T09:16:14Z</time>
      </trkpt>
      <trkpt lat="37.9571560" lon="-5.6233090">
        <ele>656.0</ele>
        <time>2022-05-22T09:16:15Z</time>
      </trkpt>
      <trkpt lat="37.9571750" lon="-5.6232990">
        <ele>656.0</ele>
        <time>2022-05-22T09:16:16Z</time>
      </trkpt>
      <trkpt lat="37.9571830" lon="-5.6232950">
        <ele>656.0</ele>
        <time>2022-05-22T09:16:17Z</time>
      </trkpt>
      <trkpt lat="37.9571910" lon="-5.6232910">
        <ele>656.0</ele>
        <time>2022-05-22T09:16:18Z</time>
      </trkpt>
      <trkpt lat="37.9572110" lon="-5.6232800">
        <ele>655.9</ele>
        <time>2022-05-22T09:16:19Z</time>
      </trkpt>
      <trkpt lat="37.9572190" lon="-5.6232750">
        <ele>655.9</ele>
        <time>2022-05-22T09:16:20Z</time>
      </trkpt>
      <trkpt lat="37.9572260" lon="-5.6232710">
        <ele>655.9</ele>
        <time>2022-05-22T09:16:21Z</time>
      </trkpt>
      <trkpt lat="37.9572450" lon="-5.6232560">
        <ele>655.9</ele>
        <time>2022-05-22T09:16:22Z</time>
      </trkpt>
      <trkpt lat="37.9572530" lon="-5.6232500">
        <ele>655.9</ele>
        <time>2022-05-22T09:16:23Z</time>
      </trkpt>
      <trkpt lat="37.9572610" lon="-5.6232440">
        <ele>655.9</ele>
        <time>2022-05-22T09:16:24Z</time>
      </trkpt>
      <trkpt lat="37.9572750" lon="-5.6232320">
        <ele>655.8</ele>
        <time>2022-05-22T09:16:25Z</time>
      </trkpt>
      <trkpt lat="37.9572940" lon="-5.6232170">
        <ele>655.8</ele>
        <time>2022-05-22T09:16:27Z</time>
      </trkpt>
      <trkpt lat="37.9573080" lon="-5.6232050">
        <ele>655.8</ele>
        <time>2022-05-22T09:16:28Z</time>
      </trkpt>
      <trkpt lat="37.9573210" lon="-5.6231950">
        <ele>655.8</ele>
        <time>2022-05-22T09:16:29Z</time>
      </trkpt>
      <trkpt lat="37.9573330" lon="-5.6231850">
        <ele>655.8</ele>
        <time>2022-05-22T09:16:30Z</time>
      </trkpt>
      <trkpt lat="37.9573440" lon="-5.6231760">
        <ele>655.7</ele>
        <time>2022-05-22T09:16:31Z</time>
      </trkpt>
      <trkpt lat="37.9573550" lon="-5.6231670">
        <ele>655.7</ele>
        <time>2022-05-22T09:16:32Z</time>
      </trkpt>
      <trkpt lat="37.9573770" lon="-5.6231500">
        <ele>655.7</ele>
        <time>2022-05-22T09:16:34Z</time>
      </trkpt>
      <trkpt lat="37.9573970" lon="-5.6231390">
        <ele>655.7</ele>
        <time>2022-05-22T09:16:35Z</time>
      </trkpt>
      <trkpt lat="37.9574050" lon="-5.6231350">
        <ele>655.7</ele>
        <time>2022-05-22T09:16:36Z</time>
      </trkpt>
      <trkpt lat="37.9574140" lon="-5.6231310">
        <ele>655.7</ele>
        <time>2022-05-22T09:16:37Z</time>
      </trkpt>
      <trkpt lat="37.9574300" lon="-5.6231240">
        <ele>655.6</ele>
        <time>2022-05-22T09:16:38Z</time>
      </trkpt>
      <trkpt lat="37.9574460" lon="-5.6231180">
        <ele>655.6</ele>
        <time>2022-05-22T09:16:40Z</time>
      </trkpt>
      <trkpt lat="37.9574650" lon="-5.6231090">
        <ele>655.6</ele>
        <time>2022-05-22T09:16:41Z</time>
      </trkpt>
      <trkpt lat="37.9574760" lon="-5.6231030">
        <ele>655.6</ele>
        <time>2022-05-22T09:16:42Z</time>
      </trkpt>
      <trkpt lat="37.9574980" lon="-5.6230880">
        <ele>655.6</ele>
        <time>2022-05-22T09:16:43Z</time>
      </trkpt>
      <trkpt lat="37.9575090" lon="-5.6230820">
        <ele>655.6</ele>
        <time>2022-05-22T09:16:45Z</time>
      </trkpt>
      <trkpt lat="37.9575200" lon="-5.6230760">
        <ele>655.5</ele>
        <time>2022-05-22T09:16:46Z</time>
      </trkpt>
      <trkpt lat="37.9575310" lon="-5.6230700">
        <ele>655.5</ele>
        <time>2022-05-22T09:16:47Z</time>
      </trkpt>
      <trkpt lat="37.9575420" lon="-5.6230640">
        <ele>655.5</ele>
        <time>2022-05-22T09:16:48Z</time>
      </trkpt>
      <trkpt lat="37.9575510" lon="-5.6230590">
        <ele>655.5</ele>
        <time>2022-05-22T09:16:49Z</time>
      </trkpt>
      <trkpt lat="37.9575620" lon="-5.6230550">
        <ele>655.5</ele>
        <time>2022-05-22T09:16:50Z</time>
      </trkpt>
      <trkpt lat="37.9575750" lon="-5.6230600">
        <ele>655.5</ele>
        <time>2022-05-22T09:16:52Z</time>
      </trkpt>
      <trkpt lat="37.9575880" lon="-5.6230610">
        <ele>655.5</ele>
        <time>2022-05-22T09:16:53Z</time>
      </trkpt>
      <trkpt lat="37.9576090" lon="-5.6230620">
        <ele>655.4</ele>
        <time>2022-05-22T09:16:54Z</time>
      </trkpt>
      <trkpt lat="37.9576230" lon="-5.6230660">
        <ele>655.4</ele>
        <time>2022-05-22T09:16:55Z</time>
      </trkpt>
      <trkpt lat="37.9576380" lon="-5.6230700">
        <ele>655.4</ele>
        <time>2022-05-22T09:16:56Z</time>
      </trkpt>
      <trkpt lat="37.9576600" lon="-5.6230740">
        <ele>655.4</ele>
        <time>2022-05-22T09:16:57Z</time>
      </trkpt>
      <trkpt lat="37.9576680" lon="-5.6230740">
        <ele>655.4</ele>
        <time>2022-05-22T09:16:58Z</time>
      </trkpt>
      <trkpt lat="37.9576760" lon="-5.6230740">
        <ele>655.4</ele>
        <time>2022-05-22T09:16:59Z</time>
      </trkpt>
      <trkpt lat="37.9576960" lon="-5.6230680">
        <ele>655.4</ele>
        <time>2022-05-22T09:17:00Z</time>
      </trkpt>
      <trkpt lat="37.9577030" lon="-5.6230650">
        <ele>655.4</ele>
        <time>2022-05-22T09:17:01Z</time>
      </trkpt>
      <trkpt lat="37.9577110" lon="-5.6230620">
        <ele>655.3</ele>
        <time>2022-05-22T09:17:02Z</time>
      </trkpt>
      <trkpt lat="37.9577220" lon="-5.6230550">
        <ele>655.3</ele>
        <time>2022-05-22T09:17:03Z</time>
      </trkpt>
      <trkpt lat="37.9577330" lon="-5.6230510">
        <ele>655.3</ele>
        <time>2022-05-22T09:17:04Z</time>
      </trkpt>
      <trkpt lat="37.9577440" lon="-5.6230460">
        <ele>655.3</ele>
        <time>2022-05-22T09:17:05Z</time>
      </trkpt>
      <trkpt lat="37.9577570" lon="-5.6230280">
        <ele>655.3</ele>
        <time>2022-05-22T09:17:06Z</time>
      </trkpt>
      <trkpt lat="37.9577590" lon="-5.6230170">
        <ele>655.3</ele>
        <time>2022-05-22T09:17:07Z</time>
      </trkpt>
      <trkpt lat="37.9577610" lon="-5.6230050">
        <ele>655.3</ele>
        <time>2022-05-22T09:17:08Z</time>
      </trkpt>
      <trkpt lat="37.9577640" lon="-5.6229980">
        <ele>655.3</ele>
        <time>2022-05-22T09:17:09Z</time>
      </trkpt>
      <trkpt lat="37.9577660" lon="-5.6229940">
        <ele>655.3</ele>
        <time>2022-05-22T09:17:10Z</time>
      </trkpt>
      <trkpt lat="37.9577710" lon="-5.6229930">
        <ele>655.3</ele>
        <time>2022-05-22T09:17:11Z</time>
      </trkpt>
      <trkpt lat="37.9577780" lon="-5.6229890">
        <ele>655.3</ele>
        <time>2022-05-22T09:17:12Z</time>
      </trkpt>
      <trkpt lat="37.9577850" lon="-5.6229840">
        <ele>655.2</ele>
        <time>2022-05-22T09:17:13Z</time>
      </trkpt>
      <trkpt lat="37.9577920" lon="-5.6229730">
        <ele>655.2</ele>
        <time>2022-05-22T09:17:14Z</time>
      </trkpt>
      <trkpt lat="37.9578000" lon="-5.6229700">
        <ele>655.2</ele>
        <time>2022-05-22T09:17:15Z</time>
      </trkpt>
      <trkpt lat="37.9578100" lon="-5.6229660">
        <ele>655.2</ele>
        <time>2022-05-22T09:17:16Z</time>
      </trkpt>
      <trkpt lat="37.9578280" lon="-5.6229550">
        <ele>655.2</ele>
        <time>2022-05-22T09:17:17Z</time>
      </trkpt>
      <trkpt lat="37.9578360" lon="-5.6229500">
        <ele>655.2</ele>
        <time>2022-05-22T09:17:18Z</time>
      </trkpt>
      <trkpt lat="37.9578440" lon="-5.6229450">
        <ele>655.2</ele>
        <time>2022-05-22T09:17:19Z</time>
      </trkpt>
      <trkpt lat="37.9578590" lon="-5.6229340">
        <ele>655.2</ele>
        <time>2022-05-22T09:17:20Z</time>
      </trkpt>
      <trkpt lat="37.9578710" lon="-5.6229280">
        <ele>655.2</ele>
        <time>2022-05-22T09:17:21Z</time>
      </trkpt>
      <trkpt lat="37.9578820" lon="-5.6229200">
        <ele>655.2</ele>
        <time>2022-05-22T09:17:22Z</time>
      </trkpt>
      <trkpt lat="37.9579070" lon="-5.6229070">
        <ele>655.1</ele>
        <time>2022-05-22T09:17:24Z</time>
      </trkpt>
      <trkpt lat="37.9579200" lon="-5.6228980">
        <ele>655.1</ele>
        <time>2022-05-22T09:17:25Z</time>
      </trkpt>
      <trkpt lat="37.9579320" lon="-5.6228880">
        <ele>655.1</ele>
        <time>2022-05-22T09:17:26Z</time>
      </trkpt>
      <trkpt lat="37.9579440" lon="-5.6228790">
        <ele>655.1</ele>
        <time>2022-05-22T09:17:27Z</time>
      </trkpt>
      <trkpt lat="37.9579570" lon="-5.6228690">
        <ele>655.1</ele>
        <time>2022-05-22T09:17:28Z</time>
      </trkpt>
      <trkpt lat="37.9579670" lon="-5.6228660">
        <ele>655.1</ele>
        <time>2022-05-22T09:17:29Z</time>
      </trkpt>
      <trkpt lat="37.9579780" lon="-5.6228610">
        <ele>655.1</ele>
        <time>2022-05-22T09:17:30Z</time>
      </trkpt>
      <trkpt lat="37.9579890" lon="-5.6228540">
        <ele>655.1</ele>
        <time>2022-05-22T09:17:31Z</time>
      </trkpt>
      <trkpt lat="37.9580010" lon="-5.6228470">
        <ele>655.1</ele>
        <time>2022-05-22T09:17:32Z</time>
      </trkpt>
      <trkpt lat="37.9580140" lon="-5.6228390">
        <ele>655.1</ele>
        <time>2022-05-22T09:17:33Z</time>
      </trkpt>
      <trkpt lat="37.9580270" lon="-5.6228310">
        <ele>655.1</ele>
        <time>2022-05-22T09:17:34Z</time>
      </trkpt>
      <trkpt lat="37.9580400" lon="-5.6228220">
        <ele>655.1</ele>
        <time>2022-05-22T09:17:35Z</time>
      </trkpt>
      <trkpt lat="37.9580590" lon="-5.6228110">
        <ele>655.1</ele>
        <time>2022-05-22T09:17:36Z</time>
      </trkpt>
      <trkpt lat="37.9580680" lon="-5.6228060">
        <ele>655.1</ele>
        <time>2022-05-22T09:17:37Z</time>
      </trkpt>
      <trkpt lat="37.9580770" lon="-5.6228010">
        <ele>655.0</ele>
        <time>2022-05-22T09:17:38Z</time>
      </trkpt>
      <trkpt lat="37.9580920" lon="-5.6227900">
        <ele>655.0</ele>
        <time>2022-05-22T09:17:39Z</time>
      </trkpt>
      <trkpt lat="37.9581050" lon="-5.6227830">
        <ele>655.0</ele>
        <time>2022-05-22T09:17:40Z</time>
      </trkpt>
      <trkpt lat="37.9581180" lon="-5.6227770">
        <ele>655.0</ele>
        <time>2022-05-22T09:17:41Z</time>
      </trkpt>
      <trkpt lat="37.9581310" lon="-5.6227710">
        <ele>655.0</ele>
        <time>2022-05-22T09:17:42Z</time>
      </trkpt>
      <trkpt lat="37.9581440" lon="-5.6227630">
        <ele>655.0</ele>
        <time>2022-05-22T09:17:43Z</time>
      </trkpt>
      <trkpt lat="37.9581570" lon="-5.6227550">
        <ele>655.0</ele>
        <time>2022-05-22T09:17:44Z</time>
      </trkpt>
      <trkpt lat="37.9581780" lon="-5.6227460">
        <ele>655.0</ele>
        <time>2022-05-22T09:17:45Z</time>
      </trkpt>
      <trkpt lat="37.9581850" lon="-5.6227430">
        <ele>655.0</ele>
        <time>2022-05-22T09:17:46Z</time>
      </trkpt>
      <trkpt lat="37.9581920" lon="-5.6227410">
        <ele>655.0</ele>
        <time>2022-05-22T09:17:47Z</time>
      </trkpt>
      <trkpt lat="37.9582140" lon="-5.6227340">
        <ele>655.0</ele>
        <time>2022-05-22T09:17:48Z</time>
      </trkpt>
      <trkpt lat="37.9582230" lon="-5.6227310">
        <ele>655.0</ele>
        <time>2022-05-22T09:17:49Z</time>
      </trkpt>
      <trkpt lat="37.9582320" lon="-5.6227280">
        <ele>655.0</ele>
        <time>2022-05-22T09:17:50Z</time>
      </trkpt>
      <trkpt lat="37.9582630" lon="-5.6227190">
        <ele>655.0</ele>
        <time>2022-05-22T09:17:52Z</time>
      </trkpt>
      <trkpt lat="37.9582690" lon="-5.6227180">
        <ele>655.0</ele>
        <time>2022-05-22T09:17:53Z</time>
      </trkpt>
      <trkpt lat="37.9582790" lon="-5.6227150">
        <ele>655.0</ele>
        <time>2022-05-22T09:17:54Z</time>
      </trkpt>
      <trkpt lat="37.9582900" lon="-5.6227100">
        <ele>655.0</ele>
        <time>2022-05-22T09:17:55Z</time>
      </trkpt>
      <trkpt lat="37.9583000" lon="-5.6227060">
        <ele>655.0</ele>
        <time>2022-05-22T09:17:56Z</time>
      </trkpt>
      <trkpt lat="37.9583180" lon="-5.6226930">
        <ele>654.9</ele>
        <time>2022-05-22T09:17:57Z</time>
      </trkpt>
      <trkpt lat="37.9583250" lon="-5.6226880">
        <ele>654.9</ele>
        <time>2022-05-22T09:17:58Z</time>
      </trkpt>
      <trkpt lat="37.9583320" lon="-5.6226830">
        <ele>654.9</ele>
        <time>2022-05-22T09:17:59Z</time>
      </trkpt>
      <trkpt lat="37.9583510" lon="-5.6226690">
        <ele>654.9</ele>
        <time>2022-05-22T09:18:00Z</time>
      </trkpt>
      <trkpt lat="37.9583580" lon="-5.6226640">
        <ele>654.9</ele>
        <time>2022-05-22T09:18:01Z</time>
      </trkpt>
      <trkpt lat="37.9583660" lon="-5.6226590">
        <ele>654.9</ele>
        <time>2022-05-22T09:18:02Z</time>
      </trkpt>
      <trkpt lat="37.9583760" lon="-5.6226500">
        <ele>654.9</ele>
        <time>2022-05-22T09:18:03Z</time>
      </trkpt>
      <trkpt lat="37.9583890" lon="-5.6226400">
        <ele>654.9</ele>
        <time>2022-05-22T09:18:04Z</time>
      </trkpt>
      <trkpt lat="37.9584070" lon="-5.6226260">
        <ele>654.9</ele>
        <time>2022-05-22T09:18:05Z</time>
      </trkpt>
      <trkpt lat="37.9584140" lon="-5.6226200">
        <ele>654.9</ele>
        <time>2022-05-22T09:18:06Z</time>
      </trkpt>
      <trkpt lat="37.9584210" lon="-5.6226150">
        <ele>654.9</ele>
        <time>2022-05-22T09:18:07Z</time>
      </trkpt>
      <trkpt lat="37.9584400" lon="-5.6226000">
        <ele>654.9</ele>
        <time>2022-05-22T09:18:08Z</time>
      </trkpt>
      <trkpt lat="37.9584480" lon="-5.6225940">
        <ele>654.9</ele>
        <time>2022-05-22T09:18:09Z</time>
      </trkpt>
      <trkpt lat="37.9584560" lon="-5.6225880">
        <ele>654.9</ele>
        <time>2022-05-22T09:18:10Z</time>
      </trkpt>
      <trkpt lat="37.9584760" lon="-5.6225760">
        <ele>654.9</ele>
        <time>2022-05-22T09:18:11Z</time>
      </trkpt>
      <trkpt lat="37.9584840" lon="-5.6225720">
        <ele>654.9</ele>
        <time>2022-05-22T09:18:12Z</time>
      </trkpt>
      <trkpt lat="37.9584910" lon="-5.6225670">
        <ele>654.9</ele>
        <time>2022-05-22T09:18:13Z</time>
      </trkpt>
      <trkpt lat="37.9585070" lon="-5.6225570">
        <ele>654.9</ele>
        <time>2022-05-22T09:18:14Z</time>
      </trkpt>
      <trkpt lat="37.9585110" lon="-5.6225560">
        <ele>654.9</ele>
        <time>2022-05-22T09:18:15Z</time>
      </trkpt>
      <trkpt lat="37.9585150" lon="-5.6225550">
        <ele>654.9</ele>
        <time>2022-05-22T09:18:16Z</time>
      </trkpt>
      <trkpt lat="37.9585190" lon="-5.6225540">
        <ele>654.9</ele>
        <time>2022-05-22T09:18:17Z</time>
      </trkpt>
      <trkpt lat="37.9585230" lon="-5.6225530">
        <ele>654.9</ele>
        <time>2022-05-22T09:18:18Z</time>
      </trkpt>
      <trkpt lat="37.9585270" lon="-5.6225520">
        <ele>654.9</ele>
        <time>2022-05-22T09:18:19Z</time>
      </trkpt>
      <trkpt lat="37.9585310" lon="-5.6225510">
        <ele>654.9</ele>
        <time>2022-05-22T09:18:20Z</time>
      </trkpt>
      <trkpt lat="37.9585300" lon="-5.6225590">
        <ele>654.9</ele>
        <time>2022-05-22T09:18:21Z</time>
      </trkpt>
      <trkpt lat="37.9585340" lon="-5.6225610">
        <ele>654.9</ele>
        <time>2022-05-22T09:18:22Z</time>
      </trkpt>
      <trkpt lat="37.9585400" lon="-5.6225620">
        <ele>654.9</ele>
        <time>2022-05-22T09:18:23Z</time>
      </trkpt>
      <trkpt lat="37.9585470" lon="-5.6225610">
        <ele>654.9</ele>
        <time>2022-05-22T09:18:24Z</time>
      </trkpt>
      <trkpt lat="37.9585560" lon="-5.6225580">
        <ele>654.9</ele>
        <time>2022-05-22T09:18:25Z</time>
      </trkpt>
      <trkpt lat="37.9585640" lon="-5.6225540">
        <ele>654.8</ele>
        <time>2022-05-22T09:18:26Z</time>
      </trkpt>
      <trkpt lat="37.9585770" lon="-5.6225540">
        <ele>654.8</ele>
        <time>2022-05-22T09:18:28Z</time>
      </trkpt>
      <trkpt lat="37.9585790" lon="-5.6225540">
        <ele>654.8</ele>
        <time>2022-05-22T09:18:29Z</time>
      </trkpt>
      <trkpt lat="37.9585790" lon="-5.6225510">
        <ele>654.8</ele>
        <time>2022-05-22T09:18:30Z</time>
      </trkpt>
      <trkpt lat="37.9585790" lon="-5.6225460">
        <ele>654.8</ele>
        <time>2022-05-22T09:18:31Z</time>
      </trkpt>
      <trkpt lat="37.9585790" lon="-5.6225390">
        <ele>654.8</ele>
        <time>2022-05-22T09:18:32Z</time>
      </trkpt>
      <trkpt lat="37.9585830" lon="-5.6225320">
        <ele>654.8</ele>
        <time>2022-05-22T09:18:33Z</time>
      </trkpt>
      <trkpt lat="37.9585880" lon="-5.6225260">
        <ele>654.8</ele>
        <time>2022-05-22T09:18:34Z</time>
      </trkpt>
      <trkpt lat="37.9586120" lon="-5.6225080">
        <ele>654.8</ele>
        <time>2022-05-22T09:18:35Z</time>
      </trkpt>
      <trkpt lat="37.9586290" lon="-5.6224970">
        <ele>654.8</ele>
        <time>2022-05-22T09:18:36Z</time>
      </trkpt>
      <trkpt lat="37.9586460" lon="-5.6224860">
        <ele>654.8</ele>
        <time>2022-05-22T09:18:37Z</time>
      </trkpt>
      <trkpt lat="37.9586730" lon="-5.6224700">
        <ele>654.8</ele>
        <time>2022-05-22T09:18:39Z</time>
      </trkpt>
      <trkpt lat="37.9586980" lon="-5.6224580">
        <ele>654.8</ele>
        <time>2022-05-22T09:18:40Z</time>
      </trkpt>
      <trkpt lat="37.9587250" lon="-5.6224480">
        <ele>654.8</ele>
        <time>2022-05-22T09:18:41Z</time>
      </trkpt>
      <trkpt lat="37.9587330" lon="-5.6224450">
        <ele>654.8</ele>
        <time>2022-05-22T09:18:42Z</time>
      </trkpt>
      <trkpt lat="37.9587620" lon="-5.6224310">
        <ele>654.7</ele>
        <time>2022-05-22T09:18:44Z</time>
      </trkpt>
      <trkpt lat="37.9587680" lon="-5.6224280">
        <ele>654.7</ele>
        <time>2022-05-22T09:18:45Z</time>
      </trkpt>
      <trkpt lat="37.9587810" lon="-5.6224210">
        <ele>654.7</ele>
        <time>2022-05-22T09:18:46Z</time>
      </trkpt>
      <trkpt lat="37.9587940" lon="-5.6224130">
        <ele>654.7</ele>
        <time>2022-05-22T09:18:47Z</time>
      </trkpt>
      <trkpt lat="37.9588130" lon="-5.6223990">
        <ele>654.7</ele>
        <time>2022-05-22T09:18:48Z</time>
      </trkpt>
      <trkpt lat="37.9588200" lon="-5.6223930">
        <ele>654.7</ele>
        <time>2022-05-22T09:18:49Z</time>
      </trkpt>
      <trkpt lat="37.9588270" lon="-5.6223870">
        <ele>654.7</ele>
        <time>2022-05-22T09:18:50Z</time>
      </trkpt>
      <trkpt lat="37.9588360" lon="-5.6223780">
        <ele>654.7</ele>
        <time>2022-05-22T09:18:51Z</time>
      </trkpt>
      <trkpt lat="37.9588500" lon="-5.6223660">
        <ele>654.7</ele>
        <time>2022-05-22T09:18:52Z</time>
      </trkpt>
      <trkpt lat="37.9588670" lon="-5.6223530">
        <ele>654.7</ele>
        <time>2022-05-22T09:18:54Z</time>
      </trkpt>
      <trkpt lat="37.9588770" lon="-5.6223460">
        <ele>654.7</ele>
        <time>2022-05-22T09:18:55Z</time>
      </trkpt>
      <trkpt lat="37.9588870" lon="-5.6223410">
        <ele>654.7</ele>
        <time>2022-05-22T09:18:56Z</time>
      </trkpt>
      <trkpt lat="37.9589020" lon="-5.6223340">
        <ele>654.7</ele>
        <time>2022-05-22T09:18:57Z</time>
      </trkpt>
      <trkpt lat="37.9589210" lon="-5.6223260">
        <ele>654.7</ele>
        <time>2022-05-22T09:18:59Z</time>
      </trkpt>
      <trkpt lat="37.9589410" lon="-5.6223220">
        <ele>654.7</ele>
        <time>2022-05-22T09:19:00Z</time>
      </trkpt>
      <trkpt lat="37.9589490" lon="-5.6223200">
        <ele>654.7</ele>
        <time>2022-05-22T09:19:01Z</time>
      </trkpt>
      <trkpt lat="37.9589570" lon="-5.6223180">
        <ele>654.7</ele>
        <time>2022-05-22T09:19:02Z</time>
      </trkpt>
      <trkpt lat="37.9589690" lon="-5.6223140">
        <ele>654.7</ele>
        <time>2022-05-22T09:19:03Z</time>
      </trkpt>
      <trkpt lat="37.9589790" lon="-5.6223100">
        <ele>654.7</ele>
        <time>2022-05-22T09:19:04Z</time>
      </trkpt>
      <trkpt lat="37.9589900" lon="-5.6223060">
        <ele>654.7</ele>
        <time>2022-05-22T09:19:05Z</time>
      </trkpt>
      <trkpt lat="37.9590000" lon="-5.6223020">
        <ele>654.7</ele>
        <time>2022-05-22T09:19:06Z</time>
      </trkpt>
      <trkpt lat="37.9590090" lon="-5.6222970">
        <ele>654.7</ele>
        <time>2022-05-22T09:19:07Z</time>
      </trkpt>
      <trkpt lat="37.9590200" lon="-5.6222910">
        <ele>654.7</ele>
        <time>2022-05-22T09:19:08Z</time>
      </trkpt>
      <trkpt lat="37.9590390" lon="-5.6222810">
        <ele>654.8</ele>
        <time>2022-05-22T09:19:09Z</time>
      </trkpt>
      <trkpt lat="37.9590460" lon="-5.6222770">
        <ele>654.8</ele>
        <time>2022-05-22T09:19:10Z</time>
      </trkpt>
      <trkpt lat="37.9590530" lon="-5.6222730">
        <ele>654.8</ele>
        <time>2022-05-22T09:19:11Z</time>
      </trkpt>
      <trkpt lat="37.9590640" lon="-5.6222650">
        <ele>654.7</ele>
        <time>2022-05-22T09:19:12Z</time>
      </trkpt>
      <trkpt lat="37.9590740" lon="-5.6222580">
        <ele>654.7</ele>
        <time>2022-05-22T09:19:13Z</time>
      </trkpt>
      <trkpt lat="37.9590950" lon="-5.6222430">
        <ele>654.7</ele>
        <time>2022-05-22T09:19:15Z</time>
      </trkpt>
      <trkpt lat="37.9591130" lon="-5.6222260">
        <ele>654.6</ele>
        <time>2022-05-22T09:19:16Z</time>
      </trkpt>
      <trkpt lat="37.9591210" lon="-5.6222190">
        <ele>654.6</ele>
        <time>2022-05-22T09:19:17Z</time>
      </trkpt>
      <trkpt lat="37.9591280" lon="-5.6222110">
        <ele>654.5</ele>
        <time>2022-05-22T09:19:18Z</time>
      </trkpt>
      <trkpt lat="37.9591380" lon="-5.6222030">
        <ele>654.5</ele>
        <time>2022-05-22T09:19:19Z</time>
      </trkpt>
      <trkpt lat="37.9591520" lon="-5.6221930">
        <ele>654.4</ele>
        <time>2022-05-22T09:19:20Z</time>
      </trkpt>
      <trkpt lat="37.9591690" lon="-5.6221830">
        <ele>654.4</ele>
        <time>2022-05-22T09:19:22Z</time>
      </trkpt>
      <trkpt lat="37.9591850" lon="-5.6221750">
        <ele>654.3</ele>
        <time>2022-05-22T09:19:23Z</time>
      </trkpt>
      <trkpt lat="37.9591980" lon="-5.6221680">
        <ele>654.3</ele>
        <time>2022-05-22T09:19:24Z</time>
      </trkpt>
      <trkpt lat="37.9592040" lon="-5.6221670">
        <ele>654.3</ele>
        <time>2022-05-22T09:19:25Z</time>
      </trkpt>
      <trkpt lat="37.9592120" lon="-5.6221640">
        <ele>654.2</ele>
        <time>2022-05-22T09:19:26Z</time>
      </trkpt>
      <trkpt lat="37.9592180" lon="-5.6221600">
        <ele>654.2</ele>
        <time>2022-05-22T09:19:27Z</time>
      </trkpt>
      <trkpt lat="37.9592250" lon="-5.6221550">
        <ele>654.2</ele>
        <time>2022-05-22T09:19:28Z</time>
      </trkpt>
      <trkpt lat="37.9592330" lon="-5.6221500">
        <ele>654.2</ele>
        <time>2022-05-22T09:19:29Z</time>
      </trkpt>
      <trkpt lat="37.9592400" lon="-5.6221450">
        <ele>654.1</ele>
        <time>2022-05-22T09:19:30Z</time>
      </trkpt>
      <trkpt lat="37.9592480" lon="-5.6221380">
        <ele>654.1</ele>
        <time>2022-05-22T09:19:31Z</time>
      </trkpt>
      <trkpt lat="37.9592590" lon="-5.6221300">
        <ele>654.1</ele>
        <time>2022-05-22T09:19:32Z</time>
      </trkpt>
      <trkpt lat="37.9592810" lon="-5.6221130">
        <ele>654.0</ele>
        <time>2022-05-22T09:19:34Z</time>
      </trkpt>
      <trkpt lat="37.9592950" lon="-5.6221040">
        <ele>653.9</ele>
        <time>2022-05-22T09:19:35Z</time>
      </trkpt>
      <trkpt lat="37.9593090" lon="-5.6220960">
        <ele>653.9</ele>
        <time>2022-05-22T09:19:36Z</time>
      </trkpt>
      <trkpt lat="37.9593300" lon="-5.6220870">
        <ele>653.8</ele>
        <time>2022-05-22T09:19:38Z</time>
      </trkpt>
      <trkpt lat="37.9593410" lon="-5.6220810">
        <ele>653.8</ele>
        <time>2022-05-22T09:19:39Z</time>
      </trkpt>
      <trkpt lat="37.9593540" lon="-5.6220720">
        <ele>653.8</ele>
        <time>2022-05-22T09:19:40Z</time>
      </trkpt>
      <trkpt lat="37.9593660" lon="-5.6220630">
        <ele>653.7</ele>
        <time>2022-05-22T09:19:41Z</time>
      </trkpt>
      <trkpt lat="37.9593780" lon="-5.6220540">
        <ele>653.7</ele>
        <time>2022-05-22T09:19:42Z</time>
      </trkpt>
      <trkpt lat="37.9593910" lon="-5.6220460">
        <ele>653.6</ele>
        <time>2022-05-22T09:19:43Z</time>
      </trkpt>
      <trkpt lat="37.9594030" lon="-5.6220380">
        <ele>653.6</ele>
        <time>2022-05-22T09:19:44Z</time>
      </trkpt>
      <trkpt lat="37.9594160" lon="-5.6220300">
        <ele>653.6</ele>
        <time>2022-05-22T09:19:45Z</time>
      </trkpt>
      <trkpt lat="37.9594370" lon="-5.6220180">
        <ele>653.5</ele>
        <time>2022-05-22T09:19:46Z</time>
      </trkpt>
      <trkpt lat="37.9594450" lon="-5.6220140">
        <ele>653.5</ele>
        <time>2022-05-22T09:19:47Z</time>
      </trkpt>
      <trkpt lat="37.9594540" lon="-5.6220100">
        <ele>653.5</ele>
        <time>2022-05-22T09:19:48Z</time>
      </trkpt>
      <trkpt lat="37.9594810" lon="-5.6220090">
        <ele>653.4</ele>
        <time>2022-05-22T09:19:50Z</time>
      </trkpt>
      <trkpt lat="37.9594950" lon="-5.6220090">
        <ele>653.4</ele>
        <time>2022-05-22T09:19:51Z</time>
      </trkpt>
      <trkpt lat="37.9595090" lon="-5.6220080">
        <ele>653.3</ele>
        <time>2022-05-22T09:19:52Z</time>
      </trkpt>
      <trkpt lat="37.9595230" lon="-5.6220060">
        <ele>653.3</ele>
        <time>2022-05-22T09:19:53Z</time>
      </trkpt>
      <trkpt lat="37.9595500" lon="-5.6220030">
        <ele>653.3</ele>
        <time>2022-05-22T09:19:55Z</time>
      </trkpt>
      <trkpt lat="37.9595710" lon="-5.6219970">
        <ele>653.2</ele>
        <time>2022-05-22T09:19:56Z</time>
      </trkpt>
      <trkpt lat="37.9595790" lon="-5.6219950">
        <ele>653.2</ele>
        <time>2022-05-22T09:19:57Z</time>
      </trkpt>
      <trkpt lat="37.9595870" lon="-5.6219920">
        <ele>653.2</ele>
        <time>2022-05-22T09:19:58Z</time>
      </trkpt>
      <trkpt lat="37.9595990" lon="-5.6219880">
        <ele>653.2</ele>
        <time>2022-05-22T09:19:59Z</time>
      </trkpt>
      <trkpt lat="37.9596170" lon="-5.6219820">
        <ele>653.1</ele>
        <time>2022-05-22T09:20:00Z</time>
      </trkpt>
      <trkpt lat="37.9596260" lon="-5.6219790">
        <ele>653.1</ele>
        <time>2022-05-22T09:20:01Z</time>
      </trkpt>
      <trkpt lat="37.9596360" lon="-5.6219750">
        <ele>653.1</ele>
        <time>2022-05-22T09:20:02Z</time>
      </trkpt>
      <trkpt lat="37.9596460" lon="-5.6219710">
        <ele>653.1</ele>
        <time>2022-05-22T09:20:03Z</time>
      </trkpt>
      <trkpt lat="37.9596650" lon="-5.6219600">
        <ele>653.0</ele>
        <time>2022-05-22T09:20:04Z</time>
      </trkpt>
      <trkpt lat="37.9596720" lon="-5.6219550">
        <ele>653.0</ele>
        <time>2022-05-22T09:20:05Z</time>
      </trkpt>
      <trkpt lat="37.9596790" lon="-5.6219510">
        <ele>653.0</ele>
        <time>2022-05-22T09:20:06Z</time>
      </trkpt>
      <trkpt lat="37.9596970" lon="-5.6219420">
        <ele>653.0</ele>
        <time>2022-05-22T09:20:07Z</time>
      </trkpt>
      <trkpt lat="37.9597050" lon="-5.6219380">
        <ele>653.0</ele>
        <time>2022-05-22T09:20:08Z</time>
      </trkpt>
      <trkpt lat="37.9597130" lon="-5.6219340">
        <ele>652.9</ele>
        <time>2022-05-22T09:20:09Z</time>
      </trkpt>
      <trkpt lat="37.9597260" lon="-5.6219260">
        <ele>652.9</ele>
        <time>2022-05-22T09:20:10Z</time>
      </trkpt>
      <trkpt lat="37.9597390" lon="-5.6219180">
        <ele>652.9</ele>
        <time>2022-05-22T09:20:11Z</time>
      </trkpt>
      <trkpt lat="37.9597540" lon="-5.6219070">
        <ele>652.9</ele>
        <time>2022-05-22T09:20:12Z</time>
      </trkpt>
      <trkpt lat="37.9597660" lon="-5.6219000">
        <ele>652.8</ele>
        <time>2022-05-22T09:20:13Z</time>
      </trkpt>
      <trkpt lat="37.9597770" lon="-5.6218920">
        <ele>652.8</ele>
        <time>2022-05-22T09:20:14Z</time>
      </trkpt>
      <trkpt lat="37.9597890" lon="-5.6218870">
        <ele>652.8</ele>
        <time>2022-05-22T09:20:15Z</time>
      </trkpt>
      <trkpt lat="37.9598040" lon="-5.6218790">
        <ele>652.8</ele>
        <time>2022-05-22T09:20:17Z</time>
      </trkpt>
      <trkpt lat="37.9598130" lon="-5.6218700">
        <ele>652.8</ele>
        <time>2022-05-22T09:20:18Z</time>
      </trkpt>
      <trkpt lat="37.9598230" lon="-5.6218580">
        <ele>652.7</ele>
        <time>2022-05-22T09:20:19Z</time>
      </trkpt>
      <trkpt lat="37.9598280" lon="-5.6218490">
        <ele>652.7</ele>
        <time>2022-05-22T09:20:20Z</time>
      </trkpt>
      <trkpt lat="37.9598320" lon="-5.6218400">
        <ele>652.7</ele>
        <time>2022-05-22T09:20:21Z</time>
      </trkpt>
      <trkpt lat="37.9598360" lon="-5.6218320">
        <ele>652.7</ele>
        <time>2022-05-22T09:20:22Z</time>
      </trkpt>
      <trkpt lat="37.9598440" lon="-5.6218220">
        <ele>652.7</ele>
        <time>2022-05-22T09:20:23Z</time>
      </trkpt>
      <trkpt lat="37.9598520" lon="-5.6218140">
        <ele>652.7</ele>
        <time>2022-05-22T09:20:24Z</time>
      </trkpt>
      <trkpt lat="37.9598610" lon="-5.6218060">
        <ele>652.6</ele>
        <time>2022-05-22T09:20:25Z</time>
      </trkpt>
      <trkpt lat="37.9598700" lon="-5.6218000">
        <ele>652.6</ele>
        <time>2022-05-22T09:20:26Z</time>
      </trkpt>
      <trkpt lat="37.9598800" lon="-5.6217940">
        <ele>652.6</ele>
        <time>2022-05-22T09:20:27Z</time>
      </trkpt>
      <trkpt lat="37.9598990" lon="-5.6217900">
        <ele>652.6</ele>
        <time>2022-05-22T09:20:28Z</time>
      </trkpt>
      <trkpt lat="37.9599090" lon="-5.6217900">
        <ele>652.5</ele>
        <time>2022-05-22T09:20:29Z</time>
      </trkpt>
      <trkpt lat="37.9599190" lon="-5.6217900">
        <ele>652.5</ele>
        <time>2022-05-22T09:20:30Z</time>
      </trkpt>
      <trkpt lat="37.9599330" lon="-5.6217870">
        <ele>652.5</ele>
        <time>2022-05-22T09:20:31Z</time>
      </trkpt>
      <trkpt lat="37.9599450" lon="-5.6217830">
        <ele>652.5</ele>
        <time>2022-05-22T09:20:32Z</time>
      </trkpt>
      <trkpt lat="37.9599590" lon="-5.6217770">
        <ele>652.4</ele>
        <time>2022-05-22T09:20:33Z</time>
      </trkpt>
      <trkpt lat="37.9599730" lon="-5.6217720">
        <ele>652.4</ele>
        <time>2022-05-22T09:20:34Z</time>
      </trkpt>
      <trkpt lat="37.9599940" lon="-5.6217630">
        <ele>652.4</ele>
        <time>2022-05-22T09:20:35Z</time>
      </trkpt>
      <trkpt lat="37.9600050" lon="-5.6217570">
        <ele>652.3</ele>
        <time>2022-05-22T09:20:36Z</time>
      </trkpt>
      <trkpt lat="37.9600250" lon="-5.6217470">
        <ele>652.3</ele>
        <time>2022-05-22T09:20:37Z</time>
      </trkpt>
      <trkpt lat="37.9600330" lon="-5.6217430">
        <ele>652.3</ele>
        <time>2022-05-22T09:20:38Z</time>
      </trkpt>
      <trkpt lat="37.9600410" lon="-5.6217390">
        <ele>652.3</ele>
        <time>2022-05-22T09:20:39Z</time>
      </trkpt>
      <trkpt lat="37.9600630" lon="-5.6217310">
        <ele>652.2</ele>
        <time>2022-05-22T09:20:40Z</time>
      </trkpt>
      <trkpt lat="37.9600710" lon="-5.6217270">
        <ele>652.2</ele>
        <time>2022-05-22T09:20:41Z</time>
      </trkpt>
      <trkpt lat="37.9600800" lon="-5.6217230">
        <ele>652.2</ele>
        <time>2022-05-22T09:20:42Z</time>
      </trkpt>
      <trkpt lat="37.9600930" lon="-5.6217180">
        <ele>652.2</ele>
        <time>2022-05-22T09:20:43Z</time>
      </trkpt>
      <trkpt lat="37.9601070" lon="-5.6217110">
        <ele>652.1</ele>
        <time>2022-05-22T09:20:44Z</time>
      </trkpt>
      <trkpt lat="37.9601210" lon="-5.6217020">
        <ele>652.1</ele>
        <time>2022-05-22T09:20:45Z</time>
      </trkpt>
      <trkpt lat="37.9601340" lon="-5.6216930">
        <ele>652.1</ele>
        <time>2022-05-22T09:20:46Z</time>
      </trkpt>
      <trkpt lat="37.9601460" lon="-5.6216840">
        <ele>652.0</ele>
        <time>2022-05-22T09:20:47Z</time>
      </trkpt>
      <trkpt lat="37.9601590" lon="-5.6216760">
        <ele>652.0</ele>
        <time>2022-05-22T09:20:48Z</time>
      </trkpt>
      <trkpt lat="37.9601710" lon="-5.6216680">
        <ele>652.0</ele>
        <time>2022-05-22T09:20:49Z</time>
      </trkpt>
      <trkpt lat="37.9601840" lon="-5.6216600">
        <ele>652.0</ele>
        <time>2022-05-22T09:20:50Z</time>
      </trkpt>
      <trkpt lat="37.9601970" lon="-5.6216530">
        <ele>651.9</ele>
        <time>2022-05-22T09:20:51Z</time>
      </trkpt>
      <trkpt lat="37.9602100" lon="-5.6216450">
        <ele>651.9</ele>
        <time>2022-05-22T09:20:52Z</time>
      </trkpt>
      <trkpt lat="37.9602240" lon="-5.6216370">
        <ele>651.9</ele>
        <time>2022-05-22T09:20:53Z</time>
      </trkpt>
      <trkpt lat="37.9602360" lon="-5.6216290">
        <ele>651.8</ele>
        <time>2022-05-22T09:20:54Z</time>
      </trkpt>
      <trkpt lat="37.9602490" lon="-5.6216210">
        <ele>651.8</ele>
        <time>2022-05-22T09:20:55Z</time>
      </trkpt>
      <trkpt lat="37.9602630" lon="-5.6216140">
        <ele>651.8</ele>
        <time>2022-05-22T09:20:56Z</time>
      </trkpt>
      <trkpt lat="37.9602760" lon="-5.6216090">
        <ele>651.7</ele>
        <time>2022-05-22T09:20:57Z</time>
      </trkpt>
      <trkpt lat="37.9602890" lon="-5.6216030">
        <ele>651.7</ele>
        <time>2022-05-22T09:20:58Z</time>
      </trkpt>
      <trkpt lat="37.9603100" lon="-5.6215950">
        <ele>651.7</ele>
        <time>2022-05-22T09:20:59Z</time>
      </trkpt>
      <trkpt lat="37.9603180" lon="-5.6215920">
        <ele>651.6</ele>
        <time>2022-05-22T09:21:00Z</time>
      </trkpt>
      <trkpt lat="37.9603270" lon="-5.6215880">
        <ele>651.6</ele>
        <time>2022-05-22T09:21:01Z</time>
      </trkpt>
      <trkpt lat="37.9603480" lon="-5.6215770">
        <ele>651.6</ele>
        <time>2022-05-22T09:21:02Z</time>
      </trkpt>
      <trkpt lat="37.9603600" lon="-5.6215710">
        <ele>651.5</ele>
        <time>2022-05-22T09:21:04Z</time>
      </trkpt>
      <trkpt lat="37.9603720" lon="-5.6215650">
        <ele>651.5</ele>
        <time>2022-05-22T09:21:05Z</time>
      </trkpt>
      <trkpt lat="37.9603840" lon="-5.6215600">
        <ele>651.5</ele>
        <time>2022-05-22T09:21:06Z</time>
      </trkpt>
      <trkpt lat="37.9603960" lon="-5.6215540">
        <ele>651.5</ele>
        <time>2022-05-22T09:21:07Z</time>
      </trkpt>
      <trkpt lat="37.9604070" lon="-5.6215510">
        <ele>651.4</ele>
        <time>2022-05-22T09:21:08Z</time>
      </trkpt>
      <trkpt lat="37.9604180" lon="-5.6215470">
        <ele>651.4</ele>
        <time>2022-05-22T09:21:09Z</time>
      </trkpt>
      <trkpt lat="37.9604260" lon="-5.6215390">
        <ele>651.4</ele>
        <time>2022-05-22T09:21:10Z</time>
      </trkpt>
      <trkpt lat="37.9604310" lon="-5.6215290">
        <ele>651.4</ele>
        <time>2022-05-22T09:21:11Z</time>
      </trkpt>
      <trkpt lat="37.9604360" lon="-5.6215180">
        <ele>651.4</ele>
        <time>2022-05-22T09:21:12Z</time>
      </trkpt>
      <trkpt lat="37.9604330" lon="-5.6215180">
        <ele>651.3</ele>
        <time>2022-05-22T09:21:13Z</time>
      </trkpt>
      <trkpt lat="37.9604270" lon="-5.6215260">
        <ele>651.3</ele>
        <time>2022-05-22T09:21:14Z</time>
      </trkpt>
      <trkpt lat="37.9604220" lon="-5.6215420">
        <ele>651.3</ele>
        <time>2022-05-22T09:21:16Z</time>
      </trkpt>
      <trkpt lat="37.9604250" lon="-5.6215430">
        <ele>651.3</ele>
        <time>2022-05-22T09:21:17Z</time>
      </trkpt>
      <trkpt lat="37.9604310" lon="-5.6215400">
        <ele>651.3</ele>
        <time>2022-05-22T09:21:18Z</time>
      </trkpt>
      <trkpt lat="37.9604410" lon="-5.6215340">
        <ele>651.3</ele>
        <time>2022-05-22T09:21:19Z</time>
      </trkpt>
      <trkpt lat="37.9604520" lon="-5.6215260">
        <ele>651.2</ele>
        <time>2022-05-22T09:21:20Z</time>
      </trkpt>
      <trkpt lat="37.9604630" lon="-5.6215200">
        <ele>651.2</ele>
        <time>2022-05-22T09:21:21Z</time>
      </trkpt>
      <trkpt lat="37.9604720" lon="-5.6215190">
        <ele>651.2</ele>
        <time>2022-05-22T09:21:22Z</time>
      </trkpt>
      <trkpt lat="37.9604830" lon="-5.6215180">
        <ele>651.2</ele>
        <time>2022-05-22T09:21:23Z</time>
      </trkpt>
      <trkpt lat="37.9605020" lon="-5.6215120">
        <ele>651.2</ele>
        <time>2022-05-22T09:21:24Z</time>
      </trkpt>
      <trkpt lat="37.9605110" lon="-5.6215100">
        <ele>651.1</ele>
        <time>2022-05-22T09:21:25Z</time>
      </trkpt>
      <trkpt lat="37.9605190" lon="-5.6215080">
        <ele>651.1</ele>
        <time>2022-05-22T09:21:26Z</time>
      </trkpt>
      <trkpt lat="37.9605290" lon="-5.6215040">
        <ele>651.1</ele>
        <time>2022-05-22T09:21:27Z</time>
      </trkpt>
      <trkpt lat="37.9605410" lon="-5.6214980">
        <ele>651.1</ele>
        <time>2022-05-22T09:21:28Z</time>
      </trkpt>
      <trkpt lat="37.9605510" lon="-5.6214990">
        <ele>651.1</ele>
        <time>2022-05-22T09:21:29Z</time>
      </trkpt>
      <trkpt lat="37.9605610" lon="-5.6214990">
        <ele>651.0</ele>
        <time>2022-05-22T09:21:30Z</time>
      </trkpt>
      <trkpt lat="37.9605720" lon="-5.6214900">
        <ele>651.0</ele>
        <time>2022-05-22T09:21:31Z</time>
      </trkpt>
      <trkpt lat="37.9605820" lon="-5.6214820">
        <ele>651.0</ele>
        <time>2022-05-22T09:21:32Z</time>
      </trkpt>
      <trkpt lat="37.9605980" lon="-5.6214650">
        <ele>651.0</ele>
        <time>2022-05-22T09:21:33Z</time>
      </trkpt>
      <trkpt lat="37.9606050" lon="-5.6214570">
        <ele>650.9</ele>
        <time>2022-05-22T09:21:34Z</time>
      </trkpt>
      <trkpt lat="37.9606110" lon="-5.6214480">
        <ele>650.9</ele>
        <time>2022-05-22T09:21:35Z</time>
      </trkpt>
      <trkpt lat="37.9606200" lon="-5.6214310">
        <ele>650.9</ele>
        <time>2022-05-22T09:21:36Z</time>
      </trkpt>
      <trkpt lat="37.9606370" lon="-5.6214160">
        <ele>650.9</ele>
        <time>2022-05-22T09:21:38Z</time>
      </trkpt>
      <trkpt lat="37.9606480" lon="-5.6214110">
        <ele>650.8</ele>
        <time>2022-05-22T09:21:39Z</time>
      </trkpt>
      <trkpt lat="37.9606570" lon="-5.6214040">
        <ele>650.8</ele>
        <time>2022-05-22T09:21:40Z</time>
      </trkpt>
      <trkpt lat="37.9606650" lon="-5.6213950">
        <ele>650.8</ele>
        <time>2022-05-22T09:21:41Z</time>
      </trkpt>
      <trkpt lat="37.9606740" lon="-5.6213840">
        <ele>650.8</ele>
        <time>2022-05-22T09:21:42Z</time>
      </trkpt>
      <trkpt lat="37.9606920" lon="-5.6213620">
        <ele>650.7</ele>
        <time>2022-05-22T09:21:44Z</time>
      </trkpt>
      <trkpt lat="37.9607080" lon="-5.6213450">
        <ele>650.7</ele>
        <time>2022-05-22T09:21:45Z</time>
      </trkpt>
      <trkpt lat="37.9607140" lon="-5.6213370">
        <ele>650.7</ele>
        <time>2022-05-22T09:21:46Z</time>
      </trkpt>
      <trkpt lat="37.9607210" lon="-5.6213300">
        <ele>650.7</ele>
        <time>2022-05-22T09:21:47Z</time>
      </trkpt>
      <trkpt lat="37.9607310" lon="-5.6213220">
        <ele>650.6</ele>
        <time>2022-05-22T09:21:48Z</time>
      </trkpt>
      <trkpt lat="37.9607530" lon="-5.6213090">
        <ele>650.6</ele>
        <time>2022-05-22T09:21:50Z</time>
      </trkpt>
      <trkpt lat="37.9607630" lon="-5.6213040">
        <ele>650.6</ele>
        <time>2022-05-22T09:21:51Z</time>
      </trkpt>
      <trkpt lat="37.9607720" lon="-5.6212980">
        <ele>650.6</ele>
        <time>2022-05-22T09:21:52Z</time>
      </trkpt>
      <trkpt lat="37.9607830" lon="-5.6212910">
        <ele>650.5</ele>
        <time>2022-05-22T09:21:53Z</time>
      </trkpt>
      <trkpt lat="37.9607930" lon="-5.6212850">
        <ele>650.5</ele>
        <time>2022-05-22T09:21:54Z</time>
      </trkpt>
      <trkpt lat="37.9608020" lon="-5.6212780">
        <ele>650.5</ele>
        <time>2022-05-22T09:21:55Z</time>
      </trkpt>
      <trkpt lat="37.9608110" lon="-5.6212730">
        <ele>650.5</ele>
        <time>2022-05-22T09:21:56Z</time>
      </trkpt>
      <trkpt lat="37.9608200" lon="-5.6212710">
        <ele>650.5</ele>
        <time>2022-05-22T09:21:57Z</time>
      </trkpt>
      <trkpt lat="37.9608260" lon="-5.6212710">
        <ele>650.5</ele>
        <time>2022-05-22T09:21:58Z</time>
      </trkpt>
      <trkpt lat="37.9608300" lon="-5.6212680">
        <ele>650.5</ele>
        <time>2022-05-22T09:21:59Z</time>
      </trkpt>
      <trkpt lat="37.9608350" lon="-5.6212680">
        <ele>650.4</ele>
        <time>2022-05-22T09:22:00Z</time>
      </trkpt>
      <trkpt lat="37.9608390" lon="-5.6212640">
        <ele>650.4</ele>
        <time>2022-05-22T09:22:01Z</time>
      </trkpt>
      <trkpt lat="37.9608420" lon="-5.6212550">
        <ele>650.4</ele>
        <time>2022-05-22T09:22:02Z</time>
      </trkpt>
      <trkpt lat="37.9608440" lon="-5.6212440">
        <ele>650.4</ele>
        <time>2022-05-22T09:22:03Z</time>
      </trkpt>
      <trkpt lat="37.9608450" lon="-5.6212270">
        <ele>650.4</ele>
        <time>2022-05-22T09:22:04Z</time>
      </trkpt>
      <trkpt lat="37.9608460" lon="-5.6212190">
        <ele>650.4</ele>
        <time>2022-05-22T09:22:05Z</time>
      </trkpt>
      <trkpt lat="37.9608490" lon="-5.6212090">
        <ele>650.4</ele>
        <time>2022-05-22T09:22:06Z</time>
      </trkpt>
      <trkpt lat="37.9608520" lon="-5.6212000">
        <ele>650.3</ele>
        <time>2022-05-22T09:22:07Z</time>
      </trkpt>
      <trkpt lat="37.9608570" lon="-5.6211890">
        <ele>650.3</ele>
        <time>2022-05-22T09:22:08Z</time>
      </trkpt>
      <trkpt lat="37.9608760" lon="-5.6211710">
        <ele>650.3</ele>
        <time>2022-05-22T09:22:09Z</time>
      </trkpt>
      <trkpt lat="37.9608860" lon="-5.6211620">
        <ele>650.3</ele>
        <time>2022-05-22T09:22:11Z</time>
      </trkpt>
      <trkpt lat="37.9608950" lon="-5.6211530">
        <ele>650.2</ele>
        <time>2022-05-22T09:22:12Z</time>
      </trkpt>
      <trkpt lat="37.9609050" lon="-5.6211440">
        <ele>650.2</ele>
        <time>2022-05-22T09:22:13Z</time>
      </trkpt>
      <trkpt lat="37.9609150" lon="-5.6211350">
        <ele>650.2</ele>
        <time>2022-05-22T09:22:14Z</time>
      </trkpt>
      <trkpt lat="37.9609430" lon="-5.6211230">
        <ele>650.1</ele>
        <time>2022-05-22T09:22:15Z</time>
      </trkpt>
      <trkpt lat="37.9609560" lon="-5.6211180">
        <ele>650.1</ele>
        <time>2022-05-22T09:22:16Z</time>
      </trkpt>
      <trkpt lat="37.9609850" lon="-5.6211160">
        <ele>650.1</ele>
        <time>2022-05-22T09:22:17Z</time>
      </trkpt>
      <trkpt lat="37.9609920" lon="-5.6211150">
        <ele>650.1</ele>
        <time>2022-05-22T09:22:18Z</time>
      </trkpt>
      <trkpt lat="37.9610100" lon="-5.6211130">
        <ele>650.0</ele>
        <time>2022-05-22T09:22:19Z</time>
      </trkpt>
      <trkpt lat="37.9610280" lon="-5.6211120">
        <ele>650.0</ele>
        <time>2022-05-22T09:22:21Z</time>
      </trkpt>
      <trkpt lat="37.9610560" lon="-5.6211130">
        <ele>649.9</ele>
        <time>2022-05-22T09:22:22Z</time>
      </trkpt>
      <trkpt lat="37.9610700" lon="-5.6211120">
        <ele>649.9</ele>
        <time>2022-05-22T09:22:23Z</time>
      </trkpt>
      <trkpt lat="37.9610840" lon="-5.6211110">
        <ele>649.9</ele>
        <time>2022-05-22T09:22:24Z</time>
      </trkpt>
      <trkpt lat="37.9610970" lon="-5.6211100">
        <ele>649.9</ele>
        <time>2022-05-22T09:22:25Z</time>
      </trkpt>
      <trkpt lat="37.9611110" lon="-5.6211070">
        <ele>649.8</ele>
        <time>2022-05-22T09:22:26Z</time>
      </trkpt>
      <trkpt lat="37.9611380" lon="-5.6210970">
        <ele>649.8</ele>
        <time>2022-05-22T09:22:28Z</time>
      </trkpt>
      <trkpt lat="37.9611480" lon="-5.6210910">
        <ele>649.8</ele>
        <time>2022-05-22T09:22:29Z</time>
      </trkpt>
      <trkpt lat="37.9611580" lon="-5.6210840">
        <ele>649.8</ele>
        <time>2022-05-22T09:22:30Z</time>
      </trkpt>
      <trkpt lat="37.9611680" lon="-5.6210780">
        <ele>649.7</ele>
        <time>2022-05-22T09:22:31Z</time>
      </trkpt>
      <trkpt lat="37.9611800" lon="-5.6210720">
        <ele>649.7</ele>
        <time>2022-05-22T09:22:32Z</time>
      </trkpt>
      <trkpt lat="37.9611920" lon="-5.6210690">
        <ele>649.7</ele>
        <time>2022-05-22T09:22:33Z</time>
      </trkpt>
      <trkpt lat="37.9612020" lon="-5.6210620">
        <ele>649.7</ele>
        <time>2022-05-22T09:22:35Z</time>
      </trkpt>
      <trkpt lat="37.9612190" lon="-5.6210530">
        <ele>649.7</ele>
        <time>2022-05-22T09:22:36Z</time>
      </trkpt>
      <trkpt lat="37.9612320" lon="-5.6210460">
        <ele>649.6</ele>
        <time>2022-05-22T09:22:37Z</time>
      </trkpt>
      <trkpt lat="37.9612440" lon="-5.6210410">
        <ele>649.6</ele>
        <time>2022-05-22T09:22:38Z</time>
      </trkpt>
      <trkpt lat="37.9612630" lon="-5.6210430">
        <ele>649.6</ele>
        <time>2022-05-22T09:22:39Z</time>
      </trkpt>
      <trkpt lat="37.9612810" lon="-5.6210420">
        <ele>649.6</ele>
        <time>2022-05-22T09:22:40Z</time>
      </trkpt>
      <trkpt lat="37.9612960" lon="-5.6210380">
        <ele>649.5</ele>
        <time>2022-05-22T09:22:41Z</time>
      </trkpt>
      <trkpt lat="37.9613120" lon="-5.6210330">
        <ele>649.5</ele>
        <time>2022-05-22T09:22:42Z</time>
      </trkpt>
      <trkpt lat="37.9613260" lon="-5.6210260">
        <ele>649.5</ele>
        <time>2022-05-22T09:22:43Z</time>
      </trkpt>
      <trkpt lat="37.9613470" lon="-5.6210180">
        <ele>649.5</ele>
        <time>2022-05-22T09:22:45Z</time>
      </trkpt>
      <trkpt lat="37.9613580" lon="-5.6210130">
        <ele>649.4</ele>
        <time>2022-05-22T09:22:46Z</time>
      </trkpt>
      <trkpt lat="37.9613690" lon="-5.6210070">
        <ele>649.4</ele>
        <time>2022-05-22T09:22:47Z</time>
      </trkpt>
      <trkpt lat="37.9613880" lon="-5.6209970">
        <ele>649.4</ele>
        <time>2022-05-22T09:22:48Z</time>
      </trkpt>
      <trkpt lat="37.9613980" lon="-5.6209920">
        <ele>649.4</ele>
        <time>2022-05-22T09:22:49Z</time>
      </trkpt>
      <trkpt lat="37.9614090" lon="-5.6209850">
        <ele>649.4</ele>
        <time>2022-05-22T09:22:50Z</time>
      </trkpt>
      <trkpt lat="37.9614200" lon="-5.6209790">
        <ele>649.3</ele>
        <time>2022-05-22T09:22:51Z</time>
      </trkpt>
      <trkpt lat="37.9614410" lon="-5.6209680">
        <ele>649.3</ele>
        <time>2022-05-22T09:22:52Z</time>
      </trkpt>
      <trkpt lat="37.9614490" lon="-5.6209650">
        <ele>649.3</ele>
        <time>2022-05-22T09:22:53Z</time>
      </trkpt>
      <trkpt lat="37.9614570" lon="-5.6209610">
        <ele>649.3</ele>
        <time>2022-05-22T09:22:54Z</time>
      </trkpt>
      <trkpt lat="37.9614760" lon="-5.6209500">
        <ele>649.2</ele>
        <time>2022-05-22T09:22:56Z</time>
      </trkpt>
      <trkpt lat="37.9614830" lon="-5.6209440">
        <ele>649.2</ele>
        <time>2022-05-22T09:22:57Z</time>
      </trkpt>
      <trkpt lat="37.9614920" lon="-5.6209380">
        <ele>649.2</ele>
        <time>2022-05-22T09:22:58Z</time>
      </trkpt>
      <trkpt lat="37.9615010" lon="-5.6209310">
        <ele>649.2</ele>
        <time>2022-05-22T09:22:59Z</time>
      </trkpt>
      <trkpt lat="37.9615100" lon="-5.6209230">
        <ele>649.2</ele>
        <time>2022-05-22T09:23:00Z</time>
      </trkpt>
      <trkpt lat="37.9615180" lon="-5.6209170">
        <ele>649.2</ele>
        <time>2022-05-22T09:23:01Z</time>
      </trkpt>
      <trkpt lat="37.9615300" lon="-5.6209100">
        <ele>649.2</ele>
        <time>2022-05-22T09:23:02Z</time>
      </trkpt>
      <trkpt lat="37.9615320" lon="-5.6209100">
        <ele>649.2</ele>
        <time>2022-05-22T09:23:03Z</time>
      </trkpt>
      <trkpt lat="37.9615340" lon="-5.6209140">
        <ele>649.1</ele>
        <time>2022-05-22T09:23:04Z</time>
      </trkpt>
      <trkpt lat="37.9615380" lon="-5.6209160">
        <ele>649.1</ele>
        <time>2022-05-22T09:23:05Z</time>
      </trkpt>
      <trkpt lat="37.9615430" lon="-5.6209140">
        <ele>649.1</ele>
        <time>2022-05-22T09:23:06Z</time>
      </trkpt>
      <trkpt lat="37.9615490" lon="-5.6209080">
        <ele>649.1</ele>
        <time>2022-05-22T09:23:07Z</time>
      </trkpt>
      <trkpt lat="37.9615560" lon="-5.6209010">
        <ele>649.1</ele>
        <time>2022-05-22T09:23:08Z</time>
      </trkpt>
      <trkpt lat="37.9615650" lon="-5.6208950">
        <ele>649.1</ele>
        <time>2022-05-22T09:23:09Z</time>
      </trkpt>
      <trkpt lat="37.9615730" lon="-5.6208910">
        <ele>649.1</ele>
        <time>2022-05-22T09:23:10Z</time>
      </trkpt>
      <trkpt lat="37.9615820" lon="-5.6208860">
        <ele>649.1</ele>
        <time>2022-05-22T09:23:11Z</time>
      </trkpt>
      <trkpt lat="37.9615920" lon="-5.6208800">
        <ele>649.0</ele>
        <time>2022-05-22T09:23:12Z</time>
      </trkpt>
      <trkpt lat="37.9616040" lon="-5.6208720">
        <ele>649.0</ele>
        <time>2022-05-22T09:23:13Z</time>
      </trkpt>
      <trkpt lat="37.9616120" lon="-5.6208700">
        <ele>649.0</ele>
        <time>2022-05-22T09:23:14Z</time>
      </trkpt>
      <trkpt lat="37.9616210" lon="-5.6208700">
        <ele>649.0</ele>
        <time>2022-05-22T09:23:15Z</time>
      </trkpt>
      <trkpt lat="37.9616330" lon="-5.6208640">
        <ele>649.0</ele>
        <time>2022-05-22T09:23:17Z</time>
      </trkpt>
      <trkpt lat="37.9616310" lon="-5.6208600">
        <ele>649.0</ele>
        <time>2022-05-22T09:23:18Z</time>
      </trkpt>
      <trkpt lat="37.9616330" lon="-5.6208600">
        <ele>649.0</ele>
        <time>2022-05-22T09:23:19Z</time>
      </trkpt>
      <trkpt lat="37.9616340" lon="-5.6208610">
        <ele>649.0</ele>
        <time>2022-05-22T09:23:20Z</time>
      </trkpt>
      <trkpt lat="37.9616340" lon="-5.6208610">
        <ele>649.0</ele>
        <time>2022-05-22T09:23:21Z</time>
      </trkpt>
      <trkpt lat="37.9616340" lon="-5.6208600">
        <ele>649.0</ele>
        <time>2022-05-22T09:23:22Z</time>
      </trkpt>
      <trkpt lat="37.9616340" lon="-5.6208600">
        <ele>649.0</ele>
        <time>2022-05-22T09:23:24Z</time>
      </trkpt>
      <trkpt lat="37.9616370" lon="-5.6208590">
        <ele>649.0</ele>
        <time>2022-05-22T09:23:25Z</time>
      </trkpt>
      <trkpt lat="37.9616390" lon="-5.6208580">
        <ele>649.0</ele>
        <time>2022-05-22T09:23:26Z</time>
      </trkpt>
      <trkpt lat="37.9616430" lon="-5.6208580">
        <ele>649.0</ele>
        <time>2022-05-22T09:23:27Z</time>
      </trkpt>
      <trkpt lat="37.9616470" lon="-5.6208560">
        <ele>648.9</ele>
        <time>2022-05-22T09:23:28Z</time>
      </trkpt>
      <trkpt lat="37.9616500" lon="-5.6208530">
        <ele>648.9</ele>
        <time>2022-05-22T09:23:29Z</time>
      </trkpt>
      <trkpt lat="37.9616550" lon="-5.6208490">
        <ele>648.9</ele>
        <time>2022-05-22T09:23:30Z</time>
      </trkpt>
      <trkpt lat="37.9616640" lon="-5.6208430">
        <ele>648.9</ele>
        <time>2022-05-22T09:23:31Z</time>
      </trkpt>
      <trkpt lat="37.9616730" lon="-5.6208360">
        <ele>648.9</ele>
        <time>2022-05-22T09:23:32Z</time>
      </trkpt>
      <trkpt lat="37.9616910" lon="-5.6208240">
        <ele>648.9</ele>
        <time>2022-05-22T09:23:33Z</time>
      </trkpt>
      <trkpt lat="37.9616980" lon="-5.6208190">
        <ele>648.9</ele>
        <time>2022-05-22T09:23:34Z</time>
      </trkpt>
      <trkpt lat="37.9617060" lon="-5.6208140">
        <ele>648.8</ele>
        <time>2022-05-22T09:23:35Z</time>
      </trkpt>
      <trkpt lat="37.9617420" lon="-5.6207940">
        <ele>648.8</ele>
        <time>2022-05-22T09:23:36Z</time>
      </trkpt>
      <trkpt lat="37.9617700" lon="-5.6207810">
        <ele>648.7</ele>
        <time>2022-05-22T09:23:37Z</time>
      </trkpt>
      <trkpt lat="37.9617990" lon="-5.6207780">
        <ele>648.7</ele>
        <time>2022-05-22T09:23:38Z</time>
      </trkpt>
      <trkpt lat="37.9618070" lon="-5.6207770">
        <ele>648.7</ele>
        <time>2022-05-22T09:23:39Z</time>
      </trkpt>
      <trkpt lat="37.9618350" lon="-5.6207680">
        <ele>648.6</ele>
        <time>2022-05-22T09:23:40Z</time>
      </trkpt>
      <trkpt lat="37.9618440" lon="-5.6207630">
        <ele>648.6</ele>
        <time>2022-05-22T09:23:41Z</time>
      </trkpt>
      <trkpt lat="37.9618560" lon="-5.6207560">
        <ele>648.6</ele>
        <time>2022-05-22T09:23:42Z</time>
      </trkpt>
      <trkpt lat="37.9618700" lon="-5.6207460">
        <ele>648.6</ele>
        <time>2022-05-22T09:23:43Z</time>
      </trkpt>
      <trkpt lat="37.9618840" lon="-5.6207350">
        <ele>648.5</ele>
        <time>2022-05-22T09:23:44Z</time>
      </trkpt>
      <trkpt lat="37.9618960" lon="-5.6207240">
        <ele>648.5</ele>
        <time>2022-05-22T09:23:45Z</time>
      </trkpt>
      <trkpt lat="37.9619070" lon="-5.6207120">
        <ele>648.5</ele>
        <time>2022-05-22T09:23:46Z</time>
      </trkpt>
      <trkpt lat="37.9619180" lon="-5.6206980">
        <ele>648.5</ele>
        <time>2022-05-22T09:23:47Z</time>
      </trkpt>
      <trkpt lat="37.9619290" lon="-5.6206870">
        <ele>648.4</ele>
        <time>2022-05-22T09:23:48Z</time>
      </trkpt>
      <trkpt lat="37.9619410" lon="-5.6206760">
        <ele>648.4</ele>
        <time>2022-05-22T09:23:49Z</time>
      </trkpt>
      <trkpt lat="37.9619530" lon="-5.6206650">
        <ele>648.4</ele>
        <time>2022-05-22T09:23:50Z</time>
      </trkpt>
      <trkpt lat="37.9619650" lon="-5.6206540">
        <ele>648.4</ele>
        <time>2022-05-22T09:23:51Z</time>
      </trkpt>
      <trkpt lat="37.9619760" lon="-5.6206440">
        <ele>648.3</ele>
        <time>2022-05-22T09:23:52Z</time>
      </trkpt>
      <trkpt lat="37.9619910" lon="-5.6206320">
        <ele>648.3</ele>
        <time>2022-05-22T09:23:53Z</time>
      </trkpt>
      <trkpt lat="37.9620080" lon="-5.6206190">
        <ele>648.3</ele>
        <time>2022-05-22T09:23:54Z</time>
      </trkpt>
      <trkpt lat="37.9620160" lon="-5.6206130">
        <ele>648.3</ele>
        <time>2022-05-22T09:23:55Z</time>
      </trkpt>
      <trkpt lat="37.9620230" lon="-5.6206080">
        <ele>648.3</ele>
        <time>2022-05-22T09:23:56Z</time>
      </trkpt>
      <trkpt lat="37.9620410" lon="-5.6205940">
        <ele>648.2</ele>
        <time>2022-05-22T09:23:57Z</time>
      </trkpt>
      <trkpt lat="37.9620490" lon="-5.6205870">
        <ele>648.2</ele>
        <time>2022-05-22T09:23:58Z</time>
      </trkpt>
      <trkpt lat="37.9620580" lon="-5.6205800">
        <ele>648.2</ele>
        <time>2022-05-22T09:23:59Z</time>
      </trkpt>
      <trkpt lat="37.9620750" lon="-5.6205660">
        <ele>648.1</ele>
        <time>2022-05-22T09:24:00Z</time>
      </trkpt>
      <trkpt lat="37.9620810" lon="-5.6205610">
        <ele>648.1</ele>
        <time>2022-05-22T09:24:01Z</time>
      </trkpt>
      <trkpt lat="37.9620880" lon="-5.6205550">
        <ele>648.1</ele>
        <time>2022-05-22T09:24:02Z</time>
      </trkpt>
      <trkpt lat="37.9620990" lon="-5.6205470">
        <ele>648.1</ele>
        <time>2022-05-22T09:24:03Z</time>
      </trkpt>
      <trkpt lat="37.9621130" lon="-5.6205370">
        <ele>648.1</ele>
        <time>2022-05-22T09:24:04Z</time>
      </trkpt>
      <trkpt lat="37.9621310" lon="-5.6205250">
        <ele>648.0</ele>
        <time>2022-05-22T09:24:05Z</time>
      </trkpt>
      <trkpt lat="37.9621390" lon="-5.6205200">
        <ele>648.0</ele>
        <time>2022-05-22T09:24:06Z</time>
      </trkpt>
      <trkpt lat="37.9621470" lon="-5.6205160">
        <ele>648.0</ele>
        <time>2022-05-22T09:24:07Z</time>
      </trkpt>
      <trkpt lat="37.9621650" lon="-5.6205080">
        <ele>647.9</ele>
        <time>2022-05-22T09:24:08Z</time>
      </trkpt>
      <trkpt lat="37.9621740" lon="-5.6205050">
        <ele>647.9</ele>
        <time>2022-05-22T09:24:09Z</time>
      </trkpt>
      <trkpt lat="37.9621830" lon="-5.6205020">
        <ele>647.9</ele>
        <time>2022-05-22T09:24:10Z</time>
      </trkpt>
      <trkpt lat="37.9621920" lon="-5.6204980">
        <ele>647.9</ele>
        <time>2022-05-22T09:24:11Z</time>
      </trkpt>
      <trkpt lat="37.9622020" lon="-5.6204920">
        <ele>647.8</ele>
        <time>2022-05-22T09:24:12Z</time>
      </trkpt>
      <trkpt lat="37.9622130" lon="-5.6204870">
        <ele>647.8</ele>
        <time>2022-05-22T09:24:13Z</time>
      </trkpt>
      <trkpt lat="37.9622230" lon="-5.6204820">
        <ele>647.8</ele>
        <time>2022-05-22T09:24:14Z</time>
      </trkpt>
      <trkpt lat="37.9622320" lon="-5.6204770">
        <ele>647.8</ele>
        <time>2022-05-22T09:24:15Z</time>
      </trkpt>
      <trkpt lat="37.9622390" lon="-5.6204730">
        <ele>647.8</ele>
        <time>2022-05-22T09:24:16Z</time>
      </trkpt>
      <trkpt lat="37.9622390" lon="-5.6204770">
        <ele>647.8</ele>
        <time>2022-05-22T09:24:17Z</time>
      </trkpt>
      <trkpt lat="37.9622420" lon="-5.6204760">
        <ele>647.8</ele>
        <time>2022-05-22T09:24:18Z</time>
      </trkpt>
      <trkpt lat="37.9622530" lon="-5.6204710">
        <ele>647.7</ele>
        <time>2022-05-22T09:24:19Z</time>
      </trkpt>
      <trkpt lat="37.9622630" lon="-5.6204660">
        <ele>647.7</ele>
        <time>2022-05-22T09:24:20Z</time>
      </trkpt>
      <trkpt lat="37.9622730" lon="-5.6204620">
        <ele>647.7</ele>
        <time>2022-05-22T09:24:21Z</time>
      </trkpt>
      <trkpt lat="37.9622800" lon="-5.6204570">
        <ele>647.7</ele>
        <time>2022-05-22T09:24:22Z</time>
      </trkpt>
      <trkpt lat="37.9622860" lon="-5.6204520">
        <ele>647.7</ele>
        <time>2022-05-22T09:24:23Z</time>
      </trkpt>
      <trkpt lat="37.9622940" lon="-5.6204470">
        <ele>647.6</ele>
        <time>2022-05-22T09:24:24Z</time>
      </trkpt>
      <trkpt lat="37.9623030" lon="-5.6204430">
        <ele>647.6</ele>
        <time>2022-05-22T09:24:25Z</time>
      </trkpt>
      <trkpt lat="37.9623150" lon="-5.6204390">
        <ele>647.6</ele>
        <time>2022-05-22T09:24:26Z</time>
      </trkpt>
      <trkpt lat="37.9623280" lon="-5.6204340">
        <ele>647.6</ele>
        <time>2022-05-22T09:24:27Z</time>
      </trkpt>
      <trkpt lat="37.9623380" lon="-5.6204320">
        <ele>647.5</ele>
        <time>2022-05-22T09:24:28Z</time>
      </trkpt>
      <trkpt lat="37.9623470" lon="-5.6204300">
        <ele>647.5</ele>
        <time>2022-05-22T09:24:29Z</time>
      </trkpt>
      <trkpt lat="37.9623560" lon="-5.6204270">
        <ele>647.5</ele>
        <time>2022-05-22T09:24:30Z</time>
      </trkpt>
      <trkpt lat="37.9623650" lon="-5.6204240">
        <ele>647.5</ele>
        <time>2022-05-22T09:24:31Z</time>
      </trkpt>
      <trkpt lat="37.9623760" lon="-5.6204190">
        <ele>647.5</ele>
        <time>2022-05-22T09:24:32Z</time>
      </trkpt>
      <trkpt lat="37.9623930" lon="-5.6204120">
        <ele>647.4</ele>
        <time>2022-05-22T09:24:33Z</time>
      </trkpt>
      <trkpt lat="37.9624030" lon="-5.6204060">
        <ele>647.4</ele>
        <time>2022-05-22T09:24:34Z</time>
      </trkpt>
      <trkpt lat="37.9624140" lon="-5.6203980">
        <ele>647.4</ele>
        <time>2022-05-22T09:24:35Z</time>
      </trkpt>
      <trkpt lat="37.9624300" lon="-5.6203860">
        <ele>647.4</ele>
        <time>2022-05-22T09:24:37Z</time>
      </trkpt>
      <trkpt lat="37.9624450" lon="-5.6203730">
        <ele>647.3</ele>
        <time>2022-05-22T09:24:38Z</time>
      </trkpt>
      <trkpt lat="37.9624590" lon="-5.6203640">
        <ele>647.3</ele>
        <time>2022-05-22T09:24:39Z</time>
      </trkpt>
      <trkpt lat="37.9624700" lon="-5.6203580">
        <ele>647.3</ele>
        <time>2022-05-22T09:24:40Z</time>
      </trkpt>
      <trkpt lat="37.9624810" lon="-5.6203510">
        <ele>647.3</ele>
        <time>2022-05-22T09:24:41Z</time>
      </trkpt>
      <trkpt lat="37.9624950" lon="-5.6203430">
        <ele>647.2</ele>
        <time>2022-05-22T09:24:43Z</time>
      </trkpt>
      <trkpt lat="37.9625070" lon="-5.6203360">
        <ele>647.2</ele>
        <time>2022-05-22T09:24:44Z</time>
      </trkpt>
      <trkpt lat="37.9625260" lon="-5.6203240">
        <ele>647.2</ele>
        <time>2022-05-22T09:24:45Z</time>
      </trkpt>
      <trkpt lat="37.9625360" lon="-5.6203180">
        <ele>647.1</ele>
        <time>2022-05-22T09:24:46Z</time>
      </trkpt>
      <trkpt lat="37.9625460" lon="-5.6203130">
        <ele>647.1</ele>
        <time>2022-05-22T09:24:47Z</time>
      </trkpt>
      <trkpt lat="37.9625610" lon="-5.6203050">
        <ele>647.1</ele>
        <time>2022-05-22T09:24:49Z</time>
      </trkpt>
      <trkpt lat="37.9625790" lon="-5.6202960">
        <ele>647.0</ele>
        <time>2022-05-22T09:24:50Z</time>
      </trkpt>
      <trkpt lat="37.9625900" lon="-5.6202920">
        <ele>647.0</ele>
        <time>2022-05-22T09:24:51Z</time>
      </trkpt>
      <trkpt lat="37.9626010" lon="-5.6202930">
        <ele>647.0</ele>
        <time>2022-05-22T09:24:52Z</time>
      </trkpt>
      <trkpt lat="37.9626150" lon="-5.6202990">
        <ele>647.0</ele>
        <time>2022-05-22T09:24:54Z</time>
      </trkpt>
      <trkpt lat="37.9626240" lon="-5.6202990">
        <ele>646.9</ele>
        <time>2022-05-22T09:24:55Z</time>
      </trkpt>
      <trkpt lat="37.9626390" lon="-5.6202950">
        <ele>646.9</ele>
        <time>2022-05-22T09:24:56Z</time>
      </trkpt>
      <trkpt lat="37.9626500" lon="-5.6202900">
        <ele>646.9</ele>
        <time>2022-05-22T09:24:57Z</time>
      </trkpt>
      <trkpt lat="37.9626620" lon="-5.6202840">
        <ele>646.9</ele>
        <time>2022-05-22T09:24:58Z</time>
      </trkpt>
      <trkpt lat="37.9626790" lon="-5.6202770">
        <ele>646.8</ele>
        <time>2022-05-22T09:24:59Z</time>
      </trkpt>
      <trkpt lat="37.9626990" lon="-5.6202660">
        <ele>646.8</ele>
        <time>2022-05-22T09:25:00Z</time>
      </trkpt>
      <trkpt lat="37.9627080" lon="-5.6202600">
        <ele>646.8</ele>
        <time>2022-05-22T09:25:01Z</time>
      </trkpt>
      <trkpt lat="37.9627160" lon="-5.6202550">
        <ele>646.7</ele>
        <time>2022-05-22T09:25:02Z</time>
      </trkpt>
      <trkpt lat="37.9627340" lon="-5.6202480">
        <ele>646.7</ele>
        <time>2022-05-22T09:25:04Z</time>
      </trkpt>
      <trkpt lat="37.9627450" lon="-5.6202440">
        <ele>646.7</ele>
        <time>2022-05-22T09:25:05Z</time>
      </trkpt>
      <trkpt lat="37.9627560" lon="-5.6202350">
        <ele>646.7</ele>
        <time>2022-05-22T09:25:06Z</time>
      </trkpt>
      <trkpt lat="37.9627670" lon="-5.6202290">
        <ele>646.6</ele>
        <time>2022-05-22T09:25:07Z</time>
      </trkpt>
      <trkpt lat="37.9627760" lon="-5.6202240">
        <ele>646.6</ele>
        <time>2022-05-22T09:25:08Z</time>
      </trkpt>
      <trkpt lat="37.9627850" lon="-5.6202170">
        <ele>646.6</ele>
        <time>2022-05-22T09:25:09Z</time>
      </trkpt>
      <trkpt lat="37.9627950" lon="-5.6202100">
        <ele>646.6</ele>
        <time>2022-05-22T09:25:10Z</time>
      </trkpt>
      <trkpt lat="37.9628060" lon="-5.6202020">
        <ele>646.6</ele>
        <time>2022-05-22T09:25:11Z</time>
      </trkpt>
      <trkpt lat="37.9628180" lon="-5.6201920">
        <ele>646.5</ele>
        <time>2022-05-22T09:25:12Z</time>
      </trkpt>
      <trkpt lat="37.9628300" lon="-5.6201820">
        <ele>646.5</ele>
        <time>2022-05-22T09:25:13Z</time>
      </trkpt>
      <trkpt lat="37.9628530" lon="-5.6201640">
        <ele>646.5</ele>
        <time>2022-05-22T09:25:15Z</time>
      </trkpt>
      <trkpt lat="37.9628620" lon="-5.6201580">
        <ele>646.4</ele>
        <time>2022-05-22T09:25:16Z</time>
      </trkpt>
      <trkpt lat="37.9628730" lon="-5.6201520">
        <ele>646.4</ele>
        <time>2022-05-22T09:25:17Z</time>
      </trkpt>
      <trkpt lat="37.9628840" lon="-5.6201440">
        <ele>646.4</ele>
        <time>2022-05-22T09:25:18Z</time>
      </trkpt>
      <trkpt lat="37.9629020" lon="-5.6201260">
        <ele>646.3</ele>
        <time>2022-05-22T09:25:20Z</time>
      </trkpt>
      <trkpt lat="37.9629250" lon="-5.6201130">
        <ele>646.3</ele>
        <time>2022-05-22T09:25:21Z</time>
      </trkpt>
      <trkpt lat="37.9629360" lon="-5.6201080">
        <ele>646.2</ele>
        <time>2022-05-22T09:25:22Z</time>
      </trkpt>
      <trkpt lat="37.9629490" lon="-5.6201010">
        <ele>646.2</ele>
        <time>2022-05-22T09:25:23Z</time>
      </trkpt>
      <trkpt lat="37.9629610" lon="-5.6200940">
        <ele>646.2</ele>
        <time>2022-05-22T09:25:24Z</time>
      </trkpt>
      <trkpt lat="37.9629740" lon="-5.6200890">
        <ele>646.1</ele>
        <time>2022-05-22T09:25:25Z</time>
      </trkpt>
      <trkpt lat="37.9629880" lon="-5.6200830">
        <ele>646.1</ele>
        <time>2022-05-22T09:25:26Z</time>
      </trkpt>
      <trkpt lat="37.9630030" lon="-5.6200760">
        <ele>646.1</ele>
        <time>2022-05-22T09:25:27Z</time>
      </trkpt>
      <trkpt lat="37.9630190" lon="-5.6200710">
        <ele>646.0</ele>
        <time>2022-05-22T09:25:28Z</time>
      </trkpt>
      <trkpt lat="37.9630340" lon="-5.6200660">
        <ele>646.0</ele>
        <time>2022-05-22T09:25:29Z</time>
      </trkpt>
      <trkpt lat="37.9630470" lon="-5.6200600">
        <ele>646.0</ele>
        <time>2022-05-22T09:25:30Z</time>
      </trkpt>
      <trkpt lat="37.9630600" lon="-5.6200530">
        <ele>645.9</ele>
        <time>2022-05-22T09:25:31Z</time>
      </trkpt>
      <trkpt lat="37.9630730" lon="-5.6200480">
        <ele>645.9</ele>
        <time>2022-05-22T09:25:32Z</time>
      </trkpt>
      <trkpt lat="37.9630860" lon="-5.6200430">
        <ele>645.9</ele>
        <time>2022-05-22T09:25:33Z</time>
      </trkpt>
      <trkpt lat="37.9631000" lon="-5.6200380">
        <ele>645.8</ele>
        <time>2022-05-22T09:25:34Z</time>
      </trkpt>
      <trkpt lat="37.9631130" lon="-5.6200330">
        <ele>645.8</ele>
        <time>2022-05-22T09:25:35Z</time>
      </trkpt>
      <trkpt lat="37.9631260" lon="-5.6200250">
        <ele>645.7</ele>
        <time>2022-05-22T09:25:36Z</time>
      </trkpt>
      <trkpt lat="37.9631400" lon="-5.6200210">
        <ele>645.7</ele>
        <time>2022-05-22T09:25:37Z</time>
      </trkpt>
      <trkpt lat="37.9631540" lon="-5.6200160">
        <ele>645.7</ele>
        <time>2022-05-22T09:25:38Z</time>
      </trkpt>
      <trkpt lat="37.9631680" lon="-5.6200110">
        <ele>645.6</ele>
        <time>2022-05-22T09:25:39Z</time>
      </trkpt>
      <trkpt lat="37.9631800" lon="-5.6200060">
        <ele>645.6</ele>
        <time>2022-05-22T09:25:40Z</time>
      </trkpt>
      <trkpt lat="37.9632010" lon="-5.6199970">
        <ele>645.6</ele>
        <time>2022-05-22T09:25:41Z</time>
      </trkpt>
      <trkpt lat="37.9632090" lon="-5.6199930">
        <ele>645.5</ele>
        <time>2022-05-22T09:25:42Z</time>
      </trkpt>
      <trkpt lat="37.9632170" lon="-5.6199900">
        <ele>645.5</ele>
        <time>2022-05-22T09:25:43Z</time>
      </trkpt>
      <trkpt lat="37.9632360" lon="-5.6199820">
        <ele>645.5</ele>
        <time>2022-05-22T09:25:44Z</time>
      </trkpt>
      <trkpt lat="37.9632440" lon="-5.6199780">
        <ele>645.4</ele>
        <time>2022-05-22T09:25:45Z</time>
      </trkpt>
      <trkpt lat="37.9632520" lon="-5.6199750">
        <ele>645.4</ele>
        <time>2022-05-22T09:25:46Z</time>
      </trkpt>
      <trkpt lat="37.9632720" lon="-5.6199650">
        <ele>645.4</ele>
        <time>2022-05-22T09:25:47Z</time>
      </trkpt>
      <trkpt lat="37.9632800" lon="-5.6199610">
        <ele>645.3</ele>
        <time>2022-05-22T09:25:48Z</time>
      </trkpt>
      <trkpt lat="37.9632880" lon="-5.6199560">
        <ele>645.3</ele>
        <time>2022-05-22T09:25:49Z</time>
      </trkpt>
      <trkpt lat="37.9633080" lon="-5.6199460">
        <ele>645.3</ele>
        <time>2022-05-22T09:25:50Z</time>
      </trkpt>
      <trkpt lat="37.9633160" lon="-5.6199410">
        <ele>645.3</ele>
        <time>2022-05-22T09:25:51Z</time>
      </trkpt>
      <trkpt lat="37.9633230" lon="-5.6199360">
        <ele>645.3</ele>
        <time>2022-05-22T09:25:52Z</time>
      </trkpt>
      <trkpt lat="37.9633430" lon="-5.6199280">
        <ele>645.2</ele>
        <time>2022-05-22T09:25:53Z</time>
      </trkpt>
      <trkpt lat="37.9633510" lon="-5.6199250">
        <ele>645.2</ele>
        <time>2022-05-22T09:25:54Z</time>
      </trkpt>
      <trkpt lat="37.9633580" lon="-5.6199220">
        <ele>645.2</ele>
        <time>2022-05-22T09:25:55Z</time>
      </trkpt>
      <trkpt lat="37.9633690" lon="-5.6199170">
        <ele>645.2</ele>
        <time>2022-05-22T09:25:56Z</time>
      </trkpt>
      <trkpt lat="37.9633790" lon="-5.6199120">
        <ele>645.1</ele>
        <time>2022-05-22T09:25:57Z</time>
      </trkpt>
      <trkpt lat="37.9633910" lon="-5.6199050">
        <ele>645.1</ele>
        <time>2022-05-22T09:25:58Z</time>
      </trkpt>
      <trkpt lat="37.9634010" lon="-5.6198990">
        <ele>645.1</ele>
        <time>2022-05-22T09:25:59Z</time>
      </trkpt>
      <trkpt lat="37.9634060" lon="-5.6198920">
        <ele>645.1</ele>
        <time>2022-05-22T09:26:00Z</time>
      </trkpt>
      <trkpt lat="37.9634110" lon="-5.6198860">
        <ele>645.1</ele>
        <time>2022-05-22T09:26:01Z</time>
      </trkpt>
      <trkpt lat="37.9634170" lon="-5.6198830">
        <ele>645.1</ele>
        <time>2022-05-22T09:26:02Z</time>
      </trkpt>
      <trkpt lat="37.9634250" lon="-5.6198790">
        <ele>645.0</ele>
        <time>2022-05-22T09:26:03Z</time>
      </trkpt>
      <trkpt lat="37.9634360" lon="-5.6198740">
        <ele>645.0</ele>
        <time>2022-05-22T09:26:04Z</time>
      </trkpt>
      <trkpt lat="37.9634470" lon="-5.6198690">
        <ele>645.0</ele>
        <time>2022-05-22T09:26:05Z</time>
      </trkpt>
      <trkpt lat="37.9634670" lon="-5.6198610">
        <ele>645.0</ele>
        <time>2022-05-22T09:26:06Z</time>
      </trkpt>
      <trkpt lat="37.9634740" lon="-5.6198580">
        <ele>644.9</ele>
        <time>2022-05-22T09:26:07Z</time>
      </trkpt>
      <trkpt lat="37.9634810" lon="-5.6198550">
        <ele>644.9</ele>
        <time>2022-05-22T09:26:08Z</time>
      </trkpt>
      <trkpt lat="37.9635020" lon="-5.6198460">
        <ele>644.9</ele>
        <time>2022-05-22T09:26:09Z</time>
      </trkpt>
      <trkpt lat="37.9635100" lon="-5.6198420">
        <ele>644.9</ele>
        <time>2022-05-22T09:26:10Z</time>
      </trkpt>
      <trkpt lat="37.9635190" lon="-5.6198380">
        <ele>644.9</ele>
        <time>2022-05-22T09:26:11Z</time>
      </trkpt>
      <trkpt lat="37.9635300" lon="-5.6198320">
        <ele>644.8</ele>
        <time>2022-05-22T09:26:12Z</time>
      </trkpt>
      <trkpt lat="37.9635390" lon="-5.6198240">
        <ele>644.8</ele>
        <time>2022-05-22T09:26:13Z</time>
      </trkpt>
      <trkpt lat="37.9635470" lon="-5.6198190">
        <ele>644.8</ele>
        <time>2022-05-22T09:26:14Z</time>
      </trkpt>
      <trkpt lat="37.9635560" lon="-5.6198130">
        <ele>644.8</ele>
        <time>2022-05-22T09:26:15Z</time>
      </trkpt>
      <trkpt lat="37.9635670" lon="-5.6198060">
        <ele>644.7</ele>
        <time>2022-05-22T09:26:16Z</time>
      </trkpt>
      <trkpt lat="37.9635800" lon="-5.6198000">
        <ele>644.7</ele>
        <time>2022-05-22T09:26:17Z</time>
      </trkpt>
      <trkpt lat="37.9636000" lon="-5.6197900">
        <ele>644.7</ele>
        <time>2022-05-22T09:26:18Z</time>
      </trkpt>
      <trkpt lat="37.9636080" lon="-5.6197860">
        <ele>644.6</ele>
        <time>2022-05-22T09:26:19Z</time>
      </trkpt>
      <trkpt lat="37.9636160" lon="-5.6197830">
        <ele>644.6</ele>
        <time>2022-05-22T09:26:20Z</time>
      </trkpt>
      <trkpt lat="37.9636350" lon="-5.6197720">
        <ele>644.6</ele>
        <time>2022-05-22T09:26:21Z</time>
      </trkpt>
      <trkpt lat="37.9636430" lon="-5.6197680">
        <ele>644.6</ele>
        <time>2022-05-22T09:26:22Z</time>
      </trkpt>
      <trkpt lat="37.9636500" lon="-5.6197640">
        <ele>644.5</ele>
        <time>2022-05-22T09:26:23Z</time>
      </trkpt>
      <trkpt lat="37.9636710" lon="-5.6197530">
        <ele>644.5</ele>
        <time>2022-05-22T09:26:24Z</time>
      </trkpt>
      <trkpt lat="37.9636780" lon="-5.6197490">
        <ele>644.5</ele>
        <time>2022-05-22T09:26:25Z</time>
      </trkpt>
      <trkpt lat="37.9636860" lon="-5.6197450">
        <ele>644.5</ele>
        <time>2022-05-22T09:26:26Z</time>
      </trkpt>
      <trkpt lat="37.9637040" lon="-5.6197320">
        <ele>644.4</ele>
        <time>2022-05-22T09:26:27Z</time>
      </trkpt>
      <trkpt lat="37.9637120" lon="-5.6197270">
        <ele>644.4</ele>
        <time>2022-05-22T09:26:28Z</time>
      </trkpt>
      <trkpt lat="37.9637200" lon="-5.6197230">
        <ele>644.4</ele>
        <time>2022-05-22T09:26:29Z</time>
      </trkpt>
      <trkpt lat="37.9637400" lon="-5.6197120">
        <ele>644.3</ele>
        <time>2022-05-22T09:26:30Z</time>
      </trkpt>
      <trkpt lat="37.9637490" lon="-5.6197080">
        <ele>644.3</ele>
        <time>2022-05-22T09:26:31Z</time>
      </trkpt>
      <trkpt lat="37.9637570" lon="-5.6197040">
        <ele>644.3</ele>
        <time>2022-05-22T09:26:32Z</time>
      </trkpt>
      <trkpt lat="37.9637770" lon="-5.6196950">
        <ele>644.2</ele>
        <time>2022-05-22T09:26:33Z</time>
      </trkpt>
      <trkpt lat="37.9637850" lon="-5.6196920">
        <ele>644.2</ele>
        <time>2022-05-22T09:26:34Z</time>
      </trkpt>
      <trkpt lat="37.9637930" lon="-5.6196890">
        <ele>644.2</ele>
        <time>2022-05-22T09:26:35Z</time>
      </trkpt>
      <trkpt lat="37.9638050" lon="-5.6196850">
        <ele>644.2</ele>
        <time>2022-05-22T09:26:36Z</time>
      </trkpt>
      <trkpt lat="37.9638160" lon="-5.6196800">
        <ele>644.2</ele>
        <time>2022-05-22T09:26:37Z</time>
      </trkpt>
      <trkpt lat="37.9638270" lon="-5.6196740">
        <ele>644.1</ele>
        <time>2022-05-22T09:26:38Z</time>
      </trkpt>
      <trkpt lat="37.9638360" lon="-5.6196710">
        <ele>644.1</ele>
        <time>2022-05-22T09:26:39Z</time>
      </trkpt>
      <trkpt lat="37.9638470" lon="-5.6196670">
        <ele>644.1</ele>
        <time>2022-05-22T09:26:40Z</time>
      </trkpt>
      <trkpt lat="37.9638590" lon="-5.6196610">
        <ele>644.1</ele>
        <time>2022-05-22T09:26:41Z</time>
      </trkpt>
      <trkpt lat="37.9638720" lon="-5.6196550">
        <ele>644.0</ele>
        <time>2022-05-22T09:26:42Z</time>
      </trkpt>
      <trkpt lat="37.9638850" lon="-5.6196500">
        <ele>644.0</ele>
        <time>2022-05-22T09:26:43Z</time>
      </trkpt>
      <trkpt lat="37.9638960" lon="-5.6196440">
        <ele>644.0</ele>
        <time>2022-05-22T09:26:44Z</time>
      </trkpt>
      <trkpt lat="37.9639060" lon="-5.6196450">
        <ele>644.0</ele>
        <time>2022-05-22T09:26:45Z</time>
      </trkpt>
      <trkpt lat="37.9639160" lon="-5.6196400">
        <ele>643.9</ele>
        <time>2022-05-22T09:26:46Z</time>
      </trkpt>
      <trkpt lat="37.9639400" lon="-5.6196270">
        <ele>643.9</ele>
        <time>2022-05-22T09:26:48Z</time>
      </trkpt>
      <trkpt lat="37.9639510" lon="-5.6196220">
        <ele>643.9</ele>
        <time>2022-05-22T09:26:49Z</time>
      </trkpt>
      <trkpt lat="37.9639630" lon="-5.6196160">
        <ele>643.8</ele>
        <time>2022-05-22T09:26:50Z</time>
      </trkpt>
      <trkpt lat="37.9639790" lon="-5.6196070">
        <ele>643.8</ele>
        <time>2022-05-22T09:26:51Z</time>
      </trkpt>
      <trkpt lat="37.9639880" lon="-5.6196030">
        <ele>643.8</ele>
        <time>2022-05-22T09:26:52Z</time>
      </trkpt>
      <trkpt lat="37.9640000" lon="-5.6195990">
        <ele>643.8</ele>
        <time>2022-05-22T09:26:53Z</time>
      </trkpt>
      <trkpt lat="37.9640120" lon="-5.6195960">
        <ele>643.7</ele>
        <time>2022-05-22T09:26:54Z</time>
      </trkpt>
      <trkpt lat="37.9640230" lon="-5.6195930">
        <ele>643.7</ele>
        <time>2022-05-22T09:26:55Z</time>
      </trkpt>
      <trkpt lat="37.9640420" lon="-5.6195860">
        <ele>643.7</ele>
        <time>2022-05-22T09:26:57Z</time>
      </trkpt>
      <trkpt lat="37.9640650" lon="-5.6195850">
        <ele>643.6</ele>
        <time>2022-05-22T09:26:59Z</time>
      </trkpt>
      <trkpt lat="37.9640740" lon="-5.6195840">
        <ele>643.6</ele>
        <time>2022-05-22T09:27:00Z</time>
      </trkpt>
      <trkpt lat="37.9640810" lon="-5.6195810">
        <ele>643.6</ele>
        <time>2022-05-22T09:27:01Z</time>
      </trkpt>
      <trkpt lat="37.9640900" lon="-5.6195780">
        <ele>643.6</ele>
        <time>2022-05-22T09:27:02Z</time>
      </trkpt>
      <trkpt lat="37.9641000" lon="-5.6195740">
        <ele>643.6</ele>
        <time>2022-05-22T09:27:03Z</time>
      </trkpt>
      <trkpt lat="37.9641100" lon="-5.6195700">
        <ele>643.5</ele>
        <time>2022-05-22T09:27:04Z</time>
      </trkpt>
      <trkpt lat="37.9641250" lon="-5.6195630">
        <ele>643.5</ele>
        <time>2022-05-22T09:27:05Z</time>
      </trkpt>
      <trkpt lat="37.9641330" lon="-5.6195560">
        <ele>643.5</ele>
        <time>2022-05-22T09:27:06Z</time>
      </trkpt>
      <trkpt lat="37.9641400" lon="-5.6195500">
        <ele>643.5</ele>
        <time>2022-05-22T09:27:07Z</time>
      </trkpt>
      <trkpt lat="37.9641520" lon="-5.6195440">
        <ele>643.5</ele>
        <time>2022-05-22T09:27:08Z</time>
      </trkpt>
      <trkpt lat="37.9641630" lon="-5.6195370">
        <ele>643.4</ele>
        <time>2022-05-22T09:27:09Z</time>
      </trkpt>
      <trkpt lat="37.9641820" lon="-5.6195270">
        <ele>643.4</ele>
        <time>2022-05-22T09:27:10Z</time>
      </trkpt>
      <trkpt lat="37.9641890" lon="-5.6195240">
        <ele>643.4</ele>
        <time>2022-05-22T09:27:11Z</time>
      </trkpt>
      <trkpt lat="37.9641970" lon="-5.6195200">
        <ele>643.4</ele>
        <time>2022-05-22T09:27:12Z</time>
      </trkpt>
      <trkpt lat="37.9642070" lon="-5.6195130">
        <ele>643.3</ele>
        <time>2022-05-22T09:27:13Z</time>
      </trkpt>
      <trkpt lat="37.9642250" lon="-5.6194920">
        <ele>643.3</ele>
        <time>2022-05-22T09:27:15Z</time>
      </trkpt>
      <trkpt lat="37.9642310" lon="-5.6194730">
        <ele>643.3</ele>
        <time>2022-05-22T09:27:16Z</time>
      </trkpt>
      <trkpt lat="37.9642410" lon="-5.6194630">
        <ele>643.2</ele>
        <time>2022-05-22T09:27:17Z</time>
      </trkpt>
      <trkpt lat="37.9642570" lon="-5.6194520">
        <ele>643.2</ele>
        <time>2022-05-22T09:27:19Z</time>
      </trkpt>
      <trkpt lat="37.9642690" lon="-5.6194450">
        <ele>643.2</ele>
        <time>2022-05-22T09:27:20Z</time>
      </trkpt>
      <trkpt lat="37.9642870" lon="-5.6194300">
        <ele>643.1</ele>
        <time>2022-05-22T09:27:21Z</time>
      </trkpt>
      <trkpt lat="37.9642960" lon="-5.6194220">
        <ele>643.1</ele>
        <time>2022-05-22T09:27:22Z</time>
      </trkpt>
      <trkpt lat="37.9643030" lon="-5.6194140">
        <ele>643.1</ele>
        <time>2022-05-22T09:27:23Z</time>
      </trkpt>
      <trkpt lat="37.9643130" lon="-5.6194060">
        <ele>643.1</ele>
        <time>2022-05-22T09:27:24Z</time>
      </trkpt>
      <trkpt lat="37.9643230" lon="-5.6193980">
        <ele>643.1</ele>
        <time>2022-05-22T09:27:25Z</time>
      </trkpt>
      <trkpt lat="37.9643340" lon="-5.6193920">
        <ele>643.0</ele>
        <time>2022-05-22T09:27:26Z</time>
      </trkpt>
      <trkpt lat="37.9643440" lon="-5.6193860">
        <ele>643.0</ele>
        <time>2022-05-22T09:27:27Z</time>
      </trkpt>
      <trkpt lat="37.9643540" lon="-5.6193820">
        <ele>643.0</ele>
        <time>2022-05-22T09:27:28Z</time>
      </trkpt>
      <trkpt lat="37.9643640" lon="-5.6193780">
        <ele>643.0</ele>
        <time>2022-05-22T09:27:29Z</time>
      </trkpt>
      <trkpt lat="37.9643740" lon="-5.6193740">
        <ele>643.0</ele>
        <time>2022-05-22T09:27:30Z</time>
      </trkpt>
      <trkpt lat="37.9643840" lon="-5.6193700">
        <ele>642.9</ele>
        <time>2022-05-22T09:27:31Z</time>
      </trkpt>
      <trkpt lat="37.9643950" lon="-5.6193670">
        <ele>642.9</ele>
        <time>2022-05-22T09:27:32Z</time>
      </trkpt>
      <trkpt lat="37.9644030" lon="-5.6193640">
        <ele>642.9</ele>
        <time>2022-05-22T09:27:33Z</time>
      </trkpt>
      <trkpt lat="37.9644130" lon="-5.6193630">
        <ele>642.9</ele>
        <time>2022-05-22T09:27:34Z</time>
      </trkpt>
      <trkpt lat="37.9644220" lon="-5.6193630">
        <ele>642.9</ele>
        <time>2022-05-22T09:27:35Z</time>
      </trkpt>
      <trkpt lat="37.9644330" lon="-5.6193590">
        <ele>642.9</ele>
        <time>2022-05-22T09:27:36Z</time>
      </trkpt>
      <trkpt lat="37.9644480" lon="-5.6193530">
        <ele>642.8</ele>
        <time>2022-05-22T09:27:37Z</time>
      </trkpt>
      <trkpt lat="37.9644550" lon="-5.6193500">
        <ele>642.8</ele>
        <time>2022-05-22T09:27:38Z</time>
      </trkpt>
      <trkpt lat="37.9644640" lon="-5.6193460">
        <ele>642.8</ele>
        <time>2022-05-22T09:27:39Z</time>
      </trkpt>
      <trkpt lat="37.9644750" lon="-5.6193410">
        <ele>642.8</ele>
        <time>2022-05-22T09:27:40Z</time>
      </trkpt>
      <trkpt lat="37.9644950" lon="-5.6193280">
        <ele>642.7</ele>
        <time>2022-05-22T09:27:41Z</time>
      </trkpt>
      <trkpt lat="37.9645020" lon="-5.6193210">
        <ele>642.7</ele>
        <time>2022-05-22T09:27:42Z</time>
      </trkpt>
      <trkpt lat="37.9645100" lon="-5.6193140">
        <ele>642.7</ele>
        <time>2022-05-22T09:27:43Z</time>
      </trkpt>
      <trkpt lat="37.9645190" lon="-5.6193100">
        <ele>642.7</ele>
        <time>2022-05-22T09:27:44Z</time>
      </trkpt>
      <trkpt lat="37.9645280" lon="-5.6193060">
        <ele>642.7</ele>
        <time>2022-05-22T09:27:45Z</time>
      </trkpt>
      <trkpt lat="37.9645370" lon="-5.6193020">
        <ele>642.7</ele>
        <time>2022-05-22T09:27:46Z</time>
      </trkpt>
      <trkpt lat="37.9645470" lon="-5.6192980">
        <ele>642.6</ele>
        <time>2022-05-22T09:27:47Z</time>
      </trkpt>
      <trkpt lat="37.9645640" lon="-5.6192900">
        <ele>642.6</ele>
        <time>2022-05-22T09:27:49Z</time>
      </trkpt>
      <trkpt lat="37.9645750" lon="-5.6192860">
        <ele>642.6</ele>
        <time>2022-05-22T09:27:50Z</time>
      </trkpt>
      <trkpt lat="37.9645840" lon="-5.6192830">
        <ele>642.6</ele>
        <time>2022-05-22T09:27:51Z</time>
      </trkpt>
      <trkpt lat="37.9645920" lon="-5.6192810">
        <ele>642.6</ele>
        <time>2022-05-22T09:27:52Z</time>
      </trkpt>
      <trkpt lat="37.9646030" lon="-5.6192760">
        <ele>642.5</ele>
        <time>2022-05-22T09:27:53Z</time>
      </trkpt>
      <trkpt lat="37.9646160" lon="-5.6192700">
        <ele>642.5</ele>
        <time>2022-05-22T09:27:54Z</time>
      </trkpt>
      <trkpt lat="37.9646240" lon="-5.6192660">
        <ele>642.5</ele>
        <time>2022-05-22T09:27:55Z</time>
      </trkpt>
      <trkpt lat="37.9646350" lon="-5.6192590">
        <ele>642.5</ele>
        <time>2022-05-22T09:27:56Z</time>
      </trkpt>
      <trkpt lat="37.9646460" lon="-5.6192520">
        <ele>642.5</ele>
        <time>2022-05-22T09:27:57Z</time>
      </trkpt>
      <trkpt lat="37.9646560" lon="-5.6192460">
        <ele>642.4</ele>
        <time>2022-05-22T09:27:58Z</time>
      </trkpt>
      <trkpt lat="37.9646650" lon="-5.6192390">
        <ele>642.4</ele>
        <time>2022-05-22T09:27:59Z</time>
      </trkpt>
      <trkpt lat="37.9646810" lon="-5.6192240">
        <ele>642.4</ele>
        <time>2022-05-22T09:28:00Z</time>
      </trkpt>
      <trkpt lat="37.9646890" lon="-5.6192170">
        <ele>642.4</ele>
        <time>2022-05-22T09:28:01Z</time>
      </trkpt>
      <trkpt lat="37.9646980" lon="-5.6192090">
        <ele>642.3</ele>
        <time>2022-05-22T09:28:02Z</time>
      </trkpt>
      <trkpt lat="37.9647070" lon="-5.6191980">
        <ele>642.3</ele>
        <time>2022-05-22T09:28:03Z</time>
      </trkpt>
      <trkpt lat="37.9647180" lon="-5.6191840">
        <ele>642.3</ele>
        <time>2022-05-22T09:28:04Z</time>
      </trkpt>
      <trkpt lat="37.9647300" lon="-5.6191680">
        <ele>642.3</ele>
        <time>2022-05-22T09:28:05Z</time>
      </trkpt>
      <trkpt lat="37.9647460" lon="-5.6191520">
        <ele>642.2</ele>
        <time>2022-05-22T09:28:06Z</time>
      </trkpt>
      <trkpt lat="37.9647530" lon="-5.6191460">
        <ele>642.2</ele>
        <time>2022-05-22T09:28:07Z</time>
      </trkpt>
      <trkpt lat="37.9647600" lon="-5.6191400">
        <ele>642.2</ele>
        <time>2022-05-22T09:28:08Z</time>
      </trkpt>
      <trkpt lat="37.9647800" lon="-5.6191280">
        <ele>642.1</ele>
        <time>2022-05-22T09:28:09Z</time>
      </trkpt>
      <trkpt lat="37.9647870" lon="-5.6191230">
        <ele>642.1</ele>
        <time>2022-05-22T09:28:10Z</time>
      </trkpt>
      <trkpt lat="37.9647950" lon="-5.6191170">
        <ele>642.1</ele>
        <time>2022-05-22T09:28:11Z</time>
      </trkpt>
      <trkpt lat="37.9648040" lon="-5.6191100">
        <ele>642.1</ele>
        <time>2022-05-22T09:28:12Z</time>
      </trkpt>
      <trkpt lat="37.9648150" lon="-5.6191030">
        <ele>642.1</ele>
        <time>2022-05-22T09:28:13Z</time>
      </trkpt>
      <trkpt lat="37.9648260" lon="-5.6190960">
        <ele>642.0</ele>
        <time>2022-05-22T09:28:14Z</time>
      </trkpt>
      <trkpt lat="37.9648390" lon="-5.6190880">
        <ele>642.0</ele>
        <time>2022-05-22T09:28:15Z</time>
      </trkpt>
      <trkpt lat="37.9648510" lon="-5.6190810">
        <ele>642.0</ele>
        <time>2022-05-22T09:28:16Z</time>
      </trkpt>
      <trkpt lat="37.9648650" lon="-5.6190750">
        <ele>642.0</ele>
        <time>2022-05-22T09:28:17Z</time>
      </trkpt>
      <trkpt lat="37.9648810" lon="-5.6190690">
        <ele>641.9</ele>
        <time>2022-05-22T09:28:18Z</time>
      </trkpt>
      <trkpt lat="37.9648940" lon="-5.6190620">
        <ele>641.9</ele>
        <time>2022-05-22T09:28:19Z</time>
      </trkpt>
      <trkpt lat="37.9649070" lon="-5.6190560">
        <ele>641.9</ele>
        <time>2022-05-22T09:28:20Z</time>
      </trkpt>
      <trkpt lat="37.9649210" lon="-5.6190520">
        <ele>641.9</ele>
        <time>2022-05-22T09:28:21Z</time>
      </trkpt>
      <trkpt lat="37.9649340" lon="-5.6190470">
        <ele>641.8</ele>
        <time>2022-05-22T09:28:22Z</time>
      </trkpt>
      <trkpt lat="37.9649630" lon="-5.6190610">
        <ele>641.8</ele>
        <time>2022-05-22T09:28:23Z</time>
      </trkpt>
      <trkpt lat="37.9649720" lon="-5.6190660">
        <ele>641.7</ele>
        <time>2022-05-22T09:28:24Z</time>
      </trkpt>
      <trkpt lat="37.9649850" lon="-5.6190660">
        <ele>641.7</ele>
        <time>2022-05-22T09:28:25Z</time>
      </trkpt>
      <trkpt lat="37.9650100" lon="-5.6190630">
        <ele>641.7</ele>
        <time>2022-05-22T09:28:27Z</time>
      </trkpt>
      <trkpt lat="37.9650230" lon="-5.6190580">
        <ele>641.7</ele>
        <time>2022-05-22T09:28:28Z</time>
      </trkpt>
      <trkpt lat="37.9650370" lon="-5.6190520">
        <ele>641.6</ele>
        <time>2022-05-22T09:28:29Z</time>
      </trkpt>
      <trkpt lat="37.9650630" lon="-5.6190390">
        <ele>641.6</ele>
        <time>2022-05-22T09:28:31Z</time>
      </trkpt>
      <trkpt lat="37.9650790" lon="-5.6190300">
        <ele>641.5</ele>
        <time>2022-05-22T09:28:32Z</time>
      </trkpt>
      <trkpt lat="37.9650940" lon="-5.6190210">
        <ele>641.5</ele>
        <time>2022-05-22T09:28:33Z</time>
      </trkpt>
      <trkpt lat="37.9651070" lon="-5.6190110">
        <ele>641.5</ele>
        <time>2022-05-22T09:28:34Z</time>
      </trkpt>
      <trkpt lat="37.9651200" lon="-5.6190030">
        <ele>641.5</ele>
        <time>2022-05-22T09:28:35Z</time>
      </trkpt>
      <trkpt lat="37.9651330" lon="-5.6189910">
        <ele>641.4</ele>
        <time>2022-05-22T09:28:36Z</time>
      </trkpt>
      <trkpt lat="37.9651450" lon="-5.6189800">
        <ele>641.4</ele>
        <time>2022-05-22T09:28:37Z</time>
      </trkpt>
      <trkpt lat="37.9651650" lon="-5.6189670">
        <ele>641.4</ele>
        <time>2022-05-22T09:28:38Z</time>
      </trkpt>
      <trkpt lat="37.9651720" lon="-5.6189620">
        <ele>641.4</ele>
        <time>2022-05-22T09:28:39Z</time>
      </trkpt>
      <trkpt lat="37.9651800" lon="-5.6189570">
        <ele>641.3</ele>
        <time>2022-05-22T09:28:40Z</time>
      </trkpt>
      <trkpt lat="37.9651990" lon="-5.6189450">
        <ele>641.3</ele>
        <time>2022-05-22T09:28:41Z</time>
      </trkpt>
      <trkpt lat="37.9652070" lon="-5.6189410">
        <ele>641.3</ele>
        <time>2022-05-22T09:28:42Z</time>
      </trkpt>
      <trkpt lat="37.9652140" lon="-5.6189360">
        <ele>641.3</ele>
        <time>2022-05-22T09:28:43Z</time>
      </trkpt>
      <trkpt lat="37.9652250" lon="-5.6189290">
        <ele>641.3</ele>
        <time>2022-05-22T09:28:44Z</time>
      </trkpt>
      <trkpt lat="37.9652340" lon="-5.6189220">
        <ele>641.2</ele>
        <time>2022-05-22T09:28:45Z</time>
      </trkpt>
      <trkpt lat="37.9652420" lon="-5.6189130">
        <ele>641.2</ele>
        <time>2022-05-22T09:28:46Z</time>
      </trkpt>
      <trkpt lat="37.9652600" lon="-5.6188990">
        <ele>641.2</ele>
        <time>2022-05-22T09:28:47Z</time>
      </trkpt>
      <trkpt lat="37.9652670" lon="-5.6188940">
        <ele>641.2</ele>
        <time>2022-05-22T09:28:48Z</time>
      </trkpt>
      <trkpt lat="37.9652730" lon="-5.6188880">
        <ele>641.2</ele>
        <time>2022-05-22T09:28:49Z</time>
      </trkpt>
      <trkpt lat="37.9652830" lon="-5.6188800">
        <ele>641.1</ele>
        <time>2022-05-22T09:28:50Z</time>
      </trkpt>
      <trkpt lat="37.9652930" lon="-5.6188750">
        <ele>641.1</ele>
        <time>2022-05-22T09:28:51Z</time>
      </trkpt>
      <trkpt lat="37.9652940" lon="-5.6188700">
        <ele>641.1</ele>
        <time>2022-05-22T09:28:52Z</time>
      </trkpt>
      <trkpt lat="37.9653030" lon="-5.6188670">
        <ele>641.1</ele>
        <time>2022-05-22T09:28:53Z</time>
      </trkpt>
      <trkpt lat="37.9653130" lon="-5.6188620">
        <ele>641.1</ele>
        <time>2022-05-22T09:28:54Z</time>
      </trkpt>
      <trkpt lat="37.9653250" lon="-5.6188560">
        <ele>641.0</ele>
        <time>2022-05-22T09:28:55Z</time>
      </trkpt>
      <trkpt lat="37.9653360" lon="-5.6188510">
        <ele>641.0</ele>
        <time>2022-05-22T09:28:56Z</time>
      </trkpt>
      <trkpt lat="37.9653550" lon="-5.6188410">
        <ele>641.0</ele>
        <time>2022-05-22T09:28:57Z</time>
      </trkpt>
      <trkpt lat="37.9653630" lon="-5.6188370">
        <ele>641.0</ele>
        <time>2022-05-22T09:28:58Z</time>
      </trkpt>
      <trkpt lat="37.9653710" lon="-5.6188330">
        <ele>640.9</ele>
        <time>2022-05-22T09:28:59Z</time>
      </trkpt>
      <trkpt lat="37.9653920" lon="-5.6188250">
        <ele>640.9</ele>
        <time>2022-05-22T09:29:00Z</time>
      </trkpt>
      <trkpt lat="37.9653990" lon="-5.6188220">
        <ele>640.9</ele>
        <time>2022-05-22T09:29:01Z</time>
      </trkpt>
      <trkpt lat="37.9654060" lon="-5.6188190">
        <ele>640.9</ele>
        <time>2022-05-22T09:29:02Z</time>
      </trkpt>
      <trkpt lat="37.9654140" lon="-5.6188160">
        <ele>640.8</ele>
        <time>2022-05-22T09:29:03Z</time>
      </trkpt>
      <trkpt lat="37.9654240" lon="-5.6188130">
        <ele>640.8</ele>
        <time>2022-05-22T09:29:04Z</time>
      </trkpt>
      <trkpt lat="37.9654370" lon="-5.6188070">
        <ele>640.8</ele>
        <time>2022-05-22T09:29:05Z</time>
      </trkpt>
      <trkpt lat="37.9654500" lon="-5.6187990">
        <ele>640.8</ele>
        <time>2022-05-22T09:29:06Z</time>
      </trkpt>
      <trkpt lat="37.9654630" lon="-5.6187940">
        <ele>640.7</ele>
        <time>2022-05-22T09:29:07Z</time>
      </trkpt>
      <trkpt lat="37.9654890" lon="-5.6187870">
        <ele>640.7</ele>
        <time>2022-05-22T09:29:09Z</time>
      </trkpt>
      <trkpt lat="37.9655020" lon="-5.6187840">
        <ele>640.7</ele>
        <time>2022-05-22T09:29:10Z</time>
      </trkpt>
      <trkpt lat="37.9655130" lon="-5.6187800">
        <ele>640.7</ele>
        <time>2022-05-22T09:29:11Z</time>
      </trkpt>
      <trkpt lat="37.9655230" lon="-5.6187760">
        <ele>640.6</ele>
        <time>2022-05-22T09:29:12Z</time>
      </trkpt>
      <trkpt lat="37.9655430" lon="-5.6187680">
        <ele>640.6</ele>
        <time>2022-05-22T09:29:13Z</time>
      </trkpt>
      <trkpt lat="37.9655510" lon="-5.6187650">
        <ele>640.6</ele>
        <time>2022-05-22T09:29:14Z</time>
      </trkpt>
      <trkpt lat="37.9655590" lon="-5.6187630">
        <ele>640.6</ele>
        <time>2022-05-22T09:29:15Z</time>
      </trkpt>
      <trkpt lat="37.9655710" lon="-5.6187580">
        <ele>640.6</ele>
        <time>2022-05-22T09:29:16Z</time>
      </trkpt>
      <trkpt lat="37.9655810" lon="-5.6187530">
        <ele>640.6</ele>
        <time>2022-05-22T09:29:17Z</time>
      </trkpt>
      <trkpt lat="37.9655840" lon="-5.6187420">
        <ele>640.5</ele>
        <time>2022-05-22T09:29:18Z</time>
      </trkpt>
      <trkpt lat="37.9655870" lon="-5.6187310">
        <ele>640.5</ele>
        <time>2022-05-22T09:29:19Z</time>
      </trkpt>
      <trkpt lat="37.9655950" lon="-5.6187210">
        <ele>640.5</ele>
        <time>2022-05-22T09:29:20Z</time>
      </trkpt>
      <trkpt lat="37.9656020" lon="-5.6187130">
        <ele>640.5</ele>
        <time>2022-05-22T09:29:21Z</time>
      </trkpt>
      <trkpt lat="37.9656130" lon="-5.6187050">
        <ele>640.5</ele>
        <time>2022-05-22T09:29:22Z</time>
      </trkpt>
      <trkpt lat="37.9656360" lon="-5.6186950">
        <ele>640.4</ele>
        <time>2022-05-22T09:29:24Z</time>
      </trkpt>
      <trkpt lat="37.9656440" lon="-5.6186930">
        <ele>640.4</ele>
        <time>2022-05-22T09:29:25Z</time>
      </trkpt>
      <trkpt lat="37.9656540" lon="-5.6186920">
        <ele>640.4</ele>
        <time>2022-05-22T09:29:26Z</time>
      </trkpt>
      <trkpt lat="37.9656650" lon="-5.6186940">
        <ele>640.4</ele>
        <time>2022-05-22T09:29:27Z</time>
      </trkpt>
      <trkpt lat="37.9656740" lon="-5.6186960">
        <ele>640.4</ele>
        <time>2022-05-22T09:29:28Z</time>
      </trkpt>
      <trkpt lat="37.9656850" lon="-5.6186980">
        <ele>640.4</ele>
        <time>2022-05-22T09:29:29Z</time>
      </trkpt>
      <trkpt lat="37.9656940" lon="-5.6186970">
        <ele>640.4</ele>
        <time>2022-05-22T09:29:30Z</time>
      </trkpt>
      <trkpt lat="37.9657050" lon="-5.6186970">
        <ele>640.3</ele>
        <time>2022-05-22T09:29:31Z</time>
      </trkpt>
      <trkpt lat="37.9657150" lon="-5.6186950">
        <ele>640.3</ele>
        <time>2022-05-22T09:29:32Z</time>
      </trkpt>
      <trkpt lat="37.9657260" lon="-5.6186930">
        <ele>640.3</ele>
        <time>2022-05-22T09:29:33Z</time>
      </trkpt>
      <trkpt lat="37.9657360" lon="-5.6186900">
        <ele>640.3</ele>
        <time>2022-05-22T09:29:34Z</time>
      </trkpt>
      <trkpt lat="37.9657520" lon="-5.6186840">
        <ele>640.3</ele>
        <time>2022-05-22T09:29:35Z</time>
      </trkpt>
      <trkpt lat="37.9657600" lon="-5.6186800">
        <ele>640.3</ele>
        <time>2022-05-22T09:29:36Z</time>
      </trkpt>
      <trkpt lat="37.9657680" lon="-5.6186760">
        <ele>640.3</ele>
        <time>2022-05-22T09:29:37Z</time>
      </trkpt>
      <trkpt lat="37.9657860" lon="-5.6186670">
        <ele>640.2</ele>
        <time>2022-05-22T09:29:39Z</time>
      </trkpt>
      <trkpt lat="37.9658050" lon="-5.6186600">
        <ele>640.2</ele>
        <time>2022-05-22T09:29:41Z</time>
      </trkpt>
      <trkpt lat="37.9658150" lon="-5.6186580">
        <ele>640.2</ele>
        <time>2022-05-22T09:29:42Z</time>
      </trkpt>
      <trkpt lat="37.9658250" lon="-5.6186560">
        <ele>640.2</ele>
        <time>2022-05-22T09:29:43Z</time>
      </trkpt>
      <trkpt lat="37.9658340" lon="-5.6186530">
        <ele>640.2</ele>
        <time>2022-05-22T09:29:44Z</time>
      </trkpt>
      <trkpt lat="37.9658440" lon="-5.6186500">
        <ele>640.1</ele>
        <time>2022-05-22T09:29:45Z</time>
      </trkpt>
      <trkpt lat="37.9658560" lon="-5.6186460">
        <ele>640.1</ele>
        <time>2022-05-22T09:29:46Z</time>
      </trkpt>
      <trkpt lat="37.9658640" lon="-5.6186420">
        <ele>640.1</ele>
        <time>2022-05-22T09:29:47Z</time>
      </trkpt>
      <trkpt lat="37.9658760" lon="-5.6186360">
        <ele>640.1</ele>
        <time>2022-05-22T09:29:48Z</time>
      </trkpt>
      <trkpt lat="37.9658970" lon="-5.6186240">
        <ele>640.1</ele>
        <time>2022-05-22T09:29:50Z</time>
      </trkpt>
      <trkpt lat="37.9659190" lon="-5.6186100">
        <ele>640.0</ele>
        <time>2022-05-22T09:29:52Z</time>
      </trkpt>
      <trkpt lat="37.9659320" lon="-5.6186010">
        <ele>640.0</ele>
        <time>2022-05-22T09:29:53Z</time>
      </trkpt>
      <trkpt lat="37.9659560" lon="-5.6185890">
        <ele>640.0</ele>
        <time>2022-05-22T09:29:55Z</time>
      </trkpt>
      <trkpt lat="37.9659690" lon="-5.6185830">
        <ele>639.9</ele>
        <time>2022-05-22T09:29:56Z</time>
      </trkpt>
      <trkpt lat="37.9659820" lon="-5.6185770">
        <ele>639.9</ele>
        <time>2022-05-22T09:29:57Z</time>
      </trkpt>
      <trkpt lat="37.9659920" lon="-5.6185720">
        <ele>639.9</ele>
        <time>2022-05-22T09:29:58Z</time>
      </trkpt>
      <trkpt lat="37.9660020" lon="-5.6185670">
        <ele>639.9</ele>
        <time>2022-05-22T09:29:59Z</time>
      </trkpt>
      <trkpt lat="37.9660120" lon="-5.6185630">
        <ele>639.9</ele>
        <time>2022-05-22T09:30:00Z</time>
      </trkpt>
      <trkpt lat="37.9660310" lon="-5.6185560">
        <ele>639.8</ele>
        <time>2022-05-22T09:30:01Z</time>
      </trkpt>
      <trkpt lat="37.9660390" lon="-5.6185520">
        <ele>639.8</ele>
        <time>2022-05-22T09:30:02Z</time>
      </trkpt>
      <trkpt lat="37.9660480" lon="-5.6185490">
        <ele>639.8</ele>
        <time>2022-05-22T09:30:03Z</time>
      </trkpt>
      <trkpt lat="37.9660580" lon="-5.6185450">
        <ele>639.8</ele>
        <time>2022-05-22T09:30:04Z</time>
      </trkpt>
      <trkpt lat="37.9660680" lon="-5.6185410">
        <ele>639.8</ele>
        <time>2022-05-22T09:30:05Z</time>
      </trkpt>
      <trkpt lat="37.9660790" lon="-5.6185370">
        <ele>639.7</ele>
        <time>2022-05-22T09:30:06Z</time>
      </trkpt>
      <trkpt lat="37.9660990" lon="-5.6185270">
        <ele>639.7</ele>
        <time>2022-05-22T09:30:07Z</time>
      </trkpt>
      <trkpt lat="37.9661070" lon="-5.6185230">
        <ele>639.7</ele>
        <time>2022-05-22T09:30:08Z</time>
      </trkpt>
      <trkpt lat="37.9661150" lon="-5.6185190">
        <ele>639.7</ele>
        <time>2022-05-22T09:30:09Z</time>
      </trkpt>
      <trkpt lat="37.9661280" lon="-5.6185120">
        <ele>639.6</ele>
        <time>2022-05-22T09:30:10Z</time>
      </trkpt>
      <trkpt lat="37.9661400" lon="-5.6185060">
        <ele>639.6</ele>
        <time>2022-05-22T09:30:11Z</time>
      </trkpt>
      <trkpt lat="37.9661530" lon="-5.6184990">
        <ele>639.6</ele>
        <time>2022-05-22T09:30:12Z</time>
      </trkpt>
      <trkpt lat="37.9661670" lon="-5.6184910">
        <ele>639.5</ele>
        <time>2022-05-22T09:30:13Z</time>
      </trkpt>
      <trkpt lat="37.9661800" lon="-5.6184830">
        <ele>639.5</ele>
        <time>2022-05-22T09:30:14Z</time>
      </trkpt>
      <trkpt lat="37.9661980" lon="-5.6184710">
        <ele>639.5</ele>
        <time>2022-05-22T09:30:15Z</time>
      </trkpt>
      <trkpt lat="37.9662180" lon="-5.6184610">
        <ele>639.4</ele>
        <time>2022-05-22T09:30:16Z</time>
      </trkpt>
      <trkpt lat="37.9662270" lon="-5.6184580">
        <ele>639.4</ele>
        <time>2022-05-22T09:30:17Z</time>
      </trkpt>
      <trkpt lat="37.9662360" lon="-5.6184540">
        <ele>639.4</ele>
        <time>2022-05-22T09:30:18Z</time>
      </trkpt>
      <trkpt lat="37.9662650" lon="-5.6184460">
        <ele>639.3</ele>
        <time>2022-05-22T09:30:20Z</time>
      </trkpt>
      <trkpt lat="37.9662750" lon="-5.6184430">
        <ele>639.3</ele>
        <time>2022-05-22T09:30:21Z</time>
      </trkpt>
      <trkpt lat="37.9662950" lon="-5.6184360">
        <ele>639.3</ele>
        <time>2022-05-22T09:30:22Z</time>
      </trkpt>
      <trkpt lat="37.9663040" lon="-5.6184330">
        <ele>639.3</ele>
        <time>2022-05-22T09:30:23Z</time>
      </trkpt>
      <trkpt lat="37.9663130" lon="-5.6184300">
        <ele>639.3</ele>
        <time>2022-05-22T09:30:24Z</time>
      </trkpt>
      <trkpt lat="37.9663280" lon="-5.6184280">
        <ele>639.2</ele>
        <time>2022-05-22T09:30:25Z</time>
      </trkpt>
      <trkpt lat="37.9663420" lon="-5.6184210">
        <ele>639.2</ele>
        <time>2022-05-22T09:30:26Z</time>
      </trkpt>
      <trkpt lat="37.9663530" lon="-5.6184140">
        <ele>639.2</ele>
        <time>2022-05-22T09:30:27Z</time>
      </trkpt>
      <trkpt lat="37.9663630" lon="-5.6184080">
        <ele>639.2</ele>
        <time>2022-05-22T09:30:28Z</time>
      </trkpt>
      <trkpt lat="37.9663740" lon="-5.6184040">
        <ele>639.2</ele>
        <time>2022-05-22T09:30:29Z</time>
      </trkpt>
      <trkpt lat="37.9664020" lon="-5.6183910">
        <ele>639.1</ele>
        <time>2022-05-22T09:30:31Z</time>
      </trkpt>
      <trkpt lat="37.9664090" lon="-5.6183870">
        <ele>639.1</ele>
        <time>2022-05-22T09:30:32Z</time>
      </trkpt>
      <trkpt lat="37.9664190" lon="-5.6183830">
        <ele>639.1</ele>
        <time>2022-05-22T09:30:33Z</time>
      </trkpt>
      <trkpt lat="37.9664290" lon="-5.6183780">
        <ele>639.1</ele>
        <time>2022-05-22T09:30:34Z</time>
      </trkpt>
      <trkpt lat="37.9664400" lon="-5.6183770">
        <ele>639.0</ele>
        <time>2022-05-22T09:30:35Z</time>
      </trkpt>
      <trkpt lat="37.9664520" lon="-5.6183770">
        <ele>639.0</ele>
        <time>2022-05-22T09:30:36Z</time>
      </trkpt>
      <trkpt lat="37.9664690" lon="-5.6183790">
        <ele>639.0</ele>
        <time>2022-05-22T09:30:37Z</time>
      </trkpt>
      <trkpt lat="37.9664890" lon="-5.6183820">
        <ele>639.0</ele>
        <time>2022-05-22T09:30:38Z</time>
      </trkpt>
      <trkpt lat="37.9664980" lon="-5.6183870">
        <ele>638.9</ele>
        <time>2022-05-22T09:30:39Z</time>
      </trkpt>
      <trkpt lat="37.9665070" lon="-5.6183920">
        <ele>638.9</ele>
        <time>2022-05-22T09:30:40Z</time>
      </trkpt>
      <trkpt lat="37.9665200" lon="-5.6183990">
        <ele>638.9</ele>
        <time>2022-05-22T09:30:41Z</time>
      </trkpt>
      <trkpt lat="37.9665360" lon="-5.6184130">
        <ele>638.9</ele>
        <time>2022-05-22T09:30:42Z</time>
      </trkpt>
      <trkpt lat="37.9665590" lon="-5.6184380">
        <ele>638.8</ele>
        <time>2022-05-22T09:30:44Z</time>
      </trkpt>
      <trkpt lat="37.9665670" lon="-5.6184400">
        <ele>638.8</ele>
        <time>2022-05-22T09:30:45Z</time>
      </trkpt>
      <trkpt lat="37.9665750" lon="-5.6184430">
        <ele>638.8</ele>
        <time>2022-05-22T09:30:46Z</time>
      </trkpt>
      <trkpt lat="37.9665810" lon="-5.6184520">
        <ele>638.8</ele>
        <time>2022-05-22T09:30:47Z</time>
      </trkpt>
      <trkpt lat="37.9665890" lon="-5.6184630">
        <ele>638.7</ele>
        <time>2022-05-22T09:30:48Z</time>
      </trkpt>
      <trkpt lat="37.9665970" lon="-5.6184650">
        <ele>638.7</ele>
        <time>2022-05-22T09:30:49Z</time>
      </trkpt>
      <trkpt lat="37.9666080" lon="-5.6184640">
        <ele>638.7</ele>
        <time>2022-05-22T09:30:50Z</time>
      </trkpt>
      <trkpt lat="37.9666200" lon="-5.6184620">
        <ele>638.7</ele>
        <time>2022-05-22T09:30:51Z</time>
      </trkpt>
      <trkpt lat="37.9666490" lon="-5.6184550">
        <ele>638.6</ele>
        <time>2022-05-22T09:30:52Z</time>
      </trkpt>
      <trkpt lat="37.9666640" lon="-5.6184500">
        <ele>638.6</ele>
        <time>2022-05-22T09:30:54Z</time>
      </trkpt>
      <trkpt lat="37.9666800" lon="-5.6184460">
        <ele>638.6</ele>
        <time>2022-05-22T09:30:55Z</time>
      </trkpt>
      <trkpt lat="37.9666960" lon="-5.6184420">
        <ele>638.6</ele>
        <time>2022-05-22T09:30:56Z</time>
      </trkpt>
      <trkpt lat="37.9667250" lon="-5.6184380">
        <ele>638.5</ele>
        <time>2022-05-22T09:30:57Z</time>
      </trkpt>
      <trkpt lat="37.9667410" lon="-5.6184350">
        <ele>638.5</ele>
        <time>2022-05-22T09:30:59Z</time>
      </trkpt>
      <trkpt lat="37.9667560" lon="-5.6184320">
        <ele>638.5</ele>
        <time>2022-05-22T09:31:00Z</time>
      </trkpt>
      <trkpt lat="37.9667710" lon="-5.6184290">
        <ele>638.4</ele>
        <time>2022-05-22T09:31:01Z</time>
      </trkpt>
      <trkpt lat="37.9668000" lon="-5.6184260">
        <ele>638.4</ele>
        <time>2022-05-22T09:31:02Z</time>
      </trkpt>
      <trkpt lat="37.9668140" lon="-5.6184240">
        <ele>638.4</ele>
        <time>2022-05-22T09:31:04Z</time>
      </trkpt>
      <trkpt lat="37.9668280" lon="-5.6184220">
        <ele>638.4</ele>
        <time>2022-05-22T09:31:05Z</time>
      </trkpt>
      <trkpt lat="37.9668420" lon="-5.6184200">
        <ele>638.3</ele>
        <time>2022-05-22T09:31:06Z</time>
      </trkpt>
      <trkpt lat="37.9668560" lon="-5.6184170">
        <ele>638.3</ele>
        <time>2022-05-22T09:31:07Z</time>
      </trkpt>
      <trkpt lat="37.9668690" lon="-5.6184150">
        <ele>638.3</ele>
        <time>2022-05-22T09:31:08Z</time>
      </trkpt>
      <trkpt lat="37.9668800" lon="-5.6184110">
        <ele>638.3</ele>
        <time>2022-05-22T09:31:09Z</time>
      </trkpt>
      <trkpt lat="37.9668920" lon="-5.6184090">
        <ele>638.3</ele>
        <time>2022-05-22T09:31:10Z</time>
      </trkpt>
      <trkpt lat="37.9669030" lon="-5.6184090">
        <ele>638.3</ele>
        <time>2022-05-22T09:31:11Z</time>
      </trkpt>
      <trkpt lat="37.9669230" lon="-5.6184080">
        <ele>638.2</ele>
        <time>2022-05-22T09:31:12Z</time>
      </trkpt>
      <trkpt lat="37.9669310" lon="-5.6184080">
        <ele>638.2</ele>
        <time>2022-05-22T09:31:13Z</time>
      </trkpt>
      <trkpt lat="37.9669390" lon="-5.6184080">
        <ele>638.2</ele>
        <time>2022-05-22T09:31:14Z</time>
      </trkpt>
      <trkpt lat="37.9669590" lon="-5.6184050">
        <ele>638.2</ele>
        <time>2022-05-22T09:31:15Z</time>
      </trkpt>
      <trkpt lat="37.9669680" lon="-5.6184030">
        <ele>638.1</ele>
        <time>2022-05-22T09:31:16Z</time>
      </trkpt>
      <trkpt lat="37.9669760" lon="-5.6184010">
        <ele>638.1</ele>
        <time>2022-05-22T09:31:17Z</time>
      </trkpt>
      <trkpt lat="37.9669970" lon="-5.6183990">
        <ele>638.1</ele>
        <time>2022-05-22T09:31:19Z</time>
      </trkpt>
      <trkpt lat="37.9670090" lon="-5.6183960">
        <ele>638.1</ele>
        <time>2022-05-22T09:31:20Z</time>
      </trkpt>
      <trkpt lat="37.9670200" lon="-5.6183930">
        <ele>638.0</ele>
        <time>2022-05-22T09:31:21Z</time>
      </trkpt>
      <trkpt lat="37.9670430" lon="-5.6183860">
        <ele>638.0</ele>
        <time>2022-05-22T09:31:22Z</time>
      </trkpt>
      <trkpt lat="37.9670540" lon="-5.6183840">
        <ele>638.0</ele>
        <time>2022-05-22T09:31:23Z</time>
      </trkpt>
      <trkpt lat="37.9670660" lon="-5.6183820">
        <ele>638.0</ele>
        <time>2022-05-22T09:31:24Z</time>
      </trkpt>
      <trkpt lat="37.9670780" lon="-5.6183810">
        <ele>637.9</ele>
        <time>2022-05-22T09:31:25Z</time>
      </trkpt>
      <trkpt lat="37.9671000" lon="-5.6183820">
        <ele>637.9</ele>
        <time>2022-05-22T09:31:26Z</time>
      </trkpt>
      <trkpt lat="37.9671080" lon="-5.6183830">
        <ele>637.9</ele>
        <time>2022-05-22T09:31:27Z</time>
      </trkpt>
      <trkpt lat="37.9671160" lon="-5.6183830">
        <ele>637.9</ele>
        <time>2022-05-22T09:31:28Z</time>
      </trkpt>
      <trkpt lat="37.9671330" lon="-5.6183870">
        <ele>637.9</ele>
        <time>2022-05-22T09:31:30Z</time>
      </trkpt>
      <trkpt lat="37.9671380" lon="-5.6183870">
        <ele>637.8</ele>
        <time>2022-05-22T09:31:31Z</time>
      </trkpt>
      <trkpt lat="37.9671380" lon="-5.6183860">
        <ele>637.8</ele>
        <time>2022-05-22T09:31:32Z</time>
      </trkpt>
      <trkpt lat="37.9671380" lon="-5.6183840">
        <ele>637.8</ele>
        <time>2022-05-22T09:31:33Z</time>
      </trkpt>
      <trkpt lat="37.9671370" lon="-5.6183810">
        <ele>637.8</ele>
        <time>2022-05-22T09:31:34Z</time>
      </trkpt>
      <trkpt lat="37.9671360" lon="-5.6183760">
        <ele>637.8</ele>
        <time>2022-05-22T09:31:36Z</time>
      </trkpt>
      <trkpt lat="37.9671340" lon="-5.6183710">
        <ele>637.8</ele>
        <time>2022-05-22T09:31:37Z</time>
      </trkpt>
      <trkpt lat="37.9671320" lon="-5.6183670">
        <ele>637.8</ele>
        <time>2022-05-22T09:31:38Z</time>
      </trkpt>
      <trkpt lat="37.9671310" lon="-5.6183610">
        <ele>637.8</ele>
        <time>2022-05-22T09:31:39Z</time>
      </trkpt>
      <trkpt lat="37.9671340" lon="-5.6183550">
        <ele>637.8</ele>
        <time>2022-05-22T09:31:40Z</time>
      </trkpt>
      <trkpt lat="37.9671440" lon="-5.6183440">
        <ele>637.8</ele>
        <time>2022-05-22T09:31:41Z</time>
      </trkpt>
      <trkpt lat="37.9671510" lon="-5.6183390">
        <ele>637.8</ele>
        <time>2022-05-22T09:31:42Z</time>
      </trkpt>
      <trkpt lat="37.9671570" lon="-5.6183340">
        <ele>637.7</ele>
        <time>2022-05-22T09:31:43Z</time>
      </trkpt>
      <trkpt lat="37.9671630" lon="-5.6183290">
        <ele>637.7</ele>
        <time>2022-05-22T09:31:44Z</time>
      </trkpt>
      <trkpt lat="37.9671750" lon="-5.6183220">
        <ele>637.7</ele>
        <time>2022-05-22T09:31:45Z</time>
      </trkpt>
      <trkpt lat="37.9671900" lon="-5.6183160">
        <ele>637.7</ele>
        <time>2022-05-22T09:31:46Z</time>
      </trkpt>
      <trkpt lat="37.9672160" lon="-5.6183120">
        <ele>637.6</ele>
        <time>2022-05-22T09:31:47Z</time>
      </trkpt>
      <trkpt lat="37.9672500" lon="-5.6183110">
        <ele>637.6</ele>
        <time>2022-05-22T09:31:49Z</time>
      </trkpt>
      <trkpt lat="37.9672890" lon="-5.6183190">
        <ele>637.5</ele>
        <time>2022-05-22T09:31:50Z</time>
      </trkpt>
      <trkpt lat="37.9673060" lon="-5.6183220">
        <ele>637.5</ele>
        <time>2022-05-22T09:31:51Z</time>
      </trkpt>
      <trkpt lat="37.9673330" lon="-5.6183310">
        <ele>637.5</ele>
        <time>2022-05-22T09:31:52Z</time>
      </trkpt>
      <trkpt lat="37.9673680" lon="-5.6183430">
        <ele>637.4</ele>
        <time>2022-05-22T09:31:53Z</time>
      </trkpt>
      <trkpt lat="37.9673780" lon="-5.6183460">
        <ele>637.4</ele>
        <time>2022-05-22T09:31:54Z</time>
      </trkpt>
      <trkpt lat="37.9674060" lon="-5.6183550">
        <ele>637.3</ele>
        <time>2022-05-22T09:31:55Z</time>
      </trkpt>
      <trkpt lat="37.9674140" lon="-5.6183580">
        <ele>637.3</ele>
        <time>2022-05-22T09:31:56Z</time>
      </trkpt>
      <trkpt lat="37.9674310" lon="-5.6183610">
        <ele>637.2</ele>
        <time>2022-05-22T09:31:57Z</time>
      </trkpt>
      <trkpt lat="37.9674420" lon="-5.6183590">
        <ele>637.2</ele>
        <time>2022-05-22T09:31:58Z</time>
      </trkpt>
      <trkpt lat="37.9674580" lon="-5.6183550">
        <ele>637.2</ele>
        <time>2022-05-22T09:31:59Z</time>
      </trkpt>
      <trkpt lat="37.9674720" lon="-5.6183530">
        <ele>637.2</ele>
        <time>2022-05-22T09:32:00Z</time>
      </trkpt>
      <trkpt lat="37.9674980" lon="-5.6183520">
        <ele>637.1</ele>
        <time>2022-05-22T09:32:01Z</time>
      </trkpt>
      <trkpt lat="37.9675090" lon="-5.6183530">
        <ele>637.1</ele>
        <time>2022-05-22T09:32:02Z</time>
      </trkpt>
      <trkpt lat="37.9675290" lon="-5.6183530">
        <ele>637.0</ele>
        <time>2022-05-22T09:32:03Z</time>
      </trkpt>
      <trkpt lat="37.9675380" lon="-5.6183540">
        <ele>637.0</ele>
        <time>2022-05-22T09:32:04Z</time>
      </trkpt>
      <trkpt lat="37.9675470" lon="-5.6183540">
        <ele>637.0</ele>
        <time>2022-05-22T09:32:05Z</time>
      </trkpt>
      <trkpt lat="37.9675550" lon="-5.6183620">
        <ele>637.0</ele>
        <time>2022-05-22T09:32:06Z</time>
      </trkpt>
      <trkpt lat="37.9675600" lon="-5.6183760">
        <ele>637.0</ele>
        <time>2022-05-22T09:32:07Z</time>
      </trkpt>
      <trkpt lat="37.9675670" lon="-5.6183850">
        <ele>636.9</ele>
        <time>2022-05-22T09:32:08Z</time>
      </trkpt>
      <trkpt lat="37.9675740" lon="-5.6183930">
        <ele>636.9</ele>
        <time>2022-05-22T09:32:09Z</time>
      </trkpt>
      <trkpt lat="37.9675830" lon="-5.6183950">
        <ele>636.9</ele>
        <time>2022-05-22T09:32:10Z</time>
      </trkpt>
      <trkpt lat="37.9675950" lon="-5.6183960">
        <ele>636.9</ele>
        <time>2022-05-22T09:32:11Z</time>
      </trkpt>
      <trkpt lat="37.9676070" lon="-5.6183980">
        <ele>636.9</ele>
        <time>2022-05-22T09:32:12Z</time>
      </trkpt>
      <trkpt lat="37.9676200" lon="-5.6183990">
        <ele>636.8</ele>
        <time>2022-05-22T09:32:13Z</time>
      </trkpt>
      <trkpt lat="37.9676410" lon="-5.6183940">
        <ele>636.8</ele>
        <time>2022-05-22T09:32:15Z</time>
      </trkpt>
      <trkpt lat="37.9676620" lon="-5.6183930">
        <ele>636.7</ele>
        <time>2022-05-22T09:32:16Z</time>
      </trkpt>
      <trkpt lat="37.9676760" lon="-5.6183950">
        <ele>636.7</ele>
        <time>2022-05-22T09:32:17Z</time>
      </trkpt>
      <trkpt lat="37.9676970" lon="-5.6183970">
        <ele>636.7</ele>
        <time>2022-05-22T09:32:18Z</time>
      </trkpt>
      <trkpt lat="37.9677060" lon="-5.6183990">
        <ele>636.7</ele>
        <time>2022-05-22T09:32:19Z</time>
      </trkpt>
      <trkpt lat="37.9677150" lon="-5.6184000">
        <ele>636.6</ele>
        <time>2022-05-22T09:32:20Z</time>
      </trkpt>
      <trkpt lat="37.9677290" lon="-5.6184010">
        <ele>636.6</ele>
        <time>2022-05-22T09:32:21Z</time>
      </trkpt>
      <trkpt lat="37.9677460" lon="-5.6184020">
        <ele>636.6</ele>
        <time>2022-05-22T09:32:22Z</time>
      </trkpt>
      <trkpt lat="37.9677630" lon="-5.6184040">
        <ele>636.5</ele>
        <time>2022-05-22T09:32:23Z</time>
      </trkpt>
      <trkpt lat="37.9677790" lon="-5.6184060">
        <ele>636.5</ele>
        <time>2022-05-22T09:32:24Z</time>
      </trkpt>
      <trkpt lat="37.9677940" lon="-5.6184060">
        <ele>636.5</ele>
        <time>2022-05-22T09:32:25Z</time>
      </trkpt>
      <trkpt lat="37.9678100" lon="-5.6184090">
        <ele>636.4</ele>
        <time>2022-05-22T09:32:26Z</time>
      </trkpt>
      <trkpt lat="37.9678250" lon="-5.6184110">
        <ele>636.4</ele>
        <time>2022-05-22T09:32:27Z</time>
      </trkpt>
      <trkpt lat="37.9678400" lon="-5.6184130">
        <ele>636.4</ele>
        <time>2022-05-22T09:32:28Z</time>
      </trkpt>
      <trkpt lat="37.9678550" lon="-5.6184140">
        <ele>636.4</ele>
        <time>2022-05-22T09:32:29Z</time>
      </trkpt>
      <trkpt lat="37.9678700" lon="-5.6184160">
        <ele>636.3</ele>
        <time>2022-05-22T09:32:30Z</time>
      </trkpt>
      <trkpt lat="37.9678850" lon="-5.6184170">
        <ele>636.3</ele>
        <time>2022-05-22T09:32:31Z</time>
      </trkpt>
      <trkpt lat="37.9679000" lon="-5.6184220">
        <ele>636.3</ele>
        <time>2022-05-22T09:32:32Z</time>
      </trkpt>
      <trkpt lat="37.9679140" lon="-5.6184260">
        <ele>636.2</ele>
        <time>2022-05-22T09:32:33Z</time>
      </trkpt>
      <trkpt lat="37.9679270" lon="-5.6184310">
        <ele>636.2</ele>
        <time>2022-05-22T09:32:34Z</time>
      </trkpt>
      <trkpt lat="37.9679480" lon="-5.6184350">
        <ele>636.2</ele>
        <time>2022-05-22T09:32:35Z</time>
      </trkpt>
      <trkpt lat="37.9679570" lon="-5.6184370">
        <ele>636.2</ele>
        <time>2022-05-22T09:32:36Z</time>
      </trkpt>
      <trkpt lat="37.9679660" lon="-5.6184380">
        <ele>636.1</ele>
        <time>2022-05-22T09:32:37Z</time>
      </trkpt>
      <trkpt lat="37.9679870" lon="-5.6184370">
        <ele>636.1</ele>
        <time>2022-05-22T09:32:38Z</time>
      </trkpt>
      <trkpt lat="37.9679960" lon="-5.6184360">
        <ele>636.1</ele>
        <time>2022-05-22T09:32:39Z</time>
      </trkpt>
      <trkpt lat="37.9680050" lon="-5.6184340">
        <ele>636.1</ele>
        <time>2022-05-22T09:32:40Z</time>
      </trkpt>
      <trkpt lat="37.9680250" lon="-5.6184400">
        <ele>636.0</ele>
        <time>2022-05-22T09:32:41Z</time>
      </trkpt>
      <trkpt lat="37.9680320" lon="-5.6184440">
        <ele>636.0</ele>
        <time>2022-05-22T09:32:42Z</time>
      </trkpt>
      <trkpt lat="37.9680400" lon="-5.6184470">
        <ele>636.0</ele>
        <time>2022-05-22T09:32:43Z</time>
      </trkpt>
      <trkpt lat="37.9680510" lon="-5.6184520">
        <ele>636.0</ele>
        <time>2022-05-22T09:32:44Z</time>
      </trkpt>
      <trkpt lat="37.9680620" lon="-5.6184540">
        <ele>636.0</ele>
        <time>2022-05-22T09:32:45Z</time>
      </trkpt>
      <trkpt lat="37.9680740" lon="-5.6184570">
        <ele>635.9</ele>
        <time>2022-05-22T09:32:46Z</time>
      </trkpt>
      <trkpt lat="37.9680920" lon="-5.6184540">
        <ele>635.9</ele>
        <time>2022-05-22T09:32:48Z</time>
      </trkpt>
      <trkpt lat="37.9681010" lon="-5.6184480">
        <ele>635.9</ele>
        <time>2022-05-22T09:32:49Z</time>
      </trkpt>
      <trkpt lat="37.9681060" lon="-5.6184370">
        <ele>635.9</ele>
        <time>2022-05-22T09:32:50Z</time>
      </trkpt>
      <trkpt lat="37.9681110" lon="-5.6184270">
        <ele>635.8</ele>
        <time>2022-05-22T09:32:51Z</time>
      </trkpt>
      <trkpt lat="37.9681220" lon="-5.6184180">
        <ele>635.8</ele>
        <time>2022-05-22T09:32:53Z</time>
      </trkpt>
      <trkpt lat="37.9681310" lon="-5.6184180">
        <ele>635.8</ele>
        <time>2022-05-22T09:32:54Z</time>
      </trkpt>
      <trkpt lat="37.9681400" lon="-5.6184220">
        <ele>635.8</ele>
        <time>2022-05-22T09:32:55Z</time>
      </trkpt>
      <trkpt lat="37.9681530" lon="-5.6184280">
        <ele>635.8</ele>
        <time>2022-05-22T09:32:56Z</time>
      </trkpt>
      <trkpt lat="37.9681650" lon="-5.6184330">
        <ele>635.7</ele>
        <time>2022-05-22T09:32:57Z</time>
      </trkpt>
      <trkpt lat="37.9681740" lon="-5.6184370">
        <ele>635.7</ele>
        <time>2022-05-22T09:32:58Z</time>
      </trkpt>
      <trkpt lat="37.9681840" lon="-5.6184420">
        <ele>635.7</ele>
        <time>2022-05-22T09:32:59Z</time>
      </trkpt>
      <trkpt lat="37.9682020" lon="-5.6184530">
        <ele>635.7</ele>
        <time>2022-05-22T09:33:00Z</time>
      </trkpt>
      <trkpt lat="37.9682110" lon="-5.6184560">
        <ele>635.6</ele>
        <time>2022-05-22T09:33:01Z</time>
      </trkpt>
      <trkpt lat="37.9682190" lon="-5.6184600">
        <ele>635.6</ele>
        <time>2022-05-22T09:33:02Z</time>
      </trkpt>
      <trkpt lat="37.9682350" lon="-5.6184670">
        <ele>635.6</ele>
        <time>2022-05-22T09:33:03Z</time>
      </trkpt>
      <trkpt lat="37.9682480" lon="-5.6184720">
        <ele>635.6</ele>
        <time>2022-05-22T09:33:04Z</time>
      </trkpt>
      <trkpt lat="37.9682700" lon="-5.6184790">
        <ele>635.5</ele>
        <time>2022-05-22T09:33:05Z</time>
      </trkpt>
      <trkpt lat="37.9682800" lon="-5.6184820">
        <ele>635.5</ele>
        <time>2022-05-22T09:33:06Z</time>
      </trkpt>
      <trkpt lat="37.9682900" lon="-5.6184850">
        <ele>635.5</ele>
        <time>2022-05-22T09:33:07Z</time>
      </trkpt>
      <trkpt lat="37.9683010" lon="-5.6184840">
        <ele>635.5</ele>
        <time>2022-05-22T09:33:08Z</time>
      </trkpt>
      <trkpt lat="37.9683120" lon="-5.6184840">
        <ele>635.4</ele>
        <time>2022-05-22T09:33:09Z</time>
      </trkpt>
      <trkpt lat="37.9683230" lon="-5.6184850">
        <ele>635.4</ele>
        <time>2022-05-22T09:33:10Z</time>
      </trkpt>
      <trkpt lat="37.9683370" lon="-5.6184880">
        <ele>635.4</ele>
        <time>2022-05-22T09:33:11Z</time>
      </trkpt>
      <trkpt lat="37.9683600" lon="-5.6184900">
        <ele>635.4</ele>
        <time>2022-05-22T09:33:13Z</time>
      </trkpt>
      <trkpt lat="37.9683960" lon="-5.6185000">
        <ele>635.3</ele>
        <time>2022-05-22T09:33:14Z</time>
      </trkpt>
      <trkpt lat="37.9684050" lon="-5.6185020">
        <ele>635.3</ele>
        <time>2022-05-22T09:33:15Z</time>
      </trkpt>
      <trkpt lat="37.9684270" lon="-5.6185080">
        <ele>635.2</ele>
        <time>2022-05-22T09:33:16Z</time>
      </trkpt>
      <trkpt lat="37.9684340" lon="-5.6185100">
        <ele>635.2</ele>
        <time>2022-05-22T09:33:17Z</time>
      </trkpt>
      <trkpt lat="37.9684420" lon="-5.6185120">
        <ele>635.2</ele>
        <time>2022-05-22T09:33:18Z</time>
      </trkpt>
      <trkpt lat="37.9684530" lon="-5.6185170">
        <ele>635.2</ele>
        <time>2022-05-22T09:33:19Z</time>
      </trkpt>
      <trkpt lat="37.9684660" lon="-5.6185230">
        <ele>635.2</ele>
        <time>2022-05-22T09:33:20Z</time>
      </trkpt>
      <trkpt lat="37.9684750" lon="-5.6185270">
        <ele>635.2</ele>
        <time>2022-05-22T09:33:21Z</time>
      </trkpt>
      <trkpt lat="37.9684960" lon="-5.6185350">
        <ele>635.1</ele>
        <time>2022-05-22T09:33:22Z</time>
      </trkpt>
      <trkpt lat="37.9685070" lon="-5.6185390">
        <ele>635.1</ele>
        <time>2022-05-22T09:33:24Z</time>
      </trkpt>
      <trkpt lat="37.9685170" lon="-5.6185430">
        <ele>635.1</ele>
        <time>2022-05-22T09:33:25Z</time>
      </trkpt>
      <trkpt lat="37.9685280" lon="-5.6185470">
        <ele>635.1</ele>
        <time>2022-05-22T09:33:26Z</time>
      </trkpt>
      <trkpt lat="37.9685380" lon="-5.6185510">
        <ele>635.0</ele>
        <time>2022-05-22T09:33:27Z</time>
      </trkpt>
      <trkpt lat="37.9685520" lon="-5.6185570">
        <ele>635.0</ele>
        <time>2022-05-22T09:33:29Z</time>
      </trkpt>
      <trkpt lat="37.9685650" lon="-5.6185600">
        <ele>635.0</ele>
        <time>2022-05-22T09:33:30Z</time>
      </trkpt>
      <trkpt lat="37.9685790" lon="-5.6185620">
        <ele>635.0</ele>
        <time>2022-05-22T09:33:31Z</time>
      </trkpt>
      <trkpt lat="37.9685960" lon="-5.6185650">
        <ele>634.9</ele>
        <time>2022-05-22T09:33:32Z</time>
      </trkpt>
      <trkpt lat="37.9686110" lon="-5.6185690">
        <ele>634.9</ele>
        <time>2022-05-22T09:33:33Z</time>
      </trkpt>
      <trkpt lat="37.9686240" lon="-5.6185720">
        <ele>634.9</ele>
        <time>2022-05-22T09:33:34Z</time>
      </trkpt>
      <trkpt lat="37.9686370" lon="-5.6185740">
        <ele>634.8</ele>
        <time>2022-05-22T09:33:35Z</time>
      </trkpt>
      <trkpt lat="37.9686520" lon="-5.6185770">
        <ele>634.8</ele>
        <time>2022-05-22T09:33:36Z</time>
      </trkpt>
      <trkpt lat="37.9686650" lon="-5.6185800">
        <ele>634.8</ele>
        <time>2022-05-22T09:33:37Z</time>
      </trkpt>
      <trkpt lat="37.9686780" lon="-5.6185840">
        <ele>634.8</ele>
        <time>2022-05-22T09:33:38Z</time>
      </trkpt>
      <trkpt lat="37.9686920" lon="-5.6185880">
        <ele>634.7</ele>
        <time>2022-05-22T09:33:39Z</time>
      </trkpt>
      <trkpt lat="37.9687070" lon="-5.6185930">
        <ele>634.7</ele>
        <time>2022-05-22T09:33:40Z</time>
      </trkpt>
      <trkpt lat="37.9687200" lon="-5.6185970">
        <ele>634.7</ele>
        <time>2022-05-22T09:33:41Z</time>
      </trkpt>
      <trkpt lat="37.9687410" lon="-5.6186000">
        <ele>634.6</ele>
        <time>2022-05-22T09:33:42Z</time>
      </trkpt>
      <trkpt lat="37.9687820" lon="-5.6186070">
        <ele>634.6</ele>
        <time>2022-05-22T09:33:44Z</time>
      </trkpt>
      <trkpt lat="37.9687910" lon="-5.6186090">
        <ele>634.6</ele>
        <time>2022-05-22T09:33:45Z</time>
      </trkpt>
      <trkpt lat="37.9688010" lon="-5.6186110">
        <ele>634.5</ele>
        <time>2022-05-22T09:33:46Z</time>
      </trkpt>
      <trkpt lat="37.9688100" lon="-5.6186120">
        <ele>634.5</ele>
        <time>2022-05-22T09:33:47Z</time>
      </trkpt>
      <trkpt lat="37.9688270" lon="-5.6186250">
        <ele>634.5</ele>
        <time>2022-05-22T09:33:48Z</time>
      </trkpt>
      <trkpt lat="37.9688350" lon="-5.6186300">
        <ele>634.5</ele>
        <time>2022-05-22T09:33:50Z</time>
      </trkpt>
      <trkpt lat="37.9688420" lon="-5.6186350">
        <ele>634.5</ele>
        <time>2022-05-22T09:33:51Z</time>
      </trkpt>
      <trkpt lat="37.9688510" lon="-5.6186410">
        <ele>634.5</ele>
        <time>2022-05-22T09:33:52Z</time>
      </trkpt>
      <trkpt lat="37.9688620" lon="-5.6186460">
        <ele>634.5</ele>
        <time>2022-05-22T09:33:53Z</time>
      </trkpt>
      <trkpt lat="37.9688740" lon="-5.6186510">
        <ele>634.4</ele>
        <time>2022-05-22T09:33:54Z</time>
      </trkpt>
      <trkpt lat="37.9688850" lon="-5.6186560">
        <ele>634.4</ele>
        <time>2022-05-22T09:33:55Z</time>
      </trkpt>
      <trkpt lat="37.9688990" lon="-5.6186650">
        <ele>634.4</ele>
        <time>2022-05-22T09:33:56Z</time>
      </trkpt>
      <trkpt lat="37.9689100" lon="-5.6186680">
        <ele>634.4</ele>
        <time>2022-05-22T09:33:57Z</time>
      </trkpt>
      <trkpt lat="37.9689200" lon="-5.6186670">
        <ele>634.4</ele>
        <time>2022-05-22T09:33:58Z</time>
      </trkpt>
      <trkpt lat="37.9689350" lon="-5.6186630">
        <ele>634.3</ele>
        <time>2022-05-22T09:34:00Z</time>
      </trkpt>
      <trkpt lat="37.9689430" lon="-5.6186590">
        <ele>634.3</ele>
        <time>2022-05-22T09:34:01Z</time>
      </trkpt>
      <trkpt lat="37.9689460" lon="-5.6186540">
        <ele>634.3</ele>
        <time>2022-05-22T09:34:02Z</time>
      </trkpt>
      <trkpt lat="37.9689480" lon="-5.6186510">
        <ele>634.3</ele>
        <time>2022-05-22T09:34:03Z</time>
      </trkpt>
      <trkpt lat="37.9689520" lon="-5.6186490">
        <ele>634.3</ele>
        <time>2022-05-22T09:34:04Z</time>
      </trkpt>
      <trkpt lat="37.9689610" lon="-5.6186480">
        <ele>634.3</ele>
        <time>2022-05-22T09:34:05Z</time>
      </trkpt>
      <trkpt lat="37.9689660" lon="-5.6186470">
        <ele>634.3</ele>
        <time>2022-05-22T09:34:06Z</time>
      </trkpt>
      <trkpt lat="37.9689710" lon="-5.6186490">
        <ele>634.3</ele>
        <time>2022-05-22T09:34:07Z</time>
      </trkpt>
      <trkpt lat="37.9689760" lon="-5.6186470">
        <ele>634.3</ele>
        <time>2022-05-22T09:34:08Z</time>
      </trkpt>
      <trkpt lat="37.9689870" lon="-5.6186490">
        <ele>634.3</ele>
        <time>2022-05-22T09:34:09Z</time>
      </trkpt>
      <trkpt lat="37.9690180" lon="-5.6186700">
        <ele>634.2</ele>
        <time>2022-05-22T09:34:11Z</time>
      </trkpt>
      <trkpt lat="37.9690560" lon="-5.6187000">
        <ele>634.1</ele>
        <time>2022-05-22T09:34:12Z</time>
      </trkpt>
      <trkpt lat="37.9690790" lon="-5.6187150">
        <ele>634.1</ele>
        <time>2022-05-22T09:34:13Z</time>
      </trkpt>
      <trkpt lat="37.9690880" lon="-5.6187190">
        <ele>634.1</ele>
        <time>2022-05-22T09:34:14Z</time>
      </trkpt>
      <trkpt lat="37.9690940" lon="-5.6187210">
        <ele>634.1</ele>
        <time>2022-05-22T09:34:15Z</time>
      </trkpt>
      <trkpt lat="37.9691000" lon="-5.6187240">
        <ele>634.1</ele>
        <time>2022-05-22T09:34:16Z</time>
      </trkpt>
      <trkpt lat="37.9691080" lon="-5.6187230">
        <ele>634.0</ele>
        <time>2022-05-22T09:34:17Z</time>
      </trkpt>
      <trkpt lat="37.9691170" lon="-5.6187270">
        <ele>634.0</ele>
        <time>2022-05-22T09:34:18Z</time>
      </trkpt>
      <trkpt lat="37.9691350" lon="-5.6187410">
        <ele>634.0</ele>
        <time>2022-05-22T09:34:19Z</time>
      </trkpt>
      <trkpt lat="37.9691430" lon="-5.6187490">
        <ele>634.0</ele>
        <time>2022-05-22T09:34:20Z</time>
      </trkpt>
      <trkpt lat="37.9691520" lon="-5.6187570">
        <ele>634.0</ele>
        <time>2022-05-22T09:34:21Z</time>
      </trkpt>
      <trkpt lat="37.9691700" lon="-5.6187780">
        <ele>633.9</ele>
        <time>2022-05-22T09:34:22Z</time>
      </trkpt>
      <trkpt lat="37.9691780" lon="-5.6187890">
        <ele>633.9</ele>
        <time>2022-05-22T09:34:23Z</time>
      </trkpt>
      <trkpt lat="37.9691890" lon="-5.6188040">
        <ele>633.9</ele>
        <time>2022-05-22T09:34:24Z</time>
      </trkpt>
      <trkpt lat="37.9692020" lon="-5.6188180">
        <ele>633.8</ele>
        <time>2022-05-22T09:34:25Z</time>
      </trkpt>
      <trkpt lat="37.9692140" lon="-5.6188270">
        <ele>633.8</ele>
        <time>2022-05-22T09:34:26Z</time>
      </trkpt>
      <trkpt lat="37.9692300" lon="-5.6188340">
        <ele>633.8</ele>
        <time>2022-05-22T09:34:27Z</time>
      </trkpt>
      <trkpt lat="37.9692570" lon="-5.6188430">
        <ele>633.7</ele>
        <time>2022-05-22T09:34:28Z</time>
      </trkpt>
      <trkpt lat="37.9692670" lon="-5.6188460">
        <ele>633.7</ele>
        <time>2022-05-22T09:34:29Z</time>
      </trkpt>
      <trkpt lat="37.9692800" lon="-5.6188500">
        <ele>633.7</ele>
        <time>2022-05-22T09:34:30Z</time>
      </trkpt>
      <trkpt lat="37.9692930" lon="-5.6188540">
        <ele>633.7</ele>
        <time>2022-05-22T09:34:31Z</time>
      </trkpt>
      <trkpt lat="37.9693200" lon="-5.6188670">
        <ele>633.6</ele>
        <time>2022-05-22T09:34:33Z</time>
      </trkpt>
      <trkpt lat="37.9693270" lon="-5.6188700">
        <ele>633.6</ele>
        <time>2022-05-22T09:34:34Z</time>
      </trkpt>
      <trkpt lat="37.9693400" lon="-5.6188790">
        <ele>633.6</ele>
        <time>2022-05-22T09:34:35Z</time>
      </trkpt>
      <trkpt lat="37.9693520" lon="-5.6188860">
        <ele>633.6</ele>
        <time>2022-05-22T09:34:36Z</time>
      </trkpt>
      <trkpt lat="37.9693610" lon="-5.6188900">
        <ele>633.6</ele>
        <time>2022-05-22T09:34:37Z</time>
      </trkpt>
      <trkpt lat="37.9693700" lon="-5.6188950">
        <ele>633.6</ele>
        <time>2022-05-22T09:34:38Z</time>
      </trkpt>
      <trkpt lat="37.9693810" lon="-5.6189000">
        <ele>633.5</ele>
        <time>2022-05-22T09:34:39Z</time>
      </trkpt>
      <trkpt lat="37.9693950" lon="-5.6189030">
        <ele>633.5</ele>
        <time>2022-05-22T09:34:40Z</time>
      </trkpt>
      <trkpt lat="37.9694040" lon="-5.6189030">
        <ele>633.5</ele>
        <time>2022-05-22T09:34:41Z</time>
      </trkpt>
      <trkpt lat="37.9694130" lon="-5.6189020">
        <ele>633.5</ele>
        <time>2022-05-22T09:34:42Z</time>
      </trkpt>
      <trkpt lat="37.9694230" lon="-5.6189060">
        <ele>633.5</ele>
        <time>2022-05-22T09:34:43Z</time>
      </trkpt>
      <trkpt lat="37.9694320" lon="-5.6189120">
        <ele>633.5</ele>
        <time>2022-05-22T09:34:44Z</time>
      </trkpt>
      <trkpt lat="37.9694420" lon="-5.6189210">
        <ele>633.5</ele>
        <time>2022-05-22T09:34:45Z</time>
      </trkpt>
      <trkpt lat="37.9694560" lon="-5.6189340">
        <ele>633.4</ele>
        <time>2022-05-22T09:34:46Z</time>
      </trkpt>
      <trkpt lat="37.9694640" lon="-5.6189420">
        <ele>633.4</ele>
        <time>2022-05-22T09:34:47Z</time>
      </trkpt>
      <trkpt lat="37.9694760" lon="-5.6189520">
        <ele>633.4</ele>
        <time>2022-05-22T09:34:48Z</time>
      </trkpt>
      <trkpt lat="37.9694880" lon="-5.6189620">
        <ele>633.4</ele>
        <time>2022-05-22T09:34:49Z</time>
      </trkpt>
      <trkpt lat="37.9695030" lon="-5.6189730">
        <ele>633.3</ele>
        <time>2022-05-22T09:34:50Z</time>
      </trkpt>
      <trkpt lat="37.9695280" lon="-5.6189880">
        <ele>633.3</ele>
        <time>2022-05-22T09:34:52Z</time>
      </trkpt>
      <trkpt lat="37.9695430" lon="-5.6189930">
        <ele>633.2</ele>
        <time>2022-05-22T09:34:53Z</time>
      </trkpt>
      <trkpt lat="37.9695570" lon="-5.6189970">
        <ele>633.2</ele>
        <time>2022-05-22T09:34:54Z</time>
      </trkpt>
      <trkpt lat="37.9695700" lon="-5.6190040">
        <ele>633.2</ele>
        <time>2022-05-22T09:34:55Z</time>
      </trkpt>
      <trkpt lat="37.9695810" lon="-5.6190100">
        <ele>633.2</ele>
        <time>2022-05-22T09:34:56Z</time>
      </trkpt>
      <trkpt lat="37.9696050" lon="-5.6190260">
        <ele>633.1</ele>
        <time>2022-05-22T09:34:58Z</time>
      </trkpt>
      <trkpt lat="37.9696160" lon="-5.6190350">
        <ele>633.1</ele>
        <time>2022-05-22T09:34:59Z</time>
      </trkpt>
      <trkpt lat="37.9696290" lon="-5.6190470">
        <ele>633.1</ele>
        <time>2022-05-22T09:35:00Z</time>
      </trkpt>
      <trkpt lat="37.9696480" lon="-5.6190580">
        <ele>633.0</ele>
        <time>2022-05-22T09:35:01Z</time>
      </trkpt>
      <trkpt lat="37.9696570" lon="-5.6190620">
        <ele>633.0</ele>
        <time>2022-05-22T09:35:02Z</time>
      </trkpt>
      <trkpt lat="37.9696650" lon="-5.6190660">
        <ele>633.0</ele>
        <time>2022-05-22T09:35:03Z</time>
      </trkpt>
      <trkpt lat="37.9696720" lon="-5.6190600">
        <ele>633.0</ele>
        <time>2022-05-22T09:35:04Z</time>
      </trkpt>
      <trkpt lat="37.9696790" lon="-5.6190510">
        <ele>633.0</ele>
        <time>2022-05-22T09:35:05Z</time>
      </trkpt>
      <trkpt lat="37.9696880" lon="-5.6190400">
        <ele>633.0</ele>
        <time>2022-05-22T09:35:07Z</time>
      </trkpt>
      <trkpt lat="37.9697030" lon="-5.6190350">
        <ele>632.9</ele>
        <time>2022-05-22T09:35:08Z</time>
      </trkpt>
      <trkpt lat="37.9697110" lon="-5.6190380">
        <ele>632.9</ele>
        <time>2022-05-22T09:35:09Z</time>
      </trkpt>
      <trkpt lat="37.9697200" lon="-5.6190420">
        <ele>632.9</ele>
        <time>2022-05-22T09:35:10Z</time>
      </trkpt>
      <trkpt lat="37.9697330" lon="-5.6190510">
        <ele>632.9</ele>
        <time>2022-05-22T09:35:11Z</time>
      </trkpt>
      <trkpt lat="37.9697470" lon="-5.6190620">
        <ele>632.9</ele>
        <time>2022-05-22T09:35:12Z</time>
      </trkpt>
      <trkpt lat="37.9697620" lon="-5.6190750">
        <ele>632.8</ele>
        <time>2022-05-22T09:35:13Z</time>
      </trkpt>
      <trkpt lat="37.9697770" lon="-5.6190840">
        <ele>632.8</ele>
        <time>2022-05-22T09:35:14Z</time>
      </trkpt>
      <trkpt lat="37.9697890" lon="-5.6190880">
        <ele>632.8</ele>
        <time>2022-05-22T09:35:15Z</time>
      </trkpt>
      <trkpt lat="37.9698020" lon="-5.6190940">
        <ele>632.8</ele>
        <time>2022-05-22T09:35:16Z</time>
      </trkpt>
      <trkpt lat="37.9698190" lon="-5.6191000">
        <ele>632.8</ele>
        <time>2022-05-22T09:35:18Z</time>
      </trkpt>
      <trkpt lat="37.9698380" lon="-5.6191090">
        <ele>632.7</ele>
        <time>2022-05-22T09:35:19Z</time>
      </trkpt>
      <trkpt lat="37.9698480" lon="-5.6191130">
        <ele>632.7</ele>
        <time>2022-05-22T09:35:20Z</time>
      </trkpt>
      <trkpt lat="37.9698570" lon="-5.6191180">
        <ele>632.7</ele>
        <time>2022-05-22T09:35:21Z</time>
      </trkpt>
      <trkpt lat="37.9698740" lon="-5.6191290">
        <ele>632.7</ele>
        <time>2022-05-22T09:35:22Z</time>
      </trkpt>
      <trkpt lat="37.9698820" lon="-5.6191340">
        <ele>632.7</ele>
        <time>2022-05-22T09:35:23Z</time>
      </trkpt>
      <trkpt lat="37.9698890" lon="-5.6191390">
        <ele>632.7</ele>
        <time>2022-05-22T09:35:24Z</time>
      </trkpt>
      <trkpt lat="37.9699050" lon="-5.6191560">
        <ele>632.6</ele>
        <time>2022-05-22T09:35:25Z</time>
      </trkpt>
      <trkpt lat="37.9699120" lon="-5.6191640">
        <ele>632.6</ele>
        <time>2022-05-22T09:35:27Z</time>
      </trkpt>
      <trkpt lat="37.9699190" lon="-5.6191720">
        <ele>632.6</ele>
        <time>2022-05-22T09:35:28Z</time>
      </trkpt>
      <trkpt lat="37.9699340" lon="-5.6191850">
        <ele>632.6</ele>
        <time>2022-05-22T09:35:29Z</time>
      </trkpt>
      <trkpt lat="37.9699460" lon="-5.6191920">
        <ele>632.6</ele>
        <time>2022-05-22T09:35:30Z</time>
      </trkpt>
      <trkpt lat="37.9699580" lon="-5.6191960">
        <ele>632.6</ele>
        <time>2022-05-22T09:35:31Z</time>
      </trkpt>
      <trkpt lat="37.9699730" lon="-5.6192020">
        <ele>632.5</ele>
        <time>2022-05-22T09:35:32Z</time>
      </trkpt>
      <trkpt lat="37.9700000" lon="-5.6192090">
        <ele>632.5</ele>
        <time>2022-05-22T09:35:33Z</time>
      </trkpt>
      <trkpt lat="37.9700110" lon="-5.6192120">
        <ele>632.5</ele>
        <time>2022-05-22T09:35:34Z</time>
      </trkpt>
      <trkpt lat="37.9700240" lon="-5.6192150">
        <ele>632.5</ele>
        <time>2022-05-22T09:35:35Z</time>
      </trkpt>
      <trkpt lat="37.9700370" lon="-5.6192170">
        <ele>632.5</ele>
        <time>2022-05-22T09:35:36Z</time>
      </trkpt>
      <trkpt lat="37.9700620" lon="-5.6192300">
        <ele>632.4</ele>
        <time>2022-05-22T09:35:38Z</time>
      </trkpt>
      <trkpt lat="37.9700680" lon="-5.6192360">
        <ele>632.4</ele>
        <time>2022-05-22T09:35:39Z</time>
      </trkpt>
      <trkpt lat="37.9700750" lon="-5.6192430">
        <ele>632.4</ele>
        <time>2022-05-22T09:35:40Z</time>
      </trkpt>
      <trkpt lat="37.9700810" lon="-5.6192500">
        <ele>632.4</ele>
        <time>2022-05-22T09:35:41Z</time>
      </trkpt>
      <trkpt lat="37.9700890" lon="-5.6192560">
        <ele>632.4</ele>
        <time>2022-05-22T09:35:42Z</time>
      </trkpt>
      <trkpt lat="37.9700990" lon="-5.6192560">
        <ele>632.4</ele>
        <time>2022-05-22T09:35:44Z</time>
      </trkpt>
      <trkpt lat="37.9701130" lon="-5.6192590">
        <ele>632.3</ele>
        <time>2022-05-22T09:35:45Z</time>
      </trkpt>
      <trkpt lat="37.9701280" lon="-5.6192620">
        <ele>632.3</ele>
        <time>2022-05-22T09:35:46Z</time>
      </trkpt>
      <trkpt lat="37.9701440" lon="-5.6192650">
        <ele>632.3</ele>
        <time>2022-05-22T09:35:47Z</time>
      </trkpt>
      <trkpt lat="37.9701610" lon="-5.6192670">
        <ele>632.3</ele>
        <time>2022-05-22T09:35:48Z</time>
      </trkpt>
      <trkpt lat="37.9701780" lon="-5.6192700">
        <ele>632.2</ele>
        <time>2022-05-22T09:35:49Z</time>
      </trkpt>
      <trkpt lat="37.9701920" lon="-5.6192730">
        <ele>632.2</ele>
        <time>2022-05-22T09:35:50Z</time>
      </trkpt>
      <trkpt lat="37.9702070" lon="-5.6192830">
        <ele>632.2</ele>
        <time>2022-05-22T09:35:51Z</time>
      </trkpt>
      <trkpt lat="37.9702140" lon="-5.6192940">
        <ele>632.2</ele>
        <time>2022-05-22T09:35:52Z</time>
      </trkpt>
      <trkpt lat="37.9702200" lon="-5.6193080">
        <ele>632.1</ele>
        <time>2022-05-22T09:35:53Z</time>
      </trkpt>
      <trkpt lat="37.9702280" lon="-5.6193270">
        <ele>632.1</ele>
        <time>2022-05-22T09:35:55Z</time>
      </trkpt>
      <trkpt lat="37.9702320" lon="-5.6193420">
        <ele>632.1</ele>
        <time>2022-05-22T09:35:56Z</time>
      </trkpt>
      <trkpt lat="37.9702340" lon="-5.6193600">
        <ele>632.1</ele>
        <time>2022-05-22T09:35:57Z</time>
      </trkpt>
      <trkpt lat="37.9702410" lon="-5.6193680">
        <ele>632.1</ele>
        <time>2022-05-22T09:35:58Z</time>
      </trkpt>
      <trkpt lat="37.9702580" lon="-5.6193870">
        <ele>632.0</ele>
        <time>2022-05-22T09:36:00Z</time>
      </trkpt>
      <trkpt lat="37.9702650" lon="-5.6193920">
        <ele>632.0</ele>
        <time>2022-05-22T09:36:01Z</time>
      </trkpt>
      <trkpt lat="37.9702720" lon="-5.6193960">
        <ele>632.0</ele>
        <time>2022-05-22T09:36:02Z</time>
      </trkpt>
      <trkpt lat="37.9702900" lon="-5.6194070">
        <ele>632.0</ele>
        <time>2022-05-22T09:36:03Z</time>
      </trkpt>
      <trkpt lat="37.9702980" lon="-5.6194110">
        <ele>632.0</ele>
        <time>2022-05-22T09:36:05Z</time>
      </trkpt>
      <trkpt lat="37.9703070" lon="-5.6194160">
        <ele>631.9</ele>
        <time>2022-05-22T09:36:06Z</time>
      </trkpt>
      <trkpt lat="37.9703310" lon="-5.6194230">
        <ele>631.9</ele>
        <time>2022-05-22T09:36:07Z</time>
      </trkpt>
      <trkpt lat="37.9703430" lon="-5.6194250">
        <ele>631.9</ele>
        <time>2022-05-22T09:36:08Z</time>
      </trkpt>
      <trkpt lat="37.9703620" lon="-5.6194260">
        <ele>631.9</ele>
        <time>2022-05-22T09:36:10Z</time>
      </trkpt>
      <trkpt lat="37.9703770" lon="-5.6194300">
        <ele>631.8</ele>
        <time>2022-05-22T09:36:11Z</time>
      </trkpt>
      <trkpt lat="37.9703930" lon="-5.6194260">
        <ele>631.8</ele>
        <time>2022-05-22T09:36:12Z</time>
      </trkpt>
      <trkpt lat="37.9704080" lon="-5.6194200">
        <ele>631.8</ele>
        <time>2022-05-22T09:36:13Z</time>
      </trkpt>
      <trkpt lat="37.9704380" lon="-5.6194080">
        <ele>631.8</ele>
        <time>2022-05-22T09:36:15Z</time>
      </trkpt>
      <trkpt lat="37.9704430" lon="-5.6194070">
        <ele>631.8</ele>
        <time>2022-05-22T09:36:16Z</time>
      </trkpt>
      <trkpt lat="37.9704610" lon="-5.6194100">
        <ele>631.8</ele>
        <time>2022-05-22T09:36:17Z</time>
      </trkpt>
      <trkpt lat="37.9704760" lon="-5.6194160">
        <ele>631.7</ele>
        <time>2022-05-22T09:36:18Z</time>
      </trkpt>
      <trkpt lat="37.9705110" lon="-5.6194350">
        <ele>631.7</ele>
        <time>2022-05-22T09:36:20Z</time>
      </trkpt>
      <trkpt lat="37.9705190" lon="-5.6194410">
        <ele>631.7</ele>
        <time>2022-05-22T09:36:21Z</time>
      </trkpt>
      <trkpt lat="37.9705270" lon="-5.6194470">
        <ele>631.7</ele>
        <time>2022-05-22T09:36:22Z</time>
      </trkpt>
      <trkpt lat="37.9705350" lon="-5.6194540">
        <ele>631.7</ele>
        <time>2022-05-22T09:36:23Z</time>
      </trkpt>
      <trkpt lat="37.9705580" lon="-5.6194770">
        <ele>631.6</ele>
        <time>2022-05-22T09:36:25Z</time>
      </trkpt>
      <trkpt lat="37.9705660" lon="-5.6194830">
        <ele>631.6</ele>
        <time>2022-05-22T09:36:26Z</time>
      </trkpt>
      <trkpt lat="37.9705820" lon="-5.6194900">
        <ele>631.6</ele>
        <time>2022-05-22T09:36:27Z</time>
      </trkpt>
      <trkpt lat="37.9705960" lon="-5.6195000">
        <ele>631.6</ele>
        <time>2022-05-22T09:36:28Z</time>
      </trkpt>
      <trkpt lat="37.9706150" lon="-5.6195150">
        <ele>631.6</ele>
        <time>2022-05-22T09:36:29Z</time>
      </trkpt>
      <trkpt lat="37.9706220" lon="-5.6195220">
        <ele>631.6</ele>
        <time>2022-05-22T09:36:30Z</time>
      </trkpt>
      <trkpt lat="37.9706300" lon="-5.6195290">
        <ele>631.5</ele>
        <time>2022-05-22T09:36:31Z</time>
      </trkpt>
      <trkpt lat="37.9706400" lon="-5.6195390">
        <ele>631.5</ele>
        <time>2022-05-22T09:36:32Z</time>
      </trkpt>
      <trkpt lat="37.9706520" lon="-5.6195500">
        <ele>631.5</ele>
        <time>2022-05-22T09:36:33Z</time>
      </trkpt>
      <trkpt lat="37.9706640" lon="-5.6195600">
        <ele>631.5</ele>
        <time>2022-05-22T09:36:34Z</time>
      </trkpt>
      <trkpt lat="37.9706750" lon="-5.6195710">
        <ele>631.5</ele>
        <time>2022-05-22T09:36:35Z</time>
      </trkpt>
      <trkpt lat="37.9707050" lon="-5.6195900">
        <ele>631.4</ele>
        <time>2022-05-22T09:36:37Z</time>
      </trkpt>
      <trkpt lat="37.9707160" lon="-5.6195910">
        <ele>631.4</ele>
        <time>2022-05-22T09:36:38Z</time>
      </trkpt>
      <trkpt lat="37.9707300" lon="-5.6195900">
        <ele>631.4</ele>
        <time>2022-05-22T09:36:39Z</time>
      </trkpt>
      <trkpt lat="37.9707400" lon="-5.6195840">
        <ele>631.4</ele>
        <time>2022-05-22T09:36:40Z</time>
      </trkpt>
      <trkpt lat="37.9707470" lon="-5.6195730">
        <ele>631.4</ele>
        <time>2022-05-22T09:36:41Z</time>
      </trkpt>
      <trkpt lat="37.9707630" lon="-5.6195480">
        <ele>631.4</ele>
        <time>2022-05-22T09:36:43Z</time>
      </trkpt>
      <trkpt lat="37.9707700" lon="-5.6195390">
        <ele>631.3</ele>
        <time>2022-05-22T09:36:44Z</time>
      </trkpt>
      <trkpt lat="37.9707790" lon="-5.6195320">
        <ele>631.3</ele>
        <time>2022-05-22T09:36:45Z</time>
      </trkpt>
      <trkpt lat="37.9707880" lon="-5.6195280">
        <ele>631.3</ele>
        <time>2022-05-22T09:36:46Z</time>
      </trkpt>
      <trkpt lat="37.9708090" lon="-5.6195340">
        <ele>631.3</ele>
        <time>2022-05-22T09:36:47Z</time>
      </trkpt>
      <trkpt lat="37.9708190" lon="-5.6195390">
        <ele>631.3</ele>
        <time>2022-05-22T09:36:48Z</time>
      </trkpt>
      <trkpt lat="37.9708290" lon="-5.6195450">
        <ele>631.3</ele>
        <time>2022-05-22T09:36:49Z</time>
      </trkpt>
      <trkpt lat="37.9708390" lon="-5.6195500">
        <ele>631.3</ele>
        <time>2022-05-22T09:36:50Z</time>
      </trkpt>
      <trkpt lat="37.9708620" lon="-5.6195750">
        <ele>631.2</ele>
        <time>2022-05-22T09:36:52Z</time>
      </trkpt>
      <trkpt lat="37.9708820" lon="-5.6195980">
        <ele>631.2</ele>
        <time>2022-05-22T09:36:53Z</time>
      </trkpt>
      <trkpt lat="37.9708900" lon="-5.6196070">
        <ele>631.2</ele>
        <time>2022-05-22T09:36:54Z</time>
      </trkpt>
      <trkpt lat="37.9709010" lon="-5.6196190">
        <ele>631.2</ele>
        <time>2022-05-22T09:36:55Z</time>
      </trkpt>
      <trkpt lat="37.9709210" lon="-5.6196430">
        <ele>631.2</ele>
        <time>2022-05-22T09:36:57Z</time>
      </trkpt>
      <trkpt lat="37.9709320" lon="-5.6196540">
        <ele>631.2</ele>
        <time>2022-05-22T09:36:58Z</time>
      </trkpt>
      <trkpt lat="37.9709460" lon="-5.6196660">
        <ele>631.2</ele>
        <time>2022-05-22T09:36:59Z</time>
      </trkpt>
      <trkpt lat="37.9709620" lon="-5.6196800">
        <ele>631.1</ele>
        <time>2022-05-22T09:37:00Z</time>
      </trkpt>
      <trkpt lat="37.9709720" lon="-5.6196880">
        <ele>631.1</ele>
        <time>2022-05-22T09:37:01Z</time>
      </trkpt>
      <trkpt lat="37.9709910" lon="-5.6196990">
        <ele>631.1</ele>
        <time>2022-05-22T09:37:02Z</time>
      </trkpt>
      <trkpt lat="37.9709990" lon="-5.6197040">
        <ele>631.1</ele>
        <time>2022-05-22T09:37:03Z</time>
      </trkpt>
      <trkpt lat="37.9710060" lon="-5.6197090">
        <ele>631.1</ele>
        <time>2022-05-22T09:37:04Z</time>
      </trkpt>
      <trkpt lat="37.9710180" lon="-5.6197150">
        <ele>631.1</ele>
        <time>2022-05-22T09:37:05Z</time>
      </trkpt>
      <trkpt lat="37.9710360" lon="-5.6197230">
        <ele>631.1</ele>
        <time>2022-05-22T09:37:06Z</time>
      </trkpt>
      <trkpt lat="37.9710580" lon="-5.6197310">
        <ele>631.1</ele>
        <time>2022-05-22T09:37:07Z</time>
      </trkpt>
      <trkpt lat="37.9710670" lon="-5.6197340">
        <ele>631.1</ele>
        <time>2022-05-22T09:37:08Z</time>
      </trkpt>
      <trkpt lat="37.9710760" lon="-5.6197370">
        <ele>631.1</ele>
        <time>2022-05-22T09:37:09Z</time>
      </trkpt>
      <trkpt lat="37.9710890" lon="-5.6197400">
        <ele>631.1</ele>
        <time>2022-05-22T09:37:10Z</time>
      </trkpt>
      <trkpt lat="37.9711070" lon="-5.6197400">
        <ele>631.1</ele>
        <time>2022-05-22T09:37:11Z</time>
      </trkpt>
      <trkpt lat="37.9711170" lon="-5.6197430">
        <ele>631.1</ele>
        <time>2022-05-22T09:37:12Z</time>
      </trkpt>
      <trkpt lat="37.9711290" lon="-5.6197460">
        <ele>631.1</ele>
        <time>2022-05-22T09:37:13Z</time>
      </trkpt>
      <trkpt lat="37.9711410" lon="-5.6197510">
        <ele>631.1</ele>
        <time>2022-05-22T09:37:14Z</time>
      </trkpt>
      <trkpt lat="37.9711620" lon="-5.6197620">
        <ele>631.1</ele>
        <time>2022-05-22T09:37:15Z</time>
      </trkpt>
      <trkpt lat="37.9711700" lon="-5.6197660">
        <ele>631.1</ele>
        <time>2022-05-22T09:37:16Z</time>
      </trkpt>
      <trkpt lat="37.9711790" lon="-5.6197700">
        <ele>631.1</ele>
        <time>2022-05-22T09:37:17Z</time>
      </trkpt>
      <trkpt lat="37.9711890" lon="-5.6197740">
        <ele>631.1</ele>
        <time>2022-05-22T09:37:18Z</time>
      </trkpt>
      <trkpt lat="37.9711990" lon="-5.6197790">
        <ele>631.1</ele>
        <time>2022-05-22T09:37:19Z</time>
      </trkpt>
      <trkpt lat="37.9712080" lon="-5.6197860">
        <ele>631.1</ele>
        <time>2022-05-22T09:37:20Z</time>
      </trkpt>
      <trkpt lat="37.9712270" lon="-5.6198020">
        <ele>631.1</ele>
        <time>2022-05-22T09:37:21Z</time>
      </trkpt>
      <trkpt lat="37.9712370" lon="-5.6198110">
        <ele>631.1</ele>
        <time>2022-05-22T09:37:23Z</time>
      </trkpt>
      <trkpt lat="37.9712470" lon="-5.6198200">
        <ele>631.1</ele>
        <time>2022-05-22T09:37:24Z</time>
      </trkpt>
      <trkpt lat="37.9712570" lon="-5.6198300">
        <ele>631.1</ele>
        <time>2022-05-22T09:37:25Z</time>
      </trkpt>
      <trkpt lat="37.9712670" lon="-5.6198390">
        <ele>631.1</ele>
        <time>2022-05-22T09:37:26Z</time>
      </trkpt>
      <trkpt lat="37.9712780" lon="-5.6198480">
        <ele>631.1</ele>
        <time>2022-05-22T09:37:27Z</time>
      </trkpt>
      <trkpt lat="37.9712910" lon="-5.6198580">
        <ele>631.1</ele>
        <time>2022-05-22T09:37:28Z</time>
      </trkpt>
      <trkpt lat="37.9713110" lon="-5.6198720">
        <ele>631.1</ele>
        <time>2022-05-22T09:37:29Z</time>
      </trkpt>
      <trkpt lat="37.9713190" lon="-5.6198770">
        <ele>631.1</ele>
        <time>2022-05-22T09:37:30Z</time>
      </trkpt>
      <trkpt lat="37.9713270" lon="-5.6198830">
        <ele>631.1</ele>
        <time>2022-05-22T09:37:31Z</time>
      </trkpt>
      <trkpt lat="37.9713470" lon="-5.6198910">
        <ele>631.1</ele>
        <time>2022-05-22T09:37:32Z</time>
      </trkpt>
      <trkpt lat="37.9713560" lon="-5.6198940">
        <ele>631.1</ele>
        <time>2022-05-22T09:37:33Z</time>
      </trkpt>
      <trkpt lat="37.9713660" lon="-5.6198970">
        <ele>631.1</ele>
        <time>2022-05-22T09:37:34Z</time>
      </trkpt>
      <trkpt lat="37.9713760" lon="-5.6198900">
        <ele>631.0</ele>
        <time>2022-05-22T09:37:35Z</time>
      </trkpt>
      <trkpt lat="37.9713860" lon="-5.6198890">
        <ele>631.0</ele>
        <time>2022-05-22T09:37:36Z</time>
      </trkpt>
      <trkpt lat="37.9713970" lon="-5.6198890">
        <ele>631.0</ele>
        <time>2022-05-22T09:37:37Z</time>
      </trkpt>
      <trkpt lat="37.9714080" lon="-5.6198900">
        <ele>631.0</ele>
        <time>2022-05-22T09:37:38Z</time>
      </trkpt>
      <trkpt lat="37.9714320" lon="-5.6199020">
        <ele>631.0</ele>
        <time>2022-05-22T09:37:40Z</time>
      </trkpt>
      <trkpt lat="37.9714430" lon="-5.6199090">
        <ele>631.0</ele>
        <time>2022-05-22T09:37:41Z</time>
      </trkpt>
      <trkpt lat="37.9714520" lon="-5.6199160">
        <ele>631.0</ele>
        <time>2022-05-22T09:37:42Z</time>
      </trkpt>
      <trkpt lat="37.9714610" lon="-5.6199250">
        <ele>631.0</ele>
        <time>2022-05-22T09:37:43Z</time>
      </trkpt>
      <trkpt lat="37.9714710" lon="-5.6199350">
        <ele>631.0</ele>
        <time>2022-05-22T09:37:44Z</time>
      </trkpt>
      <trkpt lat="37.9714900" lon="-5.6199540">
        <ele>630.9</ele>
        <time>2022-05-22T09:37:46Z</time>
      </trkpt>
      <trkpt lat="37.9715060" lon="-5.6199700">
        <ele>630.9</ele>
        <time>2022-05-22T09:37:47Z</time>
      </trkpt>
      <trkpt lat="37.9715130" lon="-5.6199770">
        <ele>630.9</ele>
        <time>2022-05-22T09:37:48Z</time>
      </trkpt>
      <trkpt lat="37.9715200" lon="-5.6199830">
        <ele>630.9</ele>
        <time>2022-05-22T09:37:49Z</time>
      </trkpt>
      <trkpt lat="37.9715290" lon="-5.6199930">
        <ele>630.9</ele>
        <time>2022-05-22T09:37:50Z</time>
      </trkpt>
      <trkpt lat="37.9715420" lon="-5.6200060">
        <ele>630.9</ele>
        <time>2022-05-22T09:37:51Z</time>
      </trkpt>
      <trkpt lat="37.9715510" lon="-5.6200140">
        <ele>630.9</ele>
        <time>2022-05-22T09:37:52Z</time>
      </trkpt>
      <trkpt lat="37.9715630" lon="-5.6200230">
        <ele>630.9</ele>
        <time>2022-05-22T09:37:53Z</time>
      </trkpt>
      <trkpt lat="37.9715840" lon="-5.6200350">
        <ele>630.8</ele>
        <time>2022-05-22T09:37:55Z</time>
      </trkpt>
      <trkpt lat="37.9715960" lon="-5.6200410">
        <ele>630.8</ele>
        <time>2022-05-22T09:37:56Z</time>
      </trkpt>
      <trkpt lat="37.9716110" lon="-5.6200480">
        <ele>630.8</ele>
        <time>2022-05-22T09:37:57Z</time>
      </trkpt>
      <trkpt lat="37.9716220" lon="-5.6200530">
        <ele>630.8</ele>
        <time>2022-05-22T09:37:58Z</time>
      </trkpt>
      <trkpt lat="37.9716320" lon="-5.6200570">
        <ele>630.8</ele>
        <time>2022-05-22T09:37:59Z</time>
      </trkpt>
      <trkpt lat="37.9716430" lon="-5.6200650">
        <ele>630.8</ele>
        <time>2022-05-22T09:38:00Z</time>
      </trkpt>
      <trkpt lat="37.9716600" lon="-5.6200750">
        <ele>630.8</ele>
        <time>2022-05-22T09:38:01Z</time>
      </trkpt>
      <trkpt lat="37.9716680" lon="-5.6200790">
        <ele>630.8</ele>
        <time>2022-05-22T09:38:02Z</time>
      </trkpt>
      <trkpt lat="37.9716760" lon="-5.6200840">
        <ele>630.7</ele>
        <time>2022-05-22T09:38:03Z</time>
      </trkpt>
      <trkpt lat="37.9716960" lon="-5.6200930">
        <ele>630.7</ele>
        <time>2022-05-22T09:38:05Z</time>
      </trkpt>
      <trkpt lat="37.9717070" lon="-5.6200990">
        <ele>630.7</ele>
        <time>2022-05-22T09:38:06Z</time>
      </trkpt>
      <trkpt lat="37.9717280" lon="-5.6201070">
        <ele>630.7</ele>
        <time>2022-05-22T09:38:07Z</time>
      </trkpt>
      <trkpt lat="37.9717360" lon="-5.6201110">
        <ele>630.7</ele>
        <time>2022-05-22T09:38:08Z</time>
      </trkpt>
      <trkpt lat="37.9717430" lon="-5.6201140">
        <ele>630.7</ele>
        <time>2022-05-22T09:38:09Z</time>
      </trkpt>
      <trkpt lat="37.9717610" lon="-5.6201210">
        <ele>630.7</ele>
        <time>2022-05-22T09:38:11Z</time>
      </trkpt>
      <trkpt lat="37.9717730" lon="-5.6201240">
        <ele>630.6</ele>
        <time>2022-05-22T09:38:12Z</time>
      </trkpt>
      <trkpt lat="37.9717850" lon="-5.6201270">
        <ele>630.6</ele>
        <time>2022-05-22T09:38:13Z</time>
      </trkpt>
      <trkpt lat="37.9717960" lon="-5.6201290">
        <ele>630.6</ele>
        <time>2022-05-22T09:38:14Z</time>
      </trkpt>
      <trkpt lat="37.9718070" lon="-5.6201310">
        <ele>630.6</ele>
        <time>2022-05-22T09:38:15Z</time>
      </trkpt>
      <trkpt lat="37.9718210" lon="-5.6201290">
        <ele>630.6</ele>
        <time>2022-05-22T09:38:16Z</time>
      </trkpt>
      <trkpt lat="37.9718360" lon="-5.6201280">
        <ele>630.6</ele>
        <time>2022-05-22T09:38:17Z</time>
      </trkpt>
      <trkpt lat="37.9718490" lon="-5.6201270">
        <ele>630.6</ele>
        <time>2022-05-22T09:38:18Z</time>
      </trkpt>
      <trkpt lat="37.9718630" lon="-5.6201250">
        <ele>630.6</ele>
        <time>2022-05-22T09:38:19Z</time>
      </trkpt>
      <trkpt lat="37.9718840" lon="-5.6201270">
        <ele>630.6</ele>
        <time>2022-05-22T09:38:21Z</time>
      </trkpt>
      <trkpt lat="37.9719050" lon="-5.6201310">
        <ele>630.5</ele>
        <time>2022-05-22T09:38:22Z</time>
      </trkpt>
      <trkpt lat="37.9719130" lon="-5.6201330">
        <ele>630.5</ele>
        <time>2022-05-22T09:38:23Z</time>
      </trkpt>
      <trkpt lat="37.9719200" lon="-5.6201350">
        <ele>630.5</ele>
        <time>2022-05-22T09:38:24Z</time>
      </trkpt>
      <trkpt lat="37.9719400" lon="-5.6201410">
        <ele>630.5</ele>
        <time>2022-05-22T09:38:25Z</time>
      </trkpt>
      <trkpt lat="37.9719490" lon="-5.6201430">
        <ele>630.5</ele>
        <time>2022-05-22T09:38:26Z</time>
      </trkpt>
      <trkpt lat="37.9719580" lon="-5.6201450">
        <ele>630.5</ele>
        <time>2022-05-22T09:38:27Z</time>
      </trkpt>
      <trkpt lat="37.9719690" lon="-5.6201460">
        <ele>630.5</ele>
        <time>2022-05-22T09:38:28Z</time>
      </trkpt>
      <trkpt lat="37.9719800" lon="-5.6201480">
        <ele>630.5</ele>
        <time>2022-05-22T09:38:29Z</time>
      </trkpt>
      <trkpt lat="37.9719900" lon="-5.6201540">
        <ele>630.5</ele>
        <time>2022-05-22T09:38:30Z</time>
      </trkpt>
      <trkpt lat="37.9720080" lon="-5.6201660">
        <ele>630.5</ele>
        <time>2022-05-22T09:38:32Z</time>
      </trkpt>
      <trkpt lat="37.9720160" lon="-5.6201720">
        <ele>630.5</ele>
        <time>2022-05-22T09:38:33Z</time>
      </trkpt>
      <trkpt lat="37.9720250" lon="-5.6201790">
        <ele>630.5</ele>
        <time>2022-05-22T09:38:34Z</time>
      </trkpt>
      <trkpt lat="37.9720340" lon="-5.6201860">
        <ele>630.4</ele>
        <time>2022-05-22T09:38:35Z</time>
      </trkpt>
      <trkpt lat="37.9720430" lon="-5.6201940">
        <ele>630.4</ele>
        <time>2022-05-22T09:38:36Z</time>
      </trkpt>
      <trkpt lat="37.9720620" lon="-5.6202080">
        <ele>630.4</ele>
        <time>2022-05-22T09:38:37Z</time>
      </trkpt>
      <trkpt lat="37.9720700" lon="-5.6202130">
        <ele>630.4</ele>
        <time>2022-05-22T09:38:38Z</time>
      </trkpt>
      <trkpt lat="37.9720770" lon="-5.6202170">
        <ele>630.4</ele>
        <time>2022-05-22T09:38:39Z</time>
      </trkpt>
      <trkpt lat="37.9720950" lon="-5.6202260">
        <ele>630.4</ele>
        <time>2022-05-22T09:38:40Z</time>
      </trkpt>
      <trkpt lat="37.9721160" lon="-5.6202340">
        <ele>630.4</ele>
        <time>2022-05-22T09:38:42Z</time>
      </trkpt>
      <trkpt lat="37.9721370" lon="-5.6202400">
        <ele>630.4</ele>
        <time>2022-05-22T09:38:43Z</time>
      </trkpt>
      <trkpt lat="37.9721500" lon="-5.6202440">
        <ele>630.3</ele>
        <time>2022-05-22T09:38:44Z</time>
      </trkpt>
      <trkpt lat="37.9721780" lon="-5.6202500">
        <ele>630.3</ele>
        <time>2022-05-22T09:38:45Z</time>
      </trkpt>
      <trkpt lat="37.9721890" lon="-5.6202510">
        <ele>630.3</ele>
        <time>2022-05-22T09:38:46Z</time>
      </trkpt>
      <trkpt lat="37.9722170" lon="-5.6202530">
        <ele>630.3</ele>
        <time>2022-05-22T09:38:47Z</time>
      </trkpt>
      <trkpt lat="37.9722270" lon="-5.6202540">
        <ele>630.3</ele>
        <time>2022-05-22T09:38:48Z</time>
      </trkpt>
      <trkpt lat="37.9722420" lon="-5.6202550">
        <ele>630.3</ele>
        <time>2022-05-22T09:38:49Z</time>
      </trkpt>
      <trkpt lat="37.9722570" lon="-5.6202570">
        <ele>630.3</ele>
        <time>2022-05-22T09:38:50Z</time>
      </trkpt>
      <trkpt lat="37.9722710" lon="-5.6202600">
        <ele>630.2</ele>
        <time>2022-05-22T09:38:51Z</time>
      </trkpt>
      <trkpt lat="37.9722850" lon="-5.6202650">
        <ele>630.2</ele>
        <time>2022-05-22T09:38:52Z</time>
      </trkpt>
      <trkpt lat="37.9723140" lon="-5.6202770">
        <ele>630.2</ele>
        <time>2022-05-22T09:38:54Z</time>
      </trkpt>
      <trkpt lat="37.9723270" lon="-5.6202800">
        <ele>630.2</ele>
        <time>2022-05-22T09:38:55Z</time>
      </trkpt>
      <trkpt lat="37.9723410" lon="-5.6202830">
        <ele>630.2</ele>
        <time>2022-05-22T09:38:56Z</time>
      </trkpt>
      <trkpt lat="37.9723550" lon="-5.6202850">
        <ele>630.2</ele>
        <time>2022-05-22T09:38:57Z</time>
      </trkpt>
      <trkpt lat="37.9723690" lon="-5.6202870">
        <ele>630.2</ele>
        <time>2022-05-22T09:38:58Z</time>
      </trkpt>
      <trkpt lat="37.9723840" lon="-5.6202900">
        <ele>630.1</ele>
        <time>2022-05-22T09:38:59Z</time>
      </trkpt>
      <trkpt lat="37.9723960" lon="-5.6202920">
        <ele>630.1</ele>
        <time>2022-05-22T09:39:00Z</time>
      </trkpt>
      <trkpt lat="37.9724170" lon="-5.6203000">
        <ele>630.1</ele>
        <time>2022-05-22T09:39:01Z</time>
      </trkpt>
      <trkpt lat="37.9724250" lon="-5.6203030">
        <ele>630.1</ele>
        <time>2022-05-22T09:39:02Z</time>
      </trkpt>
      <trkpt lat="37.9724340" lon="-5.6203070">
        <ele>630.1</ele>
        <time>2022-05-22T09:39:03Z</time>
      </trkpt>
      <trkpt lat="37.9724540" lon="-5.6203130">
        <ele>630.1</ele>
        <time>2022-05-22T09:39:04Z</time>
      </trkpt>
      <trkpt lat="37.9724620" lon="-5.6203150">
        <ele>630.1</ele>
        <time>2022-05-22T09:39:05Z</time>
      </trkpt>
      <trkpt lat="37.9724710" lon="-5.6203180">
        <ele>630.1</ele>
        <time>2022-05-22T09:39:06Z</time>
      </trkpt>
      <trkpt lat="37.9724830" lon="-5.6203220">
        <ele>630.1</ele>
        <time>2022-05-22T09:39:07Z</time>
      </trkpt>
      <trkpt lat="37.9724940" lon="-5.6203260">
        <ele>630.0</ele>
        <time>2022-05-22T09:39:08Z</time>
      </trkpt>
      <trkpt lat="37.9725050" lon="-5.6203300">
        <ele>630.0</ele>
        <time>2022-05-22T09:39:09Z</time>
      </trkpt>
      <trkpt lat="37.9725160" lon="-5.6203380">
        <ele>630.0</ele>
        <time>2022-05-22T09:39:10Z</time>
      </trkpt>
      <trkpt lat="37.9725320" lon="-5.6203480">
        <ele>630.0</ele>
        <time>2022-05-22T09:39:11Z</time>
      </trkpt>
      <trkpt lat="37.9725420" lon="-5.6203550">
        <ele>630.0</ele>
        <time>2022-05-22T09:39:12Z</time>
      </trkpt>
      <trkpt lat="37.9725520" lon="-5.6203630">
        <ele>630.0</ele>
        <time>2022-05-22T09:39:13Z</time>
      </trkpt>
      <trkpt lat="37.9725620" lon="-5.6203720">
        <ele>630.0</ele>
        <time>2022-05-22T09:39:14Z</time>
      </trkpt>
      <trkpt lat="37.9725790" lon="-5.6203870">
        <ele>630.0</ele>
        <time>2022-05-22T09:39:15Z</time>
      </trkpt>
      <trkpt lat="37.9725860" lon="-5.6203930">
        <ele>630.0</ele>
        <time>2022-05-22T09:39:16Z</time>
      </trkpt>
      <trkpt lat="37.9725920" lon="-5.6203990">
        <ele>630.0</ele>
        <time>2022-05-22T09:39:17Z</time>
      </trkpt>
      <trkpt lat="37.9726020" lon="-5.6204060">
        <ele>630.0</ele>
        <time>2022-05-22T09:39:18Z</time>
      </trkpt>
      <trkpt lat="37.9726120" lon="-5.6204120">
        <ele>630.0</ele>
        <time>2022-05-22T09:39:19Z</time>
      </trkpt>
      <trkpt lat="37.9726230" lon="-5.6204180">
        <ele>629.9</ele>
        <time>2022-05-22T09:39:20Z</time>
      </trkpt>
      <trkpt lat="37.9726340" lon="-5.6204250">
        <ele>629.9</ele>
        <time>2022-05-22T09:39:21Z</time>
      </trkpt>
      <trkpt lat="37.9726550" lon="-5.6204400">
        <ele>629.9</ele>
        <time>2022-05-22T09:39:23Z</time>
      </trkpt>
      <trkpt lat="37.9726660" lon="-5.6204480">
        <ele>629.9</ele>
        <time>2022-05-22T09:39:24Z</time>
      </trkpt>
      <trkpt lat="37.9726760" lon="-5.6204560">
        <ele>629.9</ele>
        <time>2022-05-22T09:39:25Z</time>
      </trkpt>
      <trkpt lat="37.9726850" lon="-5.6204630">
        <ele>629.9</ele>
        <time>2022-05-22T09:39:26Z</time>
      </trkpt>
      <trkpt lat="37.9727000" lon="-5.6204800">
        <ele>629.9</ele>
        <time>2022-05-22T09:39:27Z</time>
      </trkpt>
      <trkpt lat="37.9727060" lon="-5.6204870">
        <ele>629.9</ele>
        <time>2022-05-22T09:39:28Z</time>
      </trkpt>
      <trkpt lat="37.9727120" lon="-5.6204940">
        <ele>629.9</ele>
        <time>2022-05-22T09:39:29Z</time>
      </trkpt>
      <trkpt lat="37.9727200" lon="-5.6205030">
        <ele>629.9</ele>
        <time>2022-05-22T09:39:30Z</time>
      </trkpt>
      <trkpt lat="37.9727280" lon="-5.6205120">
        <ele>629.9</ele>
        <time>2022-05-22T09:39:31Z</time>
      </trkpt>
      <trkpt lat="37.9727360" lon="-5.6205210">
        <ele>629.9</ele>
        <time>2022-05-22T09:39:32Z</time>
      </trkpt>
      <trkpt lat="37.9727530" lon="-5.6205420">
        <ele>629.8</ele>
        <time>2022-05-22T09:39:34Z</time>
      </trkpt>
      <trkpt lat="37.9727620" lon="-5.6205510">
        <ele>629.8</ele>
        <time>2022-05-22T09:39:35Z</time>
      </trkpt>
      <trkpt lat="37.9727700" lon="-5.6205590">
        <ele>629.8</ele>
        <time>2022-05-22T09:39:36Z</time>
      </trkpt>
      <trkpt lat="37.9727790" lon="-5.6205680">
        <ele>629.8</ele>
        <time>2022-05-22T09:39:37Z</time>
      </trkpt>
      <trkpt lat="37.9727890" lon="-5.6205750">
        <ele>629.8</ele>
        <time>2022-05-22T09:39:38Z</time>
      </trkpt>
      <trkpt lat="37.9728140" lon="-5.6205910">
        <ele>629.8</ele>
        <time>2022-05-22T09:39:40Z</time>
      </trkpt>
      <trkpt lat="37.9728220" lon="-5.6205960">
        <ele>629.7</ele>
        <time>2022-05-22T09:39:41Z</time>
      </trkpt>
      <trkpt lat="37.9728350" lon="-5.6205970">
        <ele>629.7</ele>
        <time>2022-05-22T09:39:42Z</time>
      </trkpt>
      <trkpt lat="37.9728470" lon="-5.6206020">
        <ele>629.7</ele>
        <time>2022-05-22T09:39:43Z</time>
      </trkpt>
      <trkpt lat="37.9728770" lon="-5.6206070">
        <ele>629.7</ele>
        <time>2022-05-22T09:39:45Z</time>
      </trkpt>
      <trkpt lat="37.9728870" lon="-5.6206110">
        <ele>629.7</ele>
        <time>2022-05-22T09:39:46Z</time>
      </trkpt>
      <trkpt lat="37.9728990" lon="-5.6206140">
        <ele>629.7</ele>
        <time>2022-05-22T09:39:47Z</time>
      </trkpt>
      <trkpt lat="37.9729290" lon="-5.6206220">
        <ele>629.6</ele>
        <time>2022-05-22T09:39:49Z</time>
      </trkpt>
      <trkpt lat="37.9729360" lon="-5.6206230">
        <ele>629.6</ele>
        <time>2022-05-22T09:39:50Z</time>
      </trkpt>
      <trkpt lat="37.9729580" lon="-5.6206240">
        <ele>629.6</ele>
        <time>2022-05-22T09:39:51Z</time>
      </trkpt>
      <trkpt lat="37.9729670" lon="-5.6206240">
        <ele>629.6</ele>
        <time>2022-05-22T09:39:53Z</time>
      </trkpt>
      <trkpt lat="37.9729760" lon="-5.6206240">
        <ele>629.6</ele>
        <time>2022-05-22T09:39:54Z</time>
      </trkpt>
      <trkpt lat="37.9729850" lon="-5.6206240">
        <ele>629.6</ele>
        <time>2022-05-22T09:39:55Z</time>
      </trkpt>
      <trkpt lat="37.9729940" lon="-5.6206230">
        <ele>629.6</ele>
        <time>2022-05-22T09:39:56Z</time>
      </trkpt>
      <trkpt lat="37.9730030" lon="-5.6206230">
        <ele>629.6</ele>
        <time>2022-05-22T09:39:57Z</time>
      </trkpt>
      <trkpt lat="37.9730110" lon="-5.6206220">
        <ele>629.5</ele>
        <time>2022-05-22T09:39:58Z</time>
      </trkpt>
      <trkpt lat="37.9730190" lon="-5.6206220">
        <ele>629.5</ele>
        <time>2022-05-22T09:39:59Z</time>
      </trkpt>
      <trkpt lat="37.9730280" lon="-5.6206240">
        <ele>629.5</ele>
        <time>2022-05-22T09:40:00Z</time>
      </trkpt>
      <trkpt lat="37.9730390" lon="-5.6206270">
        <ele>629.5</ele>
        <time>2022-05-22T09:40:01Z</time>
      </trkpt>
      <trkpt lat="37.9730530" lon="-5.6206280">
        <ele>629.5</ele>
        <time>2022-05-22T09:40:02Z</time>
      </trkpt>
      <trkpt lat="37.9730620" lon="-5.6206270">
        <ele>629.5</ele>
        <time>2022-05-22T09:40:03Z</time>
      </trkpt>
      <trkpt lat="37.9730730" lon="-5.6206260">
        <ele>629.5</ele>
        <time>2022-05-22T09:40:04Z</time>
      </trkpt>
      <trkpt lat="37.9730850" lon="-5.6206270">
        <ele>629.5</ele>
        <time>2022-05-22T09:40:05Z</time>
      </trkpt>
      <trkpt lat="37.9731020" lon="-5.6206310">
        <ele>629.4</ele>
        <time>2022-05-22T09:40:07Z</time>
      </trkpt>
      <trkpt lat="37.9731160" lon="-5.6206340">
        <ele>629.4</ele>
        <time>2022-05-22T09:40:08Z</time>
      </trkpt>
      <trkpt lat="37.9731330" lon="-5.6206400">
        <ele>629.4</ele>
        <time>2022-05-22T09:40:09Z</time>
      </trkpt>
      <trkpt lat="37.9731460" lon="-5.6206480">
        <ele>629.4</ele>
        <time>2022-05-22T09:40:10Z</time>
      </trkpt>
      <trkpt lat="37.9731670" lon="-5.6206670">
        <ele>629.4</ele>
        <time>2022-05-22T09:40:12Z</time>
      </trkpt>
      <trkpt lat="37.9731770" lon="-5.6206790">
        <ele>629.4</ele>
        <time>2022-05-22T09:40:13Z</time>
      </trkpt>
      <trkpt lat="37.9731880" lon="-5.6206910">
        <ele>629.3</ele>
        <time>2022-05-22T09:40:14Z</time>
      </trkpt>
      <trkpt lat="37.9731970" lon="-5.6207030">
        <ele>629.3</ele>
        <time>2022-05-22T09:40:15Z</time>
      </trkpt>
      <trkpt lat="37.9732080" lon="-5.6207140">
        <ele>629.3</ele>
        <time>2022-05-22T09:40:16Z</time>
      </trkpt>
      <trkpt lat="37.9732190" lon="-5.6207250">
        <ele>629.3</ele>
        <time>2022-05-22T09:40:17Z</time>
      </trkpt>
      <trkpt lat="37.9732270" lon="-5.6207330">
        <ele>629.3</ele>
        <time>2022-05-22T09:40:18Z</time>
      </trkpt>
      <trkpt lat="37.9732370" lon="-5.6207410">
        <ele>629.3</ele>
        <time>2022-05-22T09:40:19Z</time>
      </trkpt>
      <trkpt lat="37.9732470" lon="-5.6207500">
        <ele>629.3</ele>
        <time>2022-05-22T09:40:20Z</time>
      </trkpt>
      <trkpt lat="37.9732650" lon="-5.6207620">
        <ele>629.3</ele>
        <time>2022-05-22T09:40:21Z</time>
      </trkpt>
      <trkpt lat="37.9732840" lon="-5.6207730">
        <ele>629.2</ele>
        <time>2022-05-22T09:40:22Z</time>
      </trkpt>
      <trkpt lat="37.9732930" lon="-5.6207780">
        <ele>629.2</ele>
        <time>2022-05-22T09:40:23Z</time>
      </trkpt>
      <trkpt lat="37.9733010" lon="-5.6207830">
        <ele>629.2</ele>
        <time>2022-05-22T09:40:24Z</time>
      </trkpt>
      <trkpt lat="37.9733170" lon="-5.6207920">
        <ele>629.2</ele>
        <time>2022-05-22T09:40:25Z</time>
      </trkpt>
      <trkpt lat="37.9733300" lon="-5.6207980">
        <ele>629.2</ele>
        <time>2022-05-22T09:40:26Z</time>
      </trkpt>
      <trkpt lat="37.9733500" lon="-5.6208080">
        <ele>629.2</ele>
        <time>2022-05-22T09:40:27Z</time>
      </trkpt>
      <trkpt lat="37.9733590" lon="-5.6208130">
        <ele>629.2</ele>
        <time>2022-05-22T09:40:28Z</time>
      </trkpt>
      <trkpt lat="37.9733670" lon="-5.6208180">
        <ele>629.2</ele>
        <time>2022-05-22T09:40:29Z</time>
      </trkpt>
      <trkpt lat="37.9733800" lon="-5.6208240">
        <ele>629.2</ele>
        <time>2022-05-22T09:40:30Z</time>
      </trkpt>
      <trkpt lat="37.9733930" lon="-5.6208310">
        <ele>629.1</ele>
        <time>2022-05-22T09:40:31Z</time>
      </trkpt>
      <trkpt lat="37.9734050" lon="-5.6208360">
        <ele>629.1</ele>
        <time>2022-05-22T09:40:32Z</time>
      </trkpt>
      <trkpt lat="37.9734190" lon="-5.6208410">
        <ele>629.1</ele>
        <time>2022-05-22T09:40:33Z</time>
      </trkpt>
      <trkpt lat="37.9734340" lon="-5.6208470">
        <ele>629.1</ele>
        <time>2022-05-22T09:40:34Z</time>
      </trkpt>
      <trkpt lat="37.9734480" lon="-5.6208520">
        <ele>629.1</ele>
        <time>2022-05-22T09:40:35Z</time>
      </trkpt>
      <trkpt lat="37.9734660" lon="-5.6208580">
        <ele>629.1</ele>
        <time>2022-05-22T09:40:36Z</time>
      </trkpt>
      <trkpt lat="37.9734760" lon="-5.6208610">
        <ele>629.1</ele>
        <time>2022-05-22T09:40:37Z</time>
      </trkpt>
      <trkpt lat="37.9734890" lon="-5.6208650">
        <ele>629.1</ele>
        <time>2022-05-22T09:40:38Z</time>
      </trkpt>
      <trkpt lat="37.9735030" lon="-5.6208700">
        <ele>629.0</ele>
        <time>2022-05-22T09:40:39Z</time>
      </trkpt>
      <trkpt lat="37.9735160" lon="-5.6208750">
        <ele>629.0</ele>
        <time>2022-05-22T09:40:40Z</time>
      </trkpt>
      <trkpt lat="37.9735300" lon="-5.6208800">
        <ele>629.0</ele>
        <time>2022-05-22T09:40:41Z</time>
      </trkpt>
      <trkpt lat="37.9735600" lon="-5.6208900">
        <ele>629.0</ele>
        <time>2022-05-22T09:40:43Z</time>
      </trkpt>
      <trkpt lat="37.9735710" lon="-5.6208940">
        <ele>629.0</ele>
        <time>2022-05-22T09:40:44Z</time>
      </trkpt>
      <trkpt lat="37.9735920" lon="-5.6209020">
        <ele>629.0</ele>
        <time>2022-05-22T09:40:45Z</time>
      </trkpt>
      <trkpt lat="37.9736000" lon="-5.6209050">
        <ele>629.0</ele>
        <time>2022-05-22T09:40:46Z</time>
      </trkpt>
      <trkpt lat="37.9736080" lon="-5.6209080">
        <ele>629.0</ele>
        <time>2022-05-22T09:40:47Z</time>
      </trkpt>
      <trkpt lat="37.9736260" lon="-5.6209140">
        <ele>628.9</ele>
        <time>2022-05-22T09:40:48Z</time>
      </trkpt>
      <trkpt lat="37.9736360" lon="-5.6209170">
        <ele>628.9</ele>
        <time>2022-05-22T09:40:49Z</time>
      </trkpt>
      <trkpt lat="37.9736560" lon="-5.6209240">
        <ele>628.9</ele>
        <time>2022-05-22T09:40:50Z</time>
      </trkpt>
      <trkpt lat="37.9736640" lon="-5.6209270">
        <ele>628.9</ele>
        <time>2022-05-22T09:40:51Z</time>
      </trkpt>
      <trkpt lat="37.9736720" lon="-5.6209300">
        <ele>628.9</ele>
        <time>2022-05-22T09:40:52Z</time>
      </trkpt>
      <trkpt lat="37.9736840" lon="-5.6209340">
        <ele>628.9</ele>
        <time>2022-05-22T09:40:53Z</time>
      </trkpt>
      <trkpt lat="37.9737000" lon="-5.6209410">
        <ele>628.9</ele>
        <time>2022-05-22T09:40:54Z</time>
      </trkpt>
      <trkpt lat="37.9737110" lon="-5.6209450">
        <ele>628.8</ele>
        <time>2022-05-22T09:40:55Z</time>
      </trkpt>
      <trkpt lat="37.9737190" lon="-5.6209490">
        <ele>628.8</ele>
        <time>2022-05-22T09:40:56Z</time>
      </trkpt>
      <trkpt lat="37.9737290" lon="-5.6209540">
        <ele>628.8</ele>
        <time>2022-05-22T09:40:57Z</time>
      </trkpt>
      <trkpt lat="37.9737400" lon="-5.6209590">
        <ele>628.8</ele>
        <time>2022-05-22T09:40:58Z</time>
      </trkpt>
      <trkpt lat="37.9737500" lon="-5.6209640">
        <ele>628.8</ele>
        <time>2022-05-22T09:40:59Z</time>
      </trkpt>
      <trkpt lat="37.9737620" lon="-5.6209700">
        <ele>628.8</ele>
        <time>2022-05-22T09:41:00Z</time>
      </trkpt>
      <trkpt lat="37.9737710" lon="-5.6209750">
        <ele>628.8</ele>
        <time>2022-05-22T09:41:01Z</time>
      </trkpt>
      <trkpt lat="37.9737820" lon="-5.6209810">
        <ele>628.7</ele>
        <time>2022-05-22T09:41:02Z</time>
      </trkpt>
      <trkpt lat="37.9737920" lon="-5.6209860">
        <ele>628.7</ele>
        <time>2022-05-22T09:41:03Z</time>
      </trkpt>
      <trkpt lat="37.9738050" lon="-5.6209940">
        <ele>628.7</ele>
        <time>2022-05-22T09:41:04Z</time>
      </trkpt>
      <trkpt lat="37.9738150" lon="-5.6210000">
        <ele>628.7</ele>
        <time>2022-05-22T09:41:05Z</time>
      </trkpt>
      <trkpt lat="37.9738230" lon="-5.6210060">
        <ele>628.7</ele>
        <time>2022-05-22T09:41:06Z</time>
      </trkpt>
      <trkpt lat="37.9738380" lon="-5.6210150">
        <ele>628.7</ele>
        <time>2022-05-22T09:41:08Z</time>
      </trkpt>
      <trkpt lat="37.9738460" lon="-5.6210200">
        <ele>628.7</ele>
        <time>2022-05-22T09:41:09Z</time>
      </trkpt>
      <trkpt lat="37.9738560" lon="-5.6210260">
        <ele>628.7</ele>
        <time>2022-05-22T09:41:10Z</time>
      </trkpt>
      <trkpt lat="37.9738720" lon="-5.6210310">
        <ele>628.6</ele>
        <time>2022-05-22T09:41:11Z</time>
      </trkpt>
      <trkpt lat="37.9738800" lon="-5.6210340">
        <ele>628.6</ele>
        <time>2022-05-22T09:41:12Z</time>
      </trkpt>
      <trkpt lat="37.9738900" lon="-5.6210430">
        <ele>628.6</ele>
        <time>2022-05-22T09:41:14Z</time>
      </trkpt>
      <trkpt lat="37.9739050" lon="-5.6210560">
        <ele>628.6</ele>
        <time>2022-05-22T09:41:15Z</time>
      </trkpt>
      <trkpt lat="37.9739130" lon="-5.6210630">
        <ele>628.6</ele>
        <time>2022-05-22T09:41:16Z</time>
      </trkpt>
      <trkpt lat="37.9739210" lon="-5.6210700">
        <ele>628.6</ele>
        <time>2022-05-22T09:41:17Z</time>
      </trkpt>
      <trkpt lat="37.9739300" lon="-5.6210770">
        <ele>628.5</ele>
        <time>2022-05-22T09:41:18Z</time>
      </trkpt>
      <trkpt lat="37.9739390" lon="-5.6210830">
        <ele>628.5</ele>
        <time>2022-05-22T09:41:19Z</time>
      </trkpt>
      <trkpt lat="37.9739500" lon="-5.6210900">
        <ele>628.5</ele>
        <time>2022-05-22T09:41:20Z</time>
      </trkpt>
      <trkpt lat="37.9739610" lon="-5.6210980">
        <ele>628.5</ele>
        <time>2022-05-22T09:41:21Z</time>
      </trkpt>
      <trkpt lat="37.9739760" lon="-5.6211070">
        <ele>628.5</ele>
        <time>2022-05-22T09:41:22Z</time>
      </trkpt>
      <trkpt lat="37.9739920" lon="-5.6211130">
        <ele>628.5</ele>
        <time>2022-05-22T09:41:23Z</time>
      </trkpt>
      <trkpt lat="37.9740000" lon="-5.6211130">
        <ele>628.5</ele>
        <time>2022-05-22T09:41:24Z</time>
      </trkpt>
      <trkpt lat="37.9740150" lon="-5.6211100">
        <ele>628.5</ele>
        <time>2022-05-22T09:41:26Z</time>
      </trkpt>
      <trkpt lat="37.9740220" lon="-5.6211080">
        <ele>628.5</ele>
        <time>2022-05-22T09:41:27Z</time>
      </trkpt>
      <trkpt lat="37.9740300" lon="-5.6211080">
        <ele>628.4</ele>
        <time>2022-05-22T09:41:28Z</time>
      </trkpt>
      <trkpt lat="37.9740390" lon="-5.6211080">
        <ele>628.4</ele>
        <time>2022-05-22T09:41:29Z</time>
      </trkpt>
      <trkpt lat="37.9740500" lon="-5.6211100">
        <ele>628.4</ele>
        <time>2022-05-22T09:41:30Z</time>
      </trkpt>
      <trkpt lat="37.9740720" lon="-5.6211180">
        <ele>628.4</ele>
        <time>2022-05-22T09:41:31Z</time>
      </trkpt>
      <trkpt lat="37.9740810" lon="-5.6211190">
        <ele>628.4</ele>
        <time>2022-05-22T09:41:32Z</time>
      </trkpt>
      <trkpt lat="37.9740890" lon="-5.6211210">
        <ele>628.4</ele>
        <time>2022-05-22T09:41:33Z</time>
      </trkpt>
      <trkpt lat="37.9741000" lon="-5.6211210">
        <ele>628.4</ele>
        <time>2022-05-22T09:41:34Z</time>
      </trkpt>
      <trkpt lat="37.9741130" lon="-5.6211230">
        <ele>628.4</ele>
        <time>2022-05-22T09:41:35Z</time>
      </trkpt>
      <trkpt lat="37.9741370" lon="-5.6211320">
        <ele>628.4</ele>
        <time>2022-05-22T09:41:37Z</time>
      </trkpt>
      <trkpt lat="37.9741490" lon="-5.6211400">
        <ele>628.4</ele>
        <time>2022-05-22T09:41:38Z</time>
      </trkpt>
      <trkpt lat="37.9741630" lon="-5.6211560">
        <ele>628.4</ele>
        <time>2022-05-22T09:41:39Z</time>
      </trkpt>
      <trkpt lat="37.9741760" lon="-5.6211750">
        <ele>628.3</ele>
        <time>2022-05-22T09:41:40Z</time>
      </trkpt>
      <trkpt lat="37.9741820" lon="-5.6211840">
        <ele>628.3</ele>
        <time>2022-05-22T09:41:41Z</time>
      </trkpt>
      <trkpt lat="37.9741880" lon="-5.6211920">
        <ele>628.3</ele>
        <time>2022-05-22T09:41:42Z</time>
      </trkpt>
      <trkpt lat="37.9741970" lon="-5.6212070">
        <ele>628.3</ele>
        <time>2022-05-22T09:41:43Z</time>
      </trkpt>
      <trkpt lat="37.9742090" lon="-5.6212250">
        <ele>628.3</ele>
        <time>2022-05-22T09:41:45Z</time>
      </trkpt>
      <trkpt lat="37.9742200" lon="-5.6212400">
        <ele>628.3</ele>
        <time>2022-05-22T09:41:46Z</time>
      </trkpt>
      <trkpt lat="37.9742340" lon="-5.6212560">
        <ele>628.3</ele>
        <time>2022-05-22T09:41:47Z</time>
      </trkpt>
      <trkpt lat="37.9742440" lon="-5.6212640">
        <ele>628.3</ele>
        <time>2022-05-22T09:41:48Z</time>
      </trkpt>
      <trkpt lat="37.9742550" lon="-5.6212750">
        <ele>628.3</ele>
        <time>2022-05-22T09:41:49Z</time>
      </trkpt>
      <trkpt lat="37.9742750" lon="-5.6212910">
        <ele>628.3</ele>
        <time>2022-05-22T09:41:51Z</time>
      </trkpt>
      <trkpt lat="37.9742910" lon="-5.6213070">
        <ele>628.3</ele>
        <time>2022-05-22T09:41:52Z</time>
      </trkpt>
      <trkpt lat="37.9743030" lon="-5.6213170">
        <ele>628.3</ele>
        <time>2022-05-22T09:41:53Z</time>
      </trkpt>
      <trkpt lat="37.9743170" lon="-5.6213260">
        <ele>628.3</ele>
        <time>2022-05-22T09:41:54Z</time>
      </trkpt>
      <trkpt lat="37.9743480" lon="-5.6213370">
        <ele>628.2</ele>
        <time>2022-05-22T09:41:56Z</time>
      </trkpt>
      <trkpt lat="37.9743640" lon="-5.6213420">
        <ele>628.2</ele>
        <time>2022-05-22T09:41:57Z</time>
      </trkpt>
      <trkpt lat="37.9743800" lon="-5.6213450">
        <ele>628.2</ele>
        <time>2022-05-22T09:41:58Z</time>
      </trkpt>
      <trkpt lat="37.9743960" lon="-5.6213490">
        <ele>628.2</ele>
        <time>2022-05-22T09:41:59Z</time>
      </trkpt>
      <trkpt lat="37.9744130" lon="-5.6213520">
        <ele>628.2</ele>
        <time>2022-05-22T09:42:00Z</time>
      </trkpt>
      <trkpt lat="37.9744260" lon="-5.6213560">
        <ele>628.2</ele>
        <time>2022-05-22T09:42:01Z</time>
      </trkpt>
      <trkpt lat="37.9744400" lon="-5.6213610">
        <ele>628.2</ele>
        <time>2022-05-22T09:42:02Z</time>
      </trkpt>
      <trkpt lat="37.9744520" lon="-5.6213630">
        <ele>628.2</ele>
        <time>2022-05-22T09:42:03Z</time>
      </trkpt>
      <trkpt lat="37.9744670" lon="-5.6213580">
        <ele>628.2</ele>
        <time>2022-05-22T09:42:04Z</time>
      </trkpt>
      <trkpt lat="37.9744900" lon="-5.6213630">
        <ele>628.2</ele>
        <time>2022-05-22T09:42:05Z</time>
      </trkpt>
      <trkpt lat="37.9745040" lon="-5.6213650">
        <ele>628.2</ele>
        <time>2022-05-22T09:42:07Z</time>
      </trkpt>
      <trkpt lat="37.9745180" lon="-5.6213670">
        <ele>628.2</ele>
        <time>2022-05-22T09:42:08Z</time>
      </trkpt>
      <trkpt lat="37.9745310" lon="-5.6213690">
        <ele>628.2</ele>
        <time>2022-05-22T09:42:10Z</time>
      </trkpt>
      <trkpt lat="37.9745450" lon="-5.6213700">
        <ele>628.2</ele>
        <time>2022-05-22T09:42:11Z</time>
      </trkpt>
      <trkpt lat="37.9745590" lon="-5.6213720">
        <ele>628.2</ele>
        <time>2022-05-22T09:42:12Z</time>
      </trkpt>
      <trkpt lat="37.9745720" lon="-5.6213740">
        <ele>628.2</ele>
        <time>2022-05-22T09:42:13Z</time>
      </trkpt>
      <trkpt lat="37.9745930" lon="-5.6213760">
        <ele>628.2</ele>
        <time>2022-05-22T09:42:15Z</time>
      </trkpt>
      <trkpt lat="37.9746060" lon="-5.6213790">
        <ele>628.2</ele>
        <time>2022-05-22T09:42:16Z</time>
      </trkpt>
      <trkpt lat="37.9746210" lon="-5.6213840">
        <ele>628.2</ele>
        <time>2022-05-22T09:42:17Z</time>
      </trkpt>
      <trkpt lat="37.9746330" lon="-5.6213900">
        <ele>628.2</ele>
        <time>2022-05-22T09:42:18Z</time>
      </trkpt>
      <trkpt lat="37.9746630" lon="-5.6214080">
        <ele>628.2</ele>
        <time>2022-05-22T09:42:20Z</time>
      </trkpt>
      <trkpt lat="37.9746690" lon="-5.6214120">
        <ele>628.2</ele>
        <time>2022-05-22T09:42:21Z</time>
      </trkpt>
      <trkpt lat="37.9746790" lon="-5.6214190">
        <ele>628.2</ele>
        <time>2022-05-22T09:42:22Z</time>
      </trkpt>
      <trkpt lat="37.9746890" lon="-5.6214260">
        <ele>628.2</ele>
        <time>2022-05-22T09:42:23Z</time>
      </trkpt>
      <trkpt lat="37.9746980" lon="-5.6214310">
        <ele>628.2</ele>
        <time>2022-05-22T09:42:24Z</time>
      </trkpt>
      <trkpt lat="37.9747260" lon="-5.6214460">
        <ele>628.2</ele>
        <time>2022-05-22T09:42:26Z</time>
      </trkpt>
      <trkpt lat="37.9747310" lon="-5.6214480">
        <ele>628.2</ele>
        <time>2022-05-22T09:42:27Z</time>
      </trkpt>
      <trkpt lat="37.9747430" lon="-5.6214540">
        <ele>628.2</ele>
        <time>2022-05-22T09:42:28Z</time>
      </trkpt>
      <trkpt lat="37.9747610" lon="-5.6214630">
        <ele>628.2</ele>
        <time>2022-05-22T09:42:30Z</time>
      </trkpt>
      <trkpt lat="37.9747780" lon="-5.6214750">
        <ele>628.2</ele>
        <time>2022-05-22T09:42:31Z</time>
      </trkpt>
      <trkpt lat="37.9747880" lon="-5.6214810">
        <ele>628.2</ele>
        <time>2022-05-22T09:42:32Z</time>
      </trkpt>
      <trkpt lat="37.9747950" lon="-5.6214860">
        <ele>628.2</ele>
        <time>2022-05-22T09:42:33Z</time>
      </trkpt>
      <trkpt lat="37.9748160" lon="-5.6214950">
        <ele>628.2</ele>
        <time>2022-05-22T09:42:35Z</time>
      </trkpt>
      <trkpt lat="37.9748280" lon="-5.6215030">
        <ele>628.1</ele>
        <time>2022-05-22T09:42:36Z</time>
      </trkpt>
      <trkpt lat="37.9748360" lon="-5.6215110">
        <ele>628.1</ele>
        <time>2022-05-22T09:42:37Z</time>
      </trkpt>
      <trkpt lat="37.9748520" lon="-5.6215270">
        <ele>628.1</ele>
        <time>2022-05-22T09:42:39Z</time>
      </trkpt>
      <trkpt lat="37.9748700" lon="-5.6215440">
        <ele>628.1</ele>
        <time>2022-05-22T09:42:40Z</time>
      </trkpt>
      <trkpt lat="37.9748790" lon="-5.6215520">
        <ele>628.1</ele>
        <time>2022-05-22T09:42:41Z</time>
      </trkpt>
      <trkpt lat="37.9748870" lon="-5.6215590">
        <ele>628.1</ele>
        <time>2022-05-22T09:42:42Z</time>
      </trkpt>
      <trkpt lat="37.9749110" lon="-5.6215750">
        <ele>628.1</ele>
        <time>2022-05-22T09:42:44Z</time>
      </trkpt>
      <trkpt lat="37.9749380" lon="-5.6215910">
        <ele>628.1</ele>
        <time>2022-05-22T09:42:46Z</time>
      </trkpt>
      <trkpt lat="37.9749560" lon="-5.6215970">
        <ele>628.1</ele>
        <time>2022-05-22T09:42:47Z</time>
      </trkpt>
      <trkpt lat="37.9749770" lon="-5.6216110">
        <ele>628.2</ele>
        <time>2022-05-22T09:42:49Z</time>
      </trkpt>
      <trkpt lat="37.9749970" lon="-5.6216230">
        <ele>628.2</ele>
        <time>2022-05-22T09:42:50Z</time>
      </trkpt>
      <trkpt lat="37.9750040" lon="-5.6216260">
        <ele>628.2</ele>
        <time>2022-05-22T09:42:51Z</time>
      </trkpt>
      <trkpt lat="37.9750120" lon="-5.6216300">
        <ele>628.2</ele>
        <time>2022-05-22T09:42:52Z</time>
      </trkpt>
      <trkpt lat="37.9750280" lon="-5.6216360">
        <ele>628.2</ele>
        <time>2022-05-22T09:42:53Z</time>
      </trkpt>
      <trkpt lat="37.9750430" lon="-5.6216410">
        <ele>628.2</ele>
        <time>2022-05-22T09:42:55Z</time>
      </trkpt>
      <trkpt lat="37.9750620" lon="-5.6216540">
        <ele>628.2</ele>
        <time>2022-05-22T09:42:56Z</time>
      </trkpt>
      <trkpt lat="37.9750730" lon="-5.6216620">
        <ele>628.2</ele>
        <time>2022-05-22T09:42:57Z</time>
      </trkpt>
      <trkpt lat="37.9750840" lon="-5.6216710">
        <ele>628.2</ele>
        <time>2022-05-22T09:42:58Z</time>
      </trkpt>
      <trkpt lat="37.9750990" lon="-5.6216820">
        <ele>628.2</ele>
        <time>2022-05-22T09:42:59Z</time>
      </trkpt>
      <trkpt lat="37.9751180" lon="-5.6216940">
        <ele>628.2</ele>
        <time>2022-05-22T09:43:00Z</time>
      </trkpt>
      <trkpt lat="37.9751260" lon="-5.6216980">
        <ele>628.2</ele>
        <time>2022-05-22T09:43:01Z</time>
      </trkpt>
      <trkpt lat="37.9751340" lon="-5.6217030">
        <ele>628.2</ele>
        <time>2022-05-22T09:43:02Z</time>
      </trkpt>
      <trkpt lat="37.9751560" lon="-5.6217110">
        <ele>628.2</ele>
        <time>2022-05-22T09:43:03Z</time>
      </trkpt>
      <trkpt lat="37.9751670" lon="-5.6217130">
        <ele>628.2</ele>
        <time>2022-05-22T09:43:04Z</time>
      </trkpt>
      <trkpt lat="37.9751780" lon="-5.6217160">
        <ele>628.2</ele>
        <time>2022-05-22T09:43:05Z</time>
      </trkpt>
      <trkpt lat="37.9751900" lon="-5.6217170">
        <ele>628.2</ele>
        <time>2022-05-22T09:43:06Z</time>
      </trkpt>
      <trkpt lat="37.9752050" lon="-5.6217160">
        <ele>628.2</ele>
        <time>2022-05-22T09:43:07Z</time>
      </trkpt>
      <trkpt lat="37.9752220" lon="-5.6217130">
        <ele>628.2</ele>
        <time>2022-05-22T09:43:08Z</time>
      </trkpt>
      <trkpt lat="37.9752380" lon="-5.6217090">
        <ele>628.2</ele>
        <time>2022-05-22T09:43:09Z</time>
      </trkpt>
      <trkpt lat="37.9752640" lon="-5.6217020">
        <ele>628.2</ele>
        <time>2022-05-22T09:43:11Z</time>
      </trkpt>
      <trkpt lat="37.9752800" lon="-5.6217010">
        <ele>628.2</ele>
        <time>2022-05-22T09:43:12Z</time>
      </trkpt>
      <trkpt lat="37.9752950" lon="-5.6217000">
        <ele>628.2</ele>
        <time>2022-05-22T09:43:13Z</time>
      </trkpt>
      <trkpt lat="37.9753120" lon="-5.6217010">
        <ele>628.2</ele>
        <time>2022-05-22T09:43:14Z</time>
      </trkpt>
      <trkpt lat="37.9753260" lon="-5.6217020">
        <ele>628.2</ele>
        <time>2022-05-22T09:43:15Z</time>
      </trkpt>
      <trkpt lat="37.9753590" lon="-5.6217060">
        <ele>628.2</ele>
        <time>2022-05-22T09:43:16Z</time>
      </trkpt>
      <trkpt lat="37.9753660" lon="-5.6217080">
        <ele>628.2</ele>
        <time>2022-05-22T09:43:17Z</time>
      </trkpt>
      <trkpt lat="37.9753800" lon="-5.6217130">
        <ele>628.1</ele>
        <time>2022-05-22T09:43:18Z</time>
      </trkpt>
      <trkpt lat="37.9753950" lon="-5.6217150">
        <ele>628.1</ele>
        <time>2022-05-22T09:43:20Z</time>
      </trkpt>
      <trkpt lat="37.9754120" lon="-5.6217130">
        <ele>628.1</ele>
        <time>2022-05-22T09:43:21Z</time>
      </trkpt>
      <trkpt lat="37.9754240" lon="-5.6217110">
        <ele>628.1</ele>
        <time>2022-05-22T09:43:22Z</time>
      </trkpt>
      <trkpt lat="37.9754300" lon="-5.6217120">
        <ele>628.1</ele>
        <time>2022-05-22T09:43:23Z</time>
      </trkpt>
      <trkpt lat="37.9754350" lon="-5.6217120">
        <ele>628.1</ele>
        <time>2022-05-22T09:43:24Z</time>
      </trkpt>
      <trkpt lat="37.9754410" lon="-5.6217110">
        <ele>628.1</ele>
        <time>2022-05-22T09:43:25Z</time>
      </trkpt>
      <trkpt lat="37.9754470" lon="-5.6217090">
        <ele>628.0</ele>
        <time>2022-05-22T09:43:26Z</time>
      </trkpt>
      <trkpt lat="37.9754550" lon="-5.6217070">
        <ele>628.0</ele>
        <time>2022-05-22T09:43:27Z</time>
      </trkpt>
      <trkpt lat="37.9754610" lon="-5.6217080">
        <ele>628.0</ele>
        <time>2022-05-22T09:43:28Z</time>
      </trkpt>
      <trkpt lat="37.9754660" lon="-5.6217090">
        <ele>628.0</ele>
        <time>2022-05-22T09:43:29Z</time>
      </trkpt>
      <trkpt lat="37.9754730" lon="-5.6217110">
        <ele>628.0</ele>
        <time>2022-05-22T09:43:30Z</time>
      </trkpt>
      <trkpt lat="37.9754810" lon="-5.6217140">
        <ele>628.0</ele>
        <time>2022-05-22T09:43:31Z</time>
      </trkpt>
      <trkpt lat="37.9754900" lon="-5.6217190">
        <ele>628.0</ele>
        <time>2022-05-22T09:43:32Z</time>
      </trkpt>
      <trkpt lat="37.9755030" lon="-5.6217250">
        <ele>628.0</ele>
        <time>2022-05-22T09:43:34Z</time>
      </trkpt>
      <trkpt lat="37.9755140" lon="-5.6217300">
        <ele>628.0</ele>
        <time>2022-05-22T09:43:35Z</time>
      </trkpt>
      <trkpt lat="37.9755230" lon="-5.6217350">
        <ele>627.9</ele>
        <time>2022-05-22T09:43:36Z</time>
      </trkpt>
      <trkpt lat="37.9755320" lon="-5.6217410">
        <ele>627.9</ele>
        <time>2022-05-22T09:43:37Z</time>
      </trkpt>
      <trkpt lat="37.9755430" lon="-5.6217480">
        <ele>627.9</ele>
        <time>2022-05-22T09:43:38Z</time>
      </trkpt>
      <trkpt lat="37.9755600" lon="-5.6217620">
        <ele>627.9</ele>
        <time>2022-05-22T09:43:39Z</time>
      </trkpt>
      <trkpt lat="37.9755700" lon="-5.6217700">
        <ele>627.9</ele>
        <time>2022-05-22T09:43:40Z</time>
      </trkpt>
      <trkpt lat="37.9755880" lon="-5.6217870">
        <ele>627.9</ele>
        <time>2022-05-22T09:43:41Z</time>
      </trkpt>
      <trkpt lat="37.9755950" lon="-5.6217930">
        <ele>627.8</ele>
        <time>2022-05-22T09:43:42Z</time>
      </trkpt>
      <trkpt lat="37.9756010" lon="-5.6217990">
        <ele>627.8</ele>
        <time>2022-05-22T09:43:43Z</time>
      </trkpt>
      <trkpt lat="37.9756300" lon="-5.6218290">
        <ele>627.8</ele>
        <time>2022-05-22T09:43:45Z</time>
      </trkpt>
      <trkpt lat="37.9756400" lon="-5.6218380">
        <ele>627.8</ele>
        <time>2022-05-22T09:43:46Z</time>
      </trkpt>
      <trkpt lat="37.9756540" lon="-5.6218490">
        <ele>627.8</ele>
        <time>2022-05-22T09:43:47Z</time>
      </trkpt>
      <trkpt lat="37.9756650" lon="-5.6218570">
        <ele>627.7</ele>
        <time>2022-05-22T09:43:48Z</time>
      </trkpt>
      <trkpt lat="37.9756750" lon="-5.6218630">
        <ele>627.7</ele>
        <time>2022-05-22T09:43:49Z</time>
      </trkpt>
      <trkpt lat="37.9756860" lon="-5.6218630">
        <ele>627.7</ele>
        <time>2022-05-22T09:43:50Z</time>
      </trkpt>
      <trkpt lat="37.9756970" lon="-5.6218630">
        <ele>627.7</ele>
        <time>2022-05-22T09:43:51Z</time>
      </trkpt>
      <trkpt lat="37.9757170" lon="-5.6218710">
        <ele>627.7</ele>
        <time>2022-05-22T09:43:52Z</time>
      </trkpt>
      <trkpt lat="37.9757240" lon="-5.6218750">
        <ele>627.7</ele>
        <time>2022-05-22T09:43:53Z</time>
      </trkpt>
      <trkpt lat="37.9757320" lon="-5.6218800">
        <ele>627.7</ele>
        <time>2022-05-22T09:43:54Z</time>
      </trkpt>
      <trkpt lat="37.9757510" lon="-5.6218920">
        <ele>627.6</ele>
        <time>2022-05-22T09:43:55Z</time>
      </trkpt>
      <trkpt lat="37.9757580" lon="-5.6218970">
        <ele>627.6</ele>
        <time>2022-05-22T09:43:56Z</time>
      </trkpt>
      <trkpt lat="37.9757660" lon="-5.6219010">
        <ele>627.6</ele>
        <time>2022-05-22T09:43:57Z</time>
      </trkpt>
      <trkpt lat="37.9757770" lon="-5.6219080">
        <ele>627.6</ele>
        <time>2022-05-22T09:43:58Z</time>
      </trkpt>
      <trkpt lat="37.9757920" lon="-5.6219170">
        <ele>627.6</ele>
        <time>2022-05-22T09:44:00Z</time>
      </trkpt>
      <trkpt lat="37.9758040" lon="-5.6219260">
        <ele>627.6</ele>
        <time>2022-05-22T09:44:01Z</time>
      </trkpt>
      <trkpt lat="37.9758180" lon="-5.6219350">
        <ele>627.5</ele>
        <time>2022-05-22T09:44:02Z</time>
      </trkpt>
      <trkpt lat="37.9758330" lon="-5.6219450">
        <ele>627.5</ele>
        <time>2022-05-22T09:44:03Z</time>
      </trkpt>
      <trkpt lat="37.9758480" lon="-5.6219540">
        <ele>627.5</ele>
        <time>2022-05-22T09:44:04Z</time>
      </trkpt>
      <trkpt lat="37.9758640" lon="-5.6219630">
        <ele>627.5</ele>
        <time>2022-05-22T09:44:05Z</time>
      </trkpt>
      <trkpt lat="37.9758790" lon="-5.6219710">
        <ele>627.4</ele>
        <time>2022-05-22T09:44:06Z</time>
      </trkpt>
      <trkpt lat="37.9758940" lon="-5.6219770">
        <ele>627.4</ele>
        <time>2022-05-22T09:44:07Z</time>
      </trkpt>
      <trkpt lat="37.9759100" lon="-5.6219830">
        <ele>627.4</ele>
        <time>2022-05-22T09:44:08Z</time>
      </trkpt>
      <trkpt lat="37.9759230" lon="-5.6219870">
        <ele>627.4</ele>
        <time>2022-05-22T09:44:09Z</time>
      </trkpt>
      <trkpt lat="37.9759360" lon="-5.6219930">
        <ele>627.4</ele>
        <time>2022-05-22T09:44:10Z</time>
      </trkpt>
      <trkpt lat="37.9759490" lon="-5.6220010">
        <ele>627.3</ele>
        <time>2022-05-22T09:44:11Z</time>
      </trkpt>
      <trkpt lat="37.9759600" lon="-5.6220120">
        <ele>627.3</ele>
        <time>2022-05-22T09:44:12Z</time>
      </trkpt>
      <trkpt lat="37.9759710" lon="-5.6220200">
        <ele>627.3</ele>
        <time>2022-05-22T09:44:13Z</time>
      </trkpt>
      <trkpt lat="37.9759860" lon="-5.6220330">
        <ele>627.3</ele>
        <time>2022-05-22T09:44:14Z</time>
      </trkpt>
      <trkpt lat="37.9759950" lon="-5.6220410">
        <ele>627.3</ele>
        <time>2022-05-22T09:44:15Z</time>
      </trkpt>
      <trkpt lat="37.9760040" lon="-5.6220490">
        <ele>627.2</ele>
        <time>2022-05-22T09:44:16Z</time>
      </trkpt>
      <trkpt lat="37.9760140" lon="-5.6220580">
        <ele>627.2</ele>
        <time>2022-05-22T09:44:17Z</time>
      </trkpt>
      <trkpt lat="37.9760250" lon="-5.6220660">
        <ele>627.2</ele>
        <time>2022-05-22T09:44:18Z</time>
      </trkpt>
      <trkpt lat="37.9760490" lon="-5.6220810">
        <ele>627.2</ele>
        <time>2022-05-22T09:44:20Z</time>
      </trkpt>
      <trkpt lat="37.9760590" lon="-5.6220870">
        <ele>627.1</ele>
        <time>2022-05-22T09:44:21Z</time>
      </trkpt>
      <trkpt lat="37.9760690" lon="-5.6220920">
        <ele>627.1</ele>
        <time>2022-05-22T09:44:22Z</time>
      </trkpt>
      <trkpt lat="37.9760790" lon="-5.6221000">
        <ele>627.1</ele>
        <time>2022-05-22T09:44:23Z</time>
      </trkpt>
      <trkpt lat="37.9760960" lon="-5.6221150">
        <ele>627.1</ele>
        <time>2022-05-22T09:44:24Z</time>
      </trkpt>
      <trkpt lat="37.9761030" lon="-5.6221200">
        <ele>627.1</ele>
        <time>2022-05-22T09:44:25Z</time>
      </trkpt>
      <trkpt lat="37.9761100" lon="-5.6221260">
        <ele>627.0</ele>
        <time>2022-05-22T09:44:26Z</time>
      </trkpt>
      <trkpt lat="37.9761190" lon="-5.6221320">
        <ele>627.0</ele>
        <time>2022-05-22T09:44:27Z</time>
      </trkpt>
      <trkpt lat="37.9761310" lon="-5.6221390">
        <ele>627.0</ele>
        <time>2022-05-22T09:44:28Z</time>
      </trkpt>
      <trkpt lat="37.9761410" lon="-5.6221460">
        <ele>627.0</ele>
        <time>2022-05-22T09:44:29Z</time>
      </trkpt>
      <trkpt lat="37.9761520" lon="-5.6221530">
        <ele>627.0</ele>
        <time>2022-05-22T09:44:30Z</time>
      </trkpt>
      <trkpt lat="37.9761660" lon="-5.6221610">
        <ele>626.9</ele>
        <time>2022-05-22T09:44:31Z</time>
      </trkpt>
      <trkpt lat="37.9761740" lon="-5.6221660">
        <ele>626.9</ele>
        <time>2022-05-22T09:44:32Z</time>
      </trkpt>
      <trkpt lat="37.9761820" lon="-5.6221700">
        <ele>626.9</ele>
        <time>2022-05-22T09:44:33Z</time>
      </trkpt>
      <trkpt lat="37.9761920" lon="-5.6221750">
        <ele>626.9</ele>
        <time>2022-05-22T09:44:34Z</time>
      </trkpt>
      <trkpt lat="37.9762040" lon="-5.6221790">
        <ele>626.9</ele>
        <time>2022-05-22T09:44:35Z</time>
      </trkpt>
      <trkpt lat="37.9762140" lon="-5.6221830">
        <ele>626.9</ele>
        <time>2022-05-22T09:44:36Z</time>
      </trkpt>
      <trkpt lat="37.9762270" lon="-5.6221870">
        <ele>626.8</ele>
        <time>2022-05-22T09:44:37Z</time>
      </trkpt>
      <trkpt lat="37.9762470" lon="-5.6221960">
        <ele>626.8</ele>
        <time>2022-05-22T09:44:38Z</time>
      </trkpt>
      <trkpt lat="37.9762570" lon="-5.6222010">
        <ele>626.8</ele>
        <time>2022-05-22T09:44:39Z</time>
      </trkpt>
      <trkpt lat="37.9762670" lon="-5.6222050">
        <ele>626.8</ele>
        <time>2022-05-22T09:44:40Z</time>
      </trkpt>
      <trkpt lat="37.9762810" lon="-5.6222100">
        <ele>626.7</ele>
        <time>2022-05-22T09:44:41Z</time>
      </trkpt>
      <trkpt lat="37.9762990" lon="-5.6222200">
        <ele>626.7</ele>
        <time>2022-05-22T09:44:42Z</time>
      </trkpt>
      <trkpt lat="37.9763110" lon="-5.6222260">
        <ele>626.7</ele>
        <time>2022-05-22T09:44:43Z</time>
      </trkpt>
      <trkpt lat="37.9763250" lon="-5.6222320">
        <ele>626.6</ele>
        <time>2022-05-22T09:44:44Z</time>
      </trkpt>
      <trkpt lat="37.9763390" lon="-5.6222390">
        <ele>626.6</ele>
        <time>2022-05-22T09:44:45Z</time>
      </trkpt>
      <trkpt lat="37.9763550" lon="-5.6222460">
        <ele>626.6</ele>
        <time>2022-05-22T09:44:46Z</time>
      </trkpt>
      <trkpt lat="37.9763810" lon="-5.6222580">
        <ele>626.5</ele>
        <time>2022-05-22T09:44:47Z</time>
      </trkpt>
      <trkpt lat="37.9763910" lon="-5.6222630">
        <ele>626.5</ele>
        <time>2022-05-22T09:44:48Z</time>
      </trkpt>
      <trkpt lat="37.9764060" lon="-5.6222680">
        <ele>626.5</ele>
        <time>2022-05-22T09:44:49Z</time>
      </trkpt>
      <trkpt lat="37.9764210" lon="-5.6222740">
        <ele>626.5</ele>
        <time>2022-05-22T09:44:50Z</time>
      </trkpt>
      <trkpt lat="37.9764400" lon="-5.6222790">
        <ele>626.4</ele>
        <time>2022-05-22T09:44:51Z</time>
      </trkpt>
      <trkpt lat="37.9764670" lon="-5.6222900">
        <ele>626.4</ele>
        <time>2022-05-22T09:44:53Z</time>
      </trkpt>
      <trkpt lat="37.9764960" lon="-5.6223000">
        <ele>626.3</ele>
        <time>2022-05-22T09:44:54Z</time>
      </trkpt>
      <trkpt lat="37.9765030" lon="-5.6223020">
        <ele>626.3</ele>
        <time>2022-05-22T09:44:55Z</time>
      </trkpt>
      <trkpt lat="37.9765170" lon="-5.6223050">
        <ele>626.3</ele>
        <time>2022-05-22T09:44:56Z</time>
      </trkpt>
      <trkpt lat="37.9765300" lon="-5.6223080">
        <ele>626.2</ele>
        <time>2022-05-22T09:44:57Z</time>
      </trkpt>
      <trkpt lat="37.9765540" lon="-5.6223140">
        <ele>626.2</ele>
        <time>2022-05-22T09:44:58Z</time>
      </trkpt>
      <trkpt lat="37.9765640" lon="-5.6223170">
        <ele>626.2</ele>
        <time>2022-05-22T09:44:59Z</time>
      </trkpt>
      <trkpt lat="37.9765740" lon="-5.6223190">
        <ele>626.2</ele>
        <time>2022-05-22T09:45:00Z</time>
      </trkpt>
      <trkpt lat="37.9765860" lon="-5.6223230">
        <ele>626.1</ele>
        <time>2022-05-22T09:45:01Z</time>
      </trkpt>
      <trkpt lat="37.9766010" lon="-5.6223270">
        <ele>626.1</ele>
        <time>2022-05-22T09:45:03Z</time>
      </trkpt>
      <trkpt lat="37.9766110" lon="-5.6223290">
        <ele>626.1</ele>
        <time>2022-05-22T09:45:04Z</time>
      </trkpt>
      <trkpt lat="37.9766220" lon="-5.6223320">
        <ele>626.1</ele>
        <time>2022-05-22T09:45:05Z</time>
      </trkpt>
      <trkpt lat="37.9766360" lon="-5.6223360">
        <ele>626.0</ele>
        <time>2022-05-22T09:45:06Z</time>
      </trkpt>
      <trkpt lat="37.9766510" lon="-5.6223450">
        <ele>626.0</ele>
        <time>2022-05-22T09:45:07Z</time>
      </trkpt>
      <trkpt lat="37.9766570" lon="-5.6223480">
        <ele>626.0</ele>
        <time>2022-05-22T09:45:08Z</time>
      </trkpt>
      <trkpt lat="37.9766640" lon="-5.6223520">
        <ele>626.0</ele>
        <time>2022-05-22T09:45:09Z</time>
      </trkpt>
      <trkpt lat="37.9766700" lon="-5.6223550">
        <ele>626.0</ele>
        <time>2022-05-22T09:45:10Z</time>
      </trkpt>
      <trkpt lat="37.9766870" lon="-5.6223640">
        <ele>625.9</ele>
        <time>2022-05-22T09:45:11Z</time>
      </trkpt>
      <trkpt lat="37.9766970" lon="-5.6223700">
        <ele>625.9</ele>
        <time>2022-05-22T09:45:12Z</time>
      </trkpt>
      <trkpt lat="37.9767160" lon="-5.6223790">
        <ele>625.9</ele>
        <time>2022-05-22T09:45:13Z</time>
      </trkpt>
      <trkpt lat="37.9767240" lon="-5.6223830">
        <ele>625.9</ele>
        <time>2022-05-22T09:45:14Z</time>
      </trkpt>
      <trkpt lat="37.9767310" lon="-5.6223870">
        <ele>625.8</ele>
        <time>2022-05-22T09:45:15Z</time>
      </trkpt>
      <trkpt lat="37.9767510" lon="-5.6224000">
        <ele>625.8</ele>
        <time>2022-05-22T09:45:16Z</time>
      </trkpt>
      <trkpt lat="37.9767580" lon="-5.6224050">
        <ele>625.8</ele>
        <time>2022-05-22T09:45:17Z</time>
      </trkpt>
      <trkpt lat="37.9767650" lon="-5.6224090">
        <ele>625.8</ele>
        <time>2022-05-22T09:45:18Z</time>
      </trkpt>
      <trkpt lat="37.9767920" lon="-5.6224280">
        <ele>625.7</ele>
        <time>2022-05-22T09:45:20Z</time>
      </trkpt>
      <trkpt lat="37.9767980" lon="-5.6224330">
        <ele>625.7</ele>
        <time>2022-05-22T09:45:21Z</time>
      </trkpt>
      <trkpt lat="37.9768170" lon="-5.6224480">
        <ele>625.7</ele>
        <time>2022-05-22T09:45:22Z</time>
      </trkpt>
      <trkpt lat="37.9768230" lon="-5.6224540">
        <ele>625.6</ele>
        <time>2022-05-22T09:45:23Z</time>
      </trkpt>
      <trkpt lat="37.9768290" lon="-5.6224590">
        <ele>625.6</ele>
        <time>2022-05-22T09:45:24Z</time>
      </trkpt>
      <trkpt lat="37.9768450" lon="-5.6224750">
        <ele>625.6</ele>
        <time>2022-05-22T09:45:25Z</time>
      </trkpt>
      <trkpt lat="37.9768510" lon="-5.6224810">
        <ele>625.6</ele>
        <time>2022-05-22T09:45:26Z</time>
      </trkpt>
      <trkpt lat="37.9768570" lon="-5.6224880">
        <ele>625.6</ele>
        <time>2022-05-22T09:45:27Z</time>
      </trkpt>
      <trkpt lat="37.9768770" lon="-5.6225060">
        <ele>625.5</ele>
        <time>2022-05-22T09:45:29Z</time>
      </trkpt>
      <trkpt lat="37.9768860" lon="-5.6225130">
        <ele>625.5</ele>
        <time>2022-05-22T09:45:30Z</time>
      </trkpt>
      <trkpt lat="37.9768950" lon="-5.6225190">
        <ele>625.5</ele>
        <time>2022-05-22T09:45:31Z</time>
      </trkpt>
      <trkpt lat="37.9769060" lon="-5.6225250">
        <ele>625.4</ele>
        <time>2022-05-22T09:45:32Z</time>
      </trkpt>
      <trkpt lat="37.9769180" lon="-5.6225300">
        <ele>625.4</ele>
        <time>2022-05-22T09:45:33Z</time>
      </trkpt>
      <trkpt lat="37.9769420" lon="-5.6225380">
        <ele>625.4</ele>
        <time>2022-05-22T09:45:34Z</time>
      </trkpt>
      <trkpt lat="37.9769510" lon="-5.6225400">
        <ele>625.3</ele>
        <time>2022-05-22T09:45:35Z</time>
      </trkpt>
      <trkpt lat="37.9769600" lon="-5.6225420">
        <ele>625.3</ele>
        <time>2022-05-22T09:45:36Z</time>
      </trkpt>
      <trkpt lat="37.9769720" lon="-5.6225470">
        <ele>625.3</ele>
        <time>2022-05-22T09:45:37Z</time>
      </trkpt>
      <trkpt lat="37.9769910" lon="-5.6225540">
        <ele>625.3</ele>
        <time>2022-05-22T09:45:39Z</time>
      </trkpt>
      <trkpt lat="37.9770020" lon="-5.6225570">
        <ele>625.3</ele>
        <time>2022-05-22T09:45:40Z</time>
      </trkpt>
      <trkpt lat="37.9770120" lon="-5.6225600">
        <ele>625.2</ele>
        <time>2022-05-22T09:45:41Z</time>
      </trkpt>
      <trkpt lat="37.9770230" lon="-5.6225630">
        <ele>625.2</ele>
        <time>2022-05-22T09:45:42Z</time>
      </trkpt>
      <trkpt lat="37.9770340" lon="-5.6225660">
        <ele>625.2</ele>
        <time>2022-05-22T09:45:43Z</time>
      </trkpt>
      <trkpt lat="37.9770510" lon="-5.6225700">
        <ele>625.2</ele>
        <time>2022-05-22T09:45:44Z</time>
      </trkpt>
      <trkpt lat="37.9770820" lon="-5.6225750">
        <ele>625.1</ele>
        <time>2022-05-22T09:45:46Z</time>
      </trkpt>
      <trkpt lat="37.9771010" lon="-5.6225740">
        <ele>625.1</ele>
        <time>2022-05-22T09:45:48Z</time>
      </trkpt>
      <trkpt lat="37.9771140" lon="-5.6225690">
        <ele>625.1</ele>
        <time>2022-05-22T09:45:49Z</time>
      </trkpt>
      <trkpt lat="37.9771260" lon="-5.6225690">
        <ele>625.1</ele>
        <time>2022-05-22T09:45:50Z</time>
      </trkpt>
      <trkpt lat="37.9771420" lon="-5.6225720">
        <ele>625.0</ele>
        <time>2022-05-22T09:45:51Z</time>
      </trkpt>
      <trkpt lat="37.9771720" lon="-5.6225900">
        <ele>625.0</ele>
        <time>2022-05-22T09:45:53Z</time>
      </trkpt>
      <trkpt lat="37.9771800" lon="-5.6225960">
        <ele>625.0</ele>
        <time>2022-05-22T09:45:54Z</time>
      </trkpt>
      <trkpt lat="37.9772020" lon="-5.6226240">
        <ele>624.9</ele>
        <time>2022-05-22T09:45:55Z</time>
      </trkpt>
      <trkpt lat="37.9772110" lon="-5.6226380">
        <ele>624.9</ele>
        <time>2022-05-22T09:45:56Z</time>
      </trkpt>
      <trkpt lat="37.9772260" lon="-5.6226590">
        <ele>624.9</ele>
        <time>2022-05-22T09:45:58Z</time>
      </trkpt>
      <trkpt lat="37.9772330" lon="-5.6226710">
        <ele>624.8</ele>
        <time>2022-05-22T09:45:59Z</time>
      </trkpt>
      <trkpt lat="37.9772430" lon="-5.6226870">
        <ele>624.8</ele>
        <time>2022-05-22T09:46:00Z</time>
      </trkpt>
      <trkpt lat="37.9772520" lon="-5.6226960">
        <ele>624.8</ele>
        <time>2022-05-22T09:46:01Z</time>
      </trkpt>
      <trkpt lat="37.9772770" lon="-5.6227210">
        <ele>624.7</ele>
        <time>2022-05-22T09:46:03Z</time>
      </trkpt>
      <trkpt lat="37.9772820" lon="-5.6227260">
        <ele>624.7</ele>
        <time>2022-05-22T09:46:04Z</time>
      </trkpt>
      <trkpt lat="37.9772980" lon="-5.6227380">
        <ele>624.7</ele>
        <time>2022-05-22T09:46:05Z</time>
      </trkpt>
      <trkpt lat="37.9773180" lon="-5.6227530">
        <ele>624.7</ele>
        <time>2022-05-22T09:46:07Z</time>
      </trkpt>
      <trkpt lat="37.9773480" lon="-5.6227680">
        <ele>624.6</ele>
        <time>2022-05-22T09:46:08Z</time>
      </trkpt>
      <trkpt lat="37.9773540" lon="-5.6227720">
        <ele>624.6</ele>
        <time>2022-05-22T09:46:09Z</time>
      </trkpt>
      <trkpt lat="37.9773680" lon="-5.6227800">
        <ele>624.6</ele>
        <time>2022-05-22T09:46:10Z</time>
      </trkpt>
      <trkpt lat="37.9773840" lon="-5.6227880">
        <ele>624.6</ele>
        <time>2022-05-22T09:46:11Z</time>
      </trkpt>
      <trkpt lat="37.9773970" lon="-5.6227940">
        <ele>624.5</ele>
        <time>2022-05-22T09:46:12Z</time>
      </trkpt>
      <trkpt lat="37.9774320" lon="-5.6228110">
        <ele>624.5</ele>
        <time>2022-05-22T09:46:14Z</time>
      </trkpt>
      <trkpt lat="37.9774500" lon="-5.6228250">
        <ele>624.4</ele>
        <time>2022-05-22T09:46:16Z</time>
      </trkpt>
      <trkpt lat="37.9774630" lon="-5.6228280">
        <ele>624.4</ele>
        <time>2022-05-22T09:46:17Z</time>
      </trkpt>
      <trkpt lat="37.9774760" lon="-5.6228360">
        <ele>624.4</ele>
        <time>2022-05-22T09:46:18Z</time>
      </trkpt>
      <trkpt lat="37.9774880" lon="-5.6228420">
        <ele>624.4</ele>
        <time>2022-05-22T09:46:19Z</time>
      </trkpt>
      <trkpt lat="37.9775020" lon="-5.6228480">
        <ele>624.4</ele>
        <time>2022-05-22T09:46:20Z</time>
      </trkpt>
      <trkpt lat="37.9775160" lon="-5.6228530">
        <ele>624.3</ele>
        <time>2022-05-22T09:46:21Z</time>
      </trkpt>
      <trkpt lat="37.9775310" lon="-5.6228560">
        <ele>624.3</ele>
        <time>2022-05-22T09:46:22Z</time>
      </trkpt>
      <trkpt lat="37.9775450" lon="-5.6228590">
        <ele>624.3</ele>
        <time>2022-05-22T09:46:23Z</time>
      </trkpt>
      <trkpt lat="37.9775580" lon="-5.6228620">
        <ele>624.3</ele>
        <time>2022-05-22T09:46:24Z</time>
      </trkpt>
      <trkpt lat="37.9775790" lon="-5.6228580">
        <ele>624.2</ele>
        <time>2022-05-22T09:46:25Z</time>
      </trkpt>
      <trkpt lat="37.9776130" lon="-5.6228520">
        <ele>624.2</ele>
        <time>2022-05-22T09:46:27Z</time>
      </trkpt>
      <trkpt lat="37.9776340" lon="-5.6228590">
        <ele>624.1</ele>
        <time>2022-05-22T09:46:28Z</time>
      </trkpt>
      <trkpt lat="37.9776420" lon="-5.6228620">
        <ele>624.1</ele>
        <time>2022-05-22T09:46:29Z</time>
      </trkpt>
      <trkpt lat="37.9776500" lon="-5.6228650">
        <ele>624.1</ele>
        <time>2022-05-22T09:46:30Z</time>
      </trkpt>
      <trkpt lat="37.9776610" lon="-5.6228710">
        <ele>624.1</ele>
        <time>2022-05-22T09:46:31Z</time>
      </trkpt>
      <trkpt lat="37.9776720" lon="-5.6228770">
        <ele>624.1</ele>
        <time>2022-05-22T09:46:32Z</time>
      </trkpt>
      <trkpt lat="37.9776810" lon="-5.6228820">
        <ele>624.0</ele>
        <time>2022-05-22T09:46:33Z</time>
      </trkpt>
      <trkpt lat="37.9777060" lon="-5.6228980">
        <ele>624.0</ele>
        <time>2022-05-22T09:46:35Z</time>
      </trkpt>
      <trkpt lat="37.9777130" lon="-5.6229030">
        <ele>624.0</ele>
        <time>2022-05-22T09:46:36Z</time>
      </trkpt>
      <trkpt lat="37.9777230" lon="-5.6229090">
        <ele>624.0</ele>
        <time>2022-05-22T09:46:37Z</time>
      </trkpt>
      <trkpt lat="37.9777330" lon="-5.6229160">
        <ele>623.9</ele>
        <time>2022-05-22T09:46:38Z</time>
      </trkpt>
      <trkpt lat="37.9777450" lon="-5.6229230">
        <ele>623.9</ele>
        <time>2022-05-22T09:46:39Z</time>
      </trkpt>
      <trkpt lat="37.9777630" lon="-5.6229310">
        <ele>623.9</ele>
        <time>2022-05-22T09:46:40Z</time>
      </trkpt>
      <trkpt lat="37.9777880" lon="-5.6229450">
        <ele>623.8</ele>
        <time>2022-05-22T09:46:42Z</time>
      </trkpt>
      <trkpt lat="37.9778100" lon="-5.6229550">
        <ele>623.8</ele>
        <time>2022-05-22T09:46:44Z</time>
      </trkpt>
      <trkpt lat="37.9778260" lon="-5.6229620">
        <ele>623.8</ele>
        <time>2022-05-22T09:46:45Z</time>
      </trkpt>
      <trkpt lat="37.9778390" lon="-5.6229680">
        <ele>623.7</ele>
        <time>2022-05-22T09:46:46Z</time>
      </trkpt>
      <trkpt lat="37.9778540" lon="-5.6229730">
        <ele>623.7</ele>
        <time>2022-05-22T09:46:47Z</time>
      </trkpt>
      <trkpt lat="37.9778680" lon="-5.6229800">
        <ele>623.7</ele>
        <time>2022-05-22T09:46:48Z</time>
      </trkpt>
      <trkpt lat="37.9778830" lon="-5.6229860">
        <ele>623.7</ele>
        <time>2022-05-22T09:46:49Z</time>
      </trkpt>
      <trkpt lat="37.9778980" lon="-5.6229900">
        <ele>623.6</ele>
        <time>2022-05-22T09:46:50Z</time>
      </trkpt>
      <trkpt lat="37.9779120" lon="-5.6229950">
        <ele>623.6</ele>
        <time>2022-05-22T09:46:51Z</time>
      </trkpt>
      <trkpt lat="37.9779270" lon="-5.6230010">
        <ele>623.6</ele>
        <time>2022-05-22T09:46:52Z</time>
      </trkpt>
      <trkpt lat="37.9779430" lon="-5.6230040">
        <ele>623.6</ele>
        <time>2022-05-22T09:46:53Z</time>
      </trkpt>
      <trkpt lat="37.9779580" lon="-5.6230070">
        <ele>623.5</ele>
        <time>2022-05-22T09:46:54Z</time>
      </trkpt>
      <trkpt lat="37.9779730" lon="-5.6230130">
        <ele>623.5</ele>
        <time>2022-05-22T09:46:55Z</time>
      </trkpt>
      <trkpt lat="37.9779870" lon="-5.6230190">
        <ele>623.5</ele>
        <time>2022-05-22T09:46:56Z</time>
      </trkpt>
      <trkpt lat="37.9780040" lon="-5.6230240">
        <ele>623.4</ele>
        <time>2022-05-22T09:46:57Z</time>
      </trkpt>
      <trkpt lat="37.9780240" lon="-5.6230340">
        <ele>623.4</ele>
        <time>2022-05-22T09:46:59Z</time>
      </trkpt>
      <trkpt lat="37.9780370" lon="-5.6230420">
        <ele>623.4</ele>
        <time>2022-05-22T09:47:00Z</time>
      </trkpt>
      <trkpt lat="37.9780550" lon="-5.6230510">
        <ele>623.3</ele>
        <time>2022-05-22T09:47:01Z</time>
      </trkpt>
      <trkpt lat="37.9780700" lon="-5.6230590">
        <ele>623.3</ele>
        <time>2022-05-22T09:47:02Z</time>
      </trkpt>
      <trkpt lat="37.9780820" lon="-5.6230640">
        <ele>623.3</ele>
        <time>2022-05-22T09:47:03Z</time>
      </trkpt>
      <trkpt lat="37.9780920" lon="-5.6230690">
        <ele>623.3</ele>
        <time>2022-05-22T09:47:04Z</time>
      </trkpt>
      <trkpt lat="37.9781010" lon="-5.6230740">
        <ele>623.3</ele>
        <time>2022-05-22T09:47:05Z</time>
      </trkpt>
      <trkpt lat="37.9781110" lon="-5.6230780">
        <ele>623.2</ele>
        <time>2022-05-22T09:47:06Z</time>
      </trkpt>
      <trkpt lat="37.9781250" lon="-5.6230850">
        <ele>623.2</ele>
        <time>2022-05-22T09:47:07Z</time>
      </trkpt>
      <trkpt lat="37.9781330" lon="-5.6230900">
        <ele>623.2</ele>
        <time>2022-05-22T09:47:08Z</time>
      </trkpt>
      <trkpt lat="37.9781420" lon="-5.6230960">
        <ele>623.2</ele>
        <time>2022-05-22T09:47:09Z</time>
      </trkpt>
      <trkpt lat="37.9781510" lon="-5.6231030">
        <ele>623.2</ele>
        <time>2022-05-22T09:47:10Z</time>
      </trkpt>
      <trkpt lat="37.9781680" lon="-5.6231150">
        <ele>623.1</ele>
        <time>2022-05-22T09:47:12Z</time>
      </trkpt>
      <trkpt lat="37.9781800" lon="-5.6231250">
        <ele>623.1</ele>
        <time>2022-05-22T09:47:13Z</time>
      </trkpt>
      <trkpt lat="37.9781900" lon="-5.6231320">
        <ele>623.1</ele>
        <time>2022-05-22T09:47:14Z</time>
      </trkpt>
      <trkpt lat="37.9781990" lon="-5.6231350">
        <ele>623.1</ele>
        <time>2022-05-22T09:47:15Z</time>
      </trkpt>
      <trkpt lat="37.9782180" lon="-5.6231430">
        <ele>623.0</ele>
        <time>2022-05-22T09:47:17Z</time>
      </trkpt>
      <trkpt lat="37.9782320" lon="-5.6231490">
        <ele>623.0</ele>
        <time>2022-05-22T09:47:18Z</time>
      </trkpt>
      <trkpt lat="37.9782520" lon="-5.6231500">
        <ele>623.0</ele>
        <time>2022-05-22T09:47:20Z</time>
      </trkpt>
      <trkpt lat="37.9782620" lon="-5.6231510">
        <ele>623.0</ele>
        <time>2022-05-22T09:47:21Z</time>
      </trkpt>
      <trkpt lat="37.9782750" lon="-5.6231560">
        <ele>622.9</ele>
        <time>2022-05-22T09:47:22Z</time>
      </trkpt>
      <trkpt lat="37.9782860" lon="-5.6231610">
        <ele>622.9</ele>
        <time>2022-05-22T09:47:23Z</time>
      </trkpt>
      <trkpt lat="37.9783080" lon="-5.6231740">
        <ele>622.9</ele>
        <time>2022-05-22T09:47:25Z</time>
      </trkpt>
      <trkpt lat="37.9783180" lon="-5.6231790">
        <ele>622.9</ele>
        <time>2022-05-22T09:47:26Z</time>
      </trkpt>
      <trkpt lat="37.9783280" lon="-5.6231870">
        <ele>622.8</ele>
        <time>2022-05-22T09:47:27Z</time>
      </trkpt>
      <trkpt lat="37.9783360" lon="-5.6231930">
        <ele>622.8</ele>
        <time>2022-05-22T09:47:28Z</time>
      </trkpt>
      <trkpt lat="37.9783470" lon="-5.6231980">
        <ele>622.8</ele>
        <time>2022-05-22T09:47:29Z</time>
      </trkpt>
      <trkpt lat="37.9783610" lon="-5.6232050">
        <ele>622.8</ele>
        <time>2022-05-22T09:47:30Z</time>
      </trkpt>
      <trkpt lat="37.9783690" lon="-5.6232110">
        <ele>622.8</ele>
        <time>2022-05-22T09:47:31Z</time>
      </trkpt>
      <trkpt lat="37.9783810" lon="-5.6232160">
        <ele>622.8</ele>
        <time>2022-05-22T09:47:32Z</time>
      </trkpt>
      <trkpt lat="37.9783910" lon="-5.6232200">
        <ele>622.7</ele>
        <time>2022-05-22T09:47:33Z</time>
      </trkpt>
      <trkpt lat="37.9784020" lon="-5.6232260">
        <ele>622.7</ele>
        <time>2022-05-22T09:47:34Z</time>
      </trkpt>
      <trkpt lat="37.9784120" lon="-5.6232340">
        <ele>622.7</ele>
        <time>2022-05-22T09:47:35Z</time>
      </trkpt>
      <trkpt lat="37.9784270" lon="-5.6232430">
        <ele>622.7</ele>
        <time>2022-05-22T09:47:36Z</time>
      </trkpt>
      <trkpt lat="37.9784460" lon="-5.6232500">
        <ele>622.6</ele>
        <time>2022-05-22T09:47:37Z</time>
      </trkpt>
      <trkpt lat="37.9784550" lon="-5.6232520">
        <ele>622.6</ele>
        <time>2022-05-22T09:47:38Z</time>
      </trkpt>
      <trkpt lat="37.9784640" lon="-5.6232540">
        <ele>622.6</ele>
        <time>2022-05-22T09:47:39Z</time>
      </trkpt>
      <trkpt lat="37.9784730" lon="-5.6232590">
        <ele>622.6</ele>
        <time>2022-05-22T09:47:40Z</time>
      </trkpt>
      <trkpt lat="37.9785000" lon="-5.6232730">
        <ele>622.6</ele>
        <time>2022-05-22T09:47:42Z</time>
      </trkpt>
      <trkpt lat="37.9785190" lon="-5.6232860">
        <ele>622.6</ele>
        <time>2022-05-22T09:47:43Z</time>
      </trkpt>
      <trkpt lat="37.9785270" lon="-5.6232910">
        <ele>622.6</ele>
        <time>2022-05-22T09:47:44Z</time>
      </trkpt>
      <trkpt lat="37.9785350" lon="-5.6232960">
        <ele>622.5</ele>
        <time>2022-05-22T09:47:45Z</time>
      </trkpt>
      <trkpt lat="37.9785460" lon="-5.6233040">
        <ele>622.5</ele>
        <time>2022-05-22T09:47:46Z</time>
      </trkpt>
      <trkpt lat="37.9785600" lon="-5.6233140">
        <ele>622.5</ele>
        <time>2022-05-22T09:47:47Z</time>
      </trkpt>
      <trkpt lat="37.9785790" lon="-5.6233270">
        <ele>622.5</ele>
        <time>2022-05-22T09:47:48Z</time>
      </trkpt>
      <trkpt lat="37.9785860" lon="-5.6233310">
        <ele>622.5</ele>
        <time>2022-05-22T09:47:49Z</time>
      </trkpt>
      <trkpt lat="37.9785930" lon="-5.6233360">
        <ele>622.5</ele>
        <time>2022-05-22T09:47:50Z</time>
      </trkpt>
      <trkpt lat="37.9786130" lon="-5.6233500">
        <ele>622.5</ele>
        <time>2022-05-22T09:47:51Z</time>
      </trkpt>
      <trkpt lat="37.9786220" lon="-5.6233560">
        <ele>622.4</ele>
        <time>2022-05-22T09:47:52Z</time>
      </trkpt>
      <trkpt lat="37.9786300" lon="-5.6233620">
        <ele>622.4</ele>
        <time>2022-05-22T09:47:53Z</time>
      </trkpt>
      <trkpt lat="37.9786500" lon="-5.6233750">
        <ele>622.4</ele>
        <time>2022-05-22T09:47:54Z</time>
      </trkpt>
      <trkpt lat="37.9786610" lon="-5.6233830">
        <ele>622.4</ele>
        <time>2022-05-22T09:47:56Z</time>
      </trkpt>
      <trkpt lat="37.9786720" lon="-5.6233900">
        <ele>622.4</ele>
        <time>2022-05-22T09:47:57Z</time>
      </trkpt>
      <trkpt lat="37.9786830" lon="-5.6233980">
        <ele>622.4</ele>
        <time>2022-05-22T09:47:58Z</time>
      </trkpt>
      <trkpt lat="37.9786940" lon="-5.6234050">
        <ele>622.4</ele>
        <time>2022-05-22T09:47:59Z</time>
      </trkpt>
      <trkpt lat="37.9787140" lon="-5.6234170">
        <ele>622.3</ele>
        <time>2022-05-22T09:48:00Z</time>
      </trkpt>
      <trkpt lat="37.9787220" lon="-5.6234220">
        <ele>622.3</ele>
        <time>2022-05-22T09:48:01Z</time>
      </trkpt>
      <trkpt lat="37.9787290" lon="-5.6234270">
        <ele>622.3</ele>
        <time>2022-05-22T09:48:02Z</time>
      </trkpt>
      <trkpt lat="37.9787500" lon="-5.6234380">
        <ele>622.3</ele>
        <time>2022-05-22T09:48:03Z</time>
      </trkpt>
      <trkpt lat="37.9787590" lon="-5.6234410">
        <ele>622.3</ele>
        <time>2022-05-22T09:48:04Z</time>
      </trkpt>
      <trkpt lat="37.9787680" lon="-5.6234440">
        <ele>622.3</ele>
        <time>2022-05-22T09:48:05Z</time>
      </trkpt>
      <trkpt lat="37.9787790" lon="-5.6234470">
        <ele>622.3</ele>
        <time>2022-05-22T09:48:06Z</time>
      </trkpt>
      <trkpt lat="37.9787910" lon="-5.6234510">
        <ele>622.2</ele>
        <time>2022-05-22T09:48:07Z</time>
      </trkpt>
      <trkpt lat="37.9788010" lon="-5.6234570">
        <ele>622.2</ele>
        <time>2022-05-22T09:48:08Z</time>
      </trkpt>
      <trkpt lat="37.9788200" lon="-5.6234680">
        <ele>622.2</ele>
        <time>2022-05-22T09:48:09Z</time>
      </trkpt>
      <trkpt lat="37.9788270" lon="-5.6234720">
        <ele>622.2</ele>
        <time>2022-05-22T09:48:10Z</time>
      </trkpt>
      <trkpt lat="37.9788350" lon="-5.6234770">
        <ele>622.2</ele>
        <time>2022-05-22T09:48:11Z</time>
      </trkpt>
      <trkpt lat="37.9788450" lon="-5.6234780">
        <ele>622.2</ele>
        <time>2022-05-22T09:48:12Z</time>
      </trkpt>
      <trkpt lat="37.9788540" lon="-5.6234750">
        <ele>622.2</ele>
        <time>2022-05-22T09:48:13Z</time>
      </trkpt>
      <trkpt lat="37.9788640" lon="-5.6234710">
        <ele>622.2</ele>
        <time>2022-05-22T09:48:14Z</time>
      </trkpt>
      <trkpt lat="37.9788740" lon="-5.6234720">
        <ele>622.2</ele>
        <time>2022-05-22T09:48:15Z</time>
      </trkpt>
      <trkpt lat="37.9788830" lon="-5.6234770">
        <ele>622.2</ele>
        <time>2022-05-22T09:48:16Z</time>
      </trkpt>
      <trkpt lat="37.9788920" lon="-5.6234860">
        <ele>622.1</ele>
        <time>2022-05-22T09:48:17Z</time>
      </trkpt>
      <trkpt lat="37.9789000" lon="-5.6234930">
        <ele>622.1</ele>
        <time>2022-05-22T09:48:18Z</time>
      </trkpt>
      <trkpt lat="37.9789080" lon="-5.6235000">
        <ele>622.1</ele>
        <time>2022-05-22T09:48:19Z</time>
      </trkpt>
      <trkpt lat="37.9789160" lon="-5.6235100">
        <ele>622.1</ele>
        <time>2022-05-22T09:48:20Z</time>
      </trkpt>
      <trkpt lat="37.9789240" lon="-5.6235200">
        <ele>622.1</ele>
        <time>2022-05-22T09:48:21Z</time>
      </trkpt>
      <trkpt lat="37.9789310" lon="-5.6235290">
        <ele>622.1</ele>
        <time>2022-05-22T09:48:22Z</time>
      </trkpt>
      <trkpt lat="37.9789410" lon="-5.6235400">
        <ele>622.1</ele>
        <time>2022-05-22T09:48:23Z</time>
      </trkpt>
      <trkpt lat="37.9789580" lon="-5.6235520">
        <ele>622.1</ele>
        <time>2022-05-22T09:48:24Z</time>
      </trkpt>
      <trkpt lat="37.9789650" lon="-5.6235570">
        <ele>622.1</ele>
        <time>2022-05-22T09:48:25Z</time>
      </trkpt>
      <trkpt lat="37.9789730" lon="-5.6235620">
        <ele>622.1</ele>
        <time>2022-05-22T09:48:26Z</time>
      </trkpt>
      <trkpt lat="37.9789950" lon="-5.6235690">
        <ele>622.1</ele>
        <time>2022-05-22T09:48:27Z</time>
      </trkpt>
      <trkpt lat="37.9790040" lon="-5.6235720">
        <ele>622.1</ele>
        <time>2022-05-22T09:48:28Z</time>
      </trkpt>
      <trkpt lat="37.9790140" lon="-5.6235750">
        <ele>622.0</ele>
        <time>2022-05-22T09:48:29Z</time>
      </trkpt>
      <trkpt lat="37.9790240" lon="-5.6235770">
        <ele>622.0</ele>
        <time>2022-05-22T09:48:30Z</time>
      </trkpt>
      <trkpt lat="37.9790360" lon="-5.6235800">
        <ele>622.0</ele>
        <time>2022-05-22T09:48:31Z</time>
      </trkpt>
      <trkpt lat="37.9790480" lon="-5.6235820">
        <ele>622.0</ele>
        <time>2022-05-22T09:48:32Z</time>
      </trkpt>
      <trkpt lat="37.9790600" lon="-5.6235840">
        <ele>622.0</ele>
        <time>2022-05-22T09:48:33Z</time>
      </trkpt>
      <trkpt lat="37.9790880" lon="-5.6235880">
        <ele>622.1</ele>
        <time>2022-05-22T09:48:35Z</time>
      </trkpt>
      <trkpt lat="37.9791010" lon="-5.6235910">
        <ele>622.1</ele>
        <time>2022-05-22T09:48:36Z</time>
      </trkpt>
      <trkpt lat="37.9791140" lon="-5.6235950">
        <ele>622.1</ele>
        <time>2022-05-22T09:48:37Z</time>
      </trkpt>
      <trkpt lat="37.9791350" lon="-5.6236040">
        <ele>622.1</ele>
        <time>2022-05-22T09:48:38Z</time>
      </trkpt>
      <trkpt lat="37.9791440" lon="-5.6236080">
        <ele>622.1</ele>
        <time>2022-05-22T09:48:39Z</time>
      </trkpt>
      <trkpt lat="37.9791520" lon="-5.6236120">
        <ele>622.1</ele>
        <time>2022-05-22T09:48:40Z</time>
      </trkpt>
      <trkpt lat="37.9791700" lon="-5.6236210">
        <ele>622.1</ele>
        <time>2022-05-22T09:48:42Z</time>
      </trkpt>
      <trkpt lat="37.9791810" lon="-5.6236250">
        <ele>622.1</ele>
        <time>2022-05-22T09:48:43Z</time>
      </trkpt>
      <trkpt lat="37.9791940" lon="-5.6236280">
        <ele>622.1</ele>
        <time>2022-05-22T09:48:44Z</time>
      </trkpt>
      <trkpt lat="37.9792210" lon="-5.6236350">
        <ele>622.2</ele>
        <time>2022-05-22T09:48:46Z</time>
      </trkpt>
      <trkpt lat="37.9792320" lon="-5.6236370">
        <ele>622.2</ele>
        <time>2022-05-22T09:48:47Z</time>
      </trkpt>
      <trkpt lat="37.9792430" lon="-5.6236390">
        <ele>622.2</ele>
        <time>2022-05-22T09:48:48Z</time>
      </trkpt>
      <trkpt lat="37.9792530" lon="-5.6236420">
        <ele>622.3</ele>
        <time>2022-05-22T09:48:49Z</time>
      </trkpt>
      <trkpt lat="37.9792660" lon="-5.6236470">
        <ele>622.3</ele>
        <time>2022-05-22T09:48:50Z</time>
      </trkpt>
      <trkpt lat="37.9792800" lon="-5.6236540">
        <ele>622.3</ele>
        <time>2022-05-22T09:48:51Z</time>
      </trkpt>
      <trkpt lat="37.9792990" lon="-5.6236640">
        <ele>622.3</ele>
        <time>2022-05-22T09:48:52Z</time>
      </trkpt>
      <trkpt lat="37.9793090" lon="-5.6236700">
        <ele>622.3</ele>
        <time>2022-05-22T09:48:53Z</time>
      </trkpt>
      <trkpt lat="37.9793180" lon="-5.6236760">
        <ele>622.3</ele>
        <time>2022-05-22T09:48:54Z</time>
      </trkpt>
      <trkpt lat="37.9793410" lon="-5.6236820">
        <ele>622.3</ele>
        <time>2022-05-22T09:48:56Z</time>
      </trkpt>
      <trkpt lat="37.9793490" lon="-5.6236830">
        <ele>622.3</ele>
        <time>2022-05-22T09:48:57Z</time>
      </trkpt>
      <trkpt lat="37.9793580" lon="-5.6236830">
        <ele>622.3</ele>
        <time>2022-05-22T09:48:58Z</time>
      </trkpt>
      <trkpt lat="37.9793660" lon="-5.6236810">
        <ele>622.3</ele>
        <time>2022-05-22T09:48:59Z</time>
      </trkpt>
      <trkpt lat="37.9793730" lon="-5.6236810">
        <ele>622.3</ele>
        <time>2022-05-22T09:49:00Z</time>
      </trkpt>
      <trkpt lat="37.9793770" lon="-5.6236910">
        <ele>622.3</ele>
        <time>2022-05-22T09:49:01Z</time>
      </trkpt>
      <trkpt lat="37.9793840" lon="-5.6237040">
        <ele>622.3</ele>
        <time>2022-05-22T09:49:03Z</time>
      </trkpt>
      <trkpt lat="37.9793900" lon="-5.6237060">
        <ele>622.3</ele>
        <time>2022-05-22T09:49:04Z</time>
      </trkpt>
      <trkpt lat="37.9793960" lon="-5.6237070">
        <ele>622.3</ele>
        <time>2022-05-22T09:49:05Z</time>
      </trkpt>
      <trkpt lat="37.9794040" lon="-5.6237080">
        <ele>622.2</ele>
        <time>2022-05-22T09:49:06Z</time>
      </trkpt>
      <trkpt lat="37.9794120" lon="-5.6237130">
        <ele>622.2</ele>
        <time>2022-05-22T09:49:07Z</time>
      </trkpt>
      <trkpt lat="37.9794200" lon="-5.6237190">
        <ele>622.2</ele>
        <time>2022-05-22T09:49:08Z</time>
      </trkpt>
      <trkpt lat="37.9794320" lon="-5.6237300">
        <ele>622.2</ele>
        <time>2022-05-22T09:49:09Z</time>
      </trkpt>
      <trkpt lat="37.9794390" lon="-5.6237350">
        <ele>622.2</ele>
        <time>2022-05-22T09:49:10Z</time>
      </trkpt>
      <trkpt lat="37.9794480" lon="-5.6237410">
        <ele>622.2</ele>
        <time>2022-05-22T09:49:11Z</time>
      </trkpt>
      <trkpt lat="37.9794530" lon="-5.6237440">
        <ele>622.2</ele>
        <time>2022-05-22T09:49:12Z</time>
      </trkpt>
      <trkpt lat="37.9794580" lon="-5.6237460">
        <ele>622.2</ele>
        <time>2022-05-22T09:49:13Z</time>
      </trkpt>
      <trkpt lat="37.9794630" lon="-5.6237490">
        <ele>622.2</ele>
        <time>2022-05-22T09:49:14Z</time>
      </trkpt>
      <trkpt lat="37.9794680" lon="-5.6237510">
        <ele>622.2</ele>
        <time>2022-05-22T09:49:15Z</time>
      </trkpt>
      <trkpt lat="37.9794730" lon="-5.6237540">
        <ele>622.3</ele>
        <time>2022-05-22T09:49:16Z</time>
      </trkpt>
      <trkpt lat="37.9794810" lon="-5.6237600">
        <ele>622.3</ele>
        <time>2022-05-22T09:49:17Z</time>
      </trkpt>
      <trkpt lat="37.9794920" lon="-5.6237690">
        <ele>622.3</ele>
        <time>2022-05-22T09:49:18Z</time>
      </trkpt>
      <trkpt lat="37.9795040" lon="-5.6237740">
        <ele>622.3</ele>
        <time>2022-05-22T09:49:19Z</time>
      </trkpt>
      <trkpt lat="37.9795270" lon="-5.6237720">
        <ele>622.3</ele>
        <time>2022-05-22T09:49:20Z</time>
      </trkpt>
      <trkpt lat="37.9795350" lon="-5.6237700">
        <ele>622.2</ele>
        <time>2022-05-22T09:49:21Z</time>
      </trkpt>
      <trkpt lat="37.9795430" lon="-5.6237690">
        <ele>622.2</ele>
        <time>2022-05-22T09:49:22Z</time>
      </trkpt>
      <trkpt lat="37.9795620" lon="-5.6237780">
        <ele>622.2</ele>
        <time>2022-05-22T09:49:24Z</time>
      </trkpt>
      <trkpt lat="37.9795730" lon="-5.6237880">
        <ele>622.2</ele>
        <time>2022-05-22T09:49:25Z</time>
      </trkpt>
      <trkpt lat="37.9795870" lon="-5.6238030">
        <ele>622.1</ele>
        <time>2022-05-22T09:49:26Z</time>
      </trkpt>
      <trkpt lat="37.9795980" lon="-5.6238120">
        <ele>622.1</ele>
        <time>2022-05-22T09:49:27Z</time>
      </trkpt>
      <trkpt lat="37.9796140" lon="-5.6238270">
        <ele>622.1</ele>
        <time>2022-05-22T09:49:29Z</time>
      </trkpt>
      <trkpt lat="37.9796260" lon="-5.6238360">
        <ele>622.0</ele>
        <time>2022-05-22T09:49:30Z</time>
      </trkpt>
      <trkpt lat="37.9796400" lon="-5.6238440">
        <ele>622.0</ele>
        <time>2022-05-22T09:49:31Z</time>
      </trkpt>
      <trkpt lat="37.9796540" lon="-5.6238520">
        <ele>622.0</ele>
        <time>2022-05-22T09:49:32Z</time>
      </trkpt>
      <trkpt lat="37.9796810" lon="-5.6238660">
        <ele>622.0</ele>
        <time>2022-05-22T09:49:34Z</time>
      </trkpt>
      <trkpt lat="37.9796880" lon="-5.6238690">
        <ele>622.0</ele>
        <time>2022-05-22T09:49:35Z</time>
      </trkpt>
      <trkpt lat="37.9797010" lon="-5.6238730">
        <ele>622.0</ele>
        <time>2022-05-22T09:49:36Z</time>
      </trkpt>
      <trkpt lat="37.9797170" lon="-5.6238760">
        <ele>622.0</ele>
        <time>2022-05-22T09:49:37Z</time>
      </trkpt>
      <trkpt lat="37.9797340" lon="-5.6238710">
        <ele>622.0</ele>
        <time>2022-05-22T09:49:38Z</time>
      </trkpt>
      <trkpt lat="37.9797450" lon="-5.6238710">
        <ele>622.0</ele>
        <time>2022-05-22T09:49:39Z</time>
      </trkpt>
      <trkpt lat="37.9797620" lon="-5.6238810">
        <ele>622.0</ele>
        <time>2022-05-22T09:49:41Z</time>
      </trkpt>
      <trkpt lat="37.9797710" lon="-5.6238890">
        <ele>621.9</ele>
        <time>2022-05-22T09:49:42Z</time>
      </trkpt>
      <trkpt lat="37.9797820" lon="-5.6238950">
        <ele>621.9</ele>
        <time>2022-05-22T09:49:43Z</time>
      </trkpt>
      <trkpt lat="37.9797910" lon="-5.6239000">
        <ele>621.9</ele>
        <time>2022-05-22T09:49:44Z</time>
      </trkpt>
      <trkpt lat="37.9798150" lon="-5.6239110">
        <ele>621.9</ele>
        <time>2022-05-22T09:49:46Z</time>
      </trkpt>
      <trkpt lat="37.9798280" lon="-5.6239170">
        <ele>621.9</ele>
        <time>2022-05-22T09:49:47Z</time>
      </trkpt>
      <trkpt lat="37.9798440" lon="-5.6239200">
        <ele>621.9</ele>
        <time>2022-05-22T09:49:48Z</time>
      </trkpt>
      <trkpt lat="37.9798730" lon="-5.6239290">
        <ele>621.9</ele>
        <time>2022-05-22T09:49:50Z</time>
      </trkpt>
      <trkpt lat="37.9798880" lon="-5.6239330">
        <ele>621.9</ele>
        <time>2022-05-22T09:49:51Z</time>
      </trkpt>
      <trkpt lat="37.9799020" lon="-5.6239350">
        <ele>621.9</ele>
        <time>2022-05-22T09:49:52Z</time>
      </trkpt>
      <trkpt lat="37.9799160" lon="-5.6239370">
        <ele>621.9</ele>
        <time>2022-05-22T09:49:53Z</time>
      </trkpt>
      <trkpt lat="37.9799420" lon="-5.6239400">
        <ele>621.9</ele>
        <time>2022-05-22T09:49:55Z</time>
      </trkpt>
      <trkpt lat="37.9799640" lon="-5.6239470">
        <ele>621.9</ele>
        <time>2022-05-22T09:49:56Z</time>
      </trkpt>
      <trkpt lat="37.9799730" lon="-5.6239500">
        <ele>621.9</ele>
        <time>2022-05-22T09:49:57Z</time>
      </trkpt>
      <trkpt lat="37.9799810" lon="-5.6239520">
        <ele>621.9</ele>
        <time>2022-05-22T09:49:58Z</time>
      </trkpt>
      <trkpt lat="37.9800000" lon="-5.6239560">
        <ele>621.9</ele>
        <time>2022-05-22T09:49:59Z</time>
      </trkpt>
      <trkpt lat="37.9800260" lon="-5.6239600">
        <ele>621.9</ele>
        <time>2022-05-22T09:50:01Z</time>
      </trkpt>
      <trkpt lat="37.9800450" lon="-5.6239670">
        <ele>621.9</ele>
        <time>2022-05-22T09:50:02Z</time>
      </trkpt>
      <trkpt lat="37.9800530" lon="-5.6239710">
        <ele>621.9</ele>
        <time>2022-05-22T09:50:03Z</time>
      </trkpt>
      <trkpt lat="37.9800610" lon="-5.6239740">
        <ele>621.9</ele>
        <time>2022-05-22T09:50:04Z</time>
      </trkpt>
      <trkpt lat="37.9800780" lon="-5.6239750">
        <ele>621.9</ele>
        <time>2022-05-22T09:50:05Z</time>
      </trkpt>
      <trkpt lat="37.9800950" lon="-5.6239760">
        <ele>621.9</ele>
        <time>2022-05-22T09:50:06Z</time>
      </trkpt>
      <trkpt lat="37.9801160" lon="-5.6239810">
        <ele>621.9</ele>
        <time>2022-05-22T09:50:07Z</time>
      </trkpt>
      <trkpt lat="37.9801230" lon="-5.6239840">
        <ele>621.9</ele>
        <time>2022-05-22T09:50:08Z</time>
      </trkpt>
      <trkpt lat="37.9801300" lon="-5.6239870">
        <ele>621.9</ele>
        <time>2022-05-22T09:50:09Z</time>
      </trkpt>
      <trkpt lat="37.9801400" lon="-5.6239930">
        <ele>621.9</ele>
        <time>2022-05-22T09:50:10Z</time>
      </trkpt>
      <trkpt lat="37.9801490" lon="-5.6239980">
        <ele>621.9</ele>
        <time>2022-05-22T09:50:11Z</time>
      </trkpt>
      <trkpt lat="37.9801570" lon="-5.6240030">
        <ele>621.9</ele>
        <time>2022-05-22T09:50:12Z</time>
      </trkpt>
      <trkpt lat="37.9801680" lon="-5.6240080">
        <ele>621.9</ele>
        <time>2022-05-22T09:50:13Z</time>
      </trkpt>
      <trkpt lat="37.9801790" lon="-5.6240130">
        <ele>621.9</ele>
        <time>2022-05-22T09:50:14Z</time>
      </trkpt>
      <trkpt lat="37.9801890" lon="-5.6240170">
        <ele>621.8</ele>
        <time>2022-05-22T09:50:15Z</time>
      </trkpt>
      <trkpt lat="37.9802040" lon="-5.6240120">
        <ele>621.8</ele>
        <time>2022-05-22T09:50:16Z</time>
      </trkpt>
      <trkpt lat="37.9802160" lon="-5.6240090">
        <ele>621.8</ele>
        <time>2022-05-22T09:50:17Z</time>
      </trkpt>
      <trkpt lat="37.9802280" lon="-5.6240110">
        <ele>621.8</ele>
        <time>2022-05-22T09:50:18Z</time>
      </trkpt>
      <trkpt lat="37.9802510" lon="-5.6240200">
        <ele>621.8</ele>
        <time>2022-05-22T09:50:20Z</time>
      </trkpt>
      <trkpt lat="37.9802660" lon="-5.6240250">
        <ele>621.8</ele>
        <time>2022-05-22T09:50:21Z</time>
      </trkpt>
      <trkpt lat="37.9802800" lon="-5.6240280">
        <ele>621.8</ele>
        <time>2022-05-22T09:50:22Z</time>
      </trkpt>
      <trkpt lat="37.9802950" lon="-5.6240280">
        <ele>621.8</ele>
        <time>2022-05-22T09:50:23Z</time>
      </trkpt>
      <trkpt lat="37.9803080" lon="-5.6240290">
        <ele>621.8</ele>
        <time>2022-05-22T09:50:24Z</time>
      </trkpt>
      <trkpt lat="37.9803280" lon="-5.6240350">
        <ele>621.8</ele>
        <time>2022-05-22T09:50:25Z</time>
      </trkpt>
      <trkpt lat="37.9803360" lon="-5.6240380">
        <ele>621.8</ele>
        <time>2022-05-22T09:50:26Z</time>
      </trkpt>
      <trkpt lat="37.9803440" lon="-5.6240410">
        <ele>621.8</ele>
        <time>2022-05-22T09:50:27Z</time>
      </trkpt>
      <trkpt lat="37.9803550" lon="-5.6240450">
        <ele>621.8</ele>
        <time>2022-05-22T09:50:28Z</time>
      </trkpt>
      <trkpt lat="37.9803670" lon="-5.6240480">
        <ele>621.8</ele>
        <time>2022-05-22T09:50:29Z</time>
      </trkpt>
      <trkpt lat="37.9803890" lon="-5.6240530">
        <ele>621.8</ele>
        <time>2022-05-22T09:50:31Z</time>
      </trkpt>
      <trkpt lat="37.9804080" lon="-5.6240530">
        <ele>621.8</ele>
        <time>2022-05-22T09:50:32Z</time>
      </trkpt>
      <trkpt lat="37.9804180" lon="-5.6240520">
        <ele>621.8</ele>
        <time>2022-05-22T09:50:33Z</time>
      </trkpt>
      <trkpt lat="37.9804270" lon="-5.6240510">
        <ele>621.8</ele>
        <time>2022-05-22T09:50:34Z</time>
      </trkpt>
      <trkpt lat="37.9804500" lon="-5.6240540">
        <ele>621.8</ele>
        <time>2022-05-22T09:50:36Z</time>
      </trkpt>
      <trkpt lat="37.9804580" lon="-5.6240570">
        <ele>621.8</ele>
        <time>2022-05-22T09:50:37Z</time>
      </trkpt>
      <trkpt lat="37.9804650" lon="-5.6240610">
        <ele>621.8</ele>
        <time>2022-05-22T09:50:38Z</time>
      </trkpt>
      <trkpt lat="37.9804740" lon="-5.6240660">
        <ele>621.8</ele>
        <time>2022-05-22T09:50:39Z</time>
      </trkpt>
      <trkpt lat="37.9804780" lon="-5.6240710">
        <ele>621.8</ele>
        <time>2022-05-22T09:50:40Z</time>
      </trkpt>
      <trkpt lat="37.9804840" lon="-5.6240740">
        <ele>621.8</ele>
        <time>2022-05-22T09:50:41Z</time>
      </trkpt>
      <trkpt lat="37.9804920" lon="-5.6240750">
        <ele>621.8</ele>
        <time>2022-05-22T09:50:43Z</time>
      </trkpt>
      <trkpt lat="37.9805040" lon="-5.6240750">
        <ele>621.8</ele>
        <time>2022-05-22T09:50:44Z</time>
      </trkpt>
      <trkpt lat="37.9805120" lon="-5.6240740">
        <ele>621.8</ele>
        <time>2022-05-22T09:50:45Z</time>
      </trkpt>
      <trkpt lat="37.9805200" lon="-5.6240730">
        <ele>621.8</ele>
        <time>2022-05-22T09:50:46Z</time>
      </trkpt>
      <trkpt lat="37.9805290" lon="-5.6240750">
        <ele>621.8</ele>
        <time>2022-05-22T09:50:47Z</time>
      </trkpt>
      <trkpt lat="37.9805370" lon="-5.6240760">
        <ele>621.8</ele>
        <time>2022-05-22T09:50:48Z</time>
      </trkpt>
      <trkpt lat="37.9805520" lon="-5.6240830">
        <ele>621.8</ele>
        <time>2022-05-22T09:50:49Z</time>
      </trkpt>
      <trkpt lat="37.9805630" lon="-5.6240860">
        <ele>621.8</ele>
        <time>2022-05-22T09:50:51Z</time>
      </trkpt>
      <trkpt lat="37.9805730" lon="-5.6240880">
        <ele>621.8</ele>
        <time>2022-05-22T09:50:52Z</time>
      </trkpt>
      <trkpt lat="37.9805860" lon="-5.6240890">
        <ele>621.8</ele>
        <time>2022-05-22T09:50:53Z</time>
      </trkpt>
      <trkpt lat="37.9806140" lon="-5.6240950">
        <ele>621.8</ele>
        <time>2022-05-22T09:50:54Z</time>
      </trkpt>
      <trkpt lat="37.9806250" lon="-5.6240980">
        <ele>621.8</ele>
        <time>2022-05-22T09:50:55Z</time>
      </trkpt>
      <trkpt lat="37.9806400" lon="-5.6241020">
        <ele>621.8</ele>
        <time>2022-05-22T09:50:56Z</time>
      </trkpt>
      <trkpt lat="37.9806540" lon="-5.6241050">
        <ele>621.8</ele>
        <time>2022-05-22T09:50:57Z</time>
      </trkpt>
      <trkpt lat="37.9806670" lon="-5.6241090">
        <ele>621.8</ele>
        <time>2022-05-22T09:50:58Z</time>
      </trkpt>
      <trkpt lat="37.9806830" lon="-5.6241160">
        <ele>621.8</ele>
        <time>2022-05-22T09:50:59Z</time>
      </trkpt>
      <trkpt lat="37.9807070" lon="-5.6241230">
        <ele>621.7</ele>
        <time>2022-05-22T09:51:00Z</time>
      </trkpt>
      <trkpt lat="37.9807180" lon="-5.6241280">
        <ele>621.7</ele>
        <time>2022-05-22T09:51:01Z</time>
      </trkpt>
      <trkpt lat="37.9807340" lon="-5.6241330">
        <ele>621.7</ele>
        <time>2022-05-22T09:51:02Z</time>
      </trkpt>
      <trkpt lat="37.9807500" lon="-5.6241450">
        <ele>621.7</ele>
        <time>2022-05-22T09:51:03Z</time>
      </trkpt>
      <trkpt lat="37.9807610" lon="-5.6241540">
        <ele>621.7</ele>
        <time>2022-05-22T09:51:04Z</time>
      </trkpt>
      <trkpt lat="37.9807760" lon="-5.6241630">
        <ele>621.7</ele>
        <time>2022-05-22T09:51:05Z</time>
      </trkpt>
      <trkpt lat="37.9808090" lon="-5.6241690">
        <ele>621.6</ele>
        <time>2022-05-22T09:51:07Z</time>
      </trkpt>
      <trkpt lat="37.9808380" lon="-5.6241580">
        <ele>621.6</ele>
        <time>2022-05-22T09:51:09Z</time>
      </trkpt>
      <trkpt lat="37.9808510" lon="-5.6241570">
        <ele>621.6</ele>
        <time>2022-05-22T09:51:10Z</time>
      </trkpt>
      <trkpt lat="37.9808620" lon="-5.6241560">
        <ele>621.5</ele>
        <time>2022-05-22T09:51:11Z</time>
      </trkpt>
      <trkpt lat="37.9808740" lon="-5.6241530">
        <ele>621.5</ele>
        <time>2022-05-22T09:51:12Z</time>
      </trkpt>
      <trkpt lat="37.9808850" lon="-5.6241560">
        <ele>621.5</ele>
        <time>2022-05-22T09:51:13Z</time>
      </trkpt>
      <trkpt lat="37.9808960" lon="-5.6241580">
        <ele>621.5</ele>
        <time>2022-05-22T09:51:14Z</time>
      </trkpt>
      <trkpt lat="37.9809050" lon="-5.6241590">
        <ele>621.5</ele>
        <time>2022-05-22T09:51:15Z</time>
      </trkpt>
      <trkpt lat="37.9809150" lon="-5.6241620">
        <ele>621.4</ele>
        <time>2022-05-22T09:51:16Z</time>
      </trkpt>
      <trkpt lat="37.9809260" lon="-5.6241650">
        <ele>621.4</ele>
        <time>2022-05-22T09:51:17Z</time>
      </trkpt>
      <trkpt lat="37.9809400" lon="-5.6241670">
        <ele>621.4</ele>
        <time>2022-05-22T09:51:18Z</time>
      </trkpt>
      <trkpt lat="37.9809510" lon="-5.6241790">
        <ele>621.4</ele>
        <time>2022-05-22T09:51:19Z</time>
      </trkpt>
      <trkpt lat="37.9809610" lon="-5.6241950">
        <ele>621.3</ele>
        <time>2022-05-22T09:51:20Z</time>
      </trkpt>
      <trkpt lat="37.9809770" lon="-5.6242170">
        <ele>621.3</ele>
        <time>2022-05-22T09:51:21Z</time>
      </trkpt>
      <trkpt lat="37.9809850" lon="-5.6242270">
        <ele>621.3</ele>
        <time>2022-05-22T09:51:22Z</time>
      </trkpt>
      <trkpt lat="37.9809930" lon="-5.6242370">
        <ele>621.3</ele>
        <time>2022-05-22T09:51:23Z</time>
      </trkpt>
      <trkpt lat="37.9810050" lon="-5.6242600">
        <ele>621.2</ele>
        <time>2022-05-22T09:51:25Z</time>
      </trkpt>
      <trkpt lat="37.9810130" lon="-5.6242730">
        <ele>621.2</ele>
        <time>2022-05-22T09:51:26Z</time>
      </trkpt>
      <trkpt lat="37.9810250" lon="-5.6242840">
        <ele>621.2</ele>
        <time>2022-05-22T09:51:27Z</time>
      </trkpt>
      <trkpt lat="37.9810370" lon="-5.6242920">
        <ele>621.1</ele>
        <time>2022-05-22T09:51:28Z</time>
      </trkpt>
      <trkpt lat="37.9810590" lon="-5.6242950">
        <ele>621.1</ele>
        <time>2022-05-22T09:51:29Z</time>
      </trkpt>
      <trkpt lat="37.9810690" lon="-5.6242990">
        <ele>621.1</ele>
        <time>2022-05-22T09:51:30Z</time>
      </trkpt>
      <trkpt lat="37.9810820" lon="-5.6243020">
        <ele>621.1</ele>
        <time>2022-05-22T09:51:31Z</time>
      </trkpt>
      <trkpt lat="37.9811000" lon="-5.6243010">
        <ele>621.0</ele>
        <time>2022-05-22T09:51:32Z</time>
      </trkpt>
      <trkpt lat="37.9811130" lon="-5.6243050">
        <ele>621.0</ele>
        <time>2022-05-22T09:51:33Z</time>
      </trkpt>
      <trkpt lat="37.9811360" lon="-5.6243160">
        <ele>620.9</ele>
        <time>2022-05-22T09:51:35Z</time>
      </trkpt>
      <trkpt lat="37.9811500" lon="-5.6243230">
        <ele>620.9</ele>
        <time>2022-05-22T09:51:36Z</time>
      </trkpt>
      <trkpt lat="37.9811680" lon="-5.6243270">
        <ele>620.9</ele>
        <time>2022-05-22T09:51:37Z</time>
      </trkpt>
      <trkpt lat="37.9811830" lon="-5.6243340">
        <ele>620.8</ele>
        <time>2022-05-22T09:51:38Z</time>
      </trkpt>
      <trkpt lat="37.9811980" lon="-5.6243400">
        <ele>620.8</ele>
        <time>2022-05-22T09:51:40Z</time>
      </trkpt>
      <trkpt lat="37.9812170" lon="-5.6243580">
        <ele>620.8</ele>
        <time>2022-05-22T09:51:41Z</time>
      </trkpt>
      <trkpt lat="37.9812290" lon="-5.6243630">
        <ele>620.7</ele>
        <time>2022-05-22T09:51:42Z</time>
      </trkpt>
      <trkpt lat="37.9812710" lon="-5.6243520">
        <ele>620.7</ele>
        <time>2022-05-22T09:51:44Z</time>
      </trkpt>
      <trkpt lat="37.9812830" lon="-5.6243470">
        <ele>620.6</ele>
        <time>2022-05-22T09:51:45Z</time>
      </trkpt>
      <trkpt lat="37.9812950" lon="-5.6243420">
        <ele>620.6</ele>
        <time>2022-05-22T09:51:46Z</time>
      </trkpt>
      <trkpt lat="37.9813120" lon="-5.6243410">
        <ele>620.6</ele>
        <time>2022-05-22T09:51:47Z</time>
      </trkpt>
      <trkpt lat="37.9813280" lon="-5.6243450">
        <ele>620.5</ele>
        <time>2022-05-22T09:51:48Z</time>
      </trkpt>
      <trkpt lat="37.9813570" lon="-5.6243630">
        <ele>620.5</ele>
        <time>2022-05-22T09:51:50Z</time>
      </trkpt>
      <trkpt lat="37.9813700" lon="-5.6243680">
        <ele>620.4</ele>
        <time>2022-05-22T09:51:51Z</time>
      </trkpt>
      <trkpt lat="37.9813900" lon="-5.6243750">
        <ele>620.4</ele>
        <time>2022-05-22T09:51:52Z</time>
      </trkpt>
      <trkpt lat="37.9814360" lon="-5.6243870">
        <ele>620.3</ele>
        <time>2022-05-22T09:51:54Z</time>
      </trkpt>
      <trkpt lat="37.9814650" lon="-5.6243910">
        <ele>620.2</ele>
        <time>2022-05-22T09:51:55Z</time>
      </trkpt>
      <trkpt lat="37.9814740" lon="-5.6243920">
        <ele>620.2</ele>
        <time>2022-05-22T09:51:56Z</time>
      </trkpt>
      <trkpt lat="37.9814890" lon="-5.6243940">
        <ele>620.2</ele>
        <time>2022-05-22T09:51:57Z</time>
      </trkpt>
      <trkpt lat="37.9815010" lon="-5.6243950">
        <ele>620.2</ele>
        <time>2022-05-22T09:51:58Z</time>
      </trkpt>
      <trkpt lat="37.9815230" lon="-5.6243970">
        <ele>620.1</ele>
        <time>2022-05-22T09:51:59Z</time>
      </trkpt>
      <trkpt lat="37.9815310" lon="-5.6243980">
        <ele>620.1</ele>
        <time>2022-05-22T09:52:00Z</time>
      </trkpt>
      <trkpt lat="37.9815390" lon="-5.6243990">
        <ele>620.1</ele>
        <time>2022-05-22T09:52:01Z</time>
      </trkpt>
      <trkpt lat="37.9815510" lon="-5.6244020">
        <ele>620.1</ele>
        <time>2022-05-22T09:52:02Z</time>
      </trkpt>
      <trkpt lat="37.9815720" lon="-5.6244090">
        <ele>620.0</ele>
        <time>2022-05-22T09:52:04Z</time>
      </trkpt>
      <trkpt lat="37.9815890" lon="-5.6244140">
        <ele>620.0</ele>
        <time>2022-05-22T09:52:05Z</time>
      </trkpt>
      <trkpt lat="37.9815970" lon="-5.6244170">
        <ele>620.0</ele>
        <time>2022-05-22T09:52:06Z</time>
      </trkpt>
      <trkpt lat="37.9816060" lon="-5.6244240">
        <ele>620.0</ele>
        <time>2022-05-22T09:52:07Z</time>
      </trkpt>
      <trkpt lat="37.9816260" lon="-5.6244360">
        <ele>619.9</ele>
        <time>2022-05-22T09:52:09Z</time>
      </trkpt>
      <trkpt lat="37.9816360" lon="-5.6244480">
        <ele>619.9</ele>
        <time>2022-05-22T09:52:10Z</time>
      </trkpt>
      <trkpt lat="37.9816520" lon="-5.6244620">
        <ele>619.9</ele>
        <time>2022-05-22T09:52:11Z</time>
      </trkpt>
      <trkpt lat="37.9816600" lon="-5.6244680">
        <ele>619.8</ele>
        <time>2022-05-22T09:52:12Z</time>
      </trkpt>
      <trkpt lat="37.9816670" lon="-5.6244740">
        <ele>619.8</ele>
        <time>2022-05-22T09:52:13Z</time>
      </trkpt>
      <trkpt lat="37.9816870" lon="-5.6244840">
        <ele>619.8</ele>
        <time>2022-05-22T09:52:14Z</time>
      </trkpt>
      <trkpt lat="37.9816970" lon="-5.6244880">
        <ele>619.8</ele>
        <time>2022-05-22T09:52:15Z</time>
      </trkpt>
      <trkpt lat="37.9817060" lon="-5.6244920">
        <ele>619.7</ele>
        <time>2022-05-22T09:52:16Z</time>
      </trkpt>
      <trkpt lat="37.9817280" lon="-5.6245010">
        <ele>619.7</ele>
        <time>2022-05-22T09:52:17Z</time>
      </trkpt>
      <trkpt lat="37.9817370" lon="-5.6245060">
        <ele>619.7</ele>
        <time>2022-05-22T09:52:19Z</time>
      </trkpt>
      <trkpt lat="37.9817470" lon="-5.6245120">
        <ele>619.7</ele>
        <time>2022-05-22T09:52:20Z</time>
      </trkpt>
      <trkpt lat="37.9817570" lon="-5.6245180">
        <ele>619.6</ele>
        <time>2022-05-22T09:52:21Z</time>
      </trkpt>
      <trkpt lat="37.9817670" lon="-5.6245240">
        <ele>619.6</ele>
        <time>2022-05-22T09:52:22Z</time>
      </trkpt>
      <trkpt lat="37.9817760" lon="-5.6245310">
        <ele>619.6</ele>
        <time>2022-05-22T09:52:23Z</time>
      </trkpt>
      <trkpt lat="37.9817850" lon="-5.6245390">
        <ele>619.6</ele>
        <time>2022-05-22T09:52:24Z</time>
      </trkpt>
      <trkpt lat="37.9817950" lon="-5.6245490">
        <ele>619.6</ele>
        <time>2022-05-22T09:52:25Z</time>
      </trkpt>
      <trkpt lat="37.9818040" lon="-5.6245550">
        <ele>619.5</ele>
        <time>2022-05-22T09:52:26Z</time>
      </trkpt>
      <trkpt lat="37.9818220" lon="-5.6245650">
        <ele>619.5</ele>
        <time>2022-05-22T09:52:28Z</time>
      </trkpt>
      <trkpt lat="37.9818380" lon="-5.6245720">
        <ele>619.5</ele>
        <time>2022-05-22T09:52:30Z</time>
      </trkpt>
      <trkpt lat="37.9818480" lon="-5.6245750">
        <ele>619.5</ele>
        <time>2022-05-22T09:52:31Z</time>
      </trkpt>
      <trkpt lat="37.9818700" lon="-5.6245840">
        <ele>619.4</ele>
        <time>2022-05-22T09:52:32Z</time>
      </trkpt>
      <trkpt lat="37.9818800" lon="-5.6245880">
        <ele>619.4</ele>
        <time>2022-05-22T09:52:33Z</time>
      </trkpt>
      <trkpt lat="37.9818900" lon="-5.6245920">
        <ele>619.4</ele>
        <time>2022-05-22T09:52:34Z</time>
      </trkpt>
      <trkpt lat="37.9818990" lon="-5.6245960">
        <ele>619.4</ele>
        <time>2022-05-22T09:52:35Z</time>
      </trkpt>
      <trkpt lat="37.9819100" lon="-5.6246010">
        <ele>619.4</ele>
        <time>2022-05-22T09:52:36Z</time>
      </trkpt>
      <trkpt lat="37.9819380" lon="-5.6246100">
        <ele>619.3</ele>
        <time>2022-05-22T09:52:37Z</time>
      </trkpt>
      <trkpt lat="37.9819630" lon="-5.6246190">
        <ele>619.3</ele>
        <time>2022-05-22T09:52:39Z</time>
      </trkpt>
      <trkpt lat="37.9819740" lon="-5.6246230">
        <ele>619.2</ele>
        <time>2022-05-22T09:52:40Z</time>
      </trkpt>
      <trkpt lat="37.9819860" lon="-5.6246270">
        <ele>619.2</ele>
        <time>2022-05-22T09:52:41Z</time>
      </trkpt>
      <trkpt lat="37.9820010" lon="-5.6246320">
        <ele>619.2</ele>
        <time>2022-05-22T09:52:42Z</time>
      </trkpt>
      <trkpt lat="37.9820150" lon="-5.6246370">
        <ele>619.2</ele>
        <time>2022-05-22T09:52:43Z</time>
      </trkpt>
      <trkpt lat="37.9820370" lon="-5.6246440">
        <ele>619.1</ele>
        <time>2022-05-22T09:52:44Z</time>
      </trkpt>
      <trkpt lat="37.9820630" lon="-5.6246490">
        <ele>619.1</ele>
        <time>2022-05-22T09:52:46Z</time>
      </trkpt>
      <trkpt lat="37.9820840" lon="-5.6246590">
        <ele>619.1</ele>
        <time>2022-05-22T09:52:47Z</time>
      </trkpt>
      <trkpt lat="37.9820920" lon="-5.6246650">
        <ele>619.1</ele>
        <time>2022-05-22T09:52:48Z</time>
      </trkpt>
      <trkpt lat="37.9821010" lon="-5.6246710">
        <ele>619.0</ele>
        <time>2022-05-22T09:52:49Z</time>
      </trkpt>
      <trkpt lat="37.9821180" lon="-5.6246870">
        <ele>619.0</ele>
        <time>2022-05-22T09:52:50Z</time>
      </trkpt>
      <trkpt lat="37.9821230" lon="-5.6246960">
        <ele>619.0</ele>
        <time>2022-05-22T09:52:52Z</time>
      </trkpt>
      <trkpt lat="37.9821290" lon="-5.6247040">
        <ele>619.0</ele>
        <time>2022-05-22T09:52:53Z</time>
      </trkpt>
      <trkpt lat="37.9821340" lon="-5.6247130">
        <ele>619.0</ele>
        <time>2022-05-22T09:52:54Z</time>
      </trkpt>
      <trkpt lat="37.9821400" lon="-5.6247220">
        <ele>619.0</ele>
        <time>2022-05-22T09:52:55Z</time>
      </trkpt>
      <trkpt lat="37.9821450" lon="-5.6247310">
        <ele>619.0</ele>
        <time>2022-05-22T09:52:56Z</time>
      </trkpt>
      <trkpt lat="37.9821520" lon="-5.6247390">
        <ele>618.9</ele>
        <time>2022-05-22T09:52:57Z</time>
      </trkpt>
      <trkpt lat="37.9821590" lon="-5.6247490">
        <ele>618.9</ele>
        <time>2022-05-22T09:52:58Z</time>
      </trkpt>
      <trkpt lat="37.9821650" lon="-5.6247590">
        <ele>618.9</ele>
        <time>2022-05-22T09:52:59Z</time>
      </trkpt>
      <trkpt lat="37.9821800" lon="-5.6247740">
        <ele>618.9</ele>
        <time>2022-05-22T09:53:00Z</time>
      </trkpt>
      <trkpt lat="37.9821880" lon="-5.6247810">
        <ele>618.9</ele>
        <time>2022-05-22T09:53:01Z</time>
      </trkpt>
      <trkpt lat="37.9821960" lon="-5.6247880">
        <ele>618.9</ele>
        <time>2022-05-22T09:53:02Z</time>
      </trkpt>
      <trkpt lat="37.9822200" lon="-5.6248090">
        <ele>618.8</ele>
        <time>2022-05-22T09:53:04Z</time>
      </trkpt>
      <trkpt lat="37.9822260" lon="-5.6248130">
        <ele>618.8</ele>
        <time>2022-05-22T09:53:05Z</time>
      </trkpt>
      <trkpt lat="37.9822410" lon="-5.6248230">
        <ele>618.8</ele>
        <time>2022-05-22T09:53:06Z</time>
      </trkpt>
      <trkpt lat="37.9822620" lon="-5.6248350">
        <ele>618.8</ele>
        <time>2022-05-22T09:53:08Z</time>
      </trkpt>
      <trkpt lat="37.9822820" lon="-5.6248480">
        <ele>618.7</ele>
        <time>2022-05-22T09:53:09Z</time>
      </trkpt>
      <trkpt lat="37.9822910" lon="-5.6248530">
        <ele>618.7</ele>
        <time>2022-05-22T09:53:10Z</time>
      </trkpt>
      <trkpt lat="37.9822990" lon="-5.6248590">
        <ele>618.7</ele>
        <time>2022-05-22T09:53:11Z</time>
      </trkpt>
      <trkpt lat="37.9823110" lon="-5.6248640">
        <ele>618.7</ele>
        <time>2022-05-22T09:53:12Z</time>
      </trkpt>
      <trkpt lat="37.9823260" lon="-5.6248690">
        <ele>618.7</ele>
        <time>2022-05-22T09:53:13Z</time>
      </trkpt>
      <trkpt lat="37.9823350" lon="-5.6248750">
        <ele>618.6</ele>
        <time>2022-05-22T09:53:14Z</time>
      </trkpt>
      <trkpt lat="37.9823480" lon="-5.6248770">
        <ele>618.6</ele>
        <time>2022-05-22T09:53:15Z</time>
      </trkpt>
      <trkpt lat="37.9823570" lon="-5.6248810">
        <ele>618.6</ele>
        <time>2022-05-22T09:53:16Z</time>
      </trkpt>
      <trkpt lat="37.9823790" lon="-5.6248920">
        <ele>618.6</ele>
        <time>2022-05-22T09:53:17Z</time>
      </trkpt>
      <trkpt lat="37.9823890" lon="-5.6248970">
        <ele>618.5</ele>
        <time>2022-05-22T09:53:18Z</time>
      </trkpt>
      <trkpt lat="37.9823990" lon="-5.6249020">
        <ele>618.5</ele>
        <time>2022-05-22T09:53:19Z</time>
      </trkpt>
      <trkpt lat="37.9824100" lon="-5.6249080">
        <ele>618.5</ele>
        <time>2022-05-22T09:53:20Z</time>
      </trkpt>
      <trkpt lat="37.9824270" lon="-5.6249130">
        <ele>618.5</ele>
        <time>2022-05-22T09:53:21Z</time>
      </trkpt>
      <trkpt lat="37.9824390" lon="-5.6249210">
        <ele>618.4</ele>
        <time>2022-05-22T09:53:22Z</time>
      </trkpt>
      <trkpt lat="37.9824510" lon="-5.6249310">
        <ele>618.4</ele>
        <time>2022-05-22T09:53:23Z</time>
      </trkpt>
      <trkpt lat="37.9824640" lon="-5.6249410">
        <ele>618.4</ele>
        <time>2022-05-22T09:53:24Z</time>
      </trkpt>
      <trkpt lat="37.9824760" lon="-5.6249500">
        <ele>618.3</ele>
        <time>2022-05-22T09:53:25Z</time>
      </trkpt>
      <trkpt lat="37.9824890" lon="-5.6249600">
        <ele>618.3</ele>
        <time>2022-05-22T09:53:26Z</time>
      </trkpt>
      <trkpt lat="37.9825000" lon="-5.6249680">
        <ele>618.3</ele>
        <time>2022-05-22T09:53:27Z</time>
      </trkpt>
      <trkpt lat="37.9825260" lon="-5.6249960">
        <ele>618.2</ele>
        <time>2022-05-22T09:53:29Z</time>
      </trkpt>
      <trkpt lat="37.9825330" lon="-5.6250040">
        <ele>618.2</ele>
        <time>2022-05-22T09:53:30Z</time>
      </trkpt>
      <trkpt lat="37.9825440" lon="-5.6250130">
        <ele>618.2</ele>
        <time>2022-05-22T09:53:31Z</time>
      </trkpt>
      <trkpt lat="37.9825560" lon="-5.6250210">
        <ele>618.2</ele>
        <time>2022-05-22T09:53:32Z</time>
      </trkpt>
      <trkpt lat="37.9825870" lon="-5.6250340">
        <ele>618.1</ele>
        <time>2022-05-22T09:53:34Z</time>
      </trkpt>
      <trkpt lat="37.9825940" lon="-5.6250360">
        <ele>618.1</ele>
        <time>2022-05-22T09:53:35Z</time>
      </trkpt>
      <trkpt lat="37.9826120" lon="-5.6250430">
        <ele>618.0</ele>
        <time>2022-05-22T09:53:36Z</time>
      </trkpt>
      <trkpt lat="37.9826250" lon="-5.6250470">
        <ele>618.0</ele>
        <time>2022-05-22T09:53:37Z</time>
      </trkpt>
      <trkpt lat="37.9826380" lon="-5.6250540">
        <ele>618.0</ele>
        <time>2022-05-22T09:53:38Z</time>
      </trkpt>
      <trkpt lat="37.9826520" lon="-5.6250620">
        <ele>618.0</ele>
        <time>2022-05-22T09:53:39Z</time>
      </trkpt>
      <trkpt lat="37.9826650" lon="-5.6250700">
        <ele>617.9</ele>
        <time>2022-05-22T09:53:40Z</time>
      </trkpt>
      <trkpt lat="37.9826790" lon="-5.6250810">
        <ele>617.9</ele>
        <time>2022-05-22T09:53:41Z</time>
      </trkpt>
      <trkpt lat="37.9826910" lon="-5.6250900">
        <ele>617.9</ele>
        <time>2022-05-22T09:53:42Z</time>
      </trkpt>
      <trkpt lat="37.9827020" lon="-5.6251000">
        <ele>617.8</ele>
        <time>2022-05-22T09:53:43Z</time>
      </trkpt>
      <trkpt lat="37.9827150" lon="-5.6251130">
        <ele>617.8</ele>
        <time>2022-05-22T09:53:44Z</time>
      </trkpt>
      <trkpt lat="37.9827270" lon="-5.6251270">
        <ele>617.8</ele>
        <time>2022-05-22T09:53:45Z</time>
      </trkpt>
      <trkpt lat="37.9827480" lon="-5.6251540">
        <ele>617.7</ele>
        <time>2022-05-22T09:53:46Z</time>
      </trkpt>
      <trkpt lat="37.9827550" lon="-5.6251620">
        <ele>617.7</ele>
        <time>2022-05-22T09:53:47Z</time>
      </trkpt>
      <trkpt lat="37.9827710" lon="-5.6251770">
        <ele>617.7</ele>
        <time>2022-05-22T09:53:48Z</time>
      </trkpt>
      <trkpt lat="37.9827780" lon="-5.6251840">
        <ele>617.6</ele>
        <time>2022-05-22T09:53:49Z</time>
      </trkpt>
      <trkpt lat="37.9827850" lon="-5.6251910">
        <ele>617.6</ele>
        <time>2022-05-22T09:53:50Z</time>
      </trkpt>
      <trkpt lat="37.9828020" lon="-5.6252080">
        <ele>617.6</ele>
        <time>2022-05-22T09:53:51Z</time>
      </trkpt>
      <trkpt lat="37.9828090" lon="-5.6252150">
        <ele>617.6</ele>
        <time>2022-05-22T09:53:52Z</time>
      </trkpt>
      <trkpt lat="37.9828160" lon="-5.6252220">
        <ele>617.5</ele>
        <time>2022-05-22T09:53:53Z</time>
      </trkpt>
      <trkpt lat="37.9828270" lon="-5.6252310">
        <ele>617.5</ele>
        <time>2022-05-22T09:53:54Z</time>
      </trkpt>
      <trkpt lat="37.9828420" lon="-5.6252410">
        <ele>617.5</ele>
        <time>2022-05-22T09:53:55Z</time>
      </trkpt>
      <trkpt lat="37.9828670" lon="-5.6252620">
        <ele>617.4</ele>
        <time>2022-05-22T09:53:57Z</time>
      </trkpt>
      <trkpt lat="37.9828730" lon="-5.6252650">
        <ele>617.4</ele>
        <time>2022-05-22T09:53:58Z</time>
      </trkpt>
      <trkpt lat="37.9829010" lon="-5.6252810">
        <ele>617.3</ele>
        <time>2022-05-22T09:54:00Z</time>
      </trkpt>
      <trkpt lat="37.9829080" lon="-5.6252860">
        <ele>617.3</ele>
        <time>2022-05-22T09:54:01Z</time>
      </trkpt>
      <trkpt lat="37.9829260" lon="-5.6253010">
        <ele>617.3</ele>
        <time>2022-05-22T09:54:02Z</time>
      </trkpt>
      <trkpt lat="37.9829330" lon="-5.6253070">
        <ele>617.3</ele>
        <time>2022-05-22T09:54:03Z</time>
      </trkpt>
      <trkpt lat="37.9829400" lon="-5.6253130">
        <ele>617.2</ele>
        <time>2022-05-22T09:54:04Z</time>
      </trkpt>
      <trkpt lat="37.9829650" lon="-5.6253310">
        <ele>617.2</ele>
        <time>2022-05-22T09:54:05Z</time>
      </trkpt>
      <trkpt lat="37.9829720" lon="-5.6253360">
        <ele>617.2</ele>
        <time>2022-05-22T09:54:06Z</time>
      </trkpt>
      <trkpt lat="37.9829870" lon="-5.6253490">
        <ele>617.1</ele>
        <time>2022-05-22T09:54:08Z</time>
      </trkpt>
      <trkpt lat="37.9829960" lon="-5.6253570">
        <ele>617.1</ele>
        <time>2022-05-22T09:54:09Z</time>
      </trkpt>
      <trkpt lat="37.9830070" lon="-5.6253660">
        <ele>617.1</ele>
        <time>2022-05-22T09:54:10Z</time>
      </trkpt>
      <trkpt lat="37.9830200" lon="-5.6253750">
        <ele>617.0</ele>
        <time>2022-05-22T09:54:11Z</time>
      </trkpt>
      <trkpt lat="37.9830290" lon="-5.6253810">
        <ele>617.0</ele>
        <time>2022-05-22T09:54:12Z</time>
      </trkpt>
      <trkpt lat="37.9830450" lon="-5.6253910">
        <ele>617.0</ele>
        <time>2022-05-22T09:54:13Z</time>
      </trkpt>
      <trkpt lat="37.9830580" lon="-5.6253980">
        <ele>617.0</ele>
        <time>2022-05-22T09:54:14Z</time>
      </trkpt>
      <trkpt lat="37.9830710" lon="-5.6254060">
        <ele>616.9</ele>
        <time>2022-05-22T09:54:15Z</time>
      </trkpt>
      <trkpt lat="37.9830840" lon="-5.6254140">
        <ele>616.9</ele>
        <time>2022-05-22T09:54:16Z</time>
      </trkpt>
      <trkpt lat="37.9830950" lon="-5.6254230">
        <ele>616.9</ele>
        <time>2022-05-22T09:54:17Z</time>
      </trkpt>
      <trkpt lat="37.9831150" lon="-5.6254370">
        <ele>616.8</ele>
        <time>2022-05-22T09:54:18Z</time>
      </trkpt>
      <trkpt lat="37.9831220" lon="-5.6254430">
        <ele>616.8</ele>
        <time>2022-05-22T09:54:19Z</time>
      </trkpt>
      <trkpt lat="37.9831300" lon="-5.6254490">
        <ele>616.8</ele>
        <time>2022-05-22T09:54:20Z</time>
      </trkpt>
      <trkpt lat="37.9831400" lon="-5.6254610">
        <ele>616.8</ele>
        <time>2022-05-22T09:54:21Z</time>
      </trkpt>
      <trkpt lat="37.9831640" lon="-5.6254890">
        <ele>616.7</ele>
        <time>2022-05-22T09:54:23Z</time>
      </trkpt>
      <trkpt lat="37.9831740" lon="-5.6255030">
        <ele>616.7</ele>
        <time>2022-05-22T09:54:24Z</time>
      </trkpt>
      <trkpt lat="37.9831820" lon="-5.6255170">
        <ele>616.7</ele>
        <time>2022-05-22T09:54:25Z</time>
      </trkpt>
      <trkpt lat="37.9832040" lon="-5.6255430">
        <ele>616.6</ele>
        <time>2022-05-22T09:54:27Z</time>
      </trkpt>
      <trkpt lat="37.9832090" lon="-5.6255480">
        <ele>616.6</ele>
        <time>2022-05-22T09:54:28Z</time>
      </trkpt>
      <trkpt lat="37.9832250" lon="-5.6255620">
        <ele>616.6</ele>
        <time>2022-05-22T09:54:29Z</time>
      </trkpt>
      <trkpt lat="37.9832380" lon="-5.6255720">
        <ele>616.5</ele>
        <time>2022-05-22T09:54:30Z</time>
      </trkpt>
      <trkpt lat="37.9832640" lon="-5.6255930">
        <ele>616.5</ele>
        <time>2022-05-22T09:54:32Z</time>
      </trkpt>
      <trkpt lat="37.9832710" lon="-5.6255990">
        <ele>616.4</ele>
        <time>2022-05-22T09:54:33Z</time>
      </trkpt>
      <trkpt lat="37.9832790" lon="-5.6256090">
        <ele>616.4</ele>
        <time>2022-05-22T09:54:34Z</time>
      </trkpt>
      <trkpt lat="37.9832900" lon="-5.6256210">
        <ele>616.4</ele>
        <time>2022-05-22T09:54:35Z</time>
      </trkpt>
      <trkpt lat="37.9833030" lon="-5.6256320">
        <ele>616.4</ele>
        <time>2022-05-22T09:54:37Z</time>
      </trkpt>
      <trkpt lat="37.9833120" lon="-5.6256410">
        <ele>616.3</ele>
        <time>2022-05-22T09:54:38Z</time>
      </trkpt>
      <trkpt lat="37.9833280" lon="-5.6256550">
        <ele>616.3</ele>
        <time>2022-05-22T09:54:39Z</time>
      </trkpt>
      <trkpt lat="37.9833390" lon="-5.6256650">
        <ele>616.3</ele>
        <time>2022-05-22T09:54:40Z</time>
      </trkpt>
      <trkpt lat="37.9833520" lon="-5.6256780">
        <ele>616.2</ele>
        <time>2022-05-22T09:54:41Z</time>
      </trkpt>
      <trkpt lat="37.9833600" lon="-5.6256850">
        <ele>616.2</ele>
        <time>2022-05-22T09:54:42Z</time>
      </trkpt>
      <trkpt lat="37.9833690" lon="-5.6256930">
        <ele>616.2</ele>
        <time>2022-05-22T09:54:43Z</time>
      </trkpt>
      <trkpt lat="37.9833800" lon="-5.6257030">
        <ele>616.2</ele>
        <time>2022-05-22T09:54:44Z</time>
      </trkpt>
      <trkpt lat="37.9833970" lon="-5.6257180">
        <ele>616.1</ele>
        <time>2022-05-22T09:54:45Z</time>
      </trkpt>
      <trkpt lat="37.9834040" lon="-5.6257250">
        <ele>616.1</ele>
        <time>2022-05-22T09:54:46Z</time>
      </trkpt>
      <trkpt lat="37.9834110" lon="-5.6257310">
        <ele>616.1</ele>
        <time>2022-05-22T09:54:47Z</time>
      </trkpt>
      <trkpt lat="37.9834280" lon="-5.6257500">
        <ele>616.0</ele>
        <time>2022-05-22T09:54:48Z</time>
      </trkpt>
      <trkpt lat="37.9834350" lon="-5.6257570">
        <ele>616.0</ele>
        <time>2022-05-22T09:54:49Z</time>
      </trkpt>
      <trkpt lat="37.9834420" lon="-5.6257640">
        <ele>616.0</ele>
        <time>2022-05-22T09:54:50Z</time>
      </trkpt>
      <trkpt lat="37.9834530" lon="-5.6257760">
        <ele>616.0</ele>
        <time>2022-05-22T09:54:51Z</time>
      </trkpt>
      <trkpt lat="37.9834680" lon="-5.6258000">
        <ele>615.9</ele>
        <time>2022-05-22T09:54:53Z</time>
      </trkpt>
      <trkpt lat="37.9834850" lon="-5.6258320">
        <ele>615.9</ele>
        <time>2022-05-22T09:54:54Z</time>
      </trkpt>
      <trkpt lat="37.9834890" lon="-5.6258390">
        <ele>615.9</ele>
        <time>2022-05-22T09:54:55Z</time>
      </trkpt>
      <trkpt lat="37.9834980" lon="-5.6258530">
        <ele>615.8</ele>
        <time>2022-05-22T09:54:56Z</time>
      </trkpt>
      <trkpt lat="37.9835100" lon="-5.6258700">
        <ele>615.8</ele>
        <time>2022-05-22T09:54:57Z</time>
      </trkpt>
      <trkpt lat="37.9835190" lon="-5.6258820">
        <ele>615.8</ele>
        <time>2022-05-22T09:54:58Z</time>
      </trkpt>
      <trkpt lat="37.9835310" lon="-5.6258980">
        <ele>615.7</ele>
        <time>2022-05-22T09:54:59Z</time>
      </trkpt>
      <trkpt lat="37.9835460" lon="-5.6259150">
        <ele>615.7</ele>
        <time>2022-05-22T09:55:00Z</time>
      </trkpt>
      <trkpt lat="37.9835520" lon="-5.6259220">
        <ele>615.7</ele>
        <time>2022-05-22T09:55:01Z</time>
      </trkpt>
      <trkpt lat="37.9835580" lon="-5.6259290">
        <ele>615.7</ele>
        <time>2022-05-22T09:55:02Z</time>
      </trkpt>
      <trkpt lat="37.9835870" lon="-5.6259590">
        <ele>615.6</ele>
        <time>2022-05-22T09:55:04Z</time>
      </trkpt>
      <trkpt lat="37.9835960" lon="-5.6259670">
        <ele>615.6</ele>
        <time>2022-05-22T09:55:05Z</time>
      </trkpt>
      <trkpt lat="37.9836050" lon="-5.6259740">
        <ele>615.6</ele>
        <time>2022-05-22T09:55:06Z</time>
      </trkpt>
      <trkpt lat="37.9836140" lon="-5.6259820">
        <ele>615.6</ele>
        <time>2022-05-22T09:55:07Z</time>
      </trkpt>
      <trkpt lat="37.9836270" lon="-5.6259910">
        <ele>615.5</ele>
        <time>2022-05-22T09:55:08Z</time>
      </trkpt>
      <trkpt lat="37.9836370" lon="-5.6260010">
        <ele>615.5</ele>
        <time>2022-05-22T09:55:09Z</time>
      </trkpt>
      <trkpt lat="37.9836530" lon="-5.6260210">
        <ele>615.5</ele>
        <time>2022-05-22T09:55:10Z</time>
      </trkpt>
      <trkpt lat="37.9836600" lon="-5.6260280">
        <ele>615.5</ele>
        <time>2022-05-22T09:55:11Z</time>
      </trkpt>
      <trkpt lat="37.9836670" lon="-5.6260360">
        <ele>615.4</ele>
        <time>2022-05-22T09:55:12Z</time>
      </trkpt>
      <trkpt lat="37.9836800" lon="-5.6260490">
        <ele>615.4</ele>
        <time>2022-05-22T09:55:13Z</time>
      </trkpt>
      <trkpt lat="37.9836900" lon="-5.6260600">
        <ele>615.4</ele>
        <time>2022-05-22T09:55:14Z</time>
      </trkpt>
      <trkpt lat="37.9837160" lon="-5.6260890">
        <ele>615.3</ele>
        <time>2022-05-22T09:55:16Z</time>
      </trkpt>
      <trkpt lat="37.9837210" lon="-5.6260950">
        <ele>615.3</ele>
        <time>2022-05-22T09:55:17Z</time>
      </trkpt>
      <trkpt lat="37.9837390" lon="-5.6261160">
        <ele>615.3</ele>
        <time>2022-05-22T09:55:18Z</time>
      </trkpt>
      <trkpt lat="37.9837470" lon="-5.6261260">
        <ele>615.3</ele>
        <time>2022-05-22T09:55:20Z</time>
      </trkpt>
      <trkpt lat="37.9837550" lon="-5.6261360">
        <ele>615.3</ele>
        <time>2022-05-22T09:55:21Z</time>
      </trkpt>
      <trkpt lat="37.9837630" lon="-5.6261460">
        <ele>615.3</ele>
        <time>2022-05-22T09:55:22Z</time>
      </trkpt>
      <trkpt lat="37.9837720" lon="-5.6261560">
        <ele>615.2</ele>
        <time>2022-05-22T09:55:23Z</time>
      </trkpt>
      <trkpt lat="37.9837800" lon="-5.6261660">
        <ele>615.2</ele>
        <time>2022-05-22T09:55:24Z</time>
      </trkpt>
      <trkpt lat="37.9837870" lon="-5.6261730">
        <ele>615.2</ele>
        <time>2022-05-22T09:55:25Z</time>
      </trkpt>
      <trkpt lat="37.9837940" lon="-5.6261820">
        <ele>615.2</ele>
        <time>2022-05-22T09:55:26Z</time>
      </trkpt>
      <trkpt lat="37.9838100" lon="-5.6261990">
        <ele>615.2</ele>
        <time>2022-05-22T09:55:27Z</time>
      </trkpt>
      <trkpt lat="37.9838170" lon="-5.6262070">
        <ele>615.2</ele>
        <time>2022-05-22T09:55:28Z</time>
      </trkpt>
      <trkpt lat="37.9838240" lon="-5.6262140">
        <ele>615.1</ele>
        <time>2022-05-22T09:55:29Z</time>
      </trkpt>
      <trkpt lat="37.9838350" lon="-5.6262240">
        <ele>615.1</ele>
        <time>2022-05-22T09:55:30Z</time>
      </trkpt>
      <trkpt lat="37.9838480" lon="-5.6262350">
        <ele>615.1</ele>
        <time>2022-05-22T09:55:31Z</time>
      </trkpt>
      <trkpt lat="37.9838640" lon="-5.6262540">
        <ele>615.1</ele>
        <time>2022-05-22T09:55:32Z</time>
      </trkpt>
      <trkpt lat="37.9838710" lon="-5.6262610">
        <ele>615.1</ele>
        <time>2022-05-22T09:55:33Z</time>
      </trkpt>
      <trkpt lat="37.9838770" lon="-5.6262690">
        <ele>615.1</ele>
        <time>2022-05-22T09:55:34Z</time>
      </trkpt>
      <trkpt lat="37.9838870" lon="-5.6262810">
        <ele>615.1</ele>
        <time>2022-05-22T09:55:35Z</time>
      </trkpt>
      <trkpt lat="37.9838980" lon="-5.6262920">
        <ele>615.1</ele>
        <time>2022-05-22T09:55:36Z</time>
      </trkpt>
      <trkpt lat="37.9839090" lon="-5.6263040">
        <ele>615.1</ele>
        <time>2022-05-22T09:55:37Z</time>
      </trkpt>
      <trkpt lat="37.9839190" lon="-5.6263170">
        <ele>615.1</ele>
        <time>2022-05-22T09:55:38Z</time>
      </trkpt>
      <trkpt lat="37.9839300" lon="-5.6263310">
        <ele>615.1</ele>
        <time>2022-05-22T09:55:39Z</time>
      </trkpt>
      <trkpt lat="37.9839410" lon="-5.6263440">
        <ele>615.0</ele>
        <time>2022-05-22T09:55:40Z</time>
      </trkpt>
      <trkpt lat="37.9839520" lon="-5.6263570">
        <ele>615.0</ele>
        <time>2022-05-22T09:55:41Z</time>
      </trkpt>
      <trkpt lat="37.9839630" lon="-5.6263690">
        <ele>615.0</ele>
        <time>2022-05-22T09:55:42Z</time>
      </trkpt>
      <trkpt lat="37.9839730" lon="-5.6263820">
        <ele>615.0</ele>
        <time>2022-05-22T09:55:43Z</time>
      </trkpt>
      <trkpt lat="37.9839840" lon="-5.6263940">
        <ele>615.0</ele>
        <time>2022-05-22T09:55:44Z</time>
      </trkpt>
      <trkpt lat="37.9839950" lon="-5.6264070">
        <ele>615.0</ele>
        <time>2022-05-22T09:55:45Z</time>
      </trkpt>
      <trkpt lat="37.9840070" lon="-5.6264150">
        <ele>614.9</ele>
        <time>2022-05-22T09:55:46Z</time>
      </trkpt>
      <trkpt lat="37.9840180" lon="-5.6264240">
        <ele>614.9</ele>
        <time>2022-05-22T09:55:47Z</time>
      </trkpt>
      <trkpt lat="37.9840270" lon="-5.6264340">
        <ele>614.9</ele>
        <time>2022-05-22T09:55:48Z</time>
      </trkpt>
      <trkpt lat="37.9840330" lon="-5.6264460">
        <ele>614.9</ele>
        <time>2022-05-22T09:55:49Z</time>
      </trkpt>
      <trkpt lat="37.9840450" lon="-5.6264650">
        <ele>614.9</ele>
        <time>2022-05-22T09:55:50Z</time>
      </trkpt>
      <trkpt lat="37.9840510" lon="-5.6264730">
        <ele>614.9</ele>
        <time>2022-05-22T09:55:51Z</time>
      </trkpt>
      <trkpt lat="37.9840570" lon="-5.6264800">
        <ele>614.9</ele>
        <time>2022-05-22T09:55:52Z</time>
      </trkpt>
      <trkpt lat="37.9840680" lon="-5.6264890">
        <ele>614.8</ele>
        <time>2022-05-22T09:55:53Z</time>
      </trkpt>
      <trkpt lat="37.9840770" lon="-5.6264970">
        <ele>614.8</ele>
        <time>2022-05-22T09:55:54Z</time>
      </trkpt>
      <trkpt lat="37.9840890" lon="-5.6264990">
        <ele>614.8</ele>
        <time>2022-05-22T09:55:55Z</time>
      </trkpt>
      <trkpt lat="37.9841070" lon="-5.6265100">
        <ele>614.8</ele>
        <time>2022-05-22T09:55:56Z</time>
      </trkpt>
      <trkpt lat="37.9841150" lon="-5.6265160">
        <ele>614.8</ele>
        <time>2022-05-22T09:55:57Z</time>
      </trkpt>
      <trkpt lat="37.9841220" lon="-5.6265220">
        <ele>614.8</ele>
        <time>2022-05-22T09:55:58Z</time>
      </trkpt>
      <trkpt lat="37.9841450" lon="-5.6265480">
        <ele>614.8</ele>
        <time>2022-05-22T09:56:00Z</time>
      </trkpt>
      <trkpt lat="37.9841510" lon="-5.6265560">
        <ele>614.7</ele>
        <time>2022-05-22T09:56:01Z</time>
      </trkpt>
      <trkpt lat="37.9841570" lon="-5.6265650">
        <ele>614.7</ele>
        <time>2022-05-22T09:56:02Z</time>
      </trkpt>
      <trkpt lat="37.9841650" lon="-5.6265750">
        <ele>614.7</ele>
        <time>2022-05-22T09:56:03Z</time>
      </trkpt>
      <trkpt lat="37.9841730" lon="-5.6265860">
        <ele>614.7</ele>
        <time>2022-05-22T09:56:04Z</time>
      </trkpt>
      <trkpt lat="37.9841870" lon="-5.6266080">
        <ele>614.7</ele>
        <time>2022-05-22T09:56:05Z</time>
      </trkpt>
      <trkpt lat="37.9841930" lon="-5.6266180">
        <ele>614.7</ele>
        <time>2022-05-22T09:56:06Z</time>
      </trkpt>
      <trkpt lat="37.9841990" lon="-5.6266280">
        <ele>614.7</ele>
        <time>2022-05-22T09:56:07Z</time>
      </trkpt>
      <trkpt lat="37.9842130" lon="-5.6266380">
        <ele>614.7</ele>
        <time>2022-05-22T09:56:08Z</time>
      </trkpt>
      <trkpt lat="37.9842190" lon="-5.6266430">
        <ele>614.7</ele>
        <time>2022-05-22T09:56:09Z</time>
      </trkpt>
      <trkpt lat="37.9842250" lon="-5.6266470">
        <ele>614.7</ele>
        <time>2022-05-22T09:56:10Z</time>
      </trkpt>
      <trkpt lat="37.9842300" lon="-5.6266510">
        <ele>614.7</ele>
        <time>2022-05-22T09:56:11Z</time>
      </trkpt>
      <trkpt lat="37.9842380" lon="-5.6266580">
        <ele>614.7</ele>
        <time>2022-05-22T09:56:12Z</time>
      </trkpt>
      <trkpt lat="37.9842470" lon="-5.6266620">
        <ele>614.7</ele>
        <time>2022-05-22T09:56:13Z</time>
      </trkpt>
      <trkpt lat="37.9842560" lon="-5.6266680">
        <ele>614.8</ele>
        <time>2022-05-22T09:56:14Z</time>
      </trkpt>
      <trkpt lat="37.9842650" lon="-5.6266750">
        <ele>614.8</ele>
        <time>2022-05-22T09:56:15Z</time>
      </trkpt>
      <trkpt lat="37.9842760" lon="-5.6266840">
        <ele>614.8</ele>
        <time>2022-05-22T09:56:16Z</time>
      </trkpt>
      <trkpt lat="37.9842850" lon="-5.6266920">
        <ele>614.8</ele>
        <time>2022-05-22T09:56:17Z</time>
      </trkpt>
      <trkpt lat="37.9843000" lon="-5.6267060">
        <ele>614.8</ele>
        <time>2022-05-22T09:56:18Z</time>
      </trkpt>
      <trkpt lat="37.9843090" lon="-5.6267150">
        <ele>614.8</ele>
        <time>2022-05-22T09:56:19Z</time>
      </trkpt>
      <trkpt lat="37.9843260" lon="-5.6267310">
        <ele>614.8</ele>
        <time>2022-05-22T09:56:20Z</time>
      </trkpt>
      <trkpt lat="37.9843320" lon="-5.6267370">
        <ele>614.8</ele>
        <time>2022-05-22T09:56:21Z</time>
      </trkpt>
      <trkpt lat="37.9843380" lon="-5.6267440">
        <ele>614.8</ele>
        <time>2022-05-22T09:56:22Z</time>
      </trkpt>
      <trkpt lat="37.9843470" lon="-5.6267550">
        <ele>614.8</ele>
        <time>2022-05-22T09:56:23Z</time>
      </trkpt>
      <trkpt lat="37.9843600" lon="-5.6267690">
        <ele>614.9</ele>
        <time>2022-05-22T09:56:24Z</time>
      </trkpt>
      <trkpt lat="37.9843700" lon="-5.6267790">
        <ele>614.9</ele>
        <time>2022-05-22T09:56:25Z</time>
      </trkpt>
      <trkpt lat="37.9843800" lon="-5.6267860">
        <ele>614.9</ele>
        <time>2022-05-22T09:56:26Z</time>
      </trkpt>
      <trkpt lat="37.9843880" lon="-5.6267900">
        <ele>614.9</ele>
        <time>2022-05-22T09:56:27Z</time>
      </trkpt>
      <trkpt lat="37.9843970" lon="-5.6267920">
        <ele>614.9</ele>
        <time>2022-05-22T09:56:28Z</time>
      </trkpt>
      <trkpt lat="37.9844070" lon="-5.6267950">
        <ele>614.9</ele>
        <time>2022-05-22T09:56:29Z</time>
      </trkpt>
      <trkpt lat="37.9844180" lon="-5.6267990">
        <ele>614.9</ele>
        <time>2022-05-22T09:56:30Z</time>
      </trkpt>
      <trkpt lat="37.9844280" lon="-5.6268040">
        <ele>614.9</ele>
        <time>2022-05-22T09:56:31Z</time>
      </trkpt>
      <trkpt lat="37.9844430" lon="-5.6268120">
        <ele>614.9</ele>
        <time>2022-05-22T09:56:33Z</time>
      </trkpt>
      <trkpt lat="37.9844520" lon="-5.6268190">
        <ele>614.9</ele>
        <time>2022-05-22T09:56:34Z</time>
      </trkpt>
      <trkpt lat="37.9844590" lon="-5.6268260">
        <ele>614.9</ele>
        <time>2022-05-22T09:56:35Z</time>
      </trkpt>
      <trkpt lat="37.9844690" lon="-5.6268350">
        <ele>614.9</ele>
        <time>2022-05-22T09:56:36Z</time>
      </trkpt>
      <trkpt lat="37.9844770" lon="-5.6268440">
        <ele>614.9</ele>
        <time>2022-05-22T09:56:37Z</time>
      </trkpt>
      <trkpt lat="37.9844860" lon="-5.6268530">
        <ele>614.9</ele>
        <time>2022-05-22T09:56:38Z</time>
      </trkpt>
      <trkpt lat="37.9844940" lon="-5.6268610">
        <ele>614.9</ele>
        <time>2022-05-22T09:56:39Z</time>
      </trkpt>
      <trkpt lat="37.9844940" lon="-5.6268650">
        <ele>614.9</ele>
        <time>2022-05-22T09:56:40Z</time>
      </trkpt>
      <trkpt lat="37.9844960" lon="-5.6268690">
        <ele>614.9</ele>
        <time>2022-05-22T09:56:41Z</time>
      </trkpt>
      <trkpt lat="37.9844980" lon="-5.6268740">
        <ele>614.9</ele>
        <time>2022-05-22T09:56:42Z</time>
      </trkpt>
      <trkpt lat="37.9844960" lon="-5.6268710">
        <ele>614.9</ele>
        <time>2022-05-22T09:56:43Z</time>
      </trkpt>
      <trkpt lat="37.9844960" lon="-5.6268730">
        <ele>614.9</ele>
        <time>2022-05-22T09:56:44Z</time>
      </trkpt>
      <trkpt lat="37.9844980" lon="-5.6268750">
        <ele>614.9</ele>
        <time>2022-05-22T09:56:45Z</time>
      </trkpt>
      <trkpt lat="37.9844980" lon="-5.6268810">
        <ele>614.9</ele>
        <time>2022-05-22T09:56:46Z</time>
      </trkpt>
      <trkpt lat="37.9844970" lon="-5.6268840">
        <ele>614.9</ele>
        <time>2022-05-22T09:56:47Z</time>
      </trkpt>
      <trkpt lat="37.9844940" lon="-5.6268880">
        <ele>614.9</ele>
        <time>2022-05-22T09:56:48Z</time>
      </trkpt>
      <trkpt lat="37.9844900" lon="-5.6268930">
        <ele>614.9</ele>
        <time>2022-05-22T09:56:49Z</time>
      </trkpt>
      <trkpt lat="37.9844890" lon="-5.6268950">
        <ele>614.9</ele>
        <time>2022-05-22T09:56:50Z</time>
      </trkpt>
      <trkpt lat="37.9844860" lon="-5.6268990">
        <ele>614.9</ele>
        <time>2022-05-22T09:56:51Z</time>
      </trkpt>
      <trkpt lat="37.9844840" lon="-5.6269000">
        <ele>614.9</ele>
        <time>2022-05-22T09:56:52Z</time>
      </trkpt>
      <trkpt lat="37.9844820" lon="-5.6269010">
        <ele>614.9</ele>
        <time>2022-05-22T09:56:53Z</time>
      </trkpt>
      <trkpt lat="37.9844800" lon="-5.6269020">
        <ele>614.9</ele>
        <time>2022-05-22T09:56:54Z</time>
      </trkpt>
      <trkpt lat="37.9844790" lon="-5.6269040">
        <ele>614.9</ele>
        <time>2022-05-22T09:56:55Z</time>
      </trkpt>
      <trkpt lat="37.9844770" lon="-5.6269110">
        <ele>614.9</ele>
        <time>2022-05-22T09:56:56Z</time>
      </trkpt>
      <trkpt lat="37.9844760" lon="-5.6269150">
        <ele>614.9</ele>
        <time>2022-05-22T09:56:57Z</time>
      </trkpt>
      <trkpt lat="37.9844750" lon="-5.6269180">
        <ele>614.9</ele>
        <time>2022-05-22T09:56:58Z</time>
      </trkpt>
      <trkpt lat="37.9844760" lon="-5.6269210">
        <ele>614.9</ele>
        <time>2022-05-22T09:56:59Z</time>
      </trkpt>
      <trkpt lat="37.9844840" lon="-5.6269280">
        <ele>614.9</ele>
        <time>2022-05-22T09:57:00Z</time>
      </trkpt>
      <trkpt lat="37.9844990" lon="-5.6269390">
        <ele>614.9</ele>
        <time>2022-05-22T09:57:01Z</time>
      </trkpt>
      <trkpt lat="37.9845090" lon="-5.6269470">
        <ele>614.9</ele>
        <time>2022-05-22T09:57:02Z</time>
      </trkpt>
      <trkpt lat="37.9845190" lon="-5.6269530">
        <ele>614.8</ele>
        <time>2022-05-22T09:57:03Z</time>
      </trkpt>
      <trkpt lat="37.9845300" lon="-5.6269590">
        <ele>614.8</ele>
        <time>2022-05-22T09:57:04Z</time>
      </trkpt>
      <trkpt lat="37.9845410" lon="-5.6269680">
        <ele>614.8</ele>
        <time>2022-05-22T09:57:05Z</time>
      </trkpt>
      <trkpt lat="37.9845550" lon="-5.6269810">
        <ele>614.8</ele>
        <time>2022-05-22T09:57:06Z</time>
      </trkpt>
      <trkpt lat="37.9845410" lon="-5.6269610">
        <ele>614.8</ele>
        <time>2022-05-22T09:57:07Z</time>
      </trkpt>
      <trkpt lat="37.9845450" lon="-5.6269630">
        <ele>614.8</ele>
        <time>2022-05-22T09:57:08Z</time>
      </trkpt>
      <trkpt lat="37.9845540" lon="-5.6269720">
        <ele>614.8</ele>
        <time>2022-05-22T09:57:09Z</time>
      </trkpt>
      <trkpt lat="37.9845650" lon="-5.6269860">
        <ele>614.8</ele>
        <time>2022-05-22T09:57:10Z</time>
      </trkpt>
      <trkpt lat="37.9845820" lon="-5.6270150">
        <ele>614.8</ele>
        <time>2022-05-22T09:57:12Z</time>
      </trkpt>
      <trkpt lat="37.9845940" lon="-5.6270290">
        <ele>614.7</ele>
        <time>2022-05-22T09:57:13Z</time>
      </trkpt>
      <trkpt lat="37.9846030" lon="-5.6270380">
        <ele>614.7</ele>
        <time>2022-05-22T09:57:14Z</time>
      </trkpt>
      <trkpt lat="37.9846150" lon="-5.6270480">
        <ele>614.7</ele>
        <time>2022-05-22T09:57:15Z</time>
      </trkpt>
      <trkpt lat="37.9846260" lon="-5.6270580">
        <ele>614.7</ele>
        <time>2022-05-22T09:57:16Z</time>
      </trkpt>
      <trkpt lat="37.9846540" lon="-5.6270810">
        <ele>614.7</ele>
        <time>2022-05-22T09:57:17Z</time>
      </trkpt>
      <trkpt lat="37.9846790" lon="-5.6271020">
        <ele>614.7</ele>
        <time>2022-05-22T09:57:18Z</time>
      </trkpt>
      <trkpt lat="37.9846880" lon="-5.6271090">
        <ele>614.6</ele>
        <time>2022-05-22T09:57:19Z</time>
      </trkpt>
      <trkpt lat="37.9846950" lon="-5.6271190">
        <ele>614.6</ele>
        <time>2022-05-22T09:57:20Z</time>
      </trkpt>
      <trkpt lat="37.9846940" lon="-5.6271250">
        <ele>614.6</ele>
        <time>2022-05-22T09:57:21Z</time>
      </trkpt>
      <trkpt lat="37.9846970" lon="-5.6271310">
        <ele>614.6</ele>
        <time>2022-05-22T09:57:22Z</time>
      </trkpt>
      <trkpt lat="37.9847040" lon="-5.6271390">
        <ele>614.6</ele>
        <time>2022-05-22T09:57:23Z</time>
      </trkpt>
      <trkpt lat="37.9847200" lon="-5.6271590">
        <ele>614.6</ele>
        <time>2022-05-22T09:57:25Z</time>
      </trkpt>
      <trkpt lat="37.9847250" lon="-5.6271660">
        <ele>614.6</ele>
        <time>2022-05-22T09:57:26Z</time>
      </trkpt>
      <trkpt lat="37.9847310" lon="-5.6271730">
        <ele>614.6</ele>
        <time>2022-05-22T09:57:27Z</time>
      </trkpt>
      <trkpt lat="37.9847410" lon="-5.6271850">
        <ele>614.6</ele>
        <time>2022-05-22T09:57:28Z</time>
      </trkpt>
      <trkpt lat="37.9847570" lon="-5.6272050">
        <ele>614.6</ele>
        <time>2022-05-22T09:57:30Z</time>
      </trkpt>
      <trkpt lat="37.9847710" lon="-5.6272250">
        <ele>614.6</ele>
        <time>2022-05-22T09:57:31Z</time>
      </trkpt>
      <trkpt lat="37.9847770" lon="-5.6272340">
        <ele>614.5</ele>
        <time>2022-05-22T09:57:32Z</time>
      </trkpt>
      <trkpt lat="37.9847830" lon="-5.6272440">
        <ele>614.5</ele>
        <time>2022-05-22T09:57:33Z</time>
      </trkpt>
      <trkpt lat="37.9847980" lon="-5.6272650">
        <ele>614.5</ele>
        <time>2022-05-22T09:57:35Z</time>
      </trkpt>
      <trkpt lat="37.9848080" lon="-5.6272730">
        <ele>614.5</ele>
        <time>2022-05-22T09:57:36Z</time>
      </trkpt>
      <trkpt lat="37.9848260" lon="-5.6272880">
        <ele>614.5</ele>
        <time>2022-05-22T09:57:37Z</time>
      </trkpt>
      <trkpt lat="37.9848330" lon="-5.6272940">
        <ele>614.5</ele>
        <time>2022-05-22T09:57:38Z</time>
      </trkpt>
      <trkpt lat="37.9848400" lon="-5.6272990">
        <ele>614.5</ele>
        <time>2022-05-22T09:57:39Z</time>
      </trkpt>
      <trkpt lat="37.9848530" lon="-5.6273110">
        <ele>614.5</ele>
        <time>2022-05-22T09:57:40Z</time>
      </trkpt>
      <trkpt lat="37.9848650" lon="-5.6273200">
        <ele>614.5</ele>
        <time>2022-05-22T09:57:41Z</time>
      </trkpt>
      <trkpt lat="37.9848750" lon="-5.6273290">
        <ele>614.5</ele>
        <time>2022-05-22T09:57:42Z</time>
      </trkpt>
      <trkpt lat="37.9848940" lon="-5.6273440">
        <ele>614.4</ele>
        <time>2022-05-22T09:57:44Z</time>
      </trkpt>
      <trkpt lat="37.9849040" lon="-5.6273530">
        <ele>614.4</ele>
        <time>2022-05-22T09:57:45Z</time>
      </trkpt>
      <trkpt lat="37.9849180" lon="-5.6273640">
        <ele>614.4</ele>
        <time>2022-05-22T09:57:46Z</time>
      </trkpt>
      <trkpt lat="37.9849350" lon="-5.6273780">
        <ele>614.4</ele>
        <time>2022-05-22T09:57:47Z</time>
      </trkpt>
      <trkpt lat="37.9849420" lon="-5.6273850">
        <ele>614.4</ele>
        <time>2022-05-22T09:57:48Z</time>
      </trkpt>
      <trkpt lat="37.9849490" lon="-5.6273910">
        <ele>614.4</ele>
        <time>2022-05-22T09:57:49Z</time>
      </trkpt>
      <trkpt lat="37.9849630" lon="-5.6274040">
        <ele>614.4</ele>
        <time>2022-05-22T09:57:50Z</time>
      </trkpt>
      <trkpt lat="37.9849770" lon="-5.6274160">
        <ele>614.4</ele>
        <time>2022-05-22T09:57:51Z</time>
      </trkpt>
      <trkpt lat="37.9849940" lon="-5.6274320">
        <ele>614.4</ele>
        <time>2022-05-22T09:57:52Z</time>
      </trkpt>
      <trkpt lat="37.9850040" lon="-5.6274400">
        <ele>614.4</ele>
        <time>2022-05-22T09:57:53Z</time>
      </trkpt>
      <trkpt lat="37.9850170" lon="-5.6274520">
        <ele>614.4</ele>
        <time>2022-05-22T09:57:54Z</time>
      </trkpt>
      <trkpt lat="37.9850260" lon="-5.6274620">
        <ele>614.4</ele>
        <time>2022-05-22T09:57:55Z</time>
      </trkpt>
      <trkpt lat="37.9850410" lon="-5.6274800">
        <ele>614.4</ele>
        <time>2022-05-22T09:57:56Z</time>
      </trkpt>
      <trkpt lat="37.9850470" lon="-5.6274870">
        <ele>614.4</ele>
        <time>2022-05-22T09:57:57Z</time>
      </trkpt>
      <trkpt lat="37.9850530" lon="-5.6274940">
        <ele>614.3</ele>
        <time>2022-05-22T09:57:58Z</time>
      </trkpt>
      <trkpt lat="37.9850610" lon="-5.6275050">
        <ele>614.3</ele>
        <time>2022-05-22T09:57:59Z</time>
      </trkpt>
      <trkpt lat="37.9850720" lon="-5.6275290">
        <ele>614.3</ele>
        <time>2022-05-22T09:58:00Z</time>
      </trkpt>
      <trkpt lat="37.9850790" lon="-5.6275430">
        <ele>614.3</ele>
        <time>2022-05-22T09:58:01Z</time>
      </trkpt>
      <trkpt lat="37.9850870" lon="-5.6275540">
        <ele>614.3</ele>
        <time>2022-05-22T09:58:02Z</time>
      </trkpt>
      <trkpt lat="37.9850930" lon="-5.6275630">
        <ele>614.3</ele>
        <time>2022-05-22T09:58:03Z</time>
      </trkpt>
      <trkpt lat="37.9851010" lon="-5.6275720">
        <ele>614.3</ele>
        <time>2022-05-22T09:58:04Z</time>
      </trkpt>
      <trkpt lat="37.9851100" lon="-5.6275810">
        <ele>614.3</ele>
        <time>2022-05-22T09:58:05Z</time>
      </trkpt>
      <trkpt lat="37.9851220" lon="-5.6275910">
        <ele>614.3</ele>
        <time>2022-05-22T09:58:06Z</time>
      </trkpt>
      <trkpt lat="37.9851300" lon="-5.6275990">
        <ele>614.3</ele>
        <time>2022-05-22T09:58:07Z</time>
      </trkpt>
      <trkpt lat="37.9851380" lon="-5.6276090">
        <ele>614.3</ele>
        <time>2022-05-22T09:58:08Z</time>
      </trkpt>
      <trkpt lat="37.9851490" lon="-5.6276200">
        <ele>614.3</ele>
        <time>2022-05-22T09:58:09Z</time>
      </trkpt>
      <trkpt lat="37.9851610" lon="-5.6276300">
        <ele>614.3</ele>
        <time>2022-05-22T09:58:10Z</time>
      </trkpt>
      <trkpt lat="37.9851750" lon="-5.6276420">
        <ele>614.3</ele>
        <time>2022-05-22T09:58:11Z</time>
      </trkpt>
      <trkpt lat="37.9851900" lon="-5.6276600">
        <ele>614.3</ele>
        <time>2022-05-22T09:58:12Z</time>
      </trkpt>
      <trkpt lat="37.9851970" lon="-5.6276690">
        <ele>614.3</ele>
        <time>2022-05-22T09:58:13Z</time>
      </trkpt>
      <trkpt lat="37.9852040" lon="-5.6276780">
        <ele>614.3</ele>
        <time>2022-05-22T09:58:14Z</time>
      </trkpt>
      <trkpt lat="37.9852130" lon="-5.6276920">
        <ele>614.3</ele>
        <time>2022-05-22T09:58:15Z</time>
      </trkpt>
      <trkpt lat="37.9852230" lon="-5.6277040">
        <ele>614.3</ele>
        <time>2022-05-22T09:58:16Z</time>
      </trkpt>
      <trkpt lat="37.9852400" lon="-5.6277240">
        <ele>614.3</ele>
        <time>2022-05-22T09:58:17Z</time>
      </trkpt>
      <trkpt lat="37.9852460" lon="-5.6277320">
        <ele>614.3</ele>
        <time>2022-05-22T09:58:18Z</time>
      </trkpt>
      <trkpt lat="37.9852520" lon="-5.6277390">
        <ele>614.3</ele>
        <time>2022-05-22T09:58:19Z</time>
      </trkpt>
      <trkpt lat="37.9852610" lon="-5.6277520">
        <ele>614.3</ele>
        <time>2022-05-22T09:58:20Z</time>
      </trkpt>
      <trkpt lat="37.9852720" lon="-5.6277650">
        <ele>614.3</ele>
        <time>2022-05-22T09:58:21Z</time>
      </trkpt>
      <trkpt lat="37.9852820" lon="-5.6277770">
        <ele>614.3</ele>
        <time>2022-05-22T09:58:22Z</time>
      </trkpt>
      <trkpt lat="37.9852920" lon="-5.6277900">
        <ele>614.3</ele>
        <time>2022-05-22T09:58:23Z</time>
      </trkpt>
      <trkpt lat="37.9853110" lon="-5.6278050">
        <ele>614.3</ele>
        <time>2022-05-22T09:58:24Z</time>
      </trkpt>
      <trkpt lat="37.9853180" lon="-5.6278100">
        <ele>614.3</ele>
        <time>2022-05-22T09:58:25Z</time>
      </trkpt>
      <trkpt lat="37.9853250" lon="-5.6278140">
        <ele>614.3</ele>
        <time>2022-05-22T09:58:26Z</time>
      </trkpt>
      <trkpt lat="37.9853440" lon="-5.6278270">
        <ele>614.3</ele>
        <time>2022-05-22T09:58:27Z</time>
      </trkpt>
      <trkpt lat="37.9853500" lon="-5.6278320">
        <ele>614.3</ele>
        <time>2022-05-22T09:58:28Z</time>
      </trkpt>
      <trkpt lat="37.9853560" lon="-5.6278380">
        <ele>614.3</ele>
        <time>2022-05-22T09:58:29Z</time>
      </trkpt>
      <trkpt lat="37.9853650" lon="-5.6278460">
        <ele>614.3</ele>
        <time>2022-05-22T09:58:30Z</time>
      </trkpt>
      <trkpt lat="37.9853810" lon="-5.6278590">
        <ele>614.3</ele>
        <time>2022-05-22T09:58:32Z</time>
      </trkpt>
      <trkpt lat="37.9853910" lon="-5.6278660">
        <ele>614.3</ele>
        <time>2022-05-22T09:58:33Z</time>
      </trkpt>
      <trkpt lat="37.9853990" lon="-5.6278730">
        <ele>614.3</ele>
        <time>2022-05-22T09:58:34Z</time>
      </trkpt>
      <trkpt lat="37.9854090" lon="-5.6278820">
        <ele>614.3</ele>
        <time>2022-05-22T09:58:35Z</time>
      </trkpt>
      <trkpt lat="37.9854190" lon="-5.6278910">
        <ele>614.3</ele>
        <time>2022-05-22T09:58:36Z</time>
      </trkpt>
      <trkpt lat="37.9854320" lon="-5.6279030">
        <ele>614.3</ele>
        <time>2022-05-22T09:58:37Z</time>
      </trkpt>
      <trkpt lat="37.9854410" lon="-5.6279100">
        <ele>614.3</ele>
        <time>2022-05-22T09:58:38Z</time>
      </trkpt>
      <trkpt lat="37.9854500" lon="-5.6279180">
        <ele>614.3</ele>
        <time>2022-05-22T09:58:39Z</time>
      </trkpt>
      <trkpt lat="37.9854600" lon="-5.6279260">
        <ele>614.3</ele>
        <time>2022-05-22T09:58:40Z</time>
      </trkpt>
      <trkpt lat="37.9854790" lon="-5.6279430">
        <ele>614.3</ele>
        <time>2022-05-22T09:58:41Z</time>
      </trkpt>
      <trkpt lat="37.9854870" lon="-5.6279500">
        <ele>614.3</ele>
        <time>2022-05-22T09:58:42Z</time>
      </trkpt>
      <trkpt lat="37.9854950" lon="-5.6279570">
        <ele>614.3</ele>
        <time>2022-05-22T09:58:43Z</time>
      </trkpt>
      <trkpt lat="37.9855110" lon="-5.6279710">
        <ele>614.3</ele>
        <time>2022-05-22T09:58:44Z</time>
      </trkpt>
      <trkpt lat="37.9855180" lon="-5.6279780">
        <ele>614.3</ele>
        <time>2022-05-22T09:58:45Z</time>
      </trkpt>
      <trkpt lat="37.9855260" lon="-5.6279840">
        <ele>614.3</ele>
        <time>2022-05-22T09:58:46Z</time>
      </trkpt>
      <trkpt lat="37.9855360" lon="-5.6279960">
        <ele>614.3</ele>
        <time>2022-05-22T09:58:47Z</time>
      </trkpt>
      <trkpt lat="37.9855520" lon="-5.6280150">
        <ele>614.3</ele>
        <time>2022-05-22T09:58:49Z</time>
      </trkpt>
      <trkpt lat="37.9855670" lon="-5.6280260">
        <ele>614.3</ele>
        <time>2022-05-22T09:58:50Z</time>
      </trkpt>
      <trkpt lat="37.9855800" lon="-5.6280370">
        <ele>614.3</ele>
        <time>2022-05-22T09:58:51Z</time>
      </trkpt>
      <trkpt lat="37.9855920" lon="-5.6280480">
        <ele>614.3</ele>
        <time>2022-05-22T09:58:52Z</time>
      </trkpt>
      <trkpt lat="37.9856030" lon="-5.6280570">
        <ele>614.3</ele>
        <time>2022-05-22T09:58:53Z</time>
      </trkpt>
      <trkpt lat="37.9856190" lon="-5.6280730">
        <ele>614.3</ele>
        <time>2022-05-22T09:58:54Z</time>
      </trkpt>
      <trkpt lat="37.9856260" lon="-5.6280800">
        <ele>614.3</ele>
        <time>2022-05-22T09:58:55Z</time>
      </trkpt>
      <trkpt lat="37.9856320" lon="-5.6280870">
        <ele>614.3</ele>
        <time>2022-05-22T09:58:56Z</time>
      </trkpt>
      <trkpt lat="37.9856510" lon="-5.6281050">
        <ele>614.3</ele>
        <time>2022-05-22T09:58:57Z</time>
      </trkpt>
      <trkpt lat="37.9856600" lon="-5.6281140">
        <ele>614.3</ele>
        <time>2022-05-22T09:58:58Z</time>
      </trkpt>
      <trkpt lat="37.9856680" lon="-5.6281220">
        <ele>614.3</ele>
        <time>2022-05-22T09:58:59Z</time>
      </trkpt>
      <trkpt lat="37.9856850" lon="-5.6281380">
        <ele>614.3</ele>
        <time>2022-05-22T09:59:00Z</time>
      </trkpt>
      <trkpt lat="37.9856910" lon="-5.6281440">
        <ele>614.3</ele>
        <time>2022-05-22T09:59:01Z</time>
      </trkpt>
      <trkpt lat="37.9856980" lon="-5.6281500">
        <ele>614.3</ele>
        <time>2022-05-22T09:59:02Z</time>
      </trkpt>
      <trkpt lat="37.9857180" lon="-5.6281670">
        <ele>614.3</ele>
        <time>2022-05-22T09:59:03Z</time>
      </trkpt>
      <trkpt lat="37.9857290" lon="-5.6281770">
        <ele>614.3</ele>
        <time>2022-05-22T09:59:05Z</time>
      </trkpt>
      <trkpt lat="37.9857400" lon="-5.6281870">
        <ele>614.3</ele>
        <time>2022-05-22T09:59:06Z</time>
      </trkpt>
      <trkpt lat="37.9857550" lon="-5.6282020">
        <ele>614.3</ele>
        <time>2022-05-22T09:59:08Z</time>
      </trkpt>
      <trkpt lat="37.9857660" lon="-5.6282160">
        <ele>614.3</ele>
        <time>2022-05-22T09:59:09Z</time>
      </trkpt>
      <trkpt lat="37.9857760" lon="-5.6282270">
        <ele>614.3</ele>
        <time>2022-05-22T09:59:10Z</time>
      </trkpt>
      <trkpt lat="37.9857890" lon="-5.6282440">
        <ele>614.3</ele>
        <time>2022-05-22T09:59:11Z</time>
      </trkpt>
      <trkpt lat="37.9858070" lon="-5.6282660">
        <ele>614.3</ele>
        <time>2022-05-22T09:59:13Z</time>
      </trkpt>
      <trkpt lat="37.9858190" lon="-5.6282850">
        <ele>614.3</ele>
        <time>2022-05-22T09:59:14Z</time>
      </trkpt>
      <trkpt lat="37.9858290" lon="-5.6283000">
        <ele>614.3</ele>
        <time>2022-05-22T09:59:15Z</time>
      </trkpt>
      <trkpt lat="37.9858490" lon="-5.6283250">
        <ele>614.3</ele>
        <time>2022-05-22T09:59:17Z</time>
      </trkpt>
      <trkpt lat="37.9858600" lon="-5.6283370">
        <ele>614.3</ele>
        <time>2022-05-22T09:59:18Z</time>
      </trkpt>
      <trkpt lat="37.9858690" lon="-5.6283510">
        <ele>614.3</ele>
        <time>2022-05-22T09:59:19Z</time>
      </trkpt>
      <trkpt lat="37.9858790" lon="-5.6283630">
        <ele>614.3</ele>
        <time>2022-05-22T09:59:20Z</time>
      </trkpt>
      <trkpt lat="37.9858880" lon="-5.6283760">
        <ele>614.3</ele>
        <time>2022-05-22T09:59:21Z</time>
      </trkpt>
      <trkpt lat="37.9858930" lon="-5.6283920">
        <ele>614.3</ele>
        <time>2022-05-22T09:59:22Z</time>
      </trkpt>
      <trkpt lat="37.9858940" lon="-5.6284130">
        <ele>614.3</ele>
        <time>2022-05-22T09:59:23Z</time>
      </trkpt>
      <trkpt lat="37.9858980" lon="-5.6284250">
        <ele>614.3</ele>
        <time>2022-05-22T09:59:24Z</time>
      </trkpt>
      <trkpt lat="37.9859040" lon="-5.6284350">
        <ele>614.3</ele>
        <time>2022-05-22T09:59:25Z</time>
      </trkpt>
      <trkpt lat="37.9859090" lon="-5.6284430">
        <ele>614.3</ele>
        <time>2022-05-22T09:59:26Z</time>
      </trkpt>
      <trkpt lat="37.9859160" lon="-5.6284520">
        <ele>614.3</ele>
        <time>2022-05-22T09:59:27Z</time>
      </trkpt>
      <trkpt lat="37.9859230" lon="-5.6284610">
        <ele>614.3</ele>
        <time>2022-05-22T09:59:28Z</time>
      </trkpt>
      <trkpt lat="37.9859310" lon="-5.6284710">
        <ele>614.3</ele>
        <time>2022-05-22T09:59:29Z</time>
      </trkpt>
      <trkpt lat="37.9859390" lon="-5.6284810">
        <ele>614.3</ele>
        <time>2022-05-22T09:59:30Z</time>
      </trkpt>
      <trkpt lat="37.9859470" lon="-5.6284900">
        <ele>614.4</ele>
        <time>2022-05-22T09:59:31Z</time>
      </trkpt>
      <trkpt lat="37.9859560" lon="-5.6285000">
        <ele>614.4</ele>
        <time>2022-05-22T09:59:32Z</time>
      </trkpt>
      <trkpt lat="37.9859730" lon="-5.6285180">
        <ele>614.4</ele>
        <time>2022-05-22T09:59:33Z</time>
      </trkpt>
      <trkpt lat="37.9859800" lon="-5.6285250">
        <ele>614.4</ele>
        <time>2022-05-22T09:59:34Z</time>
      </trkpt>
      <trkpt lat="37.9859870" lon="-5.6285320">
        <ele>614.4</ele>
        <time>2022-05-22T09:59:35Z</time>
      </trkpt>
      <trkpt lat="37.9859960" lon="-5.6285420">
        <ele>614.4</ele>
        <time>2022-05-22T09:59:36Z</time>
      </trkpt>
      <trkpt lat="37.9860200" lon="-5.6285530">
        <ele>614.4</ele>
        <time>2022-05-22T09:59:38Z</time>
      </trkpt>
      <trkpt lat="37.9860450" lon="-5.6285750">
        <ele>614.4</ele>
        <time>2022-05-22T09:59:39Z</time>
      </trkpt>
      <trkpt lat="37.9860510" lon="-5.6285810">
        <ele>614.4</ele>
        <time>2022-05-22T09:59:40Z</time>
      </trkpt>
      <trkpt lat="37.9860690" lon="-5.6285970">
        <ele>614.4</ele>
        <time>2022-05-22T09:59:41Z</time>
      </trkpt>
      <trkpt lat="37.9860760" lon="-5.6286040">
        <ele>614.4</ele>
        <time>2022-05-22T09:59:42Z</time>
      </trkpt>
      <trkpt lat="37.9860830" lon="-5.6286110">
        <ele>614.4</ele>
        <time>2022-05-22T09:59:43Z</time>
      </trkpt>
      <trkpt lat="37.9860900" lon="-5.6286160">
        <ele>614.4</ele>
        <time>2022-05-22T09:59:44Z</time>
      </trkpt>
      <trkpt lat="37.9860980" lon="-5.6286240">
        <ele>614.4</ele>
        <time>2022-05-22T09:59:45Z</time>
      </trkpt>
      <trkpt lat="37.9861060" lon="-5.6286290">
        <ele>614.4</ele>
        <time>2022-05-22T09:59:46Z</time>
      </trkpt>
      <trkpt lat="37.9861130" lon="-5.6286350">
        <ele>614.4</ele>
        <time>2022-05-22T09:59:47Z</time>
      </trkpt>
      <trkpt lat="37.9861210" lon="-5.6286420">
        <ele>614.4</ele>
        <time>2022-05-22T09:59:48Z</time>
      </trkpt>
      <trkpt lat="37.9861290" lon="-5.6286500">
        <ele>614.4</ele>
        <time>2022-05-22T09:59:49Z</time>
      </trkpt>
      <trkpt lat="37.9861340" lon="-5.6286580">
        <ele>614.4</ele>
        <time>2022-05-22T09:59:50Z</time>
      </trkpt>
      <trkpt lat="37.9861410" lon="-5.6286670">
        <ele>614.4</ele>
        <time>2022-05-22T09:59:51Z</time>
      </trkpt>
      <trkpt lat="37.9861460" lon="-5.6286760">
        <ele>614.4</ele>
        <time>2022-05-22T09:59:52Z</time>
      </trkpt>
      <trkpt lat="37.9861520" lon="-5.6286870">
        <ele>614.4</ele>
        <time>2022-05-22T09:59:53Z</time>
      </trkpt>
      <trkpt lat="37.9861590" lon="-5.6286990">
        <ele>614.4</ele>
        <time>2022-05-22T09:59:54Z</time>
      </trkpt>
      <trkpt lat="37.9861650" lon="-5.6287070">
        <ele>614.4</ele>
        <time>2022-05-22T09:59:55Z</time>
      </trkpt>
      <trkpt lat="37.9861710" lon="-5.6287180">
        <ele>614.4</ele>
        <time>2022-05-22T09:59:56Z</time>
      </trkpt>
      <trkpt lat="37.9861770" lon="-5.6287280">
        <ele>614.4</ele>
        <time>2022-05-22T09:59:57Z</time>
      </trkpt>
      <trkpt lat="37.9861850" lon="-5.6287420">
        <ele>614.4</ele>
        <time>2022-05-22T09:59:58Z</time>
      </trkpt>
      <trkpt lat="37.9861910" lon="-5.6287520">
        <ele>614.4</ele>
        <time>2022-05-22T09:59:59Z</time>
      </trkpt>
      <trkpt lat="37.9862010" lon="-5.6287620">
        <ele>614.4</ele>
        <time>2022-05-22T10:00:00Z</time>
      </trkpt>
      <trkpt lat="37.9862100" lon="-5.6287700">
        <ele>614.4</ele>
        <time>2022-05-22T10:00:01Z</time>
      </trkpt>
      <trkpt lat="37.9862220" lon="-5.6287850">
        <ele>614.4</ele>
        <time>2022-05-22T10:00:03Z</time>
      </trkpt>
      <trkpt lat="37.9862290" lon="-5.6287950">
        <ele>614.4</ele>
        <time>2022-05-22T10:00:04Z</time>
      </trkpt>
      <trkpt lat="37.9862350" lon="-5.6288050">
        <ele>614.4</ele>
        <time>2022-05-22T10:00:05Z</time>
      </trkpt>
      <trkpt lat="37.9862430" lon="-5.6288160">
        <ele>614.4</ele>
        <time>2022-05-22T10:00:06Z</time>
      </trkpt>
      <trkpt lat="37.9862530" lon="-5.6288280">
        <ele>614.4</ele>
        <time>2022-05-22T10:00:07Z</time>
      </trkpt>
      <trkpt lat="37.9862660" lon="-5.6288440">
        <ele>614.4</ele>
        <time>2022-05-22T10:00:09Z</time>
      </trkpt>
      <trkpt lat="37.9862760" lon="-5.6288530">
        <ele>614.4</ele>
        <time>2022-05-22T10:00:10Z</time>
      </trkpt>
      <trkpt lat="37.9862890" lon="-5.6288660">
        <ele>614.4</ele>
        <time>2022-05-22T10:00:11Z</time>
      </trkpt>
      <trkpt lat="37.9863050" lon="-5.6288820">
        <ele>614.4</ele>
        <time>2022-05-22T10:00:13Z</time>
      </trkpt>
      <trkpt lat="37.9863140" lon="-5.6288910">
        <ele>614.4</ele>
        <time>2022-05-22T10:00:14Z</time>
      </trkpt>
      <trkpt lat="37.9863250" lon="-5.6289010">
        <ele>614.4</ele>
        <time>2022-05-22T10:00:15Z</time>
      </trkpt>
      <trkpt lat="37.9863360" lon="-5.6289120">
        <ele>614.4</ele>
        <time>2022-05-22T10:00:16Z</time>
      </trkpt>
      <trkpt lat="37.9863480" lon="-5.6289260">
        <ele>614.4</ele>
        <time>2022-05-22T10:00:17Z</time>
      </trkpt>
      <trkpt lat="37.9863590" lon="-5.6289390">
        <ele>614.4</ele>
        <time>2022-05-22T10:00:18Z</time>
      </trkpt>
      <trkpt lat="37.9863760" lon="-5.6289570">
        <ele>614.4</ele>
        <time>2022-05-22T10:00:19Z</time>
      </trkpt>
      <trkpt lat="37.9863830" lon="-5.6289640">
        <ele>614.4</ele>
        <time>2022-05-22T10:00:20Z</time>
      </trkpt>
      <trkpt lat="37.9863910" lon="-5.6289710">
        <ele>614.4</ele>
        <time>2022-05-22T10:00:21Z</time>
      </trkpt>
      <trkpt lat="37.9864010" lon="-5.6289800">
        <ele>614.4</ele>
        <time>2022-05-22T10:00:22Z</time>
      </trkpt>
      <trkpt lat="37.9864140" lon="-5.6289910">
        <ele>614.4</ele>
        <time>2022-05-22T10:00:23Z</time>
      </trkpt>
      <trkpt lat="37.9864270" lon="-5.6290020">
        <ele>614.4</ele>
        <time>2022-05-22T10:00:24Z</time>
      </trkpt>
      <trkpt lat="37.9864400" lon="-5.6290120">
        <ele>614.4</ele>
        <time>2022-05-22T10:00:25Z</time>
      </trkpt>
      <trkpt lat="37.9864510" lon="-5.6290220">
        <ele>614.4</ele>
        <time>2022-05-22T10:00:26Z</time>
      </trkpt>
      <trkpt lat="37.9864630" lon="-5.6290340">
        <ele>614.4</ele>
        <time>2022-05-22T10:00:27Z</time>
      </trkpt>
      <trkpt lat="37.9864730" lon="-5.6290450">
        <ele>614.4</ele>
        <time>2022-05-22T10:00:28Z</time>
      </trkpt>
      <trkpt lat="37.9864840" lon="-5.6290570">
        <ele>614.4</ele>
        <time>2022-05-22T10:00:29Z</time>
      </trkpt>
      <trkpt lat="37.9864960" lon="-5.6290690">
        <ele>614.4</ele>
        <time>2022-05-22T10:00:30Z</time>
      </trkpt>
      <trkpt lat="37.9865080" lon="-5.6290800">
        <ele>614.4</ele>
        <time>2022-05-22T10:00:31Z</time>
      </trkpt>
      <trkpt lat="37.9865200" lon="-5.6290930">
        <ele>614.3</ele>
        <time>2022-05-22T10:00:32Z</time>
      </trkpt>
      <trkpt lat="37.9865320" lon="-5.6291050">
        <ele>614.3</ele>
        <time>2022-05-22T10:00:33Z</time>
      </trkpt>
      <trkpt lat="37.9865450" lon="-5.6291170">
        <ele>614.3</ele>
        <time>2022-05-22T10:00:34Z</time>
      </trkpt>
      <trkpt lat="37.9865560" lon="-5.6291290">
        <ele>614.3</ele>
        <time>2022-05-22T10:00:35Z</time>
      </trkpt>
      <trkpt lat="37.9865660" lon="-5.6291400">
        <ele>614.3</ele>
        <time>2022-05-22T10:00:36Z</time>
      </trkpt>
      <trkpt lat="37.9865780" lon="-5.6291540">
        <ele>614.3</ele>
        <time>2022-05-22T10:00:37Z</time>
      </trkpt>
      <trkpt lat="37.9865920" lon="-5.6291660">
        <ele>614.3</ele>
        <time>2022-05-22T10:00:38Z</time>
      </trkpt>
      <trkpt lat="37.9866050" lon="-5.6291780">
        <ele>614.3</ele>
        <time>2022-05-22T10:00:39Z</time>
      </trkpt>
      <trkpt lat="37.9866180" lon="-5.6291910">
        <ele>614.3</ele>
        <time>2022-05-22T10:00:40Z</time>
      </trkpt>
      <trkpt lat="37.9866290" lon="-5.6292010">
        <ele>614.2</ele>
        <time>2022-05-22T10:00:41Z</time>
      </trkpt>
      <trkpt lat="37.9866440" lon="-5.6292190">
        <ele>614.2</ele>
        <time>2022-05-22T10:00:42Z</time>
      </trkpt>
      <trkpt lat="37.9866500" lon="-5.6292270">
        <ele>614.2</ele>
        <time>2022-05-22T10:00:43Z</time>
      </trkpt>
      <trkpt lat="37.9866550" lon="-5.6292360">
        <ele>614.2</ele>
        <time>2022-05-22T10:00:44Z</time>
      </trkpt>
      <trkpt lat="37.9866720" lon="-5.6292530">
        <ele>614.2</ele>
        <time>2022-05-22T10:00:45Z</time>
      </trkpt>
      <trkpt lat="37.9866790" lon="-5.6292600">
        <ele>614.2</ele>
        <time>2022-05-22T10:00:46Z</time>
      </trkpt>
      <trkpt lat="37.9866860" lon="-5.6292670">
        <ele>614.2</ele>
        <time>2022-05-22T10:00:47Z</time>
      </trkpt>
      <trkpt lat="37.9866970" lon="-5.6292780">
        <ele>614.2</ele>
        <time>2022-05-22T10:00:48Z</time>
      </trkpt>
      <trkpt lat="37.9867070" lon="-5.6292960">
        <ele>614.1</ele>
        <time>2022-05-22T10:00:49Z</time>
      </trkpt>
      <trkpt lat="37.9867150" lon="-5.6293050">
        <ele>614.1</ele>
        <time>2022-05-22T10:00:50Z</time>
      </trkpt>
      <trkpt lat="37.9867210" lon="-5.6293150">
        <ele>614.1</ele>
        <time>2022-05-22T10:00:51Z</time>
      </trkpt>
      <trkpt lat="37.9867280" lon="-5.6293240">
        <ele>614.1</ele>
        <time>2022-05-22T10:00:52Z</time>
      </trkpt>
      <trkpt lat="37.9867340" lon="-5.6293320">
        <ele>614.1</ele>
        <time>2022-05-22T10:00:53Z</time>
      </trkpt>
      <trkpt lat="37.9867400" lon="-5.6293410">
        <ele>614.1</ele>
        <time>2022-05-22T10:00:54Z</time>
      </trkpt>
      <trkpt lat="37.9867470" lon="-5.6293530">
        <ele>614.1</ele>
        <time>2022-05-22T10:00:55Z</time>
      </trkpt>
      <trkpt lat="37.9867520" lon="-5.6293620">
        <ele>614.0</ele>
        <time>2022-05-22T10:00:56Z</time>
      </trkpt>
      <trkpt lat="37.9867570" lon="-5.6293710">
        <ele>614.0</ele>
        <time>2022-05-22T10:00:57Z</time>
      </trkpt>
      <trkpt lat="37.9867670" lon="-5.6293840">
        <ele>614.0</ele>
        <time>2022-05-22T10:00:58Z</time>
      </trkpt>
      <trkpt lat="37.9867880" lon="-5.6294110">
        <ele>614.0</ele>
        <time>2022-05-22T10:01:00Z</time>
      </trkpt>
      <trkpt lat="37.9867940" lon="-5.6294180">
        <ele>614.0</ele>
        <time>2022-05-22T10:01:01Z</time>
      </trkpt>
      <trkpt lat="37.9868030" lon="-5.6294310">
        <ele>613.9</ele>
        <time>2022-05-22T10:01:02Z</time>
      </trkpt>
      <trkpt lat="37.9868130" lon="-5.6294430">
        <ele>613.9</ele>
        <time>2022-05-22T10:01:03Z</time>
      </trkpt>
      <trkpt lat="37.9868270" lon="-5.6294590">
        <ele>613.9</ele>
        <time>2022-05-22T10:01:05Z</time>
      </trkpt>
      <trkpt lat="37.9868370" lon="-5.6294680">
        <ele>613.9</ele>
        <time>2022-05-22T10:01:06Z</time>
      </trkpt>
      <trkpt lat="37.9868510" lon="-5.6294770">
        <ele>613.9</ele>
        <time>2022-05-22T10:01:07Z</time>
      </trkpt>
      <trkpt lat="37.9868650" lon="-5.6294850">
        <ele>613.9</ele>
        <time>2022-05-22T10:01:08Z</time>
      </trkpt>
      <trkpt lat="37.9868810" lon="-5.6294990">
        <ele>613.8</ele>
        <time>2022-05-22T10:01:09Z</time>
      </trkpt>
      <trkpt lat="37.9868910" lon="-5.6295090">
        <ele>613.8</ele>
        <time>2022-05-22T10:01:10Z</time>
      </trkpt>
      <trkpt lat="37.9869020" lon="-5.6295200">
        <ele>613.8</ele>
        <time>2022-05-22T10:01:11Z</time>
      </trkpt>
      <trkpt lat="37.9869130" lon="-5.6295310">
        <ele>613.8</ele>
        <time>2022-05-22T10:01:12Z</time>
      </trkpt>
      <trkpt lat="37.9869250" lon="-5.6295420">
        <ele>613.8</ele>
        <time>2022-05-22T10:01:13Z</time>
      </trkpt>
      <trkpt lat="37.9869350" lon="-5.6295520">
        <ele>613.7</ele>
        <time>2022-05-22T10:01:14Z</time>
      </trkpt>
      <trkpt lat="37.9869460" lon="-5.6295640">
        <ele>613.7</ele>
        <time>2022-05-22T10:01:15Z</time>
      </trkpt>
      <trkpt lat="37.9869550" lon="-5.6295760">
        <ele>613.7</ele>
        <time>2022-05-22T10:01:16Z</time>
      </trkpt>
      <trkpt lat="37.9869660" lon="-5.6295890">
        <ele>613.7</ele>
        <time>2022-05-22T10:01:17Z</time>
      </trkpt>
      <trkpt lat="37.9869760" lon="-5.6296000">
        <ele>613.7</ele>
        <time>2022-05-22T10:01:18Z</time>
      </trkpt>
      <trkpt lat="37.9869870" lon="-5.6296150">
        <ele>613.7</ele>
        <time>2022-05-22T10:01:19Z</time>
      </trkpt>
      <trkpt lat="37.9869990" lon="-5.6296290">
        <ele>613.6</ele>
        <time>2022-05-22T10:01:20Z</time>
      </trkpt>
      <trkpt lat="37.9870140" lon="-5.6296500">
        <ele>613.6</ele>
        <time>2022-05-22T10:01:21Z</time>
      </trkpt>
      <trkpt lat="37.9870190" lon="-5.6296600">
        <ele>613.6</ele>
        <time>2022-05-22T10:01:22Z</time>
      </trkpt>
      <trkpt lat="37.9870240" lon="-5.6296700">
        <ele>613.6</ele>
        <time>2022-05-22T10:01:23Z</time>
      </trkpt>
      <trkpt lat="37.9870340" lon="-5.6296840">
        <ele>613.6</ele>
        <time>2022-05-22T10:01:24Z</time>
      </trkpt>
      <trkpt lat="37.9870440" lon="-5.6296980">
        <ele>613.6</ele>
        <time>2022-05-22T10:01:25Z</time>
      </trkpt>
      <trkpt lat="37.9870670" lon="-5.6297260">
        <ele>613.5</ele>
        <time>2022-05-22T10:01:26Z</time>
      </trkpt>
      <trkpt lat="37.9870790" lon="-5.6297410">
        <ele>613.5</ele>
        <time>2022-05-22T10:01:27Z</time>
      </trkpt>
      <trkpt lat="37.9870920" lon="-5.6297540">
        <ele>613.5</ele>
        <time>2022-05-22T10:01:28Z</time>
      </trkpt>
      <trkpt lat="37.9871050" lon="-5.6297660">
        <ele>613.5</ele>
        <time>2022-05-22T10:01:29Z</time>
      </trkpt>
      <trkpt lat="37.9871170" lon="-5.6297770">
        <ele>613.5</ele>
        <time>2022-05-22T10:01:30Z</time>
      </trkpt>
      <trkpt lat="37.9871280" lon="-5.6297890">
        <ele>613.4</ele>
        <time>2022-05-22T10:01:31Z</time>
      </trkpt>
      <trkpt lat="37.9871400" lon="-5.6297990">
        <ele>613.4</ele>
        <time>2022-05-22T10:01:32Z</time>
      </trkpt>
      <trkpt lat="37.9871580" lon="-5.6298120">
        <ele>613.4</ele>
        <time>2022-05-22T10:01:33Z</time>
      </trkpt>
      <trkpt lat="37.9871660" lon="-5.6298160">
        <ele>613.4</ele>
        <time>2022-05-22T10:01:34Z</time>
      </trkpt>
      <trkpt lat="37.9871730" lon="-5.6298210">
        <ele>613.4</ele>
        <time>2022-05-22T10:01:35Z</time>
      </trkpt>
      <trkpt lat="37.9871790" lon="-5.6298300">
        <ele>613.4</ele>
        <time>2022-05-22T10:01:36Z</time>
      </trkpt>
      <trkpt lat="37.9871860" lon="-5.6298410">
        <ele>613.4</ele>
        <time>2022-05-22T10:01:37Z</time>
      </trkpt>
      <trkpt lat="37.9871960" lon="-5.6298540">
        <ele>613.3</ele>
        <time>2022-05-22T10:01:38Z</time>
      </trkpt>
      <trkpt lat="37.9872060" lon="-5.6298660">
        <ele>613.3</ele>
        <time>2022-05-22T10:01:39Z</time>
      </trkpt>
      <trkpt lat="37.9872150" lon="-5.6298790">
        <ele>613.3</ele>
        <time>2022-05-22T10:01:40Z</time>
      </trkpt>
      <trkpt lat="37.9872230" lon="-5.6298910">
        <ele>613.3</ele>
        <time>2022-05-22T10:01:41Z</time>
      </trkpt>
      <trkpt lat="37.9872290" lon="-5.6298980">
        <ele>613.3</ele>
        <time>2022-05-22T10:01:42Z</time>
      </trkpt>
      <trkpt lat="37.9872370" lon="-5.6299060">
        <ele>613.2</ele>
        <time>2022-05-22T10:01:43Z</time>
      </trkpt>
      <trkpt lat="37.9872450" lon="-5.6299120">
        <ele>613.2</ele>
        <time>2022-05-22T10:01:44Z</time>
      </trkpt>
      <trkpt lat="37.9872540" lon="-5.6299180">
        <ele>613.2</ele>
        <time>2022-05-22T10:01:45Z</time>
      </trkpt>
      <trkpt lat="37.9872630" lon="-5.6299250">
        <ele>613.2</ele>
        <time>2022-05-22T10:01:46Z</time>
      </trkpt>
      <trkpt lat="37.9872730" lon="-5.6299350">
        <ele>613.1</ele>
        <time>2022-05-22T10:01:47Z</time>
      </trkpt>
      <trkpt lat="37.9872830" lon="-5.6299440">
        <ele>613.1</ele>
        <time>2022-05-22T10:01:48Z</time>
      </trkpt>
      <trkpt lat="37.9872990" lon="-5.6299570">
        <ele>613.1</ele>
        <time>2022-05-22T10:01:50Z</time>
      </trkpt>
      <trkpt lat="37.9873060" lon="-5.6299630">
        <ele>613.1</ele>
        <time>2022-05-22T10:01:51Z</time>
      </trkpt>
      <trkpt lat="37.9873140" lon="-5.6299680">
        <ele>613.1</ele>
        <time>2022-05-22T10:01:52Z</time>
      </trkpt>
      <trkpt lat="37.9873220" lon="-5.6299750">
        <ele>613.0</ele>
        <time>2022-05-22T10:01:53Z</time>
      </trkpt>
      <trkpt lat="37.9873360" lon="-5.6299820">
        <ele>613.0</ele>
        <time>2022-05-22T10:01:55Z</time>
      </trkpt>
      <trkpt lat="37.9873420" lon="-5.6299860">
        <ele>613.0</ele>
        <time>2022-05-22T10:01:56Z</time>
      </trkpt>
      <trkpt lat="37.9873490" lon="-5.6299910">
        <ele>613.0</ele>
        <time>2022-05-22T10:01:57Z</time>
      </trkpt>
      <trkpt lat="37.9873570" lon="-5.6299970">
        <ele>613.0</ele>
        <time>2022-05-22T10:01:58Z</time>
      </trkpt>
      <trkpt lat="37.9873640" lon="-5.6300030">
        <ele>612.9</ele>
        <time>2022-05-22T10:01:59Z</time>
      </trkpt>
      <trkpt lat="37.9873710" lon="-5.6300090">
        <ele>612.9</ele>
        <time>2022-05-22T10:02:00Z</time>
      </trkpt>
      <trkpt lat="37.9873780" lon="-5.6300160">
        <ele>612.9</ele>
        <time>2022-05-22T10:02:01Z</time>
      </trkpt>
      <trkpt lat="37.9873920" lon="-5.6300280">
        <ele>612.9</ele>
        <time>2022-05-22T10:02:02Z</time>
      </trkpt>
      <trkpt lat="37.9874120" lon="-5.6300460">
        <ele>612.8</ele>
        <time>2022-05-22T10:02:04Z</time>
      </trkpt>
      <trkpt lat="37.9874210" lon="-5.6300530">
        <ele>612.8</ele>
        <time>2022-05-22T10:02:05Z</time>
      </trkpt>
      <trkpt lat="37.9874290" lon="-5.6300600">
        <ele>612.8</ele>
        <time>2022-05-22T10:02:06Z</time>
      </trkpt>
      <trkpt lat="37.9874530" lon="-5.6300850">
        <ele>612.8</ele>
        <time>2022-05-22T10:02:08Z</time>
      </trkpt>
      <trkpt lat="37.9874610" lon="-5.6300940">
        <ele>612.8</ele>
        <time>2022-05-22T10:02:09Z</time>
      </trkpt>
      <trkpt lat="37.9874700" lon="-5.6301040">
        <ele>612.7</ele>
        <time>2022-05-22T10:02:10Z</time>
      </trkpt>
      <trkpt lat="37.9874770" lon="-5.6301170">
        <ele>612.7</ele>
        <time>2022-05-22T10:02:11Z</time>
      </trkpt>
      <trkpt lat="37.9874840" lon="-5.6301280">
        <ele>612.7</ele>
        <time>2022-05-22T10:02:12Z</time>
      </trkpt>
      <trkpt lat="37.9875020" lon="-5.6301430">
        <ele>612.7</ele>
        <time>2022-05-22T10:02:13Z</time>
      </trkpt>
      <trkpt lat="37.9875100" lon="-5.6301500">
        <ele>612.7</ele>
        <time>2022-05-22T10:02:14Z</time>
      </trkpt>
      <trkpt lat="37.9875170" lon="-5.6301560">
        <ele>612.6</ele>
        <time>2022-05-22T10:02:15Z</time>
      </trkpt>
      <trkpt lat="37.9875280" lon="-5.6301690">
        <ele>612.6</ele>
        <time>2022-05-22T10:02:16Z</time>
      </trkpt>
      <trkpt lat="37.9875400" lon="-5.6301850">
        <ele>612.6</ele>
        <time>2022-05-22T10:02:17Z</time>
      </trkpt>
      <trkpt lat="37.9875530" lon="-5.6302020">
        <ele>612.6</ele>
        <time>2022-05-22T10:02:18Z</time>
      </trkpt>
      <trkpt lat="37.9875660" lon="-5.6302170">
        <ele>612.5</ele>
        <time>2022-05-22T10:02:19Z</time>
      </trkpt>
      <trkpt lat="37.9875780" lon="-5.6302320">
        <ele>612.5</ele>
        <time>2022-05-22T10:02:20Z</time>
      </trkpt>
      <trkpt lat="37.9875890" lon="-5.6302490">
        <ele>612.5</ele>
        <time>2022-05-22T10:02:21Z</time>
      </trkpt>
      <trkpt lat="37.9875990" lon="-5.6302670">
        <ele>612.4</ele>
        <time>2022-05-22T10:02:22Z</time>
      </trkpt>
      <trkpt lat="37.9876080" lon="-5.6302820">
        <ele>612.4</ele>
        <time>2022-05-22T10:02:23Z</time>
      </trkpt>
      <trkpt lat="37.9876220" lon="-5.6303170">
        <ele>612.3</ele>
        <time>2022-05-22T10:02:24Z</time>
      </trkpt>
      <trkpt lat="37.9876260" lon="-5.6303270">
        <ele>612.3</ele>
        <time>2022-05-22T10:02:25Z</time>
      </trkpt>
      <trkpt lat="37.9876300" lon="-5.6303430">
        <ele>612.3</ele>
        <time>2022-05-22T10:02:26Z</time>
      </trkpt>
      <trkpt lat="37.9876350" lon="-5.6303570">
        <ele>612.3</ele>
        <time>2022-05-22T10:02:27Z</time>
      </trkpt>
      <trkpt lat="37.9876400" lon="-5.6303690">
        <ele>612.2</ele>
        <time>2022-05-22T10:02:29Z</time>
      </trkpt>
      <trkpt lat="37.9876510" lon="-5.6303910">
        <ele>612.2</ele>
        <time>2022-05-22T10:02:30Z</time>
      </trkpt>
      <trkpt lat="37.9876580" lon="-5.6304010">
        <ele>612.1</ele>
        <time>2022-05-22T10:02:31Z</time>
      </trkpt>
      <trkpt lat="37.9876750" lon="-5.6304240">
        <ele>612.1</ele>
        <time>2022-05-22T10:02:32Z</time>
      </trkpt>
      <trkpt lat="37.9876830" lon="-5.6304340">
        <ele>612.1</ele>
        <time>2022-05-22T10:02:33Z</time>
      </trkpt>
      <trkpt lat="37.9877110" lon="-5.6304700">
        <ele>612.0</ele>
        <time>2022-05-22T10:02:35Z</time>
      </trkpt>
      <trkpt lat="37.9877180" lon="-5.6304780">
        <ele>611.9</ele>
        <time>2022-05-22T10:02:36Z</time>
      </trkpt>
      <trkpt lat="37.9877250" lon="-5.6304870">
        <ele>611.9</ele>
        <time>2022-05-22T10:02:37Z</time>
      </trkpt>
      <trkpt lat="37.9877320" lon="-5.6304960">
        <ele>611.9</ele>
        <time>2022-05-22T10:02:38Z</time>
      </trkpt>
      <trkpt lat="37.9877410" lon="-5.6305090">
        <ele>611.9</ele>
        <time>2022-05-22T10:02:39Z</time>
      </trkpt>
      <trkpt lat="37.9877520" lon="-5.6305220">
        <ele>611.8</ele>
        <time>2022-05-22T10:02:40Z</time>
      </trkpt>
      <trkpt lat="37.9877640" lon="-5.6305350">
        <ele>611.8</ele>
        <time>2022-05-22T10:02:41Z</time>
      </trkpt>
      <trkpt lat="37.9877760" lon="-5.6305500">
        <ele>611.7</ele>
        <time>2022-05-22T10:02:42Z</time>
      </trkpt>
      <trkpt lat="37.9877860" lon="-5.6305650">
        <ele>611.7</ele>
        <time>2022-05-22T10:02:43Z</time>
      </trkpt>
      <trkpt lat="37.9877960" lon="-5.6305790">
        <ele>611.7</ele>
        <time>2022-05-22T10:02:44Z</time>
      </trkpt>
      <trkpt lat="37.9878080" lon="-5.6305920">
        <ele>611.6</ele>
        <time>2022-05-22T10:02:45Z</time>
      </trkpt>
      <trkpt lat="37.9878200" lon="-5.6306060">
        <ele>611.6</ele>
        <time>2022-05-22T10:02:46Z</time>
      </trkpt>
      <trkpt lat="37.9878320" lon="-5.6306190">
        <ele>611.6</ele>
        <time>2022-05-22T10:02:47Z</time>
      </trkpt>
      <trkpt lat="37.9878450" lon="-5.6306300">
        <ele>611.5</ele>
        <time>2022-05-22T10:02:48Z</time>
      </trkpt>
      <trkpt lat="37.9878560" lon="-5.6306400">
        <ele>611.5</ele>
        <time>2022-05-22T10:02:49Z</time>
      </trkpt>
      <trkpt lat="37.9878640" lon="-5.6306480">
        <ele>611.5</ele>
        <time>2022-05-22T10:02:50Z</time>
      </trkpt>
      <trkpt lat="37.9878720" lon="-5.6306570">
        <ele>611.5</ele>
        <time>2022-05-22T10:02:51Z</time>
      </trkpt>
      <trkpt lat="37.9878800" lon="-5.6306680">
        <ele>611.4</ele>
        <time>2022-05-22T10:02:52Z</time>
      </trkpt>
      <trkpt lat="37.9878970" lon="-5.6306930">
        <ele>611.4</ele>
        <time>2022-05-22T10:02:54Z</time>
      </trkpt>
      <trkpt lat="37.9879100" lon="-5.6307040">
        <ele>611.4</ele>
        <time>2022-05-22T10:02:55Z</time>
      </trkpt>
      <trkpt lat="37.9879190" lon="-5.6307150">
        <ele>611.3</ele>
        <time>2022-05-22T10:02:56Z</time>
      </trkpt>
      <trkpt lat="37.9879270" lon="-5.6307240">
        <ele>611.3</ele>
        <time>2022-05-22T10:02:57Z</time>
      </trkpt>
      <trkpt lat="37.9879340" lon="-5.6307330">
        <ele>611.3</ele>
        <time>2022-05-22T10:02:58Z</time>
      </trkpt>
      <trkpt lat="37.9879410" lon="-5.6307430">
        <ele>611.3</ele>
        <time>2022-05-22T10:02:59Z</time>
      </trkpt>
      <trkpt lat="37.9879460" lon="-5.6307520">
        <ele>611.2</ele>
        <time>2022-05-22T10:03:00Z</time>
      </trkpt>
      <trkpt lat="37.9879550" lon="-5.6307640">
        <ele>611.2</ele>
        <time>2022-05-22T10:03:01Z</time>
      </trkpt>
      <trkpt lat="37.9879600" lon="-5.6307730">
        <ele>611.2</ele>
        <time>2022-05-22T10:03:02Z</time>
      </trkpt>
      <trkpt lat="37.9879660" lon="-5.6307830">
        <ele>611.2</ele>
        <time>2022-05-22T10:03:03Z</time>
      </trkpt>
      <trkpt lat="37.9879730" lon="-5.6307960">
        <ele>611.2</ele>
        <time>2022-05-22T10:03:04Z</time>
      </trkpt>
      <trkpt lat="37.9879880" lon="-5.6308200">
        <ele>611.1</ele>
        <time>2022-05-22T10:03:06Z</time>
      </trkpt>
      <trkpt lat="37.9879950" lon="-5.6308330">
        <ele>611.1</ele>
        <time>2022-05-22T10:03:07Z</time>
      </trkpt>
      <trkpt lat="37.9880030" lon="-5.6308500">
        <ele>611.1</ele>
        <time>2022-05-22T10:03:08Z</time>
      </trkpt>
      <trkpt lat="37.9880110" lon="-5.6308670">
        <ele>611.0</ele>
        <time>2022-05-22T10:03:09Z</time>
      </trkpt>
      <trkpt lat="37.9880240" lon="-5.6308910">
        <ele>611.0</ele>
        <time>2022-05-22T10:03:11Z</time>
      </trkpt>
      <trkpt lat="37.9880310" lon="-5.6309000">
        <ele>611.0</ele>
        <time>2022-05-22T10:03:12Z</time>
      </trkpt>
      <trkpt lat="37.9880380" lon="-5.6309090">
        <ele>611.0</ele>
        <time>2022-05-22T10:03:13Z</time>
      </trkpt>
      <trkpt lat="37.9880450" lon="-5.6309190">
        <ele>610.9</ele>
        <time>2022-05-22T10:03:14Z</time>
      </trkpt>
      <trkpt lat="37.9880580" lon="-5.6309420">
        <ele>610.9</ele>
        <time>2022-05-22T10:03:16Z</time>
      </trkpt>
      <trkpt lat="37.9880640" lon="-5.6309530">
        <ele>610.9</ele>
        <time>2022-05-22T10:03:17Z</time>
      </trkpt>
      <trkpt lat="37.9880700" lon="-5.6309690">
        <ele>610.8</ele>
        <time>2022-05-22T10:03:18Z</time>
      </trkpt>
      <trkpt lat="37.9880760" lon="-5.6309870">
        <ele>610.8</ele>
        <time>2022-05-22T10:03:19Z</time>
      </trkpt>
      <trkpt lat="37.9880830" lon="-5.6310150">
        <ele>610.8</ele>
        <time>2022-05-22T10:03:20Z</time>
      </trkpt>
      <trkpt lat="37.9880870" lon="-5.6310280">
        <ele>610.7</ele>
        <time>2022-05-22T10:03:21Z</time>
      </trkpt>
      <trkpt lat="37.9880900" lon="-5.6310420">
        <ele>610.7</ele>
        <time>2022-05-22T10:03:22Z</time>
      </trkpt>
      <trkpt lat="37.9881010" lon="-5.6310670">
        <ele>610.7</ele>
        <time>2022-05-22T10:03:23Z</time>
      </trkpt>
      <trkpt lat="37.9881050" lon="-5.6310760">
        <ele>610.7</ele>
        <time>2022-05-22T10:03:24Z</time>
      </trkpt>
      <trkpt lat="37.9881100" lon="-5.6310840">
        <ele>610.6</ele>
        <time>2022-05-22T10:03:25Z</time>
      </trkpt>
      <trkpt lat="37.9881170" lon="-5.6310990">
        <ele>610.6</ele>
        <time>2022-05-22T10:03:26Z</time>
      </trkpt>
      <trkpt lat="37.9881240" lon="-5.6311180">
        <ele>610.6</ele>
        <time>2022-05-22T10:03:27Z</time>
      </trkpt>
      <trkpt lat="37.9881310" lon="-5.6311360">
        <ele>610.6</ele>
        <time>2022-05-22T10:03:28Z</time>
      </trkpt>
      <trkpt lat="37.9881370" lon="-5.6311550">
        <ele>610.5</ele>
        <time>2022-05-22T10:03:29Z</time>
      </trkpt>
      <trkpt lat="37.9881450" lon="-5.6311760">
        <ele>610.5</ele>
        <time>2022-05-22T10:03:30Z</time>
      </trkpt>
      <trkpt lat="37.9881530" lon="-5.6311940">
        <ele>610.5</ele>
        <time>2022-05-22T10:03:31Z</time>
      </trkpt>
      <trkpt lat="37.9881600" lon="-5.6312110">
        <ele>610.4</ele>
        <time>2022-05-22T10:03:32Z</time>
      </trkpt>
      <trkpt lat="37.9881660" lon="-5.6312270">
        <ele>610.4</ele>
        <time>2022-05-22T10:03:33Z</time>
      </trkpt>
      <trkpt lat="37.9881730" lon="-5.6312450">
        <ele>610.4</ele>
        <time>2022-05-22T10:03:34Z</time>
      </trkpt>
      <trkpt lat="37.9881780" lon="-5.6312610">
        <ele>610.3</ele>
        <time>2022-05-22T10:03:35Z</time>
      </trkpt>
      <trkpt lat="37.9881820" lon="-5.6312910">
        <ele>610.3</ele>
        <time>2022-05-22T10:03:36Z</time>
      </trkpt>
      <trkpt lat="37.9881820" lon="-5.6313040">
        <ele>610.3</ele>
        <time>2022-05-22T10:03:37Z</time>
      </trkpt>
      <trkpt lat="37.9881830" lon="-5.6313180">
        <ele>610.2</ele>
        <time>2022-05-22T10:03:38Z</time>
      </trkpt>
      <trkpt lat="37.9881830" lon="-5.6313380">
        <ele>610.2</ele>
        <time>2022-05-22T10:03:39Z</time>
      </trkpt>
      <trkpt lat="37.9881840" lon="-5.6313580">
        <ele>610.2</ele>
        <time>2022-05-22T10:03:40Z</time>
      </trkpt>
      <trkpt lat="37.9881870" lon="-5.6313710">
        <ele>610.1</ele>
        <time>2022-05-22T10:03:41Z</time>
      </trkpt>
      <trkpt lat="37.9881880" lon="-5.6313840">
        <ele>610.1</ele>
        <time>2022-05-22T10:03:43Z</time>
      </trkpt>
      <trkpt lat="37.9881910" lon="-5.6314030">
        <ele>610.1</ele>
        <time>2022-05-22T10:03:44Z</time>
      </trkpt>
      <trkpt lat="37.9881920" lon="-5.6314130">
        <ele>610.1</ele>
        <time>2022-05-22T10:03:45Z</time>
      </trkpt>
      <trkpt lat="37.9881950" lon="-5.6314240">
        <ele>610.1</ele>
        <time>2022-05-22T10:03:46Z</time>
      </trkpt>
      <trkpt lat="37.9881980" lon="-5.6314390">
        <ele>610.0</ele>
        <time>2022-05-22T10:03:47Z</time>
      </trkpt>
      <trkpt lat="37.9882010" lon="-5.6314530">
        <ele>610.0</ele>
        <time>2022-05-22T10:03:48Z</time>
      </trkpt>
      <trkpt lat="37.9882060" lon="-5.6314690">
        <ele>610.0</ele>
        <time>2022-05-22T10:03:49Z</time>
      </trkpt>
      <trkpt lat="37.9882090" lon="-5.6314790">
        <ele>610.0</ele>
        <time>2022-05-22T10:03:50Z</time>
      </trkpt>
      <trkpt lat="37.9882140" lon="-5.6314890">
        <ele>609.9</ele>
        <time>2022-05-22T10:03:51Z</time>
      </trkpt>
      <trkpt lat="37.9882200" lon="-5.6314990">
        <ele>609.9</ele>
        <time>2022-05-22T10:03:52Z</time>
      </trkpt>
      <trkpt lat="37.9882290" lon="-5.6315120">
        <ele>609.9</ele>
        <time>2022-05-22T10:03:53Z</time>
      </trkpt>
      <trkpt lat="37.9882470" lon="-5.6315410">
        <ele>609.8</ele>
        <time>2022-05-22T10:03:55Z</time>
      </trkpt>
      <trkpt lat="37.9882560" lon="-5.6315590">
        <ele>609.8</ele>
        <time>2022-05-22T10:03:56Z</time>
      </trkpt>
      <trkpt lat="37.9882590" lon="-5.6315740">
        <ele>609.8</ele>
        <time>2022-05-22T10:03:58Z</time>
      </trkpt>
      <trkpt lat="37.9882610" lon="-5.6315900">
        <ele>609.8</ele>
        <time>2022-05-22T10:03:59Z</time>
      </trkpt>
      <trkpt lat="37.9882620" lon="-5.6316200">
        <ele>609.7</ele>
        <time>2022-05-22T10:04:01Z</time>
      </trkpt>
      <trkpt lat="37.9882620" lon="-5.6316320">
        <ele>609.7</ele>
        <time>2022-05-22T10:04:02Z</time>
      </trkpt>
      <trkpt lat="37.9882680" lon="-5.6316550">
        <ele>609.7</ele>
        <time>2022-05-22T10:04:04Z</time>
      </trkpt>
      <trkpt lat="37.9882690" lon="-5.6316690">
        <ele>609.6</ele>
        <time>2022-05-22T10:04:05Z</time>
      </trkpt>
      <trkpt lat="37.9882700" lon="-5.6316810">
        <ele>609.6</ele>
        <time>2022-05-22T10:04:06Z</time>
      </trkpt>
      <trkpt lat="37.9882720" lon="-5.6316930">
        <ele>609.6</ele>
        <time>2022-05-22T10:04:07Z</time>
      </trkpt>
      <trkpt lat="37.9882790" lon="-5.6317200">
        <ele>609.5</ele>
        <time>2022-05-22T10:04:09Z</time>
      </trkpt>
      <trkpt lat="37.9882820" lon="-5.6317280">
        <ele>609.5</ele>
        <time>2022-05-22T10:04:10Z</time>
      </trkpt>
      <trkpt lat="37.9882850" lon="-5.6317370">
        <ele>609.5</ele>
        <time>2022-05-22T10:04:11Z</time>
      </trkpt>
      <trkpt lat="37.9882950" lon="-5.6317570">
        <ele>609.5</ele>
        <time>2022-05-22T10:04:12Z</time>
      </trkpt>
      <trkpt lat="37.9883060" lon="-5.6317720">
        <ele>609.4</ele>
        <time>2022-05-22T10:04:13Z</time>
      </trkpt>
      <trkpt lat="37.9883190" lon="-5.6317950">
        <ele>609.4</ele>
        <time>2022-05-22T10:04:14Z</time>
      </trkpt>
      <trkpt lat="37.9883250" lon="-5.6318050">
        <ele>609.4</ele>
        <time>2022-05-22T10:04:15Z</time>
      </trkpt>
      <trkpt lat="37.9883300" lon="-5.6318140">
        <ele>609.4</ele>
        <time>2022-05-22T10:04:16Z</time>
      </trkpt>
      <trkpt lat="37.9883380" lon="-5.6318290">
        <ele>609.3</ele>
        <time>2022-05-22T10:04:17Z</time>
      </trkpt>
      <trkpt lat="37.9883490" lon="-5.6318510">
        <ele>609.3</ele>
        <time>2022-05-22T10:04:18Z</time>
      </trkpt>
      <trkpt lat="37.9883530" lon="-5.6318650">
        <ele>609.3</ele>
        <time>2022-05-22T10:04:19Z</time>
      </trkpt>
      <trkpt lat="37.9883570" lon="-5.6318790">
        <ele>609.2</ele>
        <time>2022-05-22T10:04:20Z</time>
      </trkpt>
      <trkpt lat="37.9883570" lon="-5.6318930">
        <ele>609.2</ele>
        <time>2022-05-22T10:04:21Z</time>
      </trkpt>
      <trkpt lat="37.9883590" lon="-5.6319070">
        <ele>609.2</ele>
        <time>2022-05-22T10:04:22Z</time>
      </trkpt>
      <trkpt lat="37.9883640" lon="-5.6319310">
        <ele>609.2</ele>
        <time>2022-05-22T10:04:24Z</time>
      </trkpt>
      <trkpt lat="37.9883680" lon="-5.6319470">
        <ele>609.1</ele>
        <time>2022-05-22T10:04:25Z</time>
      </trkpt>
      <trkpt lat="37.9883740" lon="-5.6319680">
        <ele>609.1</ele>
        <time>2022-05-22T10:04:26Z</time>
      </trkpt>
      <trkpt lat="37.9883820" lon="-5.6319960">
        <ele>609.0</ele>
        <time>2022-05-22T10:04:27Z</time>
      </trkpt>
      <trkpt lat="37.9883850" lon="-5.6320070">
        <ele>609.0</ele>
        <time>2022-05-22T10:04:28Z</time>
      </trkpt>
      <trkpt lat="37.9883880" lon="-5.6320190">
        <ele>609.0</ele>
        <time>2022-05-22T10:04:29Z</time>
      </trkpt>
      <trkpt lat="37.9883920" lon="-5.6320360">
        <ele>609.0</ele>
        <time>2022-05-22T10:04:31Z</time>
      </trkpt>
      <trkpt lat="37.9883970" lon="-5.6320530">
        <ele>609.0</ele>
        <time>2022-05-22T10:04:32Z</time>
      </trkpt>
      <trkpt lat="37.9884040" lon="-5.6320730">
        <ele>608.9</ele>
        <time>2022-05-22T10:04:33Z</time>
      </trkpt>
      <trkpt lat="37.9884090" lon="-5.6320910">
        <ele>608.9</ele>
        <time>2022-05-22T10:04:34Z</time>
      </trkpt>
      <trkpt lat="37.9884150" lon="-5.6321100">
        <ele>608.9</ele>
        <time>2022-05-22T10:04:36Z</time>
      </trkpt>
      <trkpt lat="37.9884190" lon="-5.6321240">
        <ele>608.9</ele>
        <time>2022-05-22T10:04:37Z</time>
      </trkpt>
      <trkpt lat="37.9884240" lon="-5.6321490">
        <ele>608.8</ele>
        <time>2022-05-22T10:04:38Z</time>
      </trkpt>
      <trkpt lat="37.9884260" lon="-5.6321600">
        <ele>608.8</ele>
        <time>2022-05-22T10:04:39Z</time>
      </trkpt>
      <trkpt lat="37.9884280" lon="-5.6321700">
        <ele>608.8</ele>
        <time>2022-05-22T10:04:40Z</time>
      </trkpt>
      <trkpt lat="37.9884320" lon="-5.6321900">
        <ele>608.8</ele>
        <time>2022-05-22T10:04:41Z</time>
      </trkpt>
      <trkpt lat="37.9884350" lon="-5.6322110">
        <ele>608.8</ele>
        <time>2022-05-22T10:04:42Z</time>
      </trkpt>
      <trkpt lat="37.9884400" lon="-5.6322370">
        <ele>608.7</ele>
        <time>2022-05-22T10:04:43Z</time>
      </trkpt>
      <trkpt lat="37.9884410" lon="-5.6322480">
        <ele>608.7</ele>
        <time>2022-05-22T10:04:44Z</time>
      </trkpt>
      <trkpt lat="37.9884430" lon="-5.6322590">
        <ele>608.7</ele>
        <time>2022-05-22T10:04:45Z</time>
      </trkpt>
      <trkpt lat="37.9884460" lon="-5.6322840">
        <ele>608.7</ele>
        <time>2022-05-22T10:04:46Z</time>
      </trkpt>
      <trkpt lat="37.9884480" lon="-5.6322950">
        <ele>608.6</ele>
        <time>2022-05-22T10:04:47Z</time>
      </trkpt>
      <trkpt lat="37.9884520" lon="-5.6323210">
        <ele>608.6</ele>
        <time>2022-05-22T10:04:48Z</time>
      </trkpt>
      <trkpt lat="37.9884540" lon="-5.6323320">
        <ele>608.6</ele>
        <time>2022-05-22T10:04:49Z</time>
      </trkpt>
      <trkpt lat="37.9884560" lon="-5.6323430">
        <ele>608.6</ele>
        <time>2022-05-22T10:04:50Z</time>
      </trkpt>
      <trkpt lat="37.9884610" lon="-5.6323580">
        <ele>608.5</ele>
        <time>2022-05-22T10:04:51Z</time>
      </trkpt>
      <trkpt lat="37.9884670" lon="-5.6323780">
        <ele>608.5</ele>
        <time>2022-05-22T10:04:52Z</time>
      </trkpt>
      <trkpt lat="37.9884710" lon="-5.6323940">
        <ele>608.5</ele>
        <time>2022-05-22T10:04:53Z</time>
      </trkpt>
      <trkpt lat="37.9884760" lon="-5.6324130">
        <ele>608.4</ele>
        <time>2022-05-22T10:04:54Z</time>
      </trkpt>
      <trkpt lat="37.9884780" lon="-5.6324300">
        <ele>608.4</ele>
        <time>2022-05-22T10:04:55Z</time>
      </trkpt>
      <trkpt lat="37.9884790" lon="-5.6324460">
        <ele>608.4</ele>
        <time>2022-05-22T10:04:56Z</time>
      </trkpt>
      <trkpt lat="37.9884790" lon="-5.6324740">
        <ele>608.3</ele>
        <time>2022-05-22T10:04:58Z</time>
      </trkpt>
      <trkpt lat="37.9884810" lon="-5.6325080">
        <ele>608.2</ele>
        <time>2022-05-22T10:04:59Z</time>
      </trkpt>
      <trkpt lat="37.9884810" lon="-5.6325230">
        <ele>608.2</ele>
        <time>2022-05-22T10:05:00Z</time>
      </trkpt>
      <trkpt lat="37.9884840" lon="-5.6325500">
        <ele>608.1</ele>
        <time>2022-05-22T10:05:01Z</time>
      </trkpt>
      <trkpt lat="37.9884860" lon="-5.6325610">
        <ele>608.1</ele>
        <time>2022-05-22T10:05:02Z</time>
      </trkpt>
      <trkpt lat="37.9884880" lon="-5.6325710">
        <ele>608.1</ele>
        <time>2022-05-22T10:05:03Z</time>
      </trkpt>
      <trkpt lat="37.9884890" lon="-5.6325860">
        <ele>608.1</ele>
        <time>2022-05-22T10:05:04Z</time>
      </trkpt>
      <trkpt lat="37.9884820" lon="-5.6326200">
        <ele>608.0</ele>
        <time>2022-05-22T10:05:06Z</time>
      </trkpt>
      <trkpt lat="37.9884820" lon="-5.6326430">
        <ele>607.9</ele>
        <time>2022-05-22T10:05:08Z</time>
      </trkpt>
      <trkpt lat="37.9884850" lon="-5.6326620">
        <ele>607.9</ele>
        <time>2022-05-22T10:05:09Z</time>
      </trkpt>
      <trkpt lat="37.9884870" lon="-5.6326770">
        <ele>607.9</ele>
        <time>2022-05-22T10:05:10Z</time>
      </trkpt>
      <trkpt lat="37.9884890" lon="-5.6326930">
        <ele>607.8</ele>
        <time>2022-05-22T10:05:11Z</time>
      </trkpt>
      <trkpt lat="37.9884920" lon="-5.6327240">
        <ele>607.8</ele>
        <time>2022-05-22T10:05:13Z</time>
      </trkpt>
      <trkpt lat="37.9884850" lon="-5.6327430">
        <ele>607.7</ele>
        <time>2022-05-22T10:05:14Z</time>
      </trkpt>
      <trkpt lat="37.9884680" lon="-5.6327760">
        <ele>607.6</ele>
        <time>2022-05-22T10:05:15Z</time>
      </trkpt>
      <trkpt lat="37.9884650" lon="-5.6327840">
        <ele>607.6</ele>
        <time>2022-05-22T10:05:16Z</time>
      </trkpt>
      <trkpt lat="37.9884530" lon="-5.6328150">
        <ele>607.5</ele>
        <time>2022-05-22T10:05:17Z</time>
      </trkpt>
      <trkpt lat="37.9884470" lon="-5.6328320">
        <ele>607.5</ele>
        <time>2022-05-22T10:05:19Z</time>
      </trkpt>
      <trkpt lat="37.9884420" lon="-5.6328480">
        <ele>607.5</ele>
        <time>2022-05-22T10:05:20Z</time>
      </trkpt>
      <trkpt lat="37.9884360" lon="-5.6328640">
        <ele>607.4</ele>
        <time>2022-05-22T10:05:21Z</time>
      </trkpt>
      <trkpt lat="37.9884290" lon="-5.6328890">
        <ele>607.4</ele>
        <time>2022-05-22T10:05:22Z</time>
      </trkpt>
      <trkpt lat="37.9884260" lon="-5.6328990">
        <ele>607.4</ele>
        <time>2022-05-22T10:05:23Z</time>
      </trkpt>
      <trkpt lat="37.9884220" lon="-5.6329090">
        <ele>607.4</ele>
        <time>2022-05-22T10:05:24Z</time>
      </trkpt>
      <trkpt lat="37.9884170" lon="-5.6329230">
        <ele>607.3</ele>
        <time>2022-05-22T10:05:25Z</time>
      </trkpt>
      <trkpt lat="37.9884130" lon="-5.6329350">
        <ele>607.3</ele>
        <time>2022-05-22T10:05:26Z</time>
      </trkpt>
      <trkpt lat="37.9884060" lon="-5.6329490">
        <ele>607.3</ele>
        <time>2022-05-22T10:05:27Z</time>
      </trkpt>
      <trkpt lat="37.9883980" lon="-5.6329720">
        <ele>607.2</ele>
        <time>2022-05-22T10:05:28Z</time>
      </trkpt>
      <trkpt lat="37.9883950" lon="-5.6329820">
        <ele>607.2</ele>
        <time>2022-05-22T10:05:29Z</time>
      </trkpt>
      <trkpt lat="37.9883920" lon="-5.6329910">
        <ele>607.2</ele>
        <time>2022-05-22T10:05:30Z</time>
      </trkpt>
      <trkpt lat="37.9883930" lon="-5.6330120">
        <ele>607.2</ele>
        <time>2022-05-22T10:05:31Z</time>
      </trkpt>
      <trkpt lat="37.9883950" lon="-5.6330260">
        <ele>607.2</ele>
        <time>2022-05-22T10:05:32Z</time>
      </trkpt>
      <trkpt lat="37.9883950" lon="-5.6330400">
        <ele>607.1</ele>
        <time>2022-05-22T10:05:33Z</time>
      </trkpt>
      <trkpt lat="37.9883960" lon="-5.6330550">
        <ele>607.1</ele>
        <time>2022-05-22T10:05:34Z</time>
      </trkpt>
      <trkpt lat="37.9883960" lon="-5.6330690">
        <ele>607.1</ele>
        <time>2022-05-22T10:05:35Z</time>
      </trkpt>
      <trkpt lat="37.9883970" lon="-5.6330950">
        <ele>607.1</ele>
        <time>2022-05-22T10:05:36Z</time>
      </trkpt>
      <trkpt lat="37.9883970" lon="-5.6331060">
        <ele>607.1</ele>
        <time>2022-05-22T10:05:37Z</time>
      </trkpt>
      <trkpt lat="37.9883970" lon="-5.6331170">
        <ele>607.0</ele>
        <time>2022-05-22T10:05:38Z</time>
      </trkpt>
      <trkpt lat="37.9883990" lon="-5.6331370">
        <ele>607.0</ele>
        <time>2022-05-22T10:05:39Z</time>
      </trkpt>
      <trkpt lat="37.9884000" lon="-5.6331550">
        <ele>607.0</ele>
        <time>2022-05-22T10:05:40Z</time>
      </trkpt>
      <trkpt lat="37.9884000" lon="-5.6331730">
        <ele>607.0</ele>
        <time>2022-05-22T10:05:41Z</time>
      </trkpt>
      <trkpt lat="37.9883940" lon="-5.6331930">
        <ele>606.9</ele>
        <time>2022-05-22T10:05:42Z</time>
      </trkpt>
      <trkpt lat="37.9883900" lon="-5.6332190">
        <ele>606.9</ele>
        <time>2022-05-22T10:05:43Z</time>
      </trkpt>
      <trkpt lat="37.9883880" lon="-5.6332290">
        <ele>606.9</ele>
        <time>2022-05-22T10:05:44Z</time>
      </trkpt>
      <trkpt lat="37.9883870" lon="-5.6332390">
        <ele>606.9</ele>
        <time>2022-05-22T10:05:45Z</time>
      </trkpt>
      <trkpt lat="37.9883830" lon="-5.6332670">
        <ele>606.8</ele>
        <time>2022-05-22T10:05:46Z</time>
      </trkpt>
      <trkpt lat="37.9883810" lon="-5.6332800">
        <ele>606.8</ele>
        <time>2022-05-22T10:05:47Z</time>
      </trkpt>
      <trkpt lat="37.9883790" lon="-5.6332940">
        <ele>606.8</ele>
        <time>2022-05-22T10:05:48Z</time>
      </trkpt>
      <trkpt lat="37.9883760" lon="-5.6333100">
        <ele>606.8</ele>
        <time>2022-05-22T10:05:49Z</time>
      </trkpt>
      <trkpt lat="37.9883740" lon="-5.6333290">
        <ele>606.8</ele>
        <time>2022-05-22T10:05:50Z</time>
      </trkpt>
      <trkpt lat="37.9883710" lon="-5.6333510">
        <ele>606.7</ele>
        <time>2022-05-22T10:05:51Z</time>
      </trkpt>
      <trkpt lat="37.9883690" lon="-5.6333670">
        <ele>606.7</ele>
        <time>2022-05-22T10:05:52Z</time>
      </trkpt>
      <trkpt lat="37.9883670" lon="-5.6334050">
        <ele>606.7</ele>
        <time>2022-05-22T10:05:54Z</time>
      </trkpt>
      <trkpt lat="37.9883670" lon="-5.6334240">
        <ele>606.6</ele>
        <time>2022-05-22T10:05:55Z</time>
      </trkpt>
      <trkpt lat="37.9883680" lon="-5.6334410">
        <ele>606.6</ele>
        <time>2022-05-22T10:05:56Z</time>
      </trkpt>
      <trkpt lat="37.9883680" lon="-5.6334580">
        <ele>606.6</ele>
        <time>2022-05-22T10:05:57Z</time>
      </trkpt>
      <trkpt lat="37.9883690" lon="-5.6334800">
        <ele>606.6</ele>
        <time>2022-05-22T10:05:59Z</time>
      </trkpt>
      <trkpt lat="37.9883680" lon="-5.6335090">
        <ele>606.5</ele>
        <time>2022-05-22T10:06:00Z</time>
      </trkpt>
      <trkpt lat="37.9883680" lon="-5.6335220">
        <ele>606.5</ele>
        <time>2022-05-22T10:06:01Z</time>
      </trkpt>
      <trkpt lat="37.9883670" lon="-5.6335370">
        <ele>606.5</ele>
        <time>2022-05-22T10:06:02Z</time>
      </trkpt>
      <trkpt lat="37.9883670" lon="-5.6335510">
        <ele>606.5</ele>
        <time>2022-05-22T10:06:03Z</time>
      </trkpt>
      <trkpt lat="37.9883670" lon="-5.6335660">
        <ele>606.5</ele>
        <time>2022-05-22T10:06:04Z</time>
      </trkpt>
      <trkpt lat="37.9883660" lon="-5.6335870">
        <ele>606.4</ele>
        <time>2022-05-22T10:06:05Z</time>
      </trkpt>
      <trkpt lat="37.9883650" lon="-5.6336000">
        <ele>606.4</ele>
        <time>2022-05-22T10:06:06Z</time>
      </trkpt>
      <trkpt lat="37.9883650" lon="-5.6336200">
        <ele>606.4</ele>
        <time>2022-05-22T10:06:08Z</time>
      </trkpt>
      <trkpt lat="37.9883650" lon="-5.6336320">
        <ele>606.4</ele>
        <time>2022-05-22T10:06:09Z</time>
      </trkpt>
      <trkpt lat="37.9883650" lon="-5.6336460">
        <ele>606.4</ele>
        <time>2022-05-22T10:06:10Z</time>
      </trkpt>
      <trkpt lat="37.9883640" lon="-5.6336630">
        <ele>606.3</ele>
        <time>2022-05-22T10:06:11Z</time>
      </trkpt>
      <trkpt lat="37.9883630" lon="-5.6336770">
        <ele>606.3</ele>
        <time>2022-05-22T10:06:12Z</time>
      </trkpt>
      <trkpt lat="37.9883630" lon="-5.6336870">
        <ele>606.3</ele>
        <time>2022-05-22T10:06:13Z</time>
      </trkpt>
      <trkpt lat="37.9883620" lon="-5.6337000">
        <ele>606.3</ele>
        <time>2022-05-22T10:06:14Z</time>
      </trkpt>
      <trkpt lat="37.9883590" lon="-5.6337270">
        <ele>606.2</ele>
        <time>2022-05-22T10:06:15Z</time>
      </trkpt>
      <trkpt lat="37.9883580" lon="-5.6337400">
        <ele>606.2</ele>
        <time>2022-05-22T10:06:16Z</time>
      </trkpt>
      <trkpt lat="37.9883570" lon="-5.6337530">
        <ele>606.2</ele>
        <time>2022-05-22T10:06:17Z</time>
      </trkpt>
      <trkpt lat="37.9883560" lon="-5.6337670">
        <ele>606.2</ele>
        <time>2022-05-22T10:06:18Z</time>
      </trkpt>
      <trkpt lat="37.9883550" lon="-5.6337820">
        <ele>606.2</ele>
        <time>2022-05-22T10:06:19Z</time>
      </trkpt>
      <trkpt lat="37.9883520" lon="-5.6337980">
        <ele>606.2</ele>
        <time>2022-05-22T10:06:20Z</time>
      </trkpt>
      <trkpt lat="37.9883480" lon="-5.6338150">
        <ele>606.1</ele>
        <time>2022-05-22T10:06:21Z</time>
      </trkpt>
      <trkpt lat="37.9883380" lon="-5.6338360">
        <ele>606.1</ele>
        <time>2022-05-22T10:06:22Z</time>
      </trkpt>
      <trkpt lat="37.9883300" lon="-5.6338610">
        <ele>606.1</ele>
        <time>2022-05-22T10:06:23Z</time>
      </trkpt>
      <trkpt lat="37.9883260" lon="-5.6338710">
        <ele>606.0</ele>
        <time>2022-05-22T10:06:24Z</time>
      </trkpt>
      <trkpt lat="37.9883210" lon="-5.6338820">
        <ele>606.0</ele>
        <time>2022-05-22T10:06:25Z</time>
      </trkpt>
      <trkpt lat="37.9883150" lon="-5.6338980">
        <ele>606.0</ele>
        <time>2022-05-22T10:06:26Z</time>
      </trkpt>
      <trkpt lat="37.9883090" lon="-5.6339140">
        <ele>606.0</ele>
        <time>2022-05-22T10:06:27Z</time>
      </trkpt>
      <trkpt lat="37.9883010" lon="-5.6339320">
        <ele>606.0</ele>
        <time>2022-05-22T10:06:28Z</time>
      </trkpt>
      <trkpt lat="37.9882960" lon="-5.6339450">
        <ele>605.9</ele>
        <time>2022-05-22T10:06:29Z</time>
      </trkpt>
      <trkpt lat="37.9882900" lon="-5.6339580">
        <ele>605.9</ele>
        <time>2022-05-22T10:06:30Z</time>
      </trkpt>
      <trkpt lat="37.9882820" lon="-5.6339700">
        <ele>605.9</ele>
        <time>2022-05-22T10:06:31Z</time>
      </trkpt>
      <trkpt lat="37.9882770" lon="-5.6339830">
        <ele>605.9</ele>
        <time>2022-05-22T10:06:32Z</time>
      </trkpt>
      <trkpt lat="37.9882660" lon="-5.6340050">
        <ele>605.8</ele>
        <time>2022-05-22T10:06:33Z</time>
      </trkpt>
      <trkpt lat="37.9882610" lon="-5.6340140">
        <ele>605.8</ele>
        <time>2022-05-22T10:06:34Z</time>
      </trkpt>
      <trkpt lat="37.9882560" lon="-5.6340240">
        <ele>605.8</ele>
        <time>2022-05-22T10:06:35Z</time>
      </trkpt>
      <trkpt lat="37.9882520" lon="-5.6340380">
        <ele>605.8</ele>
        <time>2022-05-22T10:06:36Z</time>
      </trkpt>
      <trkpt lat="37.9882490" lon="-5.6340530">
        <ele>605.8</ele>
        <time>2022-05-22T10:06:37Z</time>
      </trkpt>
      <trkpt lat="37.9882460" lon="-5.6340670">
        <ele>605.7</ele>
        <time>2022-05-22T10:06:38Z</time>
      </trkpt>
      <trkpt lat="37.9882420" lon="-5.6340820">
        <ele>605.7</ele>
        <time>2022-05-22T10:06:39Z</time>
      </trkpt>
      <trkpt lat="37.9882340" lon="-5.6341040">
        <ele>605.7</ele>
        <time>2022-05-22T10:06:40Z</time>
      </trkpt>
      <trkpt lat="37.9882270" lon="-5.6341250">
        <ele>605.7</ele>
        <time>2022-05-22T10:06:41Z</time>
      </trkpt>
      <trkpt lat="37.9882230" lon="-5.6341400">
        <ele>605.6</ele>
        <time>2022-05-22T10:06:42Z</time>
      </trkpt>
      <trkpt lat="37.9882190" lon="-5.6341570">
        <ele>605.6</ele>
        <time>2022-05-22T10:06:43Z</time>
      </trkpt>
      <trkpt lat="37.9882160" lon="-5.6341740">
        <ele>605.6</ele>
        <time>2022-05-22T10:06:44Z</time>
      </trkpt>
      <trkpt lat="37.9882120" lon="-5.6341930">
        <ele>605.6</ele>
        <time>2022-05-22T10:06:45Z</time>
      </trkpt>
      <trkpt lat="37.9882090" lon="-5.6342120">
        <ele>605.5</ele>
        <time>2022-05-22T10:06:46Z</time>
      </trkpt>
      <trkpt lat="37.9882050" lon="-5.6342310">
        <ele>605.5</ele>
        <time>2022-05-22T10:06:47Z</time>
      </trkpt>
      <trkpt lat="37.9882010" lon="-5.6342480">
        <ele>605.5</ele>
        <time>2022-05-22T10:06:48Z</time>
      </trkpt>
      <trkpt lat="37.9881960" lon="-5.6342760">
        <ele>605.5</ele>
        <time>2022-05-22T10:06:49Z</time>
      </trkpt>
      <trkpt lat="37.9881940" lon="-5.6342870">
        <ele>605.4</ele>
        <time>2022-05-22T10:06:50Z</time>
      </trkpt>
      <trkpt lat="37.9881920" lon="-5.6342970">
        <ele>605.4</ele>
        <time>2022-05-22T10:06:51Z</time>
      </trkpt>
      <trkpt lat="37.9881850" lon="-5.6343230">
        <ele>605.4</ele>
        <time>2022-05-22T10:06:52Z</time>
      </trkpt>
      <trkpt lat="37.9881830" lon="-5.6343340">
        <ele>605.4</ele>
        <time>2022-05-22T10:06:53Z</time>
      </trkpt>
      <trkpt lat="37.9881810" lon="-5.6343440">
        <ele>605.4</ele>
        <time>2022-05-22T10:06:54Z</time>
      </trkpt>
      <trkpt lat="37.9881800" lon="-5.6343620">
        <ele>605.3</ele>
        <time>2022-05-22T10:06:55Z</time>
      </trkpt>
      <trkpt lat="37.9881800" lon="-5.6343790">
        <ele>605.3</ele>
        <time>2022-05-22T10:06:56Z</time>
      </trkpt>
      <trkpt lat="37.9881830" lon="-5.6344050">
        <ele>605.3</ele>
        <time>2022-05-22T10:06:57Z</time>
      </trkpt>
      <trkpt lat="37.9881840" lon="-5.6344160">
        <ele>605.3</ele>
        <time>2022-05-22T10:06:58Z</time>
      </trkpt>
      <trkpt lat="37.9881840" lon="-5.6344270">
        <ele>605.3</ele>
        <time>2022-05-22T10:06:59Z</time>
      </trkpt>
      <trkpt lat="37.9881840" lon="-5.6344440">
        <ele>605.2</ele>
        <time>2022-05-22T10:07:00Z</time>
      </trkpt>
      <trkpt lat="37.9881830" lon="-5.6344620">
        <ele>605.2</ele>
        <time>2022-05-22T10:07:01Z</time>
      </trkpt>
      <trkpt lat="37.9881790" lon="-5.6344880">
        <ele>605.2</ele>
        <time>2022-05-22T10:07:02Z</time>
      </trkpt>
      <trkpt lat="37.9881770" lon="-5.6344980">
        <ele>605.2</ele>
        <time>2022-05-22T10:07:03Z</time>
      </trkpt>
      <trkpt lat="37.9881750" lon="-5.6345080">
        <ele>605.1</ele>
        <time>2022-05-22T10:07:04Z</time>
      </trkpt>
      <trkpt lat="37.9881710" lon="-5.6345330">
        <ele>605.1</ele>
        <time>2022-05-22T10:07:05Z</time>
      </trkpt>
      <trkpt lat="37.9881700" lon="-5.6345450">
        <ele>605.1</ele>
        <time>2022-05-22T10:07:06Z</time>
      </trkpt>
      <trkpt lat="37.9881680" lon="-5.6345570">
        <ele>605.1</ele>
        <time>2022-05-22T10:07:07Z</time>
      </trkpt>
      <trkpt lat="37.9881640" lon="-5.6345820">
        <ele>605.0</ele>
        <time>2022-05-22T10:07:08Z</time>
      </trkpt>
      <trkpt lat="37.9881620" lon="-5.6345930">
        <ele>605.0</ele>
        <time>2022-05-22T10:07:09Z</time>
      </trkpt>
      <trkpt lat="37.9881610" lon="-5.6346030">
        <ele>605.0</ele>
        <time>2022-05-22T10:07:10Z</time>
      </trkpt>
      <trkpt lat="37.9881590" lon="-5.6346170">
        <ele>605.0</ele>
        <time>2022-05-22T10:07:11Z</time>
      </trkpt>
      <trkpt lat="37.9881530" lon="-5.6346410">
        <ele>605.0</ele>
        <time>2022-05-22T10:07:13Z</time>
      </trkpt>
      <trkpt lat="37.9881470" lon="-5.6346500">
        <ele>604.9</ele>
        <time>2022-05-22T10:07:14Z</time>
      </trkpt>
      <trkpt lat="37.9881370" lon="-5.6346600">
        <ele>604.9</ele>
        <time>2022-05-22T10:07:15Z</time>
      </trkpt>
      <trkpt lat="37.9881320" lon="-5.6346730">
        <ele>604.9</ele>
        <time>2022-05-22T10:07:16Z</time>
      </trkpt>
      <trkpt lat="37.9881290" lon="-5.6346920">
        <ele>604.9</ele>
        <time>2022-05-22T10:07:17Z</time>
      </trkpt>
      <trkpt lat="37.9881250" lon="-5.6347120">
        <ele>604.9</ele>
        <time>2022-05-22T10:07:18Z</time>
      </trkpt>
      <trkpt lat="37.9881220" lon="-5.6347380">
        <ele>604.8</ele>
        <time>2022-05-22T10:07:19Z</time>
      </trkpt>
      <trkpt lat="37.9881210" lon="-5.6347490">
        <ele>604.8</ele>
        <time>2022-05-22T10:07:20Z</time>
      </trkpt>
      <trkpt lat="37.9881200" lon="-5.6347610">
        <ele>604.8</ele>
        <time>2022-05-22T10:07:21Z</time>
      </trkpt>
      <trkpt lat="37.9881190" lon="-5.6347760">
        <ele>604.8</ele>
        <time>2022-05-22T10:07:22Z</time>
      </trkpt>
      <trkpt lat="37.9881180" lon="-5.6348000">
        <ele>604.8</ele>
        <time>2022-05-22T10:07:24Z</time>
      </trkpt>
      <trkpt lat="37.9881120" lon="-5.6348250">
        <ele>604.8</ele>
        <time>2022-05-22T10:07:25Z</time>
      </trkpt>
      <trkpt lat="37.9881080" lon="-5.6348400">
        <ele>604.8</ele>
        <time>2022-05-22T10:07:26Z</time>
      </trkpt>
      <trkpt lat="37.9881050" lon="-5.6348570">
        <ele>604.8</ele>
        <time>2022-05-22T10:07:27Z</time>
      </trkpt>
      <trkpt lat="37.9881020" lon="-5.6348790">
        <ele>604.7</ele>
        <time>2022-05-22T10:07:28Z</time>
      </trkpt>
      <trkpt lat="37.9881000" lon="-5.6348960">
        <ele>604.7</ele>
        <time>2022-05-22T10:07:29Z</time>
      </trkpt>
      <trkpt lat="37.9880990" lon="-5.6349130">
        <ele>604.7</ele>
        <time>2022-05-22T10:07:30Z</time>
      </trkpt>
      <trkpt lat="37.9880970" lon="-5.6349320">
        <ele>604.7</ele>
        <time>2022-05-22T10:07:31Z</time>
      </trkpt>
      <trkpt lat="37.9880950" lon="-5.6349480">
        <ele>604.7</ele>
        <time>2022-05-22T10:07:32Z</time>
      </trkpt>
      <trkpt lat="37.9880930" lon="-5.6349640">
        <ele>604.7</ele>
        <time>2022-05-22T10:07:33Z</time>
      </trkpt>
      <trkpt lat="37.9880860" lon="-5.6349980">
        <ele>604.7</ele>
        <time>2022-05-22T10:07:35Z</time>
      </trkpt>
      <trkpt lat="37.9880840" lon="-5.6350120">
        <ele>604.7</ele>
        <time>2022-05-22T10:07:36Z</time>
      </trkpt>
      <trkpt lat="37.9880770" lon="-5.6350450">
        <ele>604.6</ele>
        <time>2022-05-22T10:07:38Z</time>
      </trkpt>
      <trkpt lat="37.9880720" lon="-5.6350720">
        <ele>604.6</ele>
        <time>2022-05-22T10:07:39Z</time>
      </trkpt>
      <trkpt lat="37.9880710" lon="-5.6350840">
        <ele>604.6</ele>
        <time>2022-05-22T10:07:40Z</time>
      </trkpt>
      <trkpt lat="37.9880690" lon="-5.6350960">
        <ele>604.6</ele>
        <time>2022-05-22T10:07:41Z</time>
      </trkpt>
      <trkpt lat="37.9880660" lon="-5.6351110">
        <ele>604.6</ele>
        <time>2022-05-22T10:07:42Z</time>
      </trkpt>
      <trkpt lat="37.9880600" lon="-5.6351360">
        <ele>604.5</ele>
        <time>2022-05-22T10:07:44Z</time>
      </trkpt>
      <trkpt lat="37.9880540" lon="-5.6351570">
        <ele>604.5</ele>
        <time>2022-05-22T10:07:45Z</time>
      </trkpt>
      <trkpt lat="37.9880500" lon="-5.6351740">
        <ele>604.5</ele>
        <time>2022-05-22T10:07:46Z</time>
      </trkpt>
      <trkpt lat="37.9880470" lon="-5.6351860">
        <ele>604.5</ele>
        <time>2022-05-22T10:07:47Z</time>
      </trkpt>
      <trkpt lat="37.9880430" lon="-5.6351980">
        <ele>604.5</ele>
        <time>2022-05-22T10:07:48Z</time>
      </trkpt>
      <trkpt lat="37.9880390" lon="-5.6352150">
        <ele>604.5</ele>
        <time>2022-05-22T10:07:49Z</time>
      </trkpt>
      <trkpt lat="37.9880360" lon="-5.6352280">
        <ele>604.5</ele>
        <time>2022-05-22T10:07:50Z</time>
      </trkpt>
      <trkpt lat="37.9880320" lon="-5.6352390">
        <ele>604.5</ele>
        <time>2022-05-22T10:07:51Z</time>
      </trkpt>
      <trkpt lat="37.9880280" lon="-5.6352510">
        <ele>604.4</ele>
        <time>2022-05-22T10:07:52Z</time>
      </trkpt>
      <trkpt lat="37.9880250" lon="-5.6352640">
        <ele>604.4</ele>
        <time>2022-05-22T10:07:53Z</time>
      </trkpt>
      <trkpt lat="37.9880150" lon="-5.6352920">
        <ele>604.4</ele>
        <time>2022-05-22T10:07:55Z</time>
      </trkpt>
      <trkpt lat="37.9880100" lon="-5.6353050">
        <ele>604.4</ele>
        <time>2022-05-22T10:07:56Z</time>
      </trkpt>
      <trkpt lat="37.9880050" lon="-5.6353160">
        <ele>604.4</ele>
        <time>2022-05-22T10:07:57Z</time>
      </trkpt>
      <trkpt lat="37.9880010" lon="-5.6353290">
        <ele>604.4</ele>
        <time>2022-05-22T10:07:58Z</time>
      </trkpt>
      <trkpt lat="37.9879960" lon="-5.6353480">
        <ele>604.3</ele>
        <time>2022-05-22T10:08:00Z</time>
      </trkpt>
      <trkpt lat="37.9879920" lon="-5.6353660">
        <ele>604.3</ele>
        <time>2022-05-22T10:08:01Z</time>
      </trkpt>
      <trkpt lat="37.9879900" lon="-5.6353830">
        <ele>604.3</ele>
        <time>2022-05-22T10:08:02Z</time>
      </trkpt>
      <trkpt lat="37.9879890" lon="-5.6353980">
        <ele>604.3</ele>
        <time>2022-05-22T10:08:03Z</time>
      </trkpt>
      <trkpt lat="37.9879870" lon="-5.6354200">
        <ele>604.3</ele>
        <time>2022-05-22T10:08:05Z</time>
      </trkpt>
      <trkpt lat="37.9879850" lon="-5.6354490">
        <ele>604.3</ele>
        <time>2022-05-22T10:08:06Z</time>
      </trkpt>
      <trkpt lat="37.9879850" lon="-5.6354580">
        <ele>604.2</ele>
        <time>2022-05-22T10:08:07Z</time>
      </trkpt>
      <trkpt lat="37.9879840" lon="-5.6354670">
        <ele>604.2</ele>
        <time>2022-05-22T10:08:08Z</time>
      </trkpt>
      <trkpt lat="37.9879860" lon="-5.6354820">
        <ele>604.2</ele>
        <time>2022-05-22T10:08:09Z</time>
      </trkpt>
      <trkpt lat="37.9879890" lon="-5.6354970">
        <ele>604.2</ele>
        <time>2022-05-22T10:08:10Z</time>
      </trkpt>
      <trkpt lat="37.9879930" lon="-5.6355190">
        <ele>604.2</ele>
        <time>2022-05-22T10:08:12Z</time>
      </trkpt>
      <trkpt lat="37.9879940" lon="-5.6355320">
        <ele>604.2</ele>
        <time>2022-05-22T10:08:13Z</time>
      </trkpt>
      <trkpt lat="37.9879940" lon="-5.6355470">
        <ele>604.2</ele>
        <time>2022-05-22T10:08:14Z</time>
      </trkpt>
      <trkpt lat="37.9879950" lon="-5.6355610">
        <ele>604.2</ele>
        <time>2022-05-22T10:08:15Z</time>
      </trkpt>
      <trkpt lat="37.9879970" lon="-5.6355750">
        <ele>604.1</ele>
        <time>2022-05-22T10:08:16Z</time>
      </trkpt>
      <trkpt lat="37.9880020" lon="-5.6356050">
        <ele>604.1</ele>
        <time>2022-05-22T10:08:18Z</time>
      </trkpt>
      <trkpt lat="37.9880010" lon="-5.6356180">
        <ele>604.1</ele>
        <time>2022-05-22T10:08:19Z</time>
      </trkpt>
      <trkpt lat="37.9880000" lon="-5.6356330">
        <ele>604.1</ele>
        <time>2022-05-22T10:08:20Z</time>
      </trkpt>
      <trkpt lat="37.9879990" lon="-5.6356460">
        <ele>604.0</ele>
        <time>2022-05-22T10:08:21Z</time>
      </trkpt>
      <trkpt lat="37.9879980" lon="-5.6356520">
        <ele>604.0</ele>
        <time>2022-05-22T10:08:22Z</time>
      </trkpt>
      <trkpt lat="37.9879970" lon="-5.6356620">
        <ele>604.0</ele>
        <time>2022-05-22T10:08:23Z</time>
      </trkpt>
      <trkpt lat="37.9879970" lon="-5.6356740">
        <ele>604.0</ele>
        <time>2022-05-22T10:08:24Z</time>
      </trkpt>
      <trkpt lat="37.9879980" lon="-5.6356900">
        <ele>604.0</ele>
        <time>2022-05-22T10:08:25Z</time>
      </trkpt>
      <trkpt lat="37.9879990" lon="-5.6357150">
        <ele>603.9</ele>
        <time>2022-05-22T10:08:27Z</time>
      </trkpt>
      <trkpt lat="37.9879990" lon="-5.6357290">
        <ele>603.9</ele>
        <time>2022-05-22T10:08:28Z</time>
      </trkpt>
      <trkpt lat="37.9880000" lon="-5.6357520">
        <ele>603.9</ele>
        <time>2022-05-22T10:08:29Z</time>
      </trkpt>
      <trkpt lat="37.9880000" lon="-5.6357690">
        <ele>603.9</ele>
        <time>2022-05-22T10:08:30Z</time>
      </trkpt>
      <trkpt lat="37.9879990" lon="-5.6358010">
        <ele>603.8</ele>
        <time>2022-05-22T10:08:31Z</time>
      </trkpt>
      <trkpt lat="37.9879980" lon="-5.6358150">
        <ele>603.8</ele>
        <time>2022-05-22T10:08:32Z</time>
      </trkpt>
      <trkpt lat="37.9879990" lon="-5.6358340">
        <ele>603.7</ele>
        <time>2022-05-22T10:08:33Z</time>
      </trkpt>
      <trkpt lat="37.9880000" lon="-5.6358630">
        <ele>603.7</ele>
        <time>2022-05-22T10:08:35Z</time>
      </trkpt>
      <trkpt lat="37.9879990" lon="-5.6359010">
        <ele>603.6</ele>
        <time>2022-05-22T10:08:36Z</time>
      </trkpt>
      <trkpt lat="37.9879990" lon="-5.6359100">
        <ele>603.6</ele>
        <time>2022-05-22T10:08:37Z</time>
      </trkpt>
      <trkpt lat="37.9879980" lon="-5.6359290">
        <ele>603.6</ele>
        <time>2022-05-22T10:08:38Z</time>
      </trkpt>
      <trkpt lat="37.9879980" lon="-5.6359510">
        <ele>603.5</ele>
        <time>2022-05-22T10:08:39Z</time>
      </trkpt>
      <trkpt lat="37.9879960" lon="-5.6359870">
        <ele>603.5</ele>
        <time>2022-05-22T10:08:40Z</time>
      </trkpt>
      <trkpt lat="37.9879960" lon="-5.6359970">
        <ele>603.4</ele>
        <time>2022-05-22T10:08:41Z</time>
      </trkpt>
      <trkpt lat="37.9879950" lon="-5.6360160">
        <ele>603.4</ele>
        <time>2022-05-22T10:08:42Z</time>
      </trkpt>
      <trkpt lat="37.9879940" lon="-5.6360350">
        <ele>603.4</ele>
        <time>2022-05-22T10:08:43Z</time>
      </trkpt>
      <trkpt lat="37.9879930" lon="-5.6360530">
        <ele>603.3</ele>
        <time>2022-05-22T10:08:44Z</time>
      </trkpt>
      <trkpt lat="37.9879920" lon="-5.6360720">
        <ele>603.3</ele>
        <time>2022-05-22T10:08:45Z</time>
      </trkpt>
      <trkpt lat="37.9879920" lon="-5.6360960">
        <ele>603.4</ele>
        <time>2022-05-22T10:08:46Z</time>
      </trkpt>
      <trkpt lat="37.9879930" lon="-5.6361140">
        <ele>603.3</ele>
        <time>2022-05-22T10:08:47Z</time>
      </trkpt>
      <trkpt lat="37.9879970" lon="-5.6361290">
        <ele>603.3</ele>
        <time>2022-05-22T10:08:48Z</time>
      </trkpt>
      <trkpt lat="37.9880000" lon="-5.6361420">
        <ele>603.3</ele>
        <time>2022-05-22T10:08:49Z</time>
      </trkpt>
      <trkpt lat="37.9880090" lon="-5.6361620">
        <ele>603.2</ele>
        <time>2022-05-22T10:08:51Z</time>
      </trkpt>
      <trkpt lat="37.9880140" lon="-5.6361750">
        <ele>603.2</ele>
        <time>2022-05-22T10:08:52Z</time>
      </trkpt>
      <trkpt lat="37.9880170" lon="-5.6361840">
        <ele>603.2</ele>
        <time>2022-05-22T10:08:53Z</time>
      </trkpt>
      <trkpt lat="37.9880190" lon="-5.6361920">
        <ele>603.2</ele>
        <time>2022-05-22T10:08:54Z</time>
      </trkpt>
      <trkpt lat="37.9880210" lon="-5.6362020">
        <ele>603.2</ele>
        <time>2022-05-22T10:08:55Z</time>
      </trkpt>
      <trkpt lat="37.9880250" lon="-5.6362270">
        <ele>603.1</ele>
        <time>2022-05-22T10:08:56Z</time>
      </trkpt>
      <trkpt lat="37.9880270" lon="-5.6362390">
        <ele>603.1</ele>
        <time>2022-05-22T10:08:57Z</time>
      </trkpt>
      <trkpt lat="37.9880290" lon="-5.6362520">
        <ele>603.1</ele>
        <time>2022-05-22T10:08:58Z</time>
      </trkpt>
      <trkpt lat="37.9880310" lon="-5.6362650">
        <ele>603.1</ele>
        <time>2022-05-22T10:08:59Z</time>
      </trkpt>
      <trkpt lat="37.9880320" lon="-5.6362790">
        <ele>603.0</ele>
        <time>2022-05-22T10:09:00Z</time>
      </trkpt>
      <trkpt lat="37.9880340" lon="-5.6362960">
        <ele>603.0</ele>
        <time>2022-05-22T10:09:01Z</time>
      </trkpt>
      <trkpt lat="37.9880350" lon="-5.6363150">
        <ele>603.0</ele>
        <time>2022-05-22T10:09:02Z</time>
      </trkpt>
      <trkpt lat="37.9880350" lon="-5.6363400">
        <ele>602.9</ele>
        <time>2022-05-22T10:09:03Z</time>
      </trkpt>
      <trkpt lat="37.9880340" lon="-5.6363670">
        <ele>602.9</ele>
        <time>2022-05-22T10:09:04Z</time>
      </trkpt>
      <trkpt lat="37.9880330" lon="-5.6363850">
        <ele>602.9</ele>
        <time>2022-05-22T10:09:05Z</time>
      </trkpt>
      <trkpt lat="37.9880350" lon="-5.6364000">
        <ele>602.8</ele>
        <time>2022-05-22T10:09:06Z</time>
      </trkpt>
      <trkpt lat="37.9880390" lon="-5.6364140">
        <ele>602.8</ele>
        <time>2022-05-22T10:09:07Z</time>
      </trkpt>
      <trkpt lat="37.9880430" lon="-5.6364420">
        <ele>602.8</ele>
        <time>2022-05-22T10:09:09Z</time>
      </trkpt>
      <trkpt lat="37.9880400" lon="-5.6364700">
        <ele>602.7</ele>
        <time>2022-05-22T10:09:10Z</time>
      </trkpt>
      <trkpt lat="37.9880380" lon="-5.6364810">
        <ele>602.7</ele>
        <time>2022-05-22T10:09:11Z</time>
      </trkpt>
      <trkpt lat="37.9880370" lon="-5.6364920">
        <ele>602.7</ele>
        <time>2022-05-22T10:09:12Z</time>
      </trkpt>
      <trkpt lat="37.9880350" lon="-5.6365080">
        <ele>602.7</ele>
        <time>2022-05-22T10:09:13Z</time>
      </trkpt>
      <trkpt lat="37.9880330" lon="-5.6365310">
        <ele>602.6</ele>
        <time>2022-05-22T10:09:14Z</time>
      </trkpt>
      <trkpt lat="37.9880330" lon="-5.6365590">
        <ele>602.6</ele>
        <time>2022-05-22T10:09:15Z</time>
      </trkpt>
      <trkpt lat="37.9880330" lon="-5.6365710">
        <ele>602.6</ele>
        <time>2022-05-22T10:09:16Z</time>
      </trkpt>
      <trkpt lat="37.9880330" lon="-5.6365820">
        <ele>602.6</ele>
        <time>2022-05-22T10:09:17Z</time>
      </trkpt>
      <trkpt lat="37.9880350" lon="-5.6366000">
        <ele>602.5</ele>
        <time>2022-05-22T10:09:18Z</time>
      </trkpt>
      <trkpt lat="37.9880390" lon="-5.6366200">
        <ele>602.5</ele>
        <time>2022-05-22T10:09:19Z</time>
      </trkpt>
      <trkpt lat="37.9880460" lon="-5.6366560">
        <ele>602.4</ele>
        <time>2022-05-22T10:09:20Z</time>
      </trkpt>
      <trkpt lat="37.9880480" lon="-5.6366650">
        <ele>602.4</ele>
        <time>2022-05-22T10:09:21Z</time>
      </trkpt>
      <trkpt lat="37.9880520" lon="-5.6366830">
        <ele>602.4</ele>
        <time>2022-05-22T10:09:22Z</time>
      </trkpt>
      <trkpt lat="37.9880560" lon="-5.6367030">
        <ele>602.4</ele>
        <time>2022-05-22T10:09:23Z</time>
      </trkpt>
      <trkpt lat="37.9880610" lon="-5.6367440">
        <ele>602.3</ele>
        <time>2022-05-22T10:09:25Z</time>
      </trkpt>
      <trkpt lat="37.9880630" lon="-5.6367600">
        <ele>602.3</ele>
        <time>2022-05-22T10:09:26Z</time>
      </trkpt>
      <trkpt lat="37.9880650" lon="-5.6367790">
        <ele>602.3</ele>
        <time>2022-05-22T10:09:27Z</time>
      </trkpt>
      <trkpt lat="37.9880670" lon="-5.6367970">
        <ele>602.2</ele>
        <time>2022-05-22T10:09:28Z</time>
      </trkpt>
      <trkpt lat="37.9880670" lon="-5.6368150">
        <ele>602.2</ele>
        <time>2022-05-22T10:09:29Z</time>
      </trkpt>
      <trkpt lat="37.9880650" lon="-5.6368390">
        <ele>602.2</ele>
        <time>2022-05-22T10:09:31Z</time>
      </trkpt>
      <trkpt lat="37.9880660" lon="-5.6368510">
        <ele>602.1</ele>
        <time>2022-05-22T10:09:32Z</time>
      </trkpt>
      <trkpt lat="37.9880690" lon="-5.6368610">
        <ele>602.1</ele>
        <time>2022-05-22T10:09:33Z</time>
      </trkpt>
      <trkpt lat="37.9880720" lon="-5.6368690">
        <ele>602.1</ele>
        <time>2022-05-22T10:09:34Z</time>
      </trkpt>
      <trkpt lat="37.9880770" lon="-5.6368740">
        <ele>602.1</ele>
        <time>2022-05-22T10:09:36Z</time>
      </trkpt>
      <trkpt lat="37.9880790" lon="-5.6368900">
        <ele>602.1</ele>
        <time>2022-05-22T10:09:37Z</time>
      </trkpt>
      <trkpt lat="37.9880810" lon="-5.6368980">
        <ele>602.0</ele>
        <time>2022-05-22T10:09:38Z</time>
      </trkpt>
      <trkpt lat="37.9880830" lon="-5.6369080">
        <ele>602.0</ele>
        <time>2022-05-22T10:09:39Z</time>
      </trkpt>
      <trkpt lat="37.9880850" lon="-5.6369360">
        <ele>602.0</ele>
        <time>2022-05-22T10:09:41Z</time>
      </trkpt>
      <trkpt lat="37.9880860" lon="-5.6369460">
        <ele>602.0</ele>
        <time>2022-05-22T10:09:42Z</time>
      </trkpt>
      <trkpt lat="37.9880870" lon="-5.6369550">
        <ele>601.9</ele>
        <time>2022-05-22T10:09:43Z</time>
      </trkpt>
      <trkpt lat="37.9880880" lon="-5.6369650">
        <ele>601.9</ele>
        <time>2022-05-22T10:09:44Z</time>
      </trkpt>
      <trkpt lat="37.9880900" lon="-5.6369770">
        <ele>601.9</ele>
        <time>2022-05-22T10:09:45Z</time>
      </trkpt>
      <trkpt lat="37.9880920" lon="-5.6369910">
        <ele>601.9</ele>
        <time>2022-05-22T10:09:46Z</time>
      </trkpt>
      <trkpt lat="37.9880930" lon="-5.6370040">
        <ele>601.9</ele>
        <time>2022-05-22T10:09:47Z</time>
      </trkpt>
      <trkpt lat="37.9880940" lon="-5.6370260">
        <ele>601.8</ele>
        <time>2022-05-22T10:09:48Z</time>
      </trkpt>
      <trkpt lat="37.9880950" lon="-5.6370540">
        <ele>601.8</ele>
        <time>2022-05-22T10:09:49Z</time>
      </trkpt>
      <trkpt lat="37.9880960" lon="-5.6370680">
        <ele>601.7</ele>
        <time>2022-05-22T10:09:51Z</time>
      </trkpt>
      <trkpt lat="37.9880970" lon="-5.6370820">
        <ele>601.7</ele>
        <time>2022-05-22T10:09:52Z</time>
      </trkpt>
      <trkpt lat="37.9880970" lon="-5.6370950">
        <ele>601.7</ele>
        <time>2022-05-22T10:09:53Z</time>
      </trkpt>
      <trkpt lat="37.9880980" lon="-5.6371090">
        <ele>601.7</ele>
        <time>2022-05-22T10:09:54Z</time>
      </trkpt>
      <trkpt lat="37.9881000" lon="-5.6371230">
        <ele>601.6</ele>
        <time>2022-05-22T10:09:55Z</time>
      </trkpt>
      <trkpt lat="37.9881030" lon="-5.6371390">
        <ele>601.6</ele>
        <time>2022-05-22T10:09:56Z</time>
      </trkpt>
      <trkpt lat="37.9881060" lon="-5.6371530">
        <ele>601.6</ele>
        <time>2022-05-22T10:09:57Z</time>
      </trkpt>
      <trkpt lat="37.9881120" lon="-5.6371810">
        <ele>601.5</ele>
        <time>2022-05-22T10:09:58Z</time>
      </trkpt>
      <trkpt lat="37.9881150" lon="-5.6371930">
        <ele>601.5</ele>
        <time>2022-05-22T10:09:59Z</time>
      </trkpt>
      <trkpt lat="37.9881180" lon="-5.6372060">
        <ele>601.5</ele>
        <time>2022-05-22T10:10:00Z</time>
      </trkpt>
      <trkpt lat="37.9881240" lon="-5.6372320">
        <ele>601.4</ele>
        <time>2022-05-22T10:10:01Z</time>
      </trkpt>
      <trkpt lat="37.9881260" lon="-5.6372410">
        <ele>601.4</ele>
        <time>2022-05-22T10:10:02Z</time>
      </trkpt>
      <trkpt lat="37.9881290" lon="-5.6372510">
        <ele>601.4</ele>
        <time>2022-05-22T10:10:03Z</time>
      </trkpt>
      <trkpt lat="37.9881340" lon="-5.6372810">
        <ele>601.3</ele>
        <time>2022-05-22T10:10:04Z</time>
      </trkpt>
      <trkpt lat="37.9881360" lon="-5.6372940">
        <ele>601.3</ele>
        <time>2022-05-22T10:10:05Z</time>
      </trkpt>
      <trkpt lat="37.9881390" lon="-5.6373080">
        <ele>601.3</ele>
        <time>2022-05-22T10:10:06Z</time>
      </trkpt>
      <trkpt lat="37.9881410" lon="-5.6373220">
        <ele>601.2</ele>
        <time>2022-05-22T10:10:07Z</time>
      </trkpt>
      <trkpt lat="37.9881450" lon="-5.6373440">
        <ele>601.2</ele>
        <time>2022-05-22T10:10:08Z</time>
      </trkpt>
      <trkpt lat="37.9881480" lon="-5.6373690">
        <ele>601.1</ele>
        <time>2022-05-22T10:10:09Z</time>
      </trkpt>
      <trkpt lat="37.9881500" lon="-5.6373800">
        <ele>601.1</ele>
        <time>2022-05-22T10:10:10Z</time>
      </trkpt>
      <trkpt lat="37.9881510" lon="-5.6373910">
        <ele>601.1</ele>
        <time>2022-05-22T10:10:11Z</time>
      </trkpt>
      <trkpt lat="37.9881540" lon="-5.6374090">
        <ele>601.1</ele>
        <time>2022-05-22T10:10:12Z</time>
      </trkpt>
      <trkpt lat="37.9881560" lon="-5.6374280">
        <ele>601.0</ele>
        <time>2022-05-22T10:10:13Z</time>
      </trkpt>
      <trkpt lat="37.9881570" lon="-5.6374480">
        <ele>601.0</ele>
        <time>2022-05-22T10:10:14Z</time>
      </trkpt>
      <trkpt lat="37.9881580" lon="-5.6374680">
        <ele>600.9</ele>
        <time>2022-05-22T10:10:15Z</time>
      </trkpt>
      <trkpt lat="37.9881610" lon="-5.6374870">
        <ele>600.9</ele>
        <time>2022-05-22T10:10:16Z</time>
      </trkpt>
      <trkpt lat="37.9881630" lon="-5.6375070">
        <ele>600.9</ele>
        <time>2022-05-22T10:10:17Z</time>
      </trkpt>
      <trkpt lat="37.9881660" lon="-5.6375270">
        <ele>600.8</ele>
        <time>2022-05-22T10:10:18Z</time>
      </trkpt>
      <trkpt lat="37.9881690" lon="-5.6375480">
        <ele>600.8</ele>
        <time>2022-05-22T10:10:19Z</time>
      </trkpt>
      <trkpt lat="37.9881730" lon="-5.6375670">
        <ele>600.7</ele>
        <time>2022-05-22T10:10:20Z</time>
      </trkpt>
      <trkpt lat="37.9881760" lon="-5.6375880">
        <ele>600.7</ele>
        <time>2022-05-22T10:10:21Z</time>
      </trkpt>
      <trkpt lat="37.9881820" lon="-5.6376270">
        <ele>600.6</ele>
        <time>2022-05-22T10:10:22Z</time>
      </trkpt>
      <trkpt lat="37.9881840" lon="-5.6376380">
        <ele>600.6</ele>
        <time>2022-05-22T10:10:23Z</time>
      </trkpt>
      <trkpt lat="37.9881880" lon="-5.6376580">
        <ele>600.6</ele>
        <time>2022-05-22T10:10:24Z</time>
      </trkpt>
      <trkpt lat="37.9881910" lon="-5.6376730">
        <ele>600.6</ele>
        <time>2022-05-22T10:10:25Z</time>
      </trkpt>
      <trkpt lat="37.9881950" lon="-5.6376990">
        <ele>600.5</ele>
        <time>2022-05-22T10:10:26Z</time>
      </trkpt>
      <trkpt lat="37.9881960" lon="-5.6377090">
        <ele>600.5</ele>
        <time>2022-05-22T10:10:27Z</time>
      </trkpt>
      <trkpt lat="37.9881980" lon="-5.6377190">
        <ele>600.5</ele>
        <time>2022-05-22T10:10:28Z</time>
      </trkpt>
      <trkpt lat="37.9882040" lon="-5.6377520">
        <ele>600.5</ele>
        <time>2022-05-22T10:10:29Z</time>
      </trkpt>
      <trkpt lat="37.9882080" lon="-5.6377670">
        <ele>600.4</ele>
        <time>2022-05-22T10:10:30Z</time>
      </trkpt>
      <trkpt lat="37.9882140" lon="-5.6377930">
        <ele>600.4</ele>
        <time>2022-05-22T10:10:31Z</time>
      </trkpt>
      <trkpt lat="37.9882170" lon="-5.6378040">
        <ele>600.4</ele>
        <time>2022-05-22T10:10:32Z</time>
      </trkpt>
      <trkpt lat="37.9882190" lon="-5.6378150">
        <ele>600.4</ele>
        <time>2022-05-22T10:10:33Z</time>
      </trkpt>
      <trkpt lat="37.9882220" lon="-5.6378330">
        <ele>600.3</ele>
        <time>2022-05-22T10:10:34Z</time>
      </trkpt>
      <trkpt lat="37.9882260" lon="-5.6378560">
        <ele>600.3</ele>
        <time>2022-05-22T10:10:35Z</time>
      </trkpt>
      <trkpt lat="37.9882300" lon="-5.6378710">
        <ele>600.3</ele>
        <time>2022-05-22T10:10:36Z</time>
      </trkpt>
      <trkpt lat="37.9882320" lon="-5.6378890">
        <ele>600.3</ele>
        <time>2022-05-22T10:10:37Z</time>
      </trkpt>
      <trkpt lat="37.9882350" lon="-5.6379060">
        <ele>600.3</ele>
        <time>2022-05-22T10:10:38Z</time>
      </trkpt>
      <trkpt lat="37.9882380" lon="-5.6379230">
        <ele>600.2</ele>
        <time>2022-05-22T10:10:39Z</time>
      </trkpt>
      <trkpt lat="37.9882450" lon="-5.6379690">
        <ele>600.2</ele>
        <time>2022-05-22T10:10:41Z</time>
      </trkpt>
      <trkpt lat="37.9882470" lon="-5.6379810">
        <ele>600.2</ele>
        <time>2022-05-22T10:10:42Z</time>
      </trkpt>
      <trkpt lat="37.9882490" lon="-5.6379930">
        <ele>600.2</ele>
        <time>2022-05-22T10:10:43Z</time>
      </trkpt>
      <trkpt lat="37.9882510" lon="-5.6380050">
        <ele>600.2</ele>
        <time>2022-05-22T10:10:44Z</time>
      </trkpt>
      <trkpt lat="37.9882530" lon="-5.6380200">
        <ele>600.1</ele>
        <time>2022-05-22T10:10:45Z</time>
      </trkpt>
      <trkpt lat="37.9882570" lon="-5.6380470">
        <ele>600.1</ele>
        <time>2022-05-22T10:10:47Z</time>
      </trkpt>
      <trkpt lat="37.9882600" lon="-5.6380590">
        <ele>600.1</ele>
        <time>2022-05-22T10:10:48Z</time>
      </trkpt>
      <trkpt lat="37.9882620" lon="-5.6380710">
        <ele>600.1</ele>
        <time>2022-05-22T10:10:49Z</time>
      </trkpt>
      <trkpt lat="37.9882650" lon="-5.6380840">
        <ele>600.1</ele>
        <time>2022-05-22T10:10:50Z</time>
      </trkpt>
      <trkpt lat="37.9882670" lon="-5.6380950">
        <ele>600.0</ele>
        <time>2022-05-22T10:10:51Z</time>
      </trkpt>
      <trkpt lat="37.9882700" lon="-5.6381120">
        <ele>600.0</ele>
        <time>2022-05-22T10:10:52Z</time>
      </trkpt>
      <trkpt lat="37.9882710" lon="-5.6381250">
        <ele>600.0</ele>
        <time>2022-05-22T10:10:53Z</time>
      </trkpt>
      <trkpt lat="37.9882740" lon="-5.6381400">
        <ele>600.0</ele>
        <time>2022-05-22T10:10:54Z</time>
      </trkpt>
      <trkpt lat="37.9882780" lon="-5.6381670">
        <ele>600.0</ele>
        <time>2022-05-22T10:10:55Z</time>
      </trkpt>
      <trkpt lat="37.9882830" lon="-5.6381950">
        <ele>599.9</ele>
        <time>2022-05-22T10:10:56Z</time>
      </trkpt>
      <trkpt lat="37.9882850" lon="-5.6382060">
        <ele>599.9</ele>
        <time>2022-05-22T10:10:57Z</time>
      </trkpt>
      <trkpt lat="37.9882870" lon="-5.6382170">
        <ele>599.9</ele>
        <time>2022-05-22T10:10:58Z</time>
      </trkpt>
      <trkpt lat="37.9882910" lon="-5.6382340">
        <ele>599.9</ele>
        <time>2022-05-22T10:10:59Z</time>
      </trkpt>
      <trkpt lat="37.9882960" lon="-5.6382500">
        <ele>599.9</ele>
        <time>2022-05-22T10:11:00Z</time>
      </trkpt>
      <trkpt lat="37.9883000" lon="-5.6382680">
        <ele>599.9</ele>
        <time>2022-05-22T10:11:01Z</time>
      </trkpt>
      <trkpt lat="37.9883050" lon="-5.6383030">
        <ele>599.8</ele>
        <time>2022-05-22T10:11:03Z</time>
      </trkpt>
      <trkpt lat="37.9883080" lon="-5.6383210">
        <ele>599.8</ele>
        <time>2022-05-22T10:11:04Z</time>
      </trkpt>
      <trkpt lat="37.9883100" lon="-5.6383390">
        <ele>599.8</ele>
        <time>2022-05-22T10:11:05Z</time>
      </trkpt>
      <trkpt lat="37.9883130" lon="-5.6383580">
        <ele>599.8</ele>
        <time>2022-05-22T10:11:06Z</time>
      </trkpt>
      <trkpt lat="37.9883160" lon="-5.6383730">
        <ele>599.8</ele>
        <time>2022-05-22T10:11:07Z</time>
      </trkpt>
      <trkpt lat="37.9883220" lon="-5.6383900">
        <ele>599.7</ele>
        <time>2022-05-22T10:11:08Z</time>
      </trkpt>
      <trkpt lat="37.9883260" lon="-5.6384060">
        <ele>599.7</ele>
        <time>2022-05-22T10:11:09Z</time>
      </trkpt>
      <trkpt lat="37.9883300" lon="-5.6384340">
        <ele>599.7</ele>
        <time>2022-05-22T10:11:11Z</time>
      </trkpt>
      <trkpt lat="37.9883320" lon="-5.6384470">
        <ele>599.7</ele>
        <time>2022-05-22T10:11:12Z</time>
      </trkpt>
      <trkpt lat="37.9883350" lon="-5.6384690">
        <ele>599.7</ele>
        <time>2022-05-22T10:11:13Z</time>
      </trkpt>
      <trkpt lat="37.9883360" lon="-5.6384810">
        <ele>599.7</ele>
        <time>2022-05-22T10:11:14Z</time>
      </trkpt>
      <trkpt lat="37.9883380" lon="-5.6384980">
        <ele>599.7</ele>
        <time>2022-05-22T10:11:16Z</time>
      </trkpt>
      <trkpt lat="37.9883400" lon="-5.6385160">
        <ele>599.7</ele>
        <time>2022-05-22T10:11:17Z</time>
      </trkpt>
      <trkpt lat="37.9883410" lon="-5.6385370">
        <ele>599.7</ele>
        <time>2022-05-22T10:11:18Z</time>
      </trkpt>
      <trkpt lat="37.9883420" lon="-5.6385560">
        <ele>599.7</ele>
        <time>2022-05-22T10:11:19Z</time>
      </trkpt>
      <trkpt lat="37.9883440" lon="-5.6385770">
        <ele>599.6</ele>
        <time>2022-05-22T10:11:21Z</time>
      </trkpt>
      <trkpt lat="37.9883460" lon="-5.6385900">
        <ele>599.6</ele>
        <time>2022-05-22T10:11:22Z</time>
      </trkpt>
      <trkpt lat="37.9883490" lon="-5.6386110">
        <ele>599.6</ele>
        <time>2022-05-22T10:11:23Z</time>
      </trkpt>
      <trkpt lat="37.9883540" lon="-5.6386400">
        <ele>599.6</ele>
        <time>2022-05-22T10:11:25Z</time>
      </trkpt>
      <trkpt lat="37.9883580" lon="-5.6386550">
        <ele>599.6</ele>
        <time>2022-05-22T10:11:26Z</time>
      </trkpt>
      <trkpt lat="37.9883630" lon="-5.6386790">
        <ele>599.6</ele>
        <time>2022-05-22T10:11:27Z</time>
      </trkpt>
      <trkpt lat="37.9883650" lon="-5.6386900">
        <ele>599.6</ele>
        <time>2022-05-22T10:11:28Z</time>
      </trkpt>
      <trkpt lat="37.9883670" lon="-5.6387010">
        <ele>599.6</ele>
        <time>2022-05-22T10:11:29Z</time>
      </trkpt>
      <trkpt lat="37.9883730" lon="-5.6387230">
        <ele>599.6</ele>
        <time>2022-05-22T10:11:30Z</time>
      </trkpt>
      <trkpt lat="37.9883780" lon="-5.6387430">
        <ele>599.6</ele>
        <time>2022-05-22T10:11:32Z</time>
      </trkpt>
      <trkpt lat="37.9883810" lon="-5.6387550">
        <ele>599.6</ele>
        <time>2022-05-22T10:11:33Z</time>
      </trkpt>
      <trkpt lat="37.9883820" lon="-5.6387690">
        <ele>599.6</ele>
        <time>2022-05-22T10:11:34Z</time>
      </trkpt>
      <trkpt lat="37.9883850" lon="-5.6387840">
        <ele>599.6</ele>
        <time>2022-05-22T10:11:35Z</time>
      </trkpt>
      <trkpt lat="37.9883870" lon="-5.6388000">
        <ele>599.6</ele>
        <time>2022-05-22T10:11:36Z</time>
      </trkpt>
      <trkpt lat="37.9883920" lon="-5.6388220">
        <ele>599.6</ele>
        <time>2022-05-22T10:11:37Z</time>
      </trkpt>
      <trkpt lat="37.9883910" lon="-5.6388510">
        <ele>599.6</ele>
        <time>2022-05-22T10:11:38Z</time>
      </trkpt>
      <trkpt lat="37.9883870" lon="-5.6388610">
        <ele>599.6</ele>
        <time>2022-05-22T10:11:39Z</time>
      </trkpt>
      <trkpt lat="37.9883840" lon="-5.6388710">
        <ele>599.6</ele>
        <time>2022-05-22T10:11:40Z</time>
      </trkpt>
      <trkpt lat="37.9883710" lon="-5.6388860">
        <ele>599.6</ele>
        <time>2022-05-22T10:11:41Z</time>
      </trkpt>
      <trkpt lat="37.9883650" lon="-5.6389010">
        <ele>599.6</ele>
        <time>2022-05-22T10:11:42Z</time>
      </trkpt>
      <trkpt lat="37.9883630" lon="-5.6389160">
        <ele>599.6</ele>
        <time>2022-05-22T10:11:43Z</time>
      </trkpt>
      <trkpt lat="37.9883630" lon="-5.6389300">
        <ele>599.6</ele>
        <time>2022-05-22T10:11:44Z</time>
      </trkpt>
      <trkpt lat="37.9883670" lon="-5.6389530">
        <ele>599.6</ele>
        <time>2022-05-22T10:11:46Z</time>
      </trkpt>
      <trkpt lat="37.9883700" lon="-5.6389760">
        <ele>599.6</ele>
        <time>2022-05-22T10:11:47Z</time>
      </trkpt>
      <trkpt lat="37.9883720" lon="-5.6389910">
        <ele>599.6</ele>
        <time>2022-05-22T10:11:48Z</time>
      </trkpt>
      <trkpt lat="37.9883730" lon="-5.6390050">
        <ele>599.6</ele>
        <time>2022-05-22T10:11:49Z</time>
      </trkpt>
      <trkpt lat="37.9883830" lon="-5.6390260">
        <ele>599.6</ele>
        <time>2022-05-22T10:11:50Z</time>
      </trkpt>
      <trkpt lat="37.9883970" lon="-5.6390580">
        <ele>599.6</ele>
        <time>2022-05-22T10:11:51Z</time>
      </trkpt>
      <trkpt lat="37.9884000" lon="-5.6390670">
        <ele>599.6</ele>
        <time>2022-05-22T10:11:52Z</time>
      </trkpt>
      <trkpt lat="37.9884070" lon="-5.6390930">
        <ele>599.6</ele>
        <time>2022-05-22T10:11:53Z</time>
      </trkpt>
      <trkpt lat="37.9884090" lon="-5.6391030">
        <ele>599.6</ele>
        <time>2022-05-22T10:11:54Z</time>
      </trkpt>
      <trkpt lat="37.9884110" lon="-5.6391130">
        <ele>599.6</ele>
        <time>2022-05-22T10:11:55Z</time>
      </trkpt>
      <trkpt lat="37.9884140" lon="-5.6391390">
        <ele>599.6</ele>
        <time>2022-05-22T10:11:56Z</time>
      </trkpt>
      <trkpt lat="37.9884150" lon="-5.6391500">
        <ele>599.6</ele>
        <time>2022-05-22T10:11:57Z</time>
      </trkpt>
      <trkpt lat="37.9884160" lon="-5.6391610">
        <ele>599.6</ele>
        <time>2022-05-22T10:11:58Z</time>
      </trkpt>
      <trkpt lat="37.9884150" lon="-5.6391750">
        <ele>599.6</ele>
        <time>2022-05-22T10:11:59Z</time>
      </trkpt>
      <trkpt lat="37.9884120" lon="-5.6391880">
        <ele>599.6</ele>
        <time>2022-05-22T10:12:00Z</time>
      </trkpt>
      <trkpt lat="37.9884090" lon="-5.6392000">
        <ele>599.6</ele>
        <time>2022-05-22T10:12:01Z</time>
      </trkpt>
      <trkpt lat="37.9884050" lon="-5.6392110">
        <ele>599.6</ele>
        <time>2022-05-22T10:12:02Z</time>
      </trkpt>
      <trkpt lat="37.9884040" lon="-5.6392210">
        <ele>599.6</ele>
        <time>2022-05-22T10:12:03Z</time>
      </trkpt>
      <trkpt lat="37.9884040" lon="-5.6392340">
        <ele>599.6</ele>
        <time>2022-05-22T10:12:04Z</time>
      </trkpt>
      <trkpt lat="37.9884040" lon="-5.6392480">
        <ele>599.6</ele>
        <time>2022-05-22T10:12:05Z</time>
      </trkpt>
      <trkpt lat="37.9884030" lon="-5.6392620">
        <ele>599.6</ele>
        <time>2022-05-22T10:12:06Z</time>
      </trkpt>
      <trkpt lat="37.9884040" lon="-5.6392770">
        <ele>599.6</ele>
        <time>2022-05-22T10:12:07Z</time>
      </trkpt>
      <trkpt lat="37.9884060" lon="-5.6392960">
        <ele>599.6</ele>
        <time>2022-05-22T10:12:08Z</time>
      </trkpt>
      <trkpt lat="37.9884120" lon="-5.6393120">
        <ele>599.6</ele>
        <time>2022-05-22T10:12:09Z</time>
      </trkpt>
      <trkpt lat="37.9884210" lon="-5.6393370">
        <ele>599.6</ele>
        <time>2022-05-22T10:12:10Z</time>
      </trkpt>
      <trkpt lat="37.9884240" lon="-5.6393470">
        <ele>599.6</ele>
        <time>2022-05-22T10:12:11Z</time>
      </trkpt>
      <trkpt lat="37.9884280" lon="-5.6393580">
        <ele>599.6</ele>
        <time>2022-05-22T10:12:12Z</time>
      </trkpt>
      <trkpt lat="37.9884310" lon="-5.6393740">
        <ele>599.6</ele>
        <time>2022-05-22T10:12:13Z</time>
      </trkpt>
      <trkpt lat="37.9884360" lon="-5.6393960">
        <ele>599.6</ele>
        <time>2022-05-22T10:12:14Z</time>
      </trkpt>
      <trkpt lat="37.9884450" lon="-5.6394180">
        <ele>599.6</ele>
        <time>2022-05-22T10:12:15Z</time>
      </trkpt>
      <trkpt lat="37.9884480" lon="-5.6394280">
        <ele>599.6</ele>
        <time>2022-05-22T10:12:16Z</time>
      </trkpt>
      <trkpt lat="37.9884520" lon="-5.6394370">
        <ele>599.6</ele>
        <time>2022-05-22T10:12:17Z</time>
      </trkpt>
      <trkpt lat="37.9884550" lon="-5.6394520">
        <ele>599.6</ele>
        <time>2022-05-22T10:12:19Z</time>
      </trkpt>
      <trkpt lat="37.9884590" lon="-5.6394720">
        <ele>599.6</ele>
        <time>2022-05-22T10:12:20Z</time>
      </trkpt>
      <trkpt lat="37.9884620" lon="-5.6394840">
        <ele>599.6</ele>
        <time>2022-05-22T10:12:21Z</time>
      </trkpt>
      <trkpt lat="37.9884690" lon="-5.6394970">
        <ele>599.6</ele>
        <time>2022-05-22T10:12:23Z</time>
      </trkpt>
      <trkpt lat="37.9884730" lon="-5.6395060">
        <ele>599.6</ele>
        <time>2022-05-22T10:12:24Z</time>
      </trkpt>
      <trkpt lat="37.9884760" lon="-5.6395150">
        <ele>599.6</ele>
        <time>2022-05-22T10:12:25Z</time>
      </trkpt>
      <trkpt lat="37.9884810" lon="-5.6395290">
        <ele>599.6</ele>
        <time>2022-05-22T10:12:26Z</time>
      </trkpt>
      <trkpt lat="37.9884860" lon="-5.6395490">
        <ele>599.6</ele>
        <time>2022-05-22T10:12:28Z</time>
      </trkpt>
      <trkpt lat="37.9884880" lon="-5.6395620">
        <ele>599.6</ele>
        <time>2022-05-22T10:12:29Z</time>
      </trkpt>
      <trkpt lat="37.9884900" lon="-5.6395740">
        <ele>599.6</ele>
        <time>2022-05-22T10:12:30Z</time>
      </trkpt>
      <trkpt lat="37.9884920" lon="-5.6395870">
        <ele>599.6</ele>
        <time>2022-05-22T10:12:31Z</time>
      </trkpt>
      <trkpt lat="37.9884950" lon="-5.6396120">
        <ele>599.6</ele>
        <time>2022-05-22T10:12:32Z</time>
      </trkpt>
      <trkpt lat="37.9884960" lon="-5.6396250">
        <ele>599.5</ele>
        <time>2022-05-22T10:12:33Z</time>
      </trkpt>
      <trkpt lat="37.9884970" lon="-5.6396510">
        <ele>599.5</ele>
        <time>2022-05-22T10:12:34Z</time>
      </trkpt>
      <trkpt lat="37.9884970" lon="-5.6396620">
        <ele>599.5</ele>
        <time>2022-05-22T10:12:35Z</time>
      </trkpt>
      <trkpt lat="37.9884980" lon="-5.6396740">
        <ele>599.5</ele>
        <time>2022-05-22T10:12:36Z</time>
      </trkpt>
      <trkpt lat="37.9884980" lon="-5.6396890">
        <ele>599.5</ele>
        <time>2022-05-22T10:12:37Z</time>
      </trkpt>
      <trkpt lat="37.9885010" lon="-5.6397140">
        <ele>599.5</ele>
        <time>2022-05-22T10:12:38Z</time>
      </trkpt>
      <trkpt lat="37.9885030" lon="-5.6397310">
        <ele>599.5</ele>
        <time>2022-05-22T10:12:39Z</time>
      </trkpt>
      <trkpt lat="37.9885060" lon="-5.6397480">
        <ele>599.4</ele>
        <time>2022-05-22T10:12:40Z</time>
      </trkpt>
      <trkpt lat="37.9885090" lon="-5.6397680">
        <ele>599.4</ele>
        <time>2022-05-22T10:12:41Z</time>
      </trkpt>
      <trkpt lat="37.9885130" lon="-5.6397870">
        <ele>599.4</ele>
        <time>2022-05-22T10:12:42Z</time>
      </trkpt>
      <trkpt lat="37.9885240" lon="-5.6398290">
        <ele>599.4</ele>
        <time>2022-05-22T10:12:44Z</time>
      </trkpt>
      <trkpt lat="37.9885290" lon="-5.6398490">
        <ele>599.4</ele>
        <time>2022-05-22T10:12:45Z</time>
      </trkpt>
      <trkpt lat="37.9885340" lon="-5.6398660">
        <ele>599.3</ele>
        <time>2022-05-22T10:12:46Z</time>
      </trkpt>
      <trkpt lat="37.9885430" lon="-5.6399020">
        <ele>599.3</ele>
        <time>2022-05-22T10:12:47Z</time>
      </trkpt>
      <trkpt lat="37.9885480" lon="-5.6399190">
        <ele>599.3</ele>
        <time>2022-05-22T10:12:49Z</time>
      </trkpt>
      <trkpt lat="37.9885530" lon="-5.6399360">
        <ele>599.3</ele>
        <time>2022-05-22T10:12:50Z</time>
      </trkpt>
      <trkpt lat="37.9885580" lon="-5.6399530">
        <ele>599.2</ele>
        <time>2022-05-22T10:12:51Z</time>
      </trkpt>
      <trkpt lat="37.9885630" lon="-5.6399690">
        <ele>599.2</ele>
        <time>2022-05-22T10:12:52Z</time>
      </trkpt>
      <trkpt lat="37.9885690" lon="-5.6399920">
        <ele>599.2</ele>
        <time>2022-05-22T10:12:54Z</time>
      </trkpt>
      <trkpt lat="37.9885740" lon="-5.6400140">
        <ele>599.1</ele>
        <time>2022-05-22T10:12:55Z</time>
      </trkpt>
      <trkpt lat="37.9885770" lon="-5.6400300">
        <ele>599.1</ele>
        <time>2022-05-22T10:12:56Z</time>
      </trkpt>
      <trkpt lat="37.9885820" lon="-5.6400570">
        <ele>599.1</ele>
        <time>2022-05-22T10:12:57Z</time>
      </trkpt>
      <trkpt lat="37.9885850" lon="-5.6400740">
        <ele>599.0</ele>
        <time>2022-05-22T10:12:58Z</time>
      </trkpt>
      <trkpt lat="37.9885890" lon="-5.6400910">
        <ele>599.0</ele>
        <time>2022-05-22T10:12:59Z</time>
      </trkpt>
      <trkpt lat="37.9885950" lon="-5.6401150">
        <ele>598.9</ele>
        <time>2022-05-22T10:13:00Z</time>
      </trkpt>
      <trkpt lat="37.9886000" lon="-5.6401320">
        <ele>598.9</ele>
        <time>2022-05-22T10:13:01Z</time>
      </trkpt>
      <trkpt lat="37.9886060" lon="-5.6401510">
        <ele>598.8</ele>
        <time>2022-05-22T10:13:02Z</time>
      </trkpt>
      <trkpt lat="37.9886130" lon="-5.6401760">
        <ele>598.8</ele>
        <time>2022-05-22T10:13:03Z</time>
      </trkpt>
      <trkpt lat="37.9886150" lon="-5.6401860">
        <ele>598.8</ele>
        <time>2022-05-22T10:13:04Z</time>
      </trkpt>
      <trkpt lat="37.9886170" lon="-5.6401950">
        <ele>598.7</ele>
        <time>2022-05-22T10:13:05Z</time>
      </trkpt>
      <trkpt lat="37.9886200" lon="-5.6402090">
        <ele>598.7</ele>
        <time>2022-05-22T10:13:06Z</time>
      </trkpt>
      <trkpt lat="37.9886250" lon="-5.6402300">
        <ele>598.6</ele>
        <time>2022-05-22T10:13:07Z</time>
      </trkpt>
      <trkpt lat="37.9886360" lon="-5.6402550">
        <ele>598.6</ele>
        <time>2022-05-22T10:13:08Z</time>
      </trkpt>
      <trkpt lat="37.9886410" lon="-5.6402630">
        <ele>598.5</ele>
        <time>2022-05-22T10:13:09Z</time>
      </trkpt>
      <trkpt lat="37.9886460" lon="-5.6402710">
        <ele>598.5</ele>
        <time>2022-05-22T10:13:10Z</time>
      </trkpt>
      <trkpt lat="37.9886580" lon="-5.6402940">
        <ele>598.5</ele>
        <time>2022-05-22T10:13:11Z</time>
      </trkpt>
      <trkpt lat="37.9886630" lon="-5.6403050">
        <ele>598.4</ele>
        <time>2022-05-22T10:13:12Z</time>
      </trkpt>
      <trkpt lat="37.9886680" lon="-5.6403150">
        <ele>598.4</ele>
        <time>2022-05-22T10:13:13Z</time>
      </trkpt>
      <trkpt lat="37.9886740" lon="-5.6403300">
        <ele>598.4</ele>
        <time>2022-05-22T10:13:14Z</time>
      </trkpt>
      <trkpt lat="37.9886820" lon="-5.6403570">
        <ele>598.3</ele>
        <time>2022-05-22T10:13:16Z</time>
      </trkpt>
      <trkpt lat="37.9886850" lon="-5.6403730">
        <ele>598.3</ele>
        <time>2022-05-22T10:13:17Z</time>
      </trkpt>
      <trkpt lat="37.9886860" lon="-5.6403890">
        <ele>598.2</ele>
        <time>2022-05-22T10:13:18Z</time>
      </trkpt>
      <trkpt lat="37.9886790" lon="-5.6404410">
        <ele>598.1</ele>
        <time>2022-05-22T10:13:20Z</time>
      </trkpt>
      <trkpt lat="37.9886780" lon="-5.6404590">
        <ele>598.1</ele>
        <time>2022-05-22T10:13:21Z</time>
      </trkpt>
      <trkpt lat="37.9886790" lon="-5.6404770">
        <ele>598.0</ele>
        <time>2022-05-22T10:13:22Z</time>
      </trkpt>
      <trkpt lat="37.9886810" lon="-5.6404950">
        <ele>598.0</ele>
        <time>2022-05-22T10:13:23Z</time>
      </trkpt>
      <trkpt lat="37.9886830" lon="-5.6405120">
        <ele>598.0</ele>
        <time>2022-05-22T10:13:24Z</time>
      </trkpt>
      <trkpt lat="37.9886850" lon="-5.6405300">
        <ele>597.9</ele>
        <time>2022-05-22T10:13:25Z</time>
      </trkpt>
      <trkpt lat="37.9886860" lon="-5.6405420">
        <ele>597.9</ele>
        <time>2022-05-22T10:13:26Z</time>
      </trkpt>
      <trkpt lat="37.9886880" lon="-5.6405550">
        <ele>597.9</ele>
        <time>2022-05-22T10:13:27Z</time>
      </trkpt>
      <trkpt lat="37.9886900" lon="-5.6405700">
        <ele>597.8</ele>
        <time>2022-05-22T10:13:28Z</time>
      </trkpt>
      <trkpt lat="37.9886930" lon="-5.6405860">
        <ele>597.8</ele>
        <time>2022-05-22T10:13:29Z</time>
      </trkpt>
      <trkpt lat="37.9886960" lon="-5.6405980">
        <ele>597.8</ele>
        <time>2022-05-22T10:13:30Z</time>
      </trkpt>
      <trkpt lat="37.9887000" lon="-5.6406170">
        <ele>597.7</ele>
        <time>2022-05-22T10:13:31Z</time>
      </trkpt>
      <trkpt lat="37.9887060" lon="-5.6406350">
        <ele>597.7</ele>
        <time>2022-05-22T10:13:32Z</time>
      </trkpt>
      <trkpt lat="37.9887110" lon="-5.6406470">
        <ele>597.7</ele>
        <time>2022-05-22T10:13:33Z</time>
      </trkpt>
      <trkpt lat="37.9887130" lon="-5.6406580">
        <ele>597.6</ele>
        <time>2022-05-22T10:13:34Z</time>
      </trkpt>
      <trkpt lat="37.9887130" lon="-5.6406720">
        <ele>597.6</ele>
        <time>2022-05-22T10:13:35Z</time>
      </trkpt>
      <trkpt lat="37.9887180" lon="-5.6406980">
        <ele>597.6</ele>
        <time>2022-05-22T10:13:36Z</time>
      </trkpt>
      <trkpt lat="37.9887210" lon="-5.6407090">
        <ele>597.6</ele>
        <time>2022-05-22T10:13:37Z</time>
      </trkpt>
      <trkpt lat="37.9887230" lon="-5.6407200">
        <ele>597.5</ele>
        <time>2022-05-22T10:13:38Z</time>
      </trkpt>
      <trkpt lat="37.9887270" lon="-5.6407380">
        <ele>597.5</ele>
        <time>2022-05-22T10:13:39Z</time>
      </trkpt>
      <trkpt lat="37.9887290" lon="-5.6407550">
        <ele>597.5</ele>
        <time>2022-05-22T10:13:40Z</time>
      </trkpt>
      <trkpt lat="37.9887320" lon="-5.6407730">
        <ele>597.4</ele>
        <time>2022-05-22T10:13:41Z</time>
      </trkpt>
      <trkpt lat="37.9887350" lon="-5.6407910">
        <ele>597.4</ele>
        <time>2022-05-22T10:13:42Z</time>
      </trkpt>
      <trkpt lat="37.9887380" lon="-5.6408080">
        <ele>597.4</ele>
        <time>2022-05-22T10:13:43Z</time>
      </trkpt>
      <trkpt lat="37.9887440" lon="-5.6408320">
        <ele>597.3</ele>
        <time>2022-05-22T10:13:44Z</time>
      </trkpt>
      <trkpt lat="37.9887490" lon="-5.6408550">
        <ele>597.3</ele>
        <time>2022-05-22T10:13:45Z</time>
      </trkpt>
      <trkpt lat="37.9887540" lon="-5.6408760">
        <ele>597.3</ele>
        <time>2022-05-22T10:13:46Z</time>
      </trkpt>
      <trkpt lat="37.9887580" lon="-5.6408930">
        <ele>597.3</ele>
        <time>2022-05-22T10:13:47Z</time>
      </trkpt>
      <trkpt lat="37.9887610" lon="-5.6409100">
        <ele>597.2</ele>
        <time>2022-05-22T10:13:48Z</time>
      </trkpt>
      <trkpt lat="37.9887690" lon="-5.6409480">
        <ele>597.2</ele>
        <time>2022-05-22T10:13:50Z</time>
      </trkpt>
      <trkpt lat="37.9887730" lon="-5.6409650">
        <ele>597.2</ele>
        <time>2022-05-22T10:13:51Z</time>
      </trkpt>
      <trkpt lat="37.9887760" lon="-5.6409830">
        <ele>597.1</ele>
        <time>2022-05-22T10:13:52Z</time>
      </trkpt>
      <trkpt lat="37.9887800" lon="-5.6410020">
        <ele>597.1</ele>
        <time>2022-05-22T10:13:53Z</time>
      </trkpt>
      <trkpt lat="37.9887840" lon="-5.6410190">
        <ele>597.1</ele>
        <time>2022-05-22T10:13:54Z</time>
      </trkpt>
      <trkpt lat="37.9887890" lon="-5.6410440">
        <ele>597.1</ele>
        <time>2022-05-22T10:13:55Z</time>
      </trkpt>
      <trkpt lat="37.9887910" lon="-5.6410540">
        <ele>597.1</ele>
        <time>2022-05-22T10:13:56Z</time>
      </trkpt>
      <trkpt lat="37.9887920" lon="-5.6410640">
        <ele>597.1</ele>
        <time>2022-05-22T10:13:57Z</time>
      </trkpt>
      <trkpt lat="37.9887970" lon="-5.6410910">
        <ele>597.0</ele>
        <time>2022-05-22T10:13:58Z</time>
      </trkpt>
      <trkpt lat="37.9888010" lon="-5.6411070">
        <ele>597.0</ele>
        <time>2022-05-22T10:13:59Z</time>
      </trkpt>
      <trkpt lat="37.9888040" lon="-5.6411240">
        <ele>597.0</ele>
        <time>2022-05-22T10:14:00Z</time>
      </trkpt>
      <trkpt lat="37.9888060" lon="-5.6411420">
        <ele>597.0</ele>
        <time>2022-05-22T10:14:01Z</time>
      </trkpt>
      <trkpt lat="37.9888190" lon="-5.6411800">
        <ele>596.9</ele>
        <time>2022-05-22T10:14:03Z</time>
      </trkpt>
      <trkpt lat="37.9888210" lon="-5.6411890">
        <ele>596.9</ele>
        <time>2022-05-22T10:14:04Z</time>
      </trkpt>
      <trkpt lat="37.9888240" lon="-5.6412050">
        <ele>596.9</ele>
        <time>2022-05-22T10:14:05Z</time>
      </trkpt>
      <trkpt lat="37.9888330" lon="-5.6412340">
        <ele>596.8</ele>
        <time>2022-05-22T10:14:07Z</time>
      </trkpt>
      <trkpt lat="37.9888360" lon="-5.6412500">
        <ele>596.8</ele>
        <time>2022-05-22T10:14:08Z</time>
      </trkpt>
      <trkpt lat="37.9888380" lon="-5.6412620">
        <ele>596.8</ele>
        <time>2022-05-22T10:14:09Z</time>
      </trkpt>
      <trkpt lat="37.9888390" lon="-5.6412720">
        <ele>596.8</ele>
        <time>2022-05-22T10:14:10Z</time>
      </trkpt>
      <trkpt lat="37.9888420" lon="-5.6412960">
        <ele>596.8</ele>
        <time>2022-05-22T10:14:11Z</time>
      </trkpt>
      <trkpt lat="37.9888430" lon="-5.6413070">
        <ele>596.7</ele>
        <time>2022-05-22T10:14:12Z</time>
      </trkpt>
      <trkpt lat="37.9888440" lon="-5.6413180">
        <ele>596.7</ele>
        <time>2022-05-22T10:14:13Z</time>
      </trkpt>
      <trkpt lat="37.9888450" lon="-5.6413450">
        <ele>596.7</ele>
        <time>2022-05-22T10:14:14Z</time>
      </trkpt>
      <trkpt lat="37.9888460" lon="-5.6413580">
        <ele>596.7</ele>
        <time>2022-05-22T10:14:15Z</time>
      </trkpt>
      <trkpt lat="37.9888490" lon="-5.6413710">
        <ele>596.7</ele>
        <time>2022-05-22T10:14:16Z</time>
      </trkpt>
      <trkpt lat="37.9888530" lon="-5.6413950">
        <ele>596.6</ele>
        <time>2022-05-22T10:14:18Z</time>
      </trkpt>
      <trkpt lat="37.9888590" lon="-5.6414130">
        <ele>596.6</ele>
        <time>2022-05-22T10:14:19Z</time>
      </trkpt>
      <trkpt lat="37.9888640" lon="-5.6414300">
        <ele>596.6</ele>
        <time>2022-05-22T10:14:20Z</time>
      </trkpt>
      <trkpt lat="37.9888700" lon="-5.6414580">
        <ele>596.5</ele>
        <time>2022-05-22T10:14:21Z</time>
      </trkpt>
      <trkpt lat="37.9888740" lon="-5.6414720">
        <ele>596.5</ele>
        <time>2022-05-22T10:14:23Z</time>
      </trkpt>
      <trkpt lat="37.9888770" lon="-5.6414850">
        <ele>596.5</ele>
        <time>2022-05-22T10:14:24Z</time>
      </trkpt>
      <trkpt lat="37.9888810" lon="-5.6414990">
        <ele>596.4</ele>
        <time>2022-05-22T10:14:25Z</time>
      </trkpt>
      <trkpt lat="37.9888840" lon="-5.6415120">
        <ele>596.4</ele>
        <time>2022-05-22T10:14:26Z</time>
      </trkpt>
      <trkpt lat="37.9888880" lon="-5.6415330">
        <ele>596.4</ele>
        <time>2022-05-22T10:14:27Z</time>
      </trkpt>
      <trkpt lat="37.9888890" lon="-5.6415460">
        <ele>596.4</ele>
        <time>2022-05-22T10:14:28Z</time>
      </trkpt>
      <trkpt lat="37.9888930" lon="-5.6415720">
        <ele>596.3</ele>
        <time>2022-05-22T10:14:29Z</time>
      </trkpt>
      <trkpt lat="37.9888950" lon="-5.6415820">
        <ele>596.3</ele>
        <time>2022-05-22T10:14:30Z</time>
      </trkpt>
      <trkpt lat="37.9888970" lon="-5.6415930">
        <ele>596.3</ele>
        <time>2022-05-22T10:14:31Z</time>
      </trkpt>
      <trkpt lat="37.9889020" lon="-5.6416070">
        <ele>596.3</ele>
        <time>2022-05-22T10:14:32Z</time>
      </trkpt>
      <trkpt lat="37.9889070" lon="-5.6416200">
        <ele>596.2</ele>
        <time>2022-05-22T10:14:33Z</time>
      </trkpt>
      <trkpt lat="37.9889110" lon="-5.6416350">
        <ele>596.2</ele>
        <time>2022-05-22T10:14:34Z</time>
      </trkpt>
      <trkpt lat="37.9889190" lon="-5.6416590">
        <ele>596.2</ele>
        <time>2022-05-22T10:14:35Z</time>
      </trkpt>
      <trkpt lat="37.9889220" lon="-5.6416680">
        <ele>596.1</ele>
        <time>2022-05-22T10:14:36Z</time>
      </trkpt>
      <trkpt lat="37.9889250" lon="-5.6416780">
        <ele>596.1</ele>
        <time>2022-05-22T10:14:37Z</time>
      </trkpt>
      <trkpt lat="37.9889350" lon="-5.6417010">
        <ele>596.1</ele>
        <time>2022-05-22T10:14:38Z</time>
      </trkpt>
      <trkpt lat="37.9889380" lon="-5.6417100">
        <ele>596.1</ele>
        <time>2022-05-22T10:14:39Z</time>
      </trkpt>
      <trkpt lat="37.9889420" lon="-5.6417190">
        <ele>596.0</ele>
        <time>2022-05-22T10:14:40Z</time>
      </trkpt>
      <trkpt lat="37.9889520" lon="-5.6417440">
        <ele>596.0</ele>
        <time>2022-05-22T10:14:41Z</time>
      </trkpt>
      <trkpt lat="37.9889550" lon="-5.6417530">
        <ele>596.0</ele>
        <time>2022-05-22T10:14:42Z</time>
      </trkpt>
      <trkpt lat="37.9889590" lon="-5.6417620">
        <ele>596.0</ele>
        <time>2022-05-22T10:14:43Z</time>
      </trkpt>
      <trkpt lat="37.9889660" lon="-5.6417760">
        <ele>595.9</ele>
        <time>2022-05-22T10:14:44Z</time>
      </trkpt>
      <trkpt lat="37.9889720" lon="-5.6417940">
        <ele>595.9</ele>
        <time>2022-05-22T10:14:45Z</time>
      </trkpt>
      <trkpt lat="37.9889750" lon="-5.6418100">
        <ele>595.9</ele>
        <time>2022-05-22T10:14:46Z</time>
      </trkpt>
      <trkpt lat="37.9889770" lon="-5.6418250">
        <ele>595.8</ele>
        <time>2022-05-22T10:14:47Z</time>
      </trkpt>
      <trkpt lat="37.9889810" lon="-5.6418510">
        <ele>595.8</ele>
        <time>2022-05-22T10:14:49Z</time>
      </trkpt>
      <trkpt lat="37.9889860" lon="-5.6418790">
        <ele>595.8</ele>
        <time>2022-05-22T10:14:50Z</time>
      </trkpt>
      <trkpt lat="37.9889880" lon="-5.6418880">
        <ele>595.7</ele>
        <time>2022-05-22T10:14:51Z</time>
      </trkpt>
      <trkpt lat="37.9889900" lon="-5.6418980">
        <ele>595.7</ele>
        <time>2022-05-22T10:14:52Z</time>
      </trkpt>
      <trkpt lat="37.9889980" lon="-5.6419250">
        <ele>595.7</ele>
        <time>2022-05-22T10:14:53Z</time>
      </trkpt>
      <trkpt lat="37.9890020" lon="-5.6419390">
        <ele>595.6</ele>
        <time>2022-05-22T10:14:54Z</time>
      </trkpt>
      <trkpt lat="37.9890060" lon="-5.6419520">
        <ele>595.6</ele>
        <time>2022-05-22T10:14:55Z</time>
      </trkpt>
      <trkpt lat="37.9890150" lon="-5.6419780">
        <ele>595.6</ele>
        <time>2022-05-22T10:14:56Z</time>
      </trkpt>
      <trkpt lat="37.9890180" lon="-5.6419880">
        <ele>595.6</ele>
        <time>2022-05-22T10:14:57Z</time>
      </trkpt>
      <trkpt lat="37.9890210" lon="-5.6419970">
        <ele>595.5</ele>
        <time>2022-05-22T10:14:58Z</time>
      </trkpt>
      <trkpt lat="37.9890280" lon="-5.6420240">
        <ele>595.5</ele>
        <time>2022-05-22T10:14:59Z</time>
      </trkpt>
      <trkpt lat="37.9890310" lon="-5.6420360">
        <ele>595.5</ele>
        <time>2022-05-22T10:15:00Z</time>
      </trkpt>
      <trkpt lat="37.9890350" lon="-5.6420480">
        <ele>595.5</ele>
        <time>2022-05-22T10:15:01Z</time>
      </trkpt>
      <trkpt lat="37.9890380" lon="-5.6420600">
        <ele>595.5</ele>
        <time>2022-05-22T10:15:02Z</time>
      </trkpt>
      <trkpt lat="37.9890410" lon="-5.6420740">
        <ele>595.4</ele>
        <time>2022-05-22T10:15:03Z</time>
      </trkpt>
      <trkpt lat="37.9890430" lon="-5.6420870">
        <ele>595.4</ele>
        <time>2022-05-22T10:15:04Z</time>
      </trkpt>
      <trkpt lat="37.9890490" lon="-5.6421120">
        <ele>595.4</ele>
        <time>2022-05-22T10:15:05Z</time>
      </trkpt>
      <trkpt lat="37.9890510" lon="-5.6421220">
        <ele>595.4</ele>
        <time>2022-05-22T10:15:06Z</time>
      </trkpt>
      <trkpt lat="37.9890530" lon="-5.6421320">
        <ele>595.3</ele>
        <time>2022-05-22T10:15:07Z</time>
      </trkpt>
      <trkpt lat="37.9890580" lon="-5.6421590">
        <ele>595.3</ele>
        <time>2022-05-22T10:15:08Z</time>
      </trkpt>
      <trkpt lat="37.9890600" lon="-5.6421710">
        <ele>595.3</ele>
        <time>2022-05-22T10:15:09Z</time>
      </trkpt>
      <trkpt lat="37.9890620" lon="-5.6421820">
        <ele>595.3</ele>
        <time>2022-05-22T10:15:10Z</time>
      </trkpt>
      <trkpt lat="37.9890630" lon="-5.6422100">
        <ele>595.2</ele>
        <time>2022-05-22T10:15:11Z</time>
      </trkpt>
      <trkpt lat="37.9890620" lon="-5.6422210">
        <ele>595.2</ele>
        <time>2022-05-22T10:15:12Z</time>
      </trkpt>
      <trkpt lat="37.9890610" lon="-5.6422320">
        <ele>595.2</ele>
        <time>2022-05-22T10:15:13Z</time>
      </trkpt>
      <trkpt lat="37.9890590" lon="-5.6422590">
        <ele>595.2</ele>
        <time>2022-05-22T10:15:14Z</time>
      </trkpt>
      <trkpt lat="37.9890580" lon="-5.6422700">
        <ele>595.1</ele>
        <time>2022-05-22T10:15:15Z</time>
      </trkpt>
      <trkpt lat="37.9890580" lon="-5.6422810">
        <ele>595.1</ele>
        <time>2022-05-22T10:15:16Z</time>
      </trkpt>
      <trkpt lat="37.9890600" lon="-5.6422970">
        <ele>595.1</ele>
        <time>2022-05-22T10:15:17Z</time>
      </trkpt>
      <trkpt lat="37.9890640" lon="-5.6423150">
        <ele>595.1</ele>
        <time>2022-05-22T10:15:18Z</time>
      </trkpt>
      <trkpt lat="37.9890700" lon="-5.6423390">
        <ele>595.0</ele>
        <time>2022-05-22T10:15:20Z</time>
      </trkpt>
      <trkpt lat="37.9890740" lon="-5.6423520">
        <ele>595.0</ele>
        <time>2022-05-22T10:15:21Z</time>
      </trkpt>
      <trkpt lat="37.9890790" lon="-5.6423680">
        <ele>595.0</ele>
        <time>2022-05-22T10:15:22Z</time>
      </trkpt>
      <trkpt lat="37.9890870" lon="-5.6423920">
        <ele>594.9</ele>
        <time>2022-05-22T10:15:23Z</time>
      </trkpt>
      <trkpt lat="37.9890930" lon="-5.6424130">
        <ele>594.9</ele>
        <time>2022-05-22T10:15:24Z</time>
      </trkpt>
      <trkpt lat="37.9890960" lon="-5.6424280">
        <ele>594.9</ele>
        <time>2022-05-22T10:15:25Z</time>
      </trkpt>
      <trkpt lat="37.9891010" lon="-5.6424550">
        <ele>594.8</ele>
        <time>2022-05-22T10:15:26Z</time>
      </trkpt>
      <trkpt lat="37.9891040" lon="-5.6424660">
        <ele>594.8</ele>
        <time>2022-05-22T10:15:27Z</time>
      </trkpt>
      <trkpt lat="37.9891060" lon="-5.6424770">
        <ele>594.8</ele>
        <time>2022-05-22T10:15:28Z</time>
      </trkpt>
      <trkpt lat="37.9891110" lon="-5.6424940">
        <ele>594.8</ele>
        <time>2022-05-22T10:15:29Z</time>
      </trkpt>
      <trkpt lat="37.9891150" lon="-5.6425100">
        <ele>594.7</ele>
        <time>2022-05-22T10:15:30Z</time>
      </trkpt>
      <trkpt lat="37.9891220" lon="-5.6425300">
        <ele>594.7</ele>
        <time>2022-05-22T10:15:31Z</time>
      </trkpt>
      <trkpt lat="37.9891270" lon="-5.6425480">
        <ele>594.7</ele>
        <time>2022-05-22T10:15:32Z</time>
      </trkpt>
      <trkpt lat="37.9891320" lon="-5.6425660">
        <ele>594.7</ele>
        <time>2022-05-22T10:15:33Z</time>
      </trkpt>
      <trkpt lat="37.9891380" lon="-5.6425850">
        <ele>594.7</ele>
        <time>2022-05-22T10:15:34Z</time>
      </trkpt>
      <trkpt lat="37.9891420" lon="-5.6426030">
        <ele>594.6</ele>
        <time>2022-05-22T10:15:35Z</time>
      </trkpt>
      <trkpt lat="37.9891460" lon="-5.6426200">
        <ele>594.6</ele>
        <time>2022-05-22T10:15:36Z</time>
      </trkpt>
      <trkpt lat="37.9891510" lon="-5.6426370">
        <ele>594.6</ele>
        <time>2022-05-22T10:15:37Z</time>
      </trkpt>
      <trkpt lat="37.9891560" lon="-5.6426540">
        <ele>594.6</ele>
        <time>2022-05-22T10:15:38Z</time>
      </trkpt>
      <trkpt lat="37.9891630" lon="-5.6426750">
        <ele>594.5</ele>
        <time>2022-05-22T10:15:39Z</time>
      </trkpt>
      <trkpt lat="37.9891660" lon="-5.6426830">
        <ele>594.5</ele>
        <time>2022-05-22T10:15:40Z</time>
      </trkpt>
      <trkpt lat="37.9891670" lon="-5.6426930">
        <ele>594.5</ele>
        <time>2022-05-22T10:15:41Z</time>
      </trkpt>
      <trkpt lat="37.9891670" lon="-5.6427070">
        <ele>594.5</ele>
        <time>2022-05-22T10:15:42Z</time>
      </trkpt>
      <trkpt lat="37.9891670" lon="-5.6427190">
        <ele>594.5</ele>
        <time>2022-05-22T10:15:43Z</time>
      </trkpt>
      <trkpt lat="37.9891680" lon="-5.6427330">
        <ele>594.5</ele>
        <time>2022-05-22T10:15:44Z</time>
      </trkpt>
      <trkpt lat="37.9891710" lon="-5.6427530">
        <ele>594.5</ele>
        <time>2022-05-22T10:15:45Z</time>
      </trkpt>
      <trkpt lat="37.9891730" lon="-5.6427670">
        <ele>594.4</ele>
        <time>2022-05-22T10:15:46Z</time>
      </trkpt>
      <trkpt lat="37.9891770" lon="-5.6427920">
        <ele>594.4</ele>
        <time>2022-05-22T10:15:47Z</time>
      </trkpt>
      <trkpt lat="37.9891800" lon="-5.6428030">
        <ele>594.4</ele>
        <time>2022-05-22T10:15:48Z</time>
      </trkpt>
      <trkpt lat="37.9891820" lon="-5.6428140">
        <ele>594.4</ele>
        <time>2022-05-22T10:15:49Z</time>
      </trkpt>
      <trkpt lat="37.9891890" lon="-5.6428340">
        <ele>594.4</ele>
        <time>2022-05-22T10:15:50Z</time>
      </trkpt>
      <trkpt lat="37.9891980" lon="-5.6428510">
        <ele>594.3</ele>
        <time>2022-05-22T10:15:51Z</time>
      </trkpt>
      <trkpt lat="37.9892060" lon="-5.6428640">
        <ele>594.3</ele>
        <time>2022-05-22T10:15:52Z</time>
      </trkpt>
      <trkpt lat="37.9892130" lon="-5.6428800">
        <ele>594.3</ele>
        <time>2022-05-22T10:15:53Z</time>
      </trkpt>
      <trkpt lat="37.9892200" lon="-5.6428980">
        <ele>594.3</ele>
        <time>2022-05-22T10:15:54Z</time>
      </trkpt>
      <trkpt lat="37.9892270" lon="-5.6429150">
        <ele>594.2</ele>
        <time>2022-05-22T10:15:55Z</time>
      </trkpt>
      <trkpt lat="37.9892340" lon="-5.6429320">
        <ele>594.2</ele>
        <time>2022-05-22T10:15:56Z</time>
      </trkpt>
      <trkpt lat="37.9892380" lon="-5.6429470">
        <ele>594.2</ele>
        <time>2022-05-22T10:15:57Z</time>
      </trkpt>
      <trkpt lat="37.9892460" lon="-5.6429710">
        <ele>594.1</ele>
        <time>2022-05-22T10:15:58Z</time>
      </trkpt>
      <trkpt lat="37.9892490" lon="-5.6429810">
        <ele>594.1</ele>
        <time>2022-05-22T10:15:59Z</time>
      </trkpt>
      <trkpt lat="37.9892530" lon="-5.6429920">
        <ele>594.1</ele>
        <time>2022-05-22T10:16:00Z</time>
      </trkpt>
      <trkpt lat="37.9892550" lon="-5.6430220">
        <ele>594.0</ele>
        <time>2022-05-22T10:16:02Z</time>
      </trkpt>
      <trkpt lat="37.9892530" lon="-5.6430360">
        <ele>594.0</ele>
        <time>2022-05-22T10:16:04Z</time>
      </trkpt>
      <trkpt lat="37.9892530" lon="-5.6430400">
        <ele>594.0</ele>
        <time>2022-05-22T10:16:05Z</time>
      </trkpt>
      <trkpt lat="37.9892560" lon="-5.6430480">
        <ele>594.0</ele>
        <time>2022-05-22T10:16:06Z</time>
      </trkpt>
      <trkpt lat="37.9892610" lon="-5.6430670">
        <ele>594.0</ele>
        <time>2022-05-22T10:16:08Z</time>
      </trkpt>
      <trkpt lat="37.9892590" lon="-5.6430780">
        <ele>593.9</ele>
        <time>2022-05-22T10:16:09Z</time>
      </trkpt>
      <trkpt lat="37.9892560" lon="-5.6430980">
        <ele>593.9</ele>
        <time>2022-05-22T10:16:10Z</time>
      </trkpt>
      <trkpt lat="37.9892590" lon="-5.6431080">
        <ele>593.9</ele>
        <time>2022-05-22T10:16:11Z</time>
      </trkpt>
      <trkpt lat="37.9892610" lon="-5.6431180">
        <ele>593.9</ele>
        <time>2022-05-22T10:16:12Z</time>
      </trkpt>
      <trkpt lat="37.9892630" lon="-5.6431270">
        <ele>593.8</ele>
        <time>2022-05-22T10:16:13Z</time>
      </trkpt>
      <trkpt lat="37.9892640" lon="-5.6431430">
        <ele>593.8</ele>
        <time>2022-05-22T10:16:14Z</time>
      </trkpt>
      <trkpt lat="37.9892670" lon="-5.6431570">
        <ele>593.8</ele>
        <time>2022-05-22T10:16:15Z</time>
      </trkpt>
      <trkpt lat="37.9892730" lon="-5.6431800">
        <ele>593.7</ele>
        <time>2022-05-22T10:16:17Z</time>
      </trkpt>
      <trkpt lat="37.9892790" lon="-5.6432040">
        <ele>593.7</ele>
        <time>2022-05-22T10:16:18Z</time>
      </trkpt>
      <trkpt lat="37.9892830" lon="-5.6432160">
        <ele>593.7</ele>
        <time>2022-05-22T10:16:19Z</time>
      </trkpt>
      <trkpt lat="37.9892880" lon="-5.6432420">
        <ele>593.7</ele>
        <time>2022-05-22T10:16:20Z</time>
      </trkpt>
      <trkpt lat="37.9892900" lon="-5.6432530">
        <ele>593.6</ele>
        <time>2022-05-22T10:16:21Z</time>
      </trkpt>
      <trkpt lat="37.9892920" lon="-5.6432630">
        <ele>593.6</ele>
        <time>2022-05-22T10:16:22Z</time>
      </trkpt>
      <trkpt lat="37.9892950" lon="-5.6432810">
        <ele>593.6</ele>
        <time>2022-05-22T10:16:23Z</time>
      </trkpt>
      <trkpt lat="37.9892970" lon="-5.6433040">
        <ele>593.6</ele>
        <time>2022-05-22T10:16:24Z</time>
      </trkpt>
      <trkpt lat="37.9893020" lon="-5.6433300">
        <ele>593.6</ele>
        <time>2022-05-22T10:16:25Z</time>
      </trkpt>
      <trkpt lat="37.9893040" lon="-5.6433400">
        <ele>593.5</ele>
        <time>2022-05-22T10:16:26Z</time>
      </trkpt>
      <trkpt lat="37.9893060" lon="-5.6433490">
        <ele>593.5</ele>
        <time>2022-05-22T10:16:27Z</time>
      </trkpt>
      <trkpt lat="37.9893140" lon="-5.6433730">
        <ele>593.5</ele>
        <time>2022-05-22T10:16:28Z</time>
      </trkpt>
      <trkpt lat="37.9893180" lon="-5.6433820">
        <ele>593.5</ele>
        <time>2022-05-22T10:16:29Z</time>
      </trkpt>
      <trkpt lat="37.9893220" lon="-5.6433920">
        <ele>593.5</ele>
        <time>2022-05-22T10:16:30Z</time>
      </trkpt>
      <trkpt lat="37.9893310" lon="-5.6434160">
        <ele>593.4</ele>
        <time>2022-05-22T10:16:31Z</time>
      </trkpt>
      <trkpt lat="37.9893340" lon="-5.6434260">
        <ele>593.4</ele>
        <time>2022-05-22T10:16:32Z</time>
      </trkpt>
      <trkpt lat="37.9893380" lon="-5.6434360">
        <ele>593.4</ele>
        <time>2022-05-22T10:16:33Z</time>
      </trkpt>
      <trkpt lat="37.9893440" lon="-5.6434550">
        <ele>593.4</ele>
        <time>2022-05-22T10:16:34Z</time>
      </trkpt>
      <trkpt lat="37.9893500" lon="-5.6434740">
        <ele>593.4</ele>
        <time>2022-05-22T10:16:35Z</time>
      </trkpt>
      <trkpt lat="37.9893580" lon="-5.6434990">
        <ele>593.3</ele>
        <time>2022-05-22T10:16:36Z</time>
      </trkpt>
      <trkpt lat="37.9893620" lon="-5.6435130">
        <ele>593.3</ele>
        <time>2022-05-22T10:16:37Z</time>
      </trkpt>
      <trkpt lat="37.9893670" lon="-5.6435390">
        <ele>593.3</ele>
        <time>2022-05-22T10:16:38Z</time>
      </trkpt>
      <trkpt lat="37.9893690" lon="-5.6435500">
        <ele>593.3</ele>
        <time>2022-05-22T10:16:39Z</time>
      </trkpt>
      <trkpt lat="37.9893710" lon="-5.6435610">
        <ele>593.3</ele>
        <time>2022-05-22T10:16:40Z</time>
      </trkpt>
      <trkpt lat="37.9893740" lon="-5.6435770">
        <ele>593.3</ele>
        <time>2022-05-22T10:16:41Z</time>
      </trkpt>
      <trkpt lat="37.9893790" lon="-5.6435940">
        <ele>593.2</ele>
        <time>2022-05-22T10:16:42Z</time>
      </trkpt>
      <trkpt lat="37.9893800" lon="-5.6436110">
        <ele>593.2</ele>
        <time>2022-05-22T10:16:43Z</time>
      </trkpt>
      <trkpt lat="37.9893840" lon="-5.6436290">
        <ele>593.2</ele>
        <time>2022-05-22T10:16:44Z</time>
      </trkpt>
      <trkpt lat="37.9893920" lon="-5.6436550">
        <ele>593.1</ele>
        <time>2022-05-22T10:16:45Z</time>
      </trkpt>
      <trkpt lat="37.9893950" lon="-5.6436660">
        <ele>593.1</ele>
        <time>2022-05-22T10:16:46Z</time>
      </trkpt>
      <trkpt lat="37.9893980" lon="-5.6436760">
        <ele>593.1</ele>
        <time>2022-05-22T10:16:47Z</time>
      </trkpt>
      <trkpt lat="37.9894110" lon="-5.6437110">
        <ele>593.0</ele>
        <time>2022-05-22T10:16:49Z</time>
      </trkpt>
      <trkpt lat="37.9894170" lon="-5.6437280">
        <ele>593.0</ele>
        <time>2022-05-22T10:16:50Z</time>
      </trkpt>
      <trkpt lat="37.9894230" lon="-5.6437450">
        <ele>593.0</ele>
        <time>2022-05-22T10:16:51Z</time>
      </trkpt>
      <trkpt lat="37.9894330" lon="-5.6437650">
        <ele>593.0</ele>
        <time>2022-05-22T10:16:52Z</time>
      </trkpt>
      <trkpt lat="37.9894400" lon="-5.6437930">
        <ele>592.9</ele>
        <time>2022-05-22T10:16:54Z</time>
      </trkpt>
      <trkpt lat="37.9894440" lon="-5.6438080">
        <ele>592.9</ele>
        <time>2022-05-22T10:16:55Z</time>
      </trkpt>
      <trkpt lat="37.9894480" lon="-5.6438190">
        <ele>592.9</ele>
        <time>2022-05-22T10:16:56Z</time>
      </trkpt>
      <trkpt lat="37.9894510" lon="-5.6438340">
        <ele>592.9</ele>
        <time>2022-05-22T10:16:57Z</time>
      </trkpt>
      <trkpt lat="37.9894520" lon="-5.6438490">
        <ele>592.8</ele>
        <time>2022-05-22T10:16:59Z</time>
      </trkpt>
      <trkpt lat="37.9894540" lon="-5.6438600">
        <ele>592.8</ele>
        <time>2022-05-22T10:17:00Z</time>
      </trkpt>
      <trkpt lat="37.9894560" lon="-5.6438730">
        <ele>592.8</ele>
        <time>2022-05-22T10:17:01Z</time>
      </trkpt>
      <trkpt lat="37.9894610" lon="-5.6439010">
        <ele>592.8</ele>
        <time>2022-05-22T10:17:02Z</time>
      </trkpt>
      <trkpt lat="37.9894640" lon="-5.6439140">
        <ele>592.8</ele>
        <time>2022-05-22T10:17:03Z</time>
      </trkpt>
      <trkpt lat="37.9894660" lon="-5.6439270">
        <ele>592.7</ele>
        <time>2022-05-22T10:17:04Z</time>
      </trkpt>
      <trkpt lat="37.9894680" lon="-5.6439390">
        <ele>592.7</ele>
        <time>2022-05-22T10:17:05Z</time>
      </trkpt>
      <trkpt lat="37.9894700" lon="-5.6439540">
        <ele>592.7</ele>
        <time>2022-05-22T10:17:06Z</time>
      </trkpt>
      <trkpt lat="37.9894730" lon="-5.6439690">
        <ele>592.7</ele>
        <time>2022-05-22T10:17:07Z</time>
      </trkpt>
      <trkpt lat="37.9894770" lon="-5.6439850">
        <ele>592.7</ele>
        <time>2022-05-22T10:17:08Z</time>
      </trkpt>
      <trkpt lat="37.9894810" lon="-5.6440030">
        <ele>592.7</ele>
        <time>2022-05-22T10:17:09Z</time>
      </trkpt>
      <trkpt lat="37.9894850" lon="-5.6440310">
        <ele>592.6</ele>
        <time>2022-05-22T10:17:11Z</time>
      </trkpt>
      <trkpt lat="37.9894870" lon="-5.6440400">
        <ele>592.6</ele>
        <time>2022-05-22T10:17:12Z</time>
      </trkpt>
      <trkpt lat="37.9894880" lon="-5.6440500">
        <ele>592.6</ele>
        <time>2022-05-22T10:17:13Z</time>
      </trkpt>
      <trkpt lat="37.9894910" lon="-5.6440640">
        <ele>592.6</ele>
        <time>2022-05-22T10:17:14Z</time>
      </trkpt>
      <trkpt lat="37.9894950" lon="-5.6440900">
        <ele>592.6</ele>
        <time>2022-05-22T10:17:15Z</time>
      </trkpt>
      <trkpt lat="37.9894960" lon="-5.6441020">
        <ele>592.5</ele>
        <time>2022-05-22T10:17:16Z</time>
      </trkpt>
      <trkpt lat="37.9894980" lon="-5.6441160">
        <ele>592.5</ele>
        <time>2022-05-22T10:17:17Z</time>
      </trkpt>
      <trkpt lat="37.9895020" lon="-5.6441290">
        <ele>592.5</ele>
        <time>2022-05-22T10:17:18Z</time>
      </trkpt>
      <trkpt lat="37.9895030" lon="-5.6441390">
        <ele>592.5</ele>
        <time>2022-05-22T10:17:19Z</time>
      </trkpt>
      <trkpt lat="37.9895040" lon="-5.6441570">
        <ele>592.5</ele>
        <time>2022-05-22T10:17:21Z</time>
      </trkpt>
      <trkpt lat="37.9895060" lon="-5.6441680">
        <ele>592.5</ele>
        <time>2022-05-22T10:17:22Z</time>
      </trkpt>
      <trkpt lat="37.9895070" lon="-5.6441780">
        <ele>592.5</ele>
        <time>2022-05-22T10:17:23Z</time>
      </trkpt>
      <trkpt lat="37.9895100" lon="-5.6441900">
        <ele>592.5</ele>
        <time>2022-05-22T10:17:24Z</time>
      </trkpt>
      <trkpt lat="37.9895130" lon="-5.6442020">
        <ele>592.4</ele>
        <time>2022-05-22T10:17:25Z</time>
      </trkpt>
      <trkpt lat="37.9895220" lon="-5.6442270">
        <ele>592.4</ele>
        <time>2022-05-22T10:17:26Z</time>
      </trkpt>
      <trkpt lat="37.9895250" lon="-5.6442360">
        <ele>592.4</ele>
        <time>2022-05-22T10:17:27Z</time>
      </trkpt>
      <trkpt lat="37.9895290" lon="-5.6442460">
        <ele>592.4</ele>
        <time>2022-05-22T10:17:28Z</time>
      </trkpt>
      <trkpt lat="37.9895370" lon="-5.6442610">
        <ele>592.4</ele>
        <time>2022-05-22T10:17:29Z</time>
      </trkpt>
      <trkpt lat="37.9895490" lon="-5.6442780">
        <ele>592.3</ele>
        <time>2022-05-22T10:17:31Z</time>
      </trkpt>
      <trkpt lat="37.9895610" lon="-5.6442980">
        <ele>592.3</ele>
        <time>2022-05-22T10:17:32Z</time>
      </trkpt>
      <trkpt lat="37.9895670" lon="-5.6443110">
        <ele>592.3</ele>
        <time>2022-05-22T10:17:33Z</time>
      </trkpt>
      <trkpt lat="37.9895720" lon="-5.6443270">
        <ele>592.3</ele>
        <time>2022-05-22T10:17:34Z</time>
      </trkpt>
      <trkpt lat="37.9895760" lon="-5.6443440">
        <ele>592.3</ele>
        <time>2022-05-22T10:17:35Z</time>
      </trkpt>
      <trkpt lat="37.9895790" lon="-5.6443610">
        <ele>592.3</ele>
        <time>2022-05-22T10:17:36Z</time>
      </trkpt>
      <trkpt lat="37.9895820" lon="-5.6443830">
        <ele>592.2</ele>
        <time>2022-05-22T10:17:37Z</time>
      </trkpt>
      <trkpt lat="37.9895850" lon="-5.6444040">
        <ele>592.2</ele>
        <time>2022-05-22T10:17:38Z</time>
      </trkpt>
      <trkpt lat="37.9895880" lon="-5.6444220">
        <ele>592.2</ele>
        <time>2022-05-22T10:17:39Z</time>
      </trkpt>
      <trkpt lat="37.9895910" lon="-5.6444400">
        <ele>592.2</ele>
        <time>2022-05-22T10:17:40Z</time>
      </trkpt>
      <trkpt lat="37.9895940" lon="-5.6444580">
        <ele>592.1</ele>
        <time>2022-05-22T10:17:41Z</time>
      </trkpt>
      <trkpt lat="37.9895980" lon="-5.6444760">
        <ele>592.1</ele>
        <time>2022-05-22T10:17:42Z</time>
      </trkpt>
      <trkpt lat="37.9896020" lon="-5.6444930">
        <ele>592.1</ele>
        <time>2022-05-22T10:17:43Z</time>
      </trkpt>
      <trkpt lat="37.9896060" lon="-5.6445140">
        <ele>592.1</ele>
        <time>2022-05-22T10:17:44Z</time>
      </trkpt>
      <trkpt lat="37.9896110" lon="-5.6445320">
        <ele>592.0</ele>
        <time>2022-05-22T10:17:45Z</time>
      </trkpt>
      <trkpt lat="37.9896160" lon="-5.6445500">
        <ele>592.0</ele>
        <time>2022-05-22T10:17:46Z</time>
      </trkpt>
      <trkpt lat="37.9896230" lon="-5.6445700">
        <ele>592.0</ele>
        <time>2022-05-22T10:17:47Z</time>
      </trkpt>
      <trkpt lat="37.9896290" lon="-5.6445850">
        <ele>592.0</ele>
        <time>2022-05-22T10:17:48Z</time>
      </trkpt>
      <trkpt lat="37.9896440" lon="-5.6446070">
        <ele>591.9</ele>
        <time>2022-05-22T10:17:49Z</time>
      </trkpt>
      <trkpt lat="37.9896640" lon="-5.6446330">
        <ele>591.9</ele>
        <time>2022-05-22T10:17:50Z</time>
      </trkpt>
      <trkpt lat="37.9896750" lon="-5.6446500">
        <ele>591.9</ele>
        <time>2022-05-22T10:17:51Z</time>
      </trkpt>
      <trkpt lat="37.9896850" lon="-5.6446680">
        <ele>591.8</ele>
        <time>2022-05-22T10:17:52Z</time>
      </trkpt>
      <trkpt lat="37.9896950" lon="-5.6446870">
        <ele>591.8</ele>
        <time>2022-05-22T10:17:53Z</time>
      </trkpt>
      <trkpt lat="37.9897020" lon="-5.6447020">
        <ele>591.8</ele>
        <time>2022-05-22T10:17:54Z</time>
      </trkpt>
      <trkpt lat="37.9897170" lon="-5.6447370">
        <ele>591.8</ele>
        <time>2022-05-22T10:17:56Z</time>
      </trkpt>
      <trkpt lat="37.9897260" lon="-5.6447590">
        <ele>591.8</ele>
        <time>2022-05-22T10:17:57Z</time>
      </trkpt>
      <trkpt lat="37.9897330" lon="-5.6447750">
        <ele>591.7</ele>
        <time>2022-05-22T10:17:58Z</time>
      </trkpt>
      <trkpt lat="37.9897400" lon="-5.6447910">
        <ele>591.7</ele>
        <time>2022-05-22T10:17:59Z</time>
      </trkpt>
      <trkpt lat="37.9897450" lon="-5.6448090">
        <ele>591.7</ele>
        <time>2022-05-22T10:18:00Z</time>
      </trkpt>
      <trkpt lat="37.9897490" lon="-5.6448220">
        <ele>591.7</ele>
        <time>2022-05-22T10:18:01Z</time>
      </trkpt>
      <trkpt lat="37.9897520" lon="-5.6448380">
        <ele>591.7</ele>
        <time>2022-05-22T10:18:02Z</time>
      </trkpt>
      <trkpt lat="37.9897550" lon="-5.6448520">
        <ele>591.7</ele>
        <time>2022-05-22T10:18:03Z</time>
      </trkpt>
      <trkpt lat="37.9897570" lon="-5.6448670">
        <ele>591.7</ele>
        <time>2022-05-22T10:18:04Z</time>
      </trkpt>
      <trkpt lat="37.9897580" lon="-5.6448810">
        <ele>591.7</ele>
        <time>2022-05-22T10:18:05Z</time>
      </trkpt>
      <trkpt lat="37.9897240" lon="-5.6448740">
        <ele>591.7</ele>
        <time>2022-05-22T10:18:06Z</time>
      </trkpt>
      <trkpt lat="37.9897200" lon="-5.6448820">
        <ele>591.7</ele>
        <time>2022-05-22T10:18:07Z</time>
      </trkpt>
      <trkpt lat="37.9897160" lon="-5.6448890">
        <ele>591.7</ele>
        <time>2022-05-22T10:18:08Z</time>
      </trkpt>
      <trkpt lat="37.9897160" lon="-5.6448980">
        <ele>591.7</ele>
        <time>2022-05-22T10:18:09Z</time>
      </trkpt>
      <trkpt lat="37.9897110" lon="-5.6449000">
        <ele>591.7</ele>
        <time>2022-05-22T10:18:10Z</time>
      </trkpt>
      <trkpt lat="37.9897060" lon="-5.6449000">
        <ele>591.7</ele>
        <time>2022-05-22T10:18:11Z</time>
      </trkpt>
      <trkpt lat="37.9897000" lon="-5.6448970">
        <ele>591.7</ele>
        <time>2022-05-22T10:18:12Z</time>
      </trkpt>
      <trkpt lat="37.9896970" lon="-5.6448900">
        <ele>591.7</ele>
        <time>2022-05-22T10:18:13Z</time>
      </trkpt>
      <trkpt lat="37.9896950" lon="-5.6448880">
        <ele>591.7</ele>
        <time>2022-05-22T10:18:14Z</time>
      </trkpt>
      <trkpt lat="37.9896930" lon="-5.6448850">
        <ele>591.7</ele>
        <time>2022-05-22T10:18:15Z</time>
      </trkpt>
      <trkpt lat="37.9896910" lon="-5.6448820">
        <ele>591.7</ele>
        <time>2022-05-22T10:18:16Z</time>
      </trkpt>
      <trkpt lat="37.9896860" lon="-5.6448780">
        <ele>591.7</ele>
        <time>2022-05-22T10:18:18Z</time>
      </trkpt>
      <trkpt lat="37.9896840" lon="-5.6448770">
        <ele>591.6</ele>
        <time>2022-05-22T10:18:19Z</time>
      </trkpt>
      <trkpt lat="37.9896830" lon="-5.6448760">
        <ele>591.6</ele>
        <time>2022-05-22T10:18:20Z</time>
      </trkpt>
      <trkpt lat="37.9896830" lon="-5.6448740">
        <ele>591.6</ele>
        <time>2022-05-22T10:18:21Z</time>
      </trkpt>
      <trkpt lat="37.9896820" lon="-5.6448730">
        <ele>591.6</ele>
        <time>2022-05-22T10:18:22Z</time>
      </trkpt>
      <trkpt lat="37.9896820" lon="-5.6448720">
        <ele>591.6</ele>
        <time>2022-05-22T10:18:23Z</time>
      </trkpt>
      <trkpt lat="37.9896820" lon="-5.6448710">
        <ele>591.6</ele>
        <time>2022-05-22T10:18:24Z</time>
      </trkpt>
      <trkpt lat="37.9896820" lon="-5.6448700">
        <ele>591.6</ele>
        <time>2022-05-22T10:18:25Z</time>
      </trkpt>
      <trkpt lat="37.9896830" lon="-5.6448740">
        <ele>591.6</ele>
        <time>2022-05-22T10:18:26Z</time>
      </trkpt>
      <trkpt lat="37.9896830" lon="-5.6448750">
        <ele>591.6</ele>
        <time>2022-05-22T10:18:27Z</time>
      </trkpt>
      <trkpt lat="37.9896830" lon="-5.6448750">
        <ele>591.6</ele>
        <time>2022-05-22T10:18:28Z</time>
      </trkpt>
      <trkpt lat="37.9896830" lon="-5.6448750">
        <ele>591.6</ele>
        <time>2022-05-22T10:18:29Z</time>
      </trkpt>
      <trkpt lat="37.9896830" lon="-5.6448750">
        <ele>591.6</ele>
        <time>2022-05-22T10:18:30Z</time>
      </trkpt>
      <trkpt lat="37.9896830" lon="-5.6448750">
        <ele>591.6</ele>
        <time>2022-05-22T10:18:31Z</time>
      </trkpt>
      <trkpt lat="37.9896830" lon="-5.6448750">
        <ele>591.6</ele>
        <time>2022-05-22T10:18:32Z</time>
      </trkpt>
      <trkpt lat="37.9896830" lon="-5.6448750">
        <ele>591.6</ele>
        <time>2022-05-22T10:18:33Z</time>
      </trkpt>
      <trkpt lat="37.9896830" lon="-5.6448750">
        <ele>591.6</ele>
        <time>2022-05-22T10:18:34Z</time>
      </trkpt>
      <trkpt lat="37.9896830" lon="-5.6448750">
        <ele>591.6</ele>
        <time>2022-05-22T10:18:35Z</time>
      </trkpt>
      <trkpt lat="37.9896830" lon="-5.6448750">
        <ele>591.6</ele>
        <time>2022-05-22T10:18:36Z</time>
      </trkpt>
      <trkpt lat="37.9896830" lon="-5.6448750">
        <ele>591.6</ele>
        <time>2022-05-22T10:18:37Z</time>
      </trkpt>
      <trkpt lat="37.9896830" lon="-5.6448750">
        <ele>591.6</ele>
        <time>2022-05-22T10:18:38Z</time>
      </trkpt>
      <trkpt lat="37.9896830" lon="-5.6448750">
        <ele>591.6</ele>
        <time>2022-05-22T10:18:39Z</time>
      </trkpt>
      <trkpt lat="37.9896830" lon="-5.6448750">
        <ele>591.6</ele>
        <time>2022-05-22T10:18:40Z</time>
      </trkpt>
      <trkpt lat="37.9896830" lon="-5.6448750">
        <ele>591.6</ele>
        <time>2022-05-22T10:18:41Z</time>
      </trkpt>
      <trkpt lat="37.9896830" lon="-5.6448750">
        <ele>591.6</ele>
        <time>2022-05-22T10:18:42Z</time>
      </trkpt>
      <trkpt lat="37.9896830" lon="-5.6448750">
        <ele>591.6</ele>
        <time>2022-05-22T10:18:43Z</time>
      </trkpt>
      <trkpt lat="37.9896830" lon="-5.6448750">
        <ele>591.6</ele>
        <time>2022-05-22T10:18:44Z</time>
      </trkpt>
      <trkpt lat="37.9896830" lon="-5.6448750">
        <ele>591.6</ele>
        <time>2022-05-22T10:18:45Z</time>
      </trkpt>
      <trkpt lat="37.9896830" lon="-5.6448750">
        <ele>591.6</ele>
        <time>2022-05-22T10:18:46Z</time>
      </trkpt>
      <trkpt lat="37.9896830" lon="-5.6448750">
        <ele>591.6</ele>
        <time>2022-05-22T10:18:47Z</time>
      </trkpt>
      <trkpt lat="37.9896830" lon="-5.6448750">
        <ele>591.6</ele>
        <time>2022-05-22T10:18:48Z</time>
      </trkpt>
      <trkpt lat="37.9896830" lon="-5.6448750">
        <ele>591.6</ele>
        <time>2022-05-22T10:18:49Z</time>
      </trkpt>
      <trkpt lat="37.9896830" lon="-5.6448750">
        <ele>591.6</ele>
        <time>2022-05-22T10:18:50Z</time>
      </trkpt>
      <trkpt lat="37.9896830" lon="-5.6448750">
        <ele>591.6</ele>
        <time>2022-05-22T10:18:51Z</time>
      </trkpt>
      <trkpt lat="37.9896830" lon="-5.6448750">
        <ele>591.6</ele>
        <time>2022-05-22T10:18:52Z</time>
      </trkpt>
      <trkpt lat="37.9896830" lon="-5.6448750">
        <ele>591.6</ele>
        <time>2022-05-22T10:18:53Z</time>
      </trkpt>
      <trkpt lat="37.9896830" lon="-5.6448750">
        <ele>591.6</ele>
        <time>2022-05-22T10:18:54Z</time>
      </trkpt>
      <trkpt lat="37.9896830" lon="-5.6448750">
        <ele>591.6</ele>
        <time>2022-05-22T10:18:55Z</time>
      </trkpt>
      <trkpt lat="37.9896830" lon="-5.6448750">
        <ele>591.6</ele>
        <time>2022-05-22T10:18:56Z</time>
      </trkpt>
      <trkpt lat="37.9896830" lon="-5.6448750">
        <ele>591.6</ele>
        <time>2022-05-22T10:18:57Z</time>
      </trkpt>
      <trkpt lat="37.9896830" lon="-5.6448750">
        <ele>591.6</ele>
        <time>2022-05-22T10:18:58Z</time>
      </trkpt>
      <trkpt lat="37.9896830" lon="-5.6448750">
        <ele>591.6</ele>
        <time>2022-05-22T10:18:59Z</time>
      </trkpt>
      <trkpt lat="37.9896830" lon="-5.6448750">
        <ele>591.6</ele>
        <time>2022-05-22T10:19:00Z</time>
      </trkpt>
      <trkpt lat="37.9896830" lon="-5.6448750">
        <ele>591.6</ele>
        <time>2022-05-22T10:19:01Z</time>
      </trkpt>
      <trkpt lat="37.9896830" lon="-5.6448750">
        <ele>591.6</ele>
        <time>2022-05-22T10:19:02Z</time>
      </trkpt>
      <trkpt lat="37.9896830" lon="-5.6448750">
        <ele>591.6</ele>
        <time>2022-05-22T10:19:03Z</time>
      </trkpt>
      <trkpt lat="37.9896830" lon="-5.6448750">
        <ele>591.6</ele>
        <time>2022-05-22T10:19:04Z</time>
      </trkpt>
      <trkpt lat="37.9896830" lon="-5.6448750">
        <ele>591.6</ele>
        <time>2022-05-22T10:19:05Z</time>
      </trkpt>
      <trkpt lat="37.9896830" lon="-5.6448750">
        <ele>591.6</ele>
        <time>2022-05-22T10:19:06Z</time>
      </trkpt>
      <trkpt lat="37.9896830" lon="-5.6448750">
        <ele>591.6</ele>
        <time>2022-05-22T10:19:07Z</time>
      </trkpt>
      <trkpt lat="37.9896830" lon="-5.6448750">
        <ele>591.6</ele>
        <time>2022-05-22T10:19:09Z</time>
      </trkpt>
      <trkpt lat="37.9897260" lon="-5.6448700">
        <ele>591.6</ele>
        <time>2022-05-22T10:23:17Z</time>
      </trkpt>
      <trkpt lat="37.9897140" lon="-5.6448710">
        <ele>591.6</ele>
        <time>2022-05-22T10:23:18Z</time>
      </trkpt>
      <trkpt lat="37.9896920" lon="-5.6448820">
        <ele>591.6</ele>
        <time>2022-05-22T10:23:33Z</time>
      </trkpt>
      <trkpt lat="37.9896970" lon="-5.6448990">
        <ele>591.6</ele>
        <time>2022-05-22T10:23:34Z</time>
      </trkpt>
      <trkpt lat="37.9896980" lon="-5.6449120">
        <ele>591.6</ele>
        <time>2022-05-22T10:23:35Z</time>
      </trkpt>
      <trkpt lat="37.9897000" lon="-5.6449420">
        <ele>591.6</ele>
        <time>2022-05-22T10:23:37Z</time>
      </trkpt>
      <trkpt lat="37.9897010" lon="-5.6449550">
        <ele>591.6</ele>
        <time>2022-05-22T10:23:38Z</time>
      </trkpt>
      <trkpt lat="37.9897000" lon="-5.6449700">
        <ele>591.6</ele>
        <time>2022-05-22T10:23:39Z</time>
      </trkpt>
      <trkpt lat="37.9896990" lon="-5.6449830">
        <ele>591.6</ele>
        <time>2022-05-22T10:23:40Z</time>
      </trkpt>
      <trkpt lat="37.9896980" lon="-5.6449950">
        <ele>591.6</ele>
        <time>2022-05-22T10:23:41Z</time>
      </trkpt>
      <trkpt lat="37.9897000" lon="-5.6450200">
        <ele>591.6</ele>
        <time>2022-05-22T10:23:42Z</time>
      </trkpt>
      <trkpt lat="37.9897010" lon="-5.6450320">
        <ele>591.6</ele>
        <time>2022-05-22T10:23:43Z</time>
      </trkpt>
      <trkpt lat="37.9897030" lon="-5.6450440">
        <ele>591.6</ele>
        <time>2022-05-22T10:23:45Z</time>
      </trkpt>
      <trkpt lat="37.9897040" lon="-5.6450570">
        <ele>591.6</ele>
        <time>2022-05-22T10:23:46Z</time>
      </trkpt>
      <trkpt lat="37.9897050" lon="-5.6450690">
        <ele>591.6</ele>
        <time>2022-05-22T10:23:47Z</time>
      </trkpt>
      <trkpt lat="37.9897070" lon="-5.6450820">
        <ele>591.7</ele>
        <time>2022-05-22T10:23:48Z</time>
      </trkpt>
      <trkpt lat="37.9897110" lon="-5.6450980">
        <ele>591.7</ele>
        <time>2022-05-22T10:23:49Z</time>
      </trkpt>
      <trkpt lat="37.9897180" lon="-5.6451140">
        <ele>591.7</ele>
        <time>2022-05-22T10:23:50Z</time>
      </trkpt>
      <trkpt lat="37.9897230" lon="-5.6451340">
        <ele>591.7</ele>
        <time>2022-05-22T10:23:52Z</time>
      </trkpt>
      <trkpt lat="37.9897290" lon="-5.6451470">
        <ele>591.7</ele>
        <time>2022-05-22T10:23:53Z</time>
      </trkpt>
      <trkpt lat="37.9897320" lon="-5.6451650">
        <ele>591.7</ele>
        <time>2022-05-22T10:23:54Z</time>
      </trkpt>
      <trkpt lat="37.9897330" lon="-5.6451810">
        <ele>591.7</ele>
        <time>2022-05-22T10:23:55Z</time>
      </trkpt>
      <trkpt lat="37.9897340" lon="-5.6451950">
        <ele>591.8</ele>
        <time>2022-05-22T10:23:56Z</time>
      </trkpt>
      <trkpt lat="37.9897350" lon="-5.6452110">
        <ele>591.8</ele>
        <time>2022-05-22T10:23:57Z</time>
      </trkpt>
      <trkpt lat="37.9897370" lon="-5.6452230">
        <ele>591.8</ele>
        <time>2022-05-22T10:23:58Z</time>
      </trkpt>
      <trkpt lat="37.9897380" lon="-5.6452360">
        <ele>591.8</ele>
        <time>2022-05-22T10:23:59Z</time>
      </trkpt>
      <trkpt lat="37.9897380" lon="-5.6452500">
        <ele>591.8</ele>
        <time>2022-05-22T10:24:00Z</time>
      </trkpt>
      <trkpt lat="37.9897380" lon="-5.6452630">
        <ele>591.8</ele>
        <time>2022-05-22T10:24:01Z</time>
      </trkpt>
      <trkpt lat="37.9897380" lon="-5.6452770">
        <ele>591.8</ele>
        <time>2022-05-22T10:24:02Z</time>
      </trkpt>
      <trkpt lat="37.9897400" lon="-5.6452840">
        <ele>591.8</ele>
        <time>2022-05-22T10:24:04Z</time>
      </trkpt>
      <trkpt lat="37.9897440" lon="-5.6452940">
        <ele>591.8</ele>
        <time>2022-05-22T10:24:05Z</time>
      </trkpt>
      <trkpt lat="37.9897460" lon="-5.6453070">
        <ele>591.8</ele>
        <time>2022-05-22T10:24:06Z</time>
      </trkpt>
      <trkpt lat="37.9897490" lon="-5.6453200">
        <ele>591.8</ele>
        <time>2022-05-22T10:24:07Z</time>
      </trkpt>
      <trkpt lat="37.9897530" lon="-5.6453340">
        <ele>591.8</ele>
        <time>2022-05-22T10:24:08Z</time>
      </trkpt>
      <trkpt lat="37.9897600" lon="-5.6453440">
        <ele>591.8</ele>
        <time>2022-05-22T10:24:09Z</time>
      </trkpt>
      <trkpt lat="37.9897670" lon="-5.6453560">
        <ele>591.8</ele>
        <time>2022-05-22T10:24:10Z</time>
      </trkpt>
      <trkpt lat="37.9897720" lon="-5.6453680">
        <ele>591.8</ele>
        <time>2022-05-22T10:24:11Z</time>
      </trkpt>
      <trkpt lat="37.9897760" lon="-5.6453790">
        <ele>591.8</ele>
        <time>2022-05-22T10:24:12Z</time>
      </trkpt>
      <trkpt lat="37.9897810" lon="-5.6453870">
        <ele>591.8</ele>
        <time>2022-05-22T10:24:13Z</time>
      </trkpt>
      <trkpt lat="37.9897870" lon="-5.6453950">
        <ele>591.8</ele>
        <time>2022-05-22T10:24:14Z</time>
      </trkpt>
      <trkpt lat="37.9897920" lon="-5.6454030">
        <ele>591.8</ele>
        <time>2022-05-22T10:24:15Z</time>
      </trkpt>
      <trkpt lat="37.9897980" lon="-5.6454130">
        <ele>591.8</ele>
        <time>2022-05-22T10:24:16Z</time>
      </trkpt>
      <trkpt lat="37.9898080" lon="-5.6454340">
        <ele>591.8</ele>
        <time>2022-05-22T10:24:17Z</time>
      </trkpt>
      <trkpt lat="37.9898130" lon="-5.6454450">
        <ele>591.8</ele>
        <time>2022-05-22T10:24:19Z</time>
      </trkpt>
      <trkpt lat="37.9898180" lon="-5.6454570">
        <ele>591.8</ele>
        <time>2022-05-22T10:24:20Z</time>
      </trkpt>
      <trkpt lat="37.9898240" lon="-5.6454670">
        <ele>591.7</ele>
        <time>2022-05-22T10:24:21Z</time>
      </trkpt>
      <trkpt lat="37.9898310" lon="-5.6454780">
        <ele>591.7</ele>
        <time>2022-05-22T10:24:22Z</time>
      </trkpt>
      <trkpt lat="37.9898370" lon="-5.6454880">
        <ele>591.7</ele>
        <time>2022-05-22T10:24:23Z</time>
      </trkpt>
      <trkpt lat="37.9898490" lon="-5.6455110">
        <ele>591.6</ele>
        <time>2022-05-22T10:24:24Z</time>
      </trkpt>
      <trkpt lat="37.9898540" lon="-5.6455240">
        <ele>591.6</ele>
        <time>2022-05-22T10:24:26Z</time>
      </trkpt>
      <trkpt lat="37.9898590" lon="-5.6455380">
        <ele>591.5</ele>
        <time>2022-05-22T10:24:27Z</time>
      </trkpt>
      <trkpt lat="37.9898640" lon="-5.6455510">
        <ele>591.5</ele>
        <time>2022-05-22T10:24:28Z</time>
      </trkpt>
      <trkpt lat="37.9898690" lon="-5.6455640">
        <ele>591.5</ele>
        <time>2022-05-22T10:24:29Z</time>
      </trkpt>
      <trkpt lat="37.9898670" lon="-5.6455880">
        <ele>591.4</ele>
        <time>2022-05-22T10:24:31Z</time>
      </trkpt>
      <trkpt lat="37.9898660" lon="-5.6456070">
        <ele>591.4</ele>
        <time>2022-05-22T10:24:32Z</time>
      </trkpt>
      <trkpt lat="37.9898600" lon="-5.6456450">
        <ele>591.3</ele>
        <time>2022-05-22T10:24:33Z</time>
      </trkpt>
      <trkpt lat="37.9898560" lon="-5.6456660">
        <ele>591.3</ele>
        <time>2022-05-22T10:24:34Z</time>
      </trkpt>
      <trkpt lat="37.9898550" lon="-5.6456840">
        <ele>591.3</ele>
        <time>2022-05-22T10:24:35Z</time>
      </trkpt>
      <trkpt lat="37.9898540" lon="-5.6457000">
        <ele>591.3</ele>
        <time>2022-05-22T10:24:36Z</time>
      </trkpt>
      <trkpt lat="37.9898560" lon="-5.6457120">
        <ele>591.2</ele>
        <time>2022-05-22T10:24:37Z</time>
      </trkpt>
      <trkpt lat="37.9898580" lon="-5.6457190">
        <ele>591.2</ele>
        <time>2022-05-22T10:24:38Z</time>
      </trkpt>
      <trkpt lat="37.9898620" lon="-5.6457370">
        <ele>591.2</ele>
        <time>2022-05-22T10:24:40Z</time>
      </trkpt>
      <trkpt lat="37.9898630" lon="-5.6457500">
        <ele>591.2</ele>
        <time>2022-05-22T10:24:41Z</time>
      </trkpt>
      <trkpt lat="37.9898630" lon="-5.6457640">
        <ele>591.2</ele>
        <time>2022-05-22T10:24:42Z</time>
      </trkpt>
      <trkpt lat="37.9898620" lon="-5.6457680">
        <ele>591.2</ele>
        <time>2022-05-22T10:24:43Z</time>
      </trkpt>
      <trkpt lat="37.9898630" lon="-5.6457650">
        <ele>591.2</ele>
        <time>2022-05-22T10:24:44Z</time>
      </trkpt>
      <trkpt lat="37.9898630" lon="-5.6457630">
        <ele>591.1</ele>
        <time>2022-05-22T10:24:45Z</time>
      </trkpt>
      <trkpt lat="37.9898630" lon="-5.6457600">
        <ele>591.1</ele>
        <time>2022-05-22T10:24:46Z</time>
      </trkpt>
      <trkpt lat="37.9898620" lon="-5.6457610">
        <ele>591.1</ele>
        <time>2022-05-22T10:24:47Z</time>
      </trkpt>
      <trkpt lat="37.9898630" lon="-5.6457620">
        <ele>591.1</ele>
        <time>2022-05-22T10:24:48Z</time>
      </trkpt>
      <trkpt lat="37.9898650" lon="-5.6457650">
        <ele>591.1</ele>
        <time>2022-05-22T10:24:50Z</time>
      </trkpt>
      <trkpt lat="37.9898690" lon="-5.6457760">
        <ele>591.1</ele>
        <time>2022-05-22T10:24:51Z</time>
      </trkpt>
      <trkpt lat="37.9898710" lon="-5.6457910">
        <ele>591.1</ele>
        <time>2022-05-22T10:24:52Z</time>
      </trkpt>
      <trkpt lat="37.9898700" lon="-5.6458000">
        <ele>591.1</ele>
        <time>2022-05-22T10:24:53Z</time>
      </trkpt>
      <trkpt lat="37.9898690" lon="-5.6458080">
        <ele>591.1</ele>
        <time>2022-05-22T10:24:54Z</time>
      </trkpt>
      <trkpt lat="37.9898690" lon="-5.6458200">
        <ele>591.1</ele>
        <time>2022-05-22T10:24:56Z</time>
      </trkpt>
      <trkpt lat="37.9898680" lon="-5.6458390">
        <ele>591.0</ele>
        <time>2022-05-22T10:24:57Z</time>
      </trkpt>
      <trkpt lat="37.9898720" lon="-5.6458630">
        <ele>591.0</ele>
        <time>2022-05-22T10:24:58Z</time>
      </trkpt>
      <trkpt lat="37.9898740" lon="-5.6458730">
        <ele>591.0</ele>
        <time>2022-05-22T10:24:59Z</time>
      </trkpt>
      <trkpt lat="37.9898770" lon="-5.6458840">
        <ele>591.0</ele>
        <time>2022-05-22T10:25:00Z</time>
      </trkpt>
      <trkpt lat="37.9898930" lon="-5.6459270">
        <ele>590.9</ele>
        <time>2022-05-22T10:25:02Z</time>
      </trkpt>
      <trkpt lat="37.9898980" lon="-5.6459380">
        <ele>590.9</ele>
        <time>2022-05-22T10:25:03Z</time>
      </trkpt>
      <trkpt lat="37.9899020" lon="-5.6459480">
        <ele>590.9</ele>
        <time>2022-05-22T10:25:04Z</time>
      </trkpt>
      <trkpt lat="37.9899070" lon="-5.6459590">
        <ele>590.9</ele>
        <time>2022-05-22T10:25:05Z</time>
      </trkpt>
      <trkpt lat="37.9899100" lon="-5.6459750">
        <ele>590.9</ele>
        <time>2022-05-22T10:25:06Z</time>
      </trkpt>
      <trkpt lat="37.9899100" lon="-5.6459940">
        <ele>590.8</ele>
        <time>2022-05-22T10:25:07Z</time>
      </trkpt>
      <trkpt lat="37.9899070" lon="-5.6460140">
        <ele>590.8</ele>
        <time>2022-05-22T10:25:08Z</time>
      </trkpt>
      <trkpt lat="37.9899050" lon="-5.6460350">
        <ele>590.8</ele>
        <time>2022-05-22T10:25:09Z</time>
      </trkpt>
      <trkpt lat="37.9899070" lon="-5.6460590">
        <ele>590.8</ele>
        <time>2022-05-22T10:25:10Z</time>
      </trkpt>
      <trkpt lat="37.9899110" lon="-5.6460750">
        <ele>590.8</ele>
        <time>2022-05-22T10:25:11Z</time>
      </trkpt>
      <trkpt lat="37.9899150" lon="-5.6460910">
        <ele>590.8</ele>
        <time>2022-05-22T10:25:12Z</time>
      </trkpt>
      <trkpt lat="37.9899210" lon="-5.6461150">
        <ele>590.7</ele>
        <time>2022-05-22T10:25:13Z</time>
      </trkpt>
      <trkpt lat="37.9899250" lon="-5.6461410">
        <ele>590.7</ele>
        <time>2022-05-22T10:25:14Z</time>
      </trkpt>
      <trkpt lat="37.9899280" lon="-5.6461520">
        <ele>590.7</ele>
        <time>2022-05-22T10:25:15Z</time>
      </trkpt>
      <trkpt lat="37.9899300" lon="-5.6461630">
        <ele>590.7</ele>
        <time>2022-05-22T10:25:16Z</time>
      </trkpt>
      <trkpt lat="37.9899360" lon="-5.6461760">
        <ele>590.7</ele>
        <time>2022-05-22T10:25:17Z</time>
      </trkpt>
      <trkpt lat="37.9899460" lon="-5.6461970">
        <ele>590.7</ele>
        <time>2022-05-22T10:25:19Z</time>
      </trkpt>
      <trkpt lat="37.9899560" lon="-5.6462210">
        <ele>590.7</ele>
        <time>2022-05-22T10:25:20Z</time>
      </trkpt>
      <trkpt lat="37.9899610" lon="-5.6462340">
        <ele>590.7</ele>
        <time>2022-05-22T10:25:21Z</time>
      </trkpt>
      <trkpt lat="37.9899670" lon="-5.6462470">
        <ele>590.7</ele>
        <time>2022-05-22T10:25:22Z</time>
      </trkpt>
      <trkpt lat="37.9899720" lon="-5.6462600">
        <ele>590.6</ele>
        <time>2022-05-22T10:25:23Z</time>
      </trkpt>
      <trkpt lat="37.9899780" lon="-5.6462720">
        <ele>590.6</ele>
        <time>2022-05-22T10:25:24Z</time>
      </trkpt>
      <trkpt lat="37.9899880" lon="-5.6462850">
        <ele>590.6</ele>
        <time>2022-05-22T10:25:25Z</time>
      </trkpt>
      <trkpt lat="37.9899940" lon="-5.6463020">
        <ele>590.6</ele>
        <time>2022-05-22T10:25:26Z</time>
      </trkpt>
      <trkpt lat="37.9899990" lon="-5.6463200">
        <ele>590.6</ele>
        <time>2022-05-22T10:25:27Z</time>
      </trkpt>
      <trkpt lat="37.9900030" lon="-5.6463370">
        <ele>590.6</ele>
        <time>2022-05-22T10:25:28Z</time>
      </trkpt>
      <trkpt lat="37.9900090" lon="-5.6463580">
        <ele>590.6</ele>
        <time>2022-05-22T10:25:30Z</time>
      </trkpt>
      <trkpt lat="37.9900140" lon="-5.6463750">
        <ele>590.6</ele>
        <time>2022-05-22T10:25:31Z</time>
      </trkpt>
      <trkpt lat="37.9900170" lon="-5.6463870">
        <ele>590.6</ele>
        <time>2022-05-22T10:25:32Z</time>
      </trkpt>
      <trkpt lat="37.9900200" lon="-5.6463990">
        <ele>590.6</ele>
        <time>2022-05-22T10:25:33Z</time>
      </trkpt>
      <trkpt lat="37.9900260" lon="-5.6464190">
        <ele>590.6</ele>
        <time>2022-05-22T10:25:35Z</time>
      </trkpt>
      <trkpt lat="37.9900270" lon="-5.6464300">
        <ele>590.6</ele>
        <time>2022-05-22T10:25:36Z</time>
      </trkpt>
      <trkpt lat="37.9900260" lon="-5.6464420">
        <ele>590.6</ele>
        <time>2022-05-22T10:25:37Z</time>
      </trkpt>
      <trkpt lat="37.9900260" lon="-5.6464550">
        <ele>590.6</ele>
        <time>2022-05-22T10:25:38Z</time>
      </trkpt>
      <trkpt lat="37.9900270" lon="-5.6464690">
        <ele>590.6</ele>
        <time>2022-05-22T10:25:39Z</time>
      </trkpt>
      <trkpt lat="37.9900280" lon="-5.6464850">
        <ele>590.6</ele>
        <time>2022-05-22T10:25:40Z</time>
      </trkpt>
      <trkpt lat="37.9900290" lon="-5.6464980">
        <ele>590.6</ele>
        <time>2022-05-22T10:25:41Z</time>
      </trkpt>
      <trkpt lat="37.9900350" lon="-5.6465240">
        <ele>590.6</ele>
        <time>2022-05-22T10:25:42Z</time>
      </trkpt>
      <trkpt lat="37.9900380" lon="-5.6465340">
        <ele>590.6</ele>
        <time>2022-05-22T10:25:43Z</time>
      </trkpt>
      <trkpt lat="37.9900410" lon="-5.6465440">
        <ele>590.6</ele>
        <time>2022-05-22T10:25:44Z</time>
      </trkpt>
      <trkpt lat="37.9900460" lon="-5.6465610">
        <ele>590.6</ele>
        <time>2022-05-22T10:25:45Z</time>
      </trkpt>
      <trkpt lat="37.9900520" lon="-5.6465770">
        <ele>590.6</ele>
        <time>2022-05-22T10:25:46Z</time>
      </trkpt>
      <trkpt lat="37.9900540" lon="-5.6465870">
        <ele>590.6</ele>
        <time>2022-05-22T10:25:47Z</time>
      </trkpt>
      <trkpt lat="37.9900530" lon="-5.6465950">
        <ele>590.6</ele>
        <time>2022-05-22T10:25:48Z</time>
      </trkpt>
      <trkpt lat="37.9900560" lon="-5.6466070">
        <ele>590.6</ele>
        <time>2022-05-22T10:25:49Z</time>
      </trkpt>
      <trkpt lat="37.9900610" lon="-5.6466190">
        <ele>590.6</ele>
        <time>2022-05-22T10:25:50Z</time>
      </trkpt>
      <trkpt lat="37.9900660" lon="-5.6466320">
        <ele>590.6</ele>
        <time>2022-05-22T10:25:51Z</time>
      </trkpt>
      <trkpt lat="37.9900710" lon="-5.6466450">
        <ele>590.6</ele>
        <time>2022-05-22T10:25:52Z</time>
      </trkpt>
      <trkpt lat="37.9900780" lon="-5.6466600">
        <ele>590.7</ele>
        <time>2022-05-22T10:25:54Z</time>
      </trkpt>
      <trkpt lat="37.9900860" lon="-5.6466820">
        <ele>590.7</ele>
        <time>2022-05-22T10:25:55Z</time>
      </trkpt>
      <trkpt lat="37.9900910" lon="-5.6466940">
        <ele>590.7</ele>
        <time>2022-05-22T10:25:56Z</time>
      </trkpt>
      <trkpt lat="37.9900980" lon="-5.6467210">
        <ele>590.7</ele>
        <time>2022-05-22T10:25:58Z</time>
      </trkpt>
      <trkpt lat="37.9900960" lon="-5.6467330">
        <ele>590.7</ele>
        <time>2022-05-22T10:25:59Z</time>
      </trkpt>
      <trkpt lat="37.9900900" lon="-5.6467440">
        <ele>590.7</ele>
        <time>2022-05-22T10:26:00Z</time>
      </trkpt>
      <trkpt lat="37.9900830" lon="-5.6467590">
        <ele>590.7</ele>
        <time>2022-05-22T10:26:02Z</time>
      </trkpt>
      <trkpt lat="37.9900830" lon="-5.6467690">
        <ele>590.7</ele>
        <time>2022-05-22T10:26:03Z</time>
      </trkpt>
      <trkpt lat="37.9900840" lon="-5.6467790">
        <ele>590.7</ele>
        <time>2022-05-22T10:26:04Z</time>
      </trkpt>
      <trkpt lat="37.9900850" lon="-5.6467870">
        <ele>590.7</ele>
        <time>2022-05-22T10:26:05Z</time>
      </trkpt>
      <trkpt lat="37.9900880" lon="-5.6467980">
        <ele>590.7</ele>
        <time>2022-05-22T10:26:06Z</time>
      </trkpt>
      <trkpt lat="37.9900910" lon="-5.6468100">
        <ele>590.7</ele>
        <time>2022-05-22T10:26:07Z</time>
      </trkpt>
      <trkpt lat="37.9900950" lon="-5.6468240">
        <ele>590.7</ele>
        <time>2022-05-22T10:26:08Z</time>
      </trkpt>
      <trkpt lat="37.9900970" lon="-5.6468360">
        <ele>590.7</ele>
        <time>2022-05-22T10:26:09Z</time>
      </trkpt>
      <trkpt lat="37.9901000" lon="-5.6468510">
        <ele>590.7</ele>
        <time>2022-05-22T10:26:10Z</time>
      </trkpt>
      <trkpt lat="37.9901030" lon="-5.6468780">
        <ele>590.7</ele>
        <time>2022-05-22T10:26:11Z</time>
      </trkpt>
      <trkpt lat="37.9901040" lon="-5.6468870">
        <ele>590.8</ele>
        <time>2022-05-22T10:26:12Z</time>
      </trkpt>
      <trkpt lat="37.9901060" lon="-5.6468970">
        <ele>590.8</ele>
        <time>2022-05-22T10:26:13Z</time>
      </trkpt>
      <trkpt lat="37.9901080" lon="-5.6469090">
        <ele>590.8</ele>
        <time>2022-05-22T10:26:14Z</time>
      </trkpt>
      <trkpt lat="37.9901110" lon="-5.6469230">
        <ele>590.8</ele>
        <time>2022-05-22T10:26:15Z</time>
      </trkpt>
      <trkpt lat="37.9901160" lon="-5.6469380">
        <ele>590.8</ele>
        <time>2022-05-22T10:26:16Z</time>
      </trkpt>
      <trkpt lat="37.9901210" lon="-5.6469540">
        <ele>590.8</ele>
        <time>2022-05-22T10:26:17Z</time>
      </trkpt>
      <trkpt lat="37.9901250" lon="-5.6469680">
        <ele>590.8</ele>
        <time>2022-05-22T10:26:18Z</time>
      </trkpt>
      <trkpt lat="37.9901300" lon="-5.6469780">
        <ele>590.8</ele>
        <time>2022-05-22T10:26:19Z</time>
      </trkpt>
      <trkpt lat="37.9901330" lon="-5.6469910">
        <ele>590.8</ele>
        <time>2022-05-22T10:26:20Z</time>
      </trkpt>
      <trkpt lat="37.9901350" lon="-5.6470020">
        <ele>590.8</ele>
        <time>2022-05-22T10:26:21Z</time>
      </trkpt>
      <trkpt lat="37.9901370" lon="-5.6470140">
        <ele>590.8</ele>
        <time>2022-05-22T10:26:22Z</time>
      </trkpt>
      <trkpt lat="37.9901400" lon="-5.6470250">
        <ele>590.8</ele>
        <time>2022-05-22T10:26:23Z</time>
      </trkpt>
      <trkpt lat="37.9901420" lon="-5.6470340">
        <ele>590.8</ele>
        <time>2022-05-22T10:26:24Z</time>
      </trkpt>
      <trkpt lat="37.9901440" lon="-5.6470410">
        <ele>590.8</ele>
        <time>2022-05-22T10:26:25Z</time>
      </trkpt>
      <trkpt lat="37.9901510" lon="-5.6470570">
        <ele>590.8</ele>
        <time>2022-05-22T10:26:27Z</time>
      </trkpt>
      <trkpt lat="37.9901550" lon="-5.6470670">
        <ele>590.8</ele>
        <time>2022-05-22T10:26:28Z</time>
      </trkpt>
      <trkpt lat="37.9901590" lon="-5.6470790">
        <ele>590.8</ele>
        <time>2022-05-22T10:26:29Z</time>
      </trkpt>
      <trkpt lat="37.9901630" lon="-5.6470940">
        <ele>590.8</ele>
        <time>2022-05-22T10:26:30Z</time>
      </trkpt>
      <trkpt lat="37.9901650" lon="-5.6471040">
        <ele>590.8</ele>
        <time>2022-05-22T10:26:31Z</time>
      </trkpt>
      <trkpt lat="37.9901670" lon="-5.6471170">
        <ele>590.8</ele>
        <time>2022-05-22T10:26:32Z</time>
      </trkpt>
      <trkpt lat="37.9901690" lon="-5.6471260">
        <ele>590.8</ele>
        <time>2022-05-22T10:26:33Z</time>
      </trkpt>
      <trkpt lat="37.9901730" lon="-5.6471370">
        <ele>590.8</ele>
        <time>2022-05-22T10:26:34Z</time>
      </trkpt>
      <trkpt lat="37.9901790" lon="-5.6471480">
        <ele>590.8</ele>
        <time>2022-05-22T10:26:35Z</time>
      </trkpt>
      <trkpt lat="37.9901880" lon="-5.6471730">
        <ele>590.8</ele>
        <time>2022-05-22T10:26:37Z</time>
      </trkpt>
      <trkpt lat="37.9901920" lon="-5.6471900">
        <ele>590.8</ele>
        <time>2022-05-22T10:26:38Z</time>
      </trkpt>
      <trkpt lat="37.9901940" lon="-5.6472100">
        <ele>590.8</ele>
        <time>2022-05-22T10:26:39Z</time>
      </trkpt>
      <trkpt lat="37.9901930" lon="-5.6472370">
        <ele>590.8</ele>
        <time>2022-05-22T10:26:40Z</time>
      </trkpt>
      <trkpt lat="37.9901940" lon="-5.6472490">
        <ele>590.8</ele>
        <time>2022-05-22T10:26:41Z</time>
      </trkpt>
      <trkpt lat="37.9901950" lon="-5.6472610">
        <ele>590.8</ele>
        <time>2022-05-22T10:26:42Z</time>
      </trkpt>
      <trkpt lat="37.9902020" lon="-5.6472860">
        <ele>590.7</ele>
        <time>2022-05-22T10:26:43Z</time>
      </trkpt>
      <trkpt lat="37.9902040" lon="-5.6472970">
        <ele>590.7</ele>
        <time>2022-05-22T10:26:44Z</time>
      </trkpt>
      <trkpt lat="37.9902070" lon="-5.6473090">
        <ele>590.7</ele>
        <time>2022-05-22T10:26:45Z</time>
      </trkpt>
      <trkpt lat="37.9902080" lon="-5.6473290">
        <ele>590.7</ele>
        <time>2022-05-22T10:26:46Z</time>
      </trkpt>
      <trkpt lat="37.9902090" lon="-5.6473470">
        <ele>590.7</ele>
        <time>2022-05-22T10:26:47Z</time>
      </trkpt>
      <trkpt lat="37.9902070" lon="-5.6473650">
        <ele>590.7</ele>
        <time>2022-05-22T10:26:48Z</time>
      </trkpt>
      <trkpt lat="37.9902030" lon="-5.6473830">
        <ele>590.7</ele>
        <time>2022-05-22T10:26:49Z</time>
      </trkpt>
      <trkpt lat="37.9902030" lon="-5.6474110">
        <ele>590.6</ele>
        <time>2022-05-22T10:26:50Z</time>
      </trkpt>
      <trkpt lat="37.9902040" lon="-5.6474230">
        <ele>590.6</ele>
        <time>2022-05-22T10:26:51Z</time>
      </trkpt>
      <trkpt lat="37.9902050" lon="-5.6474350">
        <ele>590.6</ele>
        <time>2022-05-22T10:26:52Z</time>
      </trkpt>
      <trkpt lat="37.9902130" lon="-5.6474730">
        <ele>590.6</ele>
        <time>2022-05-22T10:26:54Z</time>
      </trkpt>
      <trkpt lat="37.9902160" lon="-5.6474840">
        <ele>590.6</ele>
        <time>2022-05-22T10:26:55Z</time>
      </trkpt>
      <trkpt lat="37.9902190" lon="-5.6475000">
        <ele>590.6</ele>
        <time>2022-05-22T10:26:56Z</time>
      </trkpt>
      <trkpt lat="37.9902220" lon="-5.6475200">
        <ele>590.6</ele>
        <time>2022-05-22T10:26:57Z</time>
      </trkpt>
      <trkpt lat="37.9902270" lon="-5.6475390">
        <ele>590.6</ele>
        <time>2022-05-22T10:26:58Z</time>
      </trkpt>
      <trkpt lat="37.9902340" lon="-5.6475650">
        <ele>590.6</ele>
        <time>2022-05-22T10:27:00Z</time>
      </trkpt>
      <trkpt lat="37.9902400" lon="-5.6475870">
        <ele>590.6</ele>
        <time>2022-05-22T10:27:01Z</time>
      </trkpt>
      <trkpt lat="37.9902450" lon="-5.6476040">
        <ele>590.6</ele>
        <time>2022-05-22T10:27:02Z</time>
      </trkpt>
      <trkpt lat="37.9902510" lon="-5.6476230">
        <ele>590.6</ele>
        <time>2022-05-22T10:27:03Z</time>
      </trkpt>
      <trkpt lat="37.9902550" lon="-5.6476380">
        <ele>590.6</ele>
        <time>2022-05-22T10:27:04Z</time>
      </trkpt>
      <trkpt lat="37.9902610" lon="-5.6476690">
        <ele>590.6</ele>
        <time>2022-05-22T10:27:06Z</time>
      </trkpt>
      <trkpt lat="37.9902620" lon="-5.6476830">
        <ele>590.6</ele>
        <time>2022-05-22T10:27:07Z</time>
      </trkpt>
      <trkpt lat="37.9902690" lon="-5.6477000">
        <ele>590.6</ele>
        <time>2022-05-22T10:27:08Z</time>
      </trkpt>
      <trkpt lat="37.9902690" lon="-5.6477170">
        <ele>590.6</ele>
        <time>2022-05-22T10:27:09Z</time>
      </trkpt>
      <trkpt lat="37.9902700" lon="-5.6477330">
        <ele>590.6</ele>
        <time>2022-05-22T10:27:10Z</time>
      </trkpt>
      <trkpt lat="37.9902730" lon="-5.6477420">
        <ele>590.6</ele>
        <time>2022-05-22T10:27:11Z</time>
      </trkpt>
      <trkpt lat="37.9902800" lon="-5.6477450">
        <ele>590.6</ele>
        <time>2022-05-22T10:27:12Z</time>
      </trkpt>
      <trkpt lat="37.9902870" lon="-5.6477500">
        <ele>590.6</ele>
        <time>2022-05-22T10:27:13Z</time>
      </trkpt>
      <trkpt lat="37.9902940" lon="-5.6477590">
        <ele>590.6</ele>
        <time>2022-05-22T10:27:14Z</time>
      </trkpt>
      <trkpt lat="37.9902990" lon="-5.6477740">
        <ele>590.6</ele>
        <time>2022-05-22T10:27:15Z</time>
      </trkpt>
      <trkpt lat="37.9903030" lon="-5.6477900">
        <ele>590.6</ele>
        <time>2022-05-22T10:27:16Z</time>
      </trkpt>
      <trkpt lat="37.9903030" lon="-5.6478160">
        <ele>590.6</ele>
        <time>2022-05-22T10:27:17Z</time>
      </trkpt>
      <trkpt lat="37.9903020" lon="-5.6478280">
        <ele>590.6</ele>
        <time>2022-05-22T10:27:18Z</time>
      </trkpt>
      <trkpt lat="37.9903010" lon="-5.6478390">
        <ele>590.6</ele>
        <time>2022-05-22T10:27:19Z</time>
      </trkpt>
      <trkpt lat="37.9903030" lon="-5.6478560">
        <ele>590.6</ele>
        <time>2022-05-22T10:27:20Z</time>
      </trkpt>
      <trkpt lat="37.9903060" lon="-5.6478750">
        <ele>590.6</ele>
        <time>2022-05-22T10:27:21Z</time>
      </trkpt>
      <trkpt lat="37.9903080" lon="-5.6478900">
        <ele>590.6</ele>
        <time>2022-05-22T10:27:22Z</time>
      </trkpt>
      <trkpt lat="37.9903110" lon="-5.6479060">
        <ele>590.6</ele>
        <time>2022-05-22T10:27:23Z</time>
      </trkpt>
      <trkpt lat="37.9903110" lon="-5.6479190">
        <ele>590.6</ele>
        <time>2022-05-22T10:27:24Z</time>
      </trkpt>
      <trkpt lat="37.9903140" lon="-5.6479310">
        <ele>590.6</ele>
        <time>2022-05-22T10:27:25Z</time>
      </trkpt>
      <trkpt lat="37.9903240" lon="-5.6479420">
        <ele>590.6</ele>
        <time>2022-05-22T10:27:26Z</time>
      </trkpt>
      <trkpt lat="37.9903320" lon="-5.6479500">
        <ele>590.6</ele>
        <time>2022-05-22T10:27:27Z</time>
      </trkpt>
      <trkpt lat="37.9903440" lon="-5.6479710">
        <ele>590.6</ele>
        <time>2022-05-22T10:27:28Z</time>
      </trkpt>
      <trkpt lat="37.9903460" lon="-5.6479810">
        <ele>590.6</ele>
        <time>2022-05-22T10:27:29Z</time>
      </trkpt>
      <trkpt lat="37.9903490" lon="-5.6479910">
        <ele>590.5</ele>
        <time>2022-05-22T10:27:30Z</time>
      </trkpt>
      <trkpt lat="37.9903520" lon="-5.6480080">
        <ele>590.5</ele>
        <time>2022-05-22T10:27:31Z</time>
      </trkpt>
      <trkpt lat="37.9903560" lon="-5.6480250">
        <ele>590.5</ele>
        <time>2022-05-22T10:27:32Z</time>
      </trkpt>
      <trkpt lat="37.9903600" lon="-5.6480440">
        <ele>590.5</ele>
        <time>2022-05-22T10:27:33Z</time>
      </trkpt>
      <trkpt lat="37.9903640" lon="-5.6480620">
        <ele>590.5</ele>
        <time>2022-05-22T10:27:34Z</time>
      </trkpt>
      <trkpt lat="37.9903690" lon="-5.6480810">
        <ele>590.5</ele>
        <time>2022-05-22T10:27:35Z</time>
      </trkpt>
      <trkpt lat="37.9903740" lon="-5.6480990">
        <ele>590.5</ele>
        <time>2022-05-22T10:27:36Z</time>
      </trkpt>
      <trkpt lat="37.9903780" lon="-5.6481170">
        <ele>590.5</ele>
        <time>2022-05-22T10:27:37Z</time>
      </trkpt>
      <trkpt lat="37.9903810" lon="-5.6481370">
        <ele>590.5</ele>
        <time>2022-05-22T10:27:38Z</time>
      </trkpt>
      <trkpt lat="37.9903860" lon="-5.6481630">
        <ele>590.5</ele>
        <time>2022-05-22T10:27:39Z</time>
      </trkpt>
      <trkpt lat="37.9903890" lon="-5.6481740">
        <ele>590.5</ele>
        <time>2022-05-22T10:27:40Z</time>
      </trkpt>
      <trkpt lat="37.9903910" lon="-5.6481850">
        <ele>590.5</ele>
        <time>2022-05-22T10:27:41Z</time>
      </trkpt>
      <trkpt lat="37.9903960" lon="-5.6482000">
        <ele>590.5</ele>
        <time>2022-05-22T10:27:42Z</time>
      </trkpt>
      <trkpt lat="37.9904010" lon="-5.6482130">
        <ele>590.5</ele>
        <time>2022-05-22T10:27:43Z</time>
      </trkpt>
      <trkpt lat="37.9904060" lon="-5.6482270">
        <ele>590.5</ele>
        <time>2022-05-22T10:27:44Z</time>
      </trkpt>
      <trkpt lat="37.9904100" lon="-5.6482530">
        <ele>590.5</ele>
        <time>2022-05-22T10:27:45Z</time>
      </trkpt>
      <trkpt lat="37.9904120" lon="-5.6482660">
        <ele>590.5</ele>
        <time>2022-05-22T10:27:46Z</time>
      </trkpt>
      <trkpt lat="37.9904140" lon="-5.6482780">
        <ele>590.5</ele>
        <time>2022-05-22T10:27:47Z</time>
      </trkpt>
      <trkpt lat="37.9904160" lon="-5.6482960">
        <ele>590.5</ele>
        <time>2022-05-22T10:27:48Z</time>
      </trkpt>
      <trkpt lat="37.9904180" lon="-5.6483130">
        <ele>590.5</ele>
        <time>2022-05-22T10:27:49Z</time>
      </trkpt>
      <trkpt lat="37.9904200" lon="-5.6483300">
        <ele>590.5</ele>
        <time>2022-05-22T10:27:50Z</time>
      </trkpt>
      <trkpt lat="37.9904220" lon="-5.6483480">
        <ele>590.5</ele>
        <time>2022-05-22T10:27:51Z</time>
      </trkpt>
      <trkpt lat="37.9904200" lon="-5.6483680">
        <ele>590.5</ele>
        <time>2022-05-22T10:27:52Z</time>
      </trkpt>
      <trkpt lat="37.9904190" lon="-5.6483880">
        <ele>590.5</ele>
        <time>2022-05-22T10:27:53Z</time>
      </trkpt>
      <trkpt lat="37.9904210" lon="-5.6484140">
        <ele>590.5</ele>
        <time>2022-05-22T10:27:54Z</time>
      </trkpt>
      <trkpt lat="37.9904230" lon="-5.6484240">
        <ele>590.5</ele>
        <time>2022-05-22T10:27:55Z</time>
      </trkpt>
      <trkpt lat="37.9904250" lon="-5.6484340">
        <ele>590.5</ele>
        <time>2022-05-22T10:27:56Z</time>
      </trkpt>
      <trkpt lat="37.9904280" lon="-5.6484480">
        <ele>590.5</ele>
        <time>2022-05-22T10:27:57Z</time>
      </trkpt>
      <trkpt lat="37.9904300" lon="-5.6484620">
        <ele>590.5</ele>
        <time>2022-05-22T10:27:58Z</time>
      </trkpt>
      <trkpt lat="37.9904330" lon="-5.6484740">
        <ele>590.5</ele>
        <time>2022-05-22T10:27:59Z</time>
      </trkpt>
      <trkpt lat="37.9904360" lon="-5.6484870">
        <ele>590.5</ele>
        <time>2022-05-22T10:28:00Z</time>
      </trkpt>
      <trkpt lat="37.9904390" lon="-5.6485010">
        <ele>590.5</ele>
        <time>2022-05-22T10:28:01Z</time>
      </trkpt>
      <trkpt lat="37.9904420" lon="-5.6485170">
        <ele>590.5</ele>
        <time>2022-05-22T10:28:02Z</time>
      </trkpt>
      <trkpt lat="37.9904430" lon="-5.6485330">
        <ele>590.5</ele>
        <time>2022-05-22T10:28:03Z</time>
      </trkpt>
      <trkpt lat="37.9904450" lon="-5.6485460">
        <ele>590.5</ele>
        <time>2022-05-22T10:28:04Z</time>
      </trkpt>
      <trkpt lat="37.9904530" lon="-5.6485710">
        <ele>590.5</ele>
        <time>2022-05-22T10:28:06Z</time>
      </trkpt>
      <trkpt lat="37.9904590" lon="-5.6485960">
        <ele>590.6</ele>
        <time>2022-05-22T10:28:07Z</time>
      </trkpt>
      <trkpt lat="37.9904610" lon="-5.6486070">
        <ele>590.6</ele>
        <time>2022-05-22T10:28:08Z</time>
      </trkpt>
      <trkpt lat="37.9904640" lon="-5.6486170">
        <ele>590.6</ele>
        <time>2022-05-22T10:28:09Z</time>
      </trkpt>
      <trkpt lat="37.9904650" lon="-5.6486340">
        <ele>590.6</ele>
        <time>2022-05-22T10:28:10Z</time>
      </trkpt>
      <trkpt lat="37.9904630" lon="-5.6486450">
        <ele>590.6</ele>
        <time>2022-05-22T10:28:11Z</time>
      </trkpt>
      <trkpt lat="37.9904600" lon="-5.6486550">
        <ele>590.6</ele>
        <time>2022-05-22T10:28:12Z</time>
      </trkpt>
      <trkpt lat="37.9904650" lon="-5.6486740">
        <ele>590.6</ele>
        <time>2022-05-22T10:28:14Z</time>
      </trkpt>
      <trkpt lat="37.9904710" lon="-5.6486880">
        <ele>590.6</ele>
        <time>2022-05-22T10:28:15Z</time>
      </trkpt>
      <trkpt lat="37.9904810" lon="-5.6487180">
        <ele>590.6</ele>
        <time>2022-05-22T10:28:17Z</time>
      </trkpt>
      <trkpt lat="37.9904830" lon="-5.6487280">
        <ele>590.6</ele>
        <time>2022-05-22T10:28:18Z</time>
      </trkpt>
      <trkpt lat="37.9904860" lon="-5.6487380">
        <ele>590.6</ele>
        <time>2022-05-22T10:28:19Z</time>
      </trkpt>
      <trkpt lat="37.9904890" lon="-5.6487540">
        <ele>590.6</ele>
        <time>2022-05-22T10:28:20Z</time>
      </trkpt>
      <trkpt lat="37.9905070" lon="-5.6487860">
        <ele>590.6</ele>
        <time>2022-05-22T10:28:22Z</time>
      </trkpt>
      <trkpt lat="37.9905180" lon="-5.6488000">
        <ele>590.6</ele>
        <time>2022-05-22T10:28:23Z</time>
      </trkpt>
      <trkpt lat="37.9905260" lon="-5.6488150">
        <ele>590.6</ele>
        <time>2022-05-22T10:28:24Z</time>
      </trkpt>
      <trkpt lat="37.9905330" lon="-5.6488310">
        <ele>590.6</ele>
        <time>2022-05-22T10:28:25Z</time>
      </trkpt>
      <trkpt lat="37.9905390" lon="-5.6488480">
        <ele>590.6</ele>
        <time>2022-05-22T10:28:26Z</time>
      </trkpt>
      <trkpt lat="37.9905510" lon="-5.6488650">
        <ele>590.6</ele>
        <time>2022-05-22T10:28:27Z</time>
      </trkpt>
      <trkpt lat="37.9905640" lon="-5.6488790">
        <ele>590.6</ele>
        <time>2022-05-22T10:28:28Z</time>
      </trkpt>
      <trkpt lat="37.9905730" lon="-5.6488940">
        <ele>590.6</ele>
        <time>2022-05-22T10:28:29Z</time>
      </trkpt>
      <trkpt lat="37.9905800" lon="-5.6489100">
        <ele>590.6</ele>
        <time>2022-05-22T10:28:30Z</time>
      </trkpt>
      <trkpt lat="37.9905860" lon="-5.6489290">
        <ele>590.6</ele>
        <time>2022-05-22T10:28:31Z</time>
      </trkpt>
      <trkpt lat="37.9905910" lon="-5.6489490">
        <ele>590.6</ele>
        <time>2022-05-22T10:28:32Z</time>
      </trkpt>
      <trkpt lat="37.9905930" lon="-5.6489660">
        <ele>590.6</ele>
        <time>2022-05-22T10:28:33Z</time>
      </trkpt>
      <trkpt lat="37.9905930" lon="-5.6489880">
        <ele>590.6</ele>
        <time>2022-05-22T10:28:34Z</time>
      </trkpt>
      <trkpt lat="37.9905940" lon="-5.6490150">
        <ele>590.6</ele>
        <time>2022-05-22T10:28:35Z</time>
      </trkpt>
      <trkpt lat="37.9905950" lon="-5.6490260">
        <ele>590.6</ele>
        <time>2022-05-22T10:28:36Z</time>
      </trkpt>
      <trkpt lat="37.9905950" lon="-5.6490360">
        <ele>590.6</ele>
        <time>2022-05-22T10:28:37Z</time>
      </trkpt>
      <trkpt lat="37.9905980" lon="-5.6490550">
        <ele>590.7</ele>
        <time>2022-05-22T10:28:38Z</time>
      </trkpt>
      <trkpt lat="37.9906020" lon="-5.6490720">
        <ele>590.7</ele>
        <time>2022-05-22T10:28:39Z</time>
      </trkpt>
      <trkpt lat="37.9906060" lon="-5.6490880">
        <ele>590.7</ele>
        <time>2022-05-22T10:28:40Z</time>
      </trkpt>
      <trkpt lat="37.9906100" lon="-5.6491050">
        <ele>590.7</ele>
        <time>2022-05-22T10:28:41Z</time>
      </trkpt>
      <trkpt lat="37.9906130" lon="-5.6491320">
        <ele>590.7</ele>
        <time>2022-05-22T10:28:42Z</time>
      </trkpt>
      <trkpt lat="37.9906140" lon="-5.6491430">
        <ele>590.7</ele>
        <time>2022-05-22T10:28:43Z</time>
      </trkpt>
      <trkpt lat="37.9906150" lon="-5.6491540">
        <ele>590.7</ele>
        <time>2022-05-22T10:28:44Z</time>
      </trkpt>
      <trkpt lat="37.9906200" lon="-5.6491800">
        <ele>590.7</ele>
        <time>2022-05-22T10:28:45Z</time>
      </trkpt>
      <trkpt lat="37.9906210" lon="-5.6491900">
        <ele>590.7</ele>
        <time>2022-05-22T10:28:46Z</time>
      </trkpt>
      <trkpt lat="37.9906230" lon="-5.6492000">
        <ele>590.7</ele>
        <time>2022-05-22T10:28:47Z</time>
      </trkpt>
      <trkpt lat="37.9906260" lon="-5.6492140">
        <ele>590.7</ele>
        <time>2022-05-22T10:28:48Z</time>
      </trkpt>
      <trkpt lat="37.9906300" lon="-5.6492260">
        <ele>590.7</ele>
        <time>2022-05-22T10:28:49Z</time>
      </trkpt>
      <trkpt lat="37.9906330" lon="-5.6492390">
        <ele>590.7</ele>
        <time>2022-05-22T10:28:50Z</time>
      </trkpt>
      <trkpt lat="37.9906390" lon="-5.6492650">
        <ele>590.7</ele>
        <time>2022-05-22T10:28:51Z</time>
      </trkpt>
      <trkpt lat="37.9906410" lon="-5.6492760">
        <ele>590.7</ele>
        <time>2022-05-22T10:28:52Z</time>
      </trkpt>
      <trkpt lat="37.9906430" lon="-5.6492870">
        <ele>590.7</ele>
        <time>2022-05-22T10:28:53Z</time>
      </trkpt>
      <trkpt lat="37.9906480" lon="-5.6493120">
        <ele>590.7</ele>
        <time>2022-05-22T10:28:54Z</time>
      </trkpt>
      <trkpt lat="37.9906510" lon="-5.6493220">
        <ele>590.7</ele>
        <time>2022-05-22T10:28:55Z</time>
      </trkpt>
      <trkpt lat="37.9906540" lon="-5.6493310">
        <ele>590.7</ele>
        <time>2022-05-22T10:28:56Z</time>
      </trkpt>
      <trkpt lat="37.9906560" lon="-5.6493460">
        <ele>590.7</ele>
        <time>2022-05-22T10:28:57Z</time>
      </trkpt>
      <trkpt lat="37.9906610" lon="-5.6493640">
        <ele>590.7</ele>
        <time>2022-05-22T10:28:58Z</time>
      </trkpt>
      <trkpt lat="37.9906690" lon="-5.6493900">
        <ele>590.7</ele>
        <time>2022-05-22T10:28:59Z</time>
      </trkpt>
      <trkpt lat="37.9906720" lon="-5.6494000">
        <ele>590.7</ele>
        <time>2022-05-22T10:29:00Z</time>
      </trkpt>
      <trkpt lat="37.9906760" lon="-5.6494100">
        <ele>590.7</ele>
        <time>2022-05-22T10:29:01Z</time>
      </trkpt>
      <trkpt lat="37.9906820" lon="-5.6494240">
        <ele>590.7</ele>
        <time>2022-05-22T10:29:02Z</time>
      </trkpt>
      <trkpt lat="37.9906880" lon="-5.6494340">
        <ele>590.7</ele>
        <time>2022-05-22T10:29:03Z</time>
      </trkpt>
      <trkpt lat="37.9906920" lon="-5.6494470">
        <ele>590.7</ele>
        <time>2022-05-22T10:29:04Z</time>
      </trkpt>
      <trkpt lat="37.9907000" lon="-5.6494730">
        <ele>590.7</ele>
        <time>2022-05-22T10:29:05Z</time>
      </trkpt>
      <trkpt lat="37.9907030" lon="-5.6494840">
        <ele>590.7</ele>
        <time>2022-05-22T10:29:06Z</time>
      </trkpt>
      <trkpt lat="37.9907070" lon="-5.6494940">
        <ele>590.7</ele>
        <time>2022-05-22T10:29:07Z</time>
      </trkpt>
      <trkpt lat="37.9907150" lon="-5.6495100">
        <ele>590.7</ele>
        <time>2022-05-22T10:29:09Z</time>
      </trkpt>
      <trkpt lat="37.9907240" lon="-5.6495330">
        <ele>590.7</ele>
        <time>2022-05-22T10:29:10Z</time>
      </trkpt>
      <trkpt lat="37.9907270" lon="-5.6495480">
        <ele>590.7</ele>
        <time>2022-05-22T10:29:11Z</time>
      </trkpt>
      <trkpt lat="37.9907280" lon="-5.6495640">
        <ele>590.7</ele>
        <time>2022-05-22T10:29:12Z</time>
      </trkpt>
      <trkpt lat="37.9907290" lon="-5.6495780">
        <ele>590.7</ele>
        <time>2022-05-22T10:29:13Z</time>
      </trkpt>
      <trkpt lat="37.9907330" lon="-5.6496050">
        <ele>590.7</ele>
        <time>2022-05-22T10:29:14Z</time>
      </trkpt>
      <trkpt lat="37.9907340" lon="-5.6496160">
        <ele>590.7</ele>
        <time>2022-05-22T10:29:15Z</time>
      </trkpt>
      <trkpt lat="37.9907350" lon="-5.6496270">
        <ele>590.7</ele>
        <time>2022-05-22T10:29:16Z</time>
      </trkpt>
      <trkpt lat="37.9907380" lon="-5.6496450">
        <ele>590.7</ele>
        <time>2022-05-22T10:29:17Z</time>
      </trkpt>
      <trkpt lat="37.9907410" lon="-5.6496610">
        <ele>590.7</ele>
        <time>2022-05-22T10:29:18Z</time>
      </trkpt>
      <trkpt lat="37.9907480" lon="-5.6496860">
        <ele>590.7</ele>
        <time>2022-05-22T10:29:19Z</time>
      </trkpt>
      <trkpt lat="37.9907510" lon="-5.6496960">
        <ele>590.7</ele>
        <time>2022-05-22T10:29:20Z</time>
      </trkpt>
      <trkpt lat="37.9907540" lon="-5.6497060">
        <ele>590.7</ele>
        <time>2022-05-22T10:29:21Z</time>
      </trkpt>
      <trkpt lat="37.9907580" lon="-5.6497210">
        <ele>590.7</ele>
        <time>2022-05-22T10:29:22Z</time>
      </trkpt>
      <trkpt lat="37.9907620" lon="-5.6497360">
        <ele>590.7</ele>
        <time>2022-05-22T10:29:23Z</time>
      </trkpt>
      <trkpt lat="37.9907640" lon="-5.6497500">
        <ele>590.7</ele>
        <time>2022-05-22T10:29:25Z</time>
      </trkpt>
      <trkpt lat="37.9907710" lon="-5.6497770">
        <ele>590.8</ele>
        <time>2022-05-22T10:29:26Z</time>
      </trkpt>
      <trkpt lat="37.9907760" lon="-5.6497930">
        <ele>590.8</ele>
        <time>2022-05-22T10:29:27Z</time>
      </trkpt>
      <trkpt lat="37.9907820" lon="-5.6498180">
        <ele>590.8</ele>
        <time>2022-05-22T10:29:28Z</time>
      </trkpt>
      <trkpt lat="37.9907840" lon="-5.6498280">
        <ele>590.8</ele>
        <time>2022-05-22T10:29:29Z</time>
      </trkpt>
      <trkpt lat="37.9907860" lon="-5.6498370">
        <ele>590.8</ele>
        <time>2022-05-22T10:29:30Z</time>
      </trkpt>
      <trkpt lat="37.9907930" lon="-5.6498630">
        <ele>590.8</ele>
        <time>2022-05-22T10:29:31Z</time>
      </trkpt>
      <trkpt lat="37.9907960" lon="-5.6498730">
        <ele>590.8</ele>
        <time>2022-05-22T10:29:32Z</time>
      </trkpt>
      <trkpt lat="37.9907990" lon="-5.6498830">
        <ele>590.8</ele>
        <time>2022-05-22T10:29:33Z</time>
      </trkpt>
      <trkpt lat="37.9908050" lon="-5.6499090">
        <ele>590.8</ele>
        <time>2022-05-22T10:29:34Z</time>
      </trkpt>
      <trkpt lat="37.9908070" lon="-5.6499210">
        <ele>590.8</ele>
        <time>2022-05-22T10:29:35Z</time>
      </trkpt>
      <trkpt lat="37.9908090" lon="-5.6499320">
        <ele>590.8</ele>
        <time>2022-05-22T10:29:36Z</time>
      </trkpt>
      <trkpt lat="37.9908150" lon="-5.6499570">
        <ele>590.9</ele>
        <time>2022-05-22T10:29:37Z</time>
      </trkpt>
      <trkpt lat="37.9908170" lon="-5.6499670">
        <ele>590.9</ele>
        <time>2022-05-22T10:29:38Z</time>
      </trkpt>
      <trkpt lat="37.9908190" lon="-5.6499770">
        <ele>590.9</ele>
        <time>2022-05-22T10:29:39Z</time>
      </trkpt>
      <trkpt lat="37.9908210" lon="-5.6499950">
        <ele>590.9</ele>
        <time>2022-05-22T10:29:40Z</time>
      </trkpt>
      <trkpt lat="37.9908230" lon="-5.6500120">
        <ele>590.9</ele>
        <time>2022-05-22T10:29:41Z</time>
      </trkpt>
      <trkpt lat="37.9908270" lon="-5.6500290">
        <ele>590.9</ele>
        <time>2022-05-22T10:29:42Z</time>
      </trkpt>
      <trkpt lat="37.9908280" lon="-5.6500460">
        <ele>591.0</ele>
        <time>2022-05-22T10:29:43Z</time>
      </trkpt>
      <trkpt lat="37.9908350" lon="-5.6500640">
        <ele>591.0</ele>
        <time>2022-05-22T10:29:44Z</time>
      </trkpt>
      <trkpt lat="37.9908410" lon="-5.6500700">
        <ele>591.0</ele>
        <time>2022-05-22T10:29:45Z</time>
      </trkpt>
      <trkpt lat="37.9908460" lon="-5.6500770">
        <ele>591.0</ele>
        <time>2022-05-22T10:29:46Z</time>
      </trkpt>
      <trkpt lat="37.9908520" lon="-5.6500830">
        <ele>591.0</ele>
        <time>2022-05-22T10:29:47Z</time>
      </trkpt>
      <trkpt lat="37.9908650" lon="-5.6501110">
        <ele>591.0</ele>
        <time>2022-05-22T10:29:49Z</time>
      </trkpt>
      <trkpt lat="37.9908680" lon="-5.6501400">
        <ele>591.0</ele>
        <time>2022-05-22T10:29:51Z</time>
      </trkpt>
      <trkpt lat="37.9908630" lon="-5.6501580">
        <ele>591.0</ele>
        <time>2022-05-22T10:29:52Z</time>
      </trkpt>
      <trkpt lat="37.9908580" lon="-5.6501720">
        <ele>591.0</ele>
        <time>2022-05-22T10:29:53Z</time>
      </trkpt>
      <trkpt lat="37.9908500" lon="-5.6501780">
        <ele>591.1</ele>
        <time>2022-05-22T10:29:54Z</time>
      </trkpt>
      <trkpt lat="37.9908440" lon="-5.6501860">
        <ele>591.1</ele>
        <time>2022-05-22T10:29:55Z</time>
      </trkpt>
      <trkpt lat="37.9908440" lon="-5.6501930">
        <ele>591.1</ele>
        <time>2022-05-22T10:29:56Z</time>
      </trkpt>
      <trkpt lat="37.9908440" lon="-5.6502010">
        <ele>591.1</ele>
        <time>2022-05-22T10:29:57Z</time>
      </trkpt>
      <trkpt lat="37.9908440" lon="-5.6502080">
        <ele>591.1</ele>
        <time>2022-05-22T10:29:58Z</time>
      </trkpt>
      <trkpt lat="37.9908440" lon="-5.6502160">
        <ele>591.1</ele>
        <time>2022-05-22T10:29:59Z</time>
      </trkpt>
      <trkpt lat="37.9908440" lon="-5.6502240">
        <ele>591.1</ele>
        <time>2022-05-22T10:30:00Z</time>
      </trkpt>
      <trkpt lat="37.9908500" lon="-5.6502400">
        <ele>591.1</ele>
        <time>2022-05-22T10:30:01Z</time>
      </trkpt>
      <trkpt lat="37.9908680" lon="-5.6502780">
        <ele>591.1</ele>
        <time>2022-05-22T10:30:03Z</time>
      </trkpt>
      <trkpt lat="37.9908770" lon="-5.6502920">
        <ele>591.1</ele>
        <time>2022-05-22T10:30:04Z</time>
      </trkpt>
      <trkpt lat="37.9908840" lon="-5.6503090">
        <ele>591.1</ele>
        <time>2022-05-22T10:30:05Z</time>
      </trkpt>
      <trkpt lat="37.9908930" lon="-5.6503330">
        <ele>591.1</ele>
        <time>2022-05-22T10:30:06Z</time>
      </trkpt>
      <trkpt lat="37.9908990" lon="-5.6503570">
        <ele>591.1</ele>
        <time>2022-05-22T10:30:08Z</time>
      </trkpt>
      <trkpt lat="37.9909060" lon="-5.6503840">
        <ele>591.1</ele>
        <time>2022-05-22T10:30:09Z</time>
      </trkpt>
      <trkpt lat="37.9909090" lon="-5.6503940">
        <ele>591.1</ele>
        <time>2022-05-22T10:30:10Z</time>
      </trkpt>
      <trkpt lat="37.9909120" lon="-5.6504050">
        <ele>591.1</ele>
        <time>2022-05-22T10:30:11Z</time>
      </trkpt>
      <trkpt lat="37.9909170" lon="-5.6504210">
        <ele>591.1</ele>
        <time>2022-05-22T10:30:12Z</time>
      </trkpt>
      <trkpt lat="37.9909210" lon="-5.6504410">
        <ele>591.1</ele>
        <time>2022-05-22T10:30:13Z</time>
      </trkpt>
      <trkpt lat="37.9909270" lon="-5.6504660">
        <ele>591.1</ele>
        <time>2022-05-22T10:30:14Z</time>
      </trkpt>
      <trkpt lat="37.9909300" lon="-5.6504760">
        <ele>591.1</ele>
        <time>2022-05-22T10:30:15Z</time>
      </trkpt>
      <trkpt lat="37.9909330" lon="-5.6504860">
        <ele>591.1</ele>
        <time>2022-05-22T10:30:16Z</time>
      </trkpt>
      <trkpt lat="37.9909390" lon="-5.6505010">
        <ele>591.1</ele>
        <time>2022-05-22T10:30:17Z</time>
      </trkpt>
      <trkpt lat="37.9909440" lon="-5.6505130">
        <ele>591.1</ele>
        <time>2022-05-22T10:30:18Z</time>
      </trkpt>
      <trkpt lat="37.9909470" lon="-5.6505270">
        <ele>591.1</ele>
        <time>2022-05-22T10:30:19Z</time>
      </trkpt>
      <trkpt lat="37.9909460" lon="-5.6505420">
        <ele>591.1</ele>
        <time>2022-05-22T10:30:20Z</time>
      </trkpt>
      <trkpt lat="37.9909480" lon="-5.6505560">
        <ele>591.1</ele>
        <time>2022-05-22T10:30:21Z</time>
      </trkpt>
      <trkpt lat="37.9909510" lon="-5.6505700">
        <ele>591.1</ele>
        <time>2022-05-22T10:30:22Z</time>
      </trkpt>
      <trkpt lat="37.9909540" lon="-5.6505900">
        <ele>591.1</ele>
        <time>2022-05-22T10:30:23Z</time>
      </trkpt>
      <trkpt lat="37.9909560" lon="-5.6506090">
        <ele>591.1</ele>
        <time>2022-05-22T10:30:24Z</time>
      </trkpt>
      <trkpt lat="37.9909630" lon="-5.6506570">
        <ele>591.1</ele>
        <time>2022-05-22T10:30:26Z</time>
      </trkpt>
      <trkpt lat="37.9909690" lon="-5.6506930">
        <ele>591.1</ele>
        <time>2022-05-22T10:30:27Z</time>
      </trkpt>
      <trkpt lat="37.9909700" lon="-5.6507020">
        <ele>591.1</ele>
        <time>2022-05-22T10:30:28Z</time>
      </trkpt>
      <trkpt lat="37.9909700" lon="-5.6507240">
        <ele>591.1</ele>
        <time>2022-05-22T10:30:29Z</time>
      </trkpt>
      <trkpt lat="37.9909730" lon="-5.6507340">
        <ele>591.1</ele>
        <time>2022-05-22T10:30:30Z</time>
      </trkpt>
      <trkpt lat="37.9909760" lon="-5.6507440">
        <ele>591.1</ele>
        <time>2022-05-22T10:30:32Z</time>
      </trkpt>
      <trkpt lat="37.9909790" lon="-5.6507540">
        <ele>591.1</ele>
        <time>2022-05-22T10:30:34Z</time>
      </trkpt>
      <trkpt lat="37.9909820" lon="-5.6507640">
        <ele>591.1</ele>
        <time>2022-05-22T10:30:35Z</time>
      </trkpt>
      <trkpt lat="37.9909840" lon="-5.6507740">
        <ele>591.1</ele>
        <time>2022-05-22T10:30:36Z</time>
      </trkpt>
      <trkpt lat="37.9909870" lon="-5.6507850">
        <ele>591.1</ele>
        <time>2022-05-22T10:30:37Z</time>
      </trkpt>
      <trkpt lat="37.9909960" lon="-5.6508210">
        <ele>591.1</ele>
        <time>2022-05-22T10:30:39Z</time>
      </trkpt>
      <trkpt lat="37.9910000" lon="-5.6508350">
        <ele>591.1</ele>
        <time>2022-05-22T10:30:40Z</time>
      </trkpt>
      <trkpt lat="37.9910040" lon="-5.6508540">
        <ele>591.1</ele>
        <time>2022-05-22T10:30:41Z</time>
      </trkpt>
      <trkpt lat="37.9910080" lon="-5.6508730">
        <ele>591.1</ele>
        <time>2022-05-22T10:30:42Z</time>
      </trkpt>
      <trkpt lat="37.9910130" lon="-5.6508960">
        <ele>591.1</ele>
        <time>2022-05-22T10:30:43Z</time>
      </trkpt>
      <trkpt lat="37.9910150" lon="-5.6509120">
        <ele>591.1</ele>
        <time>2022-05-22T10:30:44Z</time>
      </trkpt>
      <trkpt lat="37.9910170" lon="-5.6509290">
        <ele>591.1</ele>
        <time>2022-05-22T10:30:45Z</time>
      </trkpt>
      <trkpt lat="37.9910190" lon="-5.6509490">
        <ele>591.1</ele>
        <time>2022-05-22T10:30:46Z</time>
      </trkpt>
      <trkpt lat="37.9910210" lon="-5.6509670">
        <ele>591.1</ele>
        <time>2022-05-22T10:30:47Z</time>
      </trkpt>
      <trkpt lat="37.9910220" lon="-5.6509930">
        <ele>591.1</ele>
        <time>2022-05-22T10:30:48Z</time>
      </trkpt>
      <trkpt lat="37.9910230" lon="-5.6510220">
        <ele>591.1</ele>
        <time>2022-05-22T10:30:49Z</time>
      </trkpt>
      <trkpt lat="37.9910230" lon="-5.6510330">
        <ele>591.1</ele>
        <time>2022-05-22T10:30:50Z</time>
      </trkpt>
      <trkpt lat="37.9910230" lon="-5.6510440">
        <ele>591.1</ele>
        <time>2022-05-22T10:30:51Z</time>
      </trkpt>
      <trkpt lat="37.9910240" lon="-5.6510610">
        <ele>591.1</ele>
        <time>2022-05-22T10:30:52Z</time>
      </trkpt>
      <trkpt lat="37.9910260" lon="-5.6510790">
        <ele>591.1</ele>
        <time>2022-05-22T10:30:53Z</time>
      </trkpt>
      <trkpt lat="37.9910290" lon="-5.6510980">
        <ele>591.1</ele>
        <time>2022-05-22T10:30:54Z</time>
      </trkpt>
      <trkpt lat="37.9910330" lon="-5.6511150">
        <ele>591.1</ele>
        <time>2022-05-22T10:30:55Z</time>
      </trkpt>
      <trkpt lat="37.9910360" lon="-5.6511290">
        <ele>591.1</ele>
        <time>2022-05-22T10:30:56Z</time>
      </trkpt>
      <trkpt lat="37.9910450" lon="-5.6511610">
        <ele>591.1</ele>
        <time>2022-05-22T10:30:58Z</time>
      </trkpt>
      <trkpt lat="37.9910480" lon="-5.6511780">
        <ele>591.1</ele>
        <time>2022-05-22T10:30:59Z</time>
      </trkpt>
      <trkpt lat="37.9910540" lon="-5.6511990">
        <ele>591.0</ele>
        <time>2022-05-22T10:31:00Z</time>
      </trkpt>
      <trkpt lat="37.9910590" lon="-5.6512240">
        <ele>591.0</ele>
        <time>2022-05-22T10:31:01Z</time>
      </trkpt>
      <trkpt lat="37.9910610" lon="-5.6512350">
        <ele>591.0</ele>
        <time>2022-05-22T10:31:02Z</time>
      </trkpt>
      <trkpt lat="37.9910640" lon="-5.6512470">
        <ele>591.0</ele>
        <time>2022-05-22T10:31:03Z</time>
      </trkpt>
      <trkpt lat="37.9910680" lon="-5.6512660">
        <ele>591.0</ele>
        <time>2022-05-22T10:31:04Z</time>
      </trkpt>
      <trkpt lat="37.9910730" lon="-5.6512830">
        <ele>591.0</ele>
        <time>2022-05-22T10:31:05Z</time>
      </trkpt>
      <trkpt lat="37.9910830" lon="-5.6513150">
        <ele>591.0</ele>
        <time>2022-05-22T10:31:06Z</time>
      </trkpt>
      <trkpt lat="37.9911000" lon="-5.6513440">
        <ele>591.0</ele>
        <time>2022-05-22T10:31:08Z</time>
      </trkpt>
      <trkpt lat="37.9911050" lon="-5.6513540">
        <ele>590.9</ele>
        <time>2022-05-22T10:31:09Z</time>
      </trkpt>
      <trkpt lat="37.9911180" lon="-5.6513870">
        <ele>590.9</ele>
        <time>2022-05-22T10:31:10Z</time>
      </trkpt>
      <trkpt lat="37.9911240" lon="-5.6514010">
        <ele>590.9</ele>
        <time>2022-05-22T10:31:11Z</time>
      </trkpt>
      <trkpt lat="37.9911320" lon="-5.6514270">
        <ele>590.9</ele>
        <time>2022-05-22T10:31:12Z</time>
      </trkpt>
      <trkpt lat="37.9911350" lon="-5.6514430">
        <ele>590.9</ele>
        <time>2022-05-22T10:31:13Z</time>
      </trkpt>
      <trkpt lat="37.9911380" lon="-5.6514590">
        <ele>590.9</ele>
        <time>2022-05-22T10:31:14Z</time>
      </trkpt>
      <trkpt lat="37.9911410" lon="-5.6514770">
        <ele>590.9</ele>
        <time>2022-05-22T10:31:15Z</time>
      </trkpt>
      <trkpt lat="37.9911440" lon="-5.6514980">
        <ele>590.8</ele>
        <time>2022-05-22T10:31:16Z</time>
      </trkpt>
      <trkpt lat="37.9911470" lon="-5.6515160">
        <ele>590.8</ele>
        <time>2022-05-22T10:31:17Z</time>
      </trkpt>
      <trkpt lat="37.9911500" lon="-5.6515340">
        <ele>590.8</ele>
        <time>2022-05-22T10:31:18Z</time>
      </trkpt>
      <trkpt lat="37.9911550" lon="-5.6515510">
        <ele>590.8</ele>
        <time>2022-05-22T10:31:19Z</time>
      </trkpt>
      <trkpt lat="37.9911600" lon="-5.6515670">
        <ele>590.8</ele>
        <time>2022-05-22T10:31:20Z</time>
      </trkpt>
      <trkpt lat="37.9911700" lon="-5.6515980">
        <ele>590.7</ele>
        <time>2022-05-22T10:31:22Z</time>
      </trkpt>
      <trkpt lat="37.9911760" lon="-5.6516170">
        <ele>590.7</ele>
        <time>2022-05-22T10:31:23Z</time>
      </trkpt>
      <trkpt lat="37.9911800" lon="-5.6516340">
        <ele>590.7</ele>
        <time>2022-05-22T10:31:24Z</time>
      </trkpt>
      <trkpt lat="37.9911890" lon="-5.6516720">
        <ele>590.7</ele>
        <time>2022-05-22T10:31:26Z</time>
      </trkpt>
      <trkpt lat="37.9911910" lon="-5.6516800">
        <ele>590.6</ele>
        <time>2022-05-22T10:31:27Z</time>
      </trkpt>
      <trkpt lat="37.9911950" lon="-5.6516980">
        <ele>590.6</ele>
        <time>2022-05-22T10:31:28Z</time>
      </trkpt>
      <trkpt lat="37.9911970" lon="-5.6517140">
        <ele>590.6</ele>
        <time>2022-05-22T10:31:29Z</time>
      </trkpt>
      <trkpt lat="37.9912050" lon="-5.6517500">
        <ele>590.6</ele>
        <time>2022-05-22T10:31:31Z</time>
      </trkpt>
      <trkpt lat="37.9912080" lon="-5.6517580">
        <ele>590.6</ele>
        <time>2022-05-22T10:31:32Z</time>
      </trkpt>
      <trkpt lat="37.9912120" lon="-5.6517790">
        <ele>590.5</ele>
        <time>2022-05-22T10:31:33Z</time>
      </trkpt>
      <trkpt lat="37.9912150" lon="-5.6517960">
        <ele>590.5</ele>
        <time>2022-05-22T10:31:34Z</time>
      </trkpt>
      <trkpt lat="37.9912170" lon="-5.6518120">
        <ele>590.5</ele>
        <time>2022-05-22T10:31:35Z</time>
      </trkpt>
      <trkpt lat="37.9912250" lon="-5.6518440">
        <ele>590.5</ele>
        <time>2022-05-22T10:31:37Z</time>
      </trkpt>
      <trkpt lat="37.9912350" lon="-5.6518820">
        <ele>590.4</ele>
        <time>2022-05-22T10:31:39Z</time>
      </trkpt>
      <trkpt lat="37.9912340" lon="-5.6518940">
        <ele>590.4</ele>
        <time>2022-05-22T10:31:40Z</time>
      </trkpt>
      <trkpt lat="37.9912320" lon="-5.6519080">
        <ele>590.4</ele>
        <time>2022-05-22T10:31:41Z</time>
      </trkpt>
      <trkpt lat="37.9912260" lon="-5.6519190">
        <ele>590.4</ele>
        <time>2022-05-22T10:31:42Z</time>
      </trkpt>
      <trkpt lat="37.9912180" lon="-5.6519260">
        <ele>590.4</ele>
        <time>2022-05-22T10:31:43Z</time>
      </trkpt>
      <trkpt lat="37.9912230" lon="-5.6519500">
        <ele>590.3</ele>
        <time>2022-05-22T10:31:44Z</time>
      </trkpt>
      <trkpt lat="37.9912250" lon="-5.6519610">
        <ele>590.3</ele>
        <time>2022-05-22T10:31:45Z</time>
      </trkpt>
      <trkpt lat="37.9912280" lon="-5.6519710">
        <ele>590.3</ele>
        <time>2022-05-22T10:31:46Z</time>
      </trkpt>
      <trkpt lat="37.9912330" lon="-5.6519880">
        <ele>590.3</ele>
        <time>2022-05-22T10:31:47Z</time>
      </trkpt>
      <trkpt lat="37.9912390" lon="-5.6520030">
        <ele>590.2</ele>
        <time>2022-05-22T10:31:48Z</time>
      </trkpt>
      <trkpt lat="37.9912440" lon="-5.6520200">
        <ele>590.2</ele>
        <time>2022-05-22T10:31:49Z</time>
      </trkpt>
      <trkpt lat="37.9912530" lon="-5.6520360">
        <ele>590.2</ele>
        <time>2022-05-22T10:31:50Z</time>
      </trkpt>
      <trkpt lat="37.9912600" lon="-5.6520520">
        <ele>590.1</ele>
        <time>2022-05-22T10:31:51Z</time>
      </trkpt>
      <trkpt lat="37.9912680" lon="-5.6520690">
        <ele>590.1</ele>
        <time>2022-05-22T10:31:52Z</time>
      </trkpt>
      <trkpt lat="37.9912760" lon="-5.6520870">
        <ele>590.1</ele>
        <time>2022-05-22T10:31:53Z</time>
      </trkpt>
      <trkpt lat="37.9912840" lon="-5.6521050">
        <ele>590.0</ele>
        <time>2022-05-22T10:31:54Z</time>
      </trkpt>
      <trkpt lat="37.9912970" lon="-5.6521350">
        <ele>590.0</ele>
        <time>2022-05-22T10:31:55Z</time>
      </trkpt>
      <trkpt lat="37.9913020" lon="-5.6521460">
        <ele>590.0</ele>
        <time>2022-05-22T10:31:56Z</time>
      </trkpt>
      <trkpt lat="37.9913100" lon="-5.6521630">
        <ele>589.9</ele>
        <time>2022-05-22T10:31:57Z</time>
      </trkpt>
      <trkpt lat="37.9913260" lon="-5.6521960">
        <ele>589.8</ele>
        <time>2022-05-22T10:31:59Z</time>
      </trkpt>
      <trkpt lat="37.9913340" lon="-5.6522150">
        <ele>589.8</ele>
        <time>2022-05-22T10:32:00Z</time>
      </trkpt>
      <trkpt lat="37.9913400" lon="-5.6522310">
        <ele>589.8</ele>
        <time>2022-05-22T10:32:01Z</time>
      </trkpt>
      <trkpt lat="37.9913500" lon="-5.6522550">
        <ele>589.7</ele>
        <time>2022-05-22T10:32:02Z</time>
      </trkpt>
      <trkpt lat="37.9913540" lon="-5.6522650">
        <ele>589.7</ele>
        <time>2022-05-22T10:32:03Z</time>
      </trkpt>
      <trkpt lat="37.9913580" lon="-5.6522750">
        <ele>589.6</ele>
        <time>2022-05-22T10:32:04Z</time>
      </trkpt>
      <trkpt lat="37.9913650" lon="-5.6522880">
        <ele>589.6</ele>
        <time>2022-05-22T10:32:05Z</time>
      </trkpt>
      <trkpt lat="37.9913700" lon="-5.6523010">
        <ele>589.6</ele>
        <time>2022-05-22T10:32:06Z</time>
      </trkpt>
      <trkpt lat="37.9913760" lon="-5.6523090">
        <ele>589.6</ele>
        <time>2022-05-22T10:32:07Z</time>
      </trkpt>
      <trkpt lat="37.9913810" lon="-5.6523190">
        <ele>589.5</ele>
        <time>2022-05-22T10:32:08Z</time>
      </trkpt>
      <trkpt lat="37.9913860" lon="-5.6523320">
        <ele>589.5</ele>
        <time>2022-05-22T10:32:09Z</time>
      </trkpt>
      <trkpt lat="37.9913900" lon="-5.6523410">
        <ele>589.5</ele>
        <time>2022-05-22T10:32:10Z</time>
      </trkpt>
      <trkpt lat="37.9913930" lon="-5.6523540">
        <ele>589.5</ele>
        <time>2022-05-22T10:32:11Z</time>
      </trkpt>
      <trkpt lat="37.9913990" lon="-5.6523770">
        <ele>589.4</ele>
        <time>2022-05-22T10:32:12Z</time>
      </trkpt>
      <trkpt lat="37.9914080" lon="-5.6524000">
        <ele>589.4</ele>
        <time>2022-05-22T10:32:14Z</time>
      </trkpt>
      <trkpt lat="37.9914120" lon="-5.6524090">
        <ele>589.3</ele>
        <time>2022-05-22T10:32:15Z</time>
      </trkpt>
      <trkpt lat="37.9914150" lon="-5.6524180">
        <ele>589.3</ele>
        <time>2022-05-22T10:32:16Z</time>
      </trkpt>
      <trkpt lat="37.9914210" lon="-5.6524320">
        <ele>589.3</ele>
        <time>2022-05-22T10:32:17Z</time>
      </trkpt>
      <trkpt lat="37.9914280" lon="-5.6524490">
        <ele>589.3</ele>
        <time>2022-05-22T10:32:18Z</time>
      </trkpt>
      <trkpt lat="37.9914330" lon="-5.6524580">
        <ele>589.2</ele>
        <time>2022-05-22T10:32:19Z</time>
      </trkpt>
      <trkpt lat="37.9914400" lon="-5.6524710">
        <ele>589.2</ele>
        <time>2022-05-22T10:32:20Z</time>
      </trkpt>
      <trkpt lat="37.9914480" lon="-5.6524850">
        <ele>589.2</ele>
        <time>2022-05-22T10:32:21Z</time>
      </trkpt>
      <trkpt lat="37.9914570" lon="-5.6525020">
        <ele>589.1</ele>
        <time>2022-05-22T10:32:22Z</time>
      </trkpt>
      <trkpt lat="37.9914670" lon="-5.6525170">
        <ele>589.1</ele>
        <time>2022-05-22T10:32:23Z</time>
      </trkpt>
      <trkpt lat="37.9914770" lon="-5.6525350">
        <ele>589.1</ele>
        <time>2022-05-22T10:32:24Z</time>
      </trkpt>
      <trkpt lat="37.9914830" lon="-5.6525460">
        <ele>589.1</ele>
        <time>2022-05-22T10:32:25Z</time>
      </trkpt>
      <trkpt lat="37.9914900" lon="-5.6525600">
        <ele>589.0</ele>
        <time>2022-05-22T10:32:26Z</time>
      </trkpt>
      <trkpt lat="37.9914980" lon="-5.6525750">
        <ele>589.0</ele>
        <time>2022-05-22T10:32:27Z</time>
      </trkpt>
      <trkpt lat="37.9915050" lon="-5.6525890">
        <ele>589.0</ele>
        <time>2022-05-22T10:32:28Z</time>
      </trkpt>
      <trkpt lat="37.9915140" lon="-5.6526110">
        <ele>588.9</ele>
        <time>2022-05-22T10:32:29Z</time>
      </trkpt>
      <trkpt lat="37.9915200" lon="-5.6526260">
        <ele>588.9</ele>
        <time>2022-05-22T10:32:30Z</time>
      </trkpt>
      <trkpt lat="37.9915260" lon="-5.6526420">
        <ele>588.9</ele>
        <time>2022-05-22T10:32:31Z</time>
      </trkpt>
      <trkpt lat="37.9915320" lon="-5.6526610">
        <ele>588.8</ele>
        <time>2022-05-22T10:32:32Z</time>
      </trkpt>
      <trkpt lat="37.9915390" lon="-5.6526780">
        <ele>588.8</ele>
        <time>2022-05-22T10:32:33Z</time>
      </trkpt>
      <trkpt lat="37.9915450" lon="-5.6526960">
        <ele>588.8</ele>
        <time>2022-05-22T10:32:34Z</time>
      </trkpt>
      <trkpt lat="37.9915510" lon="-5.6527140">
        <ele>588.7</ele>
        <time>2022-05-22T10:32:35Z</time>
      </trkpt>
      <trkpt lat="37.9915580" lon="-5.6527310">
        <ele>588.7</ele>
        <time>2022-05-22T10:32:36Z</time>
      </trkpt>
      <trkpt lat="37.9915650" lon="-5.6527480">
        <ele>588.7</ele>
        <time>2022-05-22T10:32:37Z</time>
      </trkpt>
      <trkpt lat="37.9915710" lon="-5.6527660">
        <ele>588.7</ele>
        <time>2022-05-22T10:32:38Z</time>
      </trkpt>
      <trkpt lat="37.9915760" lon="-5.6527820">
        <ele>588.6</ele>
        <time>2022-05-22T10:32:39Z</time>
      </trkpt>
      <trkpt lat="37.9915830" lon="-5.6528050">
        <ele>588.6</ele>
        <time>2022-05-22T10:32:40Z</time>
      </trkpt>
      <trkpt lat="37.9915880" lon="-5.6528220">
        <ele>588.6</ele>
        <time>2022-05-22T10:32:41Z</time>
      </trkpt>
      <trkpt lat="37.9915920" lon="-5.6528370">
        <ele>588.6</ele>
        <time>2022-05-22T10:32:42Z</time>
      </trkpt>
      <trkpt lat="37.9915960" lon="-5.6528540">
        <ele>588.5</ele>
        <time>2022-05-22T10:32:43Z</time>
      </trkpt>
      <trkpt lat="37.9916000" lon="-5.6528720">
        <ele>588.5</ele>
        <time>2022-05-22T10:32:44Z</time>
      </trkpt>
      <trkpt lat="37.9916030" lon="-5.6528910">
        <ele>588.5</ele>
        <time>2022-05-22T10:32:45Z</time>
      </trkpt>
      <trkpt lat="37.9916080" lon="-5.6529160">
        <ele>588.4</ele>
        <time>2022-05-22T10:32:47Z</time>
      </trkpt>
      <trkpt lat="37.9916100" lon="-5.6529350">
        <ele>588.4</ele>
        <time>2022-05-22T10:32:48Z</time>
      </trkpt>
      <trkpt lat="37.9916120" lon="-5.6529500">
        <ele>588.4</ele>
        <time>2022-05-22T10:32:49Z</time>
      </trkpt>
      <trkpt lat="37.9916140" lon="-5.6529650">
        <ele>588.4</ele>
        <time>2022-05-22T10:32:50Z</time>
      </trkpt>
      <trkpt lat="37.9916180" lon="-5.6529870">
        <ele>588.4</ele>
        <time>2022-05-22T10:32:52Z</time>
      </trkpt>
      <trkpt lat="37.9916250" lon="-5.6530130">
        <ele>588.3</ele>
        <time>2022-05-22T10:32:53Z</time>
      </trkpt>
      <trkpt lat="37.9916290" lon="-5.6530260">
        <ele>588.3</ele>
        <time>2022-05-22T10:32:54Z</time>
      </trkpt>
      <trkpt lat="37.9916330" lon="-5.6530390">
        <ele>588.3</ele>
        <time>2022-05-22T10:32:55Z</time>
      </trkpt>
      <trkpt lat="37.9916410" lon="-5.6530630">
        <ele>588.2</ele>
        <time>2022-05-22T10:32:56Z</time>
      </trkpt>
      <trkpt lat="37.9916450" lon="-5.6530720">
        <ele>588.2</ele>
        <time>2022-05-22T10:32:57Z</time>
      </trkpt>
      <trkpt lat="37.9916490" lon="-5.6530810">
        <ele>588.2</ele>
        <time>2022-05-22T10:32:58Z</time>
      </trkpt>
      <trkpt lat="37.9916590" lon="-5.6530930">
        <ele>588.2</ele>
        <time>2022-05-22T10:32:59Z</time>
      </trkpt>
      <trkpt lat="37.9916680" lon="-5.6531050">
        <ele>588.2</ele>
        <time>2022-05-22T10:33:00Z</time>
      </trkpt>
      <trkpt lat="37.9916870" lon="-5.6531170">
        <ele>588.1</ele>
        <time>2022-05-22T10:33:02Z</time>
      </trkpt>
      <trkpt lat="37.9917080" lon="-5.6531410">
        <ele>588.1</ele>
        <time>2022-05-22T10:33:03Z</time>
      </trkpt>
      <trkpt lat="37.9917180" lon="-5.6531570">
        <ele>588.1</ele>
        <time>2022-05-22T10:33:04Z</time>
      </trkpt>
      <trkpt lat="37.9917260" lon="-5.6531740">
        <ele>588.0</ele>
        <time>2022-05-22T10:33:05Z</time>
      </trkpt>
      <trkpt lat="37.9917320" lon="-5.6531880">
        <ele>588.0</ele>
        <time>2022-05-22T10:33:06Z</time>
      </trkpt>
      <trkpt lat="37.9917460" lon="-5.6532210">
        <ele>588.0</ele>
        <time>2022-05-22T10:33:08Z</time>
      </trkpt>
      <trkpt lat="37.9917550" lon="-5.6532450">
        <ele>587.9</ele>
        <time>2022-05-22T10:33:09Z</time>
      </trkpt>
      <trkpt lat="37.9917590" lon="-5.6532550">
        <ele>587.9</ele>
        <time>2022-05-22T10:33:10Z</time>
      </trkpt>
      <trkpt lat="37.9917630" lon="-5.6532660">
        <ele>587.9</ele>
        <time>2022-05-22T10:33:11Z</time>
      </trkpt>
      <trkpt lat="37.9917680" lon="-5.6532800">
        <ele>587.9</ele>
        <time>2022-05-22T10:33:12Z</time>
      </trkpt>
      <trkpt lat="37.9917760" lon="-5.6533030">
        <ele>587.8</ele>
        <time>2022-05-22T10:33:13Z</time>
      </trkpt>
      <trkpt lat="37.9917820" lon="-5.6533180">
        <ele>587.8</ele>
        <time>2022-05-22T10:33:14Z</time>
      </trkpt>
      <trkpt lat="37.9917890" lon="-5.6533320">
        <ele>587.8</ele>
        <time>2022-05-22T10:33:15Z</time>
      </trkpt>
      <trkpt lat="37.9917980" lon="-5.6533530">
        <ele>587.7</ele>
        <time>2022-05-22T10:33:17Z</time>
      </trkpt>
      <trkpt lat="37.9918050" lon="-5.6533670">
        <ele>587.7</ele>
        <time>2022-05-22T10:33:18Z</time>
      </trkpt>
      <trkpt lat="37.9918160" lon="-5.6533920">
        <ele>587.7</ele>
        <time>2022-05-22T10:33:19Z</time>
      </trkpt>
      <trkpt lat="37.9918210" lon="-5.6534050">
        <ele>587.6</ele>
        <time>2022-05-22T10:33:20Z</time>
      </trkpt>
      <trkpt lat="37.9918250" lon="-5.6534140">
        <ele>587.6</ele>
        <time>2022-05-22T10:33:21Z</time>
      </trkpt>
      <trkpt lat="37.9918300" lon="-5.6534260">
        <ele>587.6</ele>
        <time>2022-05-22T10:33:22Z</time>
      </trkpt>
      <trkpt lat="37.9918340" lon="-5.6534380">
        <ele>587.6</ele>
        <time>2022-05-22T10:33:23Z</time>
      </trkpt>
      <trkpt lat="37.9918420" lon="-5.6534570">
        <ele>587.6</ele>
        <time>2022-05-22T10:33:24Z</time>
      </trkpt>
      <trkpt lat="37.9918480" lon="-5.6534700">
        <ele>587.5</ele>
        <time>2022-05-22T10:33:25Z</time>
      </trkpt>
      <trkpt lat="37.9918520" lon="-5.6534800">
        <ele>587.5</ele>
        <time>2022-05-22T10:33:26Z</time>
      </trkpt>
      <trkpt lat="37.9918590" lon="-5.6534940">
        <ele>587.5</ele>
        <time>2022-05-22T10:33:27Z</time>
      </trkpt>
      <trkpt lat="37.9918640" lon="-5.6535090">
        <ele>587.5</ele>
        <time>2022-05-22T10:33:28Z</time>
      </trkpt>
      <trkpt lat="37.9918680" lon="-5.6535250">
        <ele>587.4</ele>
        <time>2022-05-22T10:33:29Z</time>
      </trkpt>
      <trkpt lat="37.9918770" lon="-5.6535540">
        <ele>587.4</ele>
        <time>2022-05-22T10:33:31Z</time>
      </trkpt>
      <trkpt lat="37.9918820" lon="-5.6535790">
        <ele>587.4</ele>
        <time>2022-05-22T10:33:32Z</time>
      </trkpt>
      <trkpt lat="37.9918830" lon="-5.6535890">
        <ele>587.4</ele>
        <time>2022-05-22T10:33:33Z</time>
      </trkpt>
      <trkpt lat="37.9918850" lon="-5.6536000">
        <ele>587.3</ele>
        <time>2022-05-22T10:33:34Z</time>
      </trkpt>
      <trkpt lat="37.9918890" lon="-5.6536170">
        <ele>587.3</ele>
        <time>2022-05-22T10:33:35Z</time>
      </trkpt>
      <trkpt lat="37.9918990" lon="-5.6536450">
        <ele>587.3</ele>
        <time>2022-05-22T10:33:37Z</time>
      </trkpt>
      <trkpt lat="37.9919090" lon="-5.6536690">
        <ele>587.2</ele>
        <time>2022-05-22T10:33:38Z</time>
      </trkpt>
      <trkpt lat="37.9919130" lon="-5.6536790">
        <ele>587.2</ele>
        <time>2022-05-22T10:33:39Z</time>
      </trkpt>
      <trkpt lat="37.9919170" lon="-5.6536890">
        <ele>587.2</ele>
        <time>2022-05-22T10:33:40Z</time>
      </trkpt>
      <trkpt lat="37.9919290" lon="-5.6537090">
        <ele>587.2</ele>
        <time>2022-05-22T10:33:41Z</time>
      </trkpt>
      <trkpt lat="37.9919350" lon="-5.6537170">
        <ele>587.1</ele>
        <time>2022-05-22T10:33:42Z</time>
      </trkpt>
      <trkpt lat="37.9919400" lon="-5.6537250">
        <ele>587.1</ele>
        <time>2022-05-22T10:33:43Z</time>
      </trkpt>
      <trkpt lat="37.9919480" lon="-5.6537320">
        <ele>587.1</ele>
        <time>2022-05-22T10:33:44Z</time>
      </trkpt>
      <trkpt lat="37.9919550" lon="-5.6537350">
        <ele>587.1</ele>
        <time>2022-05-22T10:33:45Z</time>
      </trkpt>
      <trkpt lat="37.9919600" lon="-5.6537380">
        <ele>587.1</ele>
        <time>2022-05-22T10:33:46Z</time>
      </trkpt>
      <trkpt lat="37.9919670" lon="-5.6537420">
        <ele>587.1</ele>
        <time>2022-05-22T10:33:47Z</time>
      </trkpt>
      <trkpt lat="37.9919760" lon="-5.6537470">
        <ele>587.0</ele>
        <time>2022-05-22T10:33:48Z</time>
      </trkpt>
      <trkpt lat="37.9919810" lon="-5.6537520">
        <ele>587.0</ele>
        <time>2022-05-22T10:33:49Z</time>
      </trkpt>
      <trkpt lat="37.9919840" lon="-5.6537560">
        <ele>587.0</ele>
        <time>2022-05-22T10:33:50Z</time>
      </trkpt>
      <trkpt lat="37.9919880" lon="-5.6537630">
        <ele>587.0</ele>
        <time>2022-05-22T10:33:51Z</time>
      </trkpt>
      <trkpt lat="37.9919910" lon="-5.6537680">
        <ele>587.0</ele>
        <time>2022-05-22T10:33:52Z</time>
      </trkpt>
      <trkpt lat="37.9919970" lon="-5.6537860">
        <ele>587.0</ele>
        <time>2022-05-22T10:33:54Z</time>
      </trkpt>
      <trkpt lat="37.9920000" lon="-5.6537990">
        <ele>587.0</ele>
        <time>2022-05-22T10:33:55Z</time>
      </trkpt>
      <trkpt lat="37.9920010" lon="-5.6538270">
        <ele>586.9</ele>
        <time>2022-05-22T10:33:56Z</time>
      </trkpt>
      <trkpt lat="37.9920020" lon="-5.6538420">
        <ele>586.9</ele>
        <time>2022-05-22T10:33:58Z</time>
      </trkpt>
      <trkpt lat="37.9920020" lon="-5.6538580">
        <ele>586.9</ele>
        <time>2022-05-22T10:33:59Z</time>
      </trkpt>
      <trkpt lat="37.9920030" lon="-5.6538730">
        <ele>586.8</ele>
        <time>2022-05-22T10:34:00Z</time>
      </trkpt>
      <trkpt lat="37.9920040" lon="-5.6538890">
        <ele>586.8</ele>
        <time>2022-05-22T10:34:01Z</time>
      </trkpt>
      <trkpt lat="37.9920020" lon="-5.6539130">
        <ele>586.8</ele>
        <time>2022-05-22T10:34:03Z</time>
      </trkpt>
      <trkpt lat="37.9920010" lon="-5.6539320">
        <ele>586.8</ele>
        <time>2022-05-22T10:34:04Z</time>
      </trkpt>
      <trkpt lat="37.9919990" lon="-5.6539510">
        <ele>586.7</ele>
        <time>2022-05-22T10:34:05Z</time>
      </trkpt>
      <trkpt lat="37.9919980" lon="-5.6539790">
        <ele>586.7</ele>
        <time>2022-05-22T10:34:07Z</time>
      </trkpt>
      <trkpt lat="37.9920010" lon="-5.6540090">
        <ele>586.6</ele>
        <time>2022-05-22T10:34:08Z</time>
      </trkpt>
      <trkpt lat="37.9920020" lon="-5.6540210">
        <ele>586.6</ele>
        <time>2022-05-22T10:34:09Z</time>
      </trkpt>
      <trkpt lat="37.9920040" lon="-5.6540330">
        <ele>586.6</ele>
        <time>2022-05-22T10:34:10Z</time>
      </trkpt>
      <trkpt lat="37.9920120" lon="-5.6540700">
        <ele>586.5</ele>
        <time>2022-05-22T10:34:11Z</time>
      </trkpt>
      <trkpt lat="37.9920160" lon="-5.6540860">
        <ele>586.5</ele>
        <time>2022-05-22T10:34:13Z</time>
      </trkpt>
      <trkpt lat="37.9920200" lon="-5.6541010">
        <ele>586.5</ele>
        <time>2022-05-22T10:34:14Z</time>
      </trkpt>
      <trkpt lat="37.9920240" lon="-5.6541170">
        <ele>586.4</ele>
        <time>2022-05-22T10:34:15Z</time>
      </trkpt>
      <trkpt lat="37.9920280" lon="-5.6541330">
        <ele>586.4</ele>
        <time>2022-05-22T10:34:16Z</time>
      </trkpt>
      <trkpt lat="37.9920320" lon="-5.6541590">
        <ele>586.4</ele>
        <time>2022-05-22T10:34:17Z</time>
      </trkpt>
      <trkpt lat="37.9920330" lon="-5.6541690">
        <ele>586.3</ele>
        <time>2022-05-22T10:34:18Z</time>
      </trkpt>
      <trkpt lat="37.9920340" lon="-5.6541790">
        <ele>586.3</ele>
        <time>2022-05-22T10:34:19Z</time>
      </trkpt>
      <trkpt lat="37.9920480" lon="-5.6542130">
        <ele>586.3</ele>
        <time>2022-05-22T10:34:20Z</time>
      </trkpt>
      <trkpt lat="37.9920580" lon="-5.6542290">
        <ele>586.2</ele>
        <time>2022-05-22T10:34:21Z</time>
      </trkpt>
      <trkpt lat="37.9920710" lon="-5.6542620">
        <ele>586.2</ele>
        <time>2022-05-22T10:34:23Z</time>
      </trkpt>
      <trkpt lat="37.9920760" lon="-5.6542810">
        <ele>586.1</ele>
        <time>2022-05-22T10:34:24Z</time>
      </trkpt>
      <trkpt lat="37.9920800" lon="-5.6543000">
        <ele>586.1</ele>
        <time>2022-05-22T10:34:25Z</time>
      </trkpt>
      <trkpt lat="37.9920820" lon="-5.6543240">
        <ele>586.1</ele>
        <time>2022-05-22T10:34:26Z</time>
      </trkpt>
      <trkpt lat="37.9920830" lon="-5.6543480">
        <ele>586.0</ele>
        <time>2022-05-22T10:34:28Z</time>
      </trkpt>
      <trkpt lat="37.9920930" lon="-5.6543840">
        <ele>586.0</ele>
        <time>2022-05-22T10:34:30Z</time>
      </trkpt>
      <trkpt lat="37.9920950" lon="-5.6543920">
        <ele>586.0</ele>
        <time>2022-05-22T10:34:31Z</time>
      </trkpt>
      <trkpt lat="37.9921010" lon="-5.6544190">
        <ele>585.9</ele>
        <time>2022-05-22T10:34:32Z</time>
      </trkpt>
      <trkpt lat="37.9921040" lon="-5.6544300">
        <ele>585.9</ele>
        <time>2022-05-22T10:34:33Z</time>
      </trkpt>
      <trkpt lat="37.9921060" lon="-5.6544420">
        <ele>585.9</ele>
        <time>2022-05-22T10:34:34Z</time>
      </trkpt>
      <trkpt lat="37.9921170" lon="-5.6544770">
        <ele>585.9</ele>
        <time>2022-05-22T10:34:36Z</time>
      </trkpt>
      <trkpt lat="37.9921200" lon="-5.6544950">
        <ele>585.9</ele>
        <time>2022-05-22T10:34:37Z</time>
      </trkpt>
      <trkpt lat="37.9921230" lon="-5.6545110">
        <ele>585.8</ele>
        <time>2022-05-22T10:34:38Z</time>
      </trkpt>
      <trkpt lat="37.9921260" lon="-5.6545300">
        <ele>585.8</ele>
        <time>2022-05-22T10:34:39Z</time>
      </trkpt>
      <trkpt lat="37.9921280" lon="-5.6545470">
        <ele>585.8</ele>
        <time>2022-05-22T10:34:40Z</time>
      </trkpt>
      <trkpt lat="37.9921310" lon="-5.6545670">
        <ele>585.8</ele>
        <time>2022-05-22T10:34:41Z</time>
      </trkpt>
      <trkpt lat="37.9921330" lon="-5.6545820">
        <ele>585.8</ele>
        <time>2022-05-22T10:34:42Z</time>
      </trkpt>
      <trkpt lat="37.9921350" lon="-5.6545980">
        <ele>585.8</ele>
        <time>2022-05-22T10:34:43Z</time>
      </trkpt>
      <trkpt lat="37.9921380" lon="-5.6546150">
        <ele>585.8</ele>
        <time>2022-05-22T10:34:44Z</time>
      </trkpt>
      <trkpt lat="37.9921430" lon="-5.6546350">
        <ele>585.8</ele>
        <time>2022-05-22T10:34:46Z</time>
      </trkpt>
      <trkpt lat="37.9921480" lon="-5.6546610">
        <ele>585.8</ele>
        <time>2022-05-22T10:34:47Z</time>
      </trkpt>
      <trkpt lat="37.9921510" lon="-5.6546720">
        <ele>585.8</ele>
        <time>2022-05-22T10:34:48Z</time>
      </trkpt>
      <trkpt lat="37.9921530" lon="-5.6546820">
        <ele>585.8</ele>
        <time>2022-05-22T10:34:49Z</time>
      </trkpt>
      <trkpt lat="37.9921650" lon="-5.6546970">
        <ele>585.8</ele>
        <time>2022-05-22T10:34:50Z</time>
      </trkpt>
      <trkpt lat="37.9921720" lon="-5.6547070">
        <ele>585.8</ele>
        <time>2022-05-22T10:34:51Z</time>
      </trkpt>
      <trkpt lat="37.9921830" lon="-5.6547290">
        <ele>585.8</ele>
        <time>2022-05-22T10:34:52Z</time>
      </trkpt>
      <trkpt lat="37.9921870" lon="-5.6547390">
        <ele>585.7</ele>
        <time>2022-05-22T10:34:53Z</time>
      </trkpt>
      <trkpt lat="37.9921910" lon="-5.6547480">
        <ele>585.7</ele>
        <time>2022-05-22T10:34:54Z</time>
      </trkpt>
      <trkpt lat="37.9921970" lon="-5.6547630">
        <ele>585.7</ele>
        <time>2022-05-22T10:34:55Z</time>
      </trkpt>
      <trkpt lat="37.9922040" lon="-5.6547860">
        <ele>585.6</ele>
        <time>2022-05-22T10:34:56Z</time>
      </trkpt>
      <trkpt lat="37.9922050" lon="-5.6547990">
        <ele>585.6</ele>
        <time>2022-05-22T10:34:57Z</time>
      </trkpt>
      <trkpt lat="37.9922090" lon="-5.6548090">
        <ele>585.6</ele>
        <time>2022-05-22T10:34:58Z</time>
      </trkpt>
      <trkpt lat="37.9922130" lon="-5.6548190">
        <ele>585.6</ele>
        <time>2022-05-22T10:34:59Z</time>
      </trkpt>
      <trkpt lat="37.9922160" lon="-5.6548290">
        <ele>585.5</ele>
        <time>2022-05-22T10:35:00Z</time>
      </trkpt>
      <trkpt lat="37.9922170" lon="-5.6548420">
        <ele>585.5</ele>
        <time>2022-05-22T10:35:01Z</time>
      </trkpt>
      <trkpt lat="37.9922190" lon="-5.6548540">
        <ele>585.5</ele>
        <time>2022-05-22T10:35:02Z</time>
      </trkpt>
      <trkpt lat="37.9922230" lon="-5.6548900">
        <ele>585.4</ele>
        <time>2022-05-22T10:35:04Z</time>
      </trkpt>
      <trkpt lat="37.9922240" lon="-5.6549000">
        <ele>585.4</ele>
        <time>2022-05-22T10:35:05Z</time>
      </trkpt>
      <trkpt lat="37.9922220" lon="-5.6549090">
        <ele>585.4</ele>
        <time>2022-05-22T10:35:06Z</time>
      </trkpt>
      <trkpt lat="37.9922230" lon="-5.6549200">
        <ele>585.4</ele>
        <time>2022-05-22T10:35:07Z</time>
      </trkpt>
      <trkpt lat="37.9922200" lon="-5.6549360">
        <ele>585.4</ele>
        <time>2022-05-22T10:35:08Z</time>
      </trkpt>
      <trkpt lat="37.9922270" lon="-5.6549520">
        <ele>585.3</ele>
        <time>2022-05-22T10:35:10Z</time>
      </trkpt>
      <trkpt lat="37.9922280" lon="-5.6549690">
        <ele>585.3</ele>
        <time>2022-05-22T10:35:11Z</time>
      </trkpt>
      <trkpt lat="37.9922240" lon="-5.6549900">
        <ele>585.3</ele>
        <time>2022-05-22T10:35:12Z</time>
      </trkpt>
      <trkpt lat="37.9922220" lon="-5.6550090">
        <ele>585.3</ele>
        <time>2022-05-22T10:35:13Z</time>
      </trkpt>
      <trkpt lat="37.9922210" lon="-5.6550360">
        <ele>585.2</ele>
        <time>2022-05-22T10:35:14Z</time>
      </trkpt>
      <trkpt lat="37.9922220" lon="-5.6550490">
        <ele>585.2</ele>
        <time>2022-05-22T10:35:15Z</time>
      </trkpt>
      <trkpt lat="37.9922230" lon="-5.6550610">
        <ele>585.2</ele>
        <time>2022-05-22T10:35:16Z</time>
      </trkpt>
      <trkpt lat="37.9922240" lon="-5.6550960">
        <ele>585.1</ele>
        <time>2022-05-22T10:35:18Z</time>
      </trkpt>
      <trkpt lat="37.9922280" lon="-5.6551200">
        <ele>585.1</ele>
        <time>2022-05-22T10:35:19Z</time>
      </trkpt>
      <trkpt lat="37.9922310" lon="-5.6551460">
        <ele>585.1</ele>
        <time>2022-05-22T10:35:21Z</time>
      </trkpt>
      <trkpt lat="37.9922280" lon="-5.6551660">
        <ele>585.1</ele>
        <time>2022-05-22T10:35:22Z</time>
      </trkpt>
      <trkpt lat="37.9922320" lon="-5.6551810">
        <ele>585.0</ele>
        <time>2022-05-22T10:35:23Z</time>
      </trkpt>
      <trkpt lat="37.9922390" lon="-5.6551970">
        <ele>585.0</ele>
        <time>2022-05-22T10:35:24Z</time>
      </trkpt>
      <trkpt lat="37.9922440" lon="-5.6552140">
        <ele>585.0</ele>
        <time>2022-05-22T10:35:25Z</time>
      </trkpt>
      <trkpt lat="37.9922490" lon="-5.6552350">
        <ele>585.0</ele>
        <time>2022-05-22T10:35:26Z</time>
      </trkpt>
      <trkpt lat="37.9922540" lon="-5.6552490">
        <ele>585.0</ele>
        <time>2022-05-22T10:35:27Z</time>
      </trkpt>
      <trkpt lat="37.9922620" lon="-5.6552650">
        <ele>585.0</ele>
        <time>2022-05-22T10:35:28Z</time>
      </trkpt>
      <trkpt lat="37.9922710" lon="-5.6552840">
        <ele>585.0</ele>
        <time>2022-05-22T10:35:29Z</time>
      </trkpt>
      <trkpt lat="37.9922770" lon="-5.6553010">
        <ele>584.9</ele>
        <time>2022-05-22T10:35:30Z</time>
      </trkpt>
      <trkpt lat="37.9922830" lon="-5.6553220">
        <ele>584.9</ele>
        <time>2022-05-22T10:35:31Z</time>
      </trkpt>
      <trkpt lat="37.9922860" lon="-5.6553440">
        <ele>584.9</ele>
        <time>2022-05-22T10:35:32Z</time>
      </trkpt>
      <trkpt lat="37.9922890" lon="-5.6553620">
        <ele>584.9</ele>
        <time>2022-05-22T10:35:33Z</time>
      </trkpt>
      <trkpt lat="37.9922870" lon="-5.6553790">
        <ele>584.9</ele>
        <time>2022-05-22T10:35:34Z</time>
      </trkpt>
      <trkpt lat="37.9922790" lon="-5.6554010">
        <ele>584.9</ele>
        <time>2022-05-22T10:35:35Z</time>
      </trkpt>
      <trkpt lat="37.9922780" lon="-5.6554280">
        <ele>584.9</ele>
        <time>2022-05-22T10:35:36Z</time>
      </trkpt>
      <trkpt lat="37.9922810" lon="-5.6554390">
        <ele>584.9</ele>
        <time>2022-05-22T10:35:37Z</time>
      </trkpt>
      <trkpt lat="37.9922830" lon="-5.6554510">
        <ele>584.9</ele>
        <time>2022-05-22T10:35:38Z</time>
      </trkpt>
      <trkpt lat="37.9922910" lon="-5.6554690">
        <ele>584.9</ele>
        <time>2022-05-22T10:35:39Z</time>
      </trkpt>
      <trkpt lat="37.9922970" lon="-5.6554850">
        <ele>584.9</ele>
        <time>2022-05-22T10:35:40Z</time>
      </trkpt>
      <trkpt lat="37.9923030" lon="-5.6555020">
        <ele>584.9</ele>
        <time>2022-05-22T10:35:41Z</time>
      </trkpt>
      <trkpt lat="37.9923080" lon="-5.6555200">
        <ele>584.9</ele>
        <time>2022-05-22T10:35:42Z</time>
      </trkpt>
      <trkpt lat="37.9923130" lon="-5.6555380">
        <ele>584.9</ele>
        <time>2022-05-22T10:35:44Z</time>
      </trkpt>
      <trkpt lat="37.9923240" lon="-5.6555600">
        <ele>584.9</ele>
        <time>2022-05-22T10:35:45Z</time>
      </trkpt>
      <trkpt lat="37.9923280" lon="-5.6555760">
        <ele>584.9</ele>
        <time>2022-05-22T10:35:46Z</time>
      </trkpt>
      <trkpt lat="37.9923380" lon="-5.6555900">
        <ele>584.9</ele>
        <time>2022-05-22T10:35:47Z</time>
      </trkpt>
      <trkpt lat="37.9923520" lon="-5.6556260">
        <ele>584.9</ele>
        <time>2022-05-22T10:35:49Z</time>
      </trkpt>
      <trkpt lat="37.9923560" lon="-5.6556350">
        <ele>584.9</ele>
        <time>2022-05-22T10:35:50Z</time>
      </trkpt>
      <trkpt lat="37.9923620" lon="-5.6556510">
        <ele>584.9</ele>
        <time>2022-05-22T10:35:51Z</time>
      </trkpt>
      <trkpt lat="37.9923700" lon="-5.6556740">
        <ele>585.0</ele>
        <time>2022-05-22T10:35:52Z</time>
      </trkpt>
      <trkpt lat="37.9923790" lon="-5.6557030">
        <ele>585.0</ele>
        <time>2022-05-22T10:35:54Z</time>
      </trkpt>
      <trkpt lat="37.9923830" lon="-5.6557150">
        <ele>585.0</ele>
        <time>2022-05-22T10:35:55Z</time>
      </trkpt>
      <trkpt lat="37.9923860" lon="-5.6557270">
        <ele>585.0</ele>
        <time>2022-05-22T10:35:56Z</time>
      </trkpt>
      <trkpt lat="37.9923890" lon="-5.6557430">
        <ele>585.0</ele>
        <time>2022-05-22T10:35:57Z</time>
      </trkpt>
      <trkpt lat="37.9923930" lon="-5.6557630">
        <ele>585.0</ele>
        <time>2022-05-22T10:35:58Z</time>
      </trkpt>
      <trkpt lat="37.9923960" lon="-5.6557780">
        <ele>585.0</ele>
        <time>2022-05-22T10:35:59Z</time>
      </trkpt>
      <trkpt lat="37.9923990" lon="-5.6557910">
        <ele>585.0</ele>
        <time>2022-05-22T10:36:00Z</time>
      </trkpt>
      <trkpt lat="37.9924010" lon="-5.6558050">
        <ele>585.0</ele>
        <time>2022-05-22T10:36:01Z</time>
      </trkpt>
      <trkpt lat="37.9924060" lon="-5.6558320">
        <ele>585.0</ele>
        <time>2022-05-22T10:36:02Z</time>
      </trkpt>
      <trkpt lat="37.9924090" lon="-5.6558420">
        <ele>585.0</ele>
        <time>2022-05-22T10:36:03Z</time>
      </trkpt>
      <trkpt lat="37.9924110" lon="-5.6558520">
        <ele>585.0</ele>
        <time>2022-05-22T10:36:04Z</time>
      </trkpt>
      <trkpt lat="37.9924130" lon="-5.6558620">
        <ele>585.1</ele>
        <time>2022-05-22T10:36:05Z</time>
      </trkpt>
      <trkpt lat="37.9924160" lon="-5.6558750">
        <ele>585.1</ele>
        <time>2022-05-22T10:36:06Z</time>
      </trkpt>
      <trkpt lat="37.9924190" lon="-5.6558890">
        <ele>585.1</ele>
        <time>2022-05-22T10:36:07Z</time>
      </trkpt>
      <trkpt lat="37.9924230" lon="-5.6559030">
        <ele>585.1</ele>
        <time>2022-05-22T10:36:08Z</time>
      </trkpt>
      <trkpt lat="37.9924290" lon="-5.6559240">
        <ele>585.1</ele>
        <time>2022-05-22T10:36:10Z</time>
      </trkpt>
      <trkpt lat="37.9924350" lon="-5.6559480">
        <ele>585.1</ele>
        <time>2022-05-22T10:36:11Z</time>
      </trkpt>
      <trkpt lat="37.9924380" lon="-5.6559630">
        <ele>585.1</ele>
        <time>2022-05-22T10:36:12Z</time>
      </trkpt>
      <trkpt lat="37.9924430" lon="-5.6559890">
        <ele>585.1</ele>
        <time>2022-05-22T10:36:13Z</time>
      </trkpt>
      <trkpt lat="37.9924450" lon="-5.6560010">
        <ele>585.1</ele>
        <time>2022-05-22T10:36:14Z</time>
      </trkpt>
      <trkpt lat="37.9924460" lon="-5.6560140">
        <ele>585.1</ele>
        <time>2022-05-22T10:36:15Z</time>
      </trkpt>
      <trkpt lat="37.9924490" lon="-5.6560270">
        <ele>585.1</ele>
        <time>2022-05-22T10:36:16Z</time>
      </trkpt>
      <trkpt lat="37.9924540" lon="-5.6560410">
        <ele>585.1</ele>
        <time>2022-05-22T10:36:17Z</time>
      </trkpt>
      <trkpt lat="37.9924590" lon="-5.6560540">
        <ele>585.2</ele>
        <time>2022-05-22T10:36:18Z</time>
      </trkpt>
      <trkpt lat="37.9924640" lon="-5.6560700">
        <ele>585.2</ele>
        <time>2022-05-22T10:36:19Z</time>
      </trkpt>
      <trkpt lat="37.9924670" lon="-5.6560830">
        <ele>585.2</ele>
        <time>2022-05-22T10:36:20Z</time>
      </trkpt>
      <trkpt lat="37.9924690" lon="-5.6560980">
        <ele>585.2</ele>
        <time>2022-05-22T10:36:21Z</time>
      </trkpt>
      <trkpt lat="37.9924700" lon="-5.6561250">
        <ele>585.2</ele>
        <time>2022-05-22T10:36:22Z</time>
      </trkpt>
      <trkpt lat="37.9924710" lon="-5.6561360">
        <ele>585.2</ele>
        <time>2022-05-22T10:36:23Z</time>
      </trkpt>
      <trkpt lat="37.9924720" lon="-5.6561480">
        <ele>585.2</ele>
        <time>2022-05-22T10:36:24Z</time>
      </trkpt>
      <trkpt lat="37.9924750" lon="-5.6561630">
        <ele>585.2</ele>
        <time>2022-05-22T10:36:25Z</time>
      </trkpt>
      <trkpt lat="37.9924790" lon="-5.6561810">
        <ele>585.2</ele>
        <time>2022-05-22T10:36:26Z</time>
      </trkpt>
      <trkpt lat="37.9924920" lon="-5.6562210">
        <ele>585.1</ele>
        <time>2022-05-22T10:36:28Z</time>
      </trkpt>
      <trkpt lat="37.9924990" lon="-5.6562410">
        <ele>585.1</ele>
        <time>2022-05-22T10:36:29Z</time>
      </trkpt>
      <trkpt lat="37.9925060" lon="-5.6562570">
        <ele>585.1</ele>
        <time>2022-05-22T10:36:30Z</time>
      </trkpt>
      <trkpt lat="37.9925130" lon="-5.6562780">
        <ele>585.1</ele>
        <time>2022-05-22T10:36:31Z</time>
      </trkpt>
      <trkpt lat="37.9925250" lon="-5.6563180">
        <ele>585.1</ele>
        <time>2022-05-22T10:36:33Z</time>
      </trkpt>
      <trkpt lat="37.9925300" lon="-5.6563370">
        <ele>585.1</ele>
        <time>2022-05-22T10:36:34Z</time>
      </trkpt>
      <trkpt lat="37.9925360" lon="-5.6563560">
        <ele>585.1</ele>
        <time>2022-05-22T10:36:35Z</time>
      </trkpt>
      <trkpt lat="37.9925490" lon="-5.6563960">
        <ele>585.0</ele>
        <time>2022-05-22T10:36:37Z</time>
      </trkpt>
      <trkpt lat="37.9925530" lon="-5.6564080">
        <ele>585.0</ele>
        <time>2022-05-22T10:36:38Z</time>
      </trkpt>
      <trkpt lat="37.9925610" lon="-5.6564330">
        <ele>585.0</ele>
        <time>2022-05-22T10:36:39Z</time>
      </trkpt>
      <trkpt lat="37.9925630" lon="-5.6564430">
        <ele>585.0</ele>
        <time>2022-05-22T10:36:40Z</time>
      </trkpt>
      <trkpt lat="37.9925660" lon="-5.6564530">
        <ele>585.0</ele>
        <time>2022-05-22T10:36:41Z</time>
      </trkpt>
      <trkpt lat="37.9925760" lon="-5.6564910">
        <ele>585.0</ele>
        <time>2022-05-22T10:36:43Z</time>
      </trkpt>
      <trkpt lat="37.9925800" lon="-5.6565030">
        <ele>585.0</ele>
        <time>2022-05-22T10:36:44Z</time>
      </trkpt>
      <trkpt lat="37.9925840" lon="-5.6565130">
        <ele>585.0</ele>
        <time>2022-05-22T10:36:45Z</time>
      </trkpt>
      <trkpt lat="37.9925910" lon="-5.6565250">
        <ele>585.0</ele>
        <time>2022-05-22T10:36:46Z</time>
      </trkpt>
      <trkpt lat="37.9925990" lon="-5.6565360">
        <ele>585.0</ele>
        <time>2022-05-22T10:36:47Z</time>
      </trkpt>
      <trkpt lat="37.9926090" lon="-5.6565590">
        <ele>585.0</ele>
        <time>2022-05-22T10:36:48Z</time>
      </trkpt>
      <trkpt lat="37.9926130" lon="-5.6565700">
        <ele>585.0</ele>
        <time>2022-05-22T10:36:49Z</time>
      </trkpt>
      <trkpt lat="37.9926160" lon="-5.6565810">
        <ele>585.0</ele>
        <time>2022-05-22T10:36:50Z</time>
      </trkpt>
      <trkpt lat="37.9926220" lon="-5.6565980">
        <ele>584.9</ele>
        <time>2022-05-22T10:36:51Z</time>
      </trkpt>
      <trkpt lat="37.9926300" lon="-5.6566170">
        <ele>584.9</ele>
        <time>2022-05-22T10:36:53Z</time>
      </trkpt>
      <trkpt lat="37.9926350" lon="-5.6566290">
        <ele>584.9</ele>
        <time>2022-05-22T10:36:54Z</time>
      </trkpt>
      <trkpt lat="37.9926400" lon="-5.6566540">
        <ele>584.9</ele>
        <time>2022-05-22T10:36:55Z</time>
      </trkpt>
      <trkpt lat="37.9926470" lon="-5.6566800">
        <ele>584.9</ele>
        <time>2022-05-22T10:36:56Z</time>
      </trkpt>
      <trkpt lat="37.9926500" lon="-5.6566880">
        <ele>584.9</ele>
        <time>2022-05-22T10:36:57Z</time>
      </trkpt>
      <trkpt lat="37.9926520" lon="-5.6566970">
        <ele>584.9</ele>
        <time>2022-05-22T10:36:58Z</time>
      </trkpt>
      <trkpt lat="37.9926610" lon="-5.6567230">
        <ele>584.9</ele>
        <time>2022-05-22T10:36:59Z</time>
      </trkpt>
      <trkpt lat="37.9926640" lon="-5.6567320">
        <ele>584.9</ele>
        <time>2022-05-22T10:37:00Z</time>
      </trkpt>
      <trkpt lat="37.9926670" lon="-5.6567420">
        <ele>584.9</ele>
        <time>2022-05-22T10:37:01Z</time>
      </trkpt>
      <trkpt lat="37.9926720" lon="-5.6567590">
        <ele>584.9</ele>
        <time>2022-05-22T10:37:03Z</time>
      </trkpt>
      <trkpt lat="37.9926800" lon="-5.6567790">
        <ele>584.9</ele>
        <time>2022-05-22T10:37:04Z</time>
      </trkpt>
      <trkpt lat="37.9926910" lon="-5.6568020">
        <ele>584.9</ele>
        <time>2022-05-22T10:37:05Z</time>
      </trkpt>
      <trkpt lat="37.9926960" lon="-5.6568110">
        <ele>584.9</ele>
        <time>2022-05-22T10:37:06Z</time>
      </trkpt>
      <trkpt lat="37.9927000" lon="-5.6568200">
        <ele>584.9</ele>
        <time>2022-05-22T10:37:07Z</time>
      </trkpt>
      <trkpt lat="37.9927070" lon="-5.6568300">
        <ele>584.9</ele>
        <time>2022-05-22T10:37:08Z</time>
      </trkpt>
      <trkpt lat="37.9927120" lon="-5.6568380">
        <ele>584.9</ele>
        <time>2022-05-22T10:37:09Z</time>
      </trkpt>
      <trkpt lat="37.9927170" lon="-5.6568490">
        <ele>584.9</ele>
        <time>2022-05-22T10:37:10Z</time>
      </trkpt>
      <trkpt lat="37.9927310" lon="-5.6568750">
        <ele>584.9</ele>
        <time>2022-05-22T10:37:11Z</time>
      </trkpt>
      <trkpt lat="37.9927390" lon="-5.6568880">
        <ele>584.9</ele>
        <time>2022-05-22T10:37:13Z</time>
      </trkpt>
      <trkpt lat="37.9927480" lon="-5.6569020">
        <ele>584.9</ele>
        <time>2022-05-22T10:37:14Z</time>
      </trkpt>
      <trkpt lat="37.9927560" lon="-5.6569150">
        <ele>584.9</ele>
        <time>2022-05-22T10:37:15Z</time>
      </trkpt>
      <trkpt lat="37.9927640" lon="-5.6569280">
        <ele>584.9</ele>
        <time>2022-05-22T10:37:16Z</time>
      </trkpt>
      <trkpt lat="37.9927840" lon="-5.6569540">
        <ele>585.0</ele>
        <time>2022-05-22T10:37:17Z</time>
      </trkpt>
      <trkpt lat="37.9927910" lon="-5.6569640">
        <ele>585.0</ele>
        <time>2022-05-22T10:37:18Z</time>
      </trkpt>
      <trkpt lat="37.9928090" lon="-5.6569910">
        <ele>585.0</ele>
        <time>2022-05-22T10:37:19Z</time>
      </trkpt>
      <trkpt lat="37.9928160" lon="-5.6570000">
        <ele>585.0</ele>
        <time>2022-05-22T10:37:20Z</time>
      </trkpt>
      <trkpt lat="37.9928340" lon="-5.6570280">
        <ele>585.0</ele>
        <time>2022-05-22T10:37:21Z</time>
      </trkpt>
      <trkpt lat="37.9928400" lon="-5.6570380">
        <ele>585.0</ele>
        <time>2022-05-22T10:37:22Z</time>
      </trkpt>
      <trkpt lat="37.9928500" lon="-5.6570570">
        <ele>585.0</ele>
        <time>2022-05-22T10:37:23Z</time>
      </trkpt>
      <trkpt lat="37.9928590" lon="-5.6570740">
        <ele>585.0</ele>
        <time>2022-05-22T10:37:24Z</time>
      </trkpt>
      <trkpt lat="37.9928710" lon="-5.6570970">
        <ele>585.0</ele>
        <time>2022-05-22T10:37:25Z</time>
      </trkpt>
      <trkpt lat="37.9928750" lon="-5.6571050">
        <ele>585.0</ele>
        <time>2022-05-22T10:37:26Z</time>
      </trkpt>
      <trkpt lat="37.9928790" lon="-5.6571140">
        <ele>585.0</ele>
        <time>2022-05-22T10:37:27Z</time>
      </trkpt>
      <trkpt lat="37.9928850" lon="-5.6571260">
        <ele>585.0</ele>
        <time>2022-05-22T10:37:28Z</time>
      </trkpt>
      <trkpt lat="37.9928890" lon="-5.6571350">
        <ele>585.0</ele>
        <time>2022-05-22T10:37:29Z</time>
      </trkpt>
      <trkpt lat="37.9928920" lon="-5.6571440">
        <ele>585.0</ele>
        <time>2022-05-22T10:37:30Z</time>
      </trkpt>
      <trkpt lat="37.9928960" lon="-5.6571550">
        <ele>585.0</ele>
        <time>2022-05-22T10:37:31Z</time>
      </trkpt>
      <trkpt lat="37.9929000" lon="-5.6571690">
        <ele>585.0</ele>
        <time>2022-05-22T10:37:32Z</time>
      </trkpt>
      <trkpt lat="37.9929040" lon="-5.6571830">
        <ele>585.0</ele>
        <time>2022-05-22T10:37:33Z</time>
      </trkpt>
      <trkpt lat="37.9929070" lon="-5.6571950">
        <ele>585.0</ele>
        <time>2022-05-22T10:37:34Z</time>
      </trkpt>
      <trkpt lat="37.9929040" lon="-5.6572100">
        <ele>585.0</ele>
        <time>2022-05-22T10:37:35Z</time>
      </trkpt>
      <trkpt lat="37.9929060" lon="-5.6572320">
        <ele>585.0</ele>
        <time>2022-05-22T10:37:37Z</time>
      </trkpt>
      <trkpt lat="37.9929150" lon="-5.6572420">
        <ele>585.0</ele>
        <time>2022-05-22T10:37:38Z</time>
      </trkpt>
      <trkpt lat="37.9929210" lon="-5.6572540">
        <ele>585.0</ele>
        <time>2022-05-22T10:37:39Z</time>
      </trkpt>
      <trkpt lat="37.9929350" lon="-5.6572810">
        <ele>585.0</ele>
        <time>2022-05-22T10:37:41Z</time>
      </trkpt>
      <trkpt lat="37.9929420" lon="-5.6572980">
        <ele>585.0</ele>
        <time>2022-05-22T10:37:42Z</time>
      </trkpt>
      <trkpt lat="37.9929490" lon="-5.6573150">
        <ele>585.0</ele>
        <time>2022-05-22T10:37:43Z</time>
      </trkpt>
      <trkpt lat="37.9929580" lon="-5.6573360">
        <ele>585.0</ele>
        <time>2022-05-22T10:37:45Z</time>
      </trkpt>
      <trkpt lat="37.9929640" lon="-5.6573520">
        <ele>585.0</ele>
        <time>2022-05-22T10:37:46Z</time>
      </trkpt>
      <trkpt lat="37.9929700" lon="-5.6573790">
        <ele>585.0</ele>
        <time>2022-05-22T10:37:48Z</time>
      </trkpt>
      <trkpt lat="37.9929760" lon="-5.6573930">
        <ele>585.0</ele>
        <time>2022-05-22T10:37:49Z</time>
      </trkpt>
      <trkpt lat="37.9929850" lon="-5.6574100">
        <ele>585.0</ele>
        <time>2022-05-22T10:37:51Z</time>
      </trkpt>
      <trkpt lat="37.9929930" lon="-5.6574260">
        <ele>585.0</ele>
        <time>2022-05-22T10:37:52Z</time>
      </trkpt>
      <trkpt lat="37.9930020" lon="-5.6574430">
        <ele>585.0</ele>
        <time>2022-05-22T10:37:53Z</time>
      </trkpt>
      <trkpt lat="37.9930110" lon="-5.6574610">
        <ele>585.0</ele>
        <time>2022-05-22T10:37:54Z</time>
      </trkpt>
      <trkpt lat="37.9930170" lon="-5.6574760">
        <ele>585.0</ele>
        <time>2022-05-22T10:37:55Z</time>
      </trkpt>
      <trkpt lat="37.9930240" lon="-5.6574920">
        <ele>585.0</ele>
        <time>2022-05-22T10:37:56Z</time>
      </trkpt>
      <trkpt lat="37.9930270" lon="-5.6575020">
        <ele>585.0</ele>
        <time>2022-05-22T10:37:57Z</time>
      </trkpt>
      <trkpt lat="37.9930390" lon="-5.6575230">
        <ele>585.0</ele>
        <time>2022-05-22T10:37:59Z</time>
      </trkpt>
      <trkpt lat="37.9930520" lon="-5.6575460">
        <ele>585.0</ele>
        <time>2022-05-22T10:38:00Z</time>
      </trkpt>
      <trkpt lat="37.9930590" lon="-5.6575580">
        <ele>585.0</ele>
        <time>2022-05-22T10:38:01Z</time>
      </trkpt>
      <trkpt lat="37.9930710" lon="-5.6575830">
        <ele>585.0</ele>
        <time>2022-05-22T10:38:02Z</time>
      </trkpt>
      <trkpt lat="37.9930790" lon="-5.6575930">
        <ele>585.0</ele>
        <time>2022-05-22T10:38:04Z</time>
      </trkpt>
      <trkpt lat="37.9930860" lon="-5.6576030">
        <ele>585.0</ele>
        <time>2022-05-22T10:38:05Z</time>
      </trkpt>
      <trkpt lat="37.9930940" lon="-5.6576120">
        <ele>585.0</ele>
        <time>2022-05-22T10:38:06Z</time>
      </trkpt>
      <trkpt lat="37.9931010" lon="-5.6576220">
        <ele>585.0</ele>
        <time>2022-05-22T10:38:07Z</time>
      </trkpt>
      <trkpt lat="37.9931150" lon="-5.6576420">
        <ele>585.0</ele>
        <time>2022-05-22T10:38:08Z</time>
      </trkpt>
      <trkpt lat="37.9931200" lon="-5.6576500">
        <ele>585.0</ele>
        <time>2022-05-22T10:38:09Z</time>
      </trkpt>
      <trkpt lat="37.9931250" lon="-5.6576590">
        <ele>585.0</ele>
        <time>2022-05-22T10:38:10Z</time>
      </trkpt>
      <trkpt lat="37.9931360" lon="-5.6576810">
        <ele>585.0</ele>
        <time>2022-05-22T10:38:11Z</time>
      </trkpt>
      <trkpt lat="37.9931440" lon="-5.6576930">
        <ele>585.0</ele>
        <time>2022-05-22T10:38:12Z</time>
      </trkpt>
      <trkpt lat="37.9931580" lon="-5.6577120">
        <ele>585.0</ele>
        <time>2022-05-22T10:38:14Z</time>
      </trkpt>
      <trkpt lat="37.9931670" lon="-5.6577260">
        <ele>585.0</ele>
        <time>2022-05-22T10:38:15Z</time>
      </trkpt>
      <trkpt lat="37.9931840" lon="-5.6577520">
        <ele>585.0</ele>
        <time>2022-05-22T10:38:16Z</time>
      </trkpt>
      <trkpt lat="37.9931920" lon="-5.6577630">
        <ele>585.0</ele>
        <time>2022-05-22T10:38:17Z</time>
      </trkpt>
      <trkpt lat="37.9932000" lon="-5.6577770">
        <ele>585.0</ele>
        <time>2022-05-22T10:38:18Z</time>
      </trkpt>
      <trkpt lat="37.9932090" lon="-5.6577980">
        <ele>585.0</ele>
        <time>2022-05-22T10:38:20Z</time>
      </trkpt>
      <trkpt lat="37.9932170" lon="-5.6578150">
        <ele>585.0</ele>
        <time>2022-05-22T10:38:21Z</time>
      </trkpt>
      <trkpt lat="37.9932240" lon="-5.6578320">
        <ele>585.0</ele>
        <time>2022-05-22T10:38:22Z</time>
      </trkpt>
      <trkpt lat="37.9932340" lon="-5.6578550">
        <ele>585.0</ele>
        <time>2022-05-22T10:38:23Z</time>
      </trkpt>
      <trkpt lat="37.9932400" lon="-5.6578720">
        <ele>585.1</ele>
        <time>2022-05-22T10:38:24Z</time>
      </trkpt>
      <trkpt lat="37.9932460" lon="-5.6578880">
        <ele>585.1</ele>
        <time>2022-05-22T10:38:25Z</time>
      </trkpt>
      <trkpt lat="37.9932510" lon="-5.6579050">
        <ele>585.1</ele>
        <time>2022-05-22T10:38:26Z</time>
      </trkpt>
      <trkpt lat="37.9932610" lon="-5.6579310">
        <ele>585.1</ele>
        <time>2022-05-22T10:38:27Z</time>
      </trkpt>
      <trkpt lat="37.9932650" lon="-5.6579400">
        <ele>585.1</ele>
        <time>2022-05-22T10:38:28Z</time>
      </trkpt>
      <trkpt lat="37.9932700" lon="-5.6579490">
        <ele>585.1</ele>
        <time>2022-05-22T10:38:29Z</time>
      </trkpt>
      <trkpt lat="37.9932770" lon="-5.6579630">
        <ele>585.1</ele>
        <time>2022-05-22T10:38:30Z</time>
      </trkpt>
      <trkpt lat="37.9932840" lon="-5.6579790">
        <ele>585.1</ele>
        <time>2022-05-22T10:38:31Z</time>
      </trkpt>
      <trkpt lat="37.9932920" lon="-5.6579960">
        <ele>585.1</ele>
        <time>2022-05-22T10:38:32Z</time>
      </trkpt>
      <trkpt lat="37.9932990" lon="-5.6580170">
        <ele>585.1</ele>
        <time>2022-05-22T10:38:33Z</time>
      </trkpt>
      <trkpt lat="37.9933090" lon="-5.6580350">
        <ele>585.1</ele>
        <time>2022-05-22T10:38:34Z</time>
      </trkpt>
      <trkpt lat="37.9933180" lon="-5.6580540">
        <ele>585.1</ele>
        <time>2022-05-22T10:38:35Z</time>
      </trkpt>
      <trkpt lat="37.9933250" lon="-5.6580710">
        <ele>585.1</ele>
        <time>2022-05-22T10:38:36Z</time>
      </trkpt>
      <trkpt lat="37.9933330" lon="-5.6580860">
        <ele>585.1</ele>
        <time>2022-05-22T10:38:37Z</time>
      </trkpt>
      <trkpt lat="37.9933400" lon="-5.6581020">
        <ele>585.1</ele>
        <time>2022-05-22T10:38:38Z</time>
      </trkpt>
      <trkpt lat="37.9933490" lon="-5.6581180">
        <ele>585.1</ele>
        <time>2022-05-22T10:38:39Z</time>
      </trkpt>
      <trkpt lat="37.9933570" lon="-5.6581360">
        <ele>585.1</ele>
        <time>2022-05-22T10:38:40Z</time>
      </trkpt>
      <trkpt lat="37.9933630" lon="-5.6581520">
        <ele>585.2</ele>
        <time>2022-05-22T10:38:41Z</time>
      </trkpt>
      <trkpt lat="37.9933710" lon="-5.6581700">
        <ele>585.2</ele>
        <time>2022-05-22T10:38:42Z</time>
      </trkpt>
      <trkpt lat="37.9933780" lon="-5.6581880">
        <ele>585.2</ele>
        <time>2022-05-22T10:38:43Z</time>
      </trkpt>
      <trkpt lat="37.9933880" lon="-5.6582210">
        <ele>585.2</ele>
        <time>2022-05-22T10:38:45Z</time>
      </trkpt>
      <trkpt lat="37.9933920" lon="-5.6582330">
        <ele>585.2</ele>
        <time>2022-05-22T10:38:46Z</time>
      </trkpt>
      <trkpt lat="37.9933970" lon="-5.6582500">
        <ele>585.2</ele>
        <time>2022-05-22T10:38:47Z</time>
      </trkpt>
      <trkpt lat="37.9934010" lon="-5.6582660">
        <ele>585.2</ele>
        <time>2022-05-22T10:38:48Z</time>
      </trkpt>
      <trkpt lat="37.9934070" lon="-5.6582830">
        <ele>585.2</ele>
        <time>2022-05-22T10:38:49Z</time>
      </trkpt>
      <trkpt lat="37.9934120" lon="-5.6583000">
        <ele>585.2</ele>
        <time>2022-05-22T10:38:50Z</time>
      </trkpt>
      <trkpt lat="37.9934180" lon="-5.6583130">
        <ele>585.2</ele>
        <time>2022-05-22T10:38:51Z</time>
      </trkpt>
      <trkpt lat="37.9934240" lon="-5.6583240">
        <ele>585.2</ele>
        <time>2022-05-22T10:38:52Z</time>
      </trkpt>
      <trkpt lat="37.9934310" lon="-5.6583370">
        <ele>585.2</ele>
        <time>2022-05-22T10:38:53Z</time>
      </trkpt>
      <trkpt lat="37.9934390" lon="-5.6583430">
        <ele>585.2</ele>
        <time>2022-05-22T10:38:54Z</time>
      </trkpt>
      <trkpt lat="37.9934490" lon="-5.6583560">
        <ele>585.3</ele>
        <time>2022-05-22T10:38:55Z</time>
      </trkpt>
      <trkpt lat="37.9934560" lon="-5.6583700">
        <ele>585.3</ele>
        <time>2022-05-22T10:38:56Z</time>
      </trkpt>
      <trkpt lat="37.9934610" lon="-5.6583830">
        <ele>585.3</ele>
        <time>2022-05-22T10:38:57Z</time>
      </trkpt>
      <trkpt lat="37.9934650" lon="-5.6583960">
        <ele>585.3</ele>
        <time>2022-05-22T10:38:58Z</time>
      </trkpt>
      <trkpt lat="37.9934690" lon="-5.6584100">
        <ele>585.3</ele>
        <time>2022-05-22T10:38:59Z</time>
      </trkpt>
      <trkpt lat="37.9934730" lon="-5.6584240">
        <ele>585.3</ele>
        <time>2022-05-22T10:39:00Z</time>
      </trkpt>
      <trkpt lat="37.9934770" lon="-5.6584380">
        <ele>585.3</ele>
        <time>2022-05-22T10:39:01Z</time>
      </trkpt>
      <trkpt lat="37.9934810" lon="-5.6584520">
        <ele>585.3</ele>
        <time>2022-05-22T10:39:02Z</time>
      </trkpt>
      <trkpt lat="37.9934790" lon="-5.6584630">
        <ele>585.3</ele>
        <time>2022-05-22T10:39:03Z</time>
      </trkpt>
      <trkpt lat="37.9934810" lon="-5.6584730">
        <ele>585.3</ele>
        <time>2022-05-22T10:39:04Z</time>
      </trkpt>
      <trkpt lat="37.9934860" lon="-5.6584890">
        <ele>585.3</ele>
        <time>2022-05-22T10:39:05Z</time>
      </trkpt>
      <trkpt lat="37.9934950" lon="-5.6585150">
        <ele>585.3</ele>
        <time>2022-05-22T10:39:06Z</time>
      </trkpt>
      <trkpt lat="37.9934980" lon="-5.6585260">
        <ele>585.3</ele>
        <time>2022-05-22T10:39:07Z</time>
      </trkpt>
      <trkpt lat="37.9935010" lon="-5.6585360">
        <ele>585.3</ele>
        <time>2022-05-22T10:39:08Z</time>
      </trkpt>
      <trkpt lat="37.9935030" lon="-5.6585510">
        <ele>585.3</ele>
        <time>2022-05-22T10:39:09Z</time>
      </trkpt>
      <trkpt lat="37.9935040" lon="-5.6585630">
        <ele>585.3</ele>
        <time>2022-05-22T10:39:10Z</time>
      </trkpt>
      <trkpt lat="37.9935050" lon="-5.6585770">
        <ele>585.3</ele>
        <time>2022-05-22T10:39:11Z</time>
      </trkpt>
      <trkpt lat="37.9935080" lon="-5.6585920">
        <ele>585.3</ele>
        <time>2022-05-22T10:39:12Z</time>
      </trkpt>
      <trkpt lat="37.9935110" lon="-5.6586070">
        <ele>585.3</ele>
        <time>2022-05-22T10:39:13Z</time>
      </trkpt>
      <trkpt lat="37.9935080" lon="-5.6586190">
        <ele>585.3</ele>
        <time>2022-05-22T10:39:14Z</time>
      </trkpt>
      <trkpt lat="37.9935120" lon="-5.6586410">
        <ele>585.3</ele>
        <time>2022-05-22T10:39:16Z</time>
      </trkpt>
      <trkpt lat="37.9935170" lon="-5.6586570">
        <ele>585.3</ele>
        <time>2022-05-22T10:39:17Z</time>
      </trkpt>
      <trkpt lat="37.9935210" lon="-5.6586740">
        <ele>585.3</ele>
        <time>2022-05-22T10:39:18Z</time>
      </trkpt>
      <trkpt lat="37.9935260" lon="-5.6586910">
        <ele>585.3</ele>
        <time>2022-05-22T10:39:19Z</time>
      </trkpt>
      <trkpt lat="37.9935340" lon="-5.6587180">
        <ele>585.3</ele>
        <time>2022-05-22T10:39:21Z</time>
      </trkpt>
      <trkpt lat="37.9935370" lon="-5.6587310">
        <ele>585.3</ele>
        <time>2022-05-22T10:39:22Z</time>
      </trkpt>
      <trkpt lat="37.9935420" lon="-5.6587500">
        <ele>585.3</ele>
        <time>2022-05-22T10:39:23Z</time>
      </trkpt>
      <trkpt lat="37.9935450" lon="-5.6587680">
        <ele>585.3</ele>
        <time>2022-05-22T10:39:24Z</time>
      </trkpt>
      <trkpt lat="37.9935480" lon="-5.6587970">
        <ele>585.3</ele>
        <time>2022-05-22T10:39:26Z</time>
      </trkpt>
      <trkpt lat="37.9935490" lon="-5.6588110">
        <ele>585.3</ele>
        <time>2022-05-22T10:39:27Z</time>
      </trkpt>
      <trkpt lat="37.9935510" lon="-5.6588270">
        <ele>585.2</ele>
        <time>2022-05-22T10:39:28Z</time>
      </trkpt>
      <trkpt lat="37.9935530" lon="-5.6588460">
        <ele>585.2</ele>
        <time>2022-05-22T10:39:29Z</time>
      </trkpt>
      <trkpt lat="37.9935530" lon="-5.6588710">
        <ele>585.2</ele>
        <time>2022-05-22T10:39:31Z</time>
      </trkpt>
      <trkpt lat="37.9935540" lon="-5.6588930">
        <ele>585.2</ele>
        <time>2022-05-22T10:39:33Z</time>
      </trkpt>
      <trkpt lat="37.9935550" lon="-5.6589070">
        <ele>585.2</ele>
        <time>2022-05-22T10:39:34Z</time>
      </trkpt>
      <trkpt lat="37.9935540" lon="-5.6589160">
        <ele>585.2</ele>
        <time>2022-05-22T10:39:35Z</time>
      </trkpt>
      <trkpt lat="37.9935480" lon="-5.6589400">
        <ele>585.2</ele>
        <time>2022-05-22T10:39:37Z</time>
      </trkpt>
      <trkpt lat="37.9935470" lon="-5.6589540">
        <ele>585.2</ele>
        <time>2022-05-22T10:39:38Z</time>
      </trkpt>
      <trkpt lat="37.9935460" lon="-5.6589670">
        <ele>585.1</ele>
        <time>2022-05-22T10:39:39Z</time>
      </trkpt>
      <trkpt lat="37.9935450" lon="-5.6589840">
        <ele>585.1</ele>
        <time>2022-05-22T10:39:40Z</time>
      </trkpt>
      <trkpt lat="37.9935420" lon="-5.6590100">
        <ele>585.1</ele>
        <time>2022-05-22T10:39:41Z</time>
      </trkpt>
      <trkpt lat="37.9935440" lon="-5.6590220">
        <ele>585.1</ele>
        <time>2022-05-22T10:39:42Z</time>
      </trkpt>
      <trkpt lat="37.9935460" lon="-5.6590340">
        <ele>585.1</ele>
        <time>2022-05-22T10:39:43Z</time>
      </trkpt>
      <trkpt lat="37.9935520" lon="-5.6590500">
        <ele>585.0</ele>
        <time>2022-05-22T10:39:44Z</time>
      </trkpt>
      <trkpt lat="37.9935630" lon="-5.6590770">
        <ele>585.0</ele>
        <time>2022-05-22T10:39:46Z</time>
      </trkpt>
      <trkpt lat="37.9935790" lon="-5.6591100">
        <ele>584.9</ele>
        <time>2022-05-22T10:39:47Z</time>
      </trkpt>
      <trkpt lat="37.9935840" lon="-5.6591210">
        <ele>584.9</ele>
        <time>2022-05-22T10:39:48Z</time>
      </trkpt>
      <trkpt lat="37.9935900" lon="-5.6591370">
        <ele>584.9</ele>
        <time>2022-05-22T10:39:49Z</time>
      </trkpt>
      <trkpt lat="37.9935990" lon="-5.6591630">
        <ele>584.8</ele>
        <time>2022-05-22T10:39:51Z</time>
      </trkpt>
      <trkpt lat="37.9936030" lon="-5.6591790">
        <ele>584.8</ele>
        <time>2022-05-22T10:39:52Z</time>
      </trkpt>
      <trkpt lat="37.9936070" lon="-5.6591970">
        <ele>584.8</ele>
        <time>2022-05-22T10:39:53Z</time>
      </trkpt>
      <trkpt lat="37.9936150" lon="-5.6592320">
        <ele>584.7</ele>
        <time>2022-05-22T10:39:54Z</time>
      </trkpt>
      <trkpt lat="37.9936190" lon="-5.6592580">
        <ele>584.6</ele>
        <time>2022-05-22T10:39:55Z</time>
      </trkpt>
      <trkpt lat="37.9936210" lon="-5.6592690">
        <ele>584.6</ele>
        <time>2022-05-22T10:39:56Z</time>
      </trkpt>
      <trkpt lat="37.9936220" lon="-5.6592810">
        <ele>584.6</ele>
        <time>2022-05-22T10:39:57Z</time>
      </trkpt>
      <trkpt lat="37.9936240" lon="-5.6592990">
        <ele>584.5</ele>
        <time>2022-05-22T10:39:58Z</time>
      </trkpt>
      <trkpt lat="37.9936250" lon="-5.6593190">
        <ele>584.5</ele>
        <time>2022-05-22T10:39:59Z</time>
      </trkpt>
      <trkpt lat="37.9936270" lon="-5.6593380">
        <ele>584.5</ele>
        <time>2022-05-22T10:40:00Z</time>
      </trkpt>
      <trkpt lat="37.9936270" lon="-5.6593600">
        <ele>584.4</ele>
        <time>2022-05-22T10:40:01Z</time>
      </trkpt>
      <trkpt lat="37.9936270" lon="-5.6593770">
        <ele>584.4</ele>
        <time>2022-05-22T10:40:02Z</time>
      </trkpt>
      <trkpt lat="37.9936280" lon="-5.6593960">
        <ele>584.3</ele>
        <time>2022-05-22T10:40:03Z</time>
      </trkpt>
      <trkpt lat="37.9936260" lon="-5.6594150">
        <ele>584.3</ele>
        <time>2022-05-22T10:40:04Z</time>
      </trkpt>
      <trkpt lat="37.9936280" lon="-5.6594330">
        <ele>584.3</ele>
        <time>2022-05-22T10:40:05Z</time>
      </trkpt>
      <trkpt lat="37.9936340" lon="-5.6594510">
        <ele>584.2</ele>
        <time>2022-05-22T10:40:06Z</time>
      </trkpt>
      <trkpt lat="37.9936360" lon="-5.6594670">
        <ele>584.2</ele>
        <time>2022-05-22T10:40:07Z</time>
      </trkpt>
      <trkpt lat="37.9936340" lon="-5.6594930">
        <ele>584.1</ele>
        <time>2022-05-22T10:40:08Z</time>
      </trkpt>
      <trkpt lat="37.9936330" lon="-5.6595040">
        <ele>584.1</ele>
        <time>2022-05-22T10:40:09Z</time>
      </trkpt>
      <trkpt lat="37.9936320" lon="-5.6595140">
        <ele>584.1</ele>
        <time>2022-05-22T10:40:10Z</time>
      </trkpt>
      <trkpt lat="37.9936230" lon="-5.6595350">
        <ele>584.0</ele>
        <time>2022-05-22T10:40:11Z</time>
      </trkpt>
      <trkpt lat="37.9936180" lon="-5.6595560">
        <ele>584.0</ele>
        <time>2022-05-22T10:40:12Z</time>
      </trkpt>
      <trkpt lat="37.9936140" lon="-5.6595720">
        <ele>583.9</ele>
        <time>2022-05-22T10:40:13Z</time>
      </trkpt>
      <trkpt lat="37.9936110" lon="-5.6595910">
        <ele>583.9</ele>
        <time>2022-05-22T10:40:14Z</time>
      </trkpt>
      <trkpt lat="37.9936090" lon="-5.6596080">
        <ele>583.9</ele>
        <time>2022-05-22T10:40:15Z</time>
      </trkpt>
      <trkpt lat="37.9936060" lon="-5.6596250">
        <ele>583.8</ele>
        <time>2022-05-22T10:40:16Z</time>
      </trkpt>
      <trkpt lat="37.9936040" lon="-5.6596490">
        <ele>583.8</ele>
        <time>2022-05-22T10:40:17Z</time>
      </trkpt>
      <trkpt lat="37.9936020" lon="-5.6596640">
        <ele>583.7</ele>
        <time>2022-05-22T10:40:18Z</time>
      </trkpt>
      <trkpt lat="37.9936020" lon="-5.6596810">
        <ele>583.7</ele>
        <time>2022-05-22T10:40:19Z</time>
      </trkpt>
      <trkpt lat="37.9936020" lon="-5.6597020">
        <ele>583.6</ele>
        <time>2022-05-22T10:40:21Z</time>
      </trkpt>
      <trkpt lat="37.9936030" lon="-5.6597190">
        <ele>583.6</ele>
        <time>2022-05-22T10:40:22Z</time>
      </trkpt>
      <trkpt lat="37.9935990" lon="-5.6597470">
        <ele>583.5</ele>
        <time>2022-05-22T10:40:23Z</time>
      </trkpt>
      <trkpt lat="37.9935950" lon="-5.6597620">
        <ele>583.5</ele>
        <time>2022-05-22T10:40:24Z</time>
      </trkpt>
      <trkpt lat="37.9935940" lon="-5.6597730">
        <ele>583.4</ele>
        <time>2022-05-22T10:40:25Z</time>
      </trkpt>
      <trkpt lat="37.9935970" lon="-5.6597880">
        <ele>583.4</ele>
        <time>2022-05-22T10:40:26Z</time>
      </trkpt>
      <trkpt lat="37.9935990" lon="-5.6598030">
        <ele>583.4</ele>
        <time>2022-05-22T10:40:27Z</time>
      </trkpt>
      <trkpt lat="37.9936080" lon="-5.6598410">
        <ele>583.2</ele>
        <time>2022-05-22T10:40:29Z</time>
      </trkpt>
      <trkpt lat="37.9936160" lon="-5.6598610">
        <ele>583.2</ele>
        <time>2022-05-22T10:40:30Z</time>
      </trkpt>
      <trkpt lat="37.9936200" lon="-5.6598770">
        <ele>583.1</ele>
        <time>2022-05-22T10:40:31Z</time>
      </trkpt>
      <trkpt lat="37.9936250" lon="-5.6598940">
        <ele>583.1</ele>
        <time>2022-05-22T10:40:32Z</time>
      </trkpt>
      <trkpt lat="37.9936290" lon="-5.6599110">
        <ele>583.0</ele>
        <time>2022-05-22T10:40:33Z</time>
      </trkpt>
      <trkpt lat="37.9936320" lon="-5.6599320">
        <ele>583.0</ele>
        <time>2022-05-22T10:40:34Z</time>
      </trkpt>
      <trkpt lat="37.9936330" lon="-5.6599490">
        <ele>582.9</ele>
        <time>2022-05-22T10:40:35Z</time>
      </trkpt>
      <trkpt lat="37.9936340" lon="-5.6599630">
        <ele>582.9</ele>
        <time>2022-05-22T10:40:36Z</time>
      </trkpt>
      <trkpt lat="37.9936330" lon="-5.6599800">
        <ele>582.8</ele>
        <time>2022-05-22T10:40:37Z</time>
      </trkpt>
      <trkpt lat="37.9936310" lon="-5.6600090">
        <ele>582.8</ele>
        <time>2022-05-22T10:40:39Z</time>
      </trkpt>
      <trkpt lat="37.9936290" lon="-5.6600310">
        <ele>582.7</ele>
        <time>2022-05-22T10:40:40Z</time>
      </trkpt>
      <trkpt lat="37.9936260" lon="-5.6600520">
        <ele>582.6</ele>
        <time>2022-05-22T10:40:41Z</time>
      </trkpt>
      <trkpt lat="37.9936240" lon="-5.6600760">
        <ele>582.6</ele>
        <time>2022-05-22T10:40:43Z</time>
      </trkpt>
      <trkpt lat="37.9936220" lon="-5.6600900">
        <ele>582.5</ele>
        <time>2022-05-22T10:40:44Z</time>
      </trkpt>
      <trkpt lat="37.9936160" lon="-5.6601230">
        <ele>582.4</ele>
        <time>2022-05-22T10:40:46Z</time>
      </trkpt>
      <trkpt lat="37.9936120" lon="-5.6601440">
        <ele>582.4</ele>
        <time>2022-05-22T10:40:47Z</time>
      </trkpt>
      <trkpt lat="37.9936090" lon="-5.6601590">
        <ele>582.3</ele>
        <time>2022-05-22T10:40:48Z</time>
      </trkpt>
      <trkpt lat="37.9936070" lon="-5.6601760">
        <ele>582.3</ele>
        <time>2022-05-22T10:40:49Z</time>
      </trkpt>
      <trkpt lat="37.9936030" lon="-5.6602040">
        <ele>582.2</ele>
        <time>2022-05-22T10:40:51Z</time>
      </trkpt>
      <trkpt lat="37.9936010" lon="-5.6602150">
        <ele>582.2</ele>
        <time>2022-05-22T10:40:52Z</time>
      </trkpt>
      <trkpt lat="37.9935980" lon="-5.6602300">
        <ele>582.1</ele>
        <time>2022-05-22T10:40:53Z</time>
      </trkpt>
      <trkpt lat="37.9935960" lon="-5.6602450">
        <ele>582.1</ele>
        <time>2022-05-22T10:40:54Z</time>
      </trkpt>
      <trkpt lat="37.9935940" lon="-5.6602610">
        <ele>582.0</ele>
        <time>2022-05-22T10:40:55Z</time>
      </trkpt>
      <trkpt lat="37.9935880" lon="-5.6602910">
        <ele>582.0</ele>
        <time>2022-05-22T10:40:57Z</time>
      </trkpt>
      <trkpt lat="37.9935860" lon="-5.6603160">
        <ele>581.9</ele>
        <time>2022-05-22T10:40:58Z</time>
      </trkpt>
      <trkpt lat="37.9935850" lon="-5.6603300">
        <ele>581.8</ele>
        <time>2022-05-22T10:40:59Z</time>
      </trkpt>
      <trkpt lat="37.9935840" lon="-5.6603430">
        <ele>581.8</ele>
        <time>2022-05-22T10:41:00Z</time>
      </trkpt>
      <trkpt lat="37.9935830" lon="-5.6603790">
        <ele>581.7</ele>
        <time>2022-05-22T10:41:01Z</time>
      </trkpt>
      <trkpt lat="37.9935830" lon="-5.6603960">
        <ele>581.7</ele>
        <time>2022-05-22T10:41:03Z</time>
      </trkpt>
      <trkpt lat="37.9935820" lon="-5.6604140">
        <ele>581.6</ele>
        <time>2022-05-22T10:41:04Z</time>
      </trkpt>
      <trkpt lat="37.9935810" lon="-5.6604310">
        <ele>581.6</ele>
        <time>2022-05-22T10:41:05Z</time>
      </trkpt>
      <trkpt lat="37.9935790" lon="-5.6604590">
        <ele>581.5</ele>
        <time>2022-05-22T10:41:06Z</time>
      </trkpt>
      <trkpt lat="37.9935780" lon="-5.6604710">
        <ele>581.4</ele>
        <time>2022-05-22T10:41:07Z</time>
      </trkpt>
      <trkpt lat="37.9935770" lon="-5.6604820">
        <ele>581.4</ele>
        <time>2022-05-22T10:41:08Z</time>
      </trkpt>
      <trkpt lat="37.9935750" lon="-5.6605000">
        <ele>581.4</ele>
        <time>2022-05-22T10:41:09Z</time>
      </trkpt>
      <trkpt lat="37.9935720" lon="-5.6605190">
        <ele>581.3</ele>
        <time>2022-05-22T10:41:10Z</time>
      </trkpt>
      <trkpt lat="37.9935700" lon="-5.6605350">
        <ele>581.2</ele>
        <time>2022-05-22T10:41:11Z</time>
      </trkpt>
      <trkpt lat="37.9935630" lon="-5.6605550">
        <ele>581.2</ele>
        <time>2022-05-22T10:41:12Z</time>
      </trkpt>
      <trkpt lat="37.9935610" lon="-5.6605740">
        <ele>581.1</ele>
        <time>2022-05-22T10:41:13Z</time>
      </trkpt>
      <trkpt lat="37.9935650" lon="-5.6605920">
        <ele>581.1</ele>
        <time>2022-05-22T10:41:14Z</time>
      </trkpt>
      <trkpt lat="37.9935690" lon="-5.6606060">
        <ele>581.0</ele>
        <time>2022-05-22T10:41:15Z</time>
      </trkpt>
      <trkpt lat="37.9935690" lon="-5.6606200">
        <ele>581.0</ele>
        <time>2022-05-22T10:41:16Z</time>
      </trkpt>
      <trkpt lat="37.9935580" lon="-5.6606500">
        <ele>580.9</ele>
        <time>2022-05-22T10:41:18Z</time>
      </trkpt>
      <trkpt lat="37.9935500" lon="-5.6606640">
        <ele>580.8</ele>
        <time>2022-05-22T10:41:19Z</time>
      </trkpt>
      <trkpt lat="37.9935390" lon="-5.6606760">
        <ele>580.8</ele>
        <time>2022-05-22T10:41:20Z</time>
      </trkpt>
      <trkpt lat="37.9935280" lon="-5.6606920">
        <ele>580.7</ele>
        <time>2022-05-22T10:41:21Z</time>
      </trkpt>
      <trkpt lat="37.9935180" lon="-5.6607060">
        <ele>580.7</ele>
        <time>2022-05-22T10:41:22Z</time>
      </trkpt>
      <trkpt lat="37.9935050" lon="-5.6607230">
        <ele>580.6</ele>
        <time>2022-05-22T10:41:23Z</time>
      </trkpt>
      <trkpt lat="37.9934970" lon="-5.6607370">
        <ele>580.6</ele>
        <time>2022-05-22T10:41:24Z</time>
      </trkpt>
      <trkpt lat="37.9934890" lon="-5.6607520">
        <ele>580.5</ele>
        <time>2022-05-22T10:41:25Z</time>
      </trkpt>
      <trkpt lat="37.9934820" lon="-5.6607690">
        <ele>580.5</ele>
        <time>2022-05-22T10:41:26Z</time>
      </trkpt>
      <trkpt lat="37.9934770" lon="-5.6607820">
        <ele>580.4</ele>
        <time>2022-05-22T10:41:27Z</time>
      </trkpt>
      <trkpt lat="37.9934630" lon="-5.6608160">
        <ele>580.3</ele>
        <time>2022-05-22T10:41:29Z</time>
      </trkpt>
      <trkpt lat="37.9934530" lon="-5.6608390">
        <ele>580.2</ele>
        <time>2022-05-22T10:41:30Z</time>
      </trkpt>
      <trkpt lat="37.9934500" lon="-5.6608510">
        <ele>580.2</ele>
        <time>2022-05-22T10:41:31Z</time>
      </trkpt>
      <trkpt lat="37.9934470" lon="-5.6608620">
        <ele>580.2</ele>
        <time>2022-05-22T10:41:32Z</time>
      </trkpt>
      <trkpt lat="37.9934440" lon="-5.6608810">
        <ele>580.1</ele>
        <time>2022-05-22T10:41:34Z</time>
      </trkpt>
      <trkpt lat="37.9934370" lon="-5.6608970">
        <ele>580.1</ele>
        <time>2022-05-22T10:41:35Z</time>
      </trkpt>
      <trkpt lat="37.9934270" lon="-5.6609130">
        <ele>580.0</ele>
        <time>2022-05-22T10:41:36Z</time>
      </trkpt>
      <trkpt lat="37.9934150" lon="-5.6609320">
        <ele>580.0</ele>
        <time>2022-05-22T10:41:37Z</time>
      </trkpt>
      <trkpt lat="37.9933940" lon="-5.6609650">
        <ele>579.8</ele>
        <time>2022-05-22T10:41:39Z</time>
      </trkpt>
      <trkpt lat="37.9933860" lon="-5.6609810">
        <ele>579.8</ele>
        <time>2022-05-22T10:41:40Z</time>
      </trkpt>
      <trkpt lat="37.9933770" lon="-5.6609960">
        <ele>579.7</ele>
        <time>2022-05-22T10:41:41Z</time>
      </trkpt>
      <trkpt lat="37.9933690" lon="-5.6610110">
        <ele>579.7</ele>
        <time>2022-05-22T10:41:42Z</time>
      </trkpt>
      <trkpt lat="37.9933620" lon="-5.6610260">
        <ele>579.6</ele>
        <time>2022-05-22T10:41:43Z</time>
      </trkpt>
      <trkpt lat="37.9933580" lon="-5.6610450">
        <ele>579.6</ele>
        <time>2022-05-22T10:41:44Z</time>
      </trkpt>
      <trkpt lat="37.9933490" lon="-5.6610830">
        <ele>579.4</ele>
        <time>2022-05-22T10:41:46Z</time>
      </trkpt>
      <trkpt lat="37.9933460" lon="-5.6610920">
        <ele>579.4</ele>
        <time>2022-05-22T10:41:47Z</time>
      </trkpt>
      <trkpt lat="37.9933410" lon="-5.6611100">
        <ele>579.4</ele>
        <time>2022-05-22T10:41:48Z</time>
      </trkpt>
      <trkpt lat="37.9933330" lon="-5.6611340">
        <ele>579.3</ele>
        <time>2022-05-22T10:41:49Z</time>
      </trkpt>
      <trkpt lat="37.9933250" lon="-5.6611600">
        <ele>579.2</ele>
        <time>2022-05-22T10:41:50Z</time>
      </trkpt>
      <trkpt lat="37.9933200" lon="-5.6611710">
        <ele>579.2</ele>
        <time>2022-05-22T10:41:51Z</time>
      </trkpt>
      <trkpt lat="37.9933160" lon="-5.6611830">
        <ele>579.1</ele>
        <time>2022-05-22T10:41:52Z</time>
      </trkpt>
      <trkpt lat="37.9933110" lon="-5.6611950">
        <ele>579.1</ele>
        <time>2022-05-22T10:41:53Z</time>
      </trkpt>
      <trkpt lat="37.9933060" lon="-5.6612070">
        <ele>579.0</ele>
        <time>2022-05-22T10:41:54Z</time>
      </trkpt>
      <trkpt lat="37.9933010" lon="-5.6612210">
        <ele>579.0</ele>
        <time>2022-05-22T10:41:55Z</time>
      </trkpt>
      <trkpt lat="37.9932950" lon="-5.6612340">
        <ele>579.0</ele>
        <time>2022-05-22T10:41:56Z</time>
      </trkpt>
      <trkpt lat="37.9932890" lon="-5.6612500">
        <ele>578.9</ele>
        <time>2022-05-22T10:41:57Z</time>
      </trkpt>
      <trkpt lat="37.9932850" lon="-5.6612620">
        <ele>578.9</ele>
        <time>2022-05-22T10:41:58Z</time>
      </trkpt>
      <trkpt lat="37.9932820" lon="-5.6612770">
        <ele>578.8</ele>
        <time>2022-05-22T10:41:59Z</time>
      </trkpt>
      <trkpt lat="37.9932770" lon="-5.6612950">
        <ele>578.8</ele>
        <time>2022-05-22T10:42:00Z</time>
      </trkpt>
      <trkpt lat="37.9932720" lon="-5.6613120">
        <ele>578.7</ele>
        <time>2022-05-22T10:42:01Z</time>
      </trkpt>
      <trkpt lat="37.9932660" lon="-5.6613280">
        <ele>578.6</ele>
        <time>2022-05-22T10:42:02Z</time>
      </trkpt>
      <trkpt lat="37.9932550" lon="-5.6613520">
        <ele>578.6</ele>
        <time>2022-05-22T10:42:03Z</time>
      </trkpt>
      <trkpt lat="37.9932470" lon="-5.6613660">
        <ele>578.5</ele>
        <time>2022-05-22T10:42:04Z</time>
      </trkpt>
      <trkpt lat="37.9932370" lon="-5.6613800">
        <ele>578.5</ele>
        <time>2022-05-22T10:42:05Z</time>
      </trkpt>
      <trkpt lat="37.9932190" lon="-5.6614000">
        <ele>578.4</ele>
        <time>2022-05-22T10:42:07Z</time>
      </trkpt>
      <trkpt lat="37.9932080" lon="-5.6614110">
        <ele>578.3</ele>
        <time>2022-05-22T10:42:08Z</time>
      </trkpt>
      <trkpt lat="37.9931950" lon="-5.6614280">
        <ele>578.3</ele>
        <time>2022-05-22T10:42:09Z</time>
      </trkpt>
      <trkpt lat="37.9931850" lon="-5.6614420">
        <ele>578.2</ele>
        <time>2022-05-22T10:42:10Z</time>
      </trkpt>
      <trkpt lat="37.9931750" lon="-5.6614560">
        <ele>578.2</ele>
        <time>2022-05-22T10:42:11Z</time>
      </trkpt>
      <trkpt lat="37.9931660" lon="-5.6614720">
        <ele>578.1</ele>
        <time>2022-05-22T10:42:12Z</time>
      </trkpt>
      <trkpt lat="37.9931560" lon="-5.6614870">
        <ele>578.1</ele>
        <time>2022-05-22T10:42:13Z</time>
      </trkpt>
      <trkpt lat="37.9931490" lon="-5.6614990">
        <ele>578.0</ele>
        <time>2022-05-22T10:42:14Z</time>
      </trkpt>
      <trkpt lat="37.9931380" lon="-5.6615170">
        <ele>578.0</ele>
        <time>2022-05-22T10:42:15Z</time>
      </trkpt>
      <trkpt lat="37.9931250" lon="-5.6615400">
        <ele>577.9</ele>
        <time>2022-05-22T10:42:16Z</time>
      </trkpt>
      <trkpt lat="37.9931200" lon="-5.6615510">
        <ele>577.8</ele>
        <time>2022-05-22T10:42:17Z</time>
      </trkpt>
      <trkpt lat="37.9931150" lon="-5.6615610">
        <ele>577.8</ele>
        <time>2022-05-22T10:42:18Z</time>
      </trkpt>
      <trkpt lat="37.9931090" lon="-5.6615750">
        <ele>577.8</ele>
        <time>2022-05-22T10:42:19Z</time>
      </trkpt>
      <trkpt lat="37.9930980" lon="-5.6616030">
        <ele>577.7</ele>
        <time>2022-05-22T10:42:21Z</time>
      </trkpt>
      <trkpt lat="37.9930900" lon="-5.6616210">
        <ele>577.7</ele>
        <time>2022-05-22T10:42:22Z</time>
      </trkpt>
      <trkpt lat="37.9930830" lon="-5.6616350">
        <ele>577.6</ele>
        <time>2022-05-22T10:42:23Z</time>
      </trkpt>
      <trkpt lat="37.9930790" lon="-5.6616500">
        <ele>577.6</ele>
        <time>2022-05-22T10:42:24Z</time>
      </trkpt>
      <trkpt lat="37.9930820" lon="-5.6616800">
        <ele>577.5</ele>
        <time>2022-05-22T10:42:26Z</time>
      </trkpt>
      <trkpt lat="37.9930740" lon="-5.6617070">
        <ele>577.5</ele>
        <time>2022-05-22T10:42:27Z</time>
      </trkpt>
      <trkpt lat="37.9930680" lon="-5.6617180">
        <ele>577.4</ele>
        <time>2022-05-22T10:42:28Z</time>
      </trkpt>
      <trkpt lat="37.9930630" lon="-5.6617290">
        <ele>577.4</ele>
        <time>2022-05-22T10:42:29Z</time>
      </trkpt>
      <trkpt lat="37.9930550" lon="-5.6617490">
        <ele>577.4</ele>
        <time>2022-05-22T10:42:31Z</time>
      </trkpt>
      <trkpt lat="37.9930490" lon="-5.6617670">
        <ele>577.3</ele>
        <time>2022-05-22T10:42:32Z</time>
      </trkpt>
      <trkpt lat="37.9930380" lon="-5.6617890">
        <ele>577.3</ele>
        <time>2022-05-22T10:42:33Z</time>
      </trkpt>
      <trkpt lat="37.9930340" lon="-5.6617980">
        <ele>577.3</ele>
        <time>2022-05-22T10:42:34Z</time>
      </trkpt>
      <trkpt lat="37.9930290" lon="-5.6618080">
        <ele>577.2</ele>
        <time>2022-05-22T10:42:35Z</time>
      </trkpt>
      <trkpt lat="37.9930200" lon="-5.6618240">
        <ele>577.2</ele>
        <time>2022-05-22T10:42:36Z</time>
      </trkpt>
      <trkpt lat="37.9930120" lon="-5.6618410">
        <ele>577.2</ele>
        <time>2022-05-22T10:42:37Z</time>
      </trkpt>
      <trkpt lat="37.9930080" lon="-5.6618520">
        <ele>577.1</ele>
        <time>2022-05-22T10:42:38Z</time>
      </trkpt>
      <trkpt lat="37.9930030" lon="-5.6618660">
        <ele>577.1</ele>
        <time>2022-05-22T10:42:39Z</time>
      </trkpt>
      <trkpt lat="37.9930000" lon="-5.6618790">
        <ele>577.1</ele>
        <time>2022-05-22T10:42:40Z</time>
      </trkpt>
      <trkpt lat="37.9929980" lon="-5.6619030">
        <ele>577.1</ele>
        <time>2022-05-22T10:42:41Z</time>
      </trkpt>
      <trkpt lat="37.9929970" lon="-5.6619150">
        <ele>577.0</ele>
        <time>2022-05-22T10:42:43Z</time>
      </trkpt>
      <trkpt lat="37.9929970" lon="-5.6619270">
        <ele>577.0</ele>
        <time>2022-05-22T10:42:44Z</time>
      </trkpt>
      <trkpt lat="37.9929940" lon="-5.6619460">
        <ele>577.0</ele>
        <time>2022-05-22T10:42:45Z</time>
      </trkpt>
      <trkpt lat="37.9929880" lon="-5.6619700">
        <ele>576.9</ele>
        <time>2022-05-22T10:42:46Z</time>
      </trkpt>
      <trkpt lat="37.9929850" lon="-5.6619860">
        <ele>576.9</ele>
        <time>2022-05-22T10:42:47Z</time>
      </trkpt>
      <trkpt lat="37.9929820" lon="-5.6620050">
        <ele>576.9</ele>
        <time>2022-05-22T10:42:48Z</time>
      </trkpt>
      <trkpt lat="37.9929800" lon="-5.6620190">
        <ele>576.9</ele>
        <time>2022-05-22T10:42:49Z</time>
      </trkpt>
      <trkpt lat="37.9929780" lon="-5.6620320">
        <ele>576.8</ele>
        <time>2022-05-22T10:42:50Z</time>
      </trkpt>
      <trkpt lat="37.9929750" lon="-5.6620470">
        <ele>576.8</ele>
        <time>2022-05-22T10:42:51Z</time>
      </trkpt>
      <trkpt lat="37.9929720" lon="-5.6620620">
        <ele>576.8</ele>
        <time>2022-05-22T10:42:52Z</time>
      </trkpt>
      <trkpt lat="37.9929680" lon="-5.6620750">
        <ele>576.8</ele>
        <time>2022-05-22T10:42:53Z</time>
      </trkpt>
      <trkpt lat="37.9929640" lon="-5.6620890">
        <ele>576.7</ele>
        <time>2022-05-22T10:42:54Z</time>
      </trkpt>
      <trkpt lat="37.9929590" lon="-5.6621080">
        <ele>576.7</ele>
        <time>2022-05-22T10:42:55Z</time>
      </trkpt>
      <trkpt lat="37.9929550" lon="-5.6621230">
        <ele>576.7</ele>
        <time>2022-05-22T10:42:56Z</time>
      </trkpt>
      <trkpt lat="37.9929510" lon="-5.6621380">
        <ele>576.7</ele>
        <time>2022-05-22T10:42:57Z</time>
      </trkpt>
      <trkpt lat="37.9929470" lon="-5.6621560">
        <ele>576.6</ele>
        <time>2022-05-22T10:42:58Z</time>
      </trkpt>
      <trkpt lat="37.9929420" lon="-5.6621700">
        <ele>576.6</ele>
        <time>2022-05-22T10:42:59Z</time>
      </trkpt>
      <trkpt lat="37.9929340" lon="-5.6621890">
        <ele>576.6</ele>
        <time>2022-05-22T10:43:00Z</time>
      </trkpt>
      <trkpt lat="37.9929270" lon="-5.6622020">
        <ele>576.6</ele>
        <time>2022-05-22T10:43:01Z</time>
      </trkpt>
      <trkpt lat="37.9929190" lon="-5.6622160">
        <ele>576.5</ele>
        <time>2022-05-22T10:43:02Z</time>
      </trkpt>
      <trkpt lat="37.9929080" lon="-5.6622320">
        <ele>576.5</ele>
        <time>2022-05-22T10:43:04Z</time>
      </trkpt>
      <trkpt lat="37.9928920" lon="-5.6622580">
        <ele>576.4</ele>
        <time>2022-05-22T10:43:05Z</time>
      </trkpt>
      <trkpt lat="37.9928850" lon="-5.6622690">
        <ele>576.4</ele>
        <time>2022-05-22T10:43:06Z</time>
      </trkpt>
      <trkpt lat="37.9928740" lon="-5.6622900">
        <ele>576.4</ele>
        <time>2022-05-22T10:43:07Z</time>
      </trkpt>
      <trkpt lat="37.9928720" lon="-5.6623030">
        <ele>576.4</ele>
        <time>2022-05-22T10:43:08Z</time>
      </trkpt>
      <trkpt lat="37.9928660" lon="-5.6623270">
        <ele>576.3</ele>
        <time>2022-05-22T10:43:09Z</time>
      </trkpt>
      <trkpt lat="37.9928620" lon="-5.6623380">
        <ele>576.3</ele>
        <time>2022-05-22T10:43:10Z</time>
      </trkpt>
      <trkpt lat="37.9928570" lon="-5.6623490">
        <ele>576.3</ele>
        <time>2022-05-22T10:43:11Z</time>
      </trkpt>
      <trkpt lat="37.9928420" lon="-5.6623850">
        <ele>576.2</ele>
        <time>2022-05-22T10:43:13Z</time>
      </trkpt>
      <trkpt lat="37.9928380" lon="-5.6623920">
        <ele>576.2</ele>
        <time>2022-05-22T10:43:14Z</time>
      </trkpt>
      <trkpt lat="37.9928220" lon="-5.6624070">
        <ele>576.2</ele>
        <time>2022-05-22T10:43:15Z</time>
      </trkpt>
      <trkpt lat="37.9928130" lon="-5.6624190">
        <ele>576.1</ele>
        <time>2022-05-22T10:43:16Z</time>
      </trkpt>
      <trkpt lat="37.9928050" lon="-5.6624300">
        <ele>576.1</ele>
        <time>2022-05-22T10:43:18Z</time>
      </trkpt>
      <trkpt lat="37.9927930" lon="-5.6624520">
        <ele>576.1</ele>
        <time>2022-05-22T10:43:19Z</time>
      </trkpt>
      <trkpt lat="37.9927790" lon="-5.6624710">
        <ele>576.0</ele>
        <time>2022-05-22T10:43:20Z</time>
      </trkpt>
      <trkpt lat="37.9927730" lon="-5.6624790">
        <ele>576.0</ele>
        <time>2022-05-22T10:43:21Z</time>
      </trkpt>
      <trkpt lat="37.9927670" lon="-5.6624870">
        <ele>576.0</ele>
        <time>2022-05-22T10:43:22Z</time>
      </trkpt>
      <trkpt lat="37.9927590" lon="-5.6624960">
        <ele>576.0</ele>
        <time>2022-05-22T10:43:23Z</time>
      </trkpt>
      <trkpt lat="37.9927500" lon="-5.6625050">
        <ele>575.9</ele>
        <time>2022-05-22T10:43:24Z</time>
      </trkpt>
      <trkpt lat="37.9927390" lon="-5.6625130">
        <ele>575.9</ele>
        <time>2022-05-22T10:43:25Z</time>
      </trkpt>
      <trkpt lat="37.9927190" lon="-5.6625240">
        <ele>575.9</ele>
        <time>2022-05-22T10:43:26Z</time>
      </trkpt>
      <trkpt lat="37.9927120" lon="-5.6625270">
        <ele>575.9</ele>
        <time>2022-05-22T10:43:27Z</time>
      </trkpt>
      <trkpt lat="37.9927040" lon="-5.6625310">
        <ele>575.8</ele>
        <time>2022-05-22T10:43:28Z</time>
      </trkpt>
      <trkpt lat="37.9926890" lon="-5.6625420">
        <ele>575.8</ele>
        <time>2022-05-22T10:43:30Z</time>
      </trkpt>
      <trkpt lat="37.9926820" lon="-5.6625500">
        <ele>575.8</ele>
        <time>2022-05-22T10:43:31Z</time>
      </trkpt>
      <trkpt lat="37.9926690" lon="-5.6625660">
        <ele>575.7</ele>
        <time>2022-05-22T10:43:32Z</time>
      </trkpt>
      <trkpt lat="37.9926610" lon="-5.6625800">
        <ele>575.7</ele>
        <time>2022-05-22T10:43:33Z</time>
      </trkpt>
      <trkpt lat="37.9926550" lon="-5.6626040">
        <ele>575.7</ele>
        <time>2022-05-22T10:43:34Z</time>
      </trkpt>
      <trkpt lat="37.9926480" lon="-5.6626290">
        <ele>575.6</ele>
        <time>2022-05-22T10:43:36Z</time>
      </trkpt>
      <trkpt lat="37.9926410" lon="-5.6626630">
        <ele>575.6</ele>
        <time>2022-05-22T10:43:37Z</time>
      </trkpt>
      <trkpt lat="37.9926390" lon="-5.6626760">
        <ele>575.6</ele>
        <time>2022-05-22T10:43:38Z</time>
      </trkpt>
      <trkpt lat="37.9926350" lon="-5.6626970">
        <ele>575.5</ele>
        <time>2022-05-22T10:43:39Z</time>
      </trkpt>
      <trkpt lat="37.9926330" lon="-5.6627190">
        <ele>575.5</ele>
        <time>2022-05-22T10:43:40Z</time>
      </trkpt>
      <trkpt lat="37.9926320" lon="-5.6627730">
        <ele>575.4</ele>
        <time>2022-05-22T10:43:42Z</time>
      </trkpt>
      <trkpt lat="37.9926320" lon="-5.6627910">
        <ele>575.3</ele>
        <time>2022-05-22T10:43:43Z</time>
      </trkpt>
      <trkpt lat="37.9926320" lon="-5.6628080">
        <ele>575.3</ele>
        <time>2022-05-22T10:43:44Z</time>
      </trkpt>
      <trkpt lat="37.9926290" lon="-5.6628280">
        <ele>575.3</ele>
        <time>2022-05-22T10:43:45Z</time>
      </trkpt>
      <trkpt lat="37.9926280" lon="-5.6628460">
        <ele>575.2</ele>
        <time>2022-05-22T10:43:46Z</time>
      </trkpt>
      <trkpt lat="37.9926250" lon="-5.6628640">
        <ele>575.2</ele>
        <time>2022-05-22T10:43:47Z</time>
      </trkpt>
      <trkpt lat="37.9926200" lon="-5.6628840">
        <ele>575.1</ele>
        <time>2022-05-22T10:43:48Z</time>
      </trkpt>
      <trkpt lat="37.9926120" lon="-5.6629190">
        <ele>575.1</ele>
        <time>2022-05-22T10:43:49Z</time>
      </trkpt>
      <trkpt lat="37.9926090" lon="-5.6629300">
        <ele>575.1</ele>
        <time>2022-05-22T10:43:50Z</time>
      </trkpt>
      <trkpt lat="37.9926060" lon="-5.6629520">
        <ele>575.0</ele>
        <time>2022-05-22T10:43:52Z</time>
      </trkpt>
      <trkpt lat="37.9926030" lon="-5.6629710">
        <ele>575.0</ele>
        <time>2022-05-22T10:43:53Z</time>
      </trkpt>
      <trkpt lat="37.9925950" lon="-5.6630050">
        <ele>574.9</ele>
        <time>2022-05-22T10:43:54Z</time>
      </trkpt>
      <trkpt lat="37.9925910" lon="-5.6630200">
        <ele>574.9</ele>
        <time>2022-05-22T10:43:55Z</time>
      </trkpt>
      <trkpt lat="37.9925890" lon="-5.6630320">
        <ele>574.9</ele>
        <time>2022-05-22T10:43:56Z</time>
      </trkpt>
      <trkpt lat="37.9925860" lon="-5.6630460">
        <ele>574.8</ele>
        <time>2022-05-22T10:43:57Z</time>
      </trkpt>
      <trkpt lat="37.9925820" lon="-5.6630610">
        <ele>574.8</ele>
        <time>2022-05-22T10:43:58Z</time>
      </trkpt>
      <trkpt lat="37.9925790" lon="-5.6630760">
        <ele>574.8</ele>
        <time>2022-05-22T10:43:59Z</time>
      </trkpt>
      <trkpt lat="37.9925780" lon="-5.6630930">
        <ele>574.7</ele>
        <time>2022-05-22T10:44:00Z</time>
      </trkpt>
      <trkpt lat="37.9925780" lon="-5.6631040">
        <ele>574.7</ele>
        <time>2022-05-22T10:44:01Z</time>
      </trkpt>
      <trkpt lat="37.9925750" lon="-5.6631280">
        <ele>574.7</ele>
        <time>2022-05-22T10:44:02Z</time>
      </trkpt>
      <trkpt lat="37.9925730" lon="-5.6631390">
        <ele>574.6</ele>
        <time>2022-05-22T10:44:03Z</time>
      </trkpt>
      <trkpt lat="37.9925700" lon="-5.6631500">
        <ele>574.6</ele>
        <time>2022-05-22T10:44:04Z</time>
      </trkpt>
      <trkpt lat="37.9925670" lon="-5.6631640">
        <ele>574.6</ele>
        <time>2022-05-22T10:44:05Z</time>
      </trkpt>
      <trkpt lat="37.9925610" lon="-5.6631810">
        <ele>574.6</ele>
        <time>2022-05-22T10:44:06Z</time>
      </trkpt>
      <trkpt lat="37.9925570" lon="-5.6631910">
        <ele>574.5</ele>
        <time>2022-05-22T10:44:07Z</time>
      </trkpt>
      <trkpt lat="37.9925510" lon="-5.6632020">
        <ele>574.5</ele>
        <time>2022-05-22T10:44:08Z</time>
      </trkpt>
      <trkpt lat="37.9925450" lon="-5.6632150">
        <ele>574.5</ele>
        <time>2022-05-22T10:44:09Z</time>
      </trkpt>
      <trkpt lat="37.9925400" lon="-5.6632250">
        <ele>574.4</ele>
        <time>2022-05-22T10:44:10Z</time>
      </trkpt>
      <trkpt lat="37.9925280" lon="-5.6632590">
        <ele>574.4</ele>
        <time>2022-05-22T10:44:11Z</time>
      </trkpt>
      <trkpt lat="37.9925230" lon="-5.6632730">
        <ele>574.3</ele>
        <time>2022-05-22T10:44:13Z</time>
      </trkpt>
      <trkpt lat="37.9925180" lon="-5.6632880">
        <ele>574.3</ele>
        <time>2022-05-22T10:44:14Z</time>
      </trkpt>
      <trkpt lat="37.9925140" lon="-5.6633030">
        <ele>574.3</ele>
        <time>2022-05-22T10:44:15Z</time>
      </trkpt>
      <trkpt lat="37.9925090" lon="-5.6633170">
        <ele>574.2</ele>
        <time>2022-05-22T10:44:16Z</time>
      </trkpt>
      <trkpt lat="37.9924970" lon="-5.6633570">
        <ele>574.2</ele>
        <time>2022-05-22T10:44:18Z</time>
      </trkpt>
      <trkpt lat="37.9924940" lon="-5.6633670">
        <ele>574.1</ele>
        <time>2022-05-22T10:44:19Z</time>
      </trkpt>
      <trkpt lat="37.9924890" lon="-5.6633840">
        <ele>574.1</ele>
        <time>2022-05-22T10:44:20Z</time>
      </trkpt>
      <trkpt lat="37.9924850" lon="-5.6634000">
        <ele>574.1</ele>
        <time>2022-05-22T10:44:21Z</time>
      </trkpt>
      <trkpt lat="37.9924810" lon="-5.6634170">
        <ele>574.0</ele>
        <time>2022-05-22T10:44:22Z</time>
      </trkpt>
      <trkpt lat="37.9924780" lon="-5.6634380">
        <ele>574.0</ele>
        <time>2022-05-22T10:44:23Z</time>
      </trkpt>
      <trkpt lat="37.9924750" lon="-5.6634570">
        <ele>573.9</ele>
        <time>2022-05-22T10:44:25Z</time>
      </trkpt>
      <trkpt lat="37.9924720" lon="-5.6634750">
        <ele>573.9</ele>
        <time>2022-05-22T10:44:26Z</time>
      </trkpt>
      <trkpt lat="37.9924690" lon="-5.6634980">
        <ele>573.9</ele>
        <time>2022-05-22T10:44:27Z</time>
      </trkpt>
      <trkpt lat="37.9924660" lon="-5.6635170">
        <ele>573.8</ele>
        <time>2022-05-22T10:44:28Z</time>
      </trkpt>
      <trkpt lat="37.9924600" lon="-5.6635440">
        <ele>573.8</ele>
        <time>2022-05-22T10:44:30Z</time>
      </trkpt>
      <trkpt lat="37.9924580" lon="-5.6635550">
        <ele>573.8</ele>
        <time>2022-05-22T10:44:31Z</time>
      </trkpt>
      <trkpt lat="37.9924560" lon="-5.6635650">
        <ele>573.8</ele>
        <time>2022-05-22T10:44:32Z</time>
      </trkpt>
      <trkpt lat="37.9924520" lon="-5.6635850">
        <ele>573.7</ele>
        <time>2022-05-22T10:44:33Z</time>
      </trkpt>
      <trkpt lat="37.9924480" lon="-5.6636010">
        <ele>573.7</ele>
        <time>2022-05-22T10:44:34Z</time>
      </trkpt>
      <trkpt lat="37.9924440" lon="-5.6636230">
        <ele>573.7</ele>
        <time>2022-05-22T10:44:35Z</time>
      </trkpt>
      <trkpt lat="37.9924410" lon="-5.6636350">
        <ele>573.6</ele>
        <time>2022-05-22T10:44:36Z</time>
      </trkpt>
      <trkpt lat="37.9924360" lon="-5.6636560">
        <ele>573.6</ele>
        <time>2022-05-22T10:44:37Z</time>
      </trkpt>
      <trkpt lat="37.9924310" lon="-5.6636710">
        <ele>573.6</ele>
        <time>2022-05-22T10:44:38Z</time>
      </trkpt>
      <trkpt lat="37.9924260" lon="-5.6636870">
        <ele>573.5</ele>
        <time>2022-05-22T10:44:39Z</time>
      </trkpt>
      <trkpt lat="37.9924150" lon="-5.6637090">
        <ele>573.5</ele>
        <time>2022-05-22T10:44:40Z</time>
      </trkpt>
      <trkpt lat="37.9924090" lon="-5.6637180">
        <ele>573.5</ele>
        <time>2022-05-22T10:44:41Z</time>
      </trkpt>
      <trkpt lat="37.9924030" lon="-5.6637300">
        <ele>573.4</ele>
        <time>2022-05-22T10:44:42Z</time>
      </trkpt>
      <trkpt lat="37.9923960" lon="-5.6637440">
        <ele>573.4</ele>
        <time>2022-05-22T10:44:43Z</time>
      </trkpt>
      <trkpt lat="37.9923900" lon="-5.6637600">
        <ele>573.4</ele>
        <time>2022-05-22T10:44:44Z</time>
      </trkpt>
      <trkpt lat="37.9923850" lon="-5.6637760">
        <ele>573.4</ele>
        <time>2022-05-22T10:44:45Z</time>
      </trkpt>
      <trkpt lat="37.9923770" lon="-5.6637980">
        <ele>573.3</ele>
        <time>2022-05-22T10:44:47Z</time>
      </trkpt>
      <trkpt lat="37.9923720" lon="-5.6638110">
        <ele>573.3</ele>
        <time>2022-05-22T10:44:48Z</time>
      </trkpt>
      <trkpt lat="37.9923660" lon="-5.6638390">
        <ele>573.2</ele>
        <time>2022-05-22T10:44:49Z</time>
      </trkpt>
      <trkpt lat="37.9923630" lon="-5.6638490">
        <ele>573.2</ele>
        <time>2022-05-22T10:44:50Z</time>
      </trkpt>
      <trkpt lat="37.9923610" lon="-5.6638600">
        <ele>573.2</ele>
        <time>2022-05-22T10:44:51Z</time>
      </trkpt>
      <trkpt lat="37.9923550" lon="-5.6638870">
        <ele>573.1</ele>
        <time>2022-05-22T10:44:52Z</time>
      </trkpt>
      <trkpt lat="37.9923530" lon="-5.6638970">
        <ele>573.1</ele>
        <time>2022-05-22T10:44:53Z</time>
      </trkpt>
      <trkpt lat="37.9923510" lon="-5.6639070">
        <ele>573.1</ele>
        <time>2022-05-22T10:44:54Z</time>
      </trkpt>
      <trkpt lat="37.9923480" lon="-5.6639210">
        <ele>573.1</ele>
        <time>2022-05-22T10:44:55Z</time>
      </trkpt>
      <trkpt lat="37.9923450" lon="-5.6639340">
        <ele>573.1</ele>
        <time>2022-05-22T10:44:56Z</time>
      </trkpt>
      <trkpt lat="37.9923420" lon="-5.6639580">
        <ele>573.0</ele>
        <time>2022-05-22T10:44:58Z</time>
      </trkpt>
      <trkpt lat="37.9923410" lon="-5.6639720">
        <ele>573.0</ele>
        <time>2022-05-22T10:44:59Z</time>
      </trkpt>
      <trkpt lat="37.9923410" lon="-5.6639940">
        <ele>572.9</ele>
        <time>2022-05-22T10:45:00Z</time>
      </trkpt>
      <trkpt lat="37.9923410" lon="-5.6640070">
        <ele>572.9</ele>
        <time>2022-05-22T10:45:01Z</time>
      </trkpt>
      <trkpt lat="37.9923450" lon="-5.6640350">
        <ele>572.9</ele>
        <time>2022-05-22T10:45:03Z</time>
      </trkpt>
      <trkpt lat="37.9923460" lon="-5.6640460">
        <ele>572.9</ele>
        <time>2022-05-22T10:45:04Z</time>
      </trkpt>
      <trkpt lat="37.9923450" lon="-5.6640590">
        <ele>572.8</ele>
        <time>2022-05-22T10:45:05Z</time>
      </trkpt>
      <trkpt lat="37.9923430" lon="-5.6640730">
        <ele>572.8</ele>
        <time>2022-05-22T10:45:06Z</time>
      </trkpt>
      <trkpt lat="37.9923400" lon="-5.6640840">
        <ele>572.8</ele>
        <time>2022-05-22T10:45:07Z</time>
      </trkpt>
      <trkpt lat="37.9923350" lon="-5.6640980">
        <ele>572.8</ele>
        <time>2022-05-22T10:45:08Z</time>
      </trkpt>
      <trkpt lat="37.9923300" lon="-5.6641160">
        <ele>572.7</ele>
        <time>2022-05-22T10:45:10Z</time>
      </trkpt>
      <trkpt lat="37.9923220" lon="-5.6641390">
        <ele>572.7</ele>
        <time>2022-05-22T10:45:11Z</time>
      </trkpt>
      <trkpt lat="37.9923180" lon="-5.6641500">
        <ele>572.7</ele>
        <time>2022-05-22T10:45:12Z</time>
      </trkpt>
      <trkpt lat="37.9923140" lon="-5.6641610">
        <ele>572.7</ele>
        <time>2022-05-22T10:45:13Z</time>
      </trkpt>
      <trkpt lat="37.9923030" lon="-5.6641920">
        <ele>572.6</ele>
        <time>2022-05-22T10:45:14Z</time>
      </trkpt>
      <trkpt lat="37.9923000" lon="-5.6642050">
        <ele>572.6</ele>
        <time>2022-05-22T10:45:16Z</time>
      </trkpt>
      <trkpt lat="37.9922980" lon="-5.6642170">
        <ele>572.6</ele>
        <time>2022-05-22T10:45:17Z</time>
      </trkpt>
      <trkpt lat="37.9922950" lon="-5.6642300">
        <ele>572.5</ele>
        <time>2022-05-22T10:45:18Z</time>
      </trkpt>
      <trkpt lat="37.9922920" lon="-5.6642420">
        <ele>572.5</ele>
        <time>2022-05-22T10:45:19Z</time>
      </trkpt>
      <trkpt lat="37.9922890" lon="-5.6642750">
        <ele>572.5</ele>
        <time>2022-05-22T10:45:20Z</time>
      </trkpt>
      <trkpt lat="37.9922880" lon="-5.6642930">
        <ele>572.5</ele>
        <time>2022-05-22T10:45:22Z</time>
      </trkpt>
      <trkpt lat="37.9922870" lon="-5.6643210">
        <ele>572.4</ele>
        <time>2022-05-22T10:45:23Z</time>
      </trkpt>
      <trkpt lat="37.9922870" lon="-5.6643330">
        <ele>572.4</ele>
        <time>2022-05-22T10:45:24Z</time>
      </trkpt>
      <trkpt lat="37.9922870" lon="-5.6643440">
        <ele>572.4</ele>
        <time>2022-05-22T10:45:25Z</time>
      </trkpt>
      <trkpt lat="37.9922860" lon="-5.6643650">
        <ele>572.4</ele>
        <time>2022-05-22T10:45:26Z</time>
      </trkpt>
      <trkpt lat="37.9922850" lon="-5.6643800">
        <ele>572.3</ele>
        <time>2022-05-22T10:45:27Z</time>
      </trkpt>
      <trkpt lat="37.9922830" lon="-5.6643950">
        <ele>572.3</ele>
        <time>2022-05-22T10:45:28Z</time>
      </trkpt>
      <trkpt lat="37.9922820" lon="-5.6644160">
        <ele>572.3</ele>
        <time>2022-05-22T10:45:29Z</time>
      </trkpt>
      <trkpt lat="37.9922830" lon="-5.6644330">
        <ele>572.3</ele>
        <time>2022-05-22T10:45:30Z</time>
      </trkpt>
      <trkpt lat="37.9922840" lon="-5.6644570">
        <ele>572.3</ele>
        <time>2022-05-22T10:45:31Z</time>
      </trkpt>
      <trkpt lat="37.9922840" lon="-5.6644810">
        <ele>572.2</ele>
        <time>2022-05-22T10:45:33Z</time>
      </trkpt>
      <trkpt lat="37.9922830" lon="-5.6644970">
        <ele>572.2</ele>
        <time>2022-05-22T10:45:34Z</time>
      </trkpt>
      <trkpt lat="37.9922820" lon="-5.6645170">
        <ele>572.2</ele>
        <time>2022-05-22T10:45:35Z</time>
      </trkpt>
      <trkpt lat="37.9922820" lon="-5.6645330">
        <ele>572.2</ele>
        <time>2022-05-22T10:45:36Z</time>
      </trkpt>
      <trkpt lat="37.9922770" lon="-5.6645660">
        <ele>572.1</ele>
        <time>2022-05-22T10:45:38Z</time>
      </trkpt>
      <trkpt lat="37.9922750" lon="-5.6645760">
        <ele>572.1</ele>
        <time>2022-05-22T10:45:39Z</time>
      </trkpt>
      <trkpt lat="37.9922730" lon="-5.6645860">
        <ele>572.1</ele>
        <time>2022-05-22T10:45:40Z</time>
      </trkpt>
      <trkpt lat="37.9922660" lon="-5.6646130">
        <ele>572.1</ele>
        <time>2022-05-22T10:45:41Z</time>
      </trkpt>
      <trkpt lat="37.9922640" lon="-5.6646250">
        <ele>572.1</ele>
        <time>2022-05-22T10:45:42Z</time>
      </trkpt>
      <trkpt lat="37.9922620" lon="-5.6646370">
        <ele>572.0</ele>
        <time>2022-05-22T10:45:43Z</time>
      </trkpt>
      <trkpt lat="37.9922600" lon="-5.6646570">
        <ele>572.0</ele>
        <time>2022-05-22T10:45:45Z</time>
      </trkpt>
      <trkpt lat="37.9922550" lon="-5.6646790">
        <ele>572.0</ele>
        <time>2022-05-22T10:45:46Z</time>
      </trkpt>
      <trkpt lat="37.9922510" lon="-5.6646960">
        <ele>572.0</ele>
        <time>2022-05-22T10:45:47Z</time>
      </trkpt>
      <trkpt lat="37.9922480" lon="-5.6647130">
        <ele>571.9</ele>
        <time>2022-05-22T10:45:48Z</time>
      </trkpt>
      <trkpt lat="37.9922450" lon="-5.6647360">
        <ele>571.9</ele>
        <time>2022-05-22T10:45:50Z</time>
      </trkpt>
      <trkpt lat="37.9922430" lon="-5.6647540">
        <ele>571.9</ele>
        <time>2022-05-22T10:45:51Z</time>
      </trkpt>
      <trkpt lat="37.9922390" lon="-5.6647810">
        <ele>571.8</ele>
        <time>2022-05-22T10:45:52Z</time>
      </trkpt>
      <trkpt lat="37.9922380" lon="-5.6647920">
        <ele>571.8</ele>
        <time>2022-05-22T10:45:53Z</time>
      </trkpt>
      <trkpt lat="37.9922360" lon="-5.6648040">
        <ele>571.8</ele>
        <time>2022-05-22T10:45:54Z</time>
      </trkpt>
      <trkpt lat="37.9922340" lon="-5.6648150">
        <ele>571.8</ele>
        <time>2022-05-22T10:45:55Z</time>
      </trkpt>
      <trkpt lat="37.9922320" lon="-5.6648290">
        <ele>571.8</ele>
        <time>2022-05-22T10:45:56Z</time>
      </trkpt>
      <trkpt lat="37.9922260" lon="-5.6648530">
        <ele>571.7</ele>
        <time>2022-05-22T10:45:58Z</time>
      </trkpt>
      <trkpt lat="37.9922180" lon="-5.6648760">
        <ele>571.7</ele>
        <time>2022-05-22T10:45:59Z</time>
      </trkpt>
      <trkpt lat="37.9922150" lon="-5.6648850">
        <ele>571.7</ele>
        <time>2022-05-22T10:46:00Z</time>
      </trkpt>
      <trkpt lat="37.9922110" lon="-5.6648940">
        <ele>571.7</ele>
        <time>2022-05-22T10:46:01Z</time>
      </trkpt>
      <trkpt lat="37.9922060" lon="-5.6649050">
        <ele>571.7</ele>
        <time>2022-05-22T10:46:02Z</time>
      </trkpt>
      <trkpt lat="37.9922000" lon="-5.6649140">
        <ele>571.6</ele>
        <time>2022-05-22T10:46:03Z</time>
      </trkpt>
      <trkpt lat="37.9921940" lon="-5.6649260">
        <ele>571.6</ele>
        <time>2022-05-22T10:46:04Z</time>
      </trkpt>
      <trkpt lat="37.9921860" lon="-5.6649370">
        <ele>571.6</ele>
        <time>2022-05-22T10:46:05Z</time>
      </trkpt>
      <trkpt lat="37.9921770" lon="-5.6649510">
        <ele>571.6</ele>
        <time>2022-05-22T10:46:06Z</time>
      </trkpt>
      <trkpt lat="37.9921690" lon="-5.6649590">
        <ele>571.6</ele>
        <time>2022-05-22T10:46:07Z</time>
      </trkpt>
      <trkpt lat="37.9921620" lon="-5.6649670">
        <ele>571.6</ele>
        <time>2022-05-22T10:46:08Z</time>
      </trkpt>
      <trkpt lat="37.9921530" lon="-5.6649780">
        <ele>571.5</ele>
        <time>2022-05-22T10:46:09Z</time>
      </trkpt>
      <trkpt lat="37.9921440" lon="-5.6649900">
        <ele>571.5</ele>
        <time>2022-05-22T10:46:10Z</time>
      </trkpt>
      <trkpt lat="37.9921270" lon="-5.6650180">
        <ele>571.5</ele>
        <time>2022-05-22T10:46:12Z</time>
      </trkpt>
      <trkpt lat="37.9921220" lon="-5.6650270">
        <ele>571.5</ele>
        <time>2022-05-22T10:46:13Z</time>
      </trkpt>
      <trkpt lat="37.9921180" lon="-5.6650390">
        <ele>571.5</ele>
        <time>2022-05-22T10:46:14Z</time>
      </trkpt>
      <trkpt lat="37.9921130" lon="-5.6650540">
        <ele>571.4</ele>
        <time>2022-05-22T10:46:15Z</time>
      </trkpt>
      <trkpt lat="37.9921080" lon="-5.6650690">
        <ele>571.4</ele>
        <time>2022-05-22T10:46:16Z</time>
      </trkpt>
      <trkpt lat="37.9921020" lon="-5.6650910">
        <ele>571.4</ele>
        <time>2022-05-22T10:46:17Z</time>
      </trkpt>
      <trkpt lat="37.9920990" lon="-5.6651100">
        <ele>571.4</ele>
        <time>2022-05-22T10:46:19Z</time>
      </trkpt>
      <trkpt lat="37.9920980" lon="-5.6651270">
        <ele>571.4</ele>
        <time>2022-05-22T10:46:20Z</time>
      </trkpt>
      <trkpt lat="37.9920970" lon="-5.6651430">
        <ele>571.4</ele>
        <time>2022-05-22T10:46:21Z</time>
      </trkpt>
      <trkpt lat="37.9920960" lon="-5.6651540">
        <ele>571.3</ele>
        <time>2022-05-22T10:46:22Z</time>
      </trkpt>
      <trkpt lat="37.9921020" lon="-5.6651940">
        <ele>571.3</ele>
        <time>2022-05-22T10:46:24Z</time>
      </trkpt>
      <trkpt lat="37.9921040" lon="-5.6652010">
        <ele>571.3</ele>
        <time>2022-05-22T10:46:25Z</time>
      </trkpt>
      <trkpt lat="37.9921120" lon="-5.6652170">
        <ele>571.2</ele>
        <time>2022-05-22T10:46:26Z</time>
      </trkpt>
      <trkpt lat="37.9921230" lon="-5.6652270">
        <ele>571.2</ele>
        <time>2022-05-22T10:46:27Z</time>
      </trkpt>
      <trkpt lat="37.9921370" lon="-5.6652480">
        <ele>571.2</ele>
        <time>2022-05-22T10:46:29Z</time>
      </trkpt>
      <trkpt lat="37.9921460" lon="-5.6652600">
        <ele>571.2</ele>
        <time>2022-05-22T10:46:30Z</time>
      </trkpt>
      <trkpt lat="37.9921520" lon="-5.6652700">
        <ele>571.2</ele>
        <time>2022-05-22T10:46:31Z</time>
      </trkpt>
      <trkpt lat="37.9921580" lon="-5.6652800">
        <ele>571.1</ele>
        <time>2022-05-22T10:46:32Z</time>
      </trkpt>
      <trkpt lat="37.9921660" lon="-5.6652920">
        <ele>571.1</ele>
        <time>2022-05-22T10:46:34Z</time>
      </trkpt>
      <trkpt lat="37.9921790" lon="-5.6653130">
        <ele>571.1</ele>
        <time>2022-05-22T10:46:35Z</time>
      </trkpt>
      <trkpt lat="37.9921880" lon="-5.6653260">
        <ele>571.1</ele>
        <time>2022-05-22T10:46:36Z</time>
      </trkpt>
      <trkpt lat="37.9922000" lon="-5.6653470">
        <ele>571.1</ele>
        <time>2022-05-22T10:46:37Z</time>
      </trkpt>
      <trkpt lat="37.9922040" lon="-5.6653560">
        <ele>571.0</ele>
        <time>2022-05-22T10:46:38Z</time>
      </trkpt>
      <trkpt lat="37.9922090" lon="-5.6653650">
        <ele>571.0</ele>
        <time>2022-05-22T10:46:39Z</time>
      </trkpt>
      <trkpt lat="37.9922170" lon="-5.6653810">
        <ele>571.0</ele>
        <time>2022-05-22T10:46:40Z</time>
      </trkpt>
      <trkpt lat="37.9922240" lon="-5.6653950">
        <ele>571.0</ele>
        <time>2022-05-22T10:46:41Z</time>
      </trkpt>
      <trkpt lat="37.9922300" lon="-5.6654060">
        <ele>571.0</ele>
        <time>2022-05-22T10:46:42Z</time>
      </trkpt>
      <trkpt lat="37.9922340" lon="-5.6654150">
        <ele>571.0</ele>
        <time>2022-05-22T10:46:43Z</time>
      </trkpt>
      <trkpt lat="37.9922400" lon="-5.6654270">
        <ele>571.0</ele>
        <time>2022-05-22T10:46:44Z</time>
      </trkpt>
      <trkpt lat="37.9922470" lon="-5.6654410">
        <ele>570.9</ele>
        <time>2022-05-22T10:46:45Z</time>
      </trkpt>
      <trkpt lat="37.9922540" lon="-5.6654580">
        <ele>570.9</ele>
        <time>2022-05-22T10:46:46Z</time>
      </trkpt>
      <trkpt lat="37.9922590" lon="-5.6654690">
        <ele>570.9</ele>
        <time>2022-05-22T10:46:47Z</time>
      </trkpt>
      <trkpt lat="37.9922630" lon="-5.6654810">
        <ele>570.9</ele>
        <time>2022-05-22T10:46:48Z</time>
      </trkpt>
      <trkpt lat="37.9922670" lon="-5.6654940">
        <ele>570.9</ele>
        <time>2022-05-22T10:46:49Z</time>
      </trkpt>
      <trkpt lat="37.9922710" lon="-5.6655100">
        <ele>570.9</ele>
        <time>2022-05-22T10:46:50Z</time>
      </trkpt>
      <trkpt lat="37.9922750" lon="-5.6655300">
        <ele>570.8</ele>
        <time>2022-05-22T10:46:51Z</time>
      </trkpt>
      <trkpt lat="37.9922790" lon="-5.6655440">
        <ele>570.8</ele>
        <time>2022-05-22T10:46:52Z</time>
      </trkpt>
      <trkpt lat="37.9922820" lon="-5.6655560">
        <ele>570.8</ele>
        <time>2022-05-22T10:46:53Z</time>
      </trkpt>
      <trkpt lat="37.9922860" lon="-5.6655700">
        <ele>570.8</ele>
        <time>2022-05-22T10:46:54Z</time>
      </trkpt>
      <trkpt lat="37.9922940" lon="-5.6655940">
        <ele>570.8</ele>
        <time>2022-05-22T10:46:55Z</time>
      </trkpt>
      <trkpt lat="37.9922980" lon="-5.6656050">
        <ele>570.8</ele>
        <time>2022-05-22T10:46:56Z</time>
      </trkpt>
      <trkpt lat="37.9923020" lon="-5.6656160">
        <ele>570.8</ele>
        <time>2022-05-22T10:46:57Z</time>
      </trkpt>
      <trkpt lat="37.9923080" lon="-5.6656270">
        <ele>570.7</ele>
        <time>2022-05-22T10:46:58Z</time>
      </trkpt>
      <trkpt lat="37.9923140" lon="-5.6656370">
        <ele>570.7</ele>
        <time>2022-05-22T10:46:59Z</time>
      </trkpt>
      <trkpt lat="37.9923200" lon="-5.6656490">
        <ele>570.7</ele>
        <time>2022-05-22T10:47:00Z</time>
      </trkpt>
      <trkpt lat="37.9923300" lon="-5.6656740">
        <ele>570.7</ele>
        <time>2022-05-22T10:47:01Z</time>
      </trkpt>
      <trkpt lat="37.9923340" lon="-5.6656850">
        <ele>570.7</ele>
        <time>2022-05-22T10:47:02Z</time>
      </trkpt>
      <trkpt lat="37.9923380" lon="-5.6656950">
        <ele>570.6</ele>
        <time>2022-05-22T10:47:03Z</time>
      </trkpt>
      <trkpt lat="37.9923450" lon="-5.6657200">
        <ele>570.6</ele>
        <time>2022-05-22T10:47:04Z</time>
      </trkpt>
      <trkpt lat="37.9923490" lon="-5.6657330">
        <ele>570.6</ele>
        <time>2022-05-22T10:47:06Z</time>
      </trkpt>
      <trkpt lat="37.9923530" lon="-5.6657460">
        <ele>570.6</ele>
        <time>2022-05-22T10:47:07Z</time>
      </trkpt>
      <trkpt lat="37.9923580" lon="-5.6657650">
        <ele>570.5</ele>
        <time>2022-05-22T10:47:08Z</time>
      </trkpt>
      <trkpt lat="37.9923620" lon="-5.6657800">
        <ele>570.5</ele>
        <time>2022-05-22T10:47:09Z</time>
      </trkpt>
      <trkpt lat="37.9923680" lon="-5.6657940">
        <ele>570.5</ele>
        <time>2022-05-22T10:47:10Z</time>
      </trkpt>
      <trkpt lat="37.9923730" lon="-5.6658080">
        <ele>570.5</ele>
        <time>2022-05-22T10:47:11Z</time>
      </trkpt>
      <trkpt lat="37.9923790" lon="-5.6658260">
        <ele>570.4</ele>
        <time>2022-05-22T10:47:13Z</time>
      </trkpt>
      <trkpt lat="37.9923880" lon="-5.6658510">
        <ele>570.4</ele>
        <time>2022-05-22T10:47:14Z</time>
      </trkpt>
      <trkpt lat="37.9923960" lon="-5.6658640">
        <ele>570.4</ele>
        <time>2022-05-22T10:47:15Z</time>
      </trkpt>
      <trkpt lat="37.9924060" lon="-5.6658800">
        <ele>570.3</ele>
        <time>2022-05-22T10:47:17Z</time>
      </trkpt>
      <trkpt lat="37.9924130" lon="-5.6658960">
        <ele>570.3</ele>
        <time>2022-05-22T10:47:18Z</time>
      </trkpt>
      <trkpt lat="37.9924370" lon="-5.6659150">
        <ele>570.2</ele>
        <time>2022-05-22T10:47:19Z</time>
      </trkpt>
      <trkpt lat="37.9924490" lon="-5.6659200">
        <ele>570.2</ele>
        <time>2022-05-22T10:47:20Z</time>
      </trkpt>
      <trkpt lat="37.9924590" lon="-5.6659290">
        <ele>570.2</ele>
        <time>2022-05-22T10:47:21Z</time>
      </trkpt>
      <trkpt lat="37.9924720" lon="-5.6659420">
        <ele>570.1</ele>
        <time>2022-05-22T10:47:23Z</time>
      </trkpt>
      <trkpt lat="37.9924870" lon="-5.6659550">
        <ele>570.0</ele>
        <time>2022-05-22T10:47:24Z</time>
      </trkpt>
      <trkpt lat="37.9924930" lon="-5.6659510">
        <ele>570.0</ele>
        <time>2022-05-22T10:47:25Z</time>
      </trkpt>
      <trkpt lat="37.9924970" lon="-5.6659490">
        <ele>570.1</ele>
        <time>2022-05-22T10:47:26Z</time>
      </trkpt>
      <trkpt lat="37.9924990" lon="-5.6659500">
        <ele>570.1</ele>
        <time>2022-05-22T10:47:27Z</time>
      </trkpt>
      <trkpt lat="37.9925030" lon="-5.6659560">
        <ele>570.1</ele>
        <time>2022-05-22T10:47:28Z</time>
      </trkpt>
      <trkpt lat="37.9925100" lon="-5.6659640">
        <ele>570.1</ele>
        <time>2022-05-22T10:47:29Z</time>
      </trkpt>
      <trkpt lat="37.9925180" lon="-5.6659720">
        <ele>570.0</ele>
        <time>2022-05-22T10:47:30Z</time>
      </trkpt>
      <trkpt lat="37.9925340" lon="-5.6659850">
        <ele>569.9</ele>
        <time>2022-05-22T10:47:32Z</time>
      </trkpt>
      <trkpt lat="37.9925520" lon="-5.6659990">
        <ele>569.8</ele>
        <time>2022-05-22T10:47:33Z</time>
      </trkpt>
      <trkpt lat="37.9925590" lon="-5.6660040">
        <ele>569.8</ele>
        <time>2022-05-22T10:47:34Z</time>
      </trkpt>
      <trkpt lat="37.9925660" lon="-5.6660090">
        <ele>569.9</ele>
        <time>2022-05-22T10:47:35Z</time>
      </trkpt>
      <trkpt lat="37.9925840" lon="-5.6660160">
        <ele>569.8</ele>
        <time>2022-05-22T10:47:36Z</time>
      </trkpt>
      <trkpt lat="37.9925920" lon="-5.6660190">
        <ele>569.8</ele>
        <time>2022-05-22T10:47:37Z</time>
      </trkpt>
      <trkpt lat="37.9926000" lon="-5.6660220">
        <ele>569.8</ele>
        <time>2022-05-22T10:47:38Z</time>
      </trkpt>
      <trkpt lat="37.9926050" lon="-5.6660240">
        <ele>569.8</ele>
        <time>2022-05-22T10:47:39Z</time>
      </trkpt>
      <trkpt lat="37.9926070" lon="-5.6660260">
        <ele>569.8</ele>
        <time>2022-05-22T10:47:40Z</time>
      </trkpt>
      <trkpt lat="37.9926070" lon="-5.6660270">
        <ele>569.8</ele>
        <time>2022-05-22T10:47:41Z</time>
      </trkpt>
      <trkpt lat="37.9926050" lon="-5.6660280">
        <ele>569.7</ele>
        <time>2022-05-22T10:47:42Z</time>
      </trkpt>
      <trkpt lat="37.9926060" lon="-5.6660300">
        <ele>569.8</ele>
        <time>2022-05-22T10:47:43Z</time>
      </trkpt>
      <trkpt lat="37.9926100" lon="-5.6660350">
        <ele>569.8</ele>
        <time>2022-05-22T10:47:44Z</time>
      </trkpt>
      <trkpt lat="37.9926140" lon="-5.6660370">
        <ele>569.7</ele>
        <time>2022-05-22T10:47:45Z</time>
      </trkpt>
      <trkpt lat="37.9926190" lon="-5.6660390">
        <ele>569.7</ele>
        <time>2022-05-22T10:47:46Z</time>
      </trkpt>
      <trkpt lat="37.9926260" lon="-5.6660430">
        <ele>569.8</ele>
        <time>2022-05-22T10:47:47Z</time>
      </trkpt>
      <trkpt lat="37.9926330" lon="-5.6660520">
        <ele>569.8</ele>
        <time>2022-05-22T10:47:48Z</time>
      </trkpt>
      <trkpt lat="37.9926390" lon="-5.6660660">
        <ele>569.8</ele>
        <time>2022-05-22T10:47:50Z</time>
      </trkpt>
      <trkpt lat="37.9926450" lon="-5.6660800">
        <ele>569.7</ele>
        <time>2022-05-22T10:47:51Z</time>
      </trkpt>
      <trkpt lat="37.9926500" lon="-5.6660930">
        <ele>569.7</ele>
        <time>2022-05-22T10:47:52Z</time>
      </trkpt>
      <trkpt lat="37.9926480" lon="-5.6660950">
        <ele>569.7</ele>
        <time>2022-05-22T10:47:53Z</time>
      </trkpt>
      <trkpt lat="37.9926480" lon="-5.6660970">
        <ele>569.7</ele>
        <time>2022-05-22T10:47:55Z</time>
      </trkpt>
      <trkpt lat="37.9926480" lon="-5.6660980">
        <ele>569.7</ele>
        <time>2022-05-22T10:47:56Z</time>
      </trkpt>
      <trkpt lat="37.9926480" lon="-5.6661030">
        <ele>569.7</ele>
        <time>2022-05-22T10:47:57Z</time>
      </trkpt>
      <trkpt lat="37.9926520" lon="-5.6661110">
        <ele>569.7</ele>
        <time>2022-05-22T10:47:58Z</time>
      </trkpt>
      <trkpt lat="37.9926570" lon="-5.6661220">
        <ele>569.6</ele>
        <time>2022-05-22T10:48:00Z</time>
      </trkpt>
      <trkpt lat="37.9926600" lon="-5.6661310">
        <ele>569.6</ele>
        <time>2022-05-22T10:48:01Z</time>
      </trkpt>
      <trkpt lat="37.9926670" lon="-5.6661450">
        <ele>569.6</ele>
        <time>2022-05-22T10:48:02Z</time>
      </trkpt>
      <trkpt lat="37.9926770" lon="-5.6661610">
        <ele>569.6</ele>
        <time>2022-05-22T10:48:04Z</time>
      </trkpt>
      <trkpt lat="37.9926840" lon="-5.6661700">
        <ele>569.6</ele>
        <time>2022-05-22T10:48:05Z</time>
      </trkpt>
      <trkpt lat="37.9926940" lon="-5.6661820">
        <ele>569.6</ele>
        <time>2022-05-22T10:48:06Z</time>
      </trkpt>
      <trkpt lat="37.9926960" lon="-5.6661830">
        <ele>569.6</ele>
        <time>2022-05-22T10:48:07Z</time>
      </trkpt>
      <trkpt lat="37.9926970" lon="-5.6661850">
        <ele>569.6</ele>
        <time>2022-05-22T10:48:09Z</time>
      </trkpt>
      <trkpt lat="37.9926990" lon="-5.6661880">
        <ele>569.6</ele>
        <time>2022-05-22T10:48:10Z</time>
      </trkpt>
      <trkpt lat="37.9927080" lon="-5.6661960">
        <ele>569.6</ele>
        <time>2022-05-22T10:48:11Z</time>
      </trkpt>
      <trkpt lat="37.9927180" lon="-5.6662070">
        <ele>569.5</ele>
        <time>2022-05-22T10:48:12Z</time>
      </trkpt>
      <trkpt lat="37.9927220" lon="-5.6662140">
        <ele>569.5</ele>
        <time>2022-05-22T10:48:13Z</time>
      </trkpt>
      <trkpt lat="37.9927300" lon="-5.6662260">
        <ele>569.5</ele>
        <time>2022-05-22T10:48:14Z</time>
      </trkpt>
      <trkpt lat="37.9927360" lon="-5.6662380">
        <ele>569.5</ele>
        <time>2022-05-22T10:48:15Z</time>
      </trkpt>
      <trkpt lat="37.9927530" lon="-5.6662690">
        <ele>569.3</ele>
        <time>2022-05-22T10:48:17Z</time>
      </trkpt>
      <trkpt lat="37.9927590" lon="-5.6662790">
        <ele>569.3</ele>
        <time>2022-05-22T10:48:18Z</time>
      </trkpt>
      <trkpt lat="37.9927710" lon="-5.6663000">
        <ele>569.2</ele>
        <time>2022-05-22T10:48:19Z</time>
      </trkpt>
      <trkpt lat="37.9927800" lon="-5.6663120">
        <ele>569.2</ele>
        <time>2022-05-22T10:48:20Z</time>
      </trkpt>
      <trkpt lat="37.9927900" lon="-5.6663250">
        <ele>569.1</ele>
        <time>2022-05-22T10:48:21Z</time>
      </trkpt>
      <trkpt lat="37.9928070" lon="-5.6663450">
        <ele>569.0</ele>
        <time>2022-05-22T10:48:23Z</time>
      </trkpt>
      <trkpt lat="37.9928270" lon="-5.6663720">
        <ele>568.7</ele>
        <time>2022-05-22T10:48:24Z</time>
      </trkpt>
      <trkpt lat="37.9928310" lon="-5.6663790">
        <ele>568.7</ele>
        <time>2022-05-22T10:48:25Z</time>
      </trkpt>
      <trkpt lat="37.9928440" lon="-5.6664010">
        <ele>568.7</ele>
        <time>2022-05-22T10:48:26Z</time>
      </trkpt>
      <trkpt lat="37.9928480" lon="-5.6664100">
        <ele>568.7</ele>
        <time>2022-05-22T10:48:27Z</time>
      </trkpt>
      <trkpt lat="37.9928530" lon="-5.6664190">
        <ele>568.5</ele>
        <time>2022-05-22T10:48:28Z</time>
      </trkpt>
      <trkpt lat="37.9928680" lon="-5.6664460">
        <ele>568.5</ele>
        <time>2022-05-22T10:48:29Z</time>
      </trkpt>
      <trkpt lat="37.9928740" lon="-5.6664560">
        <ele>568.5</ele>
        <time>2022-05-22T10:48:31Z</time>
      </trkpt>
      <trkpt lat="37.9928810" lon="-5.6664660">
        <ele>568.3</ele>
        <time>2022-05-22T10:48:32Z</time>
      </trkpt>
      <trkpt lat="37.9928870" lon="-5.6664760">
        <ele>568.2</ele>
        <time>2022-05-22T10:48:33Z</time>
      </trkpt>
      <trkpt lat="37.9928940" lon="-5.6664860">
        <ele>568.2</ele>
        <time>2022-05-22T10:48:34Z</time>
      </trkpt>
      <trkpt lat="37.9928980" lon="-5.6664860">
        <ele>568.2</ele>
        <time>2022-05-22T10:48:35Z</time>
      </trkpt>
      <trkpt lat="37.9928980" lon="-5.6664780">
        <ele>568.2</ele>
        <time>2022-05-22T10:48:36Z</time>
      </trkpt>
      <trkpt lat="37.9928990" lon="-5.6664760">
        <ele>568.2</ele>
        <time>2022-05-22T10:48:37Z</time>
      </trkpt>
      <trkpt lat="37.9928990" lon="-5.6664750">
        <ele>568.2</ele>
        <time>2022-05-22T10:48:38Z</time>
      </trkpt>
      <trkpt lat="37.9929020" lon="-5.6664760">
        <ele>568.3</ele>
        <time>2022-05-22T10:48:39Z</time>
      </trkpt>
      <trkpt lat="37.9929080" lon="-5.6664770">
        <ele>568.3</ele>
        <time>2022-05-22T10:48:40Z</time>
      </trkpt>
      <trkpt lat="37.9929130" lon="-5.6664790">
        <ele>568.3</ele>
        <time>2022-05-22T10:48:42Z</time>
      </trkpt>
      <trkpt lat="37.9929190" lon="-5.6664820">
        <ele>568.2</ele>
        <time>2022-05-22T10:48:43Z</time>
      </trkpt>
      <trkpt lat="37.9929270" lon="-5.6664850">
        <ele>568.2</ele>
        <time>2022-05-22T10:48:44Z</time>
      </trkpt>
      <trkpt lat="37.9929390" lon="-5.6664900">
        <ele>568.2</ele>
        <time>2022-05-22T10:48:45Z</time>
      </trkpt>
      <trkpt lat="37.9929460" lon="-5.6664940">
        <ele>568.2</ele>
        <time>2022-05-22T10:48:46Z</time>
      </trkpt>
      <trkpt lat="37.9929500" lon="-5.6665000">
        <ele>568.0</ele>
        <time>2022-05-22T10:48:47Z</time>
      </trkpt>
      <trkpt lat="37.9929540" lon="-5.6665060">
        <ele>568.0</ele>
        <time>2022-05-22T10:48:48Z</time>
      </trkpt>
      <trkpt lat="37.9929560" lon="-5.6665100">
        <ele>568.0</ele>
        <time>2022-05-22T10:48:49Z</time>
      </trkpt>
      <trkpt lat="37.9929610" lon="-5.6665150">
        <ele>568.0</ele>
        <time>2022-05-22T10:48:50Z</time>
      </trkpt>
      <trkpt lat="37.9929670" lon="-5.6665200">
        <ele>568.0</ele>
        <time>2022-05-22T10:48:51Z</time>
      </trkpt>
      <trkpt lat="37.9929760" lon="-5.6665280">
        <ele>568.0</ele>
        <time>2022-05-22T10:48:52Z</time>
      </trkpt>
      <trkpt lat="37.9929820" lon="-5.6665300">
        <ele>568.0</ele>
        <time>2022-05-22T10:48:53Z</time>
      </trkpt>
      <trkpt lat="37.9929880" lon="-5.6665330">
        <ele>567.9</ele>
        <time>2022-05-22T10:48:54Z</time>
      </trkpt>
      <trkpt lat="37.9929920" lon="-5.6665370">
        <ele>567.9</ele>
        <time>2022-05-22T10:48:55Z</time>
      </trkpt>
      <trkpt lat="37.9929990" lon="-5.6665420">
        <ele>567.9</ele>
        <time>2022-05-22T10:48:56Z</time>
      </trkpt>
      <trkpt lat="37.9930060" lon="-5.6665470">
        <ele>567.8</ele>
        <time>2022-05-22T10:48:57Z</time>
      </trkpt>
      <trkpt lat="37.9930150" lon="-5.6665500">
        <ele>567.8</ele>
        <time>2022-05-22T10:48:59Z</time>
      </trkpt>
      <trkpt lat="37.9930220" lon="-5.6665510">
        <ele>567.7</ele>
        <time>2022-05-22T10:49:00Z</time>
      </trkpt>
      <trkpt lat="37.9930310" lon="-5.6665520">
        <ele>567.7</ele>
        <time>2022-05-22T10:49:01Z</time>
      </trkpt>
      <trkpt lat="37.9930410" lon="-5.6665530">
        <ele>567.7</ele>
        <time>2022-05-22T10:49:02Z</time>
      </trkpt>
      <trkpt lat="37.9930600" lon="-5.6665530">
        <ele>567.7</ele>
        <time>2022-05-22T10:49:04Z</time>
      </trkpt>
      <trkpt lat="37.9930710" lon="-5.6665510">
        <ele>567.7</ele>
        <time>2022-05-22T10:49:05Z</time>
      </trkpt>
      <trkpt lat="37.9930850" lon="-5.6665520">
        <ele>567.7</ele>
        <time>2022-05-22T10:49:06Z</time>
      </trkpt>
      <trkpt lat="37.9930910" lon="-5.6665530">
        <ele>567.6</ele>
        <time>2022-05-22T10:49:07Z</time>
      </trkpt>
      <trkpt lat="37.9930990" lon="-5.6665580">
        <ele>567.6</ele>
        <time>2022-05-22T10:49:08Z</time>
      </trkpt>
      <trkpt lat="37.9931150" lon="-5.6665780">
        <ele>567.6</ele>
        <time>2022-05-22T10:49:09Z</time>
      </trkpt>
      <trkpt lat="37.9931190" lon="-5.6665860">
        <ele>567.4</ele>
        <time>2022-05-22T10:49:10Z</time>
      </trkpt>
      <trkpt lat="37.9931240" lon="-5.6665940">
        <ele>567.4</ele>
        <time>2022-05-22T10:49:11Z</time>
      </trkpt>
      <trkpt lat="37.9931330" lon="-5.6666130">
        <ele>567.4</ele>
        <time>2022-05-22T10:49:12Z</time>
      </trkpt>
      <trkpt lat="37.9931380" lon="-5.6666230">
        <ele>567.4</ele>
        <time>2022-05-22T10:49:13Z</time>
      </trkpt>
      <trkpt lat="37.9931420" lon="-5.6666330">
        <ele>567.2</ele>
        <time>2022-05-22T10:49:14Z</time>
      </trkpt>
      <trkpt lat="37.9931510" lon="-5.6666540">
        <ele>567.2</ele>
        <time>2022-05-22T10:49:15Z</time>
      </trkpt>
      <trkpt lat="37.9931580" lon="-5.6666690">
        <ele>567.2</ele>
        <time>2022-05-22T10:49:16Z</time>
      </trkpt>
      <trkpt lat="37.9931660" lon="-5.6666860">
        <ele>567.0</ele>
        <time>2022-05-22T10:49:17Z</time>
      </trkpt>
      <trkpt lat="37.9931750" lon="-5.6667050">
        <ele>567.0</ele>
        <time>2022-05-22T10:49:18Z</time>
      </trkpt>
      <trkpt lat="37.9931820" lon="-5.6667200">
        <ele>566.8</ele>
        <time>2022-05-22T10:49:19Z</time>
      </trkpt>
      <trkpt lat="37.9931970" lon="-5.6667580">
        <ele>566.5</ele>
        <time>2022-05-22T10:49:21Z</time>
      </trkpt>
      <trkpt lat="37.9932050" lon="-5.6667780">
        <ele>566.5</ele>
        <time>2022-05-22T10:49:22Z</time>
      </trkpt>
      <trkpt lat="37.9932120" lon="-5.6667940">
        <ele>566.5</ele>
        <time>2022-05-22T10:49:23Z</time>
      </trkpt>
      <trkpt lat="37.9932200" lon="-5.6668130">
        <ele>566.3</ele>
        <time>2022-05-22T10:49:24Z</time>
      </trkpt>
      <trkpt lat="37.9932310" lon="-5.6668350">
        <ele>566.3</ele>
        <time>2022-05-22T10:49:26Z</time>
      </trkpt>
      <trkpt lat="37.9932390" lon="-5.6668540">
        <ele>566.0</ele>
        <time>2022-05-22T10:49:27Z</time>
      </trkpt>
      <trkpt lat="37.9932480" lon="-5.6668700">
        <ele>566.0</ele>
        <time>2022-05-22T10:49:28Z</time>
      </trkpt>
      <trkpt lat="37.9932530" lon="-5.6668770">
        <ele>566.0</ele>
        <time>2022-05-22T10:49:29Z</time>
      </trkpt>
      <trkpt lat="37.9932560" lon="-5.6668830">
        <ele>566.0</ele>
        <time>2022-05-22T10:49:30Z</time>
      </trkpt>
      <trkpt lat="37.9932600" lon="-5.6668920">
        <ele>565.8</ele>
        <time>2022-05-22T10:49:31Z</time>
      </trkpt>
      <trkpt lat="37.9932680" lon="-5.6669030">
        <ele>565.8</ele>
        <time>2022-05-22T10:49:32Z</time>
      </trkpt>
      <trkpt lat="37.9932680" lon="-5.6669030">
        <ele>565.8</ele>
        <time>2022-05-22T10:49:33Z</time>
      </trkpt>
      <trkpt lat="37.9932670" lon="-5.6669040">
        <ele>565.8</ele>
        <time>2022-05-22T10:49:34Z</time>
      </trkpt>
      <trkpt lat="37.9932650" lon="-5.6669040">
        <ele>565.8</ele>
        <time>2022-05-22T10:49:35Z</time>
      </trkpt>
      <trkpt lat="37.9932650" lon="-5.6669040">
        <ele>565.8</ele>
        <time>2022-05-22T10:49:37Z</time>
      </trkpt>
      <trkpt lat="37.9932720" lon="-5.6669090">
        <ele>565.8</ele>
        <time>2022-05-22T10:49:38Z</time>
      </trkpt>
      <trkpt lat="37.9932780" lon="-5.6669150">
        <ele>565.8</ele>
        <time>2022-05-22T10:49:39Z</time>
      </trkpt>
      <trkpt lat="37.9932860" lon="-5.6669240">
        <ele>565.8</ele>
        <time>2022-05-22T10:49:40Z</time>
      </trkpt>
      <trkpt lat="37.9932940" lon="-5.6669340">
        <ele>565.5</ele>
        <time>2022-05-22T10:49:41Z</time>
      </trkpt>
      <trkpt lat="37.9932980" lon="-5.6669400">
        <ele>565.5</ele>
        <time>2022-05-22T10:49:42Z</time>
      </trkpt>
      <trkpt lat="37.9933070" lon="-5.6669510">
        <ele>565.5</ele>
        <time>2022-05-22T10:49:43Z</time>
      </trkpt>
      <trkpt lat="37.9933170" lon="-5.6669620">
        <ele>565.5</ele>
        <time>2022-05-22T10:49:44Z</time>
      </trkpt>
      <trkpt lat="37.9933260" lon="-5.6669740">
        <ele>565.3</ele>
        <time>2022-05-22T10:49:45Z</time>
      </trkpt>
      <trkpt lat="37.9933360" lon="-5.6669850">
        <ele>565.3</ele>
        <time>2022-05-22T10:49:46Z</time>
      </trkpt>
      <trkpt lat="37.9933590" lon="-5.6670110">
        <ele>565.3</ele>
        <time>2022-05-22T10:49:48Z</time>
      </trkpt>
      <trkpt lat="37.9933670" lon="-5.6670210">
        <ele>565.1</ele>
        <time>2022-05-22T10:49:49Z</time>
      </trkpt>
      <trkpt lat="37.9933780" lon="-5.6670340">
        <ele>565.1</ele>
        <time>2022-05-22T10:49:50Z</time>
      </trkpt>
      <trkpt lat="37.9933880" lon="-5.6670450">
        <ele>565.1</ele>
        <time>2022-05-22T10:49:51Z</time>
      </trkpt>
      <trkpt lat="37.9933990" lon="-5.6670640">
        <ele>564.9</ele>
        <time>2022-05-22T10:49:53Z</time>
      </trkpt>
      <trkpt lat="37.9934060" lon="-5.6670730">
        <ele>564.9</ele>
        <time>2022-05-22T10:49:54Z</time>
      </trkpt>
      <trkpt lat="37.9934120" lon="-5.6670820">
        <ele>564.9</ele>
        <time>2022-05-22T10:49:55Z</time>
      </trkpt>
      <trkpt lat="37.9934200" lon="-5.6670910">
        <ele>564.9</ele>
        <time>2022-05-22T10:49:56Z</time>
      </trkpt>
      <trkpt lat="37.9934300" lon="-5.6671000">
        <ele>564.8</ele>
        <time>2022-05-22T10:49:57Z</time>
      </trkpt>
      <trkpt lat="37.9934350" lon="-5.6671030">
        <ele>564.8</ele>
        <time>2022-05-22T10:49:58Z</time>
      </trkpt>
      <trkpt lat="37.9934390" lon="-5.6671050">
        <ele>564.8</ele>
        <time>2022-05-22T10:49:59Z</time>
      </trkpt>
      <trkpt lat="37.9934410" lon="-5.6671040">
        <ele>564.8</ele>
        <time>2022-05-22T10:50:00Z</time>
      </trkpt>
      <trkpt lat="37.9934400" lon="-5.6671020">
        <ele>564.8</ele>
        <time>2022-05-22T10:50:01Z</time>
      </trkpt>
      <trkpt lat="37.9934420" lon="-5.6671070">
        <ele>564.8</ele>
        <time>2022-05-22T10:50:02Z</time>
      </trkpt>
      <trkpt lat="37.9934470" lon="-5.6671170">
        <ele>564.8</ele>
        <time>2022-05-22T10:50:03Z</time>
      </trkpt>
      <trkpt lat="37.9934560" lon="-5.6671370">
        <ele>564.8</ele>
        <time>2022-05-22T10:50:05Z</time>
      </trkpt>
      <trkpt lat="37.9934610" lon="-5.6671550">
        <ele>564.6</ele>
        <time>2022-05-22T10:50:06Z</time>
      </trkpt>
      <trkpt lat="37.9934660" lon="-5.6671690">
        <ele>564.6</ele>
        <time>2022-05-22T10:50:07Z</time>
      </trkpt>
      <trkpt lat="37.9934720" lon="-5.6671880">
        <ele>564.3</ele>
        <time>2022-05-22T10:50:08Z</time>
      </trkpt>
      <trkpt lat="37.9934790" lon="-5.6672070">
        <ele>564.3</ele>
        <time>2022-05-22T10:50:10Z</time>
      </trkpt>
      <trkpt lat="37.9934830" lon="-5.6672270">
        <ele>564.3</ele>
        <time>2022-05-22T10:50:11Z</time>
      </trkpt>
      <trkpt lat="37.9934860" lon="-5.6672460">
        <ele>564.1</ele>
        <time>2022-05-22T10:50:12Z</time>
      </trkpt>
      <trkpt lat="37.9934890" lon="-5.6672600">
        <ele>564.1</ele>
        <time>2022-05-22T10:50:13Z</time>
      </trkpt>
      <trkpt lat="37.9934900" lon="-5.6672670">
        <ele>564.1</ele>
        <time>2022-05-22T10:50:14Z</time>
      </trkpt>
      <trkpt lat="37.9934910" lon="-5.6672740">
        <ele>563.8</ele>
        <time>2022-05-22T10:50:15Z</time>
      </trkpt>
      <trkpt lat="37.9934920" lon="-5.6672810">
        <ele>563.8</ele>
        <time>2022-05-22T10:50:16Z</time>
      </trkpt>
      <trkpt lat="37.9934930" lon="-5.6672880">
        <ele>563.8</ele>
        <time>2022-05-22T10:50:17Z</time>
      </trkpt>
      <trkpt lat="37.9934940" lon="-5.6672950">
        <ele>563.8</ele>
        <time>2022-05-22T10:50:18Z</time>
      </trkpt>
      <trkpt lat="37.9934950" lon="-5.6673020">
        <ele>563.8</ele>
        <time>2022-05-22T10:50:19Z</time>
      </trkpt>
      <trkpt lat="37.9934960" lon="-5.6673090">
        <ele>563.9</ele>
        <time>2022-05-22T10:50:21Z</time>
      </trkpt>
      <trkpt lat="37.9934970" lon="-5.6673160">
        <ele>563.6</ele>
        <time>2022-05-22T10:50:22Z</time>
      </trkpt>
      <trkpt lat="37.9934980" lon="-5.6673230">
        <ele>563.6</ele>
        <time>2022-05-22T10:50:23Z</time>
      </trkpt>
      <trkpt lat="37.9934990" lon="-5.6673300">
        <ele>563.6</ele>
        <time>2022-05-22T10:50:24Z</time>
      </trkpt>
      <trkpt lat="37.9935000" lon="-5.6673470">
        <ele>563.6</ele>
        <time>2022-05-22T10:50:25Z</time>
      </trkpt>
      <trkpt lat="37.9935020" lon="-5.6673760">
        <ele>563.3</ele>
        <time>2022-05-22T10:50:27Z</time>
      </trkpt>
      <trkpt lat="37.9935010" lon="-5.6673870">
        <ele>563.3</ele>
        <time>2022-05-22T10:50:28Z</time>
      </trkpt>
      <trkpt lat="37.9935020" lon="-5.6673960">
        <ele>563.3</ele>
        <time>2022-05-22T10:50:29Z</time>
      </trkpt>
      <trkpt lat="37.9935030" lon="-5.6674010">
        <ele>563.0</ele>
        <time>2022-05-22T10:50:30Z</time>
      </trkpt>
      <trkpt lat="37.9935050" lon="-5.6674170">
        <ele>563.0</ele>
        <time>2022-05-22T10:50:32Z</time>
      </trkpt>
      <trkpt lat="37.9935100" lon="-5.6674370">
        <ele>563.1</ele>
        <time>2022-05-22T10:50:33Z</time>
      </trkpt>
      <trkpt lat="37.9935160" lon="-5.6674700">
        <ele>562.8</ele>
        <time>2022-05-22T10:50:35Z</time>
      </trkpt>
      <trkpt lat="37.9935170" lon="-5.6674740">
        <ele>562.8</ele>
        <time>2022-05-22T10:50:36Z</time>
      </trkpt>
      <trkpt lat="37.9935190" lon="-5.6674830">
        <ele>562.8</ele>
        <time>2022-05-22T10:50:37Z</time>
      </trkpt>
      <trkpt lat="37.9935220" lon="-5.6674940">
        <ele>562.5</ele>
        <time>2022-05-22T10:50:38Z</time>
      </trkpt>
      <trkpt lat="37.9935230" lon="-5.6675050">
        <ele>562.4</ele>
        <time>2022-05-22T10:50:39Z</time>
      </trkpt>
      <trkpt lat="37.9935260" lon="-5.6675330">
        <ele>562.3</ele>
        <time>2022-05-22T10:50:40Z</time>
      </trkpt>
      <trkpt lat="37.9935260" lon="-5.6675430">
        <ele>562.2</ele>
        <time>2022-05-22T10:50:42Z</time>
      </trkpt>
      <trkpt lat="37.9935270" lon="-5.6675540">
        <ele>562.1</ele>
        <time>2022-05-22T10:50:43Z</time>
      </trkpt>
      <trkpt lat="37.9935260" lon="-5.6675730">
        <ele>562.0</ele>
        <time>2022-05-22T10:50:45Z</time>
      </trkpt>
      <trkpt lat="37.9935230" lon="-5.6675770">
        <ele>562.0</ele>
        <time>2022-05-22T10:50:47Z</time>
      </trkpt>
      <trkpt lat="37.9935230" lon="-5.6675790">
        <ele>561.9</ele>
        <time>2022-05-22T10:50:48Z</time>
      </trkpt>
      <trkpt lat="37.9935230" lon="-5.6675830">
        <ele>561.9</ele>
        <time>2022-05-22T10:50:49Z</time>
      </trkpt>
      <trkpt lat="37.9935220" lon="-5.6675930">
        <ele>561.8</ele>
        <time>2022-05-22T10:50:50Z</time>
      </trkpt>
      <trkpt lat="37.9935200" lon="-5.6675970">
        <ele>561.8</ele>
        <time>2022-05-22T10:50:51Z</time>
      </trkpt>
      <trkpt lat="37.9935180" lon="-5.6675990">
        <ele>561.8</ele>
        <time>2022-05-22T10:50:52Z</time>
      </trkpt>
      <trkpt lat="37.9935180" lon="-5.6676000">
        <ele>561.8</ele>
        <time>2022-05-22T10:50:53Z</time>
      </trkpt>
      <trkpt lat="37.9935170" lon="-5.6676020">
        <ele>561.8</ele>
        <time>2022-05-22T10:50:54Z</time>
      </trkpt>
      <trkpt lat="37.9935180" lon="-5.6676070">
        <ele>561.7</ele>
        <time>2022-05-22T10:50:55Z</time>
      </trkpt>
      <trkpt lat="37.9935180" lon="-5.6676160">
        <ele>561.7</ele>
        <time>2022-05-22T10:50:56Z</time>
      </trkpt>
      <trkpt lat="37.9935170" lon="-5.6676250">
        <ele>561.6</ele>
        <time>2022-05-22T10:50:58Z</time>
      </trkpt>
      <trkpt lat="37.9935180" lon="-5.6676320">
        <ele>561.6</ele>
        <time>2022-05-22T10:50:59Z</time>
      </trkpt>
      <trkpt lat="37.9935180" lon="-5.6676360">
        <ele>561.5</ele>
        <time>2022-05-22T10:51:00Z</time>
      </trkpt>
      <trkpt lat="37.9935200" lon="-5.6676400">
        <ele>561.5</ele>
        <time>2022-05-22T10:51:01Z</time>
      </trkpt>
      <trkpt lat="37.9935200" lon="-5.6676450">
        <ele>561.5</ele>
        <time>2022-05-22T10:51:03Z</time>
      </trkpt>
      <trkpt lat="37.9935200" lon="-5.6676490">
        <ele>561.5</ele>
        <time>2022-05-22T10:51:04Z</time>
      </trkpt>
      <trkpt lat="37.9935190" lon="-5.6676530">
        <ele>561.4</ele>
        <time>2022-05-22T10:51:05Z</time>
      </trkpt>
      <trkpt lat="37.9935190" lon="-5.6676570">
        <ele>561.4</ele>
        <time>2022-05-22T10:51:06Z</time>
      </trkpt>
      <trkpt lat="37.9935200" lon="-5.6676620">
        <ele>561.4</ele>
        <time>2022-05-22T10:51:07Z</time>
      </trkpt>
      <trkpt lat="37.9935200" lon="-5.6676690">
        <ele>561.3</ele>
        <time>2022-05-22T10:51:08Z</time>
      </trkpt>
      <trkpt lat="37.9935200" lon="-5.6676800">
        <ele>561.3</ele>
        <time>2022-05-22T10:51:09Z</time>
      </trkpt>
      <trkpt lat="37.9935200" lon="-5.6676880">
        <ele>561.2</ele>
        <time>2022-05-22T10:51:10Z</time>
      </trkpt>
      <trkpt lat="37.9935210" lon="-5.6676960">
        <ele>561.2</ele>
        <time>2022-05-22T10:51:11Z</time>
      </trkpt>
      <trkpt lat="37.9935210" lon="-5.6677020">
        <ele>561.1</ele>
        <time>2022-05-22T10:51:12Z</time>
      </trkpt>
      <trkpt lat="37.9935200" lon="-5.6677060">
        <ele>561.1</ele>
        <time>2022-05-22T10:51:13Z</time>
      </trkpt>
      <trkpt lat="37.9935180" lon="-5.6677170">
        <ele>561.0</ele>
        <time>2022-05-22T10:51:15Z</time>
      </trkpt>
      <trkpt lat="37.9935120" lon="-5.6677260">
        <ele>561.0</ele>
        <time>2022-05-22T10:51:16Z</time>
      </trkpt>
      <trkpt lat="37.9935100" lon="-5.6677350">
        <ele>560.9</ele>
        <time>2022-05-22T10:51:17Z</time>
      </trkpt>
      <trkpt lat="37.9935100" lon="-5.6677440">
        <ele>560.9</ele>
        <time>2022-05-22T10:51:18Z</time>
      </trkpt>
      <trkpt lat="37.9935090" lon="-5.6677520">
        <ele>560.8</ele>
        <time>2022-05-22T10:51:20Z</time>
      </trkpt>
      <trkpt lat="37.9935090" lon="-5.6677590">
        <ele>560.8</ele>
        <time>2022-05-22T10:51:21Z</time>
      </trkpt>
      <trkpt lat="37.9935100" lon="-5.6677630">
        <ele>560.8</ele>
        <time>2022-05-22T10:51:22Z</time>
      </trkpt>
      <trkpt lat="37.9935110" lon="-5.6677680">
        <ele>560.7</ele>
        <time>2022-05-22T10:51:23Z</time>
      </trkpt>
      <trkpt lat="37.9935130" lon="-5.6677720">
        <ele>560.7</ele>
        <time>2022-05-22T10:51:25Z</time>
      </trkpt>
      <trkpt lat="37.9935150" lon="-5.6677810">
        <ele>560.7</ele>
        <time>2022-05-22T10:51:26Z</time>
      </trkpt>
      <trkpt lat="37.9935160" lon="-5.6677860">
        <ele>560.6</ele>
        <time>2022-05-22T10:51:27Z</time>
      </trkpt>
      <trkpt lat="37.9935200" lon="-5.6677920">
        <ele>560.6</ele>
        <time>2022-05-22T10:51:28Z</time>
      </trkpt>
      <trkpt lat="37.9935250" lon="-5.6677970">
        <ele>560.6</ele>
        <time>2022-05-22T10:51:30Z</time>
      </trkpt>
      <trkpt lat="37.9935310" lon="-5.6677970">
        <ele>560.5</ele>
        <time>2022-05-22T10:51:31Z</time>
      </trkpt>
      <trkpt lat="37.9935340" lon="-5.6677970">
        <ele>560.5</ele>
        <time>2022-05-22T10:51:32Z</time>
      </trkpt>
      <trkpt lat="37.9935330" lon="-5.6678050">
        <ele>560.5</ele>
        <time>2022-05-22T10:51:33Z</time>
      </trkpt>
      <trkpt lat="37.9935320" lon="-5.6678150">
        <ele>560.4</ele>
        <time>2022-05-22T10:51:34Z</time>
      </trkpt>
      <trkpt lat="37.9935310" lon="-5.6678210">
        <ele>560.4</ele>
        <time>2022-05-22T10:51:35Z</time>
      </trkpt>
      <trkpt lat="37.9935310" lon="-5.6678260">
        <ele>560.3</ele>
        <time>2022-05-22T10:51:36Z</time>
      </trkpt>
      <trkpt lat="37.9935310" lon="-5.6678310">
        <ele>560.3</ele>
        <time>2022-05-22T10:51:37Z</time>
      </trkpt>
      <trkpt lat="37.9935320" lon="-5.6678340">
        <ele>560.3</ele>
        <time>2022-05-22T10:51:38Z</time>
      </trkpt>
      <trkpt lat="37.9935320" lon="-5.6678370">
        <ele>560.3</ele>
        <time>2022-05-22T10:51:39Z</time>
      </trkpt>
      <trkpt lat="37.9935330" lon="-5.6678380">
        <ele>560.3</ele>
        <time>2022-05-22T10:51:40Z</time>
      </trkpt>
      <trkpt lat="37.9935330" lon="-5.6678400">
        <ele>560.3</ele>
        <time>2022-05-22T10:51:41Z</time>
      </trkpt>
      <trkpt lat="37.9935340" lon="-5.6678420">
        <ele>560.3</ele>
        <time>2022-05-22T10:51:42Z</time>
      </trkpt>
      <trkpt lat="37.9935350" lon="-5.6678440">
        <ele>560.2</ele>
        <time>2022-05-22T10:51:43Z</time>
      </trkpt>
      <trkpt lat="37.9935360" lon="-5.6678450">
        <ele>560.2</ele>
        <time>2022-05-22T10:51:44Z</time>
      </trkpt>
      <trkpt lat="37.9935390" lon="-5.6678460">
        <ele>560.2</ele>
        <time>2022-05-22T10:51:45Z</time>
      </trkpt>
      <trkpt lat="37.9935430" lon="-5.6678490">
        <ele>560.2</ele>
        <time>2022-05-22T10:51:46Z</time>
      </trkpt>
      <trkpt lat="37.9935470" lon="-5.6678520">
        <ele>560.2</ele>
        <time>2022-05-22T10:51:47Z</time>
      </trkpt>
      <trkpt lat="37.9935490" lon="-5.6678610">
        <ele>560.1</ele>
        <time>2022-05-22T10:51:49Z</time>
      </trkpt>
      <trkpt lat="37.9935510" lon="-5.6678650">
        <ele>560.1</ele>
        <time>2022-05-22T10:51:50Z</time>
      </trkpt>
      <trkpt lat="37.9935520" lon="-5.6678680">
        <ele>560.1</ele>
        <time>2022-05-22T10:51:51Z</time>
      </trkpt>
      <trkpt lat="37.9935550" lon="-5.6678720">
        <ele>560.0</ele>
        <time>2022-05-22T10:51:53Z</time>
      </trkpt>
      <trkpt lat="37.9935590" lon="-5.6678780">
        <ele>560.0</ele>
        <time>2022-05-22T10:51:54Z</time>
      </trkpt>
      <trkpt lat="37.9935660" lon="-5.6678940">
        <ele>559.9</ele>
        <time>2022-05-22T10:51:55Z</time>
      </trkpt>
      <trkpt lat="37.9935710" lon="-5.6679040">
        <ele>559.9</ele>
        <time>2022-05-22T10:51:57Z</time>
      </trkpt>
      <trkpt lat="37.9935750" lon="-5.6679140">
        <ele>559.8</ele>
        <time>2022-05-22T10:51:58Z</time>
      </trkpt>
      <trkpt lat="37.9935790" lon="-5.6679230">
        <ele>559.8</ele>
        <time>2022-05-22T10:51:59Z</time>
      </trkpt>
      <trkpt lat="37.9935910" lon="-5.6679290">
        <ele>559.7</ele>
        <time>2022-05-22T10:52:00Z</time>
      </trkpt>
      <trkpt lat="37.9936000" lon="-5.6679340">
        <ele>559.6</ele>
        <time>2022-05-22T10:52:01Z</time>
      </trkpt>
      <trkpt lat="37.9936080" lon="-5.6679430">
        <ele>559.6</ele>
        <time>2022-05-22T10:52:02Z</time>
      </trkpt>
      <trkpt lat="37.9936110" lon="-5.6679660">
        <ele>559.4</ele>
        <time>2022-05-22T10:52:03Z</time>
      </trkpt>
      <trkpt lat="37.9936100" lon="-5.6679770">
        <ele>559.4</ele>
        <time>2022-05-22T10:52:04Z</time>
      </trkpt>
      <trkpt lat="37.9936090" lon="-5.6679890">
        <ele>559.3</ele>
        <time>2022-05-22T10:52:05Z</time>
      </trkpt>
      <trkpt lat="37.9936120" lon="-5.6680140">
        <ele>559.2</ele>
        <time>2022-05-22T10:52:06Z</time>
      </trkpt>
      <trkpt lat="37.9936140" lon="-5.6680270">
        <ele>559.2</ele>
        <time>2022-05-22T10:52:07Z</time>
      </trkpt>
      <trkpt lat="37.9936100" lon="-5.6680490">
        <ele>559.0</ele>
        <time>2022-05-22T10:52:08Z</time>
      </trkpt>
      <trkpt lat="37.9936060" lon="-5.6680600">
        <ele>559.0</ele>
        <time>2022-05-22T10:52:09Z</time>
      </trkpt>
      <trkpt lat="37.9936040" lon="-5.6680730">
        <ele>558.9</ele>
        <time>2022-05-22T10:52:10Z</time>
      </trkpt>
      <trkpt lat="37.9936020" lon="-5.6681020">
        <ele>558.8</ele>
        <time>2022-05-22T10:52:12Z</time>
      </trkpt>
      <trkpt lat="37.9936050" lon="-5.6681200">
        <ele>558.7</ele>
        <time>2022-05-22T10:52:13Z</time>
      </trkpt>
      <trkpt lat="37.9936130" lon="-5.6681360">
        <ele>558.7</ele>
        <time>2022-05-22T10:52:14Z</time>
      </trkpt>
      <trkpt lat="37.9936230" lon="-5.6681510">
        <ele>558.6</ele>
        <time>2022-05-22T10:52:15Z</time>
      </trkpt>
      <trkpt lat="37.9936400" lon="-5.6681690">
        <ele>558.5</ele>
        <time>2022-05-22T10:52:17Z</time>
      </trkpt>
      <trkpt lat="37.9936590" lon="-5.6681760">
        <ele>558.4</ele>
        <time>2022-05-22T10:52:18Z</time>
      </trkpt>
      <trkpt lat="37.9936710" lon="-5.6681750">
        <ele>558.3</ele>
        <time>2022-05-22T10:52:19Z</time>
      </trkpt>
      <trkpt lat="37.9936860" lon="-5.6681770">
        <ele>558.2</ele>
        <time>2022-05-22T10:52:20Z</time>
      </trkpt>
      <trkpt lat="37.9936910" lon="-5.6681750">
        <ele>558.2</ele>
        <time>2022-05-22T10:52:21Z</time>
      </trkpt>
      <trkpt lat="37.9936970" lon="-5.6681700">
        <ele>558.2</ele>
        <time>2022-05-22T10:52:22Z</time>
      </trkpt>
      <trkpt lat="37.9937020" lon="-5.6681610">
        <ele>558.1</ele>
        <time>2022-05-22T10:52:23Z</time>
      </trkpt>
      <trkpt lat="37.9937050" lon="-5.6681540">
        <ele>558.1</ele>
        <time>2022-05-22T10:52:24Z</time>
      </trkpt>
      <trkpt lat="37.9937100" lon="-5.6681470">
        <ele>558.1</ele>
        <time>2022-05-22T10:52:25Z</time>
      </trkpt>
      <trkpt lat="37.9937140" lon="-5.6681400">
        <ele>558.0</ele>
        <time>2022-05-22T10:52:26Z</time>
      </trkpt>
      <trkpt lat="37.9937180" lon="-5.6681350">
        <ele>558.0</ele>
        <time>2022-05-22T10:52:27Z</time>
      </trkpt>
      <trkpt lat="37.9937230" lon="-5.6681290">
        <ele>558.0</ele>
        <time>2022-05-22T10:52:28Z</time>
      </trkpt>
      <trkpt lat="37.9937280" lon="-5.6681240">
        <ele>558.0</ele>
        <time>2022-05-22T10:52:29Z</time>
      </trkpt>
      <trkpt lat="37.9937340" lon="-5.6681210">
        <ele>557.9</ele>
        <time>2022-05-22T10:52:30Z</time>
      </trkpt>
      <trkpt lat="37.9937380" lon="-5.6681170">
        <ele>557.9</ele>
        <time>2022-05-22T10:52:31Z</time>
      </trkpt>
      <trkpt lat="37.9937440" lon="-5.6681140">
        <ele>557.9</ele>
        <time>2022-05-22T10:52:32Z</time>
      </trkpt>
      <trkpt lat="37.9937510" lon="-5.6681170">
        <ele>557.9</ele>
        <time>2022-05-22T10:52:33Z</time>
      </trkpt>
      <trkpt lat="37.9937620" lon="-5.6681270">
        <ele>557.8</ele>
        <time>2022-05-22T10:52:34Z</time>
      </trkpt>
      <trkpt lat="37.9937720" lon="-5.6681380">
        <ele>557.8</ele>
        <time>2022-05-22T10:52:35Z</time>
      </trkpt>
      <trkpt lat="37.9937790" lon="-5.6681440">
        <ele>557.7</ele>
        <time>2022-05-22T10:52:36Z</time>
      </trkpt>
      <trkpt lat="37.9937910" lon="-5.6681670">
        <ele>557.6</ele>
        <time>2022-05-22T10:52:37Z</time>
      </trkpt>
      <trkpt lat="37.9937940" lon="-5.6681770">
        <ele>557.6</ele>
        <time>2022-05-22T10:52:38Z</time>
      </trkpt>
      <trkpt lat="37.9937970" lon="-5.6681860">
        <ele>557.6</ele>
        <time>2022-05-22T10:52:39Z</time>
      </trkpt>
      <trkpt lat="37.9938000" lon="-5.6682000">
        <ele>557.5</ele>
        <time>2022-05-22T10:52:40Z</time>
      </trkpt>
      <trkpt lat="37.9938020" lon="-5.6682050">
        <ele>557.5</ele>
        <time>2022-05-22T10:52:41Z</time>
      </trkpt>
      <trkpt lat="37.9938020" lon="-5.6682140">
        <ele>557.5</ele>
        <time>2022-05-22T10:52:42Z</time>
      </trkpt>
      <trkpt lat="37.9938070" lon="-5.6682320">
        <ele>557.4</ele>
        <time>2022-05-22T10:52:44Z</time>
      </trkpt>
      <trkpt lat="37.9938120" lon="-5.6682540">
        <ele>557.3</ele>
        <time>2022-05-22T10:52:45Z</time>
      </trkpt>
      <trkpt lat="37.9938160" lon="-5.6682650">
        <ele>557.3</ele>
        <time>2022-05-22T10:52:46Z</time>
      </trkpt>
      <trkpt lat="37.9938190" lon="-5.6682750">
        <ele>557.3</ele>
        <time>2022-05-22T10:52:47Z</time>
      </trkpt>
      <trkpt lat="37.9938230" lon="-5.6682910">
        <ele>557.2</ele>
        <time>2022-05-22T10:52:48Z</time>
      </trkpt>
      <trkpt lat="37.9938290" lon="-5.6683110">
        <ele>557.1</ele>
        <time>2022-05-22T10:52:49Z</time>
      </trkpt>
      <trkpt lat="37.9938400" lon="-5.6683440">
        <ele>557.0</ele>
        <time>2022-05-22T10:52:50Z</time>
      </trkpt>
      <trkpt lat="37.9938460" lon="-5.6683580">
        <ele>557.0</ele>
        <time>2022-05-22T10:52:51Z</time>
      </trkpt>
      <trkpt lat="37.9938530" lon="-5.6683710">
        <ele>556.9</ele>
        <time>2022-05-22T10:52:52Z</time>
      </trkpt>
      <trkpt lat="37.9938630" lon="-5.6683860">
        <ele>556.8</ele>
        <time>2022-05-22T10:52:53Z</time>
      </trkpt>
      <trkpt lat="37.9938870" lon="-5.6684210">
        <ele>556.7</ele>
        <time>2022-05-22T10:52:55Z</time>
      </trkpt>
      <trkpt lat="37.9938930" lon="-5.6684320">
        <ele>556.6</ele>
        <time>2022-05-22T10:52:56Z</time>
      </trkpt>
      <trkpt lat="37.9939070" lon="-5.6684520">
        <ele>556.5</ele>
        <time>2022-05-22T10:52:57Z</time>
      </trkpt>
      <trkpt lat="37.9939160" lon="-5.6684640">
        <ele>556.4</ele>
        <time>2022-05-22T10:52:58Z</time>
      </trkpt>
      <trkpt lat="37.9939260" lon="-5.6684760">
        <ele>556.4</ele>
        <time>2022-05-22T10:52:59Z</time>
      </trkpt>
      <trkpt lat="37.9939370" lon="-5.6684900">
        <ele>556.3</ele>
        <time>2022-05-22T10:53:00Z</time>
      </trkpt>
      <trkpt lat="37.9939480" lon="-5.6685040">
        <ele>556.2</ele>
        <time>2022-05-22T10:53:01Z</time>
      </trkpt>
      <trkpt lat="37.9939610" lon="-5.6685200">
        <ele>556.1</ele>
        <time>2022-05-22T10:53:02Z</time>
      </trkpt>
      <trkpt lat="37.9939730" lon="-5.6685420">
        <ele>556.0</ele>
        <time>2022-05-22T10:53:03Z</time>
      </trkpt>
      <trkpt lat="37.9939780" lon="-5.6685520">
        <ele>555.9</ele>
        <time>2022-05-22T10:53:04Z</time>
      </trkpt>
      <trkpt lat="37.9939830" lon="-5.6685620">
        <ele>555.9</ele>
        <time>2022-05-22T10:53:05Z</time>
      </trkpt>
      <trkpt lat="37.9939870" lon="-5.6685780">
        <ele>555.8</ele>
        <time>2022-05-22T10:53:06Z</time>
      </trkpt>
      <trkpt lat="37.9939880" lon="-5.6685960">
        <ele>555.7</ele>
        <time>2022-05-22T10:53:07Z</time>
      </trkpt>
      <trkpt lat="37.9939860" lon="-5.6686160">
        <ele>555.7</ele>
        <time>2022-05-22T10:53:08Z</time>
      </trkpt>
      <trkpt lat="37.9939840" lon="-5.6686340">
        <ele>555.4</ele>
        <time>2022-05-22T10:53:10Z</time>
      </trkpt>
      <trkpt lat="37.9939840" lon="-5.6686520">
        <ele>555.4</ele>
        <time>2022-05-22T10:53:11Z</time>
      </trkpt>
      <trkpt lat="37.9939830" lon="-5.6686760">
        <ele>555.4</ele>
        <time>2022-05-22T10:53:12Z</time>
      </trkpt>
      <trkpt lat="37.9939800" lon="-5.6686920">
        <ele>555.4</ele>
        <time>2022-05-22T10:53:13Z</time>
      </trkpt>
      <trkpt lat="37.9939780" lon="-5.6687090">
        <ele>555.4</ele>
        <time>2022-05-22T10:53:14Z</time>
      </trkpt>
      <trkpt lat="37.9939760" lon="-5.6687190">
        <ele>555.4</ele>
        <time>2022-05-22T10:53:15Z</time>
      </trkpt>
      <trkpt lat="37.9939730" lon="-5.6687280">
        <ele>555.4</ele>
        <time>2022-05-22T10:53:16Z</time>
      </trkpt>
      <trkpt lat="37.9939710" lon="-5.6687380">
        <ele>555.4</ele>
        <time>2022-05-22T10:53:17Z</time>
      </trkpt>
      <trkpt lat="37.9939700" lon="-5.6687280">
        <ele>555.4</ele>
        <time>2022-05-22T10:53:18Z</time>
      </trkpt>
      <trkpt lat="37.9939710" lon="-5.6687040">
        <ele>555.4</ele>
        <time>2022-05-22T10:53:19Z</time>
      </trkpt>
      <trkpt lat="37.9939710" lon="-5.6686930">
        <ele>555.4</ele>
        <time>2022-05-22T10:53:20Z</time>
      </trkpt>
      <trkpt lat="37.9939710" lon="-5.6686890">
        <ele>555.4</ele>
        <time>2022-05-22T10:53:21Z</time>
      </trkpt>
      <trkpt lat="37.9939710" lon="-5.6686870">
        <ele>555.4</ele>
        <time>2022-05-22T10:53:22Z</time>
      </trkpt>
      <trkpt lat="37.9939700" lon="-5.6686850">
        <ele>555.4</ele>
        <time>2022-05-22T10:53:23Z</time>
      </trkpt>
      <trkpt lat="37.9939700" lon="-5.6686850">
        <ele>555.4</ele>
        <time>2022-05-22T10:53:24Z</time>
      </trkpt>
      <trkpt lat="37.9939690" lon="-5.6686830">
        <ele>555.4</ele>
        <time>2022-05-22T10:53:26Z</time>
      </trkpt>
      <trkpt lat="37.9939700" lon="-5.6686810">
        <ele>555.4</ele>
        <time>2022-05-22T10:53:27Z</time>
      </trkpt>
      <trkpt lat="37.9939700" lon="-5.6686820">
        <ele>555.4</ele>
        <time>2022-05-22T10:53:28Z</time>
      </trkpt>
      <trkpt lat="37.9939700" lon="-5.6686810">
        <ele>555.4</ele>
        <time>2022-05-22T10:53:29Z</time>
      </trkpt>
      <trkpt lat="37.9939700" lon="-5.6686810">
        <ele>555.4</ele>
        <time>2022-05-22T10:53:30Z</time>
      </trkpt>
      <trkpt lat="37.9939700" lon="-5.6686780">
        <ele>555.4</ele>
        <time>2022-05-22T10:53:32Z</time>
      </trkpt>
      <trkpt lat="37.9939710" lon="-5.6686770">
        <ele>555.4</ele>
        <time>2022-05-22T10:53:33Z</time>
      </trkpt>
      <trkpt lat="37.9939710" lon="-5.6686780">
        <ele>555.4</ele>
        <time>2022-05-22T10:53:34Z</time>
      </trkpt>
      <trkpt lat="37.9939710" lon="-5.6686780">
        <ele>555.4</ele>
        <time>2022-05-22T10:53:35Z</time>
      </trkpt>
      <trkpt lat="37.9939700" lon="-5.6686720">
        <ele>555.4</ele>
        <time>2022-05-22T10:53:36Z</time>
      </trkpt>
      <trkpt lat="37.9939690" lon="-5.6686710">
        <ele>555.4</ele>
        <time>2022-05-22T10:53:37Z</time>
      </trkpt>
      <trkpt lat="37.9939680" lon="-5.6686680">
        <ele>555.4</ele>
        <time>2022-05-22T10:53:38Z</time>
      </trkpt>
      <trkpt lat="37.9939680" lon="-5.6686670">
        <ele>555.4</ele>
        <time>2022-05-22T10:53:39Z</time>
      </trkpt>
      <trkpt lat="37.9939680" lon="-5.6686670">
        <ele>555.4</ele>
        <time>2022-05-22T10:53:40Z</time>
      </trkpt>
      <trkpt lat="37.9939680" lon="-5.6686670">
        <ele>555.4</ele>
        <time>2022-05-22T10:53:41Z</time>
      </trkpt>
      <trkpt lat="37.9939680" lon="-5.6686660">
        <ele>555.4</ele>
        <time>2022-05-22T10:53:42Z</time>
      </trkpt>
      <trkpt lat="37.9939680" lon="-5.6686660">
        <ele>555.4</ele>
        <time>2022-05-22T10:53:43Z</time>
      </trkpt>
      <trkpt lat="37.9939680" lon="-5.6686660">
        <ele>555.4</ele>
        <time>2022-05-22T10:53:44Z</time>
      </trkpt>
      <trkpt lat="37.9939680" lon="-5.6686660">
        <ele>555.4</ele>
        <time>2022-05-22T10:53:45Z</time>
      </trkpt>
      <trkpt lat="37.9939680" lon="-5.6686660">
        <ele>555.4</ele>
        <time>2022-05-22T10:53:46Z</time>
      </trkpt>
      <trkpt lat="37.9939680" lon="-5.6686660">
        <ele>555.4</ele>
        <time>2022-05-22T10:53:47Z</time>
      </trkpt>
      <trkpt lat="37.9939680" lon="-5.6686660">
        <ele>555.4</ele>
        <time>2022-05-22T10:53:48Z</time>
      </trkpt>
      <trkpt lat="37.9939680" lon="-5.6686660">
        <ele>555.4</ele>
        <time>2022-05-22T10:53:49Z</time>
      </trkpt>
      <trkpt lat="37.9939680" lon="-5.6686660">
        <ele>555.4</ele>
        <time>2022-05-22T10:53:50Z</time>
      </trkpt>
      <trkpt lat="37.9939680" lon="-5.6686660">
        <ele>555.4</ele>
        <time>2022-05-22T10:53:51Z</time>
      </trkpt>
      <trkpt lat="37.9939680" lon="-5.6686660">
        <ele>555.4</ele>
        <time>2022-05-22T10:53:52Z</time>
      </trkpt>
      <trkpt lat="37.9939680" lon="-5.6686670">
        <ele>555.4</ele>
        <time>2022-05-22T10:53:53Z</time>
      </trkpt>
      <trkpt lat="37.9939680" lon="-5.6686660">
        <ele>555.4</ele>
        <time>2022-05-22T10:53:54Z</time>
      </trkpt>
      <trkpt lat="37.9939720" lon="-5.6686670">
        <ele>555.4</ele>
        <time>2022-05-22T10:53:56Z</time>
      </trkpt>
      <trkpt lat="37.9939740" lon="-5.6686710">
        <ele>555.4</ele>
        <time>2022-05-22T10:53:57Z</time>
      </trkpt>
      <trkpt lat="37.9939740" lon="-5.6686750">
        <ele>555.4</ele>
        <time>2022-05-22T10:53:58Z</time>
      </trkpt>
      <trkpt lat="37.9939720" lon="-5.6686780">
        <ele>555.4</ele>
        <time>2022-05-22T10:54:00Z</time>
      </trkpt>
      <trkpt lat="37.9939700" lon="-5.6686810">
        <ele>555.4</ele>
        <time>2022-05-22T10:54:01Z</time>
      </trkpt>
      <trkpt lat="37.9939680" lon="-5.6686850">
        <ele>555.4</ele>
        <time>2022-05-22T10:54:02Z</time>
      </trkpt>
      <trkpt lat="37.9939670" lon="-5.6686870">
        <ele>555.4</ele>
        <time>2022-05-22T10:54:03Z</time>
      </trkpt>
      <trkpt lat="37.9939660" lon="-5.6686890">
        <ele>555.4</ele>
        <time>2022-05-22T10:54:04Z</time>
      </trkpt>
      <trkpt lat="37.9939650" lon="-5.6686920">
        <ele>555.4</ele>
        <time>2022-05-22T10:54:05Z</time>
      </trkpt>
      <trkpt lat="37.9939640" lon="-5.6686940">
        <ele>555.4</ele>
        <time>2022-05-22T10:54:06Z</time>
      </trkpt>
      <trkpt lat="37.9939630" lon="-5.6686960">
        <ele>555.4</ele>
        <time>2022-05-22T10:54:07Z</time>
      </trkpt>
      <trkpt lat="37.9939630" lon="-5.6686970">
        <ele>555.4</ele>
        <time>2022-05-22T10:54:08Z</time>
      </trkpt>
      <trkpt lat="37.9939630" lon="-5.6686980">
        <ele>555.4</ele>
        <time>2022-05-22T10:54:09Z</time>
      </trkpt>
      <trkpt lat="37.9939620" lon="-5.6686990">
        <ele>555.4</ele>
        <time>2022-05-22T10:54:10Z</time>
      </trkpt>
      <trkpt lat="37.9939620" lon="-5.6687000">
        <ele>555.4</ele>
        <time>2022-05-22T10:54:11Z</time>
      </trkpt>
      <trkpt lat="37.9939620" lon="-5.6687010">
        <ele>555.4</ele>
        <time>2022-05-22T10:54:12Z</time>
      </trkpt>
      <trkpt lat="37.9939620" lon="-5.6687010">
        <ele>555.4</ele>
        <time>2022-05-22T10:54:13Z</time>
      </trkpt>
      <trkpt lat="37.9939620" lon="-5.6687020">
        <ele>555.4</ele>
        <time>2022-05-22T10:54:14Z</time>
      </trkpt>
      <trkpt lat="37.9939620" lon="-5.6687020">
        <ele>555.4</ele>
        <time>2022-05-22T10:54:15Z</time>
      </trkpt>
      <trkpt lat="37.9939620" lon="-5.6687030">
        <ele>555.4</ele>
        <time>2022-05-22T10:54:16Z</time>
      </trkpt>
      <trkpt lat="37.9939610" lon="-5.6687040">
        <ele>555.4</ele>
        <time>2022-05-22T10:54:17Z</time>
      </trkpt>
      <trkpt lat="37.9939610" lon="-5.6687010">
        <ele>555.4</ele>
        <time>2022-05-22T10:54:18Z</time>
      </trkpt>
      <trkpt lat="37.9939610" lon="-5.6686990">
        <ele>555.4</ele>
        <time>2022-05-22T10:54:19Z</time>
      </trkpt>
      <trkpt lat="37.9939620" lon="-5.6686980">
        <ele>555.4</ele>
        <time>2022-05-22T10:54:20Z</time>
      </trkpt>
      <trkpt lat="37.9939600" lon="-5.6687010">
        <ele>555.4</ele>
        <time>2022-05-22T10:54:21Z</time>
      </trkpt>
      <trkpt lat="37.9939590" lon="-5.6687010">
        <ele>555.4</ele>
        <time>2022-05-22T10:54:22Z</time>
      </trkpt>
      <trkpt lat="37.9939580" lon="-5.6687010">
        <ele>555.4</ele>
        <time>2022-05-22T10:54:23Z</time>
      </trkpt>
      <trkpt lat="37.9939580" lon="-5.6687010">
        <ele>555.4</ele>
        <time>2022-05-22T10:54:24Z</time>
      </trkpt>
      <trkpt lat="37.9939580" lon="-5.6687020">
        <ele>555.4</ele>
        <time>2022-05-22T10:54:25Z</time>
      </trkpt>
      <trkpt lat="37.9939580" lon="-5.6687010">
        <ele>555.4</ele>
        <time>2022-05-22T10:54:26Z</time>
      </trkpt>
      <trkpt lat="37.9939580" lon="-5.6687010">
        <ele>555.4</ele>
        <time>2022-05-22T10:54:27Z</time>
      </trkpt>
      <trkpt lat="37.9939580" lon="-5.6687010">
        <ele>555.4</ele>
        <time>2022-05-22T10:54:28Z</time>
      </trkpt>
      <trkpt lat="37.9939580" lon="-5.6687000">
        <ele>555.4</ele>
        <time>2022-05-22T10:54:29Z</time>
      </trkpt>
      <trkpt lat="37.9939580" lon="-5.6687000">
        <ele>555.4</ele>
        <time>2022-05-22T10:54:30Z</time>
      </trkpt>
      <trkpt lat="37.9939580" lon="-5.6687000">
        <ele>555.4</ele>
        <time>2022-05-22T10:54:31Z</time>
      </trkpt>
      <trkpt lat="37.9939580" lon="-5.6687000">
        <ele>555.4</ele>
        <time>2022-05-22T10:54:32Z</time>
      </trkpt>
      <trkpt lat="37.9939590" lon="-5.6687000">
        <ele>555.4</ele>
        <time>2022-05-22T10:54:33Z</time>
      </trkpt>
      <trkpt lat="37.9939590" lon="-5.6687010">
        <ele>555.4</ele>
        <time>2022-05-22T10:54:34Z</time>
      </trkpt>
      <trkpt lat="37.9939590" lon="-5.6687010">
        <ele>555.4</ele>
        <time>2022-05-22T10:54:35Z</time>
      </trkpt>
      <trkpt lat="37.9939590" lon="-5.6687020">
        <ele>555.4</ele>
        <time>2022-05-22T10:54:36Z</time>
      </trkpt>
      <trkpt lat="37.9939590" lon="-5.6687030">
        <ele>555.4</ele>
        <time>2022-05-22T10:54:37Z</time>
      </trkpt>
      <trkpt lat="37.9939600" lon="-5.6687040">
        <ele>555.4</ele>
        <time>2022-05-22T10:54:38Z</time>
      </trkpt>
      <trkpt lat="37.9939600" lon="-5.6687040">
        <ele>555.4</ele>
        <time>2022-05-22T10:54:39Z</time>
      </trkpt>
      <trkpt lat="37.9939610" lon="-5.6687050">
        <ele>555.4</ele>
        <time>2022-05-22T10:54:40Z</time>
      </trkpt>
      <trkpt lat="37.9939610" lon="-5.6687050">
        <ele>555.4</ele>
        <time>2022-05-22T10:54:41Z</time>
      </trkpt>
      <trkpt lat="37.9939620" lon="-5.6687060">
        <ele>555.4</ele>
        <time>2022-05-22T10:54:42Z</time>
      </trkpt>
      <trkpt lat="37.9939610" lon="-5.6687060">
        <ele>555.4</ele>
        <time>2022-05-22T10:54:43Z</time>
      </trkpt>
      <trkpt lat="37.9939620" lon="-5.6687070">
        <ele>555.4</ele>
        <time>2022-05-22T10:54:44Z</time>
      </trkpt>
      <trkpt lat="37.9939620" lon="-5.6687070">
        <ele>555.4</ele>
        <time>2022-05-22T10:54:46Z</time>
      </trkpt>
      <trkpt lat="37.9939620" lon="-5.6687070">
        <ele>555.4</ele>
        <time>2022-05-22T10:54:47Z</time>
      </trkpt>
      <trkpt lat="37.9939620" lon="-5.6687080">
        <ele>555.4</ele>
        <time>2022-05-22T10:54:48Z</time>
      </trkpt>
      <trkpt lat="37.9939610" lon="-5.6687080">
        <ele>555.4</ele>
        <time>2022-05-22T10:54:49Z</time>
      </trkpt>
      <trkpt lat="37.9939610" lon="-5.6687080">
        <ele>555.4</ele>
        <time>2022-05-22T10:54:50Z</time>
      </trkpt>
      <trkpt lat="37.9939610" lon="-5.6687080">
        <ele>555.4</ele>
        <time>2022-05-22T10:54:51Z</time>
      </trkpt>
      <trkpt lat="37.9939600" lon="-5.6687080">
        <ele>555.4</ele>
        <time>2022-05-22T10:54:52Z</time>
      </trkpt>
      <trkpt lat="37.9939590" lon="-5.6687080">
        <ele>555.4</ele>
        <time>2022-05-22T10:54:53Z</time>
      </trkpt>
      <trkpt lat="37.9939590" lon="-5.6687080">
        <ele>555.4</ele>
        <time>2022-05-22T10:54:54Z</time>
      </trkpt>
      <trkpt lat="37.9939580" lon="-5.6687090">
        <ele>555.4</ele>
        <time>2022-05-22T10:54:55Z</time>
      </trkpt>
      <trkpt lat="37.9939580" lon="-5.6687090">
        <ele>555.4</ele>
        <time>2022-05-22T10:54:57Z</time>
      </trkpt>
      <trkpt lat="37.9939580" lon="-5.6687090">
        <ele>555.4</ele>
        <time>2022-05-22T10:54:58Z</time>
      </trkpt>
      <trkpt lat="37.9939590" lon="-5.6687110">
        <ele>555.4</ele>
        <time>2022-05-22T10:54:59Z</time>
      </trkpt>
      <trkpt lat="37.9939610" lon="-5.6687160">
        <ele>555.4</ele>
        <time>2022-05-22T10:55:00Z</time>
      </trkpt>
      <trkpt lat="37.9939610" lon="-5.6687120">
        <ele>555.4</ele>
        <time>2022-05-22T10:55:01Z</time>
      </trkpt>
      <trkpt lat="37.9939600" lon="-5.6687090">
        <ele>555.4</ele>
        <time>2022-05-22T10:55:02Z</time>
      </trkpt>
      <trkpt lat="37.9939610" lon="-5.6687050">
        <ele>555.4</ele>
        <time>2022-05-22T10:55:03Z</time>
      </trkpt>
      <trkpt lat="37.9939610" lon="-5.6687040">
        <ele>555.4</ele>
        <time>2022-05-22T10:55:04Z</time>
      </trkpt>
      <trkpt lat="37.9939610" lon="-5.6687020">
        <ele>555.4</ele>
        <time>2022-05-22T10:55:05Z</time>
      </trkpt>
      <trkpt lat="37.9939620" lon="-5.6686990">
        <ele>555.4</ele>
        <time>2022-05-22T10:55:06Z</time>
      </trkpt>
      <trkpt lat="37.9939610" lon="-5.6686960">
        <ele>555.4</ele>
        <time>2022-05-22T10:55:07Z</time>
      </trkpt>
      <trkpt lat="37.9939600" lon="-5.6686950">
        <ele>555.4</ele>
        <time>2022-05-22T10:55:09Z</time>
      </trkpt>
      <trkpt lat="37.9939600" lon="-5.6686950">
        <ele>555.4</ele>
        <time>2022-05-22T10:55:10Z</time>
      </trkpt>
      <trkpt lat="37.9939590" lon="-5.6686940">
        <ele>555.4</ele>
        <time>2022-05-22T10:55:11Z</time>
      </trkpt>
      <trkpt lat="37.9939580" lon="-5.6686940">
        <ele>555.4</ele>
        <time>2022-05-22T10:55:12Z</time>
      </trkpt>
      <trkpt lat="37.9939550" lon="-5.6686920">
        <ele>555.4</ele>
        <time>2022-05-22T10:55:14Z</time>
      </trkpt>
      <trkpt lat="37.9939540" lon="-5.6686900">
        <ele>555.4</ele>
        <time>2022-05-22T10:55:15Z</time>
      </trkpt>
      <trkpt lat="37.9939530" lon="-5.6686900">
        <ele>555.4</ele>
        <time>2022-05-22T10:55:16Z</time>
      </trkpt>
      <trkpt lat="37.9939530" lon="-5.6686890">
        <ele>555.4</ele>
        <time>2022-05-22T10:55:18Z</time>
      </trkpt>
      <trkpt lat="37.9939520" lon="-5.6686870">
        <ele>555.4</ele>
        <time>2022-05-22T10:55:20Z</time>
      </trkpt>
      <trkpt lat="37.9939520" lon="-5.6686850">
        <ele>555.4</ele>
        <time>2022-05-22T10:55:22Z</time>
      </trkpt>
      <trkpt lat="37.9939520" lon="-5.6686840">
        <ele>555.4</ele>
        <time>2022-05-22T10:55:23Z</time>
      </trkpt>
      <trkpt lat="37.9939520" lon="-5.6686830">
        <ele>555.4</ele>
        <time>2022-05-22T10:55:24Z</time>
      </trkpt>
      <trkpt lat="37.9939530" lon="-5.6686810">
        <ele>555.4</ele>
        <time>2022-05-22T10:55:26Z</time>
      </trkpt>
      <trkpt lat="37.9939520" lon="-5.6686810">
        <ele>555.4</ele>
        <time>2022-05-22T10:55:27Z</time>
      </trkpt>
      <trkpt lat="37.9939520" lon="-5.6686810">
        <ele>555.4</ele>
        <time>2022-05-22T10:55:29Z</time>
      </trkpt>
      <trkpt lat="37.9939520" lon="-5.6686820">
        <ele>555.4</ele>
        <time>2022-05-22T10:55:30Z</time>
      </trkpt>
      <trkpt lat="37.9939520" lon="-5.6686820">
        <ele>555.4</ele>
        <time>2022-05-22T10:55:31Z</time>
      </trkpt>
      <trkpt lat="37.9939520" lon="-5.6686830">
        <ele>555.4</ele>
        <time>2022-05-22T10:55:32Z</time>
      </trkpt>
      <trkpt lat="37.9939520" lon="-5.6686830">
        <ele>555.4</ele>
        <time>2022-05-22T10:55:33Z</time>
      </trkpt>
      <trkpt lat="37.9939520" lon="-5.6686830">
        <ele>555.4</ele>
        <time>2022-05-22T10:55:34Z</time>
      </trkpt>
      <trkpt lat="37.9939530" lon="-5.6686830">
        <ele>555.4</ele>
        <time>2022-05-22T10:55:35Z</time>
      </trkpt>
      <trkpt lat="37.9939530" lon="-5.6686820">
        <ele>555.4</ele>
        <time>2022-05-22T10:55:36Z</time>
      </trkpt>
      <trkpt lat="37.9939530" lon="-5.6686820">
        <ele>555.4</ele>
        <time>2022-05-22T10:55:37Z</time>
      </trkpt>
      <trkpt lat="37.9939530" lon="-5.6686810">
        <ele>555.4</ele>
        <time>2022-05-22T10:55:38Z</time>
      </trkpt>
      <trkpt lat="37.9939520" lon="-5.6686810">
        <ele>555.4</ele>
        <time>2022-05-22T10:55:39Z</time>
      </trkpt>
      <trkpt lat="37.9939480" lon="-5.6686800">
        <ele>555.4</ele>
        <time>2022-05-22T10:55:41Z</time>
      </trkpt>
      <trkpt lat="37.9939450" lon="-5.6686790">
        <ele>555.4</ele>
        <time>2022-05-22T10:55:42Z</time>
      </trkpt>
      <trkpt lat="37.9939420" lon="-5.6686790">
        <ele>555.4</ele>
        <time>2022-05-22T10:55:43Z</time>
      </trkpt>
      <trkpt lat="37.9939410" lon="-5.6686790">
        <ele>555.4</ele>
        <time>2022-05-22T10:55:44Z</time>
      </trkpt>
      <trkpt lat="37.9939340" lon="-5.6686760">
        <ele>555.4</ele>
        <time>2022-05-22T10:55:46Z</time>
      </trkpt>
      <trkpt lat="37.9939270" lon="-5.6686760">
        <ele>555.4</ele>
        <time>2022-05-22T10:55:48Z</time>
      </trkpt>
      <trkpt lat="37.9939260" lon="-5.6686770">
        <ele>555.4</ele>
        <time>2022-05-22T10:55:49Z</time>
      </trkpt>
      <trkpt lat="37.9939240" lon="-5.6686770">
        <ele>555.4</ele>
        <time>2022-05-22T10:55:50Z</time>
      </trkpt>
      <trkpt lat="37.9939220" lon="-5.6686770">
        <ele>555.4</ele>
        <time>2022-05-22T10:55:51Z</time>
      </trkpt>
      <trkpt lat="37.9939210" lon="-5.6686770">
        <ele>555.4</ele>
        <time>2022-05-22T10:55:52Z</time>
      </trkpt>
      <trkpt lat="37.9939200" lon="-5.6686760">
        <ele>555.4</ele>
        <time>2022-05-22T10:55:53Z</time>
      </trkpt>
      <trkpt lat="37.9939190" lon="-5.6686760">
        <ele>555.4</ele>
        <time>2022-05-22T10:55:54Z</time>
      </trkpt>
      <trkpt lat="37.9939180" lon="-5.6686760">
        <ele>555.4</ele>
        <time>2022-05-22T10:55:55Z</time>
      </trkpt>
      <trkpt lat="37.9939150" lon="-5.6686760">
        <ele>555.4</ele>
        <time>2022-05-22T10:55:57Z</time>
      </trkpt>
      <trkpt lat="37.9939140" lon="-5.6686760">
        <ele>555.4</ele>
        <time>2022-05-22T10:55:58Z</time>
      </trkpt>
      <trkpt lat="37.9939140" lon="-5.6686770">
        <ele>555.4</ele>
        <time>2022-05-22T10:55:59Z</time>
      </trkpt>
      <trkpt lat="37.9939140" lon="-5.6686770">
        <ele>555.4</ele>
        <time>2022-05-22T10:56:00Z</time>
      </trkpt>
      <trkpt lat="37.9939140" lon="-5.6686770">
        <ele>555.4</ele>
        <time>2022-05-22T10:56:01Z</time>
      </trkpt>
      <trkpt lat="37.9939140" lon="-5.6686770">
        <ele>555.4</ele>
        <time>2022-05-22T10:56:02Z</time>
      </trkpt>
      <trkpt lat="37.9939140" lon="-5.6686790">
        <ele>555.4</ele>
        <time>2022-05-22T10:56:04Z</time>
      </trkpt>
      <trkpt lat="37.9939140" lon="-5.6686830">
        <ele>555.4</ele>
        <time>2022-05-22T10:56:05Z</time>
      </trkpt>
      <trkpt lat="37.9939110" lon="-5.6686890">
        <ele>555.4</ele>
        <time>2022-05-22T10:56:06Z</time>
      </trkpt>
      <trkpt lat="37.9939090" lon="-5.6686930">
        <ele>555.4</ele>
        <time>2022-05-22T10:56:07Z</time>
      </trkpt>
      <trkpt lat="37.9939070" lon="-5.6686980">
        <ele>555.4</ele>
        <time>2022-05-22T10:56:08Z</time>
      </trkpt>
      <trkpt lat="37.9939100" lon="-5.6686980">
        <ele>555.4</ele>
        <time>2022-05-22T10:56:09Z</time>
      </trkpt>
      <trkpt lat="37.9939120" lon="-5.6686990">
        <ele>555.4</ele>
        <time>2022-05-22T10:56:10Z</time>
      </trkpt>
      <trkpt lat="37.9939140" lon="-5.6687000">
        <ele>555.4</ele>
        <time>2022-05-22T10:56:11Z</time>
      </trkpt>
      <trkpt lat="37.9939160" lon="-5.6687010">
        <ele>555.4</ele>
        <time>2022-05-22T10:56:12Z</time>
      </trkpt>
      <trkpt lat="37.9939190" lon="-5.6687020">
        <ele>555.4</ele>
        <time>2022-05-22T10:56:14Z</time>
      </trkpt>
      <trkpt lat="37.9939220" lon="-5.6687030">
        <ele>555.4</ele>
        <time>2022-05-22T10:56:16Z</time>
      </trkpt>
      <trkpt lat="37.9939220" lon="-5.6687040">
        <ele>555.4</ele>
        <time>2022-05-22T10:56:17Z</time>
      </trkpt>
      <trkpt lat="37.9939220" lon="-5.6687040">
        <ele>555.4</ele>
        <time>2022-05-22T10:56:18Z</time>
      </trkpt>
      <trkpt lat="37.9939220" lon="-5.6687050">
        <ele>555.4</ele>
        <time>2022-05-22T10:56:20Z</time>
      </trkpt>
      <trkpt lat="37.9939210" lon="-5.6687040">
        <ele>555.4</ele>
        <time>2022-05-22T10:56:21Z</time>
      </trkpt>
      <trkpt lat="37.9939190" lon="-5.6687010">
        <ele>555.4</ele>
        <time>2022-05-22T10:56:22Z</time>
      </trkpt>
      <trkpt lat="37.9939190" lon="-5.6686980">
        <ele>555.4</ele>
        <time>2022-05-22T10:56:23Z</time>
      </trkpt>
      <trkpt lat="37.9939180" lon="-5.6686960">
        <ele>555.4</ele>
        <time>2022-05-22T10:56:24Z</time>
      </trkpt>
      <trkpt lat="37.9939170" lon="-5.6686940">
        <ele>555.4</ele>
        <time>2022-05-22T10:56:25Z</time>
      </trkpt>
      <trkpt lat="37.9939170" lon="-5.6686940">
        <ele>555.4</ele>
        <time>2022-05-22T10:56:26Z</time>
      </trkpt>
      <trkpt lat="37.9939160" lon="-5.6686950">
        <ele>555.4</ele>
        <time>2022-05-22T10:56:27Z</time>
      </trkpt>
      <trkpt lat="37.9939170" lon="-5.6686960">
        <ele>555.4</ele>
        <time>2022-05-22T10:56:28Z</time>
      </trkpt>
      <trkpt lat="37.9939180" lon="-5.6686960">
        <ele>555.4</ele>
        <time>2022-05-22T10:56:30Z</time>
      </trkpt>
      <trkpt lat="37.9939200" lon="-5.6686950">
        <ele>555.4</ele>
        <time>2022-05-22T10:56:31Z</time>
      </trkpt>
      <trkpt lat="37.9939180" lon="-5.6686930">
        <ele>555.4</ele>
        <time>2022-05-22T10:56:32Z</time>
      </trkpt>
      <trkpt lat="37.9939170" lon="-5.6686890">
        <ele>555.4</ele>
        <time>2022-05-22T10:56:33Z</time>
      </trkpt>
      <trkpt lat="37.9939160" lon="-5.6686870">
        <ele>555.4</ele>
        <time>2022-05-22T10:56:34Z</time>
      </trkpt>
      <trkpt lat="37.9939150" lon="-5.6686860">
        <ele>555.4</ele>
        <time>2022-05-22T10:56:35Z</time>
      </trkpt>
      <trkpt lat="37.9939140" lon="-5.6686830">
        <ele>555.4</ele>
        <time>2022-05-22T10:56:36Z</time>
      </trkpt>
      <trkpt lat="37.9939130" lon="-5.6686810">
        <ele>555.4</ele>
        <time>2022-05-22T10:56:37Z</time>
      </trkpt>
      <trkpt lat="37.9939120" lon="-5.6686800">
        <ele>555.4</ele>
        <time>2022-05-22T10:56:38Z</time>
      </trkpt>
      <trkpt lat="37.9939120" lon="-5.6686780">
        <ele>555.4</ele>
        <time>2022-05-22T10:56:39Z</time>
      </trkpt>
      <trkpt lat="37.9939110" lon="-5.6686770">
        <ele>555.4</ele>
        <time>2022-05-22T10:56:40Z</time>
      </trkpt>
      <trkpt lat="37.9939110" lon="-5.6686760">
        <ele>555.4</ele>
        <time>2022-05-22T10:56:41Z</time>
      </trkpt>
      <trkpt lat="37.9939100" lon="-5.6686750">
        <ele>555.4</ele>
        <time>2022-05-22T10:56:42Z</time>
      </trkpt>
      <trkpt lat="37.9939090" lon="-5.6686750">
        <ele>555.4</ele>
        <time>2022-05-22T10:56:44Z</time>
      </trkpt>
      <trkpt lat="37.9939090" lon="-5.6686760">
        <ele>555.4</ele>
        <time>2022-05-22T10:56:45Z</time>
      </trkpt>
      <trkpt lat="37.9939090" lon="-5.6686760">
        <ele>555.4</ele>
        <time>2022-05-22T10:56:46Z</time>
      </trkpt>
      <trkpt lat="37.9939090" lon="-5.6686760">
        <ele>555.4</ele>
        <time>2022-05-22T10:56:47Z</time>
      </trkpt>
      <trkpt lat="37.9939090" lon="-5.6686760">
        <ele>555.4</ele>
        <time>2022-05-22T10:56:48Z</time>
      </trkpt>
      <trkpt lat="37.9939090" lon="-5.6686760">
        <ele>555.4</ele>
        <time>2022-05-22T10:56:49Z</time>
      </trkpt>
      <trkpt lat="37.9939090" lon="-5.6686750">
        <ele>555.4</ele>
        <time>2022-05-22T10:56:50Z</time>
      </trkpt>
      <trkpt lat="37.9939090" lon="-5.6686750">
        <ele>555.4</ele>
        <time>2022-05-22T10:56:51Z</time>
      </trkpt>
      <trkpt lat="37.9939090" lon="-5.6686750">
        <ele>555.4</ele>
        <time>2022-05-22T10:56:52Z</time>
      </trkpt>
      <trkpt lat="37.9939090" lon="-5.6686750">
        <ele>555.4</ele>
        <time>2022-05-22T10:56:53Z</time>
      </trkpt>
      <trkpt lat="37.9939090" lon="-5.6686740">
        <ele>555.4</ele>
        <time>2022-05-22T10:56:54Z</time>
      </trkpt>
      <trkpt lat="37.9939090" lon="-5.6686740">
        <ele>555.4</ele>
        <time>2022-05-22T10:56:55Z</time>
      </trkpt>
      <trkpt lat="37.9939090" lon="-5.6686730">
        <ele>555.4</ele>
        <time>2022-05-22T10:56:56Z</time>
      </trkpt>
      <trkpt lat="37.9939090" lon="-5.6686730">
        <ele>555.4</ele>
        <time>2022-05-22T10:56:57Z</time>
      </trkpt>
      <trkpt lat="37.9939090" lon="-5.6686720">
        <ele>555.4</ele>
        <time>2022-05-22T10:56:58Z</time>
      </trkpt>
      <trkpt lat="37.9939100" lon="-5.6686720">
        <ele>555.4</ele>
        <time>2022-05-22T10:56:59Z</time>
      </trkpt>
      <trkpt lat="37.9939100" lon="-5.6686720">
        <ele>555.4</ele>
        <time>2022-05-22T10:57:00Z</time>
      </trkpt>
      <trkpt lat="37.9939100" lon="-5.6686720">
        <ele>555.4</ele>
        <time>2022-05-22T10:57:01Z</time>
      </trkpt>
      <trkpt lat="37.9939110" lon="-5.6686720">
        <ele>555.4</ele>
        <time>2022-05-22T10:57:02Z</time>
      </trkpt>
      <trkpt lat="37.9939110" lon="-5.6686720">
        <ele>555.4</ele>
        <time>2022-05-22T10:57:03Z</time>
      </trkpt>
      <trkpt lat="37.9939110" lon="-5.6686720">
        <ele>555.4</ele>
        <time>2022-05-22T10:57:04Z</time>
      </trkpt>
      <trkpt lat="37.9939110" lon="-5.6686720">
        <ele>555.4</ele>
        <time>2022-05-22T10:57:05Z</time>
      </trkpt>
      <trkpt lat="37.9939110" lon="-5.6686730">
        <ele>555.4</ele>
        <time>2022-05-22T10:57:06Z</time>
      </trkpt>
      <trkpt lat="37.9939110" lon="-5.6686730">
        <ele>555.4</ele>
        <time>2022-05-22T10:57:07Z</time>
      </trkpt>
      <trkpt lat="37.9939100" lon="-5.6686730">
        <ele>555.4</ele>
        <time>2022-05-22T10:57:08Z</time>
      </trkpt>
      <trkpt lat="37.9939100" lon="-5.6686730">
        <ele>555.4</ele>
        <time>2022-05-22T10:57:09Z</time>
      </trkpt>
      <trkpt lat="37.9939100" lon="-5.6686720">
        <ele>555.4</ele>
        <time>2022-05-22T10:57:10Z</time>
      </trkpt>
      <trkpt lat="37.9939100" lon="-5.6686730">
        <ele>555.4</ele>
        <time>2022-05-22T10:57:11Z</time>
      </trkpt>
      <trkpt lat="37.9939100" lon="-5.6686730">
        <ele>555.4</ele>
        <time>2022-05-22T10:57:12Z</time>
      </trkpt>
      <trkpt lat="37.9939100" lon="-5.6686730">
        <ele>555.4</ele>
        <time>2022-05-22T10:57:13Z</time>
      </trkpt>
      <trkpt lat="37.9939090" lon="-5.6686730">
        <ele>555.4</ele>
        <time>2022-05-22T10:57:14Z</time>
      </trkpt>
      <trkpt lat="37.9939090" lon="-5.6686730">
        <ele>555.4</ele>
        <time>2022-05-22T10:57:15Z</time>
      </trkpt>
      <trkpt lat="37.9939090" lon="-5.6686730">
        <ele>555.4</ele>
        <time>2022-05-22T10:57:16Z</time>
      </trkpt>
      <trkpt lat="37.9939090" lon="-5.6686730">
        <ele>555.4</ele>
        <time>2022-05-22T10:57:17Z</time>
      </trkpt>
      <trkpt lat="37.9939090" lon="-5.6686730">
        <ele>555.4</ele>
        <time>2022-05-22T10:57:18Z</time>
      </trkpt>
      <trkpt lat="37.9939090" lon="-5.6686730">
        <ele>555.4</ele>
        <time>2022-05-22T10:57:19Z</time>
      </trkpt>
      <trkpt lat="37.9939090" lon="-5.6686730">
        <ele>555.4</ele>
        <time>2022-05-22T10:57:20Z</time>
      </trkpt>
      <trkpt lat="37.9939060" lon="-5.6686740">
        <ele>555.4</ele>
        <time>2022-05-22T10:57:22Z</time>
      </trkpt>
      <trkpt lat="37.9939050" lon="-5.6686740">
        <ele>555.4</ele>
        <time>2022-05-22T10:57:23Z</time>
      </trkpt>
      <trkpt lat="37.9939050" lon="-5.6686740">
        <ele>555.4</ele>
        <time>2022-05-22T10:57:24Z</time>
      </trkpt>
      <trkpt lat="37.9939060" lon="-5.6686740">
        <ele>555.4</ele>
        <time>2022-05-22T10:57:25Z</time>
      </trkpt>
      <trkpt lat="37.9939070" lon="-5.6686740">
        <ele>555.3</ele>
        <time>2022-05-22T10:57:27Z</time>
      </trkpt>
      <trkpt lat="37.9939070" lon="-5.6686740">
        <ele>555.3</ele>
        <time>2022-05-22T10:57:28Z</time>
      </trkpt>
      <trkpt lat="37.9939070" lon="-5.6686740">
        <ele>555.3</ele>
        <time>2022-05-22T10:57:29Z</time>
      </trkpt>
      <trkpt lat="37.9939070" lon="-5.6686730">
        <ele>555.3</ele>
        <time>2022-05-22T10:57:30Z</time>
      </trkpt>
      <trkpt lat="37.9939070" lon="-5.6686730">
        <ele>555.3</ele>
        <time>2022-05-22T10:57:31Z</time>
      </trkpt>
      <trkpt lat="37.9939070" lon="-5.6686730">
        <ele>555.3</ele>
        <time>2022-05-22T10:57:32Z</time>
      </trkpt>
      <trkpt lat="37.9939070" lon="-5.6686730">
        <ele>555.3</ele>
        <time>2022-05-22T10:57:33Z</time>
      </trkpt>
      <trkpt lat="37.9939070" lon="-5.6686730">
        <ele>555.3</ele>
        <time>2022-05-22T10:57:34Z</time>
      </trkpt>
      <trkpt lat="37.9939070" lon="-5.6686740">
        <ele>555.3</ele>
        <time>2022-05-22T10:57:35Z</time>
      </trkpt>
      <trkpt lat="37.9939070" lon="-5.6686740">
        <ele>555.3</ele>
        <time>2022-05-22T10:57:36Z</time>
      </trkpt>
      <trkpt lat="37.9939070" lon="-5.6686730">
        <ele>555.3</ele>
        <time>2022-05-22T10:57:37Z</time>
      </trkpt>
      <trkpt lat="37.9939070" lon="-5.6686730">
        <ele>555.3</ele>
        <time>2022-05-22T10:57:38Z</time>
      </trkpt>
      <trkpt lat="37.9939070" lon="-5.6686730">
        <ele>555.3</ele>
        <time>2022-05-22T10:57:39Z</time>
      </trkpt>
      <trkpt lat="37.9939070" lon="-5.6686730">
        <ele>555.3</ele>
        <time>2022-05-22T10:57:40Z</time>
      </trkpt>
      <trkpt lat="37.9939070" lon="-5.6686740">
        <ele>555.3</ele>
        <time>2022-05-22T10:57:41Z</time>
      </trkpt>
      <trkpt lat="37.9939060" lon="-5.6686750">
        <ele>555.3</ele>
        <time>2022-05-22T10:57:42Z</time>
      </trkpt>
      <trkpt lat="37.9939060" lon="-5.6686750">
        <ele>555.3</ele>
        <time>2022-05-22T10:57:43Z</time>
      </trkpt>
      <trkpt lat="37.9939060" lon="-5.6686760">
        <ele>555.3</ele>
        <time>2022-05-22T10:57:44Z</time>
      </trkpt>
      <trkpt lat="37.9939060" lon="-5.6686750">
        <ele>555.3</ele>
        <time>2022-05-22T10:57:46Z</time>
      </trkpt>
      <trkpt lat="37.9939050" lon="-5.6686750">
        <ele>555.3</ele>
        <time>2022-05-22T10:57:47Z</time>
      </trkpt>
      <trkpt lat="37.9939050" lon="-5.6686750">
        <ele>555.3</ele>
        <time>2022-05-22T10:57:48Z</time>
      </trkpt>
      <trkpt lat="37.9939050" lon="-5.6686760">
        <ele>555.3</ele>
        <time>2022-05-22T10:57:49Z</time>
      </trkpt>
      <trkpt lat="37.9939040" lon="-5.6686750">
        <ele>555.3</ele>
        <time>2022-05-22T10:57:51Z</time>
      </trkpt>
      <trkpt lat="37.9939050" lon="-5.6686750">
        <ele>555.3</ele>
        <time>2022-05-22T10:57:52Z</time>
      </trkpt>
      <trkpt lat="37.9939050" lon="-5.6686750">
        <ele>555.3</ele>
        <time>2022-05-22T10:57:53Z</time>
      </trkpt>
      <trkpt lat="37.9939050" lon="-5.6686750">
        <ele>555.3</ele>
        <time>2022-05-22T10:57:54Z</time>
      </trkpt>
      <trkpt lat="37.9939060" lon="-5.6686750">
        <ele>555.3</ele>
        <time>2022-05-22T10:57:55Z</time>
      </trkpt>
      <trkpt lat="37.9939060" lon="-5.6686740">
        <ele>555.3</ele>
        <time>2022-05-22T10:57:56Z</time>
      </trkpt>
      <trkpt lat="37.9939060" lon="-5.6686740">
        <ele>555.3</ele>
        <time>2022-05-22T10:57:58Z</time>
      </trkpt>
      <trkpt lat="37.9939060" lon="-5.6686740">
        <ele>555.3</ele>
        <time>2022-05-22T10:57:59Z</time>
      </trkpt>
      <trkpt lat="37.9939060" lon="-5.6686740">
        <ele>555.3</ele>
        <time>2022-05-22T10:58:00Z</time>
      </trkpt>
      <trkpt lat="37.9939050" lon="-5.6686750">
        <ele>555.3</ele>
        <time>2022-05-22T10:58:01Z</time>
      </trkpt>
      <trkpt lat="37.9939040" lon="-5.6686750">
        <ele>555.3</ele>
        <time>2022-05-22T10:58:02Z</time>
      </trkpt>
      <trkpt lat="37.9939050" lon="-5.6686740">
        <ele>555.3</ele>
        <time>2022-05-22T10:58:04Z</time>
      </trkpt>
      <trkpt lat="37.9939050" lon="-5.6686740">
        <ele>555.3</ele>
        <time>2022-05-22T10:58:05Z</time>
      </trkpt>
      <trkpt lat="37.9939060" lon="-5.6686740">
        <ele>555.3</ele>
        <time>2022-05-22T10:58:06Z</time>
      </trkpt>
      <trkpt lat="37.9939060" lon="-5.6686740">
        <ele>555.3</ele>
        <time>2022-05-22T10:58:07Z</time>
      </trkpt>
      <trkpt lat="37.9939070" lon="-5.6686740">
        <ele>555.3</ele>
        <time>2022-05-22T10:58:08Z</time>
      </trkpt>
      <trkpt lat="37.9939070" lon="-5.6686740">
        <ele>555.3</ele>
        <time>2022-05-22T10:58:09Z</time>
      </trkpt>
      <trkpt lat="37.9939070" lon="-5.6686740">
        <ele>555.3</ele>
        <time>2022-05-22T10:58:10Z</time>
      </trkpt>
      <trkpt lat="37.9939070" lon="-5.6686740">
        <ele>555.3</ele>
        <time>2022-05-22T10:58:11Z</time>
      </trkpt>
      <trkpt lat="37.9939080" lon="-5.6686730">
        <ele>555.3</ele>
        <time>2022-05-22T10:58:12Z</time>
      </trkpt>
      <trkpt lat="37.9939080" lon="-5.6686740">
        <ele>555.3</ele>
        <time>2022-05-22T10:58:14Z</time>
      </trkpt>
      <trkpt lat="37.9939080" lon="-5.6686750">
        <ele>555.3</ele>
        <time>2022-05-22T10:58:15Z</time>
      </trkpt>
      <trkpt lat="37.9939070" lon="-5.6686760">
        <ele>555.3</ele>
        <time>2022-05-22T10:58:16Z</time>
      </trkpt>
      <trkpt lat="37.9939060" lon="-5.6686770">
        <ele>555.3</ele>
        <time>2022-05-22T10:58:18Z</time>
      </trkpt>
      <trkpt lat="37.9939050" lon="-5.6686770">
        <ele>555.3</ele>
        <time>2022-05-22T10:58:19Z</time>
      </trkpt>
      <trkpt lat="37.9939030" lon="-5.6686780">
        <ele>555.3</ele>
        <time>2022-05-22T10:58:20Z</time>
      </trkpt>
      <trkpt lat="37.9939030" lon="-5.6686780">
        <ele>555.3</ele>
        <time>2022-05-22T10:58:21Z</time>
      </trkpt>
      <trkpt lat="37.9939020" lon="-5.6686780">
        <ele>555.3</ele>
        <time>2022-05-22T10:58:22Z</time>
      </trkpt>
      <trkpt lat="37.9939010" lon="-5.6686770">
        <ele>555.3</ele>
        <time>2022-05-22T10:58:23Z</time>
      </trkpt>
      <trkpt lat="37.9939010" lon="-5.6686770">
        <ele>555.3</ele>
        <time>2022-05-22T10:58:24Z</time>
      </trkpt>
      <trkpt lat="37.9939010" lon="-5.6686770">
        <ele>555.3</ele>
        <time>2022-05-22T10:58:25Z</time>
      </trkpt>
      <trkpt lat="37.9939020" lon="-5.6686770">
        <ele>555.3</ele>
        <time>2022-05-22T10:58:26Z</time>
      </trkpt>
      <trkpt lat="37.9939020" lon="-5.6686770">
        <ele>555.3</ele>
        <time>2022-05-22T10:58:27Z</time>
      </trkpt>
      <trkpt lat="37.9939020" lon="-5.6686780">
        <ele>555.3</ele>
        <time>2022-05-22T10:58:28Z</time>
      </trkpt>
      <trkpt lat="37.9939020" lon="-5.6686780">
        <ele>555.3</ele>
        <time>2022-05-22T10:58:29Z</time>
      </trkpt>
      <trkpt lat="37.9939020" lon="-5.6686780">
        <ele>555.3</ele>
        <time>2022-05-22T10:58:30Z</time>
      </trkpt>
      <trkpt lat="37.9939020" lon="-5.6686780">
        <ele>555.3</ele>
        <time>2022-05-22T10:58:31Z</time>
      </trkpt>
      <trkpt lat="37.9939020" lon="-5.6686780">
        <ele>555.3</ele>
        <time>2022-05-22T10:58:32Z</time>
      </trkpt>
      <trkpt lat="37.9939020" lon="-5.6686770">
        <ele>555.3</ele>
        <time>2022-05-22T10:58:33Z</time>
      </trkpt>
      <trkpt lat="37.9939020" lon="-5.6686770">
        <ele>555.3</ele>
        <time>2022-05-22T10:58:34Z</time>
      </trkpt>
      <trkpt lat="37.9939030" lon="-5.6686770">
        <ele>555.3</ele>
        <time>2022-05-22T10:58:35Z</time>
      </trkpt>
      <trkpt lat="37.9939030" lon="-5.6686770">
        <ele>555.3</ele>
        <time>2022-05-22T10:58:36Z</time>
      </trkpt>
      <trkpt lat="37.9939030" lon="-5.6686770">
        <ele>555.3</ele>
        <time>2022-05-22T10:58:37Z</time>
      </trkpt>
      <trkpt lat="37.9939030" lon="-5.6686770">
        <ele>555.3</ele>
        <time>2022-05-22T10:58:38Z</time>
      </trkpt>
      <trkpt lat="37.9939030" lon="-5.6686770">
        <ele>555.3</ele>
        <time>2022-05-22T10:58:39Z</time>
      </trkpt>
      <trkpt lat="37.9939020" lon="-5.6686770">
        <ele>555.3</ele>
        <time>2022-05-22T10:58:40Z</time>
      </trkpt>
      <trkpt lat="37.9939020" lon="-5.6686770">
        <ele>555.3</ele>
        <time>2022-05-22T10:58:41Z</time>
      </trkpt>
      <trkpt lat="37.9939020" lon="-5.6686770">
        <ele>555.3</ele>
        <time>2022-05-22T10:58:42Z</time>
      </trkpt>
      <trkpt lat="37.9939020" lon="-5.6686770">
        <ele>555.3</ele>
        <time>2022-05-22T10:58:43Z</time>
      </trkpt>
      <trkpt lat="37.9939020" lon="-5.6686770">
        <ele>555.3</ele>
        <time>2022-05-22T10:58:44Z</time>
      </trkpt>
      <trkpt lat="37.9939020" lon="-5.6686760">
        <ele>555.3</ele>
        <time>2022-05-22T10:58:45Z</time>
      </trkpt>
      <trkpt lat="37.9939020" lon="-5.6686760">
        <ele>555.3</ele>
        <time>2022-05-22T10:58:46Z</time>
      </trkpt>
      <trkpt lat="37.9939020" lon="-5.6686760">
        <ele>555.3</ele>
        <time>2022-05-22T10:58:47Z</time>
      </trkpt>
      <trkpt lat="37.9939030" lon="-5.6686760">
        <ele>555.3</ele>
        <time>2022-05-22T10:58:49Z</time>
      </trkpt>
      <trkpt lat="37.9939030" lon="-5.6686750">
        <ele>555.3</ele>
        <time>2022-05-22T10:58:50Z</time>
      </trkpt>
      <trkpt lat="37.9939040" lon="-5.6686750">
        <ele>555.3</ele>
        <time>2022-05-22T10:58:51Z</time>
      </trkpt>
      <trkpt lat="37.9939040" lon="-5.6686750">
        <ele>555.3</ele>
        <time>2022-05-22T10:58:52Z</time>
      </trkpt>
      <trkpt lat="37.9939040" lon="-5.6686750">
        <ele>555.3</ele>
        <time>2022-05-22T10:58:53Z</time>
      </trkpt>
      <trkpt lat="37.9939040" lon="-5.6686750">
        <ele>555.3</ele>
        <time>2022-05-22T10:58:54Z</time>
      </trkpt>
      <trkpt lat="37.9939040" lon="-5.6686750">
        <ele>555.3</ele>
        <time>2022-05-22T10:58:55Z</time>
      </trkpt>
      <trkpt lat="37.9939040" lon="-5.6686750">
        <ele>555.3</ele>
        <time>2022-05-22T10:58:56Z</time>
      </trkpt>
      <trkpt lat="37.9939040" lon="-5.6686750">
        <ele>555.3</ele>
        <time>2022-05-22T10:58:57Z</time>
      </trkpt>
      <trkpt lat="37.9939040" lon="-5.6686750">
        <ele>555.3</ele>
        <time>2022-05-22T10:58:58Z</time>
      </trkpt>
      <trkpt lat="37.9939040" lon="-5.6686750">
        <ele>555.3</ele>
        <time>2022-05-22T10:58:59Z</time>
      </trkpt>
      <trkpt lat="37.9939040" lon="-5.6686750">
        <ele>555.3</ele>
        <time>2022-05-22T10:59:00Z</time>
      </trkpt>
      <trkpt lat="37.9939040" lon="-5.6686750">
        <ele>555.3</ele>
        <time>2022-05-22T10:59:01Z</time>
      </trkpt>
      <trkpt lat="37.9939040" lon="-5.6686750">
        <ele>555.3</ele>
        <time>2022-05-22T10:59:02Z</time>
      </trkpt>
      <trkpt lat="37.9939040" lon="-5.6686750">
        <ele>555.3</ele>
        <time>2022-05-22T10:59:03Z</time>
      </trkpt>
      <trkpt lat="37.9939040" lon="-5.6686750">
        <ele>555.3</ele>
        <time>2022-05-22T10:59:04Z</time>
      </trkpt>
      <trkpt lat="37.9939040" lon="-5.6686750">
        <ele>555.3</ele>
        <time>2022-05-22T10:59:05Z</time>
      </trkpt>
      <trkpt lat="37.9939040" lon="-5.6686750">
        <ele>555.3</ele>
        <time>2022-05-22T10:59:06Z</time>
      </trkpt>
      <trkpt lat="37.9939040" lon="-5.6686750">
        <ele>555.3</ele>
        <time>2022-05-22T10:59:07Z</time>
      </trkpt>
      <trkpt lat="37.9939040" lon="-5.6686750">
        <ele>555.3</ele>
        <time>2022-05-22T10:59:08Z</time>
      </trkpt>
      <trkpt lat="37.9939040" lon="-5.6686750">
        <ele>555.3</ele>
        <time>2022-05-22T10:59:09Z</time>
      </trkpt>
      <trkpt lat="37.9939040" lon="-5.6686750">
        <ele>555.3</ele>
        <time>2022-05-22T10:59:10Z</time>
      </trkpt>
      <trkpt lat="37.9939040" lon="-5.6686750">
        <ele>555.3</ele>
        <time>2022-05-22T10:59:11Z</time>
      </trkpt>
      <trkpt lat="37.9939040" lon="-5.6686750">
        <ele>555.3</ele>
        <time>2022-05-22T10:59:12Z</time>
      </trkpt>
      <trkpt lat="37.9939040" lon="-5.6686750">
        <ele>555.3</ele>
        <time>2022-05-22T10:59:13Z</time>
      </trkpt>
      <trkpt lat="37.9939040" lon="-5.6686750">
        <ele>555.3</ele>
        <time>2022-05-22T10:59:14Z</time>
      </trkpt>
      <trkpt lat="37.9939040" lon="-5.6686750">
        <ele>555.3</ele>
        <time>2022-05-22T10:59:15Z</time>
      </trkpt>
      <trkpt lat="37.9939040" lon="-5.6686750">
        <ele>555.3</ele>
        <time>2022-05-22T10:59:16Z</time>
      </trkpt>
      <trkpt lat="37.9939040" lon="-5.6686750">
        <ele>555.3</ele>
        <time>2022-05-22T10:59:17Z</time>
      </trkpt>
      <trkpt lat="37.9939040" lon="-5.6686750">
        <ele>555.3</ele>
        <time>2022-05-22T10:59:18Z</time>
      </trkpt>
      <trkpt lat="37.9939050" lon="-5.6686730">
        <ele>555.3</ele>
        <time>2022-05-22T10:59:19Z</time>
      </trkpt>
      <trkpt lat="37.9939070" lon="-5.6686730">
        <ele>555.3</ele>
        <time>2022-05-22T10:59:20Z</time>
      </trkpt>
      <trkpt lat="37.9939070" lon="-5.6686730">
        <ele>555.3</ele>
        <time>2022-05-22T10:59:21Z</time>
      </trkpt>
      <trkpt lat="37.9939070" lon="-5.6686730">
        <ele>555.3</ele>
        <time>2022-05-22T10:59:22Z</time>
      </trkpt>
      <trkpt lat="37.9939080" lon="-5.6686740">
        <ele>555.3</ele>
        <time>2022-05-22T10:59:23Z</time>
      </trkpt>
      <trkpt lat="37.9939070" lon="-5.6686740">
        <ele>555.3</ele>
        <time>2022-05-22T10:59:24Z</time>
      </trkpt>
      <trkpt lat="37.9939070" lon="-5.6686750">
        <ele>555.3</ele>
        <time>2022-05-22T10:59:25Z</time>
      </trkpt>
      <trkpt lat="37.9939060" lon="-5.6686760">
        <ele>555.3</ele>
        <time>2022-05-22T10:59:26Z</time>
      </trkpt>
      <trkpt lat="37.9939060" lon="-5.6686760">
        <ele>555.3</ele>
        <time>2022-05-22T10:59:27Z</time>
      </trkpt>
      <trkpt lat="37.9939050" lon="-5.6686780">
        <ele>555.3</ele>
        <time>2022-05-22T10:59:29Z</time>
      </trkpt>
      <trkpt lat="37.9939050" lon="-5.6686780">
        <ele>555.3</ele>
        <time>2022-05-22T10:59:30Z</time>
      </trkpt>
      <trkpt lat="37.9939050" lon="-5.6686790">
        <ele>555.3</ele>
        <time>2022-05-22T10:59:31Z</time>
      </trkpt>
      <trkpt lat="37.9939040" lon="-5.6686790">
        <ele>555.3</ele>
        <time>2022-05-22T10:59:32Z</time>
      </trkpt>
      <trkpt lat="37.9939030" lon="-5.6686780">
        <ele>555.3</ele>
        <time>2022-05-22T10:59:34Z</time>
      </trkpt>
      <trkpt lat="37.9939030" lon="-5.6686780">
        <ele>555.3</ele>
        <time>2022-05-22T10:59:35Z</time>
      </trkpt>
      <trkpt lat="37.9939030" lon="-5.6686770">
        <ele>555.3</ele>
        <time>2022-05-22T10:59:36Z</time>
      </trkpt>
      <trkpt lat="37.9939040" lon="-5.6686770">
        <ele>555.3</ele>
        <time>2022-05-22T10:59:37Z</time>
      </trkpt>
      <trkpt lat="37.9939040" lon="-5.6686760">
        <ele>555.3</ele>
        <time>2022-05-22T10:59:38Z</time>
      </trkpt>
      <trkpt lat="37.9939040" lon="-5.6686750">
        <ele>555.3</ele>
        <time>2022-05-22T10:59:40Z</time>
      </trkpt>
      <trkpt lat="37.9939040" lon="-5.6686750">
        <ele>555.3</ele>
        <time>2022-05-22T10:59:41Z</time>
      </trkpt>
      <trkpt lat="37.9939040" lon="-5.6686750">
        <ele>555.3</ele>
        <time>2022-05-22T10:59:42Z</time>
      </trkpt>
      <trkpt lat="37.9939040" lon="-5.6686740">
        <ele>555.3</ele>
        <time>2022-05-22T10:59:43Z</time>
      </trkpt>
      <trkpt lat="37.9939040" lon="-5.6686740">
        <ele>555.3</ele>
        <time>2022-05-22T10:59:44Z</time>
      </trkpt>
      <trkpt lat="37.9939040" lon="-5.6686740">
        <ele>555.3</ele>
        <time>2022-05-22T10:59:46Z</time>
      </trkpt>
      <trkpt lat="37.9939040" lon="-5.6686750">
        <ele>555.3</ele>
        <time>2022-05-22T10:59:47Z</time>
      </trkpt>
      <trkpt lat="37.9939040" lon="-5.6686750">
        <ele>555.3</ele>
        <time>2022-05-22T10:59:48Z</time>
      </trkpt>
      <trkpt lat="37.9939040" lon="-5.6686750">
        <ele>555.3</ele>
        <time>2022-05-22T10:59:49Z</time>
      </trkpt>
      <trkpt lat="37.9939040" lon="-5.6686760">
        <ele>555.3</ele>
        <time>2022-05-22T10:59:50Z</time>
      </trkpt>
      <trkpt lat="37.9939050" lon="-5.6686790">
        <ele>555.3</ele>
        <time>2022-05-22T10:59:52Z</time>
      </trkpt>
      <trkpt lat="37.9939060" lon="-5.6686770">
        <ele>555.3</ele>
        <time>2022-05-22T10:59:53Z</time>
      </trkpt>
      <trkpt lat="37.9939090" lon="-5.6686740">
        <ele>555.3</ele>
        <time>2022-05-22T10:59:54Z</time>
      </trkpt>
      <trkpt lat="37.9939110" lon="-5.6686720">
        <ele>555.3</ele>
        <time>2022-05-22T10:59:55Z</time>
      </trkpt>
      <trkpt lat="37.9939120" lon="-5.6686710">
        <ele>555.3</ele>
        <time>2022-05-22T10:59:56Z</time>
      </trkpt>
      <trkpt lat="37.9939130" lon="-5.6686690">
        <ele>555.3</ele>
        <time>2022-05-22T10:59:58Z</time>
      </trkpt>
      <trkpt lat="37.9939130" lon="-5.6686690">
        <ele>555.3</ele>
        <time>2022-05-22T10:59:59Z</time>
      </trkpt>
      <trkpt lat="37.9939140" lon="-5.6686680">
        <ele>555.3</ele>
        <time>2022-05-22T11:00:00Z</time>
      </trkpt>
      <trkpt lat="37.9939140" lon="-5.6686680">
        <ele>555.3</ele>
        <time>2022-05-22T11:00:01Z</time>
      </trkpt>
      <trkpt lat="37.9939150" lon="-5.6686680">
        <ele>555.3</ele>
        <time>2022-05-22T11:00:02Z</time>
      </trkpt>
      <trkpt lat="37.9939150" lon="-5.6686680">
        <ele>555.3</ele>
        <time>2022-05-22T11:00:03Z</time>
      </trkpt>
      <trkpt lat="37.9939150" lon="-5.6686670">
        <ele>555.3</ele>
        <time>2022-05-22T11:00:04Z</time>
      </trkpt>
      <trkpt lat="37.9939170" lon="-5.6686660">
        <ele>555.3</ele>
        <time>2022-05-22T11:00:05Z</time>
      </trkpt>
      <trkpt lat="37.9939180" lon="-5.6686660">
        <ele>555.3</ele>
        <time>2022-05-22T11:00:06Z</time>
      </trkpt>
      <trkpt lat="37.9939180" lon="-5.6686650">
        <ele>555.3</ele>
        <time>2022-05-22T11:00:07Z</time>
      </trkpt>
      <trkpt lat="37.9939180" lon="-5.6686650">
        <ele>555.3</ele>
        <time>2022-05-22T11:00:08Z</time>
      </trkpt>
      <trkpt lat="37.9939180" lon="-5.6686650">
        <ele>555.3</ele>
        <time>2022-05-22T11:00:09Z</time>
      </trkpt>
      <trkpt lat="37.9939180" lon="-5.6686650">
        <ele>555.3</ele>
        <time>2022-05-22T11:00:10Z</time>
      </trkpt>
      <trkpt lat="37.9939190" lon="-5.6686650">
        <ele>555.3</ele>
        <time>2022-05-22T11:00:11Z</time>
      </trkpt>
      <trkpt lat="37.9939190" lon="-5.6686650">
        <ele>555.3</ele>
        <time>2022-05-22T11:00:12Z</time>
      </trkpt>
      <trkpt lat="37.9939190" lon="-5.6686650">
        <ele>555.3</ele>
        <time>2022-05-22T11:00:13Z</time>
      </trkpt>
      <trkpt lat="37.9939190" lon="-5.6686650">
        <ele>555.3</ele>
        <time>2022-05-22T11:00:14Z</time>
      </trkpt>
      <trkpt lat="37.9939190" lon="-5.6686650">
        <ele>555.3</ele>
        <time>2022-05-22T11:00:15Z</time>
      </trkpt>
      <trkpt lat="37.9939190" lon="-5.6686650">
        <ele>555.3</ele>
        <time>2022-05-22T11:00:16Z</time>
      </trkpt>
      <trkpt lat="37.9939190" lon="-5.6686650">
        <ele>555.3</ele>
        <time>2022-05-22T11:00:17Z</time>
      </trkpt>
      <trkpt lat="37.9939190" lon="-5.6686650">
        <ele>555.3</ele>
        <time>2022-05-22T11:00:18Z</time>
      </trkpt>
      <trkpt lat="37.9939190" lon="-5.6686650">
        <ele>555.3</ele>
        <time>2022-05-22T11:00:19Z</time>
      </trkpt>
      <trkpt lat="37.9939190" lon="-5.6686650">
        <ele>555.3</ele>
        <time>2022-05-22T11:00:20Z</time>
      </trkpt>
      <trkpt lat="37.9939190" lon="-5.6686650">
        <ele>555.3</ele>
        <time>2022-05-22T11:00:21Z</time>
      </trkpt>
      <trkpt lat="37.9939190" lon="-5.6686650">
        <ele>555.3</ele>
        <time>2022-05-22T11:00:22Z</time>
      </trkpt>
      <trkpt lat="37.9939190" lon="-5.6686650">
        <ele>555.3</ele>
        <time>2022-05-22T11:00:23Z</time>
      </trkpt>
      <trkpt lat="37.9939190" lon="-5.6686650">
        <ele>555.3</ele>
        <time>2022-05-22T11:00:24Z</time>
      </trkpt>
      <trkpt lat="37.9939190" lon="-5.6686650">
        <ele>555.3</ele>
        <time>2022-05-22T11:00:25Z</time>
      </trkpt>
      <trkpt lat="37.9939190" lon="-5.6686650">
        <ele>555.3</ele>
        <time>2022-05-22T11:00:26Z</time>
      </trkpt>
      <trkpt lat="37.9939190" lon="-5.6686650">
        <ele>555.3</ele>
        <time>2022-05-22T11:00:27Z</time>
      </trkpt>
      <trkpt lat="37.9939190" lon="-5.6686650">
        <ele>555.3</ele>
        <time>2022-05-22T11:00:28Z</time>
      </trkpt>
      <trkpt lat="37.9939190" lon="-5.6686650">
        <ele>555.3</ele>
        <time>2022-05-22T11:00:29Z</time>
      </trkpt>
      <trkpt lat="37.9939190" lon="-5.6686650">
        <ele>555.3</ele>
        <time>2022-05-22T11:00:30Z</time>
      </trkpt>
      <trkpt lat="37.9939190" lon="-5.6686650">
        <ele>555.3</ele>
        <time>2022-05-22T11:00:31Z</time>
      </trkpt>
      <trkpt lat="37.9939190" lon="-5.6686650">
        <ele>555.3</ele>
        <time>2022-05-22T11:00:32Z</time>
      </trkpt>
      <trkpt lat="37.9939190" lon="-5.6686650">
        <ele>555.3</ele>
        <time>2022-05-22T11:00:33Z</time>
      </trkpt>
      <trkpt lat="37.9939190" lon="-5.6686650">
        <ele>555.3</ele>
        <time>2022-05-22T11:00:34Z</time>
      </trkpt>
      <trkpt lat="37.9939190" lon="-5.6686650">
        <ele>555.3</ele>
        <time>2022-05-22T11:00:35Z</time>
      </trkpt>
      <trkpt lat="37.9939190" lon="-5.6686620">
        <ele>555.3</ele>
        <time>2022-05-22T11:00:36Z</time>
      </trkpt>
      <trkpt lat="37.9939220" lon="-5.6686610">
        <ele>555.3</ele>
        <time>2022-05-22T11:00:37Z</time>
      </trkpt>
      <trkpt lat="37.9939220" lon="-5.6686630">
        <ele>555.3</ele>
        <time>2022-05-22T11:00:38Z</time>
      </trkpt>
      <trkpt lat="37.9939230" lon="-5.6686660">
        <ele>555.3</ele>
        <time>2022-05-22T11:00:39Z</time>
      </trkpt>
      <trkpt lat="37.9939260" lon="-5.6686670">
        <ele>555.3</ele>
        <time>2022-05-22T11:00:40Z</time>
      </trkpt>
      <trkpt lat="37.9939270" lon="-5.6686680">
        <ele>555.3</ele>
        <time>2022-05-22T11:00:41Z</time>
      </trkpt>
      <trkpt lat="37.9939260" lon="-5.6686700">
        <ele>555.3</ele>
        <time>2022-05-22T11:00:42Z</time>
      </trkpt>
      <trkpt lat="37.9939210" lon="-5.6686770">
        <ele>555.3</ele>
        <time>2022-05-22T11:00:43Z</time>
      </trkpt>
      <trkpt lat="37.9939180" lon="-5.6686820">
        <ele>555.3</ele>
        <time>2022-05-22T11:00:44Z</time>
      </trkpt>
      <trkpt lat="37.9939150" lon="-5.6686880">
        <ele>555.3</ele>
        <time>2022-05-22T11:00:45Z</time>
      </trkpt>
      <trkpt lat="37.9939130" lon="-5.6686940">
        <ele>555.3</ele>
        <time>2022-05-22T11:00:46Z</time>
      </trkpt>
      <trkpt lat="37.9939100" lon="-5.6686980">
        <ele>555.3</ele>
        <time>2022-05-22T11:00:47Z</time>
      </trkpt>
      <trkpt lat="37.9939080" lon="-5.6687010">
        <ele>555.3</ele>
        <time>2022-05-22T11:00:48Z</time>
      </trkpt>
      <trkpt lat="37.9939060" lon="-5.6687020">
        <ele>555.3</ele>
        <time>2022-05-22T11:00:49Z</time>
      </trkpt>
      <trkpt lat="37.9939050" lon="-5.6687020">
        <ele>555.3</ele>
        <time>2022-05-22T11:00:50Z</time>
      </trkpt>
      <trkpt lat="37.9939050" lon="-5.6687030">
        <ele>555.3</ele>
        <time>2022-05-22T11:00:51Z</time>
      </trkpt>
      <trkpt lat="37.9939050" lon="-5.6687030">
        <ele>555.3</ele>
        <time>2022-05-22T11:00:52Z</time>
      </trkpt>
      <trkpt lat="37.9939050" lon="-5.6687040">
        <ele>555.3</ele>
        <time>2022-05-22T11:00:53Z</time>
      </trkpt>
      <trkpt lat="37.9939050" lon="-5.6687040">
        <ele>555.3</ele>
        <time>2022-05-22T11:00:55Z</time>
      </trkpt>
      <trkpt lat="37.9939990" lon="-5.6692490">
        <ele>555.2</ele>
        <time>2022-05-22T11:04:18Z</time>
      </trkpt>
      <trkpt lat="37.9940530" lon="-5.6692160">
        <ele>555.1</ele>
        <time>2022-05-22T11:04:21Z</time>
      </trkpt>
      <trkpt lat="37.9940300" lon="-5.6692030">
        <ele>555.1</ele>
        <time>2022-05-22T11:04:22Z</time>
      </trkpt>
      <trkpt lat="37.9940000" lon="-5.6692120">
        <ele>555.1</ele>
        <time>2022-05-22T11:04:23Z</time>
      </trkpt>
      <trkpt lat="37.9939690" lon="-5.6692210">
        <ele>555.0</ele>
        <time>2022-05-22T11:04:24Z</time>
      </trkpt>
      <trkpt lat="37.9939390" lon="-5.6692290">
        <ele>555.0</ele>
        <time>2022-05-22T11:04:25Z</time>
      </trkpt>
      <trkpt lat="37.9939250" lon="-5.6692340">
        <ele>555.0</ele>
        <time>2022-05-22T11:04:26Z</time>
      </trkpt>
      <trkpt lat="37.9939250" lon="-5.6692340">
        <ele>555.0</ele>
        <time>2022-05-22T11:04:27Z</time>
      </trkpt>
      <trkpt lat="37.9939250" lon="-5.6692340">
        <ele>555.0</ele>
        <time>2022-05-22T11:04:29Z</time>
      </trkpt>
      <trkpt lat="37.9939250" lon="-5.6692340">
        <ele>555.0</ele>
        <time>2022-05-22T11:04:30Z</time>
      </trkpt>
      <trkpt lat="37.9939240" lon="-5.6692350">
        <ele>554.9</ele>
        <time>2022-05-22T11:04:31Z</time>
      </trkpt>
      <trkpt lat="37.9939240" lon="-5.6692350">
        <ele>554.9</ele>
        <time>2022-05-22T11:04:32Z</time>
      </trkpt>
      <trkpt lat="37.9939240" lon="-5.6692350">
        <ele>554.9</ele>
        <time>2022-05-22T11:04:33Z</time>
      </trkpt>
      <trkpt lat="37.9939240" lon="-5.6692350">
        <ele>554.9</ele>
        <time>2022-05-22T11:04:35Z</time>
      </trkpt>
      <trkpt lat="37.9939240" lon="-5.6692350">
        <ele>554.9</ele>
        <time>2022-05-22T11:04:36Z</time>
      </trkpt>
      <trkpt lat="37.9939240" lon="-5.6692350">
        <ele>554.9</ele>
        <time>2022-05-22T11:04:37Z</time>
      </trkpt>
      <trkpt lat="37.9939240" lon="-5.6692360">
        <ele>554.9</ele>
        <time>2022-05-22T11:04:38Z</time>
      </trkpt>
      <trkpt lat="37.9939240" lon="-5.6692360">
        <ele>554.9</ele>
        <time>2022-05-22T11:04:39Z</time>
      </trkpt>
      <trkpt lat="37.9939240" lon="-5.6692360">
        <ele>554.9</ele>
        <time>2022-05-22T11:04:40Z</time>
      </trkpt>
      <trkpt lat="37.9939240" lon="-5.6692360">
        <ele>554.9</ele>
        <time>2022-05-22T11:04:41Z</time>
      </trkpt>
      <trkpt lat="37.9939240" lon="-5.6692360">
        <ele>554.9</ele>
        <time>2022-05-22T11:04:42Z</time>
      </trkpt>
      <trkpt lat="37.9939240" lon="-5.6692370">
        <ele>554.9</ele>
        <time>2022-05-22T11:04:43Z</time>
      </trkpt>
      <trkpt lat="37.9939240" lon="-5.6692370">
        <ele>554.9</ele>
        <time>2022-05-22T11:04:44Z</time>
      </trkpt>
      <trkpt lat="37.9939240" lon="-5.6692370">
        <ele>554.9</ele>
        <time>2022-05-22T11:04:45Z</time>
      </trkpt>
      <trkpt lat="37.9939240" lon="-5.6692370">
        <ele>554.9</ele>
        <time>2022-05-22T11:04:46Z</time>
      </trkpt>
      <trkpt lat="37.9939240" lon="-5.6692370">
        <ele>554.9</ele>
        <time>2022-05-22T11:04:47Z</time>
      </trkpt>
      <trkpt lat="37.9939240" lon="-5.6692370">
        <ele>554.9</ele>
        <time>2022-05-22T11:04:48Z</time>
      </trkpt>
      <trkpt lat="37.9939240" lon="-5.6692380">
        <ele>554.9</ele>
        <time>2022-05-22T11:04:49Z</time>
      </trkpt>
      <trkpt lat="37.9939240" lon="-5.6692380">
        <ele>554.9</ele>
        <time>2022-05-22T11:04:50Z</time>
      </trkpt>
      <trkpt lat="37.9939240" lon="-5.6692380">
        <ele>554.9</ele>
        <time>2022-05-22T11:04:51Z</time>
      </trkpt>
      <trkpt lat="37.9939240" lon="-5.6692380">
        <ele>554.9</ele>
        <time>2022-05-22T11:04:52Z</time>
      </trkpt>
      <trkpt lat="37.9939240" lon="-5.6692380">
        <ele>554.9</ele>
        <time>2022-05-22T11:04:53Z</time>
      </trkpt>
      <trkpt lat="37.9939240" lon="-5.6692390">
        <ele>554.9</ele>
        <time>2022-05-22T11:04:54Z</time>
      </trkpt>
      <trkpt lat="37.9939240" lon="-5.6692390">
        <ele>554.9</ele>
        <time>2022-05-22T11:04:55Z</time>
      </trkpt>
      <trkpt lat="37.9939240" lon="-5.6692390">
        <ele>554.9</ele>
        <time>2022-05-22T11:04:56Z</time>
      </trkpt>
      <trkpt lat="37.9939240" lon="-5.6692390">
        <ele>554.9</ele>
        <time>2022-05-22T11:04:57Z</time>
      </trkpt>
      <trkpt lat="37.9939240" lon="-5.6692390">
        <ele>554.9</ele>
        <time>2022-05-22T11:04:58Z</time>
      </trkpt>
      <trkpt lat="37.9939240" lon="-5.6692390">
        <ele>554.9</ele>
        <time>2022-05-22T11:04:59Z</time>
      </trkpt>
      <trkpt lat="37.9939240" lon="-5.6692400">
        <ele>554.9</ele>
        <time>2022-05-22T11:05:00Z</time>
      </trkpt>
      <trkpt lat="37.9939240" lon="-5.6692400">
        <ele>554.9</ele>
        <time>2022-05-22T11:05:01Z</time>
      </trkpt>
      <trkpt lat="37.9939240" lon="-5.6692400">
        <ele>554.9</ele>
        <time>2022-05-22T11:05:02Z</time>
      </trkpt>
      <trkpt lat="37.9939240" lon="-5.6692400">
        <ele>554.9</ele>
        <time>2022-05-22T11:05:03Z</time>
      </trkpt>
      <trkpt lat="37.9939240" lon="-5.6692400">
        <ele>554.9</ele>
        <time>2022-05-22T11:05:04Z</time>
      </trkpt>
      <trkpt lat="37.9939240" lon="-5.6692400">
        <ele>554.9</ele>
        <time>2022-05-22T11:05:05Z</time>
      </trkpt>
      <trkpt lat="37.9939240" lon="-5.6692410">
        <ele>554.9</ele>
        <time>2022-05-22T11:05:06Z</time>
      </trkpt>
      <trkpt lat="37.9939240" lon="-5.6692410">
        <ele>554.9</ele>
        <time>2022-05-22T11:05:08Z</time>
      </trkpt>
      <trkpt lat="37.9939240" lon="-5.6692410">
        <ele>554.9</ele>
        <time>2022-05-22T11:05:10Z</time>
      </trkpt>
      <trkpt lat="37.9939240" lon="-5.6692410">
        <ele>554.9</ele>
        <time>2022-05-22T11:05:11Z</time>
      </trkpt>
      <trkpt lat="37.9939240" lon="-5.6692410">
        <ele>554.9</ele>
        <time>2022-05-22T11:05:12Z</time>
      </trkpt>
      <trkpt lat="37.9939240" lon="-5.6692420">
        <ele>554.9</ele>
        <time>2022-05-22T11:05:13Z</time>
      </trkpt>
      <trkpt lat="37.9939240" lon="-5.6692420">
        <ele>554.9</ele>
        <time>2022-05-22T11:05:15Z</time>
      </trkpt>
      <trkpt lat="37.9939240" lon="-5.6692420">
        <ele>554.9</ele>
        <time>2022-05-22T11:05:16Z</time>
      </trkpt>
      <trkpt lat="37.9939240" lon="-5.6692420">
        <ele>554.9</ele>
        <time>2022-05-22T11:05:17Z</time>
      </trkpt>
      <trkpt lat="37.9939240" lon="-5.6692420">
        <ele>554.9</ele>
        <time>2022-05-22T11:05:18Z</time>
      </trkpt>
      <trkpt lat="37.9939240" lon="-5.6692420">
        <ele>554.9</ele>
        <time>2022-05-22T11:05:19Z</time>
      </trkpt>
      <trkpt lat="37.9939240" lon="-5.6692430">
        <ele>554.9</ele>
        <time>2022-05-22T11:05:20Z</time>
      </trkpt>
      <trkpt lat="37.9939240" lon="-5.6692430">
        <ele>554.9</ele>
        <time>2022-05-22T11:05:21Z</time>
      </trkpt>
      <trkpt lat="37.9939240" lon="-5.6692430">
        <ele>554.9</ele>
        <time>2022-05-22T11:05:22Z</time>
      </trkpt>
      <trkpt lat="37.9939240" lon="-5.6692430">
        <ele>554.9</ele>
        <time>2022-05-22T11:05:23Z</time>
      </trkpt>
      <trkpt lat="37.9939240" lon="-5.6692430">
        <ele>554.9</ele>
        <time>2022-05-22T11:05:24Z</time>
      </trkpt>
      <trkpt lat="37.9939240" lon="-5.6692440">
        <ele>554.9</ele>
        <time>2022-05-22T11:05:25Z</time>
      </trkpt>
      <trkpt lat="37.9939240" lon="-5.6692440">
        <ele>554.9</ele>
        <time>2022-05-22T11:05:26Z</time>
      </trkpt>
      <trkpt lat="37.9939240" lon="-5.6692440">
        <ele>554.9</ele>
        <time>2022-05-22T11:05:27Z</time>
      </trkpt>
      <trkpt lat="37.9939240" lon="-5.6692440">
        <ele>554.9</ele>
        <time>2022-05-22T11:05:28Z</time>
      </trkpt>
      <trkpt lat="37.9939240" lon="-5.6692440">
        <ele>554.9</ele>
        <time>2022-05-22T11:05:29Z</time>
      </trkpt>
      <trkpt lat="37.9939240" lon="-5.6692440">
        <ele>554.9</ele>
        <time>2022-05-22T11:05:30Z</time>
      </trkpt>
      <trkpt lat="37.9939240" lon="-5.6692450">
        <ele>554.9</ele>
        <time>2022-05-22T11:05:31Z</time>
      </trkpt>
      <trkpt lat="37.9939240" lon="-5.6692450">
        <ele>554.9</ele>
        <time>2022-05-22T11:05:32Z</time>
      </trkpt>
      <trkpt lat="37.9939240" lon="-5.6692450">
        <ele>554.9</ele>
        <time>2022-05-22T11:05:33Z</time>
      </trkpt>
      <trkpt lat="37.9939240" lon="-5.6692450">
        <ele>554.9</ele>
        <time>2022-05-22T11:05:34Z</time>
      </trkpt>
      <trkpt lat="37.9939240" lon="-5.6692450">
        <ele>554.9</ele>
        <time>2022-05-22T11:05:35Z</time>
      </trkpt>
      <trkpt lat="37.9939240" lon="-5.6692460">
        <ele>554.9</ele>
        <time>2022-05-22T11:05:36Z</time>
      </trkpt>
      <trkpt lat="37.9939240" lon="-5.6692460">
        <ele>554.9</ele>
        <time>2022-05-22T11:05:37Z</time>
      </trkpt>
      <trkpt lat="37.9939240" lon="-5.6692460">
        <ele>554.9</ele>
        <time>2022-05-22T11:05:38Z</time>
      </trkpt>
      <trkpt lat="37.9939240" lon="-5.6692460">
        <ele>554.9</ele>
        <time>2022-05-22T11:05:39Z</time>
      </trkpt>
      <trkpt lat="37.9939240" lon="-5.6692460">
        <ele>554.9</ele>
        <time>2022-05-22T11:05:40Z</time>
      </trkpt>
      <trkpt lat="37.9939240" lon="-5.6692460">
        <ele>554.9</ele>
        <time>2022-05-22T11:05:41Z</time>
      </trkpt>
      <trkpt lat="37.9939240" lon="-5.6692470">
        <ele>554.9</ele>
        <time>2022-05-22T11:05:42Z</time>
      </trkpt>
      <trkpt lat="37.9939240" lon="-5.6692470">
        <ele>554.9</ele>
        <time>2022-05-22T11:05:43Z</time>
      </trkpt>
      <trkpt lat="37.9939240" lon="-5.6692470">
        <ele>554.9</ele>
        <time>2022-05-22T11:05:44Z</time>
      </trkpt>
      <trkpt lat="37.9939240" lon="-5.6692470">
        <ele>554.9</ele>
        <time>2022-05-22T11:05:45Z</time>
      </trkpt>
      <trkpt lat="37.9939240" lon="-5.6692470">
        <ele>554.9</ele>
        <time>2022-05-22T11:05:46Z</time>
      </trkpt>
      <trkpt lat="37.9939240" lon="-5.6692480">
        <ele>554.9</ele>
        <time>2022-05-22T11:05:47Z</time>
      </trkpt>
      <trkpt lat="37.9939240" lon="-5.6692480">
        <ele>554.9</ele>
        <time>2022-05-22T11:05:48Z</time>
      </trkpt>
      <trkpt lat="37.9939240" lon="-5.6692480">
        <ele>554.9</ele>
        <time>2022-05-22T11:05:49Z</time>
      </trkpt>
      <trkpt lat="37.9939240" lon="-5.6692480">
        <ele>554.9</ele>
        <time>2022-05-22T11:05:50Z</time>
      </trkpt>
      <trkpt lat="37.9939240" lon="-5.6692480">
        <ele>554.9</ele>
        <time>2022-05-22T11:05:51Z</time>
      </trkpt>
      <trkpt lat="37.9939240" lon="-5.6692480">
        <ele>554.9</ele>
        <time>2022-05-22T11:05:52Z</time>
      </trkpt>
      <trkpt lat="37.9939240" lon="-5.6692490">
        <ele>554.9</ele>
        <time>2022-05-22T11:05:53Z</time>
      </trkpt>
      <trkpt lat="37.9939240" lon="-5.6692490">
        <ele>554.9</ele>
        <time>2022-05-22T11:05:54Z</time>
      </trkpt>
      <trkpt lat="37.9939240" lon="-5.6692490">
        <ele>554.9</ele>
        <time>2022-05-22T11:05:55Z</time>
      </trkpt>
      <trkpt lat="37.9939240" lon="-5.6692490">
        <ele>554.9</ele>
        <time>2022-05-22T11:05:56Z</time>
      </trkpt>
      <trkpt lat="37.9939240" lon="-5.6692490">
        <ele>554.9</ele>
        <time>2022-05-22T11:05:57Z</time>
      </trkpt>
      <trkpt lat="37.9939240" lon="-5.6692500">
        <ele>554.9</ele>
        <time>2022-05-22T11:05:58Z</time>
      </trkpt>
      <trkpt lat="37.9939240" lon="-5.6692500">
        <ele>554.9</ele>
        <time>2022-05-22T11:05:59Z</time>
      </trkpt>
      <trkpt lat="37.9939240" lon="-5.6692500">
        <ele>554.9</ele>
        <time>2022-05-22T11:06:00Z</time>
      </trkpt>
      <trkpt lat="37.9939240" lon="-5.6692500">
        <ele>554.9</ele>
        <time>2022-05-22T11:06:01Z</time>
      </trkpt>
      <trkpt lat="37.9939240" lon="-5.6692500">
        <ele>554.9</ele>
        <time>2022-05-22T11:06:02Z</time>
      </trkpt>
      <trkpt lat="37.9939240" lon="-5.6692500">
        <ele>554.9</ele>
        <time>2022-05-22T11:06:03Z</time>
      </trkpt>
      <trkpt lat="37.9939240" lon="-5.6692510">
        <ele>554.9</ele>
        <time>2022-05-22T11:06:04Z</time>
      </trkpt>
      <trkpt lat="37.9939240" lon="-5.6692510">
        <ele>554.9</ele>
        <time>2022-05-22T11:06:05Z</time>
      </trkpt>
      <trkpt lat="37.9939240" lon="-5.6692510">
        <ele>554.9</ele>
        <time>2022-05-22T11:06:06Z</time>
      </trkpt>
      <trkpt lat="37.9939240" lon="-5.6692510">
        <ele>554.9</ele>
        <time>2022-05-22T11:06:07Z</time>
      </trkpt>
      <trkpt lat="37.9939240" lon="-5.6692510">
        <ele>554.9</ele>
        <time>2022-05-22T11:06:08Z</time>
      </trkpt>
      <trkpt lat="37.9939240" lon="-5.6692510">
        <ele>554.9</ele>
        <time>2022-05-22T11:06:09Z</time>
      </trkpt>
      <trkpt lat="37.9939240" lon="-5.6692520">
        <ele>554.9</ele>
        <time>2022-05-22T11:06:10Z</time>
      </trkpt>
      <trkpt lat="37.9939240" lon="-5.6692520">
        <ele>554.9</ele>
        <time>2022-05-22T11:06:11Z</time>
      </trkpt>
      <trkpt lat="37.9939230" lon="-5.6692520">
        <ele>554.9</ele>
        <time>2022-05-22T11:06:12Z</time>
      </trkpt>
      <trkpt lat="37.9939230" lon="-5.6692520">
        <ele>554.9</ele>
        <time>2022-05-22T11:06:13Z</time>
      </trkpt>
      <trkpt lat="37.9939230" lon="-5.6692520">
        <ele>554.9</ele>
        <time>2022-05-22T11:06:14Z</time>
      </trkpt>
      <trkpt lat="37.9939230" lon="-5.6692530">
        <ele>554.9</ele>
        <time>2022-05-22T11:06:15Z</time>
      </trkpt>
      <trkpt lat="37.9939230" lon="-5.6692530">
        <ele>554.9</ele>
        <time>2022-05-22T11:06:16Z</time>
      </trkpt>
      <trkpt lat="37.9939230" lon="-5.6692530">
        <ele>554.9</ele>
        <time>2022-05-22T11:06:17Z</time>
      </trkpt>
      <trkpt lat="37.9939230" lon="-5.6692530">
        <ele>554.9</ele>
        <time>2022-05-22T11:06:18Z</time>
      </trkpt>
      <trkpt lat="37.9939230" lon="-5.6692530">
        <ele>554.9</ele>
        <time>2022-05-22T11:06:19Z</time>
      </trkpt>
      <trkpt lat="37.9939230" lon="-5.6692530">
        <ele>554.9</ele>
        <time>2022-05-22T11:06:20Z</time>
      </trkpt>
      <trkpt lat="37.9939230" lon="-5.6692540">
        <ele>554.9</ele>
        <time>2022-05-22T11:06:21Z</time>
      </trkpt>
      <trkpt lat="37.9939230" lon="-5.6692540">
        <ele>554.9</ele>
        <time>2022-05-22T11:06:22Z</time>
      </trkpt>
      <trkpt lat="37.9939230" lon="-5.6692540">
        <ele>554.9</ele>
        <time>2022-05-22T11:06:23Z</time>
      </trkpt>
      <trkpt lat="37.9939230" lon="-5.6692540">
        <ele>554.9</ele>
        <time>2022-05-22T11:06:24Z</time>
      </trkpt>
      <trkpt lat="37.9939230" lon="-5.6692540">
        <ele>554.9</ele>
        <time>2022-05-22T11:06:25Z</time>
      </trkpt>
      <trkpt lat="37.9939230" lon="-5.6692550">
        <ele>554.9</ele>
        <time>2022-05-22T11:06:26Z</time>
      </trkpt>
      <trkpt lat="37.9939230" lon="-5.6692550">
        <ele>554.9</ele>
        <time>2022-05-22T11:06:27Z</time>
      </trkpt>
      <trkpt lat="37.9939230" lon="-5.6692550">
        <ele>554.9</ele>
        <time>2022-05-22T11:06:28Z</time>
      </trkpt>
      <trkpt lat="37.9939230" lon="-5.6692550">
        <ele>554.9</ele>
        <time>2022-05-22T11:06:29Z</time>
      </trkpt>
      <trkpt lat="37.9939230" lon="-5.6692550">
        <ele>554.9</ele>
        <time>2022-05-22T11:06:30Z</time>
      </trkpt>
      <trkpt lat="37.9939230" lon="-5.6692550">
        <ele>554.9</ele>
        <time>2022-05-22T11:06:31Z</time>
      </trkpt>
      <trkpt lat="37.9939230" lon="-5.6692560">
        <ele>554.9</ele>
        <time>2022-05-22T11:06:32Z</time>
      </trkpt>
      <trkpt lat="37.9939230" lon="-5.6692560">
        <ele>554.9</ele>
        <time>2022-05-22T11:06:33Z</time>
      </trkpt>
      <trkpt lat="37.9939230" lon="-5.6692560">
        <ele>554.9</ele>
        <time>2022-05-22T11:06:34Z</time>
      </trkpt>
      <trkpt lat="37.9939230" lon="-5.6692560">
        <ele>554.9</ele>
        <time>2022-05-22T11:06:35Z</time>
      </trkpt>
      <trkpt lat="37.9939230" lon="-5.6692560">
        <ele>554.9</ele>
        <time>2022-05-22T11:06:36Z</time>
      </trkpt>
      <trkpt lat="37.9939230" lon="-5.6692570">
        <ele>554.9</ele>
        <time>2022-05-22T11:06:37Z</time>
      </trkpt>
      <trkpt lat="37.9939230" lon="-5.6692570">
        <ele>554.9</ele>
        <time>2022-05-22T11:06:38Z</time>
      </trkpt>
      <trkpt lat="37.9939230" lon="-5.6692570">
        <ele>554.9</ele>
        <time>2022-05-22T11:06:39Z</time>
      </trkpt>
      <trkpt lat="37.9939230" lon="-5.6692570">
        <ele>554.9</ele>
        <time>2022-05-22T11:06:40Z</time>
      </trkpt>
      <trkpt lat="37.9939230" lon="-5.6692570">
        <ele>554.9</ele>
        <time>2022-05-22T11:06:41Z</time>
      </trkpt>
      <trkpt lat="37.9939230" lon="-5.6692570">
        <ele>554.9</ele>
        <time>2022-05-22T11:06:42Z</time>
      </trkpt>
      <trkpt lat="37.9939230" lon="-5.6692580">
        <ele>554.9</ele>
        <time>2022-05-22T11:06:43Z</time>
      </trkpt>
      <trkpt lat="37.9939230" lon="-5.6692580">
        <ele>554.9</ele>
        <time>2022-05-22T11:06:44Z</time>
      </trkpt>
      <trkpt lat="37.9939230" lon="-5.6692580">
        <ele>554.9</ele>
        <time>2022-05-22T11:06:45Z</time>
      </trkpt>
      <trkpt lat="37.9939230" lon="-5.6692580">
        <ele>554.9</ele>
        <time>2022-05-22T11:06:46Z</time>
      </trkpt>
      <trkpt lat="37.9939230" lon="-5.6692580">
        <ele>554.9</ele>
        <time>2022-05-22T11:06:47Z</time>
      </trkpt>
      <trkpt lat="37.9939230" lon="-5.6692590">
        <ele>554.9</ele>
        <time>2022-05-22T11:06:48Z</time>
      </trkpt>
      <trkpt lat="37.9939230" lon="-5.6692590">
        <ele>554.9</ele>
        <time>2022-05-22T11:06:49Z</time>
      </trkpt>
      <trkpt lat="37.9939230" lon="-5.6692590">
        <ele>554.9</ele>
        <time>2022-05-22T11:06:50Z</time>
      </trkpt>
      <trkpt lat="37.9939230" lon="-5.6692590">
        <ele>554.9</ele>
        <time>2022-05-22T11:06:51Z</time>
      </trkpt>
      <trkpt lat="37.9939230" lon="-5.6692590">
        <ele>554.9</ele>
        <time>2022-05-22T11:06:52Z</time>
      </trkpt>
      <trkpt lat="37.9939230" lon="-5.6692590">
        <ele>554.9</ele>
        <time>2022-05-22T11:06:53Z</time>
      </trkpt>
      <trkpt lat="37.9939230" lon="-5.6692600">
        <ele>554.9</ele>
        <time>2022-05-22T11:06:54Z</time>
      </trkpt>
      <trkpt lat="37.9939230" lon="-5.6692600">
        <ele>554.9</ele>
        <time>2022-05-22T11:06:55Z</time>
      </trkpt>
      <trkpt lat="37.9939230" lon="-5.6692600">
        <ele>554.9</ele>
        <time>2022-05-22T11:06:56Z</time>
      </trkpt>
      <trkpt lat="37.9939230" lon="-5.6692600">
        <ele>554.9</ele>
        <time>2022-05-22T11:06:57Z</time>
      </trkpt>
      <trkpt lat="37.9939230" lon="-5.6692600">
        <ele>554.9</ele>
        <time>2022-05-22T11:06:58Z</time>
      </trkpt>
      <trkpt lat="37.9939230" lon="-5.6692610">
        <ele>554.9</ele>
        <time>2022-05-22T11:06:59Z</time>
      </trkpt>
      <trkpt lat="37.9939230" lon="-5.6692610">
        <ele>554.9</ele>
        <time>2022-05-22T11:07:00Z</time>
      </trkpt>
      <trkpt lat="37.9939230" lon="-5.6692610">
        <ele>554.9</ele>
        <time>2022-05-22T11:07:01Z</time>
      </trkpt>
      <trkpt lat="37.9939230" lon="-5.6692610">
        <ele>554.9</ele>
        <time>2022-05-22T11:07:02Z</time>
      </trkpt>
      <trkpt lat="37.9939230" lon="-5.6692610">
        <ele>554.9</ele>
        <time>2022-05-22T11:07:03Z</time>
      </trkpt>
      <trkpt lat="37.9939230" lon="-5.6692610">
        <ele>554.9</ele>
        <time>2022-05-22T11:07:04Z</time>
      </trkpt>
      <trkpt lat="37.9939230" lon="-5.6692620">
        <ele>554.9</ele>
        <time>2022-05-22T11:07:05Z</time>
      </trkpt>
      <trkpt lat="37.9939230" lon="-5.6692620">
        <ele>554.9</ele>
        <time>2022-05-22T11:07:06Z</time>
      </trkpt>
      <trkpt lat="37.9939230" lon="-5.6692620">
        <ele>554.9</ele>
        <time>2022-05-22T11:07:07Z</time>
      </trkpt>
      <trkpt lat="37.9939230" lon="-5.6692620">
        <ele>554.9</ele>
        <time>2022-05-22T11:07:08Z</time>
      </trkpt>
      <trkpt lat="37.9939230" lon="-5.6692620">
        <ele>554.9</ele>
        <time>2022-05-22T11:07:09Z</time>
      </trkpt>
      <trkpt lat="37.9939230" lon="-5.6692620">
        <ele>554.9</ele>
        <time>2022-05-22T11:07:10Z</time>
      </trkpt>
      <trkpt lat="37.9939230" lon="-5.6692630">
        <ele>554.9</ele>
        <time>2022-05-22T11:07:11Z</time>
      </trkpt>
      <trkpt lat="37.9939230" lon="-5.6692630">
        <ele>554.9</ele>
        <time>2022-05-22T11:07:12Z</time>
      </trkpt>
      <trkpt lat="37.9939230" lon="-5.6692630">
        <ele>554.9</ele>
        <time>2022-05-22T11:07:13Z</time>
      </trkpt>
      <trkpt lat="37.9939230" lon="-5.6692630">
        <ele>554.9</ele>
        <time>2022-05-22T11:07:14Z</time>
      </trkpt>
      <trkpt lat="37.9939230" lon="-5.6692630">
        <ele>554.9</ele>
        <time>2022-05-22T11:07:15Z</time>
      </trkpt>
      <trkpt lat="37.9939230" lon="-5.6692640">
        <ele>554.9</ele>
        <time>2022-05-22T11:07:16Z</time>
      </trkpt>
      <trkpt lat="37.9939230" lon="-5.6692640">
        <ele>554.9</ele>
        <time>2022-05-22T11:07:17Z</time>
      </trkpt>
      <trkpt lat="37.9939230" lon="-5.6692640">
        <ele>554.9</ele>
        <time>2022-05-22T11:07:18Z</time>
      </trkpt>
      <trkpt lat="37.9939230" lon="-5.6692640">
        <ele>554.9</ele>
        <time>2022-05-22T11:07:19Z</time>
      </trkpt>
      <trkpt lat="37.9939230" lon="-5.6692640">
        <ele>554.9</ele>
        <time>2022-05-22T11:07:20Z</time>
      </trkpt>
      <trkpt lat="37.9939230" lon="-5.6692640">
        <ele>554.9</ele>
        <time>2022-05-22T11:07:21Z</time>
      </trkpt>
      <trkpt lat="37.9939230" lon="-5.6692650">
        <ele>554.9</ele>
        <time>2022-05-22T11:07:22Z</time>
      </trkpt>
      <trkpt lat="37.9939230" lon="-5.6692650">
        <ele>554.9</ele>
        <time>2022-05-22T11:07:23Z</time>
      </trkpt>
      <trkpt lat="37.9939230" lon="-5.6692650">
        <ele>554.9</ele>
        <time>2022-05-22T11:07:24Z</time>
      </trkpt>
      <trkpt lat="37.9939230" lon="-5.6692650">
        <ele>554.9</ele>
        <time>2022-05-22T11:07:25Z</time>
      </trkpt>
      <trkpt lat="37.9939230" lon="-5.6692650">
        <ele>554.9</ele>
        <time>2022-05-22T11:07:26Z</time>
      </trkpt>
      <trkpt lat="37.9939230" lon="-5.6692660">
        <ele>554.9</ele>
        <time>2022-05-22T11:07:27Z</time>
      </trkpt>
      <trkpt lat="37.9939230" lon="-5.6692660">
        <ele>554.9</ele>
        <time>2022-05-22T11:07:28Z</time>
      </trkpt>
      <trkpt lat="37.9939230" lon="-5.6692660">
        <ele>554.9</ele>
        <time>2022-05-22T11:07:29Z</time>
      </trkpt>
      <trkpt lat="37.9939230" lon="-5.6692660">
        <ele>554.9</ele>
        <time>2022-05-22T11:07:30Z</time>
      </trkpt>
      <trkpt lat="37.9939230" lon="-5.6692660">
        <ele>554.9</ele>
        <time>2022-05-22T11:07:31Z</time>
      </trkpt>
      <trkpt lat="37.9939230" lon="-5.6692660">
        <ele>554.9</ele>
        <time>2022-05-22T11:07:32Z</time>
      </trkpt>
      <trkpt lat="37.9939230" lon="-5.6692670">
        <ele>554.9</ele>
        <time>2022-05-22T11:07:34Z</time>
      </trkpt>
      <trkpt lat="37.9939230" lon="-5.6692670">
        <ele>554.9</ele>
        <time>2022-05-22T11:07:35Z</time>
      </trkpt>
      <trkpt lat="37.9939230" lon="-5.6692670">
        <ele>554.9</ele>
        <time>2022-05-22T11:07:36Z</time>
      </trkpt>
      <trkpt lat="37.9939230" lon="-5.6692670">
        <ele>554.9</ele>
        <time>2022-05-22T11:07:37Z</time>
      </trkpt>
      <trkpt lat="37.9939230" lon="-5.6692670">
        <ele>554.9</ele>
        <time>2022-05-22T11:07:38Z</time>
      </trkpt>
      <trkpt lat="37.9939230" lon="-5.6692680">
        <ele>554.9</ele>
        <time>2022-05-22T11:07:40Z</time>
      </trkpt>
      <trkpt lat="37.9939230" lon="-5.6692680">
        <ele>554.9</ele>
        <time>2022-05-22T11:07:41Z</time>
      </trkpt>
      <trkpt lat="37.9939230" lon="-5.6692680">
        <ele>554.9</ele>
        <time>2022-05-22T11:07:42Z</time>
      </trkpt>
      <trkpt lat="37.9939230" lon="-5.6692680">
        <ele>554.9</ele>
        <time>2022-05-22T11:07:44Z</time>
      </trkpt>
      <trkpt lat="37.9939230" lon="-5.6692680">
        <ele>554.9</ele>
        <time>2022-05-22T11:07:45Z</time>
      </trkpt>
      <trkpt lat="37.9939230" lon="-5.6692680">
        <ele>554.9</ele>
        <time>2022-05-22T11:07:46Z</time>
      </trkpt>
      <trkpt lat="37.9939230" lon="-5.6692690">
        <ele>554.9</ele>
        <time>2022-05-22T11:07:47Z</time>
      </trkpt>
      <trkpt lat="37.9939230" lon="-5.6692690">
        <ele>554.9</ele>
        <time>2022-05-22T11:07:49Z</time>
      </trkpt>
      <trkpt lat="37.9939230" lon="-5.6692690">
        <ele>554.9</ele>
        <time>2022-05-22T11:07:50Z</time>
      </trkpt>
      <trkpt lat="37.9939230" lon="-5.6692690">
        <ele>554.9</ele>
        <time>2022-05-22T11:07:51Z</time>
      </trkpt>
      <trkpt lat="37.9939230" lon="-5.6692690">
        <ele>554.9</ele>
        <time>2022-05-22T11:07:52Z</time>
      </trkpt>
      <trkpt lat="37.9939220" lon="-5.6692700">
        <ele>554.9</ele>
        <time>2022-05-22T11:07:53Z</time>
      </trkpt>
      <trkpt lat="37.9939220" lon="-5.6692700">
        <ele>554.9</ele>
        <time>2022-05-22T11:07:54Z</time>
      </trkpt>
      <trkpt lat="37.9939220" lon="-5.6692700">
        <ele>554.9</ele>
        <time>2022-05-22T11:07:55Z</time>
      </trkpt>
      <trkpt lat="37.9939220" lon="-5.6692700">
        <ele>554.9</ele>
        <time>2022-05-22T11:07:56Z</time>
      </trkpt>
      <trkpt lat="37.9939220" lon="-5.6692700">
        <ele>554.9</ele>
        <time>2022-05-22T11:07:57Z</time>
      </trkpt>
      <trkpt lat="37.9939220" lon="-5.6692700">
        <ele>554.9</ele>
        <time>2022-05-22T11:07:58Z</time>
      </trkpt>
      <trkpt lat="37.9939220" lon="-5.6692710">
        <ele>554.9</ele>
        <time>2022-05-22T11:07:59Z</time>
      </trkpt>
      <trkpt lat="37.9939220" lon="-5.6692710">
        <ele>554.9</ele>
        <time>2022-05-22T11:08:01Z</time>
      </trkpt>
      <trkpt lat="37.9939220" lon="-5.6692710">
        <ele>554.9</ele>
        <time>2022-05-22T11:08:02Z</time>
      </trkpt>
      <trkpt lat="37.9939220" lon="-5.6692710">
        <ele>554.9</ele>
        <time>2022-05-22T11:08:03Z</time>
      </trkpt>
      <trkpt lat="37.9939220" lon="-5.6692710">
        <ele>554.9</ele>
        <time>2022-05-22T11:08:04Z</time>
      </trkpt>
      <trkpt lat="37.9939220" lon="-5.6692710">
        <ele>554.9</ele>
        <time>2022-05-22T11:08:06Z</time>
      </trkpt>
      <trkpt lat="37.9939220" lon="-5.6692720">
        <ele>554.9</ele>
        <time>2022-05-22T11:08:07Z</time>
      </trkpt>
      <trkpt lat="37.9939220" lon="-5.6692720">
        <ele>554.9</ele>
        <time>2022-05-22T11:08:08Z</time>
      </trkpt>
      <trkpt lat="37.9939220" lon="-5.6692720">
        <ele>554.9</ele>
        <time>2022-05-22T11:08:09Z</time>
      </trkpt>
      <trkpt lat="37.9939220" lon="-5.6692720">
        <ele>554.9</ele>
        <time>2022-05-22T11:08:10Z</time>
      </trkpt>
      <trkpt lat="37.9939220" lon="-5.6692720">
        <ele>554.9</ele>
        <time>2022-05-22T11:08:11Z</time>
      </trkpt>
      <trkpt lat="37.9939220" lon="-5.6692730">
        <ele>554.9</ele>
        <time>2022-05-22T11:08:12Z</time>
      </trkpt>
      <trkpt lat="37.9939220" lon="-5.6692730">
        <ele>554.9</ele>
        <time>2022-05-22T11:08:13Z</time>
      </trkpt>
      <trkpt lat="37.9939220" lon="-5.6692730">
        <ele>554.9</ele>
        <time>2022-05-22T11:08:14Z</time>
      </trkpt>
      <trkpt lat="37.9939220" lon="-5.6692730">
        <ele>554.9</ele>
        <time>2022-05-22T11:08:15Z</time>
      </trkpt>
      <trkpt lat="37.9939220" lon="-5.6692730">
        <ele>554.9</ele>
        <time>2022-05-22T11:08:16Z</time>
      </trkpt>
      <trkpt lat="37.9939150" lon="-5.6692860">
        <ele>554.9</ele>
        <time>2022-05-22T11:08:17Z</time>
      </trkpt>
      <trkpt lat="37.9939140" lon="-5.6692850">
        <ele>554.9</ele>
        <time>2022-05-22T11:08:18Z</time>
      </trkpt>
      <trkpt lat="37.9939120" lon="-5.6692850">
        <ele>554.9</ele>
        <time>2022-05-22T11:08:19Z</time>
      </trkpt>
      <trkpt lat="37.9939110" lon="-5.6692840">
        <ele>554.9</ele>
        <time>2022-05-22T11:08:20Z</time>
      </trkpt>
      <trkpt lat="37.9939090" lon="-5.6692840">
        <ele>554.9</ele>
        <time>2022-05-22T11:08:22Z</time>
      </trkpt>
      <trkpt lat="37.9939080" lon="-5.6692830">
        <ele>554.9</ele>
        <time>2022-05-22T11:08:23Z</time>
      </trkpt>
      <trkpt lat="37.9939060" lon="-5.6692830">
        <ele>554.9</ele>
        <time>2022-05-22T11:08:24Z</time>
      </trkpt>
      <trkpt lat="37.9939050" lon="-5.6692820">
        <ele>554.9</ele>
        <time>2022-05-22T11:08:25Z</time>
      </trkpt>
      <trkpt lat="37.9939030" lon="-5.6692820">
        <ele>554.9</ele>
        <time>2022-05-22T11:08:26Z</time>
      </trkpt>
      <trkpt lat="37.9939020" lon="-5.6692810">
        <ele>554.9</ele>
        <time>2022-05-22T11:08:27Z</time>
      </trkpt>
      <trkpt lat="37.9939010" lon="-5.6692810">
        <ele>554.9</ele>
        <time>2022-05-22T11:08:28Z</time>
      </trkpt>
      <trkpt lat="37.9938990" lon="-5.6692800">
        <ele>554.8</ele>
        <time>2022-05-22T11:08:29Z</time>
      </trkpt>
      <trkpt lat="37.9938980" lon="-5.6692800">
        <ele>554.8</ele>
        <time>2022-05-22T11:08:30Z</time>
      </trkpt>
      <trkpt lat="37.9938960" lon="-5.6692790">
        <ele>554.8</ele>
        <time>2022-05-22T11:08:31Z</time>
      </trkpt>
      <trkpt lat="37.9938950" lon="-5.6692790">
        <ele>554.8</ele>
        <time>2022-05-22T11:08:32Z</time>
      </trkpt>
      <trkpt lat="37.9938930" lon="-5.6692780">
        <ele>554.8</ele>
        <time>2022-05-22T11:08:33Z</time>
      </trkpt>
      <trkpt lat="37.9938920" lon="-5.6692780">
        <ele>554.8</ele>
        <time>2022-05-22T11:08:34Z</time>
      </trkpt>
      <trkpt lat="37.9938900" lon="-5.6692770">
        <ele>554.8</ele>
        <time>2022-05-22T11:08:35Z</time>
      </trkpt>
      <trkpt lat="37.9938890" lon="-5.6692770">
        <ele>554.8</ele>
        <time>2022-05-22T11:08:36Z</time>
      </trkpt>
      <trkpt lat="37.9938880" lon="-5.6692760">
        <ele>554.8</ele>
        <time>2022-05-22T11:08:37Z</time>
      </trkpt>
      <trkpt lat="37.9938860" lon="-5.6692760">
        <ele>554.8</ele>
        <time>2022-05-22T11:08:38Z</time>
      </trkpt>
      <trkpt lat="37.9938870" lon="-5.6692760">
        <ele>554.8</ele>
        <time>2022-05-22T11:08:39Z</time>
      </trkpt>
      <trkpt lat="37.9938740" lon="-5.6692820">
        <ele>554.8</ele>
        <time>2022-05-22T11:08:40Z</time>
      </trkpt>
      <trkpt lat="37.9938710" lon="-5.6692850">
        <ele>554.8</ele>
        <time>2022-05-22T11:08:41Z</time>
      </trkpt>
      <trkpt lat="37.9938700" lon="-5.6692870">
        <ele>554.8</ele>
        <time>2022-05-22T11:08:42Z</time>
      </trkpt>
      <trkpt lat="37.9938710" lon="-5.6692880">
        <ele>554.8</ele>
        <time>2022-05-22T11:08:43Z</time>
      </trkpt>
      <trkpt lat="37.9938710" lon="-5.6692900">
        <ele>554.8</ele>
        <time>2022-05-22T11:08:44Z</time>
      </trkpt>
      <trkpt lat="37.9938710" lon="-5.6692920">
        <ele>554.8</ele>
        <time>2022-05-22T11:08:45Z</time>
      </trkpt>
      <trkpt lat="37.9938720" lon="-5.6692930">
        <ele>554.8</ele>
        <time>2022-05-22T11:08:46Z</time>
      </trkpt>
      <trkpt lat="37.9938690" lon="-5.6692950">
        <ele>554.8</ele>
        <time>2022-05-22T11:08:47Z</time>
      </trkpt>
      <trkpt lat="37.9938670" lon="-5.6692950">
        <ele>554.8</ele>
        <time>2022-05-22T11:08:48Z</time>
      </trkpt>
      <trkpt lat="37.9938670" lon="-5.6692950">
        <ele>554.8</ele>
        <time>2022-05-22T11:08:49Z</time>
      </trkpt>
      <trkpt lat="37.9938630" lon="-5.6692960">
        <ele>554.7</ele>
        <time>2022-05-22T11:08:50Z</time>
      </trkpt>
      <trkpt lat="37.9938640" lon="-5.6692930">
        <ele>554.7</ele>
        <time>2022-05-22T11:08:51Z</time>
      </trkpt>
      <trkpt lat="37.9938650" lon="-5.6692910">
        <ele>554.7</ele>
        <time>2022-05-22T11:08:52Z</time>
      </trkpt>
      <trkpt lat="37.9938670" lon="-5.6692880">
        <ele>554.7</ele>
        <time>2022-05-22T11:08:53Z</time>
      </trkpt>
      <trkpt lat="37.9938680" lon="-5.6692860">
        <ele>554.7</ele>
        <time>2022-05-22T11:08:54Z</time>
      </trkpt>
      <trkpt lat="37.9938690" lon="-5.6692830">
        <ele>554.7</ele>
        <time>2022-05-22T11:08:55Z</time>
      </trkpt>
      <trkpt lat="37.9938700" lon="-5.6692810">
        <ele>554.7</ele>
        <time>2022-05-22T11:08:56Z</time>
      </trkpt>
      <trkpt lat="37.9938710" lon="-5.6692780">
        <ele>554.7</ele>
        <time>2022-05-22T11:08:57Z</time>
      </trkpt>
      <trkpt lat="37.9938730" lon="-5.6692760">
        <ele>554.7</ele>
        <time>2022-05-22T11:08:58Z</time>
      </trkpt>
      <trkpt lat="37.9938740" lon="-5.6692730">
        <ele>554.7</ele>
        <time>2022-05-22T11:08:59Z</time>
      </trkpt>
      <trkpt lat="37.9938750" lon="-5.6692710">
        <ele>554.7</ele>
        <time>2022-05-22T11:09:00Z</time>
      </trkpt>
      <trkpt lat="37.9938760" lon="-5.6692680">
        <ele>554.7</ele>
        <time>2022-05-22T11:09:01Z</time>
      </trkpt>
      <trkpt lat="37.9938770" lon="-5.6692660">
        <ele>554.7</ele>
        <time>2022-05-22T11:09:02Z</time>
      </trkpt>
      <trkpt lat="37.9938790" lon="-5.6692630">
        <ele>554.7</ele>
        <time>2022-05-22T11:09:03Z</time>
      </trkpt>
      <trkpt lat="37.9938800" lon="-5.6692610">
        <ele>554.7</ele>
        <time>2022-05-22T11:09:04Z</time>
      </trkpt>
      <trkpt lat="37.9938810" lon="-5.6692580">
        <ele>554.7</ele>
        <time>2022-05-22T11:09:05Z</time>
      </trkpt>
      <trkpt lat="37.9938820" lon="-5.6692560">
        <ele>554.7</ele>
        <time>2022-05-22T11:09:06Z</time>
      </trkpt>
      <trkpt lat="37.9938830" lon="-5.6692580">
        <ele>554.7</ele>
        <time>2022-05-22T11:09:07Z</time>
      </trkpt>
      <trkpt lat="37.9938820" lon="-5.6692630">
        <ele>554.6</ele>
        <time>2022-05-22T11:09:08Z</time>
      </trkpt>
      <trkpt lat="37.9938820" lon="-5.6692670">
        <ele>554.6</ele>
        <time>2022-05-22T11:09:09Z</time>
      </trkpt>
      <trkpt lat="37.9938790" lon="-5.6692770">
        <ele>554.6</ele>
        <time>2022-05-22T11:09:10Z</time>
      </trkpt>
      <trkpt lat="37.9938760" lon="-5.6692820">
        <ele>554.6</ele>
        <time>2022-05-22T11:09:11Z</time>
      </trkpt>
      <trkpt lat="37.9938720" lon="-5.6692860">
        <ele>554.6</ele>
        <time>2022-05-22T11:09:12Z</time>
      </trkpt>
      <trkpt lat="37.9938680" lon="-5.6692900">
        <ele>554.6</ele>
        <time>2022-05-22T11:09:13Z</time>
      </trkpt>
      <trkpt lat="37.9938690" lon="-5.6692900">
        <ele>554.6</ele>
        <time>2022-05-22T11:09:14Z</time>
      </trkpt>
      <trkpt lat="37.9938610" lon="-5.6692900">
        <ele>554.6</ele>
        <time>2022-05-22T11:09:15Z</time>
      </trkpt>
      <trkpt lat="37.9938680" lon="-5.6692810">
        <ele>554.5</ele>
        <time>2022-05-22T11:09:16Z</time>
      </trkpt>
      <trkpt lat="37.9938690" lon="-5.6692800">
        <ele>554.5</ele>
        <time>2022-05-22T11:09:17Z</time>
      </trkpt>
      <trkpt lat="37.9938670" lon="-5.6692790">
        <ele>554.5</ele>
        <time>2022-05-22T11:09:18Z</time>
      </trkpt>
      <trkpt lat="37.9938640" lon="-5.6692790">
        <ele>554.5</ele>
        <time>2022-05-22T11:09:19Z</time>
      </trkpt>
      <trkpt lat="37.9938560" lon="-5.6692780">
        <ele>554.5</ele>
        <time>2022-05-22T11:09:21Z</time>
      </trkpt>
      <trkpt lat="37.9938450" lon="-5.6692690">
        <ele>554.5</ele>
        <time>2022-05-22T11:09:22Z</time>
      </trkpt>
      <trkpt lat="37.9938400" lon="-5.6692580">
        <ele>554.4</ele>
        <time>2022-05-22T11:09:23Z</time>
      </trkpt>
      <trkpt lat="37.9938380" lon="-5.6692490">
        <ele>554.4</ele>
        <time>2022-05-22T11:09:24Z</time>
      </trkpt>
      <trkpt lat="37.9938370" lon="-5.6692440">
        <ele>554.4</ele>
        <time>2022-05-22T11:09:25Z</time>
      </trkpt>
      <trkpt lat="37.9938370" lon="-5.6692420">
        <ele>554.4</ele>
        <time>2022-05-22T11:09:26Z</time>
      </trkpt>
      <trkpt lat="37.9938370" lon="-5.6692400">
        <ele>554.4</ele>
        <time>2022-05-22T11:09:27Z</time>
      </trkpt>
      <trkpt lat="37.9938360" lon="-5.6692400">
        <ele>554.4</ele>
        <time>2022-05-22T11:09:28Z</time>
      </trkpt>
      <trkpt lat="37.9938360" lon="-5.6692390">
        <ele>554.4</ele>
        <time>2022-05-22T11:09:29Z</time>
      </trkpt>
      <trkpt lat="37.9938360" lon="-5.6692390">
        <ele>554.4</ele>
        <time>2022-05-22T11:09:30Z</time>
      </trkpt>
      <trkpt lat="37.9938360" lon="-5.6692390">
        <ele>554.4</ele>
        <time>2022-05-22T11:09:31Z</time>
      </trkpt>
      <trkpt lat="37.9938360" lon="-5.6692390">
        <ele>554.4</ele>
        <time>2022-05-22T11:09:32Z</time>
      </trkpt>
      <trkpt lat="37.9938360" lon="-5.6692390">
        <ele>554.4</ele>
        <time>2022-05-22T11:09:33Z</time>
      </trkpt>
      <trkpt lat="37.9938360" lon="-5.6692390">
        <ele>554.4</ele>
        <time>2022-05-22T11:09:34Z</time>
      </trkpt>
      <trkpt lat="37.9938360" lon="-5.6692390">
        <ele>554.4</ele>
        <time>2022-05-22T11:09:35Z</time>
      </trkpt>
      <trkpt lat="37.9938360" lon="-5.6692390">
        <ele>554.4</ele>
        <time>2022-05-22T11:09:36Z</time>
      </trkpt>
      <trkpt lat="37.9938360" lon="-5.6692390">
        <ele>554.4</ele>
        <time>2022-05-22T11:09:37Z</time>
      </trkpt>
      <trkpt lat="37.9938360" lon="-5.6692390">
        <ele>554.4</ele>
        <time>2022-05-22T11:09:38Z</time>
      </trkpt>
      <trkpt lat="37.9938360" lon="-5.6692390">
        <ele>554.4</ele>
        <time>2022-05-22T11:09:39Z</time>
      </trkpt>
      <trkpt lat="37.9938360" lon="-5.6692390">
        <ele>554.4</ele>
        <time>2022-05-22T11:09:40Z</time>
      </trkpt>
      <trkpt lat="37.9938360" lon="-5.6692390">
        <ele>554.4</ele>
        <time>2022-05-22T11:09:41Z</time>
      </trkpt>
      <trkpt lat="37.9938360" lon="-5.6692390">
        <ele>554.4</ele>
        <time>2022-05-22T11:09:42Z</time>
      </trkpt>
      <trkpt lat="37.9938360" lon="-5.6692390">
        <ele>554.4</ele>
        <time>2022-05-22T11:09:43Z</time>
      </trkpt>
      <trkpt lat="37.9938360" lon="-5.6692390">
        <ele>554.4</ele>
        <time>2022-05-22T11:09:44Z</time>
      </trkpt>
      <trkpt lat="37.9938360" lon="-5.6692390">
        <ele>554.4</ele>
        <time>2022-05-22T11:09:45Z</time>
      </trkpt>
      <trkpt lat="37.9938360" lon="-5.6692390">
        <ele>554.4</ele>
        <time>2022-05-22T11:09:46Z</time>
      </trkpt>
      <trkpt lat="37.9938360" lon="-5.6692390">
        <ele>554.4</ele>
        <time>2022-05-22T11:09:47Z</time>
      </trkpt>
      <trkpt lat="37.9938360" lon="-5.6692390">
        <ele>554.4</ele>
        <time>2022-05-22T11:09:48Z</time>
      </trkpt>
      <trkpt lat="37.9938360" lon="-5.6692390">
        <ele>554.4</ele>
        <time>2022-05-22T11:09:49Z</time>
      </trkpt>
      <trkpt lat="37.9938360" lon="-5.6692390">
        <ele>554.4</ele>
        <time>2022-05-22T11:09:50Z</time>
      </trkpt>
      <trkpt lat="37.9938360" lon="-5.6692390">
        <ele>554.4</ele>
        <time>2022-05-22T11:09:51Z</time>
      </trkpt>
      <trkpt lat="37.9938360" lon="-5.6692390">
        <ele>554.4</ele>
        <time>2022-05-22T11:09:52Z</time>
      </trkpt>
      <trkpt lat="37.9938360" lon="-5.6692390">
        <ele>554.4</ele>
        <time>2022-05-22T11:09:53Z</time>
      </trkpt>
      <trkpt lat="37.9938380" lon="-5.6692390">
        <ele>554.4</ele>
        <time>2022-05-22T11:09:54Z</time>
      </trkpt>
      <trkpt lat="37.9938490" lon="-5.6692410">
        <ele>554.4</ele>
        <time>2022-05-22T11:09:55Z</time>
      </trkpt>
      <trkpt lat="37.9938580" lon="-5.6692460">
        <ele>554.3</ele>
        <time>2022-05-22T11:09:56Z</time>
      </trkpt>
      <trkpt lat="37.9938640" lon="-5.6692500">
        <ele>554.3</ele>
        <time>2022-05-22T11:09:57Z</time>
      </trkpt>
      <trkpt lat="37.9938660" lon="-5.6692520">
        <ele>554.3</ele>
        <time>2022-05-22T11:09:58Z</time>
      </trkpt>
      <trkpt lat="37.9938680" lon="-5.6692530">
        <ele>554.3</ele>
        <time>2022-05-22T11:09:59Z</time>
      </trkpt>
      <trkpt lat="37.9938680" lon="-5.6692520">
        <ele>554.3</ele>
        <time>2022-05-22T11:10:00Z</time>
      </trkpt>
      <trkpt lat="37.9938680" lon="-5.6692520">
        <ele>554.3</ele>
        <time>2022-05-22T11:10:01Z</time>
      </trkpt>
      <trkpt lat="37.9938670" lon="-5.6692520">
        <ele>554.3</ele>
        <time>2022-05-22T11:10:03Z</time>
      </trkpt>
      <trkpt lat="37.9938660" lon="-5.6692530">
        <ele>554.3</ele>
        <time>2022-05-22T11:10:04Z</time>
      </trkpt>
      <trkpt lat="37.9938660" lon="-5.6692530">
        <ele>554.3</ele>
        <time>2022-05-22T11:10:05Z</time>
      </trkpt>
      <trkpt lat="37.9938660" lon="-5.6692530">
        <ele>554.3</ele>
        <time>2022-05-22T11:10:07Z</time>
      </trkpt>
      <trkpt lat="37.9938650" lon="-5.6692530">
        <ele>554.3</ele>
        <time>2022-05-22T11:10:08Z</time>
      </trkpt>
      <trkpt lat="37.9938660" lon="-5.6692530">
        <ele>554.3</ele>
        <time>2022-05-22T11:10:09Z</time>
      </trkpt>
      <trkpt lat="37.9938660" lon="-5.6692540">
        <ele>554.3</ele>
        <time>2022-05-22T11:10:10Z</time>
      </trkpt>
      <trkpt lat="37.9938660" lon="-5.6692540">
        <ele>554.3</ele>
        <time>2022-05-22T11:10:11Z</time>
      </trkpt>
      <trkpt lat="37.9938670" lon="-5.6692540">
        <ele>554.3</ele>
        <time>2022-05-22T11:10:13Z</time>
      </trkpt>
      <trkpt lat="37.9938670" lon="-5.6692540">
        <ele>554.3</ele>
        <time>2022-05-22T11:10:14Z</time>
      </trkpt>
      <trkpt lat="37.9938670" lon="-5.6692540">
        <ele>554.3</ele>
        <time>2022-05-22T11:10:15Z</time>
      </trkpt>
      <trkpt lat="37.9938670" lon="-5.6692540">
        <ele>554.3</ele>
        <time>2022-05-22T11:10:16Z</time>
      </trkpt>
      <trkpt lat="37.9938670" lon="-5.6692540">
        <ele>554.3</ele>
        <time>2022-05-22T11:10:17Z</time>
      </trkpt>
      <trkpt lat="37.9938660" lon="-5.6692540">
        <ele>554.3</ele>
        <time>2022-05-22T11:10:18Z</time>
      </trkpt>
      <trkpt lat="37.9938660" lon="-5.6692540">
        <ele>554.3</ele>
        <time>2022-05-22T11:10:19Z</time>
      </trkpt>
      <trkpt lat="37.9938670" lon="-5.6692540">
        <ele>554.3</ele>
        <time>2022-05-22T11:10:20Z</time>
      </trkpt>
      <trkpt lat="37.9938670" lon="-5.6692540">
        <ele>554.3</ele>
        <time>2022-05-22T11:10:21Z</time>
      </trkpt>
      <trkpt lat="37.9938670" lon="-5.6692530">
        <ele>554.3</ele>
        <time>2022-05-22T11:10:22Z</time>
      </trkpt>
      <trkpt lat="37.9938670" lon="-5.6692530">
        <ele>554.3</ele>
        <time>2022-05-22T11:10:23Z</time>
      </trkpt>
      <trkpt lat="37.9938660" lon="-5.6692530">
        <ele>554.3</ele>
        <time>2022-05-22T11:10:24Z</time>
      </trkpt>
      <trkpt lat="37.9938660" lon="-5.6692530">
        <ele>554.3</ele>
        <time>2022-05-22T11:10:25Z</time>
      </trkpt>
      <trkpt lat="37.9938650" lon="-5.6692530">
        <ele>554.3</ele>
        <time>2022-05-22T11:10:26Z</time>
      </trkpt>
      <trkpt lat="37.9938650" lon="-5.6692540">
        <ele>554.3</ele>
        <time>2022-05-22T11:10:27Z</time>
      </trkpt>
      <trkpt lat="37.9938660" lon="-5.6692540">
        <ele>554.3</ele>
        <time>2022-05-22T11:10:28Z</time>
      </trkpt>
      <trkpt lat="37.9938680" lon="-5.6692550">
        <ele>554.3</ele>
        <time>2022-05-22T11:10:29Z</time>
      </trkpt>
      <trkpt lat="37.9938700" lon="-5.6692560">
        <ele>554.3</ele>
        <time>2022-05-22T11:10:30Z</time>
      </trkpt>
      <trkpt lat="37.9938700" lon="-5.6692550">
        <ele>554.2</ele>
        <time>2022-05-22T11:10:31Z</time>
      </trkpt>
      <trkpt lat="37.9938700" lon="-5.6692530">
        <ele>554.2</ele>
        <time>2022-05-22T11:10:32Z</time>
      </trkpt>
      <trkpt lat="37.9938680" lon="-5.6692520">
        <ele>554.2</ele>
        <time>2022-05-22T11:10:33Z</time>
      </trkpt>
      <trkpt lat="37.9938650" lon="-5.6692490">
        <ele>554.2</ele>
        <time>2022-05-22T11:10:34Z</time>
      </trkpt>
      <trkpt lat="37.9938620" lon="-5.6692470">
        <ele>554.2</ele>
        <time>2022-05-22T11:10:35Z</time>
      </trkpt>
      <trkpt lat="37.9938600" lon="-5.6692460">
        <ele>554.2</ele>
        <time>2022-05-22T11:10:36Z</time>
      </trkpt>
      <trkpt lat="37.9938580" lon="-5.6692450">
        <ele>554.2</ele>
        <time>2022-05-22T11:10:37Z</time>
      </trkpt>
      <trkpt lat="37.9938570" lon="-5.6692450">
        <ele>554.2</ele>
        <time>2022-05-22T11:10:39Z</time>
      </trkpt>
      <trkpt lat="37.9938560" lon="-5.6692450">
        <ele>554.2</ele>
        <time>2022-05-22T11:10:40Z</time>
      </trkpt>
      <trkpt lat="37.9938540" lon="-5.6692430">
        <ele>554.2</ele>
        <time>2022-05-22T11:10:41Z</time>
      </trkpt>
      <trkpt lat="37.9938530" lon="-5.6692420">
        <ele>554.2</ele>
        <time>2022-05-22T11:10:43Z</time>
      </trkpt>
      <trkpt lat="37.9938530" lon="-5.6692420">
        <ele>554.2</ele>
        <time>2022-05-22T11:10:44Z</time>
      </trkpt>
      <trkpt lat="37.9938530" lon="-5.6692420">
        <ele>554.2</ele>
        <time>2022-05-22T11:10:45Z</time>
      </trkpt>
      <trkpt lat="37.9938530" lon="-5.6692420">
        <ele>554.2</ele>
        <time>2022-05-22T11:10:46Z</time>
      </trkpt>
      <trkpt lat="37.9938530" lon="-5.6692420">
        <ele>554.2</ele>
        <time>2022-05-22T11:10:48Z</time>
      </trkpt>
      <trkpt lat="37.9938530" lon="-5.6692420">
        <ele>554.2</ele>
        <time>2022-05-22T11:10:49Z</time>
      </trkpt>
      <trkpt lat="37.9938530" lon="-5.6692420">
        <ele>554.2</ele>
        <time>2022-05-22T11:10:50Z</time>
      </trkpt>
      <trkpt lat="37.9938530" lon="-5.6692420">
        <ele>554.2</ele>
        <time>2022-05-22T11:10:51Z</time>
      </trkpt>
      <trkpt lat="37.9938530" lon="-5.6692420">
        <ele>554.2</ele>
        <time>2022-05-22T11:10:52Z</time>
      </trkpt>
      <trkpt lat="37.9938530" lon="-5.6692420">
        <ele>554.2</ele>
        <time>2022-05-22T11:10:53Z</time>
      </trkpt>
      <trkpt lat="37.9938530" lon="-5.6692420">
        <ele>554.2</ele>
        <time>2022-05-22T11:10:54Z</time>
      </trkpt>
      <trkpt lat="37.9938580" lon="-5.6692450">
        <ele>554.2</ele>
        <time>2022-05-22T11:10:55Z</time>
      </trkpt>
      <trkpt lat="37.9938640" lon="-5.6692440">
        <ele>554.2</ele>
        <time>2022-05-22T11:10:56Z</time>
      </trkpt>
      <trkpt lat="37.9938670" lon="-5.6692350">
        <ele>554.1</ele>
        <time>2022-05-22T11:10:57Z</time>
      </trkpt>
      <trkpt lat="37.9938670" lon="-5.6692330">
        <ele>554.1</ele>
        <time>2022-05-22T11:10:58Z</time>
      </trkpt>
      <trkpt lat="37.9938670" lon="-5.6692330">
        <ele>554.1</ele>
        <time>2022-05-22T11:10:59Z</time>
      </trkpt>
      <trkpt lat="37.9938670" lon="-5.6692330">
        <ele>554.1</ele>
        <time>2022-05-22T11:11:00Z</time>
      </trkpt>
      <trkpt lat="37.9938670" lon="-5.6692330">
        <ele>554.1</ele>
        <time>2022-05-22T11:11:01Z</time>
      </trkpt>
      <trkpt lat="37.9938670" lon="-5.6692330">
        <ele>554.1</ele>
        <time>2022-05-22T11:11:02Z</time>
      </trkpt>
      <trkpt lat="37.9938670" lon="-5.6692330">
        <ele>554.1</ele>
        <time>2022-05-22T11:11:03Z</time>
      </trkpt>
      <trkpt lat="37.9938670" lon="-5.6692330">
        <ele>554.1</ele>
        <time>2022-05-22T11:11:04Z</time>
      </trkpt>
      <trkpt lat="37.9938670" lon="-5.6692330">
        <ele>554.1</ele>
        <time>2022-05-22T11:11:05Z</time>
      </trkpt>
      <trkpt lat="37.9938670" lon="-5.6692330">
        <ele>554.1</ele>
        <time>2022-05-22T11:11:06Z</time>
      </trkpt>
      <trkpt lat="37.9938670" lon="-5.6692330">
        <ele>554.1</ele>
        <time>2022-05-22T11:11:07Z</time>
      </trkpt>
      <trkpt lat="37.9938670" lon="-5.6692330">
        <ele>554.1</ele>
        <time>2022-05-22T11:11:08Z</time>
      </trkpt>
      <trkpt lat="37.9938670" lon="-5.6692330">
        <ele>554.1</ele>
        <time>2022-05-22T11:11:09Z</time>
      </trkpt>
      <trkpt lat="37.9938670" lon="-5.6692330">
        <ele>554.1</ele>
        <time>2022-05-22T11:11:10Z</time>
      </trkpt>
      <trkpt lat="37.9938670" lon="-5.6692330">
        <ele>554.1</ele>
        <time>2022-05-22T11:11:11Z</time>
      </trkpt>
      <trkpt lat="37.9938670" lon="-5.6692330">
        <ele>554.1</ele>
        <time>2022-05-22T11:11:12Z</time>
      </trkpt>
      <trkpt lat="37.9938670" lon="-5.6692330">
        <ele>554.1</ele>
        <time>2022-05-22T11:11:13Z</time>
      </trkpt>
      <trkpt lat="37.9938670" lon="-5.6692330">
        <ele>554.1</ele>
        <time>2022-05-22T11:11:14Z</time>
      </trkpt>
      <trkpt lat="37.9938670" lon="-5.6692330">
        <ele>554.1</ele>
        <time>2022-05-22T11:11:15Z</time>
      </trkpt>
      <trkpt lat="37.9938670" lon="-5.6692330">
        <ele>554.1</ele>
        <time>2022-05-22T11:11:16Z</time>
      </trkpt>
      <trkpt lat="37.9938670" lon="-5.6692330">
        <ele>554.1</ele>
        <time>2022-05-22T11:11:17Z</time>
      </trkpt>
      <trkpt lat="37.9938670" lon="-5.6692330">
        <ele>554.1</ele>
        <time>2022-05-22T11:11:18Z</time>
      </trkpt>
      <trkpt lat="37.9938670" lon="-5.6692330">
        <ele>554.1</ele>
        <time>2022-05-22T11:11:19Z</time>
      </trkpt>
      <trkpt lat="37.9938670" lon="-5.6692330">
        <ele>554.1</ele>
        <time>2022-05-22T11:11:20Z</time>
      </trkpt>
      <trkpt lat="37.9938670" lon="-5.6692330">
        <ele>554.1</ele>
        <time>2022-05-22T11:11:21Z</time>
      </trkpt>
      <trkpt lat="37.9938670" lon="-5.6692330">
        <ele>554.1</ele>
        <time>2022-05-22T11:11:22Z</time>
      </trkpt>
      <trkpt lat="37.9938670" lon="-5.6692330">
        <ele>554.1</ele>
        <time>2022-05-22T11:11:23Z</time>
      </trkpt>
      <trkpt lat="37.9938670" lon="-5.6692330">
        <ele>554.1</ele>
        <time>2022-05-22T11:11:24Z</time>
      </trkpt>
      <trkpt lat="37.9938640" lon="-5.6692320">
        <ele>554.1</ele>
        <time>2022-05-22T11:11:25Z</time>
      </trkpt>
      <trkpt lat="37.9938580" lon="-5.6692280">
        <ele>554.1</ele>
        <time>2022-05-22T11:11:26Z</time>
      </trkpt>
      <trkpt lat="37.9938500" lon="-5.6692270">
        <ele>554.1</ele>
        <time>2022-05-22T11:11:27Z</time>
      </trkpt>
      <trkpt lat="37.9938470" lon="-5.6692260">
        <ele>554.1</ele>
        <time>2022-05-22T11:11:28Z</time>
      </trkpt>
      <trkpt lat="37.9938460" lon="-5.6692240">
        <ele>554.1</ele>
        <time>2022-05-22T11:11:29Z</time>
      </trkpt>
      <trkpt lat="37.9938450" lon="-5.6692230">
        <ele>554.1</ele>
        <time>2022-05-22T11:11:30Z</time>
      </trkpt>
      <trkpt lat="37.9938450" lon="-5.6692230">
        <ele>554.1</ele>
        <time>2022-05-22T11:11:31Z</time>
      </trkpt>
      <trkpt lat="37.9938460" lon="-5.6692230">
        <ele>554.1</ele>
        <time>2022-05-22T11:11:32Z</time>
      </trkpt>
      <trkpt lat="37.9938460" lon="-5.6692230">
        <ele>554.1</ele>
        <time>2022-05-22T11:11:33Z</time>
      </trkpt>
      <trkpt lat="37.9938460" lon="-5.6692230">
        <ele>554.1</ele>
        <time>2022-05-22T11:11:34Z</time>
      </trkpt>
      <trkpt lat="37.9938460" lon="-5.6692230">
        <ele>554.1</ele>
        <time>2022-05-22T11:11:35Z</time>
      </trkpt>
      <trkpt lat="37.9938460" lon="-5.6692230">
        <ele>554.1</ele>
        <time>2022-05-22T11:11:36Z</time>
      </trkpt>
      <trkpt lat="37.9938460" lon="-5.6692230">
        <ele>554.1</ele>
        <time>2022-05-22T11:11:37Z</time>
      </trkpt>
      <trkpt lat="37.9938460" lon="-5.6692230">
        <ele>554.1</ele>
        <time>2022-05-22T11:11:38Z</time>
      </trkpt>
      <trkpt lat="37.9938460" lon="-5.6692230">
        <ele>554.1</ele>
        <time>2022-05-22T11:11:39Z</time>
      </trkpt>
      <trkpt lat="37.9938460" lon="-5.6692230">
        <ele>554.1</ele>
        <time>2022-05-22T11:11:40Z</time>
      </trkpt>
      <trkpt lat="37.9938460" lon="-5.6692230">
        <ele>554.1</ele>
        <time>2022-05-22T11:11:41Z</time>
      </trkpt>
      <trkpt lat="37.9938460" lon="-5.6692230">
        <ele>554.1</ele>
        <time>2022-05-22T11:11:42Z</time>
      </trkpt>
      <trkpt lat="37.9938460" lon="-5.6692230">
        <ele>554.1</ele>
        <time>2022-05-22T11:11:43Z</time>
      </trkpt>
      <trkpt lat="37.9938430" lon="-5.6692230">
        <ele>554.1</ele>
        <time>2022-05-22T11:11:44Z</time>
      </trkpt>
      <trkpt lat="37.9938420" lon="-5.6692230">
        <ele>554.1</ele>
        <time>2022-05-22T11:11:45Z</time>
      </trkpt>
      <trkpt lat="37.9938400" lon="-5.6692220">
        <ele>554.1</ele>
        <time>2022-05-22T11:11:46Z</time>
      </trkpt>
      <trkpt lat="37.9938390" lon="-5.6692220">
        <ele>554.0</ele>
        <time>2022-05-22T11:11:48Z</time>
      </trkpt>
      <trkpt lat="37.9938390" lon="-5.6692220">
        <ele>554.0</ele>
        <time>2022-05-22T11:11:49Z</time>
      </trkpt>
      <trkpt lat="37.9938380" lon="-5.6692220">
        <ele>554.0</ele>
        <time>2022-05-22T11:11:50Z</time>
      </trkpt>
      <trkpt lat="37.9938380" lon="-5.6692230">
        <ele>554.0</ele>
        <time>2022-05-22T11:11:51Z</time>
      </trkpt>
      <trkpt lat="37.9938380" lon="-5.6692240">
        <ele>554.0</ele>
        <time>2022-05-22T11:11:52Z</time>
      </trkpt>
      <trkpt lat="37.9938420" lon="-5.6692230">
        <ele>554.0</ele>
        <time>2022-05-22T11:11:53Z</time>
      </trkpt>
      <trkpt lat="37.9938440" lon="-5.6692230">
        <ele>554.0</ele>
        <time>2022-05-22T11:11:54Z</time>
      </trkpt>
      <trkpt lat="37.9938450" lon="-5.6692230">
        <ele>554.0</ele>
        <time>2022-05-22T11:11:55Z</time>
      </trkpt>
      <trkpt lat="37.9938450" lon="-5.6692230">
        <ele>554.0</ele>
        <time>2022-05-22T11:11:56Z</time>
      </trkpt>
      <trkpt lat="37.9938450" lon="-5.6692230">
        <ele>554.0</ele>
        <time>2022-05-22T11:11:57Z</time>
      </trkpt>
      <trkpt lat="37.9938460" lon="-5.6692230">
        <ele>554.0</ele>
        <time>2022-05-22T11:11:58Z</time>
      </trkpt>
      <trkpt lat="37.9938460" lon="-5.6692230">
        <ele>554.0</ele>
        <time>2022-05-22T11:11:59Z</time>
      </trkpt>
      <trkpt lat="37.9938460" lon="-5.6692230">
        <ele>554.0</ele>
        <time>2022-05-22T11:12:00Z</time>
      </trkpt>
      <trkpt lat="37.9938460" lon="-5.6692230">
        <ele>554.0</ele>
        <time>2022-05-22T11:12:01Z</time>
      </trkpt>
      <trkpt lat="37.9938460" lon="-5.6692230">
        <ele>554.0</ele>
        <time>2022-05-22T11:12:02Z</time>
      </trkpt>
      <trkpt lat="37.9938460" lon="-5.6692230">
        <ele>554.0</ele>
        <time>2022-05-22T11:12:03Z</time>
      </trkpt>
      <trkpt lat="37.9938460" lon="-5.6692230">
        <ele>554.0</ele>
        <time>2022-05-22T11:12:04Z</time>
      </trkpt>
      <trkpt lat="37.9938460" lon="-5.6692230">
        <ele>554.0</ele>
        <time>2022-05-22T11:12:05Z</time>
      </trkpt>
      <trkpt lat="37.9938460" lon="-5.6692230">
        <ele>554.0</ele>
        <time>2022-05-22T11:12:06Z</time>
      </trkpt>
      <trkpt lat="37.9938460" lon="-5.6692230">
        <ele>554.0</ele>
        <time>2022-05-22T11:12:07Z</time>
      </trkpt>
      <trkpt lat="37.9938460" lon="-5.6692230">
        <ele>554.0</ele>
        <time>2022-05-22T11:12:08Z</time>
      </trkpt>
      <trkpt lat="37.9938460" lon="-5.6692230">
        <ele>554.0</ele>
        <time>2022-05-22T11:12:09Z</time>
      </trkpt>
      <trkpt lat="37.9938460" lon="-5.6692230">
        <ele>554.0</ele>
        <time>2022-05-22T11:12:10Z</time>
      </trkpt>
      <trkpt lat="37.9938460" lon="-5.6692230">
        <ele>554.0</ele>
        <time>2022-05-22T11:12:11Z</time>
      </trkpt>
      <trkpt lat="37.9938460" lon="-5.6692230">
        <ele>554.0</ele>
        <time>2022-05-22T11:12:12Z</time>
      </trkpt>
      <trkpt lat="37.9938460" lon="-5.6692230">
        <ele>554.0</ele>
        <time>2022-05-22T11:12:13Z</time>
      </trkpt>
      <trkpt lat="37.9938460" lon="-5.6692230">
        <ele>554.0</ele>
        <time>2022-05-22T11:12:14Z</time>
      </trkpt>
      <trkpt lat="37.9938460" lon="-5.6692230">
        <ele>554.0</ele>
        <time>2022-05-22T11:12:15Z</time>
      </trkpt>
      <trkpt lat="37.9938460" lon="-5.6692230">
        <ele>554.0</ele>
        <time>2022-05-22T11:12:16Z</time>
      </trkpt>
      <trkpt lat="37.9938460" lon="-5.6692230">
        <ele>554.0</ele>
        <time>2022-05-22T11:12:17Z</time>
      </trkpt>
      <trkpt lat="37.9938460" lon="-5.6692230">
        <ele>554.0</ele>
        <time>2022-05-22T11:12:18Z</time>
      </trkpt>
      <trkpt lat="37.9938460" lon="-5.6692230">
        <ele>554.0</ele>
        <time>2022-05-22T11:12:19Z</time>
      </trkpt>
      <trkpt lat="37.9938460" lon="-5.6692230">
        <ele>554.0</ele>
        <time>2022-05-22T11:12:20Z</time>
      </trkpt>
      <trkpt lat="37.9938460" lon="-5.6692230">
        <ele>554.0</ele>
        <time>2022-05-22T11:12:21Z</time>
      </trkpt>
      <trkpt lat="37.9938460" lon="-5.6692230">
        <ele>554.0</ele>
        <time>2022-05-22T11:12:22Z</time>
      </trkpt>
      <trkpt lat="37.9938460" lon="-5.6692230">
        <ele>554.0</ele>
        <time>2022-05-22T11:12:23Z</time>
      </trkpt>
      <trkpt lat="37.9938460" lon="-5.6692230">
        <ele>554.0</ele>
        <time>2022-05-22T11:12:24Z</time>
      </trkpt>
      <trkpt lat="37.9938460" lon="-5.6692230">
        <ele>554.0</ele>
        <time>2022-05-22T11:12:25Z</time>
      </trkpt>
      <trkpt lat="37.9938460" lon="-5.6692230">
        <ele>554.0</ele>
        <time>2022-05-22T11:12:26Z</time>
      </trkpt>
      <trkpt lat="37.9938460" lon="-5.6692230">
        <ele>554.0</ele>
        <time>2022-05-22T11:12:27Z</time>
      </trkpt>
      <trkpt lat="37.9938460" lon="-5.6692230">
        <ele>554.0</ele>
        <time>2022-05-22T11:12:28Z</time>
      </trkpt>
      <trkpt lat="37.9938460" lon="-5.6692230">
        <ele>554.0</ele>
        <time>2022-05-22T11:12:29Z</time>
      </trkpt>
      <trkpt lat="37.9938460" lon="-5.6692230">
        <ele>554.0</ele>
        <time>2022-05-22T11:12:30Z</time>
      </trkpt>
      <trkpt lat="37.9938460" lon="-5.6692230">
        <ele>554.0</ele>
        <time>2022-05-22T11:12:31Z</time>
      </trkpt>
      <trkpt lat="37.9938460" lon="-5.6692230">
        <ele>554.0</ele>
        <time>2022-05-22T11:12:32Z</time>
      </trkpt>
      <trkpt lat="37.9938460" lon="-5.6692230">
        <ele>554.0</ele>
        <time>2022-05-22T11:12:33Z</time>
      </trkpt>
      <trkpt lat="37.9938460" lon="-5.6692230">
        <ele>554.0</ele>
        <time>2022-05-22T11:12:34Z</time>
      </trkpt>
      <trkpt lat="37.9938460" lon="-5.6692230">
        <ele>554.0</ele>
        <time>2022-05-22T11:12:35Z</time>
      </trkpt>
      <trkpt lat="37.9938460" lon="-5.6692230">
        <ele>554.0</ele>
        <time>2022-05-22T11:12:36Z</time>
      </trkpt>
      <trkpt lat="37.9938460" lon="-5.6692230">
        <ele>554.0</ele>
        <time>2022-05-22T11:12:37Z</time>
      </trkpt>
      <trkpt lat="37.9938460" lon="-5.6692230">
        <ele>554.0</ele>
        <time>2022-05-22T11:12:38Z</time>
      </trkpt>
      <trkpt lat="37.9938460" lon="-5.6692230">
        <ele>554.0</ele>
        <time>2022-05-22T11:12:39Z</time>
      </trkpt>
      <trkpt lat="37.9938460" lon="-5.6692230">
        <ele>554.0</ele>
        <time>2022-05-22T11:12:40Z</time>
      </trkpt>
      <trkpt lat="37.9938460" lon="-5.6692230">
        <ele>554.0</ele>
        <time>2022-05-22T11:12:41Z</time>
      </trkpt>
      <trkpt lat="37.9938460" lon="-5.6692230">
        <ele>554.0</ele>
        <time>2022-05-22T11:12:42Z</time>
      </trkpt>
      <trkpt lat="37.9938460" lon="-5.6692230">
        <ele>554.0</ele>
        <time>2022-05-22T11:12:43Z</time>
      </trkpt>
      <trkpt lat="37.9938460" lon="-5.6692230">
        <ele>554.0</ele>
        <time>2022-05-22T11:12:44Z</time>
      </trkpt>
      <trkpt lat="37.9938460" lon="-5.6692230">
        <ele>554.0</ele>
        <time>2022-05-22T11:12:45Z</time>
      </trkpt>
      <trkpt lat="37.9938460" lon="-5.6692230">
        <ele>554.0</ele>
        <time>2022-05-22T11:12:46Z</time>
      </trkpt>
      <trkpt lat="37.9938460" lon="-5.6692230">
        <ele>554.0</ele>
        <time>2022-05-22T11:12:47Z</time>
      </trkpt>
      <trkpt lat="37.9938460" lon="-5.6692230">
        <ele>554.0</ele>
        <time>2022-05-22T11:12:48Z</time>
      </trkpt>
      <trkpt lat="37.9938460" lon="-5.6692230">
        <ele>554.0</ele>
        <time>2022-05-22T11:12:49Z</time>
      </trkpt>
      <trkpt lat="37.9938460" lon="-5.6692230">
        <ele>554.0</ele>
        <time>2022-05-22T11:12:50Z</time>
      </trkpt>
      <trkpt lat="37.9938460" lon="-5.6692230">
        <ele>554.0</ele>
        <time>2022-05-22T11:12:51Z</time>
      </trkpt>
      <trkpt lat="37.9938460" lon="-5.6692230">
        <ele>554.0</ele>
        <time>2022-05-22T11:12:52Z</time>
      </trkpt>
      <trkpt lat="37.9938460" lon="-5.6692230">
        <ele>554.0</ele>
        <time>2022-05-22T11:12:53Z</time>
      </trkpt>
      <trkpt lat="37.9938460" lon="-5.6692230">
        <ele>554.0</ele>
        <time>2022-05-22T11:12:54Z</time>
      </trkpt>
      <trkpt lat="37.9938460" lon="-5.6692230">
        <ele>554.0</ele>
        <time>2022-05-22T11:12:55Z</time>
      </trkpt>
      <trkpt lat="37.9938460" lon="-5.6692230">
        <ele>554.0</ele>
        <time>2022-05-22T11:12:56Z</time>
      </trkpt>
      <trkpt lat="37.9938460" lon="-5.6692230">
        <ele>554.0</ele>
        <time>2022-05-22T11:12:57Z</time>
      </trkpt>
      <trkpt lat="37.9938460" lon="-5.6692230">
        <ele>554.0</ele>
        <time>2022-05-22T11:12:58Z</time>
      </trkpt>
      <trkpt lat="37.9938460" lon="-5.6692230">
        <ele>554.0</ele>
        <time>2022-05-22T11:12:59Z</time>
      </trkpt>
      <trkpt lat="37.9938460" lon="-5.6692230">
        <ele>554.0</ele>
        <time>2022-05-22T11:13:00Z</time>
      </trkpt>
      <trkpt lat="37.9938460" lon="-5.6692230">
        <ele>554.0</ele>
        <time>2022-05-22T11:13:01Z</time>
      </trkpt>
      <trkpt lat="37.9938450" lon="-5.6692230">
        <ele>554.0</ele>
        <time>2022-05-22T11:13:02Z</time>
      </trkpt>
      <trkpt lat="37.9938430" lon="-5.6692220">
        <ele>554.0</ele>
        <time>2022-05-22T11:13:03Z</time>
      </trkpt>
      <trkpt lat="37.9938510" lon="-5.6692430">
        <ele>554.0</ele>
        <time>2022-05-22T11:13:04Z</time>
      </trkpt>
      <trkpt lat="37.9938490" lon="-5.6692380">
        <ele>553.9</ele>
        <time>2022-05-22T11:13:05Z</time>
      </trkpt>
      <trkpt lat="37.9938500" lon="-5.6692390">
        <ele>553.9</ele>
        <time>2022-05-22T11:13:06Z</time>
      </trkpt>
      <trkpt lat="37.9938520" lon="-5.6692420">
        <ele>553.9</ele>
        <time>2022-05-22T11:13:07Z</time>
      </trkpt>
      <trkpt lat="37.9938530" lon="-5.6692450">
        <ele>553.9</ele>
        <time>2022-05-22T11:13:08Z</time>
      </trkpt>
      <trkpt lat="37.9938540" lon="-5.6692470">
        <ele>553.9</ele>
        <time>2022-05-22T11:13:09Z</time>
      </trkpt>
      <trkpt lat="37.9938550" lon="-5.6692490">
        <ele>553.9</ele>
        <time>2022-05-22T11:13:10Z</time>
      </trkpt>
      <trkpt lat="37.9938560" lon="-5.6692500">
        <ele>553.9</ele>
        <time>2022-05-22T11:13:11Z</time>
      </trkpt>
      <trkpt lat="37.9938560" lon="-5.6692510">
        <ele>553.9</ele>
        <time>2022-05-22T11:13:12Z</time>
      </trkpt>
      <trkpt lat="37.9938570" lon="-5.6692520">
        <ele>553.9</ele>
        <time>2022-05-22T11:13:13Z</time>
      </trkpt>
      <trkpt lat="37.9938580" lon="-5.6692530">
        <ele>553.9</ele>
        <time>2022-05-22T11:13:14Z</time>
      </trkpt>
      <trkpt lat="37.9938580" lon="-5.6692550">
        <ele>553.9</ele>
        <time>2022-05-22T11:13:16Z</time>
      </trkpt>
      <trkpt lat="37.9938590" lon="-5.6692560">
        <ele>553.9</ele>
        <time>2022-05-22T11:13:17Z</time>
      </trkpt>
      <trkpt lat="37.9938590" lon="-5.6692570">
        <ele>553.9</ele>
        <time>2022-05-22T11:13:18Z</time>
      </trkpt>
      <trkpt lat="37.9938600" lon="-5.6692580">
        <ele>553.9</ele>
        <time>2022-05-22T11:13:19Z</time>
      </trkpt>
      <trkpt lat="37.9938600" lon="-5.6692590">
        <ele>553.9</ele>
        <time>2022-05-22T11:13:20Z</time>
      </trkpt>
      <trkpt lat="37.9938600" lon="-5.6692600">
        <ele>553.9</ele>
        <time>2022-05-22T11:13:21Z</time>
      </trkpt>
      <trkpt lat="37.9938600" lon="-5.6692600">
        <ele>553.9</ele>
        <time>2022-05-22T11:13:22Z</time>
      </trkpt>
      <trkpt lat="37.9938610" lon="-5.6692610">
        <ele>553.9</ele>
        <time>2022-05-22T11:13:23Z</time>
      </trkpt>
      <trkpt lat="37.9938590" lon="-5.6692600">
        <ele>553.9</ele>
        <time>2022-05-22T11:13:24Z</time>
      </trkpt>
      <trkpt lat="37.9938580" lon="-5.6692590">
        <ele>553.9</ele>
        <time>2022-05-22T11:13:25Z</time>
      </trkpt>
      <trkpt lat="37.9938580" lon="-5.6692590">
        <ele>553.9</ele>
        <time>2022-05-22T11:13:26Z</time>
      </trkpt>
      <trkpt lat="37.9938600" lon="-5.6692600">
        <ele>553.9</ele>
        <time>2022-05-22T11:13:27Z</time>
      </trkpt>
      <trkpt lat="37.9938650" lon="-5.6692630">
        <ele>553.9</ele>
        <time>2022-05-22T11:13:28Z</time>
      </trkpt>
      <trkpt lat="37.9938670" lon="-5.6692660">
        <ele>553.8</ele>
        <time>2022-05-22T11:13:29Z</time>
      </trkpt>
      <trkpt lat="37.9938640" lon="-5.6692670">
        <ele>553.8</ele>
        <time>2022-05-22T11:13:30Z</time>
      </trkpt>
      <trkpt lat="37.9938630" lon="-5.6692720">
        <ele>553.8</ele>
        <time>2022-05-22T11:13:32Z</time>
      </trkpt>
      <trkpt lat="37.9938610" lon="-5.6692750">
        <ele>553.8</ele>
        <time>2022-05-22T11:13:33Z</time>
      </trkpt>
      <trkpt lat="37.9938600" lon="-5.6692780">
        <ele>553.8</ele>
        <time>2022-05-22T11:13:34Z</time>
      </trkpt>
      <trkpt lat="37.9938610" lon="-5.6692810">
        <ele>553.8</ele>
        <time>2022-05-22T11:13:35Z</time>
      </trkpt>
      <trkpt lat="37.9938600" lon="-5.6692930">
        <ele>553.8</ele>
        <time>2022-05-22T11:13:37Z</time>
      </trkpt>
      <trkpt lat="37.9938590" lon="-5.6692960">
        <ele>553.8</ele>
        <time>2022-05-22T11:13:38Z</time>
      </trkpt>
      <trkpt lat="37.9938590" lon="-5.6692990">
        <ele>553.8</ele>
        <time>2022-05-22T11:13:39Z</time>
      </trkpt>
      <trkpt lat="37.9938600" lon="-5.6693030">
        <ele>553.8</ele>
        <time>2022-05-22T11:13:40Z</time>
      </trkpt>
      <trkpt lat="37.9938600" lon="-5.6693070">
        <ele>553.8</ele>
        <time>2022-05-22T11:13:41Z</time>
      </trkpt>
      <trkpt lat="37.9938600" lon="-5.6693110">
        <ele>553.7</ele>
        <time>2022-05-22T11:13:42Z</time>
      </trkpt>
      <trkpt lat="37.9938590" lon="-5.6693140">
        <ele>553.7</ele>
        <time>2022-05-22T11:13:44Z</time>
      </trkpt>
      <trkpt lat="37.9938590" lon="-5.6693160">
        <ele>553.7</ele>
        <time>2022-05-22T11:13:45Z</time>
      </trkpt>
      <trkpt lat="37.9938590" lon="-5.6693210">
        <ele>553.7</ele>
        <time>2022-05-22T11:13:46Z</time>
      </trkpt>
      <trkpt lat="37.9938550" lon="-5.6693250">
        <ele>553.7</ele>
        <time>2022-05-22T11:13:47Z</time>
      </trkpt>
      <trkpt lat="37.9938500" lon="-5.6693310">
        <ele>553.7</ele>
        <time>2022-05-22T11:13:49Z</time>
      </trkpt>
      <trkpt lat="37.9938500" lon="-5.6693360">
        <ele>553.7</ele>
        <time>2022-05-22T11:13:50Z</time>
      </trkpt>
      <trkpt lat="37.9938500" lon="-5.6693420">
        <ele>553.7</ele>
        <time>2022-05-22T11:13:51Z</time>
      </trkpt>
      <trkpt lat="37.9938460" lon="-5.6693490">
        <ele>553.6</ele>
        <time>2022-05-22T11:13:52Z</time>
      </trkpt>
      <trkpt lat="37.9938430" lon="-5.6693520">
        <ele>553.6</ele>
        <time>2022-05-22T11:13:53Z</time>
      </trkpt>
      <trkpt lat="37.9938390" lon="-5.6693550">
        <ele>553.6</ele>
        <time>2022-05-22T11:13:54Z</time>
      </trkpt>
      <trkpt lat="37.9938440" lon="-5.6693590">
        <ele>553.6</ele>
        <time>2022-05-22T11:13:56Z</time>
      </trkpt>
      <trkpt lat="37.9938470" lon="-5.6693610">
        <ele>553.6</ele>
        <time>2022-05-22T11:13:57Z</time>
      </trkpt>
      <trkpt lat="37.9938480" lon="-5.6693620">
        <ele>553.6</ele>
        <time>2022-05-22T11:13:58Z</time>
      </trkpt>
      <trkpt lat="37.9938480" lon="-5.6693630">
        <ele>553.6</ele>
        <time>2022-05-22T11:13:59Z</time>
      </trkpt>
      <trkpt lat="37.9938470" lon="-5.6693640">
        <ele>553.6</ele>
        <time>2022-05-22T11:14:00Z</time>
      </trkpt>
      <trkpt lat="37.9938460" lon="-5.6693650">
        <ele>553.6</ele>
        <time>2022-05-22T11:14:02Z</time>
      </trkpt>
      <trkpt lat="37.9938450" lon="-5.6693660">
        <ele>553.6</ele>
        <time>2022-05-22T11:14:03Z</time>
      </trkpt>
      <trkpt lat="37.9938440" lon="-5.6693660">
        <ele>553.6</ele>
        <time>2022-05-22T11:14:04Z</time>
      </trkpt>
      <trkpt lat="37.9938430" lon="-5.6693660">
        <ele>553.6</ele>
        <time>2022-05-22T11:14:05Z</time>
      </trkpt>
      <trkpt lat="37.9938440" lon="-5.6693660">
        <ele>553.6</ele>
        <time>2022-05-22T11:14:06Z</time>
      </trkpt>
      <trkpt lat="37.9938440" lon="-5.6693650">
        <ele>553.6</ele>
        <time>2022-05-22T11:14:07Z</time>
      </trkpt>
      <trkpt lat="37.9938440" lon="-5.6693660">
        <ele>553.6</ele>
        <time>2022-05-22T11:14:08Z</time>
      </trkpt>
      <trkpt lat="37.9938440" lon="-5.6693650">
        <ele>553.6</ele>
        <time>2022-05-22T11:14:11Z</time>
      </trkpt>
      <trkpt lat="37.9938430" lon="-5.6693640">
        <ele>553.6</ele>
        <time>2022-05-22T11:14:12Z</time>
      </trkpt>
      <trkpt lat="37.9938440" lon="-5.6693630">
        <ele>553.6</ele>
        <time>2022-05-22T11:14:14Z</time>
      </trkpt>
      <trkpt lat="37.9938430" lon="-5.6693640">
        <ele>553.6</ele>
        <time>2022-05-22T11:14:15Z</time>
      </trkpt>
      <trkpt lat="37.9938430" lon="-5.6693660">
        <ele>553.6</ele>
        <time>2022-05-22T11:14:16Z</time>
      </trkpt>
      <trkpt lat="37.9938430" lon="-5.6693690">
        <ele>553.5</ele>
        <time>2022-05-22T11:14:17Z</time>
      </trkpt>
      <trkpt lat="37.9938450" lon="-5.6693710">
        <ele>553.5</ele>
        <time>2022-05-22T11:14:18Z</time>
      </trkpt>
      <trkpt lat="37.9938460" lon="-5.6693730">
        <ele>553.5</ele>
        <time>2022-05-22T11:14:20Z</time>
      </trkpt>
      <trkpt lat="37.9938370" lon="-5.6693780">
        <ele>553.5</ele>
        <time>2022-05-22T11:14:21Z</time>
      </trkpt>
      <trkpt lat="37.9938280" lon="-5.6693870">
        <ele>553.5</ele>
        <time>2022-05-22T11:14:22Z</time>
      </trkpt>
      <trkpt lat="37.9938220" lon="-5.6693930">
        <ele>553.5</ele>
        <time>2022-05-22T11:14:23Z</time>
      </trkpt>
      <trkpt lat="37.9938170" lon="-5.6693970">
        <ele>553.4</ele>
        <time>2022-05-22T11:14:24Z</time>
      </trkpt>
      <trkpt lat="37.9938140" lon="-5.6693950">
        <ele>553.4</ele>
        <time>2022-05-22T11:14:25Z</time>
      </trkpt>
      <trkpt lat="37.9938110" lon="-5.6693970">
        <ele>553.4</ele>
        <time>2022-05-22T11:14:26Z</time>
      </trkpt>
      <trkpt lat="37.9938120" lon="-5.6694070">
        <ele>553.4</ele>
        <time>2022-05-22T11:14:27Z</time>
      </trkpt>
      <trkpt lat="37.9938100" lon="-5.6694110">
        <ele>553.4</ele>
        <time>2022-05-22T11:14:29Z</time>
      </trkpt>
      <trkpt lat="37.9938080" lon="-5.6694200">
        <ele>553.4</ele>
        <time>2022-05-22T11:14:30Z</time>
      </trkpt>
      <trkpt lat="37.9938070" lon="-5.6694290">
        <ele>553.4</ele>
        <time>2022-05-22T11:14:31Z</time>
      </trkpt>
      <trkpt lat="37.9938030" lon="-5.6694350">
        <ele>553.4</ele>
        <time>2022-05-22T11:14:32Z</time>
      </trkpt>
      <trkpt lat="37.9937980" lon="-5.6694430">
        <ele>553.3</ele>
        <time>2022-05-22T11:14:33Z</time>
      </trkpt>
      <trkpt lat="37.9937970" lon="-5.6694500">
        <ele>553.3</ele>
        <time>2022-05-22T11:14:35Z</time>
      </trkpt>
      <trkpt lat="37.9937960" lon="-5.6694500">
        <ele>553.3</ele>
        <time>2022-05-22T11:14:36Z</time>
      </trkpt>
      <trkpt lat="37.9937960" lon="-5.6694500">
        <ele>553.3</ele>
        <time>2022-05-22T11:14:37Z</time>
      </trkpt>
      <trkpt lat="37.9937970" lon="-5.6694500">
        <ele>553.3</ele>
        <time>2022-05-22T11:14:38Z</time>
      </trkpt>
      <trkpt lat="37.9937960" lon="-5.6694510">
        <ele>553.3</ele>
        <time>2022-05-22T11:14:39Z</time>
      </trkpt>
      <trkpt lat="37.9937950" lon="-5.6694510">
        <ele>553.3</ele>
        <time>2022-05-22T11:14:40Z</time>
      </trkpt>
      <trkpt lat="37.9937920" lon="-5.6694490">
        <ele>553.3</ele>
        <time>2022-05-22T11:14:41Z</time>
      </trkpt>
      <trkpt lat="37.9937910" lon="-5.6694500">
        <ele>553.3</ele>
        <time>2022-05-22T11:14:42Z</time>
      </trkpt>
      <trkpt lat="37.9937900" lon="-5.6694490">
        <ele>553.3</ele>
        <time>2022-05-22T11:14:43Z</time>
      </trkpt>
      <trkpt lat="37.9937880" lon="-5.6694460">
        <ele>553.3</ele>
        <time>2022-05-22T11:14:44Z</time>
      </trkpt>
      <trkpt lat="37.9937870" lon="-5.6694420">
        <ele>553.3</ele>
        <time>2022-05-22T11:14:45Z</time>
      </trkpt>
      <trkpt lat="37.9937860" lon="-5.6694390">
        <ele>553.3</ele>
        <time>2022-05-22T11:14:46Z</time>
      </trkpt>
      <trkpt lat="37.9937860" lon="-5.6694350">
        <ele>553.3</ele>
        <time>2022-05-22T11:14:47Z</time>
      </trkpt>
      <trkpt lat="37.9937850" lon="-5.6694310">
        <ele>553.3</ele>
        <time>2022-05-22T11:14:48Z</time>
      </trkpt>
      <trkpt lat="37.9937840" lon="-5.6694290">
        <ele>553.3</ele>
        <time>2022-05-22T11:14:49Z</time>
      </trkpt>
      <trkpt lat="37.9937830" lon="-5.6694150">
        <ele>553.2</ele>
        <time>2022-05-22T11:14:55Z</time>
      </trkpt>
      <trkpt lat="37.9937830" lon="-5.6694130">
        <ele>553.2</ele>
        <time>2022-05-22T11:14:56Z</time>
      </trkpt>
      <trkpt lat="37.9937830" lon="-5.6694120">
        <ele>553.2</ele>
        <time>2022-05-22T11:14:57Z</time>
      </trkpt>
      <trkpt lat="37.9937830" lon="-5.6694110">
        <ele>553.2</ele>
        <time>2022-05-22T11:14:58Z</time>
      </trkpt>
      <trkpt lat="37.9937830" lon="-5.6694110">
        <ele>553.2</ele>
        <time>2022-05-22T11:14:59Z</time>
      </trkpt>
      <trkpt lat="37.9937830" lon="-5.6694110">
        <ele>553.2</ele>
        <time>2022-05-22T11:15:00Z</time>
      </trkpt>
      <trkpt lat="37.9937830" lon="-5.6694100">
        <ele>553.2</ele>
        <time>2022-05-22T11:15:01Z</time>
      </trkpt>
      <trkpt lat="37.9937830" lon="-5.6694100">
        <ele>553.2</ele>
        <time>2022-05-22T11:15:02Z</time>
      </trkpt>
      <trkpt lat="37.9937830" lon="-5.6694100">
        <ele>553.2</ele>
        <time>2022-05-22T11:15:04Z</time>
      </trkpt>
      <trkpt lat="37.9937830" lon="-5.6694100">
        <ele>553.2</ele>
        <time>2022-05-22T11:15:05Z</time>
      </trkpt>
      <trkpt lat="37.9937830" lon="-5.6694100">
        <ele>553.2</ele>
        <time>2022-05-22T11:15:06Z</time>
      </trkpt>
      <trkpt lat="37.9937830" lon="-5.6694100">
        <ele>553.2</ele>
        <time>2022-05-22T11:15:07Z</time>
      </trkpt>
      <trkpt lat="37.9937830" lon="-5.6694100">
        <ele>553.2</ele>
        <time>2022-05-22T11:15:09Z</time>
      </trkpt>
      <trkpt lat="37.9937830" lon="-5.6694100">
        <ele>553.2</ele>
        <time>2022-05-22T11:15:10Z</time>
      </trkpt>
      <trkpt lat="37.9937830" lon="-5.6694100">
        <ele>553.2</ele>
        <time>2022-05-22T11:15:11Z</time>
      </trkpt>
      <trkpt lat="37.9937830" lon="-5.6694100">
        <ele>553.2</ele>
        <time>2022-05-22T11:15:12Z</time>
      </trkpt>
      <trkpt lat="37.9937830" lon="-5.6694100">
        <ele>553.2</ele>
        <time>2022-05-22T11:15:13Z</time>
      </trkpt>
      <trkpt lat="37.9937830" lon="-5.6694100">
        <ele>553.2</ele>
        <time>2022-05-22T11:15:14Z</time>
      </trkpt>
      <trkpt lat="37.9937830" lon="-5.6694100">
        <ele>553.2</ele>
        <time>2022-05-22T11:15:15Z</time>
      </trkpt>
      <trkpt lat="37.9937810" lon="-5.6694100">
        <ele>553.2</ele>
        <time>2022-05-22T11:15:16Z</time>
      </trkpt>
      <trkpt lat="37.9937800" lon="-5.6694100">
        <ele>553.2</ele>
        <time>2022-05-22T11:15:17Z</time>
      </trkpt>
      <trkpt lat="37.9937800" lon="-5.6694090">
        <ele>553.2</ele>
        <time>2022-05-22T11:15:18Z</time>
      </trkpt>
      <trkpt lat="37.9937800" lon="-5.6694060">
        <ele>553.2</ele>
        <time>2022-05-22T11:15:19Z</time>
      </trkpt>
      <trkpt lat="37.9937810" lon="-5.6694050">
        <ele>553.2</ele>
        <time>2022-05-22T11:15:20Z</time>
      </trkpt>
      <trkpt lat="37.9937820" lon="-5.6694040">
        <ele>553.2</ele>
        <time>2022-05-22T11:15:21Z</time>
      </trkpt>
      <trkpt lat="37.9937820" lon="-5.6694030">
        <ele>553.2</ele>
        <time>2022-05-22T11:15:22Z</time>
      </trkpt>
      <trkpt lat="37.9937830" lon="-5.6694020">
        <ele>553.2</ele>
        <time>2022-05-22T11:15:23Z</time>
      </trkpt>
      <trkpt lat="37.9937830" lon="-5.6694020">
        <ele>553.2</ele>
        <time>2022-05-22T11:15:24Z</time>
      </trkpt>
      <trkpt lat="37.9937840" lon="-5.6694020">
        <ele>553.2</ele>
        <time>2022-05-22T11:15:25Z</time>
      </trkpt>
      <trkpt lat="37.9937840" lon="-5.6694060">
        <ele>553.2</ele>
        <time>2022-05-22T11:15:26Z</time>
      </trkpt>
      <trkpt lat="37.9937840" lon="-5.6694080">
        <ele>553.2</ele>
        <time>2022-05-22T11:15:27Z</time>
      </trkpt>
      <trkpt lat="37.9937840" lon="-5.6694090">
        <ele>553.2</ele>
        <time>2022-05-22T11:15:28Z</time>
      </trkpt>
      <trkpt lat="37.9937830" lon="-5.6694100">
        <ele>553.2</ele>
        <time>2022-05-22T11:15:29Z</time>
      </trkpt>
      <trkpt lat="37.9937830" lon="-5.6694100">
        <ele>553.2</ele>
        <time>2022-05-22T11:15:30Z</time>
      </trkpt>
      <trkpt lat="37.9937830" lon="-5.6694100">
        <ele>553.2</ele>
        <time>2022-05-22T11:15:31Z</time>
      </trkpt>
      <trkpt lat="37.9937830" lon="-5.6694100">
        <ele>553.2</ele>
        <time>2022-05-22T11:15:32Z</time>
      </trkpt>
      <trkpt lat="37.9937830" lon="-5.6694100">
        <ele>553.2</ele>
        <time>2022-05-22T11:15:33Z</time>
      </trkpt>
      <trkpt lat="37.9937830" lon="-5.6694100">
        <ele>553.2</ele>
        <time>2022-05-22T11:15:34Z</time>
      </trkpt>
      <trkpt lat="37.9937830" lon="-5.6694100">
        <ele>553.2</ele>
        <time>2022-05-22T11:15:35Z</time>
      </trkpt>
      <trkpt lat="37.9937830" lon="-5.6694100">
        <ele>553.2</ele>
        <time>2022-05-22T11:15:36Z</time>
      </trkpt>
      <trkpt lat="37.9937830" lon="-5.6694100">
        <ele>553.2</ele>
        <time>2022-05-22T11:15:37Z</time>
      </trkpt>
      <trkpt lat="37.9937830" lon="-5.6694100">
        <ele>553.2</ele>
        <time>2022-05-22T11:15:38Z</time>
      </trkpt>
      <trkpt lat="37.9937830" lon="-5.6694100">
        <ele>553.2</ele>
        <time>2022-05-22T11:15:39Z</time>
      </trkpt>
      <trkpt lat="37.9937830" lon="-5.6694100">
        <ele>553.2</ele>
        <time>2022-05-22T11:15:40Z</time>
      </trkpt>
      <trkpt lat="37.9937860" lon="-5.6694110">
        <ele>553.2</ele>
        <time>2022-05-22T11:15:41Z</time>
      </trkpt>
      <trkpt lat="37.9937930" lon="-5.6694120">
        <ele>553.2</ele>
        <time>2022-05-22T11:15:42Z</time>
      </trkpt>
      <trkpt lat="37.9937970" lon="-5.6694140">
        <ele>553.1</ele>
        <time>2022-05-22T11:15:43Z</time>
      </trkpt>
      <trkpt lat="37.9938020" lon="-5.6694170">
        <ele>553.1</ele>
        <time>2022-05-22T11:15:44Z</time>
      </trkpt>
      <trkpt lat="37.9938080" lon="-5.6694240">
        <ele>553.1</ele>
        <time>2022-05-22T11:15:45Z</time>
      </trkpt>
      <trkpt lat="37.9938130" lon="-5.6694330">
        <ele>553.1</ele>
        <time>2022-05-22T11:15:46Z</time>
      </trkpt>
      <trkpt lat="37.9938110" lon="-5.6694500">
        <ele>553.1</ele>
        <time>2022-05-22T11:15:47Z</time>
      </trkpt>
      <trkpt lat="37.9938060" lon="-5.6694560">
        <ele>553.0</ele>
        <time>2022-05-22T11:15:48Z</time>
      </trkpt>
      <trkpt lat="37.9938000" lon="-5.6694620">
        <ele>553.0</ele>
        <time>2022-05-22T11:15:49Z</time>
      </trkpt>
      <trkpt lat="37.9937940" lon="-5.6694670">
        <ele>553.1</ele>
        <time>2022-05-22T11:15:50Z</time>
      </trkpt>
      <trkpt lat="37.9937890" lon="-5.6694730">
        <ele>553.1</ele>
        <time>2022-05-22T11:15:51Z</time>
      </trkpt>
      <trkpt lat="37.9937840" lon="-5.6694750">
        <ele>553.1</ele>
        <time>2022-05-22T11:15:52Z</time>
      </trkpt>
      <trkpt lat="37.9937820" lon="-5.6694750">
        <ele>553.1</ele>
        <time>2022-05-22T11:15:53Z</time>
      </trkpt>
      <trkpt lat="37.9937810" lon="-5.6694760">
        <ele>553.1</ele>
        <time>2022-05-22T11:15:54Z</time>
      </trkpt>
      <trkpt lat="37.9937810" lon="-5.6694760">
        <ele>553.1</ele>
        <time>2022-05-22T11:15:55Z</time>
      </trkpt>
      <trkpt lat="37.9937810" lon="-5.6694760">
        <ele>553.1</ele>
        <time>2022-05-22T11:15:56Z</time>
      </trkpt>
      <trkpt lat="37.9937800" lon="-5.6694760">
        <ele>553.1</ele>
        <time>2022-05-22T11:15:57Z</time>
      </trkpt>
      <trkpt lat="37.9937800" lon="-5.6694760">
        <ele>553.1</ele>
        <time>2022-05-22T11:15:58Z</time>
      </trkpt>
      <trkpt lat="37.9937800" lon="-5.6694760">
        <ele>553.1</ele>
        <time>2022-05-22T11:15:59Z</time>
      </trkpt>
      <trkpt lat="37.9937800" lon="-5.6694760">
        <ele>553.1</ele>
        <time>2022-05-22T11:16:00Z</time>
      </trkpt>
      <trkpt lat="37.9937800" lon="-5.6694760">
        <ele>553.1</ele>
        <time>2022-05-22T11:16:01Z</time>
      </trkpt>
      <trkpt lat="37.9937800" lon="-5.6694760">
        <ele>553.1</ele>
        <time>2022-05-22T11:16:02Z</time>
      </trkpt>
      <trkpt lat="37.9937800" lon="-5.6694760">
        <ele>553.1</ele>
        <time>2022-05-22T11:16:03Z</time>
      </trkpt>
      <trkpt lat="37.9937800" lon="-5.6694760">
        <ele>553.1</ele>
        <time>2022-05-22T11:16:04Z</time>
      </trkpt>
      <trkpt lat="37.9937800" lon="-5.6694760">
        <ele>553.1</ele>
        <time>2022-05-22T11:16:05Z</time>
      </trkpt>
      <trkpt lat="37.9937800" lon="-5.6694760">
        <ele>553.1</ele>
        <time>2022-05-22T11:16:06Z</time>
      </trkpt>
      <trkpt lat="37.9937800" lon="-5.6694760">
        <ele>553.1</ele>
        <time>2022-05-22T11:16:07Z</time>
      </trkpt>
      <trkpt lat="37.9937800" lon="-5.6694760">
        <ele>553.1</ele>
        <time>2022-05-22T11:16:08Z</time>
      </trkpt>
      <trkpt lat="37.9937800" lon="-5.6694760">
        <ele>553.1</ele>
        <time>2022-05-22T11:16:09Z</time>
      </trkpt>
      <trkpt lat="37.9937800" lon="-5.6694760">
        <ele>553.1</ele>
        <time>2022-05-22T11:16:10Z</time>
      </trkpt>
      <trkpt lat="37.9937800" lon="-5.6694760">
        <ele>553.1</ele>
        <time>2022-05-22T11:16:11Z</time>
      </trkpt>
      <trkpt lat="37.9937800" lon="-5.6694760">
        <ele>553.1</ele>
        <time>2022-05-22T11:16:13Z</time>
      </trkpt>
      <trkpt lat="37.9937800" lon="-5.6694760">
        <ele>553.1</ele>
        <time>2022-05-22T11:16:14Z</time>
      </trkpt>
      <trkpt lat="37.9937800" lon="-5.6694760">
        <ele>553.1</ele>
        <time>2022-05-22T11:16:15Z</time>
      </trkpt>
      <trkpt lat="37.9937800" lon="-5.6694760">
        <ele>553.1</ele>
        <time>2022-05-22T11:16:16Z</time>
      </trkpt>
      <trkpt lat="37.9937800" lon="-5.6694780">
        <ele>553.1</ele>
        <time>2022-05-22T11:16:17Z</time>
      </trkpt>
      <trkpt lat="37.9937790" lon="-5.6694790">
        <ele>553.1</ele>
        <time>2022-05-22T11:16:18Z</time>
      </trkpt>
      <trkpt lat="37.9937790" lon="-5.6694800">
        <ele>553.1</ele>
        <time>2022-05-22T11:16:19Z</time>
      </trkpt>
      <trkpt lat="37.9937800" lon="-5.6694800">
        <ele>553.1</ele>
        <time>2022-05-22T11:16:22Z</time>
      </trkpt>
      <trkpt lat="37.9937800" lon="-5.6694800">
        <ele>553.1</ele>
        <time>2022-05-22T11:16:23Z</time>
      </trkpt>
      <trkpt lat="37.9937800" lon="-5.6694800">
        <ele>553.1</ele>
        <time>2022-05-22T11:16:24Z</time>
      </trkpt>
      <trkpt lat="37.9937800" lon="-5.6694790">
        <ele>553.1</ele>
        <time>2022-05-22T11:16:25Z</time>
      </trkpt>
      <trkpt lat="37.9937800" lon="-5.6694790">
        <ele>553.1</ele>
        <time>2022-05-22T11:16:26Z</time>
      </trkpt>
      <trkpt lat="37.9937790" lon="-5.6694790">
        <ele>553.2</ele>
        <time>2022-05-22T11:16:27Z</time>
      </trkpt>
      <trkpt lat="37.9937780" lon="-5.6694790">
        <ele>553.2</ele>
        <time>2022-05-22T11:16:28Z</time>
      </trkpt>
      <trkpt lat="37.9937780" lon="-5.6694790">
        <ele>553.2</ele>
        <time>2022-05-22T11:16:29Z</time>
      </trkpt>
      <trkpt lat="37.9937780" lon="-5.6694780">
        <ele>553.2</ele>
        <time>2022-05-22T11:16:30Z</time>
      </trkpt>
      <trkpt lat="37.9937770" lon="-5.6694770">
        <ele>553.2</ele>
        <time>2022-05-22T11:16:31Z</time>
      </trkpt>
      <trkpt lat="37.9937760" lon="-5.6694760">
        <ele>553.2</ele>
        <time>2022-05-22T11:16:32Z</time>
      </trkpt>
      <trkpt lat="37.9937750" lon="-5.6694730">
        <ele>553.2</ele>
        <time>2022-05-22T11:16:33Z</time>
      </trkpt>
      <trkpt lat="37.9937740" lon="-5.6694710">
        <ele>553.2</ele>
        <time>2022-05-22T11:16:34Z</time>
      </trkpt>
      <trkpt lat="37.9937760" lon="-5.6694730">
        <ele>553.2</ele>
        <time>2022-05-22T11:16:35Z</time>
      </trkpt>
      <trkpt lat="37.9937790" lon="-5.6694770">
        <ele>553.2</ele>
        <time>2022-05-22T11:16:36Z</time>
      </trkpt>
      <trkpt lat="37.9937820" lon="-5.6694790">
        <ele>553.2</ele>
        <time>2022-05-22T11:16:37Z</time>
      </trkpt>
      <trkpt lat="37.9937830" lon="-5.6694800">
        <ele>553.2</ele>
        <time>2022-05-22T11:16:39Z</time>
      </trkpt>
      <trkpt lat="37.9937840" lon="-5.6694810">
        <ele>553.2</ele>
        <time>2022-05-22T11:16:40Z</time>
      </trkpt>
      <trkpt lat="37.9937840" lon="-5.6694810">
        <ele>553.2</ele>
        <time>2022-05-22T11:16:41Z</time>
      </trkpt>
      <trkpt lat="37.9937840" lon="-5.6694810">
        <ele>553.2</ele>
        <time>2022-05-22T11:16:42Z</time>
      </trkpt>
      <trkpt lat="37.9937850" lon="-5.6694810">
        <ele>553.2</ele>
        <time>2022-05-22T11:16:43Z</time>
      </trkpt>
      <trkpt lat="37.9937890" lon="-5.6694780">
        <ele>553.3</ele>
        <time>2022-05-22T11:16:44Z</time>
      </trkpt>
      <trkpt lat="37.9937890" lon="-5.6694770">
        <ele>553.3</ele>
        <time>2022-05-22T11:16:45Z</time>
      </trkpt>
      <trkpt lat="37.9937910" lon="-5.6694760">
        <ele>553.3</ele>
        <time>2022-05-22T11:16:46Z</time>
      </trkpt>
      <trkpt lat="37.9937890" lon="-5.6694780">
        <ele>553.3</ele>
        <time>2022-05-22T11:16:47Z</time>
      </trkpt>
      <trkpt lat="37.9937930" lon="-5.6694830">
        <ele>553.3</ele>
        <time>2022-05-22T11:16:48Z</time>
      </trkpt>
      <trkpt lat="37.9937960" lon="-5.6694900">
        <ele>553.3</ele>
        <time>2022-05-22T11:16:49Z</time>
      </trkpt>
      <trkpt lat="37.9938000" lon="-5.6694950">
        <ele>553.3</ele>
        <time>2022-05-22T11:16:50Z</time>
      </trkpt>
      <trkpt lat="37.9938020" lon="-5.6694960">
        <ele>553.3</ele>
        <time>2022-05-22T11:16:51Z</time>
      </trkpt>
      <trkpt lat="37.9938060" lon="-5.6694960">
        <ele>553.4</ele>
        <time>2022-05-22T11:16:52Z</time>
      </trkpt>
      <trkpt lat="37.9938110" lon="-5.6694960">
        <ele>553.4</ele>
        <time>2022-05-22T11:16:53Z</time>
      </trkpt>
      <trkpt lat="37.9938130" lon="-5.6694950">
        <ele>553.4</ele>
        <time>2022-05-22T11:16:54Z</time>
      </trkpt>
      <trkpt lat="37.9938120" lon="-5.6694950">
        <ele>553.4</ele>
        <time>2022-05-22T11:16:55Z</time>
      </trkpt>
      <trkpt lat="37.9938150" lon="-5.6694940">
        <ele>553.4</ele>
        <time>2022-05-22T11:16:56Z</time>
      </trkpt>
      <trkpt lat="37.9938180" lon="-5.6694940">
        <ele>553.4</ele>
        <time>2022-05-22T11:16:57Z</time>
      </trkpt>
      <trkpt lat="37.9938200" lon="-5.6694930">
        <ele>553.4</ele>
        <time>2022-05-22T11:16:58Z</time>
      </trkpt>
      <trkpt lat="37.9938220" lon="-5.6694920">
        <ele>553.4</ele>
        <time>2022-05-22T11:16:59Z</time>
      </trkpt>
      <trkpt lat="37.9938250" lon="-5.6694910">
        <ele>553.4</ele>
        <time>2022-05-22T11:17:00Z</time>
      </trkpt>
      <trkpt lat="37.9938270" lon="-5.6694910">
        <ele>553.4</ele>
        <time>2022-05-22T11:17:01Z</time>
      </trkpt>
      <trkpt lat="37.9938280" lon="-5.6694890">
        <ele>553.5</ele>
        <time>2022-05-22T11:17:02Z</time>
      </trkpt>
      <trkpt lat="37.9938290" lon="-5.6694890">
        <ele>553.5</ele>
        <time>2022-05-22T11:17:03Z</time>
      </trkpt>
      <trkpt lat="37.9938300" lon="-5.6694880">
        <ele>553.5</ele>
        <time>2022-05-22T11:17:04Z</time>
      </trkpt>
      <trkpt lat="37.9938320" lon="-5.6694860">
        <ele>553.5</ele>
        <time>2022-05-22T11:17:05Z</time>
      </trkpt>
      <trkpt lat="37.9938350" lon="-5.6694830">
        <ele>553.5</ele>
        <time>2022-05-22T11:17:06Z</time>
      </trkpt>
      <trkpt lat="37.9938360" lon="-5.6694790">
        <ele>553.5</ele>
        <time>2022-05-22T11:17:07Z</time>
      </trkpt>
      <trkpt lat="37.9938350" lon="-5.6694740">
        <ele>553.5</ele>
        <time>2022-05-22T11:17:08Z</time>
      </trkpt>
      <trkpt lat="37.9938360" lon="-5.6694670">
        <ele>553.5</ele>
        <time>2022-05-22T11:17:09Z</time>
      </trkpt>
      <trkpt lat="37.9938400" lon="-5.6694650">
        <ele>553.6</ele>
        <time>2022-05-22T11:17:10Z</time>
      </trkpt>
      <trkpt lat="37.9938440" lon="-5.6694570">
        <ele>553.6</ele>
        <time>2022-05-22T11:17:11Z</time>
      </trkpt>
      <trkpt lat="37.9938450" lon="-5.6694540">
        <ele>553.6</ele>
        <time>2022-05-22T11:17:12Z</time>
      </trkpt>
      <trkpt lat="37.9938490" lon="-5.6694370">
        <ele>553.6</ele>
        <time>2022-05-22T11:17:13Z</time>
      </trkpt>
      <trkpt lat="37.9938490" lon="-5.6694320">
        <ele>553.7</ele>
        <time>2022-05-22T11:17:14Z</time>
      </trkpt>
      <trkpt lat="37.9938520" lon="-5.6694270">
        <ele>553.7</ele>
        <time>2022-05-22T11:17:15Z</time>
      </trkpt>
      <trkpt lat="37.9938540" lon="-5.6694190">
        <ele>553.7</ele>
        <time>2022-05-22T11:17:16Z</time>
      </trkpt>
      <trkpt lat="37.9938550" lon="-5.6694130">
        <ele>553.7</ele>
        <time>2022-05-22T11:17:18Z</time>
      </trkpt>
      <trkpt lat="37.9938560" lon="-5.6694070">
        <ele>553.8</ele>
        <time>2022-05-22T11:17:19Z</time>
      </trkpt>
      <trkpt lat="37.9938580" lon="-5.6694040">
        <ele>553.8</ele>
        <time>2022-05-22T11:17:21Z</time>
      </trkpt>
      <trkpt lat="37.9938590" lon="-5.6694030">
        <ele>553.8</ele>
        <time>2022-05-22T11:17:22Z</time>
      </trkpt>
      <trkpt lat="37.9938610" lon="-5.6694030">
        <ele>553.8</ele>
        <time>2022-05-22T11:17:23Z</time>
      </trkpt>
      <trkpt lat="37.9938650" lon="-5.6694030">
        <ele>553.8</ele>
        <time>2022-05-22T11:17:25Z</time>
      </trkpt>
      <trkpt lat="37.9938670" lon="-5.6694020">
        <ele>553.8</ele>
        <time>2022-05-22T11:17:26Z</time>
      </trkpt>
      <trkpt lat="37.9938670" lon="-5.6694020">
        <ele>553.8</ele>
        <time>2022-05-22T11:17:27Z</time>
      </trkpt>
      <trkpt lat="37.9938690" lon="-5.6694010">
        <ele>553.8</ele>
        <time>2022-05-22T11:17:28Z</time>
      </trkpt>
      <trkpt lat="37.9938690" lon="-5.6693990">
        <ele>553.8</ele>
        <time>2022-05-22T11:17:29Z</time>
      </trkpt>
      <trkpt lat="37.9938680" lon="-5.6693980">
        <ele>553.8</ele>
        <time>2022-05-22T11:17:30Z</time>
      </trkpt>
      <trkpt lat="37.9938670" lon="-5.6693980">
        <ele>553.8</ele>
        <time>2022-05-22T11:17:31Z</time>
      </trkpt>
      <trkpt lat="37.9938680" lon="-5.6693970">
        <ele>553.8</ele>
        <time>2022-05-22T11:17:32Z</time>
      </trkpt>
      <trkpt lat="37.9938690" lon="-5.6693960">
        <ele>553.8</ele>
        <time>2022-05-22T11:17:33Z</time>
      </trkpt>
      <trkpt lat="37.9938690" lon="-5.6693960">
        <ele>553.8</ele>
        <time>2022-05-22T11:17:34Z</time>
      </trkpt>
      <trkpt lat="37.9938700" lon="-5.6693960">
        <ele>553.8</ele>
        <time>2022-05-22T11:17:36Z</time>
      </trkpt>
      <trkpt lat="37.9938720" lon="-5.6693980">
        <ele>553.9</ele>
        <time>2022-05-22T11:17:38Z</time>
      </trkpt>
      <trkpt lat="37.9938730" lon="-5.6693980">
        <ele>553.9</ele>
        <time>2022-05-22T11:17:39Z</time>
      </trkpt>
      <trkpt lat="37.9938730" lon="-5.6693990">
        <ele>553.9</ele>
        <time>2022-05-22T11:17:40Z</time>
      </trkpt>
      <trkpt lat="37.9938730" lon="-5.6694000">
        <ele>553.9</ele>
        <time>2022-05-22T11:17:41Z</time>
      </trkpt>
      <trkpt lat="37.9938730" lon="-5.6694000">
        <ele>553.9</ele>
        <time>2022-05-22T11:17:42Z</time>
      </trkpt>
      <trkpt lat="37.9938730" lon="-5.6694020">
        <ele>553.9</ele>
        <time>2022-05-22T11:17:43Z</time>
      </trkpt>
      <trkpt lat="37.9938720" lon="-5.6694030">
        <ele>553.9</ele>
        <time>2022-05-22T11:17:44Z</time>
      </trkpt>
      <trkpt lat="37.9938720" lon="-5.6694030">
        <ele>553.9</ele>
        <time>2022-05-22T11:17:45Z</time>
      </trkpt>
      <trkpt lat="37.9938720" lon="-5.6694020">
        <ele>553.9</ele>
        <time>2022-05-22T11:17:46Z</time>
      </trkpt>
      <trkpt lat="37.9938730" lon="-5.6694030">
        <ele>553.9</ele>
        <time>2022-05-22T11:17:47Z</time>
      </trkpt>
      <trkpt lat="37.9938730" lon="-5.6694030">
        <ele>553.9</ele>
        <time>2022-05-22T11:17:48Z</time>
      </trkpt>
      <trkpt lat="37.9938730" lon="-5.6694030">
        <ele>553.9</ele>
        <time>2022-05-22T11:17:49Z</time>
      </trkpt>
      <trkpt lat="37.9938730" lon="-5.6694050">
        <ele>553.9</ele>
        <time>2022-05-22T11:17:50Z</time>
      </trkpt>
      <trkpt lat="37.9938730" lon="-5.6694070">
        <ele>553.9</ele>
        <time>2022-05-22T11:17:51Z</time>
      </trkpt>
      <trkpt lat="37.9938710" lon="-5.6694070">
        <ele>553.9</ele>
        <time>2022-05-22T11:17:52Z</time>
      </trkpt>
      <trkpt lat="37.9938680" lon="-5.6694040">
        <ele>553.9</ele>
        <time>2022-05-22T11:17:53Z</time>
      </trkpt>
      <trkpt lat="37.9938650" lon="-5.6694010">
        <ele>553.9</ele>
        <time>2022-05-22T11:17:54Z</time>
      </trkpt>
      <trkpt lat="37.9938630" lon="-5.6693970">
        <ele>554.0</ele>
        <time>2022-05-22T11:17:55Z</time>
      </trkpt>
      <trkpt lat="37.9938620" lon="-5.6693920">
        <ele>554.0</ele>
        <time>2022-05-22T11:17:56Z</time>
      </trkpt>
      <trkpt lat="37.9938660" lon="-5.6693850">
        <ele>554.0</ele>
        <time>2022-05-22T11:17:58Z</time>
      </trkpt>
      <trkpt lat="37.9938640" lon="-5.6693780">
        <ele>554.0</ele>
        <time>2022-05-22T11:17:59Z</time>
      </trkpt>
      <trkpt lat="37.9938640" lon="-5.6693740">
        <ele>554.0</ele>
        <time>2022-05-22T11:18:00Z</time>
      </trkpt>
      <trkpt lat="37.9938650" lon="-5.6693680">
        <ele>554.1</ele>
        <time>2022-05-22T11:18:02Z</time>
      </trkpt>
      <trkpt lat="37.9938650" lon="-5.6693640">
        <ele>554.1</ele>
        <time>2022-05-22T11:18:03Z</time>
      </trkpt>
      <trkpt lat="37.9938640" lon="-5.6693590">
        <ele>554.1</ele>
        <time>2022-05-22T11:18:04Z</time>
      </trkpt>
      <trkpt lat="37.9938640" lon="-5.6693580">
        <ele>554.1</ele>
        <time>2022-05-22T11:18:05Z</time>
      </trkpt>
      <trkpt lat="37.9938630" lon="-5.6693560">
        <ele>554.1</ele>
        <time>2022-05-22T11:18:06Z</time>
      </trkpt>
      <trkpt lat="37.9938630" lon="-5.6693540">
        <ele>554.1</ele>
        <time>2022-05-22T11:18:07Z</time>
      </trkpt>
      <trkpt lat="37.9938620" lon="-5.6693530">
        <ele>554.1</ele>
        <time>2022-05-22T11:18:08Z</time>
      </trkpt>
      <trkpt lat="37.9938610" lon="-5.6693510">
        <ele>554.1</ele>
        <time>2022-05-22T11:18:09Z</time>
      </trkpt>
      <trkpt lat="37.9938600" lon="-5.6693510">
        <ele>554.1</ele>
        <time>2022-05-22T11:18:10Z</time>
      </trkpt>
      <trkpt lat="37.9938590" lon="-5.6693510">
        <ele>554.1</ele>
        <time>2022-05-22T11:18:11Z</time>
      </trkpt>
      <trkpt lat="37.9938580" lon="-5.6693510">
        <ele>554.1</ele>
        <time>2022-05-22T11:18:12Z</time>
      </trkpt>
      <trkpt lat="37.9938560" lon="-5.6693520">
        <ele>554.1</ele>
        <time>2022-05-22T11:18:13Z</time>
      </trkpt>
      <trkpt lat="37.9938550" lon="-5.6693510">
        <ele>554.1</ele>
        <time>2022-05-22T11:18:14Z</time>
      </trkpt>
      <trkpt lat="37.9938550" lon="-5.6693500">
        <ele>554.1</ele>
        <time>2022-05-22T11:18:15Z</time>
      </trkpt>
      <trkpt lat="37.9938550" lon="-5.6693490">
        <ele>554.1</ele>
        <time>2022-05-22T11:18:16Z</time>
      </trkpt>
      <trkpt lat="37.9938550" lon="-5.6693490">
        <ele>554.1</ele>
        <time>2022-05-22T11:18:17Z</time>
      </trkpt>
      <trkpt lat="37.9938550" lon="-5.6693490">
        <ele>554.1</ele>
        <time>2022-05-22T11:18:18Z</time>
      </trkpt>
      <trkpt lat="37.9938540" lon="-5.6693490">
        <ele>554.2</ele>
        <time>2022-05-22T11:18:19Z</time>
      </trkpt>
      <trkpt lat="37.9938540" lon="-5.6693480">
        <ele>554.2</ele>
        <time>2022-05-22T11:18:20Z</time>
      </trkpt>
      <trkpt lat="37.9938540" lon="-5.6693470">
        <ele>554.2</ele>
        <time>2022-05-22T11:18:21Z</time>
      </trkpt>
      <trkpt lat="37.9938540" lon="-5.6693470">
        <ele>554.2</ele>
        <time>2022-05-22T11:18:22Z</time>
      </trkpt>
      <trkpt lat="37.9938550" lon="-5.6693460">
        <ele>554.2</ele>
        <time>2022-05-22T11:18:23Z</time>
      </trkpt>
      <trkpt lat="37.9938560" lon="-5.6693460">
        <ele>554.2</ele>
        <time>2022-05-22T11:18:24Z</time>
      </trkpt>
      <trkpt lat="37.9938570" lon="-5.6693460">
        <ele>554.2</ele>
        <time>2022-05-22T11:18:25Z</time>
      </trkpt>
      <trkpt lat="37.9938580" lon="-5.6693460">
        <ele>554.2</ele>
        <time>2022-05-22T11:18:26Z</time>
      </trkpt>
      <trkpt lat="37.9938590" lon="-5.6693470">
        <ele>554.2</ele>
        <time>2022-05-22T11:18:27Z</time>
      </trkpt>
      <trkpt lat="37.9938590" lon="-5.6693470">
        <ele>554.2</ele>
        <time>2022-05-22T11:18:28Z</time>
      </trkpt>
      <trkpt lat="37.9938600" lon="-5.6693470">
        <ele>554.2</ele>
        <time>2022-05-22T11:18:29Z</time>
      </trkpt>
      <trkpt lat="37.9938600" lon="-5.6693470">
        <ele>554.2</ele>
        <time>2022-05-22T11:18:30Z</time>
      </trkpt>
      <trkpt lat="37.9938600" lon="-5.6693470">
        <ele>554.2</ele>
        <time>2022-05-22T11:18:31Z</time>
      </trkpt>
      <trkpt lat="37.9938600" lon="-5.6693460">
        <ele>554.2</ele>
        <time>2022-05-22T11:18:32Z</time>
      </trkpt>
      <trkpt lat="37.9938600" lon="-5.6693460">
        <ele>554.2</ele>
        <time>2022-05-22T11:18:33Z</time>
      </trkpt>
      <trkpt lat="37.9938610" lon="-5.6693460">
        <ele>554.2</ele>
        <time>2022-05-22T11:18:34Z</time>
      </trkpt>
      <trkpt lat="37.9938620" lon="-5.6693470">
        <ele>554.2</ele>
        <time>2022-05-22T11:18:35Z</time>
      </trkpt>
      <trkpt lat="37.9938630" lon="-5.6693470">
        <ele>554.2</ele>
        <time>2022-05-22T11:18:36Z</time>
      </trkpt>
      <trkpt lat="37.9938640" lon="-5.6693480">
        <ele>554.2</ele>
        <time>2022-05-22T11:18:37Z</time>
      </trkpt>
      <trkpt lat="37.9938650" lon="-5.6693490">
        <ele>554.2</ele>
        <time>2022-05-22T11:18:38Z</time>
      </trkpt>
      <trkpt lat="37.9938650" lon="-5.6693500">
        <ele>554.2</ele>
        <time>2022-05-22T11:18:39Z</time>
      </trkpt>
      <trkpt lat="37.9938660" lon="-5.6693510">
        <ele>554.2</ele>
        <time>2022-05-22T11:18:40Z</time>
      </trkpt>
      <trkpt lat="37.9938670" lon="-5.6693510">
        <ele>554.2</ele>
        <time>2022-05-22T11:18:41Z</time>
      </trkpt>
      <trkpt lat="37.9938670" lon="-5.6693510">
        <ele>554.2</ele>
        <time>2022-05-22T11:18:42Z</time>
      </trkpt>
      <trkpt lat="37.9938670" lon="-5.6693520">
        <ele>554.2</ele>
        <time>2022-05-22T11:18:43Z</time>
      </trkpt>
      <trkpt lat="37.9938660" lon="-5.6693520">
        <ele>554.2</ele>
        <time>2022-05-22T11:18:44Z</time>
      </trkpt>
      <trkpt lat="37.9938660" lon="-5.6693520">
        <ele>554.2</ele>
        <time>2022-05-22T11:18:45Z</time>
      </trkpt>
      <trkpt lat="37.9938660" lon="-5.6693530">
        <ele>554.2</ele>
        <time>2022-05-22T11:18:46Z</time>
      </trkpt>
      <trkpt lat="37.9938660" lon="-5.6693520">
        <ele>554.2</ele>
        <time>2022-05-22T11:18:47Z</time>
      </trkpt>
      <trkpt lat="37.9938690" lon="-5.6693500">
        <ele>554.3</ele>
        <time>2022-05-22T11:18:48Z</time>
      </trkpt>
      <trkpt lat="37.9938710" lon="-5.6693490">
        <ele>554.3</ele>
        <time>2022-05-22T11:18:49Z</time>
      </trkpt>
      <trkpt lat="37.9938750" lon="-5.6693450">
        <ele>554.3</ele>
        <time>2022-05-22T11:18:50Z</time>
      </trkpt>
      <trkpt lat="37.9938780" lon="-5.6693440">
        <ele>554.3</ele>
        <time>2022-05-22T11:18:52Z</time>
      </trkpt>
      <trkpt lat="37.9938800" lon="-5.6693420">
        <ele>554.3</ele>
        <time>2022-05-22T11:18:53Z</time>
      </trkpt>
      <trkpt lat="37.9938820" lon="-5.6693390">
        <ele>554.3</ele>
        <time>2022-05-22T11:18:54Z</time>
      </trkpt>
      <trkpt lat="37.9938850" lon="-5.6693280">
        <ele>554.4</ele>
        <time>2022-05-22T11:18:55Z</time>
      </trkpt>
      <trkpt lat="37.9938850" lon="-5.6693230">
        <ele>554.4</ele>
        <time>2022-05-22T11:18:56Z</time>
      </trkpt>
      <trkpt lat="37.9938840" lon="-5.6693190">
        <ele>554.4</ele>
        <time>2022-05-22T11:18:57Z</time>
      </trkpt>
      <trkpt lat="37.9938840" lon="-5.6693140">
        <ele>554.4</ele>
        <time>2022-05-22T11:18:58Z</time>
      </trkpt>
      <trkpt lat="37.9938830" lon="-5.6693090">
        <ele>554.4</ele>
        <time>2022-05-22T11:18:59Z</time>
      </trkpt>
      <trkpt lat="37.9938830" lon="-5.6693050">
        <ele>554.4</ele>
        <time>2022-05-22T11:19:00Z</time>
      </trkpt>
      <trkpt lat="37.9938820" lon="-5.6693000">
        <ele>554.4</ele>
        <time>2022-05-22T11:19:01Z</time>
      </trkpt>
      <trkpt lat="37.9938820" lon="-5.6692950">
        <ele>554.5</ele>
        <time>2022-05-22T11:19:03Z</time>
      </trkpt>
      <trkpt lat="37.9938810" lon="-5.6692910">
        <ele>554.5</ele>
        <time>2022-05-22T11:19:04Z</time>
      </trkpt>
      <trkpt lat="37.9938820" lon="-5.6692840">
        <ele>554.5</ele>
        <time>2022-05-22T11:19:05Z</time>
      </trkpt>
      <trkpt lat="37.9938830" lon="-5.6692700">
        <ele>554.5</ele>
        <time>2022-05-22T11:19:06Z</time>
      </trkpt>
      <trkpt lat="37.9938860" lon="-5.6692440">
        <ele>554.6</ele>
        <time>2022-05-22T11:19:08Z</time>
      </trkpt>
      <trkpt lat="37.9938900" lon="-5.6692320">
        <ele>554.7</ele>
        <time>2022-05-22T11:19:09Z</time>
      </trkpt>
      <trkpt lat="37.9938920" lon="-5.6692290">
        <ele>554.7</ele>
        <time>2022-05-22T11:19:10Z</time>
      </trkpt>
      <trkpt lat="37.9938930" lon="-5.6692260">
        <ele>554.7</ele>
        <time>2022-05-22T11:19:12Z</time>
      </trkpt>
      <trkpt lat="37.9938940" lon="-5.6692230">
        <ele>554.7</ele>
        <time>2022-05-22T11:19:13Z</time>
      </trkpt>
      <trkpt lat="37.9938950" lon="-5.6692210">
        <ele>554.7</ele>
        <time>2022-05-22T11:19:14Z</time>
      </trkpt>
      <trkpt lat="37.9938950" lon="-5.6692180">
        <ele>554.7</ele>
        <time>2022-05-22T11:19:16Z</time>
      </trkpt>
      <trkpt lat="37.9938950" lon="-5.6692170">
        <ele>554.7</ele>
        <time>2022-05-22T11:19:18Z</time>
      </trkpt>
      <trkpt lat="37.9938960" lon="-5.6692160">
        <ele>554.7</ele>
        <time>2022-05-22T11:19:19Z</time>
      </trkpt>
      <trkpt lat="37.9938960" lon="-5.6692160">
        <ele>554.7</ele>
        <time>2022-05-22T11:19:20Z</time>
      </trkpt>
      <trkpt lat="37.9938970" lon="-5.6692160">
        <ele>554.7</ele>
        <time>2022-05-22T11:19:21Z</time>
      </trkpt>
      <trkpt lat="37.9938960" lon="-5.6692160">
        <ele>554.7</ele>
        <time>2022-05-22T11:19:22Z</time>
      </trkpt>
      <trkpt lat="37.9938960" lon="-5.6692150">
        <ele>554.7</ele>
        <time>2022-05-22T11:19:23Z</time>
      </trkpt>
      <trkpt lat="37.9938960" lon="-5.6692150">
        <ele>554.7</ele>
        <time>2022-05-22T11:19:25Z</time>
      </trkpt>
      <trkpt lat="37.9938960" lon="-5.6692140">
        <ele>554.7</ele>
        <time>2022-05-22T11:19:26Z</time>
      </trkpt>
      <trkpt lat="37.9938960" lon="-5.6692140">
        <ele>554.7</ele>
        <time>2022-05-22T11:19:27Z</time>
      </trkpt>
      <trkpt lat="37.9938950" lon="-5.6692130">
        <ele>554.7</ele>
        <time>2022-05-22T11:19:28Z</time>
      </trkpt>
      <trkpt lat="37.9938960" lon="-5.6692150">
        <ele>554.7</ele>
        <time>2022-05-22T11:19:30Z</time>
      </trkpt>
      <trkpt lat="37.9938960" lon="-5.6692150">
        <ele>554.7</ele>
        <time>2022-05-22T11:19:31Z</time>
      </trkpt>
      <trkpt lat="37.9938960" lon="-5.6692140">
        <ele>554.7</ele>
        <time>2022-05-22T11:19:32Z</time>
      </trkpt>
      <trkpt lat="37.9938950" lon="-5.6692140">
        <ele>554.7</ele>
        <time>2022-05-22T11:19:33Z</time>
      </trkpt>
      <trkpt lat="37.9938950" lon="-5.6692140">
        <ele>554.7</ele>
        <time>2022-05-22T11:19:34Z</time>
      </trkpt>
      <trkpt lat="37.9938950" lon="-5.6692150">
        <ele>554.7</ele>
        <time>2022-05-22T11:19:35Z</time>
      </trkpt>
      <trkpt lat="37.9938960" lon="-5.6692150">
        <ele>554.7</ele>
        <time>2022-05-22T11:19:36Z</time>
      </trkpt>
      <trkpt lat="37.9938970" lon="-5.6692140">
        <ele>554.7</ele>
        <time>2022-05-22T11:19:37Z</time>
      </trkpt>
      <trkpt lat="37.9938970" lon="-5.6692140">
        <ele>554.7</ele>
        <time>2022-05-22T11:19:38Z</time>
      </trkpt>
      <trkpt lat="37.9938970" lon="-5.6692140">
        <ele>554.7</ele>
        <time>2022-05-22T11:19:39Z</time>
      </trkpt>
      <trkpt lat="37.9938970" lon="-5.6692140">
        <ele>554.7</ele>
        <time>2022-05-22T11:19:40Z</time>
      </trkpt>
      <trkpt lat="37.9938980" lon="-5.6692150">
        <ele>554.7</ele>
        <time>2022-05-22T11:19:41Z</time>
      </trkpt>
      <trkpt lat="37.9938980" lon="-5.6692160">
        <ele>554.7</ele>
        <time>2022-05-22T11:19:42Z</time>
      </trkpt>
      <trkpt lat="37.9939000" lon="-5.6692120">
        <ele>554.8</ele>
        <time>2022-05-22T11:19:43Z</time>
      </trkpt>
      <trkpt lat="37.9939000" lon="-5.6692080">
        <ele>554.8</ele>
        <time>2022-05-22T11:19:44Z</time>
      </trkpt>
      <trkpt lat="37.9939000" lon="-5.6692060">
        <ele>554.8</ele>
        <time>2022-05-22T11:19:45Z</time>
      </trkpt>
      <trkpt lat="37.9938990" lon="-5.6692090">
        <ele>554.8</ele>
        <time>2022-05-22T11:19:46Z</time>
      </trkpt>
      <trkpt lat="37.9938990" lon="-5.6692140">
        <ele>554.8</ele>
        <time>2022-05-22T11:19:47Z</time>
      </trkpt>
      <trkpt lat="37.9939010" lon="-5.6692180">
        <ele>554.8</ele>
        <time>2022-05-22T11:19:49Z</time>
      </trkpt>
      <trkpt lat="37.9939030" lon="-5.6692190">
        <ele>554.8</ele>
        <time>2022-05-22T11:19:50Z</time>
      </trkpt>
      <trkpt lat="37.9939060" lon="-5.6692180">
        <ele>554.8</ele>
        <time>2022-05-22T11:19:51Z</time>
      </trkpt>
      <trkpt lat="37.9939090" lon="-5.6692160">
        <ele>554.8</ele>
        <time>2022-05-22T11:19:52Z</time>
      </trkpt>
      <trkpt lat="37.9939110" lon="-5.6692170">
        <ele>554.8</ele>
        <time>2022-05-22T11:19:53Z</time>
      </trkpt>
      <trkpt lat="37.9939140" lon="-5.6692210">
        <ele>554.9</ele>
        <time>2022-05-22T11:19:54Z</time>
      </trkpt>
      <trkpt lat="37.9939160" lon="-5.6692310">
        <ele>554.9</ele>
        <time>2022-05-22T11:19:55Z</time>
      </trkpt>
      <trkpt lat="37.9939170" lon="-5.6692380">
        <ele>554.9</ele>
        <time>2022-05-22T11:19:56Z</time>
      </trkpt>
      <trkpt lat="37.9939170" lon="-5.6692460">
        <ele>554.9</ele>
        <time>2022-05-22T11:19:58Z</time>
      </trkpt>
      <trkpt lat="37.9939200" lon="-5.6692350">
        <ele>554.9</ele>
        <time>2022-05-22T11:19:59Z</time>
      </trkpt>
      <trkpt lat="37.9939210" lon="-5.6692350">
        <ele>554.9</ele>
        <time>2022-05-22T11:20:00Z</time>
      </trkpt>
      <trkpt lat="37.9939230" lon="-5.6692310">
        <ele>554.9</ele>
        <time>2022-05-22T11:20:01Z</time>
      </trkpt>
      <trkpt lat="37.9939270" lon="-5.6692230">
        <ele>555.0</ele>
        <time>2022-05-22T11:20:02Z</time>
      </trkpt>
      <trkpt lat="37.9939290" lon="-5.6692180">
        <ele>555.0</ele>
        <time>2022-05-22T11:20:03Z</time>
      </trkpt>
      <trkpt lat="37.9939290" lon="-5.6692160">
        <ele>555.0</ele>
        <time>2022-05-22T11:20:04Z</time>
      </trkpt>
      <trkpt lat="37.9939300" lon="-5.6692130">
        <ele>555.0</ele>
        <time>2022-05-22T11:20:05Z</time>
      </trkpt>
      <trkpt lat="37.9939300" lon="-5.6692110">
        <ele>555.0</ele>
        <time>2022-05-22T11:20:06Z</time>
      </trkpt>
      <trkpt lat="37.9939310" lon="-5.6692090">
        <ele>555.0</ele>
        <time>2022-05-22T11:20:07Z</time>
      </trkpt>
      <trkpt lat="37.9939310" lon="-5.6692070">
        <ele>555.0</ele>
        <time>2022-05-22T11:20:08Z</time>
      </trkpt>
      <trkpt lat="37.9939310" lon="-5.6692070">
        <ele>555.0</ele>
        <time>2022-05-22T11:20:09Z</time>
      </trkpt>
      <trkpt lat="37.9939320" lon="-5.6692060">
        <ele>555.0</ele>
        <time>2022-05-22T11:20:10Z</time>
      </trkpt>
      <trkpt lat="37.9939350" lon="-5.6692050">
        <ele>555.0</ele>
        <time>2022-05-22T11:20:11Z</time>
      </trkpt>
      <trkpt lat="37.9939370" lon="-5.6692040">
        <ele>555.0</ele>
        <time>2022-05-22T11:20:12Z</time>
      </trkpt>
      <trkpt lat="37.9939380" lon="-5.6692030">
        <ele>555.0</ele>
        <time>2022-05-22T11:20:13Z</time>
      </trkpt>
      <trkpt lat="37.9939390" lon="-5.6692010">
        <ele>555.0</ele>
        <time>2022-05-22T11:20:14Z</time>
      </trkpt>
      <trkpt lat="37.9939390" lon="-5.6691990">
        <ele>555.0</ele>
        <time>2022-05-22T11:20:15Z</time>
      </trkpt>
      <trkpt lat="37.9939390" lon="-5.6691960">
        <ele>555.0</ele>
        <time>2022-05-22T11:20:16Z</time>
      </trkpt>
      <trkpt lat="37.9939380" lon="-5.6691950">
        <ele>555.0</ele>
        <time>2022-05-22T11:20:17Z</time>
      </trkpt>
      <trkpt lat="37.9939380" lon="-5.6691940">
        <ele>555.0</ele>
        <time>2022-05-22T11:20:18Z</time>
      </trkpt>
      <trkpt lat="37.9939370" lon="-5.6691940">
        <ele>555.0</ele>
        <time>2022-05-22T11:20:19Z</time>
      </trkpt>
      <trkpt lat="37.9939370" lon="-5.6691940">
        <ele>555.0</ele>
        <time>2022-05-22T11:20:20Z</time>
      </trkpt>
      <trkpt lat="37.9939360" lon="-5.6691940">
        <ele>555.0</ele>
        <time>2022-05-22T11:20:21Z</time>
      </trkpt>
      <trkpt lat="37.9939360" lon="-5.6691950">
        <ele>555.0</ele>
        <time>2022-05-22T11:20:23Z</time>
      </trkpt>
      <trkpt lat="37.9939360" lon="-5.6691950">
        <ele>555.0</ele>
        <time>2022-05-22T11:20:24Z</time>
      </trkpt>
      <trkpt lat="37.9939380" lon="-5.6691960">
        <ele>555.0</ele>
        <time>2022-05-22T11:20:25Z</time>
      </trkpt>
      <trkpt lat="37.9939390" lon="-5.6691960">
        <ele>555.0</ele>
        <time>2022-05-22T11:20:26Z</time>
      </trkpt>
      <trkpt lat="37.9939400" lon="-5.6691960">
        <ele>555.0</ele>
        <time>2022-05-22T11:20:27Z</time>
      </trkpt>
      <trkpt lat="37.9939400" lon="-5.6691960">
        <ele>555.0</ele>
        <time>2022-05-22T11:20:28Z</time>
      </trkpt>
      <trkpt lat="37.9939410" lon="-5.6691960">
        <ele>555.0</ele>
        <time>2022-05-22T11:20:29Z</time>
      </trkpt>
      <trkpt lat="37.9939410" lon="-5.6691960">
        <ele>555.0</ele>
        <time>2022-05-22T11:20:30Z</time>
      </trkpt>
      <trkpt lat="37.9939410" lon="-5.6691960">
        <ele>555.0</ele>
        <time>2022-05-22T11:20:31Z</time>
      </trkpt>
      <trkpt lat="37.9939410" lon="-5.6691960">
        <ele>555.0</ele>
        <time>2022-05-22T11:20:32Z</time>
      </trkpt>
      <trkpt lat="37.9939410" lon="-5.6691960">
        <ele>555.0</ele>
        <time>2022-05-22T11:20:33Z</time>
      </trkpt>
      <trkpt lat="37.9939410" lon="-5.6691960">
        <ele>555.0</ele>
        <time>2022-05-22T11:20:34Z</time>
      </trkpt>
      <trkpt lat="37.9939410" lon="-5.6691960">
        <ele>555.0</ele>
        <time>2022-05-22T11:20:35Z</time>
      </trkpt>
      <trkpt lat="37.9939410" lon="-5.6691960">
        <ele>555.0</ele>
        <time>2022-05-22T11:20:36Z</time>
      </trkpt>
      <trkpt lat="37.9939410" lon="-5.6691960">
        <ele>555.0</ele>
        <time>2022-05-22T11:20:37Z</time>
      </trkpt>
      <trkpt lat="37.9939400" lon="-5.6691950">
        <ele>555.0</ele>
        <time>2022-05-22T11:20:38Z</time>
      </trkpt>
      <trkpt lat="37.9939360" lon="-5.6691920">
        <ele>555.1</ele>
        <time>2022-05-22T11:20:39Z</time>
      </trkpt>
      <trkpt lat="37.9939300" lon="-5.6691740">
        <ele>555.1</ele>
        <time>2022-05-22T11:20:40Z</time>
      </trkpt>
      <trkpt lat="37.9939290" lon="-5.6691710">
        <ele>555.1</ele>
        <time>2022-05-22T11:20:41Z</time>
      </trkpt>
      <trkpt lat="37.9939280" lon="-5.6691710">
        <ele>555.1</ele>
        <time>2022-05-22T11:20:42Z</time>
      </trkpt>
      <trkpt lat="37.9939210" lon="-5.6691730">
        <ele>555.1</ele>
        <time>2022-05-22T11:20:43Z</time>
      </trkpt>
      <trkpt lat="37.9939190" lon="-5.6691720">
        <ele>555.1</ele>
        <time>2022-05-22T11:20:44Z</time>
      </trkpt>
      <trkpt lat="37.9939230" lon="-5.6691640">
        <ele>555.1</ele>
        <time>2022-05-22T11:20:45Z</time>
      </trkpt>
      <trkpt lat="37.9939240" lon="-5.6691620">
        <ele>555.1</ele>
        <time>2022-05-22T11:20:46Z</time>
      </trkpt>
      <trkpt lat="37.9939240" lon="-5.6691620">
        <ele>555.1</ele>
        <time>2022-05-22T11:20:47Z</time>
      </trkpt>
      <trkpt lat="37.9939240" lon="-5.6691620">
        <ele>555.1</ele>
        <time>2022-05-22T11:20:48Z</time>
      </trkpt>
      <trkpt lat="37.9939240" lon="-5.6691620">
        <ele>555.1</ele>
        <time>2022-05-22T11:20:49Z</time>
      </trkpt>
      <trkpt lat="37.9939240" lon="-5.6691620">
        <ele>555.1</ele>
        <time>2022-05-22T11:20:50Z</time>
      </trkpt>
      <trkpt lat="37.9939240" lon="-5.6691620">
        <ele>555.1</ele>
        <time>2022-05-22T11:20:51Z</time>
      </trkpt>
      <trkpt lat="37.9939240" lon="-5.6691620">
        <ele>555.1</ele>
        <time>2022-05-22T11:20:52Z</time>
      </trkpt>
      <trkpt lat="37.9939240" lon="-5.6691620">
        <ele>555.1</ele>
        <time>2022-05-22T11:20:53Z</time>
      </trkpt>
      <trkpt lat="37.9939240" lon="-5.6691620">
        <ele>555.1</ele>
        <time>2022-05-22T11:20:54Z</time>
      </trkpt>
      <trkpt lat="37.9939240" lon="-5.6691620">
        <ele>555.1</ele>
        <time>2022-05-22T11:20:55Z</time>
      </trkpt>
      <trkpt lat="37.9939240" lon="-5.6691620">
        <ele>555.1</ele>
        <time>2022-05-22T11:20:56Z</time>
      </trkpt>
      <trkpt lat="37.9939240" lon="-5.6691620">
        <ele>555.1</ele>
        <time>2022-05-22T11:20:57Z</time>
      </trkpt>
      <trkpt lat="37.9939240" lon="-5.6691620">
        <ele>555.1</ele>
        <time>2022-05-22T11:20:58Z</time>
      </trkpt>
      <trkpt lat="37.9939240" lon="-5.6691620">
        <ele>555.1</ele>
        <time>2022-05-22T11:20:59Z</time>
      </trkpt>
      <trkpt lat="37.9939240" lon="-5.6691620">
        <ele>555.1</ele>
        <time>2022-05-22T11:21:00Z</time>
      </trkpt>
      <trkpt lat="37.9939240" lon="-5.6691620">
        <ele>555.1</ele>
        <time>2022-05-22T11:21:01Z</time>
      </trkpt>
      <trkpt lat="37.9939240" lon="-5.6691620">
        <ele>555.1</ele>
        <time>2022-05-22T11:21:02Z</time>
      </trkpt>
      <trkpt lat="37.9939240" lon="-5.6691620">
        <ele>555.1</ele>
        <time>2022-05-22T11:21:03Z</time>
      </trkpt>
      <trkpt lat="37.9939240" lon="-5.6691620">
        <ele>555.1</ele>
        <time>2022-05-22T11:21:04Z</time>
      </trkpt>
      <trkpt lat="37.9939240" lon="-5.6691620">
        <ele>555.1</ele>
        <time>2022-05-22T11:21:05Z</time>
      </trkpt>
      <trkpt lat="37.9939240" lon="-5.6691620">
        <ele>555.1</ele>
        <time>2022-05-22T11:21:06Z</time>
      </trkpt>
      <trkpt lat="37.9939240" lon="-5.6691620">
        <ele>555.1</ele>
        <time>2022-05-22T11:21:07Z</time>
      </trkpt>
      <trkpt lat="37.9939240" lon="-5.6691620">
        <ele>555.1</ele>
        <time>2022-05-22T11:21:08Z</time>
      </trkpt>
      <trkpt lat="37.9939240" lon="-5.6691620">
        <ele>555.1</ele>
        <time>2022-05-22T11:21:09Z</time>
      </trkpt>
      <trkpt lat="37.9939250" lon="-5.6691590">
        <ele>555.1</ele>
        <time>2022-05-22T11:21:10Z</time>
      </trkpt>
      <trkpt lat="37.9939260" lon="-5.6691590">
        <ele>555.1</ele>
        <time>2022-05-22T11:21:11Z</time>
      </trkpt>
      <trkpt lat="37.9939270" lon="-5.6691590">
        <ele>555.1</ele>
        <time>2022-05-22T11:21:12Z</time>
      </trkpt>
      <trkpt lat="37.9939250" lon="-5.6691610">
        <ele>555.1</ele>
        <time>2022-05-22T11:21:13Z</time>
      </trkpt>
      <trkpt lat="37.9939240" lon="-5.6691620">
        <ele>555.1</ele>
        <time>2022-05-22T11:21:14Z</time>
      </trkpt>
      <trkpt lat="37.9939240" lon="-5.6691620">
        <ele>555.1</ele>
        <time>2022-05-22T11:21:15Z</time>
      </trkpt>
      <trkpt lat="37.9939240" lon="-5.6691620">
        <ele>555.1</ele>
        <time>2022-05-22T11:21:16Z</time>
      </trkpt>
      <trkpt lat="37.9939240" lon="-5.6691620">
        <ele>555.1</ele>
        <time>2022-05-22T11:21:17Z</time>
      </trkpt>
      <trkpt lat="37.9939240" lon="-5.6691620">
        <ele>555.1</ele>
        <time>2022-05-22T11:21:18Z</time>
      </trkpt>
      <trkpt lat="37.9939280" lon="-5.6691610">
        <ele>555.1</ele>
        <time>2022-05-22T11:21:19Z</time>
      </trkpt>
      <trkpt lat="37.9939280" lon="-5.6691610">
        <ele>555.1</ele>
        <time>2022-05-22T11:21:20Z</time>
      </trkpt>
      <trkpt lat="37.9939280" lon="-5.6691620">
        <ele>555.1</ele>
        <time>2022-05-22T11:21:21Z</time>
      </trkpt>
      <trkpt lat="37.9939250" lon="-5.6691620">
        <ele>555.1</ele>
        <time>2022-05-22T11:21:22Z</time>
      </trkpt>
      <trkpt lat="37.9939240" lon="-5.6691620">
        <ele>555.1</ele>
        <time>2022-05-22T11:21:23Z</time>
      </trkpt>
      <trkpt lat="37.9939240" lon="-5.6691620">
        <ele>555.1</ele>
        <time>2022-05-22T11:21:24Z</time>
      </trkpt>
      <trkpt lat="37.9939240" lon="-5.6691620">
        <ele>555.1</ele>
        <time>2022-05-22T11:21:25Z</time>
      </trkpt>
      <trkpt lat="37.9939290" lon="-5.6691670">
        <ele>555.1</ele>
        <time>2022-05-22T11:21:26Z</time>
      </trkpt>
      <trkpt lat="37.9939300" lon="-5.6691670">
        <ele>555.1</ele>
        <time>2022-05-22T11:21:28Z</time>
      </trkpt>
      <trkpt lat="37.9939300" lon="-5.6691670">
        <ele>555.1</ele>
        <time>2022-05-22T11:21:29Z</time>
      </trkpt>
      <trkpt lat="37.9939310" lon="-5.6691660">
        <ele>555.1</ele>
        <time>2022-05-22T11:21:30Z</time>
      </trkpt>
      <trkpt lat="37.9939310" lon="-5.6691630">
        <ele>555.2</ele>
        <time>2022-05-22T11:21:31Z</time>
      </trkpt>
      <trkpt lat="37.9939290" lon="-5.6691610">
        <ele>555.2</ele>
        <time>2022-05-22T11:21:32Z</time>
      </trkpt>
      <trkpt lat="37.9939290" lon="-5.6691600">
        <ele>555.2</ele>
        <time>2022-05-22T11:21:33Z</time>
      </trkpt>
      <trkpt lat="37.9939300" lon="-5.6691590">
        <ele>555.2</ele>
        <time>2022-05-22T11:21:34Z</time>
      </trkpt>
      <trkpt lat="37.9939280" lon="-5.6691580">
        <ele>555.2</ele>
        <time>2022-05-22T11:21:35Z</time>
      </trkpt>
      <trkpt lat="37.9939260" lon="-5.6691580">
        <ele>555.2</ele>
        <time>2022-05-22T11:21:36Z</time>
      </trkpt>
      <trkpt lat="37.9939250" lon="-5.6691580">
        <ele>555.2</ele>
        <time>2022-05-22T11:21:37Z</time>
      </trkpt>
      <trkpt lat="37.9939240" lon="-5.6691580">
        <ele>555.2</ele>
        <time>2022-05-22T11:21:38Z</time>
      </trkpt>
      <trkpt lat="37.9939250" lon="-5.6691570">
        <ele>555.2</ele>
        <time>2022-05-22T11:21:39Z</time>
      </trkpt>
      <trkpt lat="37.9939270" lon="-5.6691520">
        <ele>555.2</ele>
        <time>2022-05-22T11:21:40Z</time>
      </trkpt>
      <trkpt lat="37.9939310" lon="-5.6691510">
        <ele>555.2</ele>
        <time>2022-05-22T11:21:42Z</time>
      </trkpt>
      <trkpt lat="37.9939340" lon="-5.6691500">
        <ele>555.2</ele>
        <time>2022-05-22T11:21:43Z</time>
      </trkpt>
      <trkpt lat="37.9939380" lon="-5.6691470">
        <ele>555.2</ele>
        <time>2022-05-22T11:21:44Z</time>
      </trkpt>
      <trkpt lat="37.9939450" lon="-5.6691400">
        <ele>555.2</ele>
        <time>2022-05-22T11:21:45Z</time>
      </trkpt>
      <trkpt lat="37.9939510" lon="-5.6691320">
        <ele>555.2</ele>
        <time>2022-05-22T11:21:47Z</time>
      </trkpt>
      <trkpt lat="37.9939590" lon="-5.6691180">
        <ele>555.2</ele>
        <time>2022-05-22T11:21:48Z</time>
      </trkpt>
      <trkpt lat="37.9939630" lon="-5.6691090">
        <ele>555.2</ele>
        <time>2022-05-22T11:21:50Z</time>
      </trkpt>
      <trkpt lat="37.9939700" lon="-5.6690960">
        <ele>555.2</ele>
        <time>2022-05-22T11:21:51Z</time>
      </trkpt>
      <trkpt lat="37.9939740" lon="-5.6690880">
        <ele>555.2</ele>
        <time>2022-05-22T11:21:52Z</time>
      </trkpt>
      <trkpt lat="37.9939820" lon="-5.6690760">
        <ele>555.2</ele>
        <time>2022-05-22T11:21:54Z</time>
      </trkpt>
      <trkpt lat="37.9939870" lon="-5.6690740">
        <ele>555.2</ele>
        <time>2022-05-22T11:21:55Z</time>
      </trkpt>
      <trkpt lat="37.9939980" lon="-5.6690700">
        <ele>555.2</ele>
        <time>2022-05-22T11:21:56Z</time>
      </trkpt>
      <trkpt lat="37.9940050" lon="-5.6690660">
        <ele>555.2</ele>
        <time>2022-05-22T11:21:57Z</time>
      </trkpt>
      <trkpt lat="37.9940120" lon="-5.6690570">
        <ele>555.2</ele>
        <time>2022-05-22T11:21:58Z</time>
      </trkpt>
      <trkpt lat="37.9940150" lon="-5.6690480">
        <ele>555.2</ele>
        <time>2022-05-22T11:21:59Z</time>
      </trkpt>
      <trkpt lat="37.9940190" lon="-5.6690290">
        <ele>555.2</ele>
        <time>2022-05-22T11:22:01Z</time>
      </trkpt>
      <trkpt lat="37.9940190" lon="-5.6690190">
        <ele>555.2</ele>
        <time>2022-05-22T11:22:02Z</time>
      </trkpt>
      <trkpt lat="37.9940190" lon="-5.6690110">
        <ele>555.2</ele>
        <time>2022-05-22T11:22:03Z</time>
      </trkpt>
      <trkpt lat="37.9940210" lon="-5.6690030">
        <ele>555.2</ele>
        <time>2022-05-22T11:22:04Z</time>
      </trkpt>
      <trkpt lat="37.9940260" lon="-5.6689830">
        <ele>555.2</ele>
        <time>2022-05-22T11:22:06Z</time>
      </trkpt>
      <trkpt lat="37.9940300" lon="-5.6689700">
        <ele>555.2</ele>
        <time>2022-05-22T11:22:07Z</time>
      </trkpt>
      <trkpt lat="37.9940310" lon="-5.6689580">
        <ele>555.2</ele>
        <time>2022-05-22T11:22:08Z</time>
      </trkpt>
      <trkpt lat="37.9940280" lon="-5.6689520">
        <ele>555.2</ele>
        <time>2022-05-22T11:22:09Z</time>
      </trkpt>
      <trkpt lat="37.9940250" lon="-5.6689470">
        <ele>555.2</ele>
        <time>2022-05-22T11:22:10Z</time>
      </trkpt>
      <trkpt lat="37.9940350" lon="-5.6689090">
        <ele>555.2</ele>
        <time>2022-05-22T11:22:12Z</time>
      </trkpt>
      <trkpt lat="37.9940380" lon="-5.6689010">
        <ele>555.2</ele>
        <time>2022-05-22T11:22:13Z</time>
      </trkpt>
      <trkpt lat="37.9940410" lon="-5.6688900">
        <ele>555.2</ele>
        <time>2022-05-22T11:22:14Z</time>
      </trkpt>
      <trkpt lat="37.9940420" lon="-5.6688750">
        <ele>555.2</ele>
        <time>2022-05-22T11:22:15Z</time>
      </trkpt>
      <trkpt lat="37.9940420" lon="-5.6688670">
        <ele>555.2</ele>
        <time>2022-05-22T11:22:16Z</time>
      </trkpt>
      <trkpt lat="37.9940430" lon="-5.6688590">
        <ele>555.2</ele>
        <time>2022-05-22T11:22:17Z</time>
      </trkpt>
      <trkpt lat="37.9940430" lon="-5.6688540">
        <ele>555.3</ele>
        <time>2022-05-22T11:22:18Z</time>
      </trkpt>
      <trkpt lat="37.9940440" lon="-5.6688510">
        <ele>555.3</ele>
        <time>2022-05-22T11:22:19Z</time>
      </trkpt>
      <trkpt lat="37.9940440" lon="-5.6688490">
        <ele>555.2</ele>
        <time>2022-05-22T11:22:20Z</time>
      </trkpt>
      <trkpt lat="37.9940470" lon="-5.6688460">
        <ele>555.2</ele>
        <time>2022-05-22T11:22:22Z</time>
      </trkpt>
      <trkpt lat="37.9940490" lon="-5.6688470">
        <ele>555.2</ele>
        <time>2022-05-22T11:22:23Z</time>
      </trkpt>
      <trkpt lat="37.9940510" lon="-5.6688480">
        <ele>555.2</ele>
        <time>2022-05-22T11:22:25Z</time>
      </trkpt>
      <trkpt lat="37.9940520" lon="-5.6688470">
        <ele>555.2</ele>
        <time>2022-05-22T11:22:26Z</time>
      </trkpt>
      <trkpt lat="37.9940520" lon="-5.6688460">
        <ele>555.2</ele>
        <time>2022-05-22T11:22:27Z</time>
      </trkpt>
      <trkpt lat="37.9940530" lon="-5.6688460">
        <ele>555.2</ele>
        <time>2022-05-22T11:22:28Z</time>
      </trkpt>
      <trkpt lat="37.9940530" lon="-5.6688450">
        <ele>555.2</ele>
        <time>2022-05-22T11:22:29Z</time>
      </trkpt>
      <trkpt lat="37.9940510" lon="-5.6688440">
        <ele>555.3</ele>
        <time>2022-05-22T11:22:30Z</time>
      </trkpt>
      <trkpt lat="37.9940480" lon="-5.6688450">
        <ele>555.3</ele>
        <time>2022-05-22T11:22:31Z</time>
      </trkpt>
      <trkpt lat="37.9940470" lon="-5.6688460">
        <ele>555.3</ele>
        <time>2022-05-22T11:22:32Z</time>
      </trkpt>
      <trkpt lat="37.9940480" lon="-5.6688460">
        <ele>555.3</ele>
        <time>2022-05-22T11:22:33Z</time>
      </trkpt>
      <trkpt lat="37.9940500" lon="-5.6688460">
        <ele>555.3</ele>
        <time>2022-05-22T11:22:34Z</time>
      </trkpt>
      <trkpt lat="37.9940510" lon="-5.6688460">
        <ele>555.3</ele>
        <time>2022-05-22T11:22:35Z</time>
      </trkpt>
      <trkpt lat="37.9940510" lon="-5.6688450">
        <ele>555.3</ele>
        <time>2022-05-22T11:22:36Z</time>
      </trkpt>
      <trkpt lat="37.9940520" lon="-5.6688440">
        <ele>555.3</ele>
        <time>2022-05-22T11:22:37Z</time>
      </trkpt>
      <trkpt lat="37.9940520" lon="-5.6688440">
        <ele>555.3</ele>
        <time>2022-05-22T11:22:38Z</time>
      </trkpt>
      <trkpt lat="37.9940530" lon="-5.6688440">
        <ele>555.3</ele>
        <time>2022-05-22T11:22:39Z</time>
      </trkpt>
      <trkpt lat="37.9940530" lon="-5.6688430">
        <ele>555.3</ele>
        <time>2022-05-22T11:22:40Z</time>
      </trkpt>
      <trkpt lat="37.9940530" lon="-5.6688440">
        <ele>555.3</ele>
        <time>2022-05-22T11:22:41Z</time>
      </trkpt>
      <trkpt lat="37.9940540" lon="-5.6688430">
        <ele>555.3</ele>
        <time>2022-05-22T11:22:42Z</time>
      </trkpt>
      <trkpt lat="37.9940540" lon="-5.6688430">
        <ele>555.3</ele>
        <time>2022-05-22T11:22:43Z</time>
      </trkpt>
      <trkpt lat="37.9940550" lon="-5.6688370">
        <ele>555.3</ele>
        <time>2022-05-22T11:22:44Z</time>
      </trkpt>
      <trkpt lat="37.9940550" lon="-5.6688340">
        <ele>555.3</ele>
        <time>2022-05-22T11:22:45Z</time>
      </trkpt>
      <trkpt lat="37.9940560" lon="-5.6688320">
        <ele>555.3</ele>
        <time>2022-05-22T11:22:46Z</time>
      </trkpt>
      <trkpt lat="37.9940560" lon="-5.6688320">
        <ele>555.3</ele>
        <time>2022-05-22T11:22:47Z</time>
      </trkpt>
      <trkpt lat="37.9940560" lon="-5.6688310">
        <ele>555.3</ele>
        <time>2022-05-22T11:22:48Z</time>
      </trkpt>
      <trkpt lat="37.9940560" lon="-5.6688310">
        <ele>555.3</ele>
        <time>2022-05-22T11:22:49Z</time>
      </trkpt>
      <trkpt lat="37.9940560" lon="-5.6688310">
        <ele>555.3</ele>
        <time>2022-05-22T11:22:50Z</time>
      </trkpt>
      <trkpt lat="37.9940560" lon="-5.6688310">
        <ele>555.3</ele>
        <time>2022-05-22T11:22:51Z</time>
      </trkpt>
      <trkpt lat="37.9940560" lon="-5.6688310">
        <ele>555.3</ele>
        <time>2022-05-22T11:22:52Z</time>
      </trkpt>
      <trkpt lat="37.9940560" lon="-5.6688310">
        <ele>555.3</ele>
        <time>2022-05-22T11:22:53Z</time>
      </trkpt>
      <trkpt lat="37.9940560" lon="-5.6688310">
        <ele>555.3</ele>
        <time>2022-05-22T11:22:54Z</time>
      </trkpt>
      <trkpt lat="37.9940560" lon="-5.6688310">
        <ele>555.3</ele>
        <time>2022-05-22T11:22:55Z</time>
      </trkpt>
      <trkpt lat="37.9940560" lon="-5.6688310">
        <ele>555.3</ele>
        <time>2022-05-22T11:22:56Z</time>
      </trkpt>
      <trkpt lat="37.9940560" lon="-5.6688310">
        <ele>555.3</ele>
        <time>2022-05-22T11:22:57Z</time>
      </trkpt>
      <trkpt lat="37.9940560" lon="-5.6688310">
        <ele>555.3</ele>
        <time>2022-05-22T11:22:58Z</time>
      </trkpt>
      <trkpt lat="37.9940560" lon="-5.6688310">
        <ele>555.3</ele>
        <time>2022-05-22T11:22:59Z</time>
      </trkpt>
      <trkpt lat="37.9940560" lon="-5.6688310">
        <ele>555.3</ele>
        <time>2022-05-22T11:23:00Z</time>
      </trkpt>
      <trkpt lat="37.9940560" lon="-5.6688310">
        <ele>555.3</ele>
        <time>2022-05-22T11:23:01Z</time>
      </trkpt>
      <trkpt lat="37.9940560" lon="-5.6688310">
        <ele>555.3</ele>
        <time>2022-05-22T11:23:02Z</time>
      </trkpt>
      <trkpt lat="37.9940560" lon="-5.6688310">
        <ele>555.3</ele>
        <time>2022-05-22T11:23:03Z</time>
      </trkpt>
      <trkpt lat="37.9940560" lon="-5.6688310">
        <ele>555.3</ele>
        <time>2022-05-22T11:23:04Z</time>
      </trkpt>
      <trkpt lat="37.9940560" lon="-5.6688310">
        <ele>555.3</ele>
        <time>2022-05-22T11:23:05Z</time>
      </trkpt>
      <trkpt lat="37.9940560" lon="-5.6688310">
        <ele>555.3</ele>
        <time>2022-05-22T11:23:06Z</time>
      </trkpt>
      <trkpt lat="37.9940560" lon="-5.6688310">
        <ele>555.3</ele>
        <time>2022-05-22T11:23:07Z</time>
      </trkpt>
      <trkpt lat="37.9940560" lon="-5.6688310">
        <ele>555.3</ele>
        <time>2022-05-22T11:23:08Z</time>
      </trkpt>
      <trkpt lat="37.9940560" lon="-5.6688310">
        <ele>555.3</ele>
        <time>2022-05-22T11:23:09Z</time>
      </trkpt>
      <trkpt lat="37.9940560" lon="-5.6688310">
        <ele>555.3</ele>
        <time>2022-05-22T11:23:10Z</time>
      </trkpt>
      <trkpt lat="37.9940560" lon="-5.6688310">
        <ele>555.3</ele>
        <time>2022-05-22T11:23:11Z</time>
      </trkpt>
      <trkpt lat="37.9940560" lon="-5.6688310">
        <ele>555.3</ele>
        <time>2022-05-22T11:23:12Z</time>
      </trkpt>
      <trkpt lat="37.9940560" lon="-5.6688310">
        <ele>555.3</ele>
        <time>2022-05-22T11:23:13Z</time>
      </trkpt>
      <trkpt lat="37.9940560" lon="-5.6688310">
        <ele>555.3</ele>
        <time>2022-05-22T11:23:14Z</time>
      </trkpt>
      <trkpt lat="37.9940560" lon="-5.6688310">
        <ele>555.3</ele>
        <time>2022-05-22T11:23:15Z</time>
      </trkpt>
      <trkpt lat="37.9940560" lon="-5.6688310">
        <ele>555.3</ele>
        <time>2022-05-22T11:23:16Z</time>
      </trkpt>
      <trkpt lat="37.9940530" lon="-5.6688340">
        <ele>555.3</ele>
        <time>2022-05-22T11:23:17Z</time>
      </trkpt>
      <trkpt lat="37.9940520" lon="-5.6688310">
        <ele>555.3</ele>
        <time>2022-05-22T11:23:19Z</time>
      </trkpt>
      <trkpt lat="37.9940500" lon="-5.6688290">
        <ele>555.3</ele>
        <time>2022-05-22T11:23:21Z</time>
      </trkpt>
      <trkpt lat="37.9940490" lon="-5.6688270">
        <ele>555.3</ele>
        <time>2022-05-22T11:23:23Z</time>
      </trkpt>
      <trkpt lat="37.9940490" lon="-5.6688260">
        <ele>555.3</ele>
        <time>2022-05-22T11:23:24Z</time>
      </trkpt>
      <trkpt lat="37.9940490" lon="-5.6688260">
        <ele>555.3</ele>
        <time>2022-05-22T11:23:26Z</time>
      </trkpt>
      <trkpt lat="37.9940490" lon="-5.6688260">
        <ele>555.3</ele>
        <time>2022-05-22T11:23:27Z</time>
      </trkpt>
      <trkpt lat="37.9940470" lon="-5.6688260">
        <ele>555.3</ele>
        <time>2022-05-22T11:23:29Z</time>
      </trkpt>
      <trkpt lat="37.9940470" lon="-5.6688260">
        <ele>555.3</ele>
        <time>2022-05-22T11:23:30Z</time>
      </trkpt>
      <trkpt lat="37.9940480" lon="-5.6688260">
        <ele>555.3</ele>
        <time>2022-05-22T11:23:31Z</time>
      </trkpt>
      <trkpt lat="37.9940480" lon="-5.6688250">
        <ele>555.3</ele>
        <time>2022-05-22T11:23:32Z</time>
      </trkpt>
      <trkpt lat="37.9940480" lon="-5.6688260">
        <ele>555.3</ele>
        <time>2022-05-22T11:23:33Z</time>
      </trkpt>
      <trkpt lat="37.9940480" lon="-5.6688260">
        <ele>555.3</ele>
        <time>2022-05-22T11:23:34Z</time>
      </trkpt>
      <trkpt lat="37.9940490" lon="-5.6688260">
        <ele>555.3</ele>
        <time>2022-05-22T11:23:35Z</time>
      </trkpt>
      <trkpt lat="37.9940490" lon="-5.6688270">
        <ele>555.3</ele>
        <time>2022-05-22T11:23:36Z</time>
      </trkpt>
      <trkpt lat="37.9940490" lon="-5.6688280">
        <ele>555.3</ele>
        <time>2022-05-22T11:23:37Z</time>
      </trkpt>
      <trkpt lat="37.9940490" lon="-5.6688290">
        <ele>555.3</ele>
        <time>2022-05-22T11:23:38Z</time>
      </trkpt>
      <trkpt lat="37.9940500" lon="-5.6688300">
        <ele>555.3</ele>
        <time>2022-05-22T11:23:39Z</time>
      </trkpt>
      <trkpt lat="37.9940500" lon="-5.6688310">
        <ele>555.3</ele>
        <time>2022-05-22T11:23:40Z</time>
      </trkpt>
      <trkpt lat="37.9940500" lon="-5.6688320">
        <ele>555.3</ele>
        <time>2022-05-22T11:23:41Z</time>
      </trkpt>
      <trkpt lat="37.9940500" lon="-5.6688320">
        <ele>555.3</ele>
        <time>2022-05-22T11:23:43Z</time>
      </trkpt>
      <trkpt lat="37.9940530" lon="-5.6688320">
        <ele>555.3</ele>
        <time>2022-05-22T11:23:44Z</time>
      </trkpt>
      <trkpt lat="37.9940540" lon="-5.6688320">
        <ele>555.3</ele>
        <time>2022-05-22T11:23:45Z</time>
      </trkpt>
      <trkpt lat="37.9940550" lon="-5.6688310">
        <ele>555.3</ele>
        <time>2022-05-22T11:23:46Z</time>
      </trkpt>
      <trkpt lat="37.9940550" lon="-5.6688310">
        <ele>555.3</ele>
        <time>2022-05-22T11:23:47Z</time>
      </trkpt>
      <trkpt lat="37.9940560" lon="-5.6688310">
        <ele>555.3</ele>
        <time>2022-05-22T11:23:48Z</time>
      </trkpt>
      <trkpt lat="37.9940560" lon="-5.6688310">
        <ele>555.3</ele>
        <time>2022-05-22T11:23:49Z</time>
      </trkpt>
      <trkpt lat="37.9940560" lon="-5.6688310">
        <ele>555.3</ele>
        <time>2022-05-22T11:23:50Z</time>
      </trkpt>
      <trkpt lat="37.9940560" lon="-5.6688310">
        <ele>555.3</ele>
        <time>2022-05-22T11:23:51Z</time>
      </trkpt>
      <trkpt lat="37.9940560" lon="-5.6688310">
        <ele>555.3</ele>
        <time>2022-05-22T11:23:52Z</time>
      </trkpt>
      <trkpt lat="37.9940560" lon="-5.6688310">
        <ele>555.3</ele>
        <time>2022-05-22T11:23:53Z</time>
      </trkpt>
      <trkpt lat="37.9940560" lon="-5.6688310">
        <ele>555.3</ele>
        <time>2022-05-22T11:23:54Z</time>
      </trkpt>
      <trkpt lat="37.9940560" lon="-5.6688310">
        <ele>555.3</ele>
        <time>2022-05-22T11:23:55Z</time>
      </trkpt>
      <trkpt lat="37.9940560" lon="-5.6688310">
        <ele>555.3</ele>
        <time>2022-05-22T11:23:56Z</time>
      </trkpt>
      <trkpt lat="37.9940560" lon="-5.6688310">
        <ele>555.3</ele>
        <time>2022-05-22T11:23:57Z</time>
      </trkpt>
      <trkpt lat="37.9940560" lon="-5.6688310">
        <ele>555.3</ele>
        <time>2022-05-22T11:23:58Z</time>
      </trkpt>
      <trkpt lat="37.9940560" lon="-5.6688310">
        <ele>555.3</ele>
        <time>2022-05-22T11:23:59Z</time>
      </trkpt>
      <trkpt lat="37.9940560" lon="-5.6688310">
        <ele>555.3</ele>
        <time>2022-05-22T11:24:00Z</time>
      </trkpt>
      <trkpt lat="37.9940560" lon="-5.6688310">
        <ele>555.3</ele>
        <time>2022-05-22T11:24:01Z</time>
      </trkpt>
      <trkpt lat="37.9940560" lon="-5.6688310">
        <ele>555.3</ele>
        <time>2022-05-22T11:24:03Z</time>
      </trkpt>
      <trkpt lat="37.9940560" lon="-5.6688310">
        <ele>555.3</ele>
        <time>2022-05-22T11:24:04Z</time>
      </trkpt>
      <trkpt lat="37.9940560" lon="-5.6688310">
        <ele>555.3</ele>
        <time>2022-05-22T11:24:05Z</time>
      </trkpt>
      <trkpt lat="37.9940560" lon="-5.6688310">
        <ele>555.3</ele>
        <time>2022-05-22T11:24:06Z</time>
      </trkpt>
      <trkpt lat="37.9940560" lon="-5.6688310">
        <ele>555.3</ele>
        <time>2022-05-22T11:24:07Z</time>
      </trkpt>
      <trkpt lat="37.9940560" lon="-5.6688310">
        <ele>555.3</ele>
        <time>2022-05-22T11:24:08Z</time>
      </trkpt>
      <trkpt lat="37.9940560" lon="-5.6688310">
        <ele>555.3</ele>
        <time>2022-05-22T11:24:09Z</time>
      </trkpt>
      <trkpt lat="37.9940560" lon="-5.6688310">
        <ele>555.3</ele>
        <time>2022-05-22T11:24:10Z</time>
      </trkpt>
      <trkpt lat="37.9940560" lon="-5.6688310">
        <ele>555.3</ele>
        <time>2022-05-22T11:24:11Z</time>
      </trkpt>
      <trkpt lat="37.9940560" lon="-5.6688310">
        <ele>555.3</ele>
        <time>2022-05-22T11:24:12Z</time>
      </trkpt>
      <trkpt lat="37.9940560" lon="-5.6688310">
        <ele>555.3</ele>
        <time>2022-05-22T11:24:13Z</time>
      </trkpt>
      <trkpt lat="37.9940560" lon="-5.6688310">
        <ele>555.3</ele>
        <time>2022-05-22T11:24:14Z</time>
      </trkpt>
      <trkpt lat="37.9940560" lon="-5.6688310">
        <ele>555.3</ele>
        <time>2022-05-22T11:24:15Z</time>
      </trkpt>
      <trkpt lat="37.9940560" lon="-5.6688310">
        <ele>555.3</ele>
        <time>2022-05-22T11:24:16Z</time>
      </trkpt>
      <trkpt lat="37.9940560" lon="-5.6688310">
        <ele>555.3</ele>
        <time>2022-05-22T11:24:17Z</time>
      </trkpt>
      <trkpt lat="37.9940560" lon="-5.6688310">
        <ele>555.3</ele>
        <time>2022-05-22T11:24:18Z</time>
      </trkpt>
      <trkpt lat="37.9940560" lon="-5.6688310">
        <ele>555.3</ele>
        <time>2022-05-22T11:24:19Z</time>
      </trkpt>
      <trkpt lat="37.9940560" lon="-5.6688310">
        <ele>555.3</ele>
        <time>2022-05-22T11:24:20Z</time>
      </trkpt>
      <trkpt lat="37.9940560" lon="-5.6688310">
        <ele>555.3</ele>
        <time>2022-05-22T11:24:21Z</time>
      </trkpt>
      <trkpt lat="37.9940560" lon="-5.6688310">
        <ele>555.3</ele>
        <time>2022-05-22T11:24:22Z</time>
      </trkpt>
      <trkpt lat="37.9940560" lon="-5.6688310">
        <ele>555.3</ele>
        <time>2022-05-22T11:24:24Z</time>
      </trkpt>
      <trkpt lat="37.9940560" lon="-5.6688310">
        <ele>555.3</ele>
        <time>2022-05-22T11:24:25Z</time>
      </trkpt>
      <trkpt lat="37.9940560" lon="-5.6688310">
        <ele>555.3</ele>
        <time>2022-05-22T11:24:27Z</time>
      </trkpt>
      <trkpt lat="37.9940560" lon="-5.6688310">
        <ele>555.3</ele>
        <time>2022-05-22T11:24:28Z</time>
      </trkpt>
      <trkpt lat="37.9940560" lon="-5.6688310">
        <ele>555.3</ele>
        <time>2022-05-22T11:24:29Z</time>
      </trkpt>
      <trkpt lat="37.9940560" lon="-5.6688310">
        <ele>555.3</ele>
        <time>2022-05-22T11:24:30Z</time>
      </trkpt>
      <trkpt lat="37.9940560" lon="-5.6688310">
        <ele>555.3</ele>
        <time>2022-05-22T11:24:31Z</time>
      </trkpt>
      <trkpt lat="37.9940560" lon="-5.6688310">
        <ele>555.3</ele>
        <time>2022-05-22T11:24:32Z</time>
      </trkpt>
      <trkpt lat="37.9940560" lon="-5.6688310">
        <ele>555.3</ele>
        <time>2022-05-22T11:24:33Z</time>
      </trkpt>
      <trkpt lat="37.9940560" lon="-5.6688310">
        <ele>555.3</ele>
        <time>2022-05-22T11:24:34Z</time>
      </trkpt>
      <trkpt lat="37.9940560" lon="-5.6688310">
        <ele>555.3</ele>
        <time>2022-05-22T11:24:35Z</time>
      </trkpt>
      <trkpt lat="37.9940560" lon="-5.6688310">
        <ele>555.3</ele>
        <time>2022-05-22T11:24:36Z</time>
      </trkpt>
      <trkpt lat="37.9940560" lon="-5.6688310">
        <ele>555.3</ele>
        <time>2022-05-22T11:24:37Z</time>
      </trkpt>
      <trkpt lat="37.9940560" lon="-5.6688310">
        <ele>555.3</ele>
        <time>2022-05-22T11:24:38Z</time>
      </trkpt>
      <trkpt lat="37.9940560" lon="-5.6688310">
        <ele>555.3</ele>
        <time>2022-05-22T11:24:39Z</time>
      </trkpt>
      <trkpt lat="37.9940560" lon="-5.6688310">
        <ele>555.3</ele>
        <time>2022-05-22T11:24:40Z</time>
      </trkpt>
      <trkpt lat="37.9940560" lon="-5.6688310">
        <ele>555.3</ele>
        <time>2022-05-22T11:24:41Z</time>
      </trkpt>
      <trkpt lat="37.9940560" lon="-5.6688310">
        <ele>555.3</ele>
        <time>2022-05-22T11:24:42Z</time>
      </trkpt>
      <trkpt lat="37.9940560" lon="-5.6688310">
        <ele>555.3</ele>
        <time>2022-05-22T11:24:43Z</time>
      </trkpt>
      <trkpt lat="37.9940560" lon="-5.6688310">
        <ele>555.3</ele>
        <time>2022-05-22T11:24:44Z</time>
      </trkpt>
      <trkpt lat="37.9940560" lon="-5.6688310">
        <ele>555.3</ele>
        <time>2022-05-22T11:24:45Z</time>
      </trkpt>
      <trkpt lat="37.9940560" lon="-5.6688310">
        <ele>555.3</ele>
        <time>2022-05-22T11:24:46Z</time>
      </trkpt>
      <trkpt lat="37.9940560" lon="-5.6688310">
        <ele>555.3</ele>
        <time>2022-05-22T11:24:48Z</time>
      </trkpt>
      <trkpt lat="37.9940560" lon="-5.6688320">
        <ele>555.3</ele>
        <time>2022-05-22T11:24:49Z</time>
      </trkpt>
      <trkpt lat="37.9940580" lon="-5.6688330">
        <ele>555.3</ele>
        <time>2022-05-22T11:24:51Z</time>
      </trkpt>
      <trkpt lat="37.9940590" lon="-5.6688350">
        <ele>555.3</ele>
        <time>2022-05-22T11:24:53Z</time>
      </trkpt>
      <trkpt lat="37.9940590" lon="-5.6688350">
        <ele>555.3</ele>
        <time>2022-05-22T11:24:54Z</time>
      </trkpt>
      <trkpt lat="37.9940590" lon="-5.6688350">
        <ele>555.3</ele>
        <time>2022-05-22T11:24:55Z</time>
      </trkpt>
      <trkpt lat="37.9940590" lon="-5.6688350">
        <ele>555.3</ele>
        <time>2022-05-22T11:24:56Z</time>
      </trkpt>
      <trkpt lat="37.9940590" lon="-5.6688350">
        <ele>555.3</ele>
        <time>2022-05-22T11:24:57Z</time>
      </trkpt>
      <trkpt lat="37.9940590" lon="-5.6688340">
        <ele>555.3</ele>
        <time>2022-05-22T11:24:58Z</time>
      </trkpt>
      <trkpt lat="37.9940580" lon="-5.6688340">
        <ele>555.3</ele>
        <time>2022-05-22T11:24:59Z</time>
      </trkpt>
      <trkpt lat="37.9940580" lon="-5.6688340">
        <ele>555.3</ele>
        <time>2022-05-22T11:25:00Z</time>
      </trkpt>
      <trkpt lat="37.9940580" lon="-5.6688340">
        <ele>555.3</ele>
        <time>2022-05-22T11:25:01Z</time>
      </trkpt>
      <trkpt lat="37.9940580" lon="-5.6688330">
        <ele>555.3</ele>
        <time>2022-05-22T11:25:02Z</time>
      </trkpt>
      <trkpt lat="37.9940580" lon="-5.6688330">
        <ele>555.3</ele>
        <time>2022-05-22T11:25:03Z</time>
      </trkpt>
      <trkpt lat="37.9940570" lon="-5.6688330">
        <ele>555.3</ele>
        <time>2022-05-22T11:25:04Z</time>
      </trkpt>
      <trkpt lat="37.9940570" lon="-5.6688330">
        <ele>555.3</ele>
        <time>2022-05-22T11:25:05Z</time>
      </trkpt>
      <trkpt lat="37.9940570" lon="-5.6688340">
        <ele>555.3</ele>
        <time>2022-05-22T11:25:06Z</time>
      </trkpt>
      <trkpt lat="37.9940560" lon="-5.6688330">
        <ele>555.3</ele>
        <time>2022-05-22T11:25:07Z</time>
      </trkpt>
      <trkpt lat="37.9940560" lon="-5.6688340">
        <ele>555.3</ele>
        <time>2022-05-22T11:25:08Z</time>
      </trkpt>
      <trkpt lat="37.9940560" lon="-5.6688340">
        <ele>555.3</ele>
        <time>2022-05-22T11:25:09Z</time>
      </trkpt>
      <trkpt lat="37.9940570" lon="-5.6688340">
        <ele>555.3</ele>
        <time>2022-05-22T11:25:10Z</time>
      </trkpt>
      <trkpt lat="37.9940560" lon="-5.6688320">
        <ele>555.3</ele>
        <time>2022-05-22T11:25:11Z</time>
      </trkpt>
      <trkpt lat="37.9940560" lon="-5.6688310">
        <ele>555.3</ele>
        <time>2022-05-22T11:25:12Z</time>
      </trkpt>
      <trkpt lat="37.9940560" lon="-5.6688310">
        <ele>555.3</ele>
        <time>2022-05-22T11:25:13Z</time>
      </trkpt>
      <trkpt lat="37.9940570" lon="-5.6688320">
        <ele>555.3</ele>
        <time>2022-05-22T11:25:14Z</time>
      </trkpt>
      <trkpt lat="37.9940580" lon="-5.6688320">
        <ele>555.3</ele>
        <time>2022-05-22T11:25:15Z</time>
      </trkpt>
      <trkpt lat="37.9940580" lon="-5.6688320">
        <ele>555.3</ele>
        <time>2022-05-22T11:25:16Z</time>
      </trkpt>
      <trkpt lat="37.9940590" lon="-5.6688320">
        <ele>555.3</ele>
        <time>2022-05-22T11:25:17Z</time>
      </trkpt>
      <trkpt lat="37.9940590" lon="-5.6688330">
        <ele>555.3</ele>
        <time>2022-05-22T11:25:18Z</time>
      </trkpt>
      <trkpt lat="37.9940590" lon="-5.6688330">
        <ele>555.3</ele>
        <time>2022-05-22T11:25:19Z</time>
      </trkpt>
      <trkpt lat="37.9940590" lon="-5.6688340">
        <ele>555.3</ele>
        <time>2022-05-22T11:25:20Z</time>
      </trkpt>
      <trkpt lat="37.9940590" lon="-5.6688330">
        <ele>555.3</ele>
        <time>2022-05-22T11:25:21Z</time>
      </trkpt>
      <trkpt lat="37.9940590" lon="-5.6688340">
        <ele>555.3</ele>
        <time>2022-05-22T11:25:22Z</time>
      </trkpt>
      <trkpt lat="37.9940590" lon="-5.6688330">
        <ele>555.3</ele>
        <time>2022-05-22T11:25:23Z</time>
      </trkpt>
      <trkpt lat="37.9940590" lon="-5.6688330">
        <ele>555.3</ele>
        <time>2022-05-22T11:25:24Z</time>
      </trkpt>
      <trkpt lat="37.9940590" lon="-5.6688330">
        <ele>555.3</ele>
        <time>2022-05-22T11:25:26Z</time>
      </trkpt>
      <trkpt lat="37.9940580" lon="-5.6688320">
        <ele>555.3</ele>
        <time>2022-05-22T11:25:27Z</time>
      </trkpt>
      <trkpt lat="37.9940580" lon="-5.6688320">
        <ele>555.3</ele>
        <time>2022-05-22T11:25:28Z</time>
      </trkpt>
      <trkpt lat="37.9940560" lon="-5.6688330">
        <ele>555.3</ele>
        <time>2022-05-22T11:25:30Z</time>
      </trkpt>
      <trkpt lat="37.9940560" lon="-5.6688330">
        <ele>555.3</ele>
        <time>2022-05-22T11:25:31Z</time>
      </trkpt>
      <trkpt lat="37.9940550" lon="-5.6688320">
        <ele>555.3</ele>
        <time>2022-05-22T11:25:33Z</time>
      </trkpt>
      <trkpt lat="37.9940530" lon="-5.6688320">
        <ele>555.3</ele>
        <time>2022-05-22T11:25:34Z</time>
      </trkpt>
      <trkpt lat="37.9940510" lon="-5.6688330">
        <ele>555.3</ele>
        <time>2022-05-22T11:25:35Z</time>
      </trkpt>
      <trkpt lat="37.9940460" lon="-5.6688320">
        <ele>555.3</ele>
        <time>2022-05-22T11:25:36Z</time>
      </trkpt>
      <trkpt lat="37.9940390" lon="-5.6688280">
        <ele>555.3</ele>
        <time>2022-05-22T11:25:37Z</time>
      </trkpt>
      <trkpt lat="37.9940300" lon="-5.6688200">
        <ele>555.3</ele>
        <time>2022-05-22T11:25:38Z</time>
      </trkpt>
      <trkpt lat="37.9940040" lon="-5.6687800">
        <ele>555.3</ele>
        <time>2022-05-22T11:25:39Z</time>
      </trkpt>
      <trkpt lat="37.9939870" lon="-5.6687570">
        <ele>555.4</ele>
        <time>2022-05-22T11:25:40Z</time>
      </trkpt>
      <trkpt lat="37.9939660" lon="-5.6687260">
        <ele>555.4</ele>
        <time>2022-05-22T11:25:41Z</time>
      </trkpt>
      <trkpt lat="37.9939570" lon="-5.6687130">
        <ele>555.4</ele>
        <time>2022-05-22T11:25:42Z</time>
      </trkpt>
      <trkpt lat="37.9939530" lon="-5.6687040">
        <ele>555.4</ele>
        <time>2022-05-22T11:25:43Z</time>
      </trkpt>
      <trkpt lat="37.9939550" lon="-5.6686930">
        <ele>555.4</ele>
        <time>2022-05-22T11:25:44Z</time>
      </trkpt>
      <trkpt lat="37.9939560" lon="-5.6686810">
        <ele>555.4</ele>
        <time>2022-05-22T11:25:45Z</time>
      </trkpt>
      <trkpt lat="37.9939560" lon="-5.6686690">
        <ele>555.4</ele>
        <time>2022-05-22T11:25:46Z</time>
      </trkpt>
      <trkpt lat="37.9939550" lon="-5.6686510">
        <ele>555.4</ele>
        <time>2022-05-22T11:25:47Z</time>
      </trkpt>
      <trkpt lat="37.9939600" lon="-5.6686220">
        <ele>555.4</ele>
        <time>2022-05-22T11:25:48Z</time>
      </trkpt>
      <trkpt lat="37.9939650" lon="-5.6686110">
        <ele>555.8</ele>
        <time>2022-05-22T11:25:49Z</time>
      </trkpt>
      <trkpt lat="37.9939700" lon="-5.6685990">
        <ele>555.9</ele>
        <time>2022-05-22T11:25:51Z</time>
      </trkpt>
      <trkpt lat="37.9939750" lon="-5.6685870">
        <ele>555.9</ele>
        <time>2022-05-22T11:25:52Z</time>
      </trkpt>
      <trkpt lat="37.9939800" lon="-5.6685750">
        <ele>556.0</ele>
        <time>2022-05-22T11:25:53Z</time>
      </trkpt>
      <trkpt lat="37.9939850" lon="-5.6685640">
        <ele>556.0</ele>
        <time>2022-05-22T11:25:54Z</time>
      </trkpt>
      <trkpt lat="37.9939850" lon="-5.6685390">
        <ele>556.1</ele>
        <time>2022-05-22T11:25:56Z</time>
      </trkpt>
      <trkpt lat="37.9939820" lon="-5.6685190">
        <ele>556.2</ele>
        <time>2022-05-22T11:25:57Z</time>
      </trkpt>
      <trkpt lat="37.9939800" lon="-5.6685030">
        <ele>556.3</ele>
        <time>2022-05-22T11:25:58Z</time>
      </trkpt>
      <trkpt lat="37.9939750" lon="-5.6684860">
        <ele>556.3</ele>
        <time>2022-05-22T11:25:59Z</time>
      </trkpt>
      <trkpt lat="37.9939570" lon="-5.6684500">
        <ele>556.5</ele>
        <time>2022-05-22T11:26:00Z</time>
      </trkpt>
      <trkpt lat="37.9939500" lon="-5.6684400">
        <ele>556.5</ele>
        <time>2022-05-22T11:26:01Z</time>
      </trkpt>
      <trkpt lat="37.9939420" lon="-5.6684260">
        <ele>556.6</ele>
        <time>2022-05-22T11:26:02Z</time>
      </trkpt>
      <trkpt lat="37.9939240" lon="-5.6684200">
        <ele>556.7</ele>
        <time>2022-05-22T11:26:03Z</time>
      </trkpt>
      <trkpt lat="37.9939100" lon="-5.6684130">
        <ele>556.8</ele>
        <time>2022-05-22T11:26:05Z</time>
      </trkpt>
      <trkpt lat="37.9939030" lon="-5.6684080">
        <ele>556.8</ele>
        <time>2022-05-22T11:26:06Z</time>
      </trkpt>
      <trkpt lat="37.9938980" lon="-5.6684020">
        <ele>556.8</ele>
        <time>2022-05-22T11:26:08Z</time>
      </trkpt>
      <trkpt lat="37.9938930" lon="-5.6683870">
        <ele>556.9</ele>
        <time>2022-05-22T11:26:10Z</time>
      </trkpt>
      <trkpt lat="37.9938920" lon="-5.6683750">
        <ele>556.9</ele>
        <time>2022-05-22T11:26:11Z</time>
      </trkpt>
      <trkpt lat="37.9938900" lon="-5.6683610">
        <ele>556.9</ele>
        <time>2022-05-22T11:26:13Z</time>
      </trkpt>
      <trkpt lat="37.9938880" lon="-5.6683580">
        <ele>557.0</ele>
        <time>2022-05-22T11:26:14Z</time>
      </trkpt>
      <trkpt lat="37.9938880" lon="-5.6683630">
        <ele>557.0</ele>
        <time>2022-05-22T11:26:15Z</time>
      </trkpt>
      <trkpt lat="37.9938880" lon="-5.6683630">
        <ele>557.0</ele>
        <time>2022-05-22T11:26:17Z</time>
      </trkpt>
      <trkpt lat="37.9938880" lon="-5.6683620">
        <ele>557.0</ele>
        <time>2022-05-22T11:26:18Z</time>
      </trkpt>
      <trkpt lat="37.9938880" lon="-5.6683590">
        <ele>557.0</ele>
        <time>2022-05-22T11:26:19Z</time>
      </trkpt>
      <trkpt lat="37.9938870" lon="-5.6683530">
        <ele>557.0</ele>
        <time>2022-05-22T11:26:20Z</time>
      </trkpt>
      <trkpt lat="37.9938850" lon="-5.6683450">
        <ele>557.0</ele>
        <time>2022-05-22T11:26:22Z</time>
      </trkpt>
      <trkpt lat="37.9938830" lon="-5.6683370">
        <ele>557.1</ele>
        <time>2022-05-22T11:26:23Z</time>
      </trkpt>
      <trkpt lat="37.9938810" lon="-5.6683280">
        <ele>557.1</ele>
        <time>2022-05-22T11:26:24Z</time>
      </trkpt>
      <trkpt lat="37.9938770" lon="-5.6683220">
        <ele>557.1</ele>
        <time>2022-05-22T11:26:26Z</time>
      </trkpt>
      <trkpt lat="37.9938740" lon="-5.6683120">
        <ele>557.1</ele>
        <time>2022-05-22T11:26:27Z</time>
      </trkpt>
      <trkpt lat="37.9938710" lon="-5.6683020">
        <ele>557.2</ele>
        <time>2022-05-22T11:26:28Z</time>
      </trkpt>
      <trkpt lat="37.9938670" lon="-5.6682900">
        <ele>557.2</ele>
        <time>2022-05-22T11:26:29Z</time>
      </trkpt>
      <trkpt lat="37.9938610" lon="-5.6682780">
        <ele>557.3</ele>
        <time>2022-05-22T11:26:30Z</time>
      </trkpt>
      <trkpt lat="37.9938520" lon="-5.6682640">
        <ele>557.3</ele>
        <time>2022-05-22T11:26:32Z</time>
      </trkpt>
      <trkpt lat="37.9938470" lon="-5.6682560">
        <ele>557.3</ele>
        <time>2022-05-22T11:26:33Z</time>
      </trkpt>
      <trkpt lat="37.9938420" lon="-5.6682490">
        <ele>557.4</ele>
        <time>2022-05-22T11:26:35Z</time>
      </trkpt>
      <trkpt lat="37.9938420" lon="-5.6682460">
        <ele>557.4</ele>
        <time>2022-05-22T11:26:36Z</time>
      </trkpt>
      <trkpt lat="37.9938400" lon="-5.6682450">
        <ele>557.4</ele>
        <time>2022-05-22T11:26:37Z</time>
      </trkpt>
      <trkpt lat="37.9938380" lon="-5.6682430">
        <ele>557.4</ele>
        <time>2022-05-22T11:26:38Z</time>
      </trkpt>
      <trkpt lat="37.9938370" lon="-5.6682410">
        <ele>557.4</ele>
        <time>2022-05-22T11:26:39Z</time>
      </trkpt>
      <trkpt lat="37.9938350" lon="-5.6682380">
        <ele>557.4</ele>
        <time>2022-05-22T11:26:40Z</time>
      </trkpt>
      <trkpt lat="37.9938320" lon="-5.6682370">
        <ele>557.4</ele>
        <time>2022-05-22T11:26:41Z</time>
      </trkpt>
      <trkpt lat="37.9938270" lon="-5.6682380">
        <ele>557.5</ele>
        <time>2022-05-22T11:26:42Z</time>
      </trkpt>
      <trkpt lat="37.9938240" lon="-5.6682460">
        <ele>557.5</ele>
        <time>2022-05-22T11:26:44Z</time>
      </trkpt>
      <trkpt lat="37.9938220" lon="-5.6682550">
        <ele>557.5</ele>
        <time>2022-05-22T11:26:45Z</time>
      </trkpt>
      <trkpt lat="37.9938210" lon="-5.6682700">
        <ele>557.6</ele>
        <time>2022-05-22T11:26:46Z</time>
      </trkpt>
      <trkpt lat="37.9938190" lon="-5.6682830">
        <ele>557.6</ele>
        <time>2022-05-22T11:26:47Z</time>
      </trkpt>
      <trkpt lat="37.9938170" lon="-5.6682960">
        <ele>557.6</ele>
        <time>2022-05-22T11:26:48Z</time>
      </trkpt>
      <trkpt lat="37.9938130" lon="-5.6683070">
        <ele>557.7</ele>
        <time>2022-05-22T11:26:49Z</time>
      </trkpt>
      <trkpt lat="37.9937970" lon="-5.6683020">
        <ele>557.7</ele>
        <time>2022-05-22T11:26:50Z</time>
      </trkpt>
      <trkpt lat="37.9937840" lon="-5.6683040">
        <ele>557.8</ele>
        <time>2022-05-22T11:26:51Z</time>
      </trkpt>
      <trkpt lat="37.9937650" lon="-5.6683080">
        <ele>557.8</ele>
        <time>2022-05-22T11:26:52Z</time>
      </trkpt>
      <trkpt lat="37.9937560" lon="-5.6683080">
        <ele>557.9</ele>
        <time>2022-05-22T11:26:53Z</time>
      </trkpt>
      <trkpt lat="37.9937470" lon="-5.6683080">
        <ele>557.9</ele>
        <time>2022-05-22T11:26:54Z</time>
      </trkpt>
      <trkpt lat="37.9937180" lon="-5.6682820">
        <ele>558.1</ele>
        <time>2022-05-22T11:26:56Z</time>
      </trkpt>
      <trkpt lat="37.9937070" lon="-5.6682700">
        <ele>558.1</ele>
        <time>2022-05-22T11:26:57Z</time>
      </trkpt>
      <trkpt lat="37.9936950" lon="-5.6682520">
        <ele>558.2</ele>
        <time>2022-05-22T11:26:58Z</time>
      </trkpt>
      <trkpt lat="37.9936870" lon="-5.6682390">
        <ele>558.2</ele>
        <time>2022-05-22T11:26:59Z</time>
      </trkpt>
      <trkpt lat="37.9936730" lon="-5.6682150">
        <ele>558.3</ele>
        <time>2022-05-22T11:27:00Z</time>
      </trkpt>
      <trkpt lat="37.9936670" lon="-5.6682060">
        <ele>558.4</ele>
        <time>2022-05-22T11:27:01Z</time>
      </trkpt>
      <trkpt lat="37.9936620" lon="-5.6681980">
        <ele>558.4</ele>
        <time>2022-05-22T11:27:02Z</time>
      </trkpt>
      <trkpt lat="37.9936540" lon="-5.6681850">
        <ele>558.5</ele>
        <time>2022-05-22T11:27:03Z</time>
      </trkpt>
      <trkpt lat="37.9936440" lon="-5.6681560">
        <ele>558.6</ele>
        <time>2022-05-22T11:27:05Z</time>
      </trkpt>
      <trkpt lat="37.9936400" lon="-5.6681330">
        <ele>558.7</ele>
        <time>2022-05-22T11:27:07Z</time>
      </trkpt>
      <trkpt lat="37.9936400" lon="-5.6681140">
        <ele>558.8</ele>
        <time>2022-05-22T11:27:08Z</time>
      </trkpt>
      <trkpt lat="37.9936400" lon="-5.6681020">
        <ele>558.8</ele>
        <time>2022-05-22T11:27:09Z</time>
      </trkpt>
      <trkpt lat="37.9936380" lon="-5.6680900">
        <ele>558.9</ele>
        <time>2022-05-22T11:27:10Z</time>
      </trkpt>
      <trkpt lat="37.9936350" lon="-5.6680840">
        <ele>558.9</ele>
        <time>2022-05-22T11:27:11Z</time>
      </trkpt>
      <trkpt lat="37.9936300" lon="-5.6680750">
        <ele>558.9</ele>
        <time>2022-05-22T11:27:12Z</time>
      </trkpt>
      <trkpt lat="37.9936300" lon="-5.6680630">
        <ele>559.0</ele>
        <time>2022-05-22T11:27:13Z</time>
      </trkpt>
      <trkpt lat="37.9936300" lon="-5.6680520">
        <ele>559.0</ele>
        <time>2022-05-22T11:27:14Z</time>
      </trkpt>
      <trkpt lat="37.9936290" lon="-5.6680400">
        <ele>559.1</ele>
        <time>2022-05-22T11:27:15Z</time>
      </trkpt>
      <trkpt lat="37.9936260" lon="-5.6680290">
        <ele>559.1</ele>
        <time>2022-05-22T11:27:16Z</time>
      </trkpt>
      <trkpt lat="37.9936200" lon="-5.6680170">
        <ele>559.2</ele>
        <time>2022-05-22T11:27:17Z</time>
      </trkpt>
      <trkpt lat="37.9936150" lon="-5.6680080">
        <ele>559.2</ele>
        <time>2022-05-22T11:27:18Z</time>
      </trkpt>
      <trkpt lat="37.9936080" lon="-5.6679990">
        <ele>559.3</ele>
        <time>2022-05-22T11:27:20Z</time>
      </trkpt>
      <trkpt lat="37.9936040" lon="-5.6679950">
        <ele>559.3</ele>
        <time>2022-05-22T11:27:21Z</time>
      </trkpt>
      <trkpt lat="37.9936000" lon="-5.6679860">
        <ele>559.4</ele>
        <time>2022-05-22T11:27:22Z</time>
      </trkpt>
      <trkpt lat="37.9935910" lon="-5.6679660">
        <ele>559.5</ele>
        <time>2022-05-22T11:27:24Z</time>
      </trkpt>
      <trkpt lat="37.9935850" lon="-5.6679550">
        <ele>559.5</ele>
        <time>2022-05-22T11:27:25Z</time>
      </trkpt>
      <trkpt lat="37.9935820" lon="-5.6679520">
        <ele>559.5</ele>
        <time>2022-05-22T11:27:26Z</time>
      </trkpt>
      <trkpt lat="37.9935800" lon="-5.6679570">
        <ele>559.6</ele>
        <time>2022-05-22T11:27:27Z</time>
      </trkpt>
      <trkpt lat="37.9935800" lon="-5.6679600">
        <ele>559.6</ele>
        <time>2022-05-22T11:27:28Z</time>
      </trkpt>
      <trkpt lat="37.9935790" lon="-5.6679620">
        <ele>559.6</ele>
        <time>2022-05-22T11:27:30Z</time>
      </trkpt>
      <trkpt lat="37.9935790" lon="-5.6679620">
        <ele>559.6</ele>
        <time>2022-05-22T11:27:31Z</time>
      </trkpt>
      <trkpt lat="37.9935780" lon="-5.6679590">
        <ele>559.6</ele>
        <time>2022-05-22T11:27:32Z</time>
      </trkpt>
      <trkpt lat="37.9935720" lon="-5.6679490">
        <ele>559.7</ele>
        <time>2022-05-22T11:27:34Z</time>
      </trkpt>
      <trkpt lat="37.9935680" lon="-5.6679460">
        <ele>559.7</ele>
        <time>2022-05-22T11:27:35Z</time>
      </trkpt>
      <trkpt lat="37.9935590" lon="-5.6679420">
        <ele>559.7</ele>
        <time>2022-05-22T11:27:36Z</time>
      </trkpt>
      <trkpt lat="37.9935530" lon="-5.6679410">
        <ele>559.8</ele>
        <time>2022-05-22T11:27:37Z</time>
      </trkpt>
      <trkpt lat="37.9935470" lon="-5.6679400">
        <ele>559.8</ele>
        <time>2022-05-22T11:27:38Z</time>
      </trkpt>
      <trkpt lat="37.9935420" lon="-5.6679390">
        <ele>559.8</ele>
        <time>2022-05-22T11:27:40Z</time>
      </trkpt>
      <trkpt lat="37.9935360" lon="-5.6679380">
        <ele>559.9</ele>
        <time>2022-05-22T11:27:41Z</time>
      </trkpt>
      <trkpt lat="37.9935300" lon="-5.6679360">
        <ele>559.9</ele>
        <time>2022-05-22T11:27:42Z</time>
      </trkpt>
      <trkpt lat="37.9935240" lon="-5.6679350">
        <ele>559.9</ele>
        <time>2022-05-22T11:27:44Z</time>
      </trkpt>
      <trkpt lat="37.9935180" lon="-5.6679340">
        <ele>560.0</ele>
        <time>2022-05-22T11:27:45Z</time>
      </trkpt>
      <trkpt lat="37.9935120" lon="-5.6679330">
        <ele>560.0</ele>
        <time>2022-05-22T11:27:46Z</time>
      </trkpt>
      <trkpt lat="37.9935060" lon="-5.6679320">
        <ele>560.0</ele>
        <time>2022-05-22T11:27:47Z</time>
      </trkpt>
      <trkpt lat="37.9935000" lon="-5.6679310">
        <ele>560.1</ele>
        <time>2022-05-22T11:27:48Z</time>
      </trkpt>
      <trkpt lat="37.9934960" lon="-5.6679280">
        <ele>560.1</ele>
        <time>2022-05-22T11:27:49Z</time>
      </trkpt>
      <trkpt lat="37.9934900" lon="-5.6679220">
        <ele>560.1</ele>
        <time>2022-05-22T11:27:51Z</time>
      </trkpt>
      <trkpt lat="37.9934880" lon="-5.6679180">
        <ele>560.2</ele>
        <time>2022-05-22T11:27:52Z</time>
      </trkpt>
      <trkpt lat="37.9934880" lon="-5.6679160">
        <ele>560.2</ele>
        <time>2022-05-22T11:27:53Z</time>
      </trkpt>
      <trkpt lat="37.9934870" lon="-5.6679140">
        <ele>560.2</ele>
        <time>2022-05-22T11:27:54Z</time>
      </trkpt>
      <trkpt lat="37.9934860" lon="-5.6679140">
        <ele>560.2</ele>
        <time>2022-05-22T11:27:55Z</time>
      </trkpt>
      <trkpt lat="37.9934840" lon="-5.6679120">
        <ele>560.2</ele>
        <time>2022-05-22T11:27:57Z</time>
      </trkpt>
      <trkpt lat="37.9934840" lon="-5.6679100">
        <ele>560.2</ele>
        <time>2022-05-22T11:27:58Z</time>
      </trkpt>
      <trkpt lat="37.9934830" lon="-5.6679100">
        <ele>560.2</ele>
        <time>2022-05-22T11:27:59Z</time>
      </trkpt>
      <trkpt lat="37.9934830" lon="-5.6679090">
        <ele>560.2</ele>
        <time>2022-05-22T11:28:00Z</time>
      </trkpt>
      <trkpt lat="37.9934840" lon="-5.6679090">
        <ele>560.2</ele>
        <time>2022-05-22T11:28:01Z</time>
      </trkpt>
      <trkpt lat="37.9934850" lon="-5.6679090">
        <ele>560.2</ele>
        <time>2022-05-22T11:28:02Z</time>
      </trkpt>
      <trkpt lat="37.9934860" lon="-5.6679070">
        <ele>560.2</ele>
        <time>2022-05-22T11:28:03Z</time>
      </trkpt>
      <trkpt lat="37.9934890" lon="-5.6679030">
        <ele>560.3</ele>
        <time>2022-05-22T11:28:04Z</time>
      </trkpt>
      <trkpt lat="37.9934900" lon="-5.6678980">
        <ele>560.3</ele>
        <time>2022-05-22T11:28:05Z</time>
      </trkpt>
      <trkpt lat="37.9934890" lon="-5.6678990">
        <ele>560.3</ele>
        <time>2022-05-22T11:28:07Z</time>
      </trkpt>
      <trkpt lat="37.9934880" lon="-5.6679000">
        <ele>560.3</ele>
        <time>2022-05-22T11:28:08Z</time>
      </trkpt>
      <trkpt lat="37.9934870" lon="-5.6678990">
        <ele>560.3</ele>
        <time>2022-05-22T11:28:09Z</time>
      </trkpt>
      <trkpt lat="37.9934870" lon="-5.6678970">
        <ele>560.3</ele>
        <time>2022-05-22T11:28:10Z</time>
      </trkpt>
      <trkpt lat="37.9934870" lon="-5.6678960">
        <ele>560.3</ele>
        <time>2022-05-22T11:28:11Z</time>
      </trkpt>
      <trkpt lat="37.9934870" lon="-5.6678950">
        <ele>560.3</ele>
        <time>2022-05-22T11:28:13Z</time>
      </trkpt>
      <trkpt lat="37.9934860" lon="-5.6678920">
        <ele>560.3</ele>
        <time>2022-05-22T11:28:14Z</time>
      </trkpt>
      <trkpt lat="37.9934840" lon="-5.6678880">
        <ele>560.4</ele>
        <time>2022-05-22T11:28:15Z</time>
      </trkpt>
      <trkpt lat="37.9934790" lon="-5.6678770">
        <ele>560.4</ele>
        <time>2022-05-22T11:28:17Z</time>
      </trkpt>
      <trkpt lat="37.9934770" lon="-5.6678720">
        <ele>560.5</ele>
        <time>2022-05-22T11:28:18Z</time>
      </trkpt>
      <trkpt lat="37.9934760" lon="-5.6678680">
        <ele>560.5</ele>
        <time>2022-05-22T11:28:19Z</time>
      </trkpt>
      <trkpt lat="37.9934730" lon="-5.6678550">
        <ele>560.5</ele>
        <time>2022-05-22T11:28:21Z</time>
      </trkpt>
      <trkpt lat="37.9934720" lon="-5.6678370">
        <ele>560.6</ele>
        <time>2022-05-22T11:28:23Z</time>
      </trkpt>
      <trkpt lat="37.9934670" lon="-5.6678040">
        <ele>560.8</ele>
        <time>2022-05-22T11:28:25Z</time>
      </trkpt>
      <trkpt lat="37.9934660" lon="-5.6677920">
        <ele>560.9</ele>
        <time>2022-05-22T11:28:26Z</time>
      </trkpt>
      <trkpt lat="37.9934670" lon="-5.6677760">
        <ele>560.9</ele>
        <time>2022-05-22T11:28:27Z</time>
      </trkpt>
      <trkpt lat="37.9934760" lon="-5.6677480">
        <ele>561.1</ele>
        <time>2022-05-22T11:28:29Z</time>
      </trkpt>
      <trkpt lat="37.9934780" lon="-5.6677360">
        <ele>561.2</ele>
        <time>2022-05-22T11:28:30Z</time>
      </trkpt>
      <trkpt lat="37.9934800" lon="-5.6677220">
        <ele>561.2</ele>
        <time>2022-05-22T11:28:32Z</time>
      </trkpt>
      <trkpt lat="37.9934810" lon="-5.6677100">
        <ele>561.3</ele>
        <time>2022-05-22T11:28:33Z</time>
      </trkpt>
      <trkpt lat="37.9934800" lon="-5.6676960">
        <ele>561.4</ele>
        <time>2022-05-22T11:28:34Z</time>
      </trkpt>
      <trkpt lat="37.9934790" lon="-5.6676720">
        <ele>561.5</ele>
        <time>2022-05-22T11:28:35Z</time>
      </trkpt>
      <trkpt lat="37.9934780" lon="-5.6676610">
        <ele>561.6</ele>
        <time>2022-05-22T11:28:37Z</time>
      </trkpt>
      <trkpt lat="37.9934780" lon="-5.6676490">
        <ele>561.7</ele>
        <time>2022-05-22T11:28:38Z</time>
      </trkpt>
      <trkpt lat="37.9934760" lon="-5.6676380">
        <ele>561.7</ele>
        <time>2022-05-22T11:28:39Z</time>
      </trkpt>
      <trkpt lat="37.9934740" lon="-5.6676260">
        <ele>561.8</ele>
        <time>2022-05-22T11:28:40Z</time>
      </trkpt>
      <trkpt lat="37.9934730" lon="-5.6676170">
        <ele>561.9</ele>
        <time>2022-05-22T11:28:41Z</time>
      </trkpt>
      <trkpt lat="37.9934710" lon="-5.6675960">
        <ele>562.0</ele>
        <time>2022-05-22T11:28:43Z</time>
      </trkpt>
      <trkpt lat="37.9934700" lon="-5.6675790">
        <ele>562.1</ele>
        <time>2022-05-22T11:28:44Z</time>
      </trkpt>
      <trkpt lat="37.9934700" lon="-5.6675610">
        <ele>562.2</ele>
        <time>2022-05-22T11:28:45Z</time>
      </trkpt>
      <trkpt lat="37.9934710" lon="-5.6675480">
        <ele>562.3</ele>
        <time>2022-05-22T11:28:46Z</time>
      </trkpt>
      <trkpt lat="37.9934750" lon="-5.6675250">
        <ele>562.4</ele>
        <time>2022-05-22T11:28:48Z</time>
      </trkpt>
      <trkpt lat="37.9934770" lon="-5.6675160">
        <ele>562.5</ele>
        <time>2022-05-22T11:28:49Z</time>
      </trkpt>
      <trkpt lat="37.9934780" lon="-5.6675080">
        <ele>562.5</ele>
        <time>2022-05-22T11:28:50Z</time>
      </trkpt>
      <trkpt lat="37.9934790" lon="-5.6674990">
        <ele>562.5</ele>
        <time>2022-05-22T11:28:51Z</time>
      </trkpt>
      <trkpt lat="37.9934790" lon="-5.6674920">
        <ele>562.5</ele>
        <time>2022-05-22T11:28:53Z</time>
      </trkpt>
      <trkpt lat="37.9934790" lon="-5.6674870">
        <ele>562.5</ele>
        <time>2022-05-22T11:28:54Z</time>
      </trkpt>
      <trkpt lat="37.9934780" lon="-5.6674800">
        <ele>562.8</ele>
        <time>2022-05-22T11:28:56Z</time>
      </trkpt>
      <trkpt lat="37.9934780" lon="-5.6674760">
        <ele>562.8</ele>
        <time>2022-05-22T11:28:58Z</time>
      </trkpt>
      <trkpt lat="37.9934790" lon="-5.6674650">
        <ele>562.8</ele>
        <time>2022-05-22T11:28:59Z</time>
      </trkpt>
      <trkpt lat="37.9934800" lon="-5.6674570">
        <ele>562.8</ele>
        <time>2022-05-22T11:29:01Z</time>
      </trkpt>
      <trkpt lat="37.9934790" lon="-5.6674470">
        <ele>562.8</ele>
        <time>2022-05-22T11:29:02Z</time>
      </trkpt>
      <trkpt lat="37.9934790" lon="-5.6674400">
        <ele>563.0</ele>
        <time>2022-05-22T11:29:03Z</time>
      </trkpt>
      <trkpt lat="37.9934790" lon="-5.6674350">
        <ele>563.0</ele>
        <time>2022-05-22T11:29:04Z</time>
      </trkpt>
      <trkpt lat="37.9934790" lon="-5.6674310">
        <ele>563.0</ele>
        <time>2022-05-22T11:29:05Z</time>
      </trkpt>
      <trkpt lat="37.9934780" lon="-5.6674280">
        <ele>563.0</ele>
        <time>2022-05-22T11:29:06Z</time>
      </trkpt>
      <trkpt lat="37.9934780" lon="-5.6674240">
        <ele>563.0</ele>
        <time>2022-05-22T11:29:07Z</time>
      </trkpt>
      <trkpt lat="37.9934770" lon="-5.6674220">
        <ele>563.0</ele>
        <time>2022-05-22T11:29:08Z</time>
      </trkpt>
      <trkpt lat="37.9934760" lon="-5.6674190">
        <ele>563.0</ele>
        <time>2022-05-22T11:29:09Z</time>
      </trkpt>
      <trkpt lat="37.9934760" lon="-5.6674130">
        <ele>563.0</ele>
        <time>2022-05-22T11:29:10Z</time>
      </trkpt>
      <trkpt lat="37.9934750" lon="-5.6674010">
        <ele>563.0</ele>
        <time>2022-05-22T11:29:12Z</time>
      </trkpt>
      <trkpt lat="37.9934730" lon="-5.6673870">
        <ele>563.3</ele>
        <time>2022-05-22T11:29:13Z</time>
      </trkpt>
      <trkpt lat="37.9934700" lon="-5.6673770">
        <ele>563.3</ele>
        <time>2022-05-22T11:29:14Z</time>
      </trkpt>
      <trkpt lat="37.9934610" lon="-5.6673500">
        <ele>563.6</ele>
        <time>2022-05-22T11:29:15Z</time>
      </trkpt>
      <trkpt lat="37.9934570" lon="-5.6673390">
        <ele>563.5</ele>
        <time>2022-05-22T11:29:16Z</time>
      </trkpt>
      <trkpt lat="37.9934540" lon="-5.6673270">
        <ele>563.5</ele>
        <time>2022-05-22T11:29:17Z</time>
      </trkpt>
      <trkpt lat="37.9934470" lon="-5.6673020">
        <ele>563.8</ele>
        <time>2022-05-22T11:29:18Z</time>
      </trkpt>
      <trkpt lat="37.9934430" lon="-5.6672910">
        <ele>563.8</ele>
        <time>2022-05-22T11:29:19Z</time>
      </trkpt>
      <trkpt lat="37.9934400" lon="-5.6672800">
        <ele>563.8</ele>
        <time>2022-05-22T11:29:20Z</time>
      </trkpt>
      <trkpt lat="37.9934280" lon="-5.6672430">
        <ele>564.1</ele>
        <time>2022-05-22T11:29:22Z</time>
      </trkpt>
      <trkpt lat="37.9934240" lon="-5.6672310">
        <ele>564.1</ele>
        <time>2022-05-22T11:29:23Z</time>
      </trkpt>
      <trkpt lat="37.9934160" lon="-5.6672150">
        <ele>564.3</ele>
        <time>2022-05-22T11:29:24Z</time>
      </trkpt>
      <trkpt lat="37.9934060" lon="-5.6672010">
        <ele>564.3</ele>
        <time>2022-05-22T11:29:25Z</time>
      </trkpt>
      <trkpt lat="37.9933950" lon="-5.6671850">
        <ele>564.6</ele>
        <time>2022-05-22T11:29:26Z</time>
      </trkpt>
      <trkpt lat="37.9933800" lon="-5.6671670">
        <ele>564.5</ele>
        <time>2022-05-22T11:29:28Z</time>
      </trkpt>
      <trkpt lat="37.9933700" lon="-5.6671550">
        <ele>564.5</ele>
        <time>2022-05-22T11:29:29Z</time>
      </trkpt>
      <trkpt lat="37.9933590" lon="-5.6671430">
        <ele>564.5</ele>
        <time>2022-05-22T11:29:30Z</time>
      </trkpt>
      <trkpt lat="37.9933470" lon="-5.6671300">
        <ele>564.7</ele>
        <time>2022-05-22T11:29:31Z</time>
      </trkpt>
      <trkpt lat="37.9933340" lon="-5.6671190">
        <ele>564.7</ele>
        <time>2022-05-22T11:29:32Z</time>
      </trkpt>
      <trkpt lat="37.9933160" lon="-5.6671020">
        <ele>564.7</ele>
        <time>2022-05-22T11:29:33Z</time>
      </trkpt>
      <trkpt lat="37.9933100" lon="-5.6670980">
        <ele>564.9</ele>
        <time>2022-05-22T11:29:34Z</time>
      </trkpt>
      <trkpt lat="37.9933040" lon="-5.6670930">
        <ele>564.9</ele>
        <time>2022-05-22T11:29:35Z</time>
      </trkpt>
      <trkpt lat="37.9932930" lon="-5.6670860">
        <ele>564.9</ele>
        <time>2022-05-22T11:29:36Z</time>
      </trkpt>
      <trkpt lat="37.9932800" lon="-5.6670760">
        <ele>564.9</ele>
        <time>2022-05-22T11:29:37Z</time>
      </trkpt>
      <trkpt lat="37.9932730" lon="-5.6670700">
        <ele>564.9</ele>
        <time>2022-05-22T11:29:38Z</time>
      </trkpt>
      <trkpt lat="37.9932640" lon="-5.6670620">
        <ele>564.9</ele>
        <time>2022-05-22T11:29:40Z</time>
      </trkpt>
      <trkpt lat="37.9932550" lon="-5.6670540">
        <ele>565.1</ele>
        <time>2022-05-22T11:29:41Z</time>
      </trkpt>
      <trkpt lat="37.9932470" lon="-5.6670460">
        <ele>565.1</ele>
        <time>2022-05-22T11:29:42Z</time>
      </trkpt>
      <trkpt lat="37.9932380" lon="-5.6670370">
        <ele>565.1</ele>
        <time>2022-05-22T11:29:43Z</time>
      </trkpt>
      <trkpt lat="37.9932370" lon="-5.6670330">
        <ele>565.1</ele>
        <time>2022-05-22T11:29:44Z</time>
      </trkpt>
      <trkpt lat="37.9932350" lon="-5.6670300">
        <ele>565.1</ele>
        <time>2022-05-22T11:29:45Z</time>
      </trkpt>
      <trkpt lat="37.9932310" lon="-5.6670250">
        <ele>565.1</ele>
        <time>2022-05-22T11:29:46Z</time>
      </trkpt>
      <trkpt lat="37.9932210" lon="-5.6670150">
        <ele>565.1</ele>
        <time>2022-05-22T11:29:48Z</time>
      </trkpt>
      <trkpt lat="37.9932150" lon="-5.6670080">
        <ele>565.4</ele>
        <time>2022-05-22T11:29:49Z</time>
      </trkpt>
      <trkpt lat="37.9932100" lon="-5.6670030">
        <ele>565.4</ele>
        <time>2022-05-22T11:29:50Z</time>
      </trkpt>
      <trkpt lat="37.9932060" lon="-5.6669970">
        <ele>565.4</ele>
        <time>2022-05-22T11:29:51Z</time>
      </trkpt>
      <trkpt lat="37.9932010" lon="-5.6669890">
        <ele>565.4</ele>
        <time>2022-05-22T11:29:52Z</time>
      </trkpt>
      <trkpt lat="37.9931920" lon="-5.6669780">
        <ele>565.4</ele>
        <time>2022-05-22T11:29:53Z</time>
      </trkpt>
      <trkpt lat="37.9931860" lon="-5.6669670">
        <ele>565.7</ele>
        <time>2022-05-22T11:29:54Z</time>
      </trkpt>
      <trkpt lat="37.9931770" lon="-5.6669540">
        <ele>565.7</ele>
        <time>2022-05-22T11:29:56Z</time>
      </trkpt>
      <trkpt lat="37.9931700" lon="-5.6669390">
        <ele>565.7</ele>
        <time>2022-05-22T11:29:57Z</time>
      </trkpt>
      <trkpt lat="37.9931630" lon="-5.6669240">
        <ele>565.9</ele>
        <time>2022-05-22T11:29:58Z</time>
      </trkpt>
      <trkpt lat="37.9931550" lon="-5.6669040">
        <ele>565.9</ele>
        <time>2022-05-22T11:29:59Z</time>
      </trkpt>
      <trkpt lat="37.9931520" lon="-5.6668880">
        <ele>566.0</ele>
        <time>2022-05-22T11:30:00Z</time>
      </trkpt>
      <trkpt lat="37.9931510" lon="-5.6668680">
        <ele>566.2</ele>
        <time>2022-05-22T11:30:02Z</time>
      </trkpt>
      <trkpt lat="37.9931570" lon="-5.6668570">
        <ele>566.2</ele>
        <time>2022-05-22T11:30:03Z</time>
      </trkpt>
      <trkpt lat="37.9931610" lon="-5.6668520">
        <ele>566.2</ele>
        <time>2022-05-22T11:30:04Z</time>
      </trkpt>
      <trkpt lat="37.9931590" lon="-5.6668350">
        <ele>566.4</ele>
        <time>2022-05-22T11:30:05Z</time>
      </trkpt>
      <trkpt lat="37.9931560" lon="-5.6668250">
        <ele>566.4</ele>
        <time>2022-05-22T11:30:06Z</time>
      </trkpt>
      <trkpt lat="37.9931540" lon="-5.6668140">
        <ele>566.4</ele>
        <time>2022-05-22T11:30:07Z</time>
      </trkpt>
      <trkpt lat="37.9931510" lon="-5.6668040">
        <ele>566.5</ele>
        <time>2022-05-22T11:30:08Z</time>
      </trkpt>
      <trkpt lat="37.9931480" lon="-5.6667920">
        <ele>566.7</ele>
        <time>2022-05-22T11:30:09Z</time>
      </trkpt>
      <trkpt lat="37.9931460" lon="-5.6667860">
        <ele>566.7</ele>
        <time>2022-05-22T11:30:10Z</time>
      </trkpt>
      <trkpt lat="37.9931460" lon="-5.6667850">
        <ele>566.7</ele>
        <time>2022-05-22T11:30:11Z</time>
      </trkpt>
      <trkpt lat="37.9931420" lon="-5.6667750">
        <ele>566.7</ele>
        <time>2022-05-22T11:30:13Z</time>
      </trkpt>
      <trkpt lat="37.9931400" lon="-5.6667680">
        <ele>566.7</ele>
        <time>2022-05-22T11:30:14Z</time>
      </trkpt>
      <trkpt lat="37.9931360" lon="-5.6667580">
        <ele>566.7</ele>
        <time>2022-05-22T11:30:16Z</time>
      </trkpt>
      <trkpt lat="37.9931330" lon="-5.6667460">
        <ele>566.9</ele>
        <time>2022-05-22T11:30:17Z</time>
      </trkpt>
      <trkpt lat="37.9931300" lon="-5.6667320">
        <ele>566.9</ele>
        <time>2022-05-22T11:30:18Z</time>
      </trkpt>
      <trkpt lat="37.9931300" lon="-5.6667290">
        <ele>566.9</ele>
        <time>2022-05-22T11:30:19Z</time>
      </trkpt>
      <trkpt lat="37.9931290" lon="-5.6667240">
        <ele>566.9</ele>
        <time>2022-05-22T11:30:20Z</time>
      </trkpt>
      <trkpt lat="37.9931250" lon="-5.6667080">
        <ele>567.1</ele>
        <time>2022-05-22T11:30:22Z</time>
      </trkpt>
      <trkpt lat="37.9931230" lon="-5.6667010">
        <ele>567.1</ele>
        <time>2022-05-22T11:30:23Z</time>
      </trkpt>
      <trkpt lat="37.9931210" lon="-5.6666970">
        <ele>567.1</ele>
        <time>2022-05-22T11:30:24Z</time>
      </trkpt>
      <trkpt lat="37.9931170" lon="-5.6666920">
        <ele>567.1</ele>
        <time>2022-05-22T11:30:26Z</time>
      </trkpt>
      <trkpt lat="37.9931110" lon="-5.6666890">
        <ele>567.1</ele>
        <time>2022-05-22T11:30:27Z</time>
      </trkpt>
      <trkpt lat="37.9931020" lon="-5.6666870">
        <ele>567.1</ele>
        <time>2022-05-22T11:30:28Z</time>
      </trkpt>
      <trkpt lat="37.9930900" lon="-5.6666850">
        <ele>567.1</ele>
        <time>2022-05-22T11:30:29Z</time>
      </trkpt>
      <trkpt lat="37.9930800" lon="-5.6666840">
        <ele>567.2</ele>
        <time>2022-05-22T11:30:30Z</time>
      </trkpt>
      <trkpt lat="37.9930690" lon="-5.6666820">
        <ele>567.2</ele>
        <time>2022-05-22T11:30:31Z</time>
      </trkpt>
      <trkpt lat="37.9930530" lon="-5.6666770">
        <ele>567.2</ele>
        <time>2022-05-22T11:30:33Z</time>
      </trkpt>
      <trkpt lat="37.9930380" lon="-5.6666710">
        <ele>567.2</ele>
        <time>2022-05-22T11:30:34Z</time>
      </trkpt>
      <trkpt lat="37.9930270" lon="-5.6666650">
        <ele>567.4</ele>
        <time>2022-05-22T11:30:35Z</time>
      </trkpt>
      <trkpt lat="37.9930070" lon="-5.6666480">
        <ele>567.5</ele>
        <time>2022-05-22T11:30:36Z</time>
      </trkpt>
      <trkpt lat="37.9930000" lon="-5.6666390">
        <ele>567.5</ele>
        <time>2022-05-22T11:30:37Z</time>
      </trkpt>
      <trkpt lat="37.9929920" lon="-5.6666300">
        <ele>567.5</ele>
        <time>2022-05-22T11:30:38Z</time>
      </trkpt>
      <trkpt lat="37.9929840" lon="-5.6666180">
        <ele>567.6</ele>
        <time>2022-05-22T11:30:39Z</time>
      </trkpt>
      <trkpt lat="37.9929730" lon="-5.6666040">
        <ele>567.7</ele>
        <time>2022-05-22T11:30:40Z</time>
      </trkpt>
      <trkpt lat="37.9929630" lon="-5.6665920">
        <ele>567.7</ele>
        <time>2022-05-22T11:30:41Z</time>
      </trkpt>
      <trkpt lat="37.9929500" lon="-5.6665750">
        <ele>567.9</ele>
        <time>2022-05-22T11:30:43Z</time>
      </trkpt>
      <trkpt lat="37.9929380" lon="-5.6665610">
        <ele>567.9</ele>
        <time>2022-05-22T11:30:44Z</time>
      </trkpt>
      <trkpt lat="37.9929290" lon="-5.6665520">
        <ele>567.9</ele>
        <time>2022-05-22T11:30:45Z</time>
      </trkpt>
      <trkpt lat="37.9929120" lon="-5.6665370">
        <ele>568.2</ele>
        <time>2022-05-22T11:30:46Z</time>
      </trkpt>
      <trkpt lat="37.9929040" lon="-5.6665310">
        <ele>568.2</ele>
        <time>2022-05-22T11:30:48Z</time>
      </trkpt>
      <trkpt lat="37.9928970" lon="-5.6665240">
        <ele>568.2</ele>
        <time>2022-05-22T11:30:49Z</time>
      </trkpt>
      <trkpt lat="37.9928920" lon="-5.6665200">
        <ele>568.2</ele>
        <time>2022-05-22T11:30:50Z</time>
      </trkpt>
      <trkpt lat="37.9928870" lon="-5.6665160">
        <ele>568.1</ele>
        <time>2022-05-22T11:30:51Z</time>
      </trkpt>
      <trkpt lat="37.9928810" lon="-5.6665120">
        <ele>568.2</ele>
        <time>2022-05-22T11:30:52Z</time>
      </trkpt>
      <trkpt lat="37.9928720" lon="-5.6665080">
        <ele>568.2</ele>
        <time>2022-05-22T11:30:54Z</time>
      </trkpt>
      <trkpt lat="37.9928640" lon="-5.6665020">
        <ele>568.2</ele>
        <time>2022-05-22T11:30:55Z</time>
      </trkpt>
      <trkpt lat="37.9928530" lon="-5.6664960">
        <ele>568.4</ele>
        <time>2022-05-22T11:30:56Z</time>
      </trkpt>
      <trkpt lat="37.9928410" lon="-5.6664880">
        <ele>568.4</ele>
        <time>2022-05-22T11:30:57Z</time>
      </trkpt>
      <trkpt lat="37.9928280" lon="-5.6664840">
        <ele>568.4</ele>
        <time>2022-05-22T11:30:59Z</time>
      </trkpt>
      <trkpt lat="37.9928250" lon="-5.6664870">
        <ele>568.4</ele>
        <time>2022-05-22T11:31:00Z</time>
      </trkpt>
      <trkpt lat="37.9928200" lon="-5.6664870">
        <ele>568.4</ele>
        <time>2022-05-22T11:31:01Z</time>
      </trkpt>
      <trkpt lat="37.9928160" lon="-5.6664830">
        <ele>568.4</ele>
        <time>2022-05-22T11:31:02Z</time>
      </trkpt>
      <trkpt lat="37.9928040" lon="-5.6664690">
        <ele>568.5</ele>
        <time>2022-05-22T11:31:04Z</time>
      </trkpt>
      <trkpt lat="37.9927980" lon="-5.6664600">
        <ele>568.5</ele>
        <time>2022-05-22T11:31:05Z</time>
      </trkpt>
      <trkpt lat="37.9927940" lon="-5.6664520">
        <ele>568.7</ele>
        <time>2022-05-22T11:31:06Z</time>
      </trkpt>
      <trkpt lat="37.9927890" lon="-5.6664420">
        <ele>568.7</ele>
        <time>2022-05-22T11:31:07Z</time>
      </trkpt>
      <trkpt lat="37.9927790" lon="-5.6664280">
        <ele>568.7</ele>
        <time>2022-05-22T11:31:09Z</time>
      </trkpt>
      <trkpt lat="37.9927740" lon="-5.6664180">
        <ele>568.7</ele>
        <time>2022-05-22T11:31:10Z</time>
      </trkpt>
      <trkpt lat="37.9927680" lon="-5.6664070">
        <ele>568.9</ele>
        <time>2022-05-22T11:31:11Z</time>
      </trkpt>
      <trkpt lat="37.9927600" lon="-5.6663940">
        <ele>568.9</ele>
        <time>2022-05-22T11:31:12Z</time>
      </trkpt>
      <trkpt lat="37.9927470" lon="-5.6663730">
        <ele>568.9</ele>
        <time>2022-05-22T11:31:13Z</time>
      </trkpt>
      <trkpt lat="37.9927420" lon="-5.6663650">
        <ele>569.1</ele>
        <time>2022-05-22T11:31:14Z</time>
      </trkpt>
      <trkpt lat="37.9927370" lon="-5.6663570">
        <ele>569.1</ele>
        <time>2022-05-22T11:31:15Z</time>
      </trkpt>
      <trkpt lat="37.9927240" lon="-5.6663360">
        <ele>569.1</ele>
        <time>2022-05-22T11:31:16Z</time>
      </trkpt>
      <trkpt lat="37.9927180" lon="-5.6663270">
        <ele>569.3</ele>
        <time>2022-05-22T11:31:17Z</time>
      </trkpt>
      <trkpt lat="37.9927130" lon="-5.6663170">
        <ele>569.3</ele>
        <time>2022-05-22T11:31:18Z</time>
      </trkpt>
      <trkpt lat="37.9927080" lon="-5.6663070">
        <ele>569.3</ele>
        <time>2022-05-22T11:31:19Z</time>
      </trkpt>
      <trkpt lat="37.9927020" lon="-5.6662950">
        <ele>569.3</ele>
        <time>2022-05-22T11:31:20Z</time>
      </trkpt>
      <trkpt lat="37.9926960" lon="-5.6662830">
        <ele>569.4</ele>
        <time>2022-05-22T11:31:21Z</time>
      </trkpt>
      <trkpt lat="37.9926940" lon="-5.6662780">
        <ele>569.4</ele>
        <time>2022-05-22T11:31:22Z</time>
      </trkpt>
      <trkpt lat="37.9926880" lon="-5.6662690">
        <ele>569.4</ele>
        <time>2022-05-22T11:31:24Z</time>
      </trkpt>
      <trkpt lat="37.9926810" lon="-5.6662580">
        <ele>569.4</ele>
        <time>2022-05-22T11:31:25Z</time>
      </trkpt>
      <trkpt lat="37.9926800" lon="-5.6662580">
        <ele>569.4</ele>
        <time>2022-05-22T11:31:27Z</time>
      </trkpt>
      <trkpt lat="37.9926750" lon="-5.6662530">
        <ele>569.4</ele>
        <time>2022-05-22T11:31:28Z</time>
      </trkpt>
      <trkpt lat="37.9926700" lon="-5.6662470">
        <ele>569.4</ele>
        <time>2022-05-22T11:31:29Z</time>
      </trkpt>
      <trkpt lat="37.9926660" lon="-5.6662400">
        <ele>569.5</ele>
        <time>2022-05-22T11:31:30Z</time>
      </trkpt>
      <trkpt lat="37.9926610" lon="-5.6662310">
        <ele>569.5</ele>
        <time>2022-05-22T11:31:31Z</time>
      </trkpt>
      <trkpt lat="37.9926570" lon="-5.6662200">
        <ele>569.5</ele>
        <time>2022-05-22T11:31:32Z</time>
      </trkpt>
      <trkpt lat="37.9926540" lon="-5.6662090">
        <ele>569.5</ele>
        <time>2022-05-22T11:31:34Z</time>
      </trkpt>
      <trkpt lat="37.9926520" lon="-5.6662020">
        <ele>569.5</ele>
        <time>2022-05-22T11:31:35Z</time>
      </trkpt>
      <trkpt lat="37.9926480" lon="-5.6661910">
        <ele>569.6</ele>
        <time>2022-05-22T11:31:36Z</time>
      </trkpt>
      <trkpt lat="37.9926440" lon="-5.6661830">
        <ele>569.6</ele>
        <time>2022-05-22T11:31:37Z</time>
      </trkpt>
      <trkpt lat="37.9926380" lon="-5.6661710">
        <ele>569.6</ele>
        <time>2022-05-22T11:31:38Z</time>
      </trkpt>
      <trkpt lat="37.9926320" lon="-5.6661610">
        <ele>569.6</ele>
        <time>2022-05-22T11:31:40Z</time>
      </trkpt>
      <trkpt lat="37.9926280" lon="-5.6661510">
        <ele>569.7</ele>
        <time>2022-05-22T11:31:41Z</time>
      </trkpt>
      <trkpt lat="37.9926190" lon="-5.6661290">
        <ele>569.7</ele>
        <time>2022-05-22T11:31:42Z</time>
      </trkpt>
      <trkpt lat="37.9926160" lon="-5.6661190">
        <ele>569.7</ele>
        <time>2022-05-22T11:31:43Z</time>
      </trkpt>
      <trkpt lat="37.9926130" lon="-5.6661090">
        <ele>569.7</ele>
        <time>2022-05-22T11:31:44Z</time>
      </trkpt>
      <trkpt lat="37.9926090" lon="-5.6660960">
        <ele>569.7</ele>
        <time>2022-05-22T11:31:45Z</time>
      </trkpt>
      <trkpt lat="37.9926050" lon="-5.6660810">
        <ele>569.7</ele>
        <time>2022-05-22T11:31:46Z</time>
      </trkpt>
      <trkpt lat="37.9926000" lon="-5.6660670">
        <ele>569.8</ele>
        <time>2022-05-22T11:31:47Z</time>
      </trkpt>
      <trkpt lat="37.9925840" lon="-5.6660470">
        <ele>569.8</ele>
        <time>2022-05-22T11:31:48Z</time>
      </trkpt>
      <trkpt lat="37.9925760" lon="-5.6660420">
        <ele>569.9</ele>
        <time>2022-05-22T11:31:50Z</time>
      </trkpt>
      <trkpt lat="37.9925680" lon="-5.6660370">
        <ele>569.8</ele>
        <time>2022-05-22T11:31:51Z</time>
      </trkpt>
      <trkpt lat="37.9925550" lon="-5.6660330">
        <ele>569.8</ele>
        <time>2022-05-22T11:31:52Z</time>
      </trkpt>
      <trkpt lat="37.9925410" lon="-5.6660280">
        <ele>569.9</ele>
        <time>2022-05-22T11:31:53Z</time>
      </trkpt>
      <trkpt lat="37.9925240" lon="-5.6660210">
        <ele>570.0</ele>
        <time>2022-05-22T11:31:54Z</time>
      </trkpt>
      <trkpt lat="37.9925130" lon="-5.6660170">
        <ele>570.0</ele>
        <time>2022-05-22T11:31:55Z</time>
      </trkpt>
      <trkpt lat="37.9924910" lon="-5.6660150">
        <ele>570.1</ele>
        <time>2022-05-22T11:31:56Z</time>
      </trkpt>
      <trkpt lat="37.9924820" lon="-5.6660150">
        <ele>570.1</ele>
        <time>2022-05-22T11:31:57Z</time>
      </trkpt>
      <trkpt lat="37.9924730" lon="-5.6660140">
        <ele>570.1</ele>
        <time>2022-05-22T11:31:58Z</time>
      </trkpt>
      <trkpt lat="37.9924620" lon="-5.6660110">
        <ele>570.1</ele>
        <time>2022-05-22T11:32:00Z</time>
      </trkpt>
      <trkpt lat="37.9924510" lon="-5.6660080">
        <ele>570.1</ele>
        <time>2022-05-22T11:32:01Z</time>
      </trkpt>
      <trkpt lat="37.9924400" lon="-5.6660050">
        <ele>570.2</ele>
        <time>2022-05-22T11:32:02Z</time>
      </trkpt>
      <trkpt lat="37.9924280" lon="-5.6659990">
        <ele>570.2</ele>
        <time>2022-05-22T11:32:03Z</time>
      </trkpt>
      <trkpt lat="37.9924180" lon="-5.6659910">
        <ele>570.2</ele>
        <time>2022-05-22T11:32:04Z</time>
      </trkpt>
      <trkpt lat="37.9924100" lon="-5.6659860">
        <ele>570.2</ele>
        <time>2022-05-22T11:32:05Z</time>
      </trkpt>
      <trkpt lat="37.9924020" lon="-5.6659790">
        <ele>570.2</ele>
        <time>2022-05-22T11:32:06Z</time>
      </trkpt>
      <trkpt lat="37.9923940" lon="-5.6659710">
        <ele>570.2</ele>
        <time>2022-05-22T11:32:07Z</time>
      </trkpt>
      <trkpt lat="37.9923830" lon="-5.6659620">
        <ele>570.3</ele>
        <time>2022-05-22T11:32:08Z</time>
      </trkpt>
      <trkpt lat="37.9923690" lon="-5.6659490">
        <ele>570.3</ele>
        <time>2022-05-22T11:32:09Z</time>
      </trkpt>
      <trkpt lat="37.9923610" lon="-5.6659380">
        <ele>570.3</ele>
        <time>2022-05-22T11:32:11Z</time>
      </trkpt>
      <trkpt lat="37.9923530" lon="-5.6659240">
        <ele>570.3</ele>
        <time>2022-05-22T11:32:12Z</time>
      </trkpt>
      <trkpt lat="37.9923440" lon="-5.6659100">
        <ele>570.4</ele>
        <time>2022-05-22T11:32:13Z</time>
      </trkpt>
      <trkpt lat="37.9923310" lon="-5.6658910">
        <ele>570.4</ele>
        <time>2022-05-22T11:32:14Z</time>
      </trkpt>
      <trkpt lat="37.9923270" lon="-5.6658820">
        <ele>570.4</ele>
        <time>2022-05-22T11:32:15Z</time>
      </trkpt>
      <trkpt lat="37.9923220" lon="-5.6658730">
        <ele>570.4</ele>
        <time>2022-05-22T11:32:16Z</time>
      </trkpt>
      <trkpt lat="37.9923170" lon="-5.6658540">
        <ele>570.5</ele>
        <time>2022-05-22T11:32:17Z</time>
      </trkpt>
      <trkpt lat="37.9923150" lon="-5.6658370">
        <ele>570.5</ele>
        <time>2022-05-22T11:32:18Z</time>
      </trkpt>
      <trkpt lat="37.9923140" lon="-5.6658210">
        <ele>570.5</ele>
        <time>2022-05-22T11:32:19Z</time>
      </trkpt>
      <trkpt lat="37.9923140" lon="-5.6658020">
        <ele>570.6</ele>
        <time>2022-05-22T11:32:20Z</time>
      </trkpt>
      <trkpt lat="37.9923150" lon="-5.6657820">
        <ele>570.6</ele>
        <time>2022-05-22T11:32:22Z</time>
      </trkpt>
      <trkpt lat="37.9923120" lon="-5.6657620">
        <ele>570.6</ele>
        <time>2022-05-22T11:32:23Z</time>
      </trkpt>
      <trkpt lat="37.9923050" lon="-5.6657430">
        <ele>570.6</ele>
        <time>2022-05-22T11:32:24Z</time>
      </trkpt>
      <trkpt lat="37.9923010" lon="-5.6657300">
        <ele>570.7</ele>
        <time>2022-05-22T11:32:25Z</time>
      </trkpt>
      <trkpt lat="37.9922960" lon="-5.6657040">
        <ele>570.7</ele>
        <time>2022-05-22T11:32:26Z</time>
      </trkpt>
      <trkpt lat="37.9922940" lon="-5.6656940">
        <ele>570.7</ele>
        <time>2022-05-22T11:32:27Z</time>
      </trkpt>
      <trkpt lat="37.9922920" lon="-5.6656840">
        <ele>570.7</ele>
        <time>2022-05-22T11:32:28Z</time>
      </trkpt>
      <trkpt lat="37.9922810" lon="-5.6656600">
        <ele>570.7</ele>
        <time>2022-05-22T11:32:29Z</time>
      </trkpt>
      <trkpt lat="37.9922770" lon="-5.6656520">
        <ele>570.8</ele>
        <time>2022-05-22T11:32:30Z</time>
      </trkpt>
      <trkpt lat="37.9922730" lon="-5.6656450">
        <ele>570.8</ele>
        <time>2022-05-22T11:32:31Z</time>
      </trkpt>
      <trkpt lat="37.9922640" lon="-5.6656310">
        <ele>570.8</ele>
        <time>2022-05-22T11:32:32Z</time>
      </trkpt>
      <trkpt lat="37.9922530" lon="-5.6656160">
        <ele>570.8</ele>
        <time>2022-05-22T11:32:34Z</time>
      </trkpt>
      <trkpt lat="37.9922490" lon="-5.6656050">
        <ele>570.8</ele>
        <time>2022-05-22T11:32:35Z</time>
      </trkpt>
      <trkpt lat="37.9922440" lon="-5.6655920">
        <ele>570.8</ele>
        <time>2022-05-22T11:32:36Z</time>
      </trkpt>
      <trkpt lat="37.9922410" lon="-5.6655780">
        <ele>570.8</ele>
        <time>2022-05-22T11:32:37Z</time>
      </trkpt>
      <trkpt lat="37.9922360" lon="-5.6655560">
        <ele>570.9</ele>
        <time>2022-05-22T11:32:38Z</time>
      </trkpt>
      <trkpt lat="37.9922310" lon="-5.6655430">
        <ele>570.9</ele>
        <time>2022-05-22T11:32:39Z</time>
      </trkpt>
      <trkpt lat="37.9922270" lon="-5.6655310">
        <ele>570.9</ele>
        <time>2022-05-22T11:32:40Z</time>
      </trkpt>
      <trkpt lat="37.9922220" lon="-5.6655190">
        <ele>570.9</ele>
        <time>2022-05-22T11:32:41Z</time>
      </trkpt>
      <trkpt lat="37.9922180" lon="-5.6655050">
        <ele>570.9</ele>
        <time>2022-05-22T11:32:42Z</time>
      </trkpt>
      <trkpt lat="37.9922120" lon="-5.6654800">
        <ele>571.0</ele>
        <time>2022-05-22T11:32:44Z</time>
      </trkpt>
      <trkpt lat="37.9922060" lon="-5.6654690">
        <ele>571.0</ele>
        <time>2022-05-22T11:32:45Z</time>
      </trkpt>
      <trkpt lat="37.9921960" lon="-5.6654470">
        <ele>571.0</ele>
        <time>2022-05-22T11:32:46Z</time>
      </trkpt>
      <trkpt lat="37.9921920" lon="-5.6654390">
        <ele>571.0</ele>
        <time>2022-05-22T11:32:47Z</time>
      </trkpt>
      <trkpt lat="37.9921880" lon="-5.6654300">
        <ele>571.0</ele>
        <time>2022-05-22T11:32:48Z</time>
      </trkpt>
      <trkpt lat="37.9921750" lon="-5.6653970">
        <ele>571.0</ele>
        <time>2022-05-22T11:32:49Z</time>
      </trkpt>
      <trkpt lat="37.9921700" lon="-5.6653840">
        <ele>571.1</ele>
        <time>2022-05-22T11:32:51Z</time>
      </trkpt>
      <trkpt lat="37.9921660" lon="-5.6653710">
        <ele>571.1</ele>
        <time>2022-05-22T11:32:52Z</time>
      </trkpt>
      <trkpt lat="37.9921610" lon="-5.6653580">
        <ele>571.1</ele>
        <time>2022-05-22T11:32:53Z</time>
      </trkpt>
      <trkpt lat="37.9921560" lon="-5.6653450">
        <ele>571.1</ele>
        <time>2022-05-22T11:32:54Z</time>
      </trkpt>
      <trkpt lat="37.9921440" lon="-5.6653250">
        <ele>571.1</ele>
        <time>2022-05-22T11:32:55Z</time>
      </trkpt>
      <trkpt lat="37.9921380" lon="-5.6653160">
        <ele>571.1</ele>
        <time>2022-05-22T11:32:57Z</time>
      </trkpt>
      <trkpt lat="37.9921320" lon="-5.6653070">
        <ele>571.2</ele>
        <time>2022-05-22T11:32:58Z</time>
      </trkpt>
      <trkpt lat="37.9921220" lon="-5.6652920">
        <ele>571.2</ele>
        <time>2022-05-22T11:32:59Z</time>
      </trkpt>
      <trkpt lat="37.9921130" lon="-5.6652790">
        <ele>571.2</ele>
        <time>2022-05-22T11:33:00Z</time>
      </trkpt>
      <trkpt lat="37.9921070" lon="-5.6652700">
        <ele>571.2</ele>
        <time>2022-05-22T11:33:01Z</time>
      </trkpt>
      <trkpt lat="37.9920990" lon="-5.6652600">
        <ele>571.2</ele>
        <time>2022-05-22T11:33:02Z</time>
      </trkpt>
      <trkpt lat="37.9920920" lon="-5.6652500">
        <ele>571.2</ele>
        <time>2022-05-22T11:33:03Z</time>
      </trkpt>
      <trkpt lat="37.9920760" lon="-5.6652280">
        <ele>571.3</ele>
        <time>2022-05-22T11:33:05Z</time>
      </trkpt>
      <trkpt lat="37.9920690" lon="-5.6652190">
        <ele>571.3</ele>
        <time>2022-05-22T11:33:06Z</time>
      </trkpt>
      <trkpt lat="37.9920600" lon="-5.6652070">
        <ele>571.3</ele>
        <time>2022-05-22T11:33:08Z</time>
      </trkpt>
      <trkpt lat="37.9920500" lon="-5.6651990">
        <ele>571.3</ele>
        <time>2022-05-22T11:33:09Z</time>
      </trkpt>
      <trkpt lat="37.9920330" lon="-5.6651940">
        <ele>571.3</ele>
        <time>2022-05-22T11:33:11Z</time>
      </trkpt>
      <trkpt lat="37.9920240" lon="-5.6651900">
        <ele>571.3</ele>
        <time>2022-05-22T11:33:12Z</time>
      </trkpt>
      <trkpt lat="37.9920290" lon="-5.6652050">
        <ele>571.3</ele>
        <time>2022-05-22T11:33:13Z</time>
      </trkpt>
      <trkpt lat="37.9920330" lon="-5.6652130">
        <ele>571.3</ele>
        <time>2022-05-22T11:33:14Z</time>
      </trkpt>
      <trkpt lat="37.9920430" lon="-5.6652220">
        <ele>571.3</ele>
        <time>2022-05-22T11:33:16Z</time>
      </trkpt>
      <trkpt lat="37.9920480" lon="-5.6652310">
        <ele>571.3</ele>
        <time>2022-05-22T11:33:17Z</time>
      </trkpt>
      <trkpt lat="37.9920490" lon="-5.6652400">
        <ele>571.3</ele>
        <time>2022-05-22T11:33:18Z</time>
      </trkpt>
      <trkpt lat="37.9920520" lon="-5.6652470">
        <ele>571.3</ele>
        <time>2022-05-22T11:33:19Z</time>
      </trkpt>
      <trkpt lat="37.9920570" lon="-5.6652540">
        <ele>571.3</ele>
        <time>2022-05-22T11:33:21Z</time>
      </trkpt>
      <trkpt lat="37.9920590" lon="-5.6652630">
        <ele>571.3</ele>
        <time>2022-05-22T11:33:22Z</time>
      </trkpt>
      <trkpt lat="37.9920580" lon="-5.6652760">
        <ele>571.3</ele>
        <time>2022-05-22T11:33:23Z</time>
      </trkpt>
      <trkpt lat="37.9920550" lon="-5.6653010">
        <ele>571.3</ele>
        <time>2022-05-22T11:33:24Z</time>
      </trkpt>
      <trkpt lat="37.9920500" lon="-5.6653270">
        <ele>571.3</ele>
        <time>2022-05-22T11:33:26Z</time>
      </trkpt>
      <trkpt lat="37.9920470" lon="-5.6653410">
        <ele>571.2</ele>
        <time>2022-05-22T11:33:27Z</time>
      </trkpt>
      <trkpt lat="37.9920430" lon="-5.6653580">
        <ele>571.2</ele>
        <time>2022-05-22T11:33:28Z</time>
      </trkpt>
      <trkpt lat="37.9920410" lon="-5.6653820">
        <ele>571.2</ele>
        <time>2022-05-22T11:33:29Z</time>
      </trkpt>
      <trkpt lat="37.9920410" lon="-5.6653950">
        <ele>571.2</ele>
        <time>2022-05-22T11:33:30Z</time>
      </trkpt>
      <trkpt lat="37.9920390" lon="-5.6654090">
        <ele>571.2</ele>
        <time>2022-05-22T11:33:31Z</time>
      </trkpt>
      <trkpt lat="37.9920350" lon="-5.6654220">
        <ele>571.2</ele>
        <time>2022-05-22T11:33:32Z</time>
      </trkpt>
      <trkpt lat="37.9920320" lon="-5.6654330">
        <ele>571.2</ele>
        <time>2022-05-22T11:33:33Z</time>
      </trkpt>
      <trkpt lat="37.9920250" lon="-5.6654500">
        <ele>571.2</ele>
        <time>2022-05-22T11:33:34Z</time>
      </trkpt>
      <trkpt lat="37.9920220" lon="-5.6654600">
        <ele>571.2</ele>
        <time>2022-05-22T11:33:35Z</time>
      </trkpt>
      <trkpt lat="37.9920210" lon="-5.6654690">
        <ele>571.2</ele>
        <time>2022-05-22T11:33:36Z</time>
      </trkpt>
      <trkpt lat="37.9920190" lon="-5.6654690">
        <ele>571.2</ele>
        <time>2022-05-22T11:33:37Z</time>
      </trkpt>
      <trkpt lat="37.9920150" lon="-5.6654590">
        <ele>571.2</ele>
        <time>2022-05-22T11:33:38Z</time>
      </trkpt>
      <trkpt lat="37.9920140" lon="-5.6654560">
        <ele>571.2</ele>
        <time>2022-05-22T11:33:39Z</time>
      </trkpt>
      <trkpt lat="37.9920140" lon="-5.6654560">
        <ele>571.2</ele>
        <time>2022-05-22T11:33:40Z</time>
      </trkpt>
      <trkpt lat="37.9920140" lon="-5.6654540">
        <ele>571.2</ele>
        <time>2022-05-22T11:33:41Z</time>
      </trkpt>
      <trkpt lat="37.9920160" lon="-5.6654500">
        <ele>571.2</ele>
        <time>2022-05-22T11:33:43Z</time>
      </trkpt>
      <trkpt lat="37.9920200" lon="-5.6654470">
        <ele>571.2</ele>
        <time>2022-05-22T11:33:44Z</time>
      </trkpt>
      <trkpt lat="37.9920160" lon="-5.6654450">
        <ele>571.2</ele>
        <time>2022-05-22T11:33:45Z</time>
      </trkpt>
      <trkpt lat="37.9920040" lon="-5.6654460">
        <ele>571.2</ele>
        <time>2022-05-22T11:33:46Z</time>
      </trkpt>
      <trkpt lat="37.9919930" lon="-5.6654470">
        <ele>571.2</ele>
        <time>2022-05-22T11:33:47Z</time>
      </trkpt>
      <trkpt lat="37.9919920" lon="-5.6654490">
        <ele>571.2</ele>
        <time>2022-05-22T11:33:48Z</time>
      </trkpt>
      <trkpt lat="37.9919970" lon="-5.6654510">
        <ele>571.2</ele>
        <time>2022-05-22T11:33:49Z</time>
      </trkpt>
      <trkpt lat="37.9920030" lon="-5.6654540">
        <ele>571.1</ele>
        <time>2022-05-22T11:33:50Z</time>
      </trkpt>
      <trkpt lat="37.9920080" lon="-5.6654570">
        <ele>571.1</ele>
        <time>2022-05-22T11:33:51Z</time>
      </trkpt>
      <trkpt lat="37.9920130" lon="-5.6654590">
        <ele>571.1</ele>
        <time>2022-05-22T11:33:52Z</time>
      </trkpt>
      <trkpt lat="37.9920190" lon="-5.6654620">
        <ele>571.1</ele>
        <time>2022-05-22T11:33:53Z</time>
      </trkpt>
      <trkpt lat="37.9920240" lon="-5.6654640">
        <ele>571.1</ele>
        <time>2022-05-22T11:33:54Z</time>
      </trkpt>
      <trkpt lat="37.9920290" lon="-5.6654670">
        <ele>571.1</ele>
        <time>2022-05-22T11:33:55Z</time>
      </trkpt>
      <trkpt lat="37.9920350" lon="-5.6654690">
        <ele>571.1</ele>
        <time>2022-05-22T11:33:56Z</time>
      </trkpt>
      <trkpt lat="37.9920400" lon="-5.6654720">
        <ele>571.1</ele>
        <time>2022-05-22T11:33:58Z</time>
      </trkpt>
      <trkpt lat="37.9920450" lon="-5.6654740">
        <ele>571.1</ele>
        <time>2022-05-22T11:33:59Z</time>
      </trkpt>
      <trkpt lat="37.9920510" lon="-5.6654770">
        <ele>571.1</ele>
        <time>2022-05-22T11:34:00Z</time>
      </trkpt>
      <trkpt lat="37.9920560" lon="-5.6654790">
        <ele>571.1</ele>
        <time>2022-05-22T11:34:01Z</time>
      </trkpt>
      <trkpt lat="37.9920650" lon="-5.6654890">
        <ele>571.1</ele>
        <time>2022-05-22T11:34:02Z</time>
      </trkpt>
      <trkpt lat="37.9920860" lon="-5.6655110">
        <ele>571.1</ele>
        <time>2022-05-22T11:34:04Z</time>
      </trkpt>
      <trkpt lat="37.9920950" lon="-5.6655190">
        <ele>571.1</ele>
        <time>2022-05-22T11:34:06Z</time>
      </trkpt>
      <trkpt lat="37.9921050" lon="-5.6655270">
        <ele>571.1</ele>
        <time>2022-05-22T11:34:07Z</time>
      </trkpt>
      <trkpt lat="37.9921150" lon="-5.6655340">
        <ele>571.1</ele>
        <time>2022-05-22T11:34:08Z</time>
      </trkpt>
      <trkpt lat="37.9921270" lon="-5.6655430">
        <ele>571.1</ele>
        <time>2022-05-22T11:34:09Z</time>
      </trkpt>
      <trkpt lat="37.9921350" lon="-5.6655500">
        <ele>571.1</ele>
        <time>2022-05-22T11:34:10Z</time>
      </trkpt>
      <trkpt lat="37.9921450" lon="-5.6655550">
        <ele>571.1</ele>
        <time>2022-05-22T11:34:11Z</time>
      </trkpt>
      <trkpt lat="37.9921540" lon="-5.6655590">
        <ele>571.0</ele>
        <time>2022-05-22T11:34:13Z</time>
      </trkpt>
      <trkpt lat="37.9921640" lon="-5.6655630">
        <ele>571.0</ele>
        <time>2022-05-22T11:34:14Z</time>
      </trkpt>
      <trkpt lat="37.9921730" lon="-5.6655660">
        <ele>571.0</ele>
        <time>2022-05-22T11:34:15Z</time>
      </trkpt>
      <trkpt lat="37.9921830" lon="-5.6655670">
        <ele>571.0</ele>
        <time>2022-05-22T11:34:16Z</time>
      </trkpt>
      <trkpt lat="37.9921920" lon="-5.6655690">
        <ele>571.0</ele>
        <time>2022-05-22T11:34:17Z</time>
      </trkpt>
      <trkpt lat="37.9922020" lon="-5.6655690">
        <ele>570.9</ele>
        <time>2022-05-22T11:34:18Z</time>
      </trkpt>
      <trkpt lat="37.9922130" lon="-5.6655680">
        <ele>570.9</ele>
        <time>2022-05-22T11:34:19Z</time>
      </trkpt>
      <trkpt lat="37.9911440" lon="-5.6665880">
        <ele>568.1</ele>
        <time>2022-05-22T11:36:30Z</time>
      </trkpt>
      <trkpt lat="37.9911630" lon="-5.6664370">
        <ele>567.7</ele>
        <time>2022-05-22T11:36:31Z</time>
      </trkpt>
      <trkpt lat="37.9911620" lon="-5.6664420">
        <ele>567.7</ele>
        <time>2022-05-22T11:36:32Z</time>
      </trkpt>
      <trkpt lat="37.9911530" lon="-5.6664800">
        <ele>567.6</ele>
        <time>2022-05-22T11:36:33Z</time>
      </trkpt>
      <trkpt lat="37.9911510" lon="-5.6664900">
        <ele>567.6</ele>
        <time>2022-05-22T11:36:34Z</time>
      </trkpt>
      <trkpt lat="37.9911420" lon="-5.6664970">
        <ele>567.5</ele>
        <time>2022-05-22T11:36:35Z</time>
      </trkpt>
      <trkpt lat="37.9911330" lon="-5.6665030">
        <ele>567.5</ele>
        <time>2022-05-22T11:36:36Z</time>
      </trkpt>
      <trkpt lat="37.9911240" lon="-5.6665090">
        <ele>567.5</ele>
        <time>2022-05-22T11:36:37Z</time>
      </trkpt>
      <trkpt lat="37.9911150" lon="-5.6665150">
        <ele>567.4</ele>
        <time>2022-05-22T11:36:38Z</time>
      </trkpt>
      <trkpt lat="37.9910850" lon="-5.6665230">
        <ele>567.3</ele>
        <time>2022-05-22T11:36:40Z</time>
      </trkpt>
      <trkpt lat="37.9910750" lon="-5.6665290">
        <ele>567.3</ele>
        <time>2022-05-22T11:36:41Z</time>
      </trkpt>
      <trkpt lat="37.9910390" lon="-5.6665620">
        <ele>567.1</ele>
        <time>2022-05-22T11:36:42Z</time>
      </trkpt>
      <trkpt lat="37.9910270" lon="-5.6665670">
        <ele>567.1</ele>
        <time>2022-05-22T11:36:43Z</time>
      </trkpt>
      <trkpt lat="37.9910220" lon="-5.6665670">
        <ele>567.1</ele>
        <time>2022-05-22T11:36:44Z</time>
      </trkpt>
      <trkpt lat="37.9910240" lon="-5.6665650">
        <ele>567.0</ele>
        <time>2022-05-22T11:36:45Z</time>
      </trkpt>
      <trkpt lat="37.9910270" lon="-5.6665560">
        <ele>567.0</ele>
        <time>2022-05-22T11:36:47Z</time>
      </trkpt>
      <trkpt lat="37.9910290" lon="-5.6665490">
        <ele>567.0</ele>
        <time>2022-05-22T11:36:48Z</time>
      </trkpt>
      <trkpt lat="37.9910320" lon="-5.6665430">
        <ele>567.0</ele>
        <time>2022-05-22T11:36:49Z</time>
      </trkpt>
      <trkpt lat="37.9910320" lon="-5.6665410">
        <ele>567.0</ele>
        <time>2022-05-22T11:36:50Z</time>
      </trkpt>
      <trkpt lat="37.9910310" lon="-5.6665390">
        <ele>567.0</ele>
        <time>2022-05-22T11:36:51Z</time>
      </trkpt>
      <trkpt lat="37.9910300" lon="-5.6665350">
        <ele>567.0</ele>
        <time>2022-05-22T11:36:52Z</time>
      </trkpt>
      <trkpt lat="37.9910230" lon="-5.6665290">
        <ele>566.9</ele>
        <time>2022-05-22T11:36:53Z</time>
      </trkpt>
      <trkpt lat="37.9910120" lon="-5.6665200">
        <ele>566.9</ele>
        <time>2022-05-22T11:36:54Z</time>
      </trkpt>
      <trkpt lat="37.9910050" lon="-5.6665160">
        <ele>566.9</ele>
        <time>2022-05-22T11:36:56Z</time>
      </trkpt>
      <trkpt lat="37.9909970" lon="-5.6665130">
        <ele>566.8</ele>
        <time>2022-05-22T11:36:57Z</time>
      </trkpt>
      <trkpt lat="37.9909890" lon="-5.6665090">
        <ele>566.8</ele>
        <time>2022-05-22T11:36:58Z</time>
      </trkpt>
      <trkpt lat="37.9909410" lon="-5.6665450">
        <ele>566.6</ele>
        <time>2022-05-22T11:37:00Z</time>
      </trkpt>
      <trkpt lat="37.9909190" lon="-5.6665730">
        <ele>566.5</ele>
        <time>2022-05-22T11:37:01Z</time>
      </trkpt>
      <trkpt lat="37.9908780" lon="-5.6666380">
        <ele>566.3</ele>
        <time>2022-05-22T11:37:02Z</time>
      </trkpt>
      <trkpt lat="37.9908580" lon="-5.6666710">
        <ele>566.2</ele>
        <time>2022-05-22T11:37:03Z</time>
      </trkpt>
      <trkpt lat="37.9908480" lon="-5.6666780">
        <ele>566.2</ele>
        <time>2022-05-22T11:37:04Z</time>
      </trkpt>
      <trkpt lat="37.9908410" lon="-5.6666800">
        <ele>566.1</ele>
        <time>2022-05-22T11:37:05Z</time>
      </trkpt>
      <trkpt lat="37.9908340" lon="-5.6666820">
        <ele>566.1</ele>
        <time>2022-05-22T11:37:07Z</time>
      </trkpt>
      <trkpt lat="37.9908280" lon="-5.6666840">
        <ele>566.1</ele>
        <time>2022-05-22T11:37:08Z</time>
      </trkpt>
      <trkpt lat="37.9908210" lon="-5.6666860">
        <ele>566.1</ele>
        <time>2022-05-22T11:37:09Z</time>
      </trkpt>
      <trkpt lat="37.9908110" lon="-5.6666880">
        <ele>566.1</ele>
        <time>2022-05-22T11:37:10Z</time>
      </trkpt>
      <trkpt lat="37.9908010" lon="-5.6666920">
        <ele>566.0</ele>
        <time>2022-05-22T11:37:11Z</time>
      </trkpt>
      <trkpt lat="37.9907900" lon="-5.6666960">
        <ele>566.0</ele>
        <time>2022-05-22T11:37:12Z</time>
      </trkpt>
      <trkpt lat="37.9907690" lon="-5.6667050">
        <ele>565.9</ele>
        <time>2022-05-22T11:37:13Z</time>
      </trkpt>
      <trkpt lat="37.9907610" lon="-5.6667080">
        <ele>565.9</ele>
        <time>2022-05-22T11:37:14Z</time>
      </trkpt>
      <trkpt lat="37.9907530" lon="-5.6667120">
        <ele>565.9</ele>
        <time>2022-05-22T11:37:15Z</time>
      </trkpt>
      <trkpt lat="37.9907410" lon="-5.6667200">
        <ele>565.9</ele>
        <time>2022-05-22T11:37:16Z</time>
      </trkpt>
      <trkpt lat="37.9907290" lon="-5.6667290">
        <ele>565.8</ele>
        <time>2022-05-22T11:37:17Z</time>
      </trkpt>
      <trkpt lat="37.9907150" lon="-5.6667410">
        <ele>565.8</ele>
        <time>2022-05-22T11:37:18Z</time>
      </trkpt>
      <trkpt lat="37.9907030" lon="-5.6667510">
        <ele>565.7</ele>
        <time>2022-05-22T11:37:19Z</time>
      </trkpt>
      <trkpt lat="37.9906920" lon="-5.6667620">
        <ele>565.7</ele>
        <time>2022-05-22T11:37:20Z</time>
      </trkpt>
      <trkpt lat="37.9906780" lon="-5.6667770">
        <ele>565.7</ele>
        <time>2022-05-22T11:37:21Z</time>
      </trkpt>
      <trkpt lat="37.9906680" lon="-5.6668090">
        <ele>565.6</ele>
        <time>2022-05-22T11:37:22Z</time>
      </trkpt>
      <trkpt lat="37.9906690" lon="-5.6668270">
        <ele>565.5</ele>
        <time>2022-05-22T11:37:23Z</time>
      </trkpt>
      <trkpt lat="37.9906770" lon="-5.6668530">
        <ele>565.5</ele>
        <time>2022-05-22T11:37:24Z</time>
      </trkpt>
      <trkpt lat="37.9906740" lon="-5.6668730">
        <ele>565.4</ele>
        <time>2022-05-22T11:37:26Z</time>
      </trkpt>
      <trkpt lat="37.9906750" lon="-5.6668870">
        <ele>565.4</ele>
        <time>2022-05-22T11:37:27Z</time>
      </trkpt>
      <trkpt lat="37.9906850" lon="-5.6669080">
        <ele>565.4</ele>
        <time>2022-05-22T11:37:29Z</time>
      </trkpt>
      <trkpt lat="37.9906860" lon="-5.6669160">
        <ele>565.3</ele>
        <time>2022-05-22T11:37:30Z</time>
      </trkpt>
      <trkpt lat="37.9906860" lon="-5.6669250">
        <ele>565.3</ele>
        <time>2022-05-22T11:37:31Z</time>
      </trkpt>
      <trkpt lat="37.9906840" lon="-5.6669320">
        <ele>565.3</ele>
        <time>2022-05-22T11:37:32Z</time>
      </trkpt>
      <trkpt lat="37.9906710" lon="-5.6669480">
        <ele>565.3</ele>
        <time>2022-05-22T11:37:34Z</time>
      </trkpt>
      <trkpt lat="37.9906580" lon="-5.6669510">
        <ele>565.2</ele>
        <time>2022-05-22T11:37:35Z</time>
      </trkpt>
      <trkpt lat="37.9906430" lon="-5.6669520">
        <ele>565.2</ele>
        <time>2022-05-22T11:37:36Z</time>
      </trkpt>
      <trkpt lat="37.9906000" lon="-5.6669460">
        <ele>565.1</ele>
        <time>2022-05-22T11:37:38Z</time>
      </trkpt>
      <trkpt lat="37.9905820" lon="-5.6669430">
        <ele>565.0</ele>
        <time>2022-05-22T11:37:39Z</time>
      </trkpt>
      <trkpt lat="37.9905580" lon="-5.6669400">
        <ele>565.0</ele>
        <time>2022-05-22T11:37:41Z</time>
      </trkpt>
      <trkpt lat="37.9905270" lon="-5.6669370">
        <ele>564.9</ele>
        <time>2022-05-22T11:37:42Z</time>
      </trkpt>
      <trkpt lat="37.9905140" lon="-5.6669360">
        <ele>564.9</ele>
        <time>2022-05-22T11:37:43Z</time>
      </trkpt>
      <trkpt lat="37.9904830" lon="-5.6669330">
        <ele>564.8</ele>
        <time>2022-05-22T11:37:45Z</time>
      </trkpt>
      <trkpt lat="37.9904740" lon="-5.6669320">
        <ele>564.8</ele>
        <time>2022-05-22T11:37:46Z</time>
      </trkpt>
      <trkpt lat="37.9904590" lon="-5.6669290">
        <ele>564.7</ele>
        <time>2022-05-22T11:37:47Z</time>
      </trkpt>
      <trkpt lat="37.9904420" lon="-5.6669280">
        <ele>564.7</ele>
        <time>2022-05-22T11:37:48Z</time>
      </trkpt>
      <trkpt lat="37.9904230" lon="-5.6669280">
        <ele>564.7</ele>
        <time>2022-05-22T11:37:49Z</time>
      </trkpt>
      <trkpt lat="37.9904090" lon="-5.6669280">
        <ele>564.6</ele>
        <time>2022-05-22T11:37:50Z</time>
      </trkpt>
      <trkpt lat="37.9903950" lon="-5.6669270">
        <ele>564.6</ele>
        <time>2022-05-22T11:37:51Z</time>
      </trkpt>
      <trkpt lat="37.9903810" lon="-5.6669270">
        <ele>564.6</ele>
        <time>2022-05-22T11:37:52Z</time>
      </trkpt>
      <trkpt lat="37.9903670" lon="-5.6669270">
        <ele>564.6</ele>
        <time>2022-05-22T11:37:53Z</time>
      </trkpt>
      <trkpt lat="37.9903480" lon="-5.6669280">
        <ele>564.5</ele>
        <time>2022-05-22T11:37:54Z</time>
      </trkpt>
      <trkpt lat="37.9903270" lon="-5.6669330">
        <ele>564.5</ele>
        <time>2022-05-22T11:37:55Z</time>
      </trkpt>
      <trkpt lat="37.9903180" lon="-5.6669340">
        <ele>564.5</ele>
        <time>2022-05-22T11:37:56Z</time>
      </trkpt>
      <trkpt lat="37.9903090" lon="-5.6669350">
        <ele>564.4</ele>
        <time>2022-05-22T11:37:57Z</time>
      </trkpt>
      <trkpt lat="37.9902960" lon="-5.6669370">
        <ele>564.4</ele>
        <time>2022-05-22T11:37:58Z</time>
      </trkpt>
      <trkpt lat="37.9902780" lon="-5.6669410">
        <ele>564.4</ele>
        <time>2022-05-22T11:37:59Z</time>
      </trkpt>
      <trkpt lat="37.9902570" lon="-5.6669470">
        <ele>564.3</ele>
        <time>2022-05-22T11:38:00Z</time>
      </trkpt>
      <trkpt lat="37.9902480" lon="-5.6669490">
        <ele>564.3</ele>
        <time>2022-05-22T11:38:01Z</time>
      </trkpt>
      <trkpt lat="37.9902390" lon="-5.6669520">
        <ele>564.3</ele>
        <time>2022-05-22T11:38:02Z</time>
      </trkpt>
      <trkpt lat="37.9902060" lon="-5.6669690">
        <ele>564.2</ele>
        <time>2022-05-22T11:38:03Z</time>
      </trkpt>
      <trkpt lat="37.9901910" lon="-5.6669780">
        <ele>564.2</ele>
        <time>2022-05-22T11:38:04Z</time>
      </trkpt>
      <trkpt lat="37.9901760" lon="-5.6669850">
        <ele>564.1</ele>
        <time>2022-05-22T11:38:05Z</time>
      </trkpt>
      <trkpt lat="37.9901630" lon="-5.6669940">
        <ele>564.1</ele>
        <time>2022-05-22T11:38:06Z</time>
      </trkpt>
      <trkpt lat="37.9901490" lon="-5.6670020">
        <ele>564.1</ele>
        <time>2022-05-22T11:38:07Z</time>
      </trkpt>
      <trkpt lat="37.9901190" lon="-5.6670230">
        <ele>564.0</ele>
        <time>2022-05-22T11:38:09Z</time>
      </trkpt>
      <trkpt lat="37.9901110" lon="-5.6670280">
        <ele>563.9</ele>
        <time>2022-05-22T11:38:10Z</time>
      </trkpt>
      <trkpt lat="37.9900970" lon="-5.6670360">
        <ele>563.9</ele>
        <time>2022-05-22T11:38:11Z</time>
      </trkpt>
      <trkpt lat="37.9900850" lon="-5.6670430">
        <ele>563.9</ele>
        <time>2022-05-22T11:38:12Z</time>
      </trkpt>
      <trkpt lat="37.9900690" lon="-5.6670500">
        <ele>563.8</ele>
        <time>2022-05-22T11:38:13Z</time>
      </trkpt>
      <trkpt lat="37.9900530" lon="-5.6670560">
        <ele>563.8</ele>
        <time>2022-05-22T11:38:14Z</time>
      </trkpt>
      <trkpt lat="37.9900430" lon="-5.6670580">
        <ele>563.7</ele>
        <time>2022-05-22T11:38:15Z</time>
      </trkpt>
      <trkpt lat="37.9900330" lon="-5.6670600">
        <ele>563.7</ele>
        <time>2022-05-22T11:38:16Z</time>
      </trkpt>
      <trkpt lat="37.9900190" lon="-5.6670600">
        <ele>563.7</ele>
        <time>2022-05-22T11:38:17Z</time>
      </trkpt>
      <trkpt lat="37.9900020" lon="-5.6670590">
        <ele>563.6</ele>
        <time>2022-05-22T11:38:18Z</time>
      </trkpt>
      <trkpt lat="37.9899850" lon="-5.6670600">
        <ele>563.6</ele>
        <time>2022-05-22T11:38:20Z</time>
      </trkpt>
      <trkpt lat="37.9899760" lon="-5.6670610">
        <ele>563.6</ele>
        <time>2022-05-22T11:38:21Z</time>
      </trkpt>
      <trkpt lat="37.9899640" lon="-5.6670630">
        <ele>563.5</ele>
        <time>2022-05-22T11:38:22Z</time>
      </trkpt>
      <trkpt lat="37.9899510" lon="-5.6670670">
        <ele>563.5</ele>
        <time>2022-05-22T11:38:23Z</time>
      </trkpt>
      <trkpt lat="37.9899340" lon="-5.6670710">
        <ele>563.4</ele>
        <time>2022-05-22T11:38:24Z</time>
      </trkpt>
      <trkpt lat="37.9899210" lon="-5.6670750">
        <ele>563.4</ele>
        <time>2022-05-22T11:38:25Z</time>
      </trkpt>
      <trkpt lat="37.9899160" lon="-5.6670870">
        <ele>563.4</ele>
        <time>2022-05-22T11:38:26Z</time>
      </trkpt>
      <trkpt lat="37.9899190" lon="-5.6670970">
        <ele>563.3</ele>
        <time>2022-05-22T11:38:27Z</time>
      </trkpt>
      <trkpt lat="37.9899180" lon="-5.6671050">
        <ele>563.3</ele>
        <time>2022-05-22T11:38:29Z</time>
      </trkpt>
      <trkpt lat="37.9899200" lon="-5.6671060">
        <ele>563.3</ele>
        <time>2022-05-22T11:38:30Z</time>
      </trkpt>
      <trkpt lat="37.9899130" lon="-5.6671070">
        <ele>563.3</ele>
        <time>2022-05-22T11:38:31Z</time>
      </trkpt>
      <trkpt lat="37.9899040" lon="-5.6671080">
        <ele>563.3</ele>
        <time>2022-05-22T11:38:32Z</time>
      </trkpt>
      <trkpt lat="37.9898920" lon="-5.6671090">
        <ele>563.2</ele>
        <time>2022-05-22T11:38:33Z</time>
      </trkpt>
      <trkpt lat="37.9898740" lon="-5.6671080">
        <ele>563.2</ele>
        <time>2022-05-22T11:38:34Z</time>
      </trkpt>
      <trkpt lat="37.9898540" lon="-5.6671060">
        <ele>563.1</ele>
        <time>2022-05-22T11:38:35Z</time>
      </trkpt>
      <trkpt lat="37.9898450" lon="-5.6671060">
        <ele>563.1</ele>
        <time>2022-05-22T11:38:36Z</time>
      </trkpt>
      <trkpt lat="37.9898360" lon="-5.6671050">
        <ele>563.1</ele>
        <time>2022-05-22T11:38:37Z</time>
      </trkpt>
      <trkpt lat="37.9898260" lon="-5.6671140">
        <ele>563.1</ele>
        <time>2022-05-22T11:38:38Z</time>
      </trkpt>
      <trkpt lat="37.9898180" lon="-5.6671200">
        <ele>563.0</ele>
        <time>2022-05-22T11:38:40Z</time>
      </trkpt>
      <trkpt lat="37.9898120" lon="-5.6671210">
        <ele>563.0</ele>
        <time>2022-05-22T11:38:41Z</time>
      </trkpt>
      <trkpt lat="37.9898020" lon="-5.6671220">
        <ele>563.0</ele>
        <time>2022-05-22T11:38:42Z</time>
      </trkpt>
      <trkpt lat="37.9897920" lon="-5.6671230">
        <ele>563.0</ele>
        <time>2022-05-22T11:38:43Z</time>
      </trkpt>
      <trkpt lat="37.9897790" lon="-5.6671250">
        <ele>562.9</ele>
        <time>2022-05-22T11:38:44Z</time>
      </trkpt>
      <trkpt lat="37.9897660" lon="-5.6671280">
        <ele>562.9</ele>
        <time>2022-05-22T11:38:45Z</time>
      </trkpt>
      <trkpt lat="37.9897490" lon="-5.6671330">
        <ele>562.8</ele>
        <time>2022-05-22T11:38:46Z</time>
      </trkpt>
      <trkpt lat="37.9897240" lon="-5.6671400">
        <ele>562.8</ele>
        <time>2022-05-22T11:38:47Z</time>
      </trkpt>
      <trkpt lat="37.9897130" lon="-5.6671430">
        <ele>562.7</ele>
        <time>2022-05-22T11:38:48Z</time>
      </trkpt>
      <trkpt lat="37.9896900" lon="-5.6671500">
        <ele>562.7</ele>
        <time>2022-05-22T11:38:49Z</time>
      </trkpt>
      <trkpt lat="37.9896680" lon="-5.6671590">
        <ele>562.7</ele>
        <time>2022-05-22T11:38:51Z</time>
      </trkpt>
      <trkpt lat="37.9896510" lon="-5.6671640">
        <ele>562.6</ele>
        <time>2022-05-22T11:38:52Z</time>
      </trkpt>
      <trkpt lat="37.9896350" lon="-5.6671680">
        <ele>562.6</ele>
        <time>2022-05-22T11:38:53Z</time>
      </trkpt>
      <trkpt lat="37.9896030" lon="-5.6671730">
        <ele>562.6</ele>
        <time>2022-05-22T11:38:54Z</time>
      </trkpt>
      <trkpt lat="37.9895950" lon="-5.6671740">
        <ele>562.6</ele>
        <time>2022-05-22T11:38:55Z</time>
      </trkpt>
      <trkpt lat="37.9895780" lon="-5.6671780">
        <ele>562.6</ele>
        <time>2022-05-22T11:38:56Z</time>
      </trkpt>
      <trkpt lat="37.9895650" lon="-5.6671820">
        <ele>562.6</ele>
        <time>2022-05-22T11:38:57Z</time>
      </trkpt>
      <trkpt lat="37.9895500" lon="-5.6671840">
        <ele>562.6</ele>
        <time>2022-05-22T11:38:58Z</time>
      </trkpt>
      <trkpt lat="37.9895310" lon="-5.6671860">
        <ele>562.5</ele>
        <time>2022-05-22T11:38:59Z</time>
      </trkpt>
      <trkpt lat="37.9895170" lon="-5.6671890">
        <ele>562.5</ele>
        <time>2022-05-22T11:39:00Z</time>
      </trkpt>
      <trkpt lat="37.9895030" lon="-5.6671910">
        <ele>562.5</ele>
        <time>2022-05-22T11:39:01Z</time>
      </trkpt>
      <trkpt lat="37.9894800" lon="-5.6672000">
        <ele>562.4</ele>
        <time>2022-05-22T11:39:02Z</time>
      </trkpt>
      <trkpt lat="37.9894700" lon="-5.6672050">
        <ele>562.4</ele>
        <time>2022-05-22T11:39:03Z</time>
      </trkpt>
      <trkpt lat="37.9894600" lon="-5.6672100">
        <ele>562.4</ele>
        <time>2022-05-22T11:39:04Z</time>
      </trkpt>
      <trkpt lat="37.9894400" lon="-5.6672190">
        <ele>562.3</ele>
        <time>2022-05-22T11:39:05Z</time>
      </trkpt>
      <trkpt lat="37.9894320" lon="-5.6672220">
        <ele>562.3</ele>
        <time>2022-05-22T11:39:06Z</time>
      </trkpt>
      <trkpt lat="37.9894240" lon="-5.6672250">
        <ele>562.3</ele>
        <time>2022-05-22T11:39:07Z</time>
      </trkpt>
      <trkpt lat="37.9894020" lon="-5.6672280">
        <ele>562.2</ele>
        <time>2022-05-22T11:39:08Z</time>
      </trkpt>
      <trkpt lat="37.9893940" lon="-5.6672280">
        <ele>562.2</ele>
        <time>2022-05-22T11:39:09Z</time>
      </trkpt>
      <trkpt lat="37.9893860" lon="-5.6672290">
        <ele>562.1</ele>
        <time>2022-05-22T11:39:10Z</time>
      </trkpt>
      <trkpt lat="37.9893750" lon="-5.6672270">
        <ele>562.1</ele>
        <time>2022-05-22T11:39:11Z</time>
      </trkpt>
      <trkpt lat="37.9893640" lon="-5.6672240">
        <ele>562.1</ele>
        <time>2022-05-22T11:39:12Z</time>
      </trkpt>
      <trkpt lat="37.9893510" lon="-5.6672220">
        <ele>562.0</ele>
        <time>2022-05-22T11:39:13Z</time>
      </trkpt>
      <trkpt lat="37.9893350" lon="-5.6672200">
        <ele>562.0</ele>
        <time>2022-05-22T11:39:14Z</time>
      </trkpt>
      <trkpt lat="37.9893190" lon="-5.6672200">
        <ele>561.9</ele>
        <time>2022-05-22T11:39:15Z</time>
      </trkpt>
      <trkpt lat="37.9892860" lon="-5.6672190">
        <ele>561.8</ele>
        <time>2022-05-22T11:39:16Z</time>
      </trkpt>
      <trkpt lat="37.9892720" lon="-5.6672180">
        <ele>561.8</ele>
        <time>2022-05-22T11:39:17Z</time>
      </trkpt>
      <trkpt lat="37.9892590" lon="-5.6672170">
        <ele>561.8</ele>
        <time>2022-05-22T11:39:18Z</time>
      </trkpt>
      <trkpt lat="37.9892430" lon="-5.6672150">
        <ele>561.7</ele>
        <time>2022-05-22T11:39:19Z</time>
      </trkpt>
      <trkpt lat="37.9892270" lon="-5.6672110">
        <ele>561.7</ele>
        <time>2022-05-22T11:39:20Z</time>
      </trkpt>
      <trkpt lat="37.9892120" lon="-5.6672070">
        <ele>561.6</ele>
        <time>2022-05-22T11:39:21Z</time>
      </trkpt>
      <trkpt lat="37.9891950" lon="-5.6672020">
        <ele>561.6</ele>
        <time>2022-05-22T11:39:22Z</time>
      </trkpt>
      <trkpt lat="37.9891840" lon="-5.6671980">
        <ele>561.5</ele>
        <time>2022-05-22T11:39:23Z</time>
      </trkpt>
      <trkpt lat="37.9891700" lon="-5.6671930">
        <ele>561.5</ele>
        <time>2022-05-22T11:39:24Z</time>
      </trkpt>
      <trkpt lat="37.9891560" lon="-5.6671890">
        <ele>561.5</ele>
        <time>2022-05-22T11:39:25Z</time>
      </trkpt>
      <trkpt lat="37.9891440" lon="-5.6671880">
        <ele>561.4</ele>
        <time>2022-05-22T11:39:26Z</time>
      </trkpt>
      <trkpt lat="37.9891290" lon="-5.6671880">
        <ele>561.4</ele>
        <time>2022-05-22T11:39:28Z</time>
      </trkpt>
      <trkpt lat="37.9891220" lon="-5.6671880">
        <ele>561.4</ele>
        <time>2022-05-22T11:39:29Z</time>
      </trkpt>
      <trkpt lat="37.9891150" lon="-5.6671890">
        <ele>561.3</ele>
        <time>2022-05-22T11:39:30Z</time>
      </trkpt>
      <trkpt lat="37.9891020" lon="-5.6671900">
        <ele>561.3</ele>
        <time>2022-05-22T11:39:31Z</time>
      </trkpt>
      <trkpt lat="37.9890880" lon="-5.6671910">
        <ele>561.3</ele>
        <time>2022-05-22T11:39:32Z</time>
      </trkpt>
      <trkpt lat="37.9890670" lon="-5.6671930">
        <ele>561.2</ele>
        <time>2022-05-22T11:39:33Z</time>
      </trkpt>
      <trkpt lat="37.9890530" lon="-5.6671950">
        <ele>561.2</ele>
        <time>2022-05-22T11:39:34Z</time>
      </trkpt>
      <trkpt lat="37.9890380" lon="-5.6671960">
        <ele>561.1</ele>
        <time>2022-05-22T11:39:35Z</time>
      </trkpt>
      <trkpt lat="37.9890240" lon="-5.6671970">
        <ele>561.1</ele>
        <time>2022-05-22T11:39:36Z</time>
      </trkpt>
      <trkpt lat="37.9890020" lon="-5.6671980">
        <ele>561.0</ele>
        <time>2022-05-22T11:39:37Z</time>
      </trkpt>
      <trkpt lat="37.9889930" lon="-5.6671970">
        <ele>561.0</ele>
        <time>2022-05-22T11:39:38Z</time>
      </trkpt>
      <trkpt lat="37.9889790" lon="-5.6671940">
        <ele>560.9</ele>
        <time>2022-05-22T11:39:39Z</time>
      </trkpt>
      <trkpt lat="37.9889660" lon="-5.6671900">
        <ele>560.9</ele>
        <time>2022-05-22T11:39:40Z</time>
      </trkpt>
      <trkpt lat="37.9889410" lon="-5.6671820">
        <ele>560.8</ele>
        <time>2022-05-22T11:39:41Z</time>
      </trkpt>
      <trkpt lat="37.9889290" lon="-5.6671780">
        <ele>560.8</ele>
        <time>2022-05-22T11:39:43Z</time>
      </trkpt>
      <trkpt lat="37.9889170" lon="-5.6671740">
        <ele>560.7</ele>
        <time>2022-05-22T11:39:44Z</time>
      </trkpt>
      <trkpt lat="37.9889050" lon="-5.6671700">
        <ele>560.7</ele>
        <time>2022-05-22T11:39:45Z</time>
      </trkpt>
      <trkpt lat="37.9888930" lon="-5.6671660">
        <ele>560.7</ele>
        <time>2022-05-22T11:39:46Z</time>
      </trkpt>
      <trkpt lat="37.9888810" lon="-5.6671620">
        <ele>560.6</ele>
        <time>2022-05-22T11:39:47Z</time>
      </trkpt>
      <trkpt lat="37.9888620" lon="-5.6671560">
        <ele>560.6</ele>
        <time>2022-05-22T11:39:48Z</time>
      </trkpt>
      <trkpt lat="37.9888430" lon="-5.6671520">
        <ele>560.5</ele>
        <time>2022-05-22T11:39:49Z</time>
      </trkpt>
      <trkpt lat="37.9888340" lon="-5.6671490">
        <ele>560.5</ele>
        <time>2022-05-22T11:39:50Z</time>
      </trkpt>
      <trkpt lat="37.9888250" lon="-5.6671470">
        <ele>560.4</ele>
        <time>2022-05-22T11:39:51Z</time>
      </trkpt>
      <trkpt lat="37.9888040" lon="-5.6671400">
        <ele>560.4</ele>
        <time>2022-05-22T11:39:53Z</time>
      </trkpt>
      <trkpt lat="37.9887960" lon="-5.6671360">
        <ele>560.3</ele>
        <time>2022-05-22T11:39:54Z</time>
      </trkpt>
      <trkpt lat="37.9887850" lon="-5.6671310">
        <ele>560.3</ele>
        <time>2022-05-22T11:39:55Z</time>
      </trkpt>
      <trkpt lat="37.9887740" lon="-5.6671260">
        <ele>560.3</ele>
        <time>2022-05-22T11:39:56Z</time>
      </trkpt>
      <trkpt lat="37.9887630" lon="-5.6671210">
        <ele>560.2</ele>
        <time>2022-05-22T11:39:57Z</time>
      </trkpt>
      <trkpt lat="37.9887470" lon="-5.6671140">
        <ele>560.2</ele>
        <time>2022-05-22T11:39:58Z</time>
      </trkpt>
      <trkpt lat="37.9887370" lon="-5.6671100">
        <ele>560.1</ele>
        <time>2022-05-22T11:39:59Z</time>
      </trkpt>
      <trkpt lat="37.9887260" lon="-5.6671070">
        <ele>560.1</ele>
        <time>2022-05-22T11:40:00Z</time>
      </trkpt>
      <trkpt lat="37.9887160" lon="-5.6671060">
        <ele>560.1</ele>
        <time>2022-05-22T11:40:01Z</time>
      </trkpt>
      <trkpt lat="37.9887030" lon="-5.6671060">
        <ele>560.0</ele>
        <time>2022-05-22T11:40:02Z</time>
      </trkpt>
      <trkpt lat="37.9886870" lon="-5.6671050">
        <ele>560.0</ele>
        <time>2022-05-22T11:40:03Z</time>
      </trkpt>
      <trkpt lat="37.9886760" lon="-5.6671050">
        <ele>560.0</ele>
        <time>2022-05-22T11:40:04Z</time>
      </trkpt>
      <trkpt lat="37.9886650" lon="-5.6671060">
        <ele>559.9</ele>
        <time>2022-05-22T11:40:05Z</time>
      </trkpt>
      <trkpt lat="37.9886530" lon="-5.6671060">
        <ele>559.9</ele>
        <time>2022-05-22T11:40:06Z</time>
      </trkpt>
      <trkpt lat="37.9886430" lon="-5.6671050">
        <ele>559.9</ele>
        <time>2022-05-22T11:40:07Z</time>
      </trkpt>
      <trkpt lat="37.9886310" lon="-5.6671030">
        <ele>559.8</ele>
        <time>2022-05-22T11:40:08Z</time>
      </trkpt>
      <trkpt lat="37.9886220" lon="-5.6671000">
        <ele>559.8</ele>
        <time>2022-05-22T11:40:09Z</time>
      </trkpt>
      <trkpt lat="37.9886110" lon="-5.6670960">
        <ele>559.8</ele>
        <time>2022-05-22T11:40:10Z</time>
      </trkpt>
      <trkpt lat="37.9885970" lon="-5.6670920">
        <ele>559.7</ele>
        <time>2022-05-22T11:40:11Z</time>
      </trkpt>
      <trkpt lat="37.9885840" lon="-5.6670890">
        <ele>559.7</ele>
        <time>2022-05-22T11:40:12Z</time>
      </trkpt>
      <trkpt lat="37.9885540" lon="-5.6670810">
        <ele>559.6</ele>
        <time>2022-05-22T11:40:13Z</time>
      </trkpt>
      <trkpt lat="37.9885480" lon="-5.6670790">
        <ele>559.6</ele>
        <time>2022-05-22T11:40:14Z</time>
      </trkpt>
      <trkpt lat="37.9885210" lon="-5.6670760">
        <ele>559.5</ele>
        <time>2022-05-22T11:40:15Z</time>
      </trkpt>
      <trkpt lat="37.9885060" lon="-5.6670760">
        <ele>559.5</ele>
        <time>2022-05-22T11:40:17Z</time>
      </trkpt>
      <trkpt lat="37.9884910" lon="-5.6670770">
        <ele>559.4</ele>
        <time>2022-05-22T11:40:19Z</time>
      </trkpt>
      <trkpt lat="37.9884760" lon="-5.6670770">
        <ele>559.4</ele>
        <time>2022-05-22T11:40:20Z</time>
      </trkpt>
      <trkpt lat="37.9884610" lon="-5.6670780">
        <ele>559.4</ele>
        <time>2022-05-22T11:40:21Z</time>
      </trkpt>
      <trkpt lat="37.9884460" lon="-5.6670780">
        <ele>559.3</ele>
        <time>2022-05-22T11:40:22Z</time>
      </trkpt>
      <trkpt lat="37.9884260" lon="-5.6670790">
        <ele>559.3</ele>
        <time>2022-05-22T11:40:23Z</time>
      </trkpt>
      <trkpt lat="37.9884140" lon="-5.6670780">
        <ele>559.2</ele>
        <time>2022-05-22T11:40:24Z</time>
      </trkpt>
      <trkpt lat="37.9884020" lon="-5.6670760">
        <ele>559.2</ele>
        <time>2022-05-22T11:40:25Z</time>
      </trkpt>
      <trkpt lat="37.9883830" lon="-5.6670720">
        <ele>559.2</ele>
        <time>2022-05-22T11:40:27Z</time>
      </trkpt>
      <trkpt lat="37.9883640" lon="-5.6670660">
        <ele>559.1</ele>
        <time>2022-05-22T11:40:28Z</time>
      </trkpt>
      <trkpt lat="37.9883520" lon="-5.6670610">
        <ele>559.1</ele>
        <time>2022-05-22T11:40:29Z</time>
      </trkpt>
      <trkpt lat="37.9883320" lon="-5.6670550">
        <ele>559.0</ele>
        <time>2022-05-22T11:40:31Z</time>
      </trkpt>
      <trkpt lat="37.9883200" lon="-5.6670500">
        <ele>559.0</ele>
        <time>2022-05-22T11:40:32Z</time>
      </trkpt>
      <trkpt lat="37.9882940" lon="-5.6670360">
        <ele>558.9</ele>
        <time>2022-05-22T11:40:33Z</time>
      </trkpt>
      <trkpt lat="37.9882830" lon="-5.6670310">
        <ele>558.9</ele>
        <time>2022-05-22T11:40:35Z</time>
      </trkpt>
      <trkpt lat="37.9882710" lon="-5.6670260">
        <ele>558.9</ele>
        <time>2022-05-22T11:40:36Z</time>
      </trkpt>
      <trkpt lat="37.9882600" lon="-5.6670210">
        <ele>558.8</ele>
        <time>2022-05-22T11:40:37Z</time>
      </trkpt>
      <trkpt lat="37.9882490" lon="-5.6670150">
        <ele>558.8</ele>
        <time>2022-05-22T11:40:38Z</time>
      </trkpt>
      <trkpt lat="37.9882350" lon="-5.6670100">
        <ele>558.8</ele>
        <time>2022-05-22T11:40:39Z</time>
      </trkpt>
      <trkpt lat="37.9882170" lon="-5.6670040">
        <ele>558.7</ele>
        <time>2022-05-22T11:40:40Z</time>
      </trkpt>
      <trkpt lat="37.9882020" lon="-5.6669980">
        <ele>558.7</ele>
        <time>2022-05-22T11:40:42Z</time>
      </trkpt>
      <trkpt lat="37.9881890" lon="-5.6669920">
        <ele>558.6</ele>
        <time>2022-05-22T11:40:43Z</time>
      </trkpt>
      <trkpt lat="37.9881770" lon="-5.6669890">
        <ele>558.6</ele>
        <time>2022-05-22T11:40:44Z</time>
      </trkpt>
      <trkpt lat="37.9881590" lon="-5.6669830">
        <ele>558.6</ele>
        <time>2022-05-22T11:40:45Z</time>
      </trkpt>
      <trkpt lat="37.9881470" lon="-5.6669810">
        <ele>558.5</ele>
        <time>2022-05-22T11:40:46Z</time>
      </trkpt>
      <trkpt lat="37.9881210" lon="-5.6669790">
        <ele>558.5</ele>
        <time>2022-05-22T11:40:48Z</time>
      </trkpt>
      <trkpt lat="37.9881090" lon="-5.6669800">
        <ele>558.4</ele>
        <time>2022-05-22T11:40:49Z</time>
      </trkpt>
      <trkpt lat="37.9881010" lon="-5.6669810">
        <ele>558.4</ele>
        <time>2022-05-22T11:40:50Z</time>
      </trkpt>
      <trkpt lat="37.9880910" lon="-5.6669810">
        <ele>558.4</ele>
        <time>2022-05-22T11:40:51Z</time>
      </trkpt>
      <trkpt lat="37.9880780" lon="-5.6669800">
        <ele>558.3</ele>
        <time>2022-05-22T11:40:52Z</time>
      </trkpt>
      <trkpt lat="37.9880630" lon="-5.6669780">
        <ele>558.3</ele>
        <time>2022-05-22T11:40:53Z</time>
      </trkpt>
      <trkpt lat="37.9880520" lon="-5.6669770">
        <ele>558.3</ele>
        <time>2022-05-22T11:40:54Z</time>
      </trkpt>
      <trkpt lat="37.9880430" lon="-5.6669760">
        <ele>558.3</ele>
        <time>2022-05-22T11:40:55Z</time>
      </trkpt>
      <trkpt lat="37.9880310" lon="-5.6669750">
        <ele>558.2</ele>
        <time>2022-05-22T11:40:56Z</time>
      </trkpt>
      <trkpt lat="37.9880070" lon="-5.6669740">
        <ele>558.2</ele>
        <time>2022-05-22T11:40:57Z</time>
      </trkpt>
      <trkpt lat="37.9879960" lon="-5.6669750">
        <ele>558.1</ele>
        <time>2022-05-22T11:40:59Z</time>
      </trkpt>
      <trkpt lat="37.9879840" lon="-5.6669750">
        <ele>558.1</ele>
        <time>2022-05-22T11:41:00Z</time>
      </trkpt>
      <trkpt lat="37.9879730" lon="-5.6669750">
        <ele>558.1</ele>
        <time>2022-05-22T11:41:01Z</time>
      </trkpt>
      <trkpt lat="37.9879620" lon="-5.6669750">
        <ele>558.1</ele>
        <time>2022-05-22T11:41:02Z</time>
      </trkpt>
      <trkpt lat="37.9879460" lon="-5.6669750">
        <ele>558.0</ele>
        <time>2022-05-22T11:41:03Z</time>
      </trkpt>
      <trkpt lat="37.9879340" lon="-5.6669740">
        <ele>558.0</ele>
        <time>2022-05-22T11:41:04Z</time>
      </trkpt>
      <trkpt lat="37.9879150" lon="-5.6669720">
        <ele>558.0</ele>
        <time>2022-05-22T11:41:05Z</time>
      </trkpt>
      <trkpt lat="37.9879050" lon="-5.6669700">
        <ele>557.9</ele>
        <time>2022-05-22T11:41:06Z</time>
      </trkpt>
      <trkpt lat="37.9878860" lon="-5.6669650">
        <ele>557.9</ele>
        <time>2022-05-22T11:41:07Z</time>
      </trkpt>
      <trkpt lat="37.9878780" lon="-5.6669620">
        <ele>557.9</ele>
        <time>2022-05-22T11:41:08Z</time>
      </trkpt>
      <trkpt lat="37.9878690" lon="-5.6669590">
        <ele>557.9</ele>
        <time>2022-05-22T11:41:09Z</time>
      </trkpt>
      <trkpt lat="37.9878500" lon="-5.6669490">
        <ele>557.8</ele>
        <time>2022-05-22T11:41:11Z</time>
      </trkpt>
      <trkpt lat="37.9878430" lon="-5.6669460">
        <ele>557.8</ele>
        <time>2022-05-22T11:41:12Z</time>
      </trkpt>
      <trkpt lat="37.9878360" lon="-5.6669420">
        <ele>557.8</ele>
        <time>2022-05-22T11:41:13Z</time>
      </trkpt>
      <trkpt lat="37.9878180" lon="-5.6669340">
        <ele>557.8</ele>
        <time>2022-05-22T11:41:14Z</time>
      </trkpt>
      <trkpt lat="37.9878070" lon="-5.6669310">
        <ele>557.7</ele>
        <time>2022-05-22T11:41:15Z</time>
      </trkpt>
      <trkpt lat="37.9877920" lon="-5.6669290">
        <ele>557.7</ele>
        <time>2022-05-22T11:41:16Z</time>
      </trkpt>
      <trkpt lat="37.9877790" lon="-5.6669280">
        <ele>557.7</ele>
        <time>2022-05-22T11:41:17Z</time>
      </trkpt>
      <trkpt lat="37.9877590" lon="-5.6669360">
        <ele>557.7</ele>
        <time>2022-05-22T11:41:18Z</time>
      </trkpt>
      <trkpt lat="37.9877490" lon="-5.6669430">
        <ele>557.7</ele>
        <time>2022-05-22T11:41:20Z</time>
      </trkpt>
      <trkpt lat="37.9877390" lon="-5.6669510">
        <ele>557.6</ele>
        <time>2022-05-22T11:41:21Z</time>
      </trkpt>
      <trkpt lat="37.9877290" lon="-5.6669580">
        <ele>557.6</ele>
        <time>2022-05-22T11:41:22Z</time>
      </trkpt>
      <trkpt lat="37.9877190" lon="-5.6669660">
        <ele>557.6</ele>
        <time>2022-05-22T11:41:23Z</time>
      </trkpt>
      <trkpt lat="37.9877010" lon="-5.6669800">
        <ele>557.6</ele>
        <time>2022-05-22T11:41:24Z</time>
      </trkpt>
      <trkpt lat="37.9876920" lon="-5.6669840">
        <ele>557.6</ele>
        <time>2022-05-22T11:41:25Z</time>
      </trkpt>
      <trkpt lat="37.9876840" lon="-5.6669880">
        <ele>557.6</ele>
        <time>2022-05-22T11:41:26Z</time>
      </trkpt>
      <trkpt lat="37.9876620" lon="-5.6669940">
        <ele>557.5</ele>
        <time>2022-05-22T11:41:27Z</time>
      </trkpt>
      <trkpt lat="37.9876540" lon="-5.6669960">
        <ele>557.5</ele>
        <time>2022-05-22T11:41:28Z</time>
      </trkpt>
      <trkpt lat="37.9876460" lon="-5.6669970">
        <ele>557.5</ele>
        <time>2022-05-22T11:41:29Z</time>
      </trkpt>
      <trkpt lat="37.9876300" lon="-5.6669990">
        <ele>557.5</ele>
        <time>2022-05-22T11:41:30Z</time>
      </trkpt>
      <trkpt lat="37.9876170" lon="-5.6670000">
        <ele>557.5</ele>
        <time>2022-05-22T11:41:31Z</time>
      </trkpt>
      <trkpt lat="37.9876030" lon="-5.6669990">
        <ele>557.5</ele>
        <time>2022-05-22T11:41:32Z</time>
      </trkpt>
      <trkpt lat="37.9875870" lon="-5.6669990">
        <ele>557.5</ele>
        <time>2022-05-22T11:41:33Z</time>
      </trkpt>
      <trkpt lat="37.9875610" lon="-5.6669990">
        <ele>557.4</ele>
        <time>2022-05-22T11:41:34Z</time>
      </trkpt>
      <trkpt lat="37.9875470" lon="-5.6670000">
        <ele>557.4</ele>
        <time>2022-05-22T11:41:35Z</time>
      </trkpt>
      <trkpt lat="37.9875330" lon="-5.6670000">
        <ele>557.4</ele>
        <time>2022-05-22T11:41:36Z</time>
      </trkpt>
      <trkpt lat="37.9875150" lon="-5.6670030">
        <ele>557.4</ele>
        <time>2022-05-22T11:41:37Z</time>
      </trkpt>
      <trkpt lat="37.9874870" lon="-5.6670090">
        <ele>557.4</ele>
        <time>2022-05-22T11:41:39Z</time>
      </trkpt>
      <trkpt lat="37.9874780" lon="-5.6670120">
        <ele>557.4</ele>
        <time>2022-05-22T11:41:40Z</time>
      </trkpt>
      <trkpt lat="37.9874530" lon="-5.6670250">
        <ele>557.4</ele>
        <time>2022-05-22T11:41:41Z</time>
      </trkpt>
      <trkpt lat="37.9874440" lon="-5.6670310">
        <ele>557.4</ele>
        <time>2022-05-22T11:41:42Z</time>
      </trkpt>
      <trkpt lat="37.9874280" lon="-5.6670450">
        <ele>557.4</ele>
        <time>2022-05-22T11:41:44Z</time>
      </trkpt>
      <trkpt lat="37.9874180" lon="-5.6670730">
        <ele>557.4</ele>
        <time>2022-05-22T11:41:46Z</time>
      </trkpt>
      <trkpt lat="37.9874030" lon="-5.6670940">
        <ele>557.4</ele>
        <time>2022-05-22T11:41:48Z</time>
      </trkpt>
      <trkpt lat="37.9873940" lon="-5.6670970">
        <ele>557.4</ele>
        <time>2022-05-22T11:41:49Z</time>
      </trkpt>
      <trkpt lat="37.9873850" lon="-5.6671000">
        <ele>557.4</ele>
        <time>2022-05-22T11:41:50Z</time>
      </trkpt>
      <trkpt lat="37.9873700" lon="-5.6670990">
        <ele>557.4</ele>
        <time>2022-05-22T11:41:51Z</time>
      </trkpt>
      <trkpt lat="37.9873560" lon="-5.6670970">
        <ele>557.4</ele>
        <time>2022-05-22T11:41:52Z</time>
      </trkpt>
      <trkpt lat="37.9873340" lon="-5.6670830">
        <ele>557.3</ele>
        <time>2022-05-22T11:41:53Z</time>
      </trkpt>
      <trkpt lat="37.9873240" lon="-5.6670740">
        <ele>557.3</ele>
        <time>2022-05-22T11:41:54Z</time>
      </trkpt>
      <trkpt lat="37.9872930" lon="-5.6670510">
        <ele>557.3</ele>
        <time>2022-05-22T11:41:55Z</time>
      </trkpt>
      <trkpt lat="37.9872840" lon="-5.6670450">
        <ele>557.3</ele>
        <time>2022-05-22T11:41:56Z</time>
      </trkpt>
      <trkpt lat="37.9872490" lon="-5.6670390">
        <ele>557.3</ele>
        <time>2022-05-22T11:41:57Z</time>
      </trkpt>
      <trkpt lat="37.9872380" lon="-5.6670390">
        <ele>557.3</ele>
        <time>2022-05-22T11:41:58Z</time>
      </trkpt>
      <trkpt lat="37.9872190" lon="-5.6670410">
        <ele>557.3</ele>
        <time>2022-05-22T11:41:59Z</time>
      </trkpt>
      <trkpt lat="37.9872050" lon="-5.6670440">
        <ele>557.3</ele>
        <time>2022-05-22T11:42:00Z</time>
      </trkpt>
      <trkpt lat="37.9871910" lon="-5.6670480">
        <ele>557.3</ele>
        <time>2022-05-22T11:42:01Z</time>
      </trkpt>
      <trkpt lat="37.9871720" lon="-5.6670550">
        <ele>557.3</ele>
        <time>2022-05-22T11:42:03Z</time>
      </trkpt>
      <trkpt lat="37.9871470" lon="-5.6670690">
        <ele>557.3</ele>
        <time>2022-05-22T11:42:04Z</time>
      </trkpt>
      <trkpt lat="37.9871330" lon="-5.6670770">
        <ele>557.3</ele>
        <time>2022-05-22T11:42:05Z</time>
      </trkpt>
      <trkpt lat="37.9871150" lon="-5.6670880">
        <ele>557.3</ele>
        <time>2022-05-22T11:42:06Z</time>
      </trkpt>
      <trkpt lat="37.9870890" lon="-5.6671040">
        <ele>557.3</ele>
        <time>2022-05-22T11:42:08Z</time>
      </trkpt>
      <trkpt lat="37.9870810" lon="-5.6671090">
        <ele>557.3</ele>
        <time>2022-05-22T11:42:09Z</time>
      </trkpt>
      <trkpt lat="37.9870680" lon="-5.6671160">
        <ele>557.4</ele>
        <time>2022-05-22T11:42:10Z</time>
      </trkpt>
      <trkpt lat="37.9870550" lon="-5.6671240">
        <ele>557.4</ele>
        <time>2022-05-22T11:42:11Z</time>
      </trkpt>
      <trkpt lat="37.9870330" lon="-5.6671360">
        <ele>557.4</ele>
        <time>2022-05-22T11:42:12Z</time>
      </trkpt>
      <trkpt lat="37.9870230" lon="-5.6671410">
        <ele>557.4</ele>
        <time>2022-05-22T11:42:13Z</time>
      </trkpt>
      <trkpt lat="37.9870140" lon="-5.6671460">
        <ele>557.4</ele>
        <time>2022-05-22T11:42:14Z</time>
      </trkpt>
      <trkpt lat="37.9869980" lon="-5.6671530">
        <ele>557.4</ele>
        <time>2022-05-22T11:42:15Z</time>
      </trkpt>
      <trkpt lat="37.9869860" lon="-5.6671590">
        <ele>557.4</ele>
        <time>2022-05-22T11:42:16Z</time>
      </trkpt>
      <trkpt lat="37.9869740" lon="-5.6671640">
        <ele>557.4</ele>
        <time>2022-05-22T11:42:17Z</time>
      </trkpt>
      <trkpt lat="37.9869520" lon="-5.6671720">
        <ele>557.5</ele>
        <time>2022-05-22T11:42:19Z</time>
      </trkpt>
      <trkpt lat="37.9869370" lon="-5.6671770">
        <ele>557.5</ele>
        <time>2022-05-22T11:42:20Z</time>
      </trkpt>
      <trkpt lat="37.9869220" lon="-5.6671810">
        <ele>557.5</ele>
        <time>2022-05-22T11:42:21Z</time>
      </trkpt>
      <trkpt lat="37.9868930" lon="-5.6671890">
        <ele>557.5</ele>
        <time>2022-05-22T11:42:22Z</time>
      </trkpt>
      <trkpt lat="37.9868860" lon="-5.6671920">
        <ele>557.5</ele>
        <time>2022-05-22T11:42:23Z</time>
      </trkpt>
      <trkpt lat="37.9868660" lon="-5.6672000">
        <ele>557.5</ele>
        <time>2022-05-22T11:42:25Z</time>
      </trkpt>
      <trkpt lat="37.9868540" lon="-5.6672060">
        <ele>557.5</ele>
        <time>2022-05-22T11:42:26Z</time>
      </trkpt>
      <trkpt lat="37.9868360" lon="-5.6672170">
        <ele>557.5</ele>
        <time>2022-05-22T11:42:27Z</time>
      </trkpt>
      <trkpt lat="37.9868270" lon="-5.6672230">
        <ele>557.5</ele>
        <time>2022-05-22T11:42:28Z</time>
      </trkpt>
      <trkpt lat="37.9868180" lon="-5.6672290">
        <ele>557.5</ele>
        <time>2022-05-22T11:42:29Z</time>
      </trkpt>
      <trkpt lat="37.9868060" lon="-5.6672380">
        <ele>557.5</ele>
        <time>2022-05-22T11:42:30Z</time>
      </trkpt>
      <trkpt lat="37.9867940" lon="-5.6672480">
        <ele>557.5</ele>
        <time>2022-05-22T11:42:31Z</time>
      </trkpt>
      <trkpt lat="37.9867790" lon="-5.6672610">
        <ele>557.5</ele>
        <time>2022-05-22T11:42:32Z</time>
      </trkpt>
      <trkpt lat="37.9867650" lon="-5.6672720">
        <ele>557.5</ele>
        <time>2022-05-22T11:42:34Z</time>
      </trkpt>
      <trkpt lat="37.9867500" lon="-5.6672840">
        <ele>557.5</ele>
        <time>2022-05-22T11:42:35Z</time>
      </trkpt>
      <trkpt lat="37.9867380" lon="-5.6672930">
        <ele>557.5</ele>
        <time>2022-05-22T11:42:36Z</time>
      </trkpt>
      <trkpt lat="37.9867180" lon="-5.6673070">
        <ele>557.5</ele>
        <time>2022-05-22T11:42:37Z</time>
      </trkpt>
      <trkpt lat="37.9867090" lon="-5.6673120">
        <ele>557.5</ele>
        <time>2022-05-22T11:42:38Z</time>
      </trkpt>
      <trkpt lat="37.9867010" lon="-5.6673180">
        <ele>557.4</ele>
        <time>2022-05-22T11:42:39Z</time>
      </trkpt>
      <trkpt lat="37.9866910" lon="-5.6673230">
        <ele>557.4</ele>
        <time>2022-05-22T11:42:40Z</time>
      </trkpt>
      <trkpt lat="37.9866840" lon="-5.6673260">
        <ele>557.4</ele>
        <time>2022-05-22T11:42:41Z</time>
      </trkpt>
      <trkpt lat="37.9866770" lon="-5.6673290">
        <ele>557.4</ele>
        <time>2022-05-22T11:42:42Z</time>
      </trkpt>
      <trkpt lat="37.9866700" lon="-5.6673310">
        <ele>557.4</ele>
        <time>2022-05-22T11:42:43Z</time>
      </trkpt>
      <trkpt lat="37.9866500" lon="-5.6673400">
        <ele>557.4</ele>
        <time>2022-05-22T11:42:45Z</time>
      </trkpt>
      <trkpt lat="37.9866390" lon="-5.6673450">
        <ele>557.3</ele>
        <time>2022-05-22T11:42:46Z</time>
      </trkpt>
      <trkpt lat="37.9866250" lon="-5.6673500">
        <ele>557.3</ele>
        <time>2022-05-22T11:42:47Z</time>
      </trkpt>
      <trkpt lat="37.9866120" lon="-5.6673550">
        <ele>557.3</ele>
        <time>2022-05-22T11:42:48Z</time>
      </trkpt>
      <trkpt lat="37.9865920" lon="-5.6673600">
        <ele>557.2</ele>
        <time>2022-05-22T11:42:49Z</time>
      </trkpt>
      <trkpt lat="37.9865740" lon="-5.6673640">
        <ele>557.2</ele>
        <time>2022-05-22T11:42:51Z</time>
      </trkpt>
      <trkpt lat="37.9865550" lon="-5.6673690">
        <ele>557.2</ele>
        <time>2022-05-22T11:42:52Z</time>
      </trkpt>
      <trkpt lat="37.9865460" lon="-5.6673710">
        <ele>557.1</ele>
        <time>2022-05-22T11:42:53Z</time>
      </trkpt>
      <trkpt lat="37.9865370" lon="-5.6673730">
        <ele>557.1</ele>
        <time>2022-05-22T11:42:54Z</time>
      </trkpt>
      <trkpt lat="37.9865200" lon="-5.6673770">
        <ele>557.1</ele>
        <time>2022-05-22T11:42:55Z</time>
      </trkpt>
      <trkpt lat="37.9865100" lon="-5.6673800">
        <ele>557.1</ele>
        <time>2022-05-22T11:42:56Z</time>
      </trkpt>
      <trkpt lat="37.9865000" lon="-5.6673840">
        <ele>557.0</ele>
        <time>2022-05-22T11:42:57Z</time>
      </trkpt>
      <trkpt lat="37.9864800" lon="-5.6673900">
        <ele>557.0</ele>
        <time>2022-05-22T11:42:59Z</time>
      </trkpt>
      <trkpt lat="37.9864650" lon="-5.6673940">
        <ele>557.0</ele>
        <time>2022-05-22T11:43:00Z</time>
      </trkpt>
      <trkpt lat="37.9864530" lon="-5.6673960">
        <ele>557.0</ele>
        <time>2022-05-22T11:43:01Z</time>
      </trkpt>
      <trkpt lat="37.9864380" lon="-5.6673990">
        <ele>556.9</ele>
        <time>2022-05-22T11:43:02Z</time>
      </trkpt>
      <trkpt lat="37.9864220" lon="-5.6674010">
        <ele>556.9</ele>
        <time>2022-05-22T11:43:03Z</time>
      </trkpt>
      <trkpt lat="37.9864040" lon="-5.6674030">
        <ele>556.9</ele>
        <time>2022-05-22T11:43:05Z</time>
      </trkpt>
      <trkpt lat="37.9863880" lon="-5.6674040">
        <ele>556.8</ele>
        <time>2022-05-22T11:43:06Z</time>
      </trkpt>
      <trkpt lat="37.9863770" lon="-5.6674070">
        <ele>556.8</ele>
        <time>2022-05-22T11:43:07Z</time>
      </trkpt>
      <trkpt lat="37.9863650" lon="-5.6674110">
        <ele>556.8</ele>
        <time>2022-05-22T11:43:08Z</time>
      </trkpt>
      <trkpt lat="37.9863550" lon="-5.6674150">
        <ele>556.8</ele>
        <time>2022-05-22T11:43:09Z</time>
      </trkpt>
      <trkpt lat="37.9863430" lon="-5.6674280">
        <ele>556.7</ele>
        <time>2022-05-22T11:43:10Z</time>
      </trkpt>
      <trkpt lat="37.9863380" lon="-5.6674420">
        <ele>556.7</ele>
        <time>2022-05-22T11:43:11Z</time>
      </trkpt>
      <trkpt lat="37.9863380" lon="-5.6674580">
        <ele>556.7</ele>
        <time>2022-05-22T11:43:12Z</time>
      </trkpt>
      <trkpt lat="37.9863410" lon="-5.6674730">
        <ele>556.6</ele>
        <time>2022-05-22T11:43:13Z</time>
      </trkpt>
      <trkpt lat="37.9863350" lon="-5.6674870">
        <ele>556.6</ele>
        <time>2022-05-22T11:43:14Z</time>
      </trkpt>
      <trkpt lat="37.9863200" lon="-5.6674970">
        <ele>556.6</ele>
        <time>2022-05-22T11:43:15Z</time>
      </trkpt>
      <trkpt lat="37.9863080" lon="-5.6675040">
        <ele>556.5</ele>
        <time>2022-05-22T11:43:17Z</time>
      </trkpt>
      <trkpt lat="37.9863010" lon="-5.6675060">
        <ele>556.5</ele>
        <time>2022-05-22T11:43:18Z</time>
      </trkpt>
      <trkpt lat="37.9862820" lon="-5.6675090">
        <ele>556.5</ele>
        <time>2022-05-22T11:43:20Z</time>
      </trkpt>
      <trkpt lat="37.9862720" lon="-5.6675090">
        <ele>556.5</ele>
        <time>2022-05-22T11:43:21Z</time>
      </trkpt>
      <trkpt lat="37.9862490" lon="-5.6675100">
        <ele>556.4</ele>
        <time>2022-05-22T11:43:22Z</time>
      </trkpt>
      <trkpt lat="37.9862390" lon="-5.6675120">
        <ele>556.4</ele>
        <time>2022-05-22T11:43:23Z</time>
      </trkpt>
      <trkpt lat="37.9862290" lon="-5.6675130">
        <ele>556.3</ele>
        <time>2022-05-22T11:43:24Z</time>
      </trkpt>
      <trkpt lat="37.9861990" lon="-5.6675210">
        <ele>556.3</ele>
        <time>2022-05-22T11:43:25Z</time>
      </trkpt>
      <trkpt lat="37.9861930" lon="-5.6675230">
        <ele>556.2</ele>
        <time>2022-05-22T11:43:26Z</time>
      </trkpt>
      <trkpt lat="37.9861770" lon="-5.6675290">
        <ele>556.2</ele>
        <time>2022-05-22T11:43:27Z</time>
      </trkpt>
      <trkpt lat="37.9861640" lon="-5.6675350">
        <ele>556.2</ele>
        <time>2022-05-22T11:43:28Z</time>
      </trkpt>
      <trkpt lat="37.9861350" lon="-5.6675520">
        <ele>556.1</ele>
        <time>2022-05-22T11:43:29Z</time>
      </trkpt>
      <trkpt lat="37.9861210" lon="-5.6675600">
        <ele>556.0</ele>
        <time>2022-05-22T11:43:30Z</time>
      </trkpt>
      <trkpt lat="37.9860900" lon="-5.6675770">
        <ele>556.0</ele>
        <time>2022-05-22T11:43:32Z</time>
      </trkpt>
      <trkpt lat="37.9860750" lon="-5.6675840">
        <ele>555.9</ele>
        <time>2022-05-22T11:43:33Z</time>
      </trkpt>
      <trkpt lat="37.9860600" lon="-5.6675890">
        <ele>555.9</ele>
        <time>2022-05-22T11:43:34Z</time>
      </trkpt>
      <trkpt lat="37.9860400" lon="-5.6675970">
        <ele>555.8</ele>
        <time>2022-05-22T11:43:35Z</time>
      </trkpt>
      <trkpt lat="37.9860260" lon="-5.6676030">
        <ele>555.8</ele>
        <time>2022-05-22T11:43:36Z</time>
      </trkpt>
      <trkpt lat="37.9860080" lon="-5.6676100">
        <ele>555.7</ele>
        <time>2022-05-22T11:43:37Z</time>
      </trkpt>
      <trkpt lat="37.9859920" lon="-5.6676160">
        <ele>555.7</ele>
        <time>2022-05-22T11:43:38Z</time>
      </trkpt>
      <trkpt lat="37.9859640" lon="-5.6676320">
        <ele>555.6</ele>
        <time>2022-05-22T11:43:40Z</time>
      </trkpt>
      <trkpt lat="37.9859510" lon="-5.6676420">
        <ele>555.6</ele>
        <time>2022-05-22T11:43:41Z</time>
      </trkpt>
      <trkpt lat="37.9859390" lon="-5.6676510">
        <ele>555.6</ele>
        <time>2022-05-22T11:43:42Z</time>
      </trkpt>
      <trkpt lat="37.9859270" lon="-5.6676620">
        <ele>555.5</ele>
        <time>2022-05-22T11:43:43Z</time>
      </trkpt>
      <trkpt lat="37.9859140" lon="-5.6676730">
        <ele>555.5</ele>
        <time>2022-05-22T11:43:44Z</time>
      </trkpt>
      <trkpt lat="37.9858990" lon="-5.6676870">
        <ele>555.5</ele>
        <time>2022-05-22T11:43:45Z</time>
      </trkpt>
      <trkpt lat="37.9858890" lon="-5.6676970">
        <ele>555.4</ele>
        <time>2022-05-22T11:43:46Z</time>
      </trkpt>
      <trkpt lat="37.9858720" lon="-5.6677150">
        <ele>555.4</ele>
        <time>2022-05-22T11:43:47Z</time>
      </trkpt>
      <trkpt lat="37.9858650" lon="-5.6677220">
        <ele>555.4</ele>
        <time>2022-05-22T11:43:48Z</time>
      </trkpt>
      <trkpt lat="37.9858580" lon="-5.6677290">
        <ele>555.3</ele>
        <time>2022-05-22T11:43:49Z</time>
      </trkpt>
      <trkpt lat="37.9858320" lon="-5.6677510">
        <ele>555.3</ele>
        <time>2022-05-22T11:43:50Z</time>
      </trkpt>
      <trkpt lat="37.9858220" lon="-5.6677580">
        <ele>555.2</ele>
        <time>2022-05-22T11:43:51Z</time>
      </trkpt>
      <trkpt lat="37.9857990" lon="-5.6677790">
        <ele>555.2</ele>
        <time>2022-05-22T11:43:52Z</time>
      </trkpt>
      <trkpt lat="37.9857870" lon="-5.6677900">
        <ele>555.1</ele>
        <time>2022-05-22T11:43:54Z</time>
      </trkpt>
      <trkpt lat="37.9857760" lon="-5.6678010">
        <ele>555.1</ele>
        <time>2022-05-22T11:43:55Z</time>
      </trkpt>
      <trkpt lat="37.9857640" lon="-5.6678120">
        <ele>555.1</ele>
        <time>2022-05-22T11:43:56Z</time>
      </trkpt>
      <trkpt lat="37.9857470" lon="-5.6678330">
        <ele>555.0</ele>
        <time>2022-05-22T11:43:57Z</time>
      </trkpt>
      <trkpt lat="37.9857410" lon="-5.6678420">
        <ele>555.0</ele>
        <time>2022-05-22T11:43:58Z</time>
      </trkpt>
      <trkpt lat="37.9857340" lon="-5.6678510">
        <ele>555.0</ele>
        <time>2022-05-22T11:43:59Z</time>
      </trkpt>
      <trkpt lat="37.9857170" lon="-5.6678730">
        <ele>554.9</ele>
        <time>2022-05-22T11:44:01Z</time>
      </trkpt>
      <trkpt lat="37.9857110" lon="-5.6678850">
        <ele>554.9</ele>
        <time>2022-05-22T11:44:02Z</time>
      </trkpt>
      <trkpt lat="37.9857040" lon="-5.6678960">
        <ele>554.8</ele>
        <time>2022-05-22T11:44:03Z</time>
      </trkpt>
      <trkpt lat="37.9856970" lon="-5.6679070">
        <ele>554.8</ele>
        <time>2022-05-22T11:44:04Z</time>
      </trkpt>
      <trkpt lat="37.9856890" lon="-5.6679190">
        <ele>554.8</ele>
        <time>2022-05-22T11:44:05Z</time>
      </trkpt>
      <trkpt lat="37.9856830" lon="-5.6679300">
        <ele>554.7</ele>
        <time>2022-05-22T11:44:06Z</time>
      </trkpt>
      <trkpt lat="37.9856750" lon="-5.6679410">
        <ele>554.7</ele>
        <time>2022-05-22T11:44:07Z</time>
      </trkpt>
      <trkpt lat="37.9856700" lon="-5.6679530">
        <ele>554.7</ele>
        <time>2022-05-22T11:44:08Z</time>
      </trkpt>
      <trkpt lat="37.9856540" lon="-5.6679780">
        <ele>554.6</ele>
        <time>2022-05-22T11:44:09Z</time>
      </trkpt>
      <trkpt lat="37.9856450" lon="-5.6679920">
        <ele>554.6</ele>
        <time>2022-05-22T11:44:10Z</time>
      </trkpt>
      <trkpt lat="37.9856360" lon="-5.6680010">
        <ele>554.6</ele>
        <time>2022-05-22T11:44:11Z</time>
      </trkpt>
      <trkpt lat="37.9856280" lon="-5.6680090">
        <ele>554.5</ele>
        <time>2022-05-22T11:44:12Z</time>
      </trkpt>
      <trkpt lat="37.9856200" lon="-5.6680150">
        <ele>554.5</ele>
        <time>2022-05-22T11:44:13Z</time>
      </trkpt>
      <trkpt lat="37.9856030" lon="-5.6680290">
        <ele>554.5</ele>
        <time>2022-05-22T11:44:14Z</time>
      </trkpt>
      <trkpt lat="37.9855940" lon="-5.6680350">
        <ele>554.4</ele>
        <time>2022-05-22T11:44:15Z</time>
      </trkpt>
      <trkpt lat="37.9855860" lon="-5.6680410">
        <ele>554.4</ele>
        <time>2022-05-22T11:44:16Z</time>
      </trkpt>
      <trkpt lat="37.9855730" lon="-5.6680490">
        <ele>554.4</ele>
        <time>2022-05-22T11:44:17Z</time>
      </trkpt>
      <trkpt lat="37.9855540" lon="-5.6680610">
        <ele>554.3</ele>
        <time>2022-05-22T11:44:19Z</time>
      </trkpt>
      <trkpt lat="37.9855380" lon="-5.6680710">
        <ele>554.3</ele>
        <time>2022-05-22T11:44:20Z</time>
      </trkpt>
      <trkpt lat="37.9855260" lon="-5.6680780">
        <ele>554.2</ele>
        <time>2022-05-22T11:44:21Z</time>
      </trkpt>
      <trkpt lat="37.9855120" lon="-5.6680870">
        <ele>554.2</ele>
        <time>2022-05-22T11:44:22Z</time>
      </trkpt>
      <trkpt lat="37.9854980" lon="-5.6680980">
        <ele>554.1</ele>
        <time>2022-05-22T11:44:23Z</time>
      </trkpt>
      <trkpt lat="37.9854750" lon="-5.6681170">
        <ele>554.0</ele>
        <time>2022-05-22T11:44:24Z</time>
      </trkpt>
      <trkpt lat="37.9854650" lon="-5.6681250">
        <ele>554.0</ele>
        <time>2022-05-22T11:44:25Z</time>
      </trkpt>
      <trkpt lat="37.9854530" lon="-5.6681370">
        <ele>554.0</ele>
        <time>2022-05-22T11:44:26Z</time>
      </trkpt>
      <trkpt lat="37.9854330" lon="-5.6681530">
        <ele>553.9</ele>
        <time>2022-05-22T11:44:28Z</time>
      </trkpt>
      <trkpt lat="37.9854210" lon="-5.6681640">
        <ele>553.9</ele>
        <time>2022-05-22T11:44:29Z</time>
      </trkpt>
      <trkpt lat="37.9854140" lon="-5.6681780">
        <ele>553.8</ele>
        <time>2022-05-22T11:44:30Z</time>
      </trkpt>
      <trkpt lat="37.9854000" lon="-5.6681940">
        <ele>553.8</ele>
        <time>2022-05-22T11:44:32Z</time>
      </trkpt>
      <trkpt lat="37.9853910" lon="-5.6682010">
        <ele>553.7</ele>
        <time>2022-05-22T11:44:33Z</time>
      </trkpt>
      <trkpt lat="37.9853830" lon="-5.6682090">
        <ele>553.7</ele>
        <time>2022-05-22T11:44:34Z</time>
      </trkpt>
      <trkpt lat="37.9853470" lon="-5.6682350">
        <ele>553.6</ele>
        <time>2022-05-22T11:44:35Z</time>
      </trkpt>
      <trkpt lat="37.9853330" lon="-5.6682440">
        <ele>553.5</ele>
        <time>2022-05-22T11:44:36Z</time>
      </trkpt>
      <trkpt lat="37.9853190" lon="-5.6682540">
        <ele>553.5</ele>
        <time>2022-05-22T11:44:37Z</time>
      </trkpt>
      <trkpt lat="37.9852920" lon="-5.6682720">
        <ele>553.4</ele>
        <time>2022-05-22T11:44:39Z</time>
      </trkpt>
      <trkpt lat="37.9852650" lon="-5.6682880">
        <ele>553.3</ele>
        <time>2022-05-22T11:44:40Z</time>
      </trkpt>
      <trkpt lat="37.9852490" lon="-5.6682950">
        <ele>553.2</ele>
        <time>2022-05-22T11:44:41Z</time>
      </trkpt>
      <trkpt lat="37.9852350" lon="-5.6683010">
        <ele>553.2</ele>
        <time>2022-05-22T11:44:42Z</time>
      </trkpt>
      <trkpt lat="37.9852160" lon="-5.6683080">
        <ele>553.1</ele>
        <time>2022-05-22T11:44:43Z</time>
      </trkpt>
      <trkpt lat="37.9851890" lon="-5.6683170">
        <ele>553.0</ele>
        <time>2022-05-22T11:44:45Z</time>
      </trkpt>
      <trkpt lat="37.9851740" lon="-5.6683200">
        <ele>553.0</ele>
        <time>2022-05-22T11:44:46Z</time>
      </trkpt>
      <trkpt lat="37.9851590" lon="-5.6683240">
        <ele>552.9</ele>
        <time>2022-05-22T11:44:47Z</time>
      </trkpt>
      <trkpt lat="37.9851410" lon="-5.6683280">
        <ele>552.9</ele>
        <time>2022-05-22T11:44:49Z</time>
      </trkpt>
      <trkpt lat="37.9851270" lon="-5.6683310">
        <ele>552.8</ele>
        <time>2022-05-22T11:44:50Z</time>
      </trkpt>
      <trkpt lat="37.9851090" lon="-5.6683340">
        <ele>552.8</ele>
        <time>2022-05-22T11:44:51Z</time>
      </trkpt>
      <trkpt lat="37.9850960" lon="-5.6683370">
        <ele>552.7</ele>
        <time>2022-05-22T11:44:52Z</time>
      </trkpt>
      <trkpt lat="37.9850700" lon="-5.6683410">
        <ele>552.7</ele>
        <time>2022-05-22T11:44:53Z</time>
      </trkpt>
      <trkpt lat="37.9850580" lon="-5.6683420">
        <ele>552.6</ele>
        <time>2022-05-22T11:44:54Z</time>
      </trkpt>
      <trkpt lat="37.9850450" lon="-5.6683440">
        <ele>552.6</ele>
        <time>2022-05-22T11:44:55Z</time>
      </trkpt>
      <trkpt lat="37.9850240" lon="-5.6683460">
        <ele>552.6</ele>
        <time>2022-05-22T11:44:56Z</time>
      </trkpt>
      <trkpt lat="37.9850150" lon="-5.6683480">
        <ele>552.5</ele>
        <time>2022-05-22T11:44:57Z</time>
      </trkpt>
      <trkpt lat="37.9850050" lon="-5.6683490">
        <ele>552.5</ele>
        <time>2022-05-22T11:44:58Z</time>
      </trkpt>
      <trkpt lat="37.9849780" lon="-5.6683530">
        <ele>552.5</ele>
        <time>2022-05-22T11:44:59Z</time>
      </trkpt>
      <trkpt lat="37.9849690" lon="-5.6683540">
        <ele>552.4</ele>
        <time>2022-05-22T11:45:00Z</time>
      </trkpt>
      <trkpt lat="37.9849490" lon="-5.6683580">
        <ele>552.4</ele>
        <time>2022-05-22T11:45:01Z</time>
      </trkpt>
      <trkpt lat="37.9849400" lon="-5.6683600">
        <ele>552.4</ele>
        <time>2022-05-22T11:45:02Z</time>
      </trkpt>
      <trkpt lat="37.9849310" lon="-5.6683620">
        <ele>552.4</ele>
        <time>2022-05-22T11:45:03Z</time>
      </trkpt>
      <trkpt lat="37.9849170" lon="-5.6683650">
        <ele>552.3</ele>
        <time>2022-05-22T11:45:04Z</time>
      </trkpt>
      <trkpt lat="37.9848930" lon="-5.6683680">
        <ele>552.3</ele>
        <time>2022-05-22T11:45:06Z</time>
      </trkpt>
      <trkpt lat="37.9848720" lon="-5.6683690">
        <ele>552.2</ele>
        <time>2022-05-22T11:45:07Z</time>
      </trkpt>
      <trkpt lat="37.9848630" lon="-5.6683700">
        <ele>552.2</ele>
        <time>2022-05-22T11:45:08Z</time>
      </trkpt>
      <trkpt lat="37.9848540" lon="-5.6683700">
        <ele>552.2</ele>
        <time>2022-05-22T11:45:09Z</time>
      </trkpt>
      <trkpt lat="37.9848410" lon="-5.6683710">
        <ele>552.2</ele>
        <time>2022-05-22T11:45:10Z</time>
      </trkpt>
      <trkpt lat="37.9848240" lon="-5.6683740">
        <ele>552.2</ele>
        <time>2022-05-22T11:45:11Z</time>
      </trkpt>
      <trkpt lat="37.9848150" lon="-5.6683750">
        <ele>552.1</ele>
        <time>2022-05-22T11:45:12Z</time>
      </trkpt>
      <trkpt lat="37.9847930" lon="-5.6683770">
        <ele>552.1</ele>
        <time>2022-05-22T11:45:13Z</time>
      </trkpt>
      <trkpt lat="37.9847810" lon="-5.6683780">
        <ele>552.1</ele>
        <time>2022-05-22T11:45:14Z</time>
      </trkpt>
      <trkpt lat="37.9847630" lon="-5.6683790">
        <ele>552.0</ele>
        <time>2022-05-22T11:45:15Z</time>
      </trkpt>
      <trkpt lat="37.9847500" lon="-5.6683790">
        <ele>552.0</ele>
        <time>2022-05-22T11:45:16Z</time>
      </trkpt>
      <trkpt lat="37.9847380" lon="-5.6683790">
        <ele>552.0</ele>
        <time>2022-05-22T11:45:17Z</time>
      </trkpt>
      <trkpt lat="37.9847210" lon="-5.6683770">
        <ele>551.9</ele>
        <time>2022-05-22T11:45:19Z</time>
      </trkpt>
      <trkpt lat="37.9847080" lon="-5.6683760">
        <ele>551.9</ele>
        <time>2022-05-22T11:45:20Z</time>
      </trkpt>
      <trkpt lat="37.9846890" lon="-5.6683730">
        <ele>551.9</ele>
        <time>2022-05-22T11:45:21Z</time>
      </trkpt>
      <trkpt lat="37.9846780" lon="-5.6683710">
        <ele>551.8</ele>
        <time>2022-05-22T11:45:22Z</time>
      </trkpt>
      <trkpt lat="37.9846650" lon="-5.6683690">
        <ele>551.8</ele>
        <time>2022-05-22T11:45:23Z</time>
      </trkpt>
      <trkpt lat="37.9846400" lon="-5.6683660">
        <ele>551.7</ele>
        <time>2022-05-22T11:45:25Z</time>
      </trkpt>
      <trkpt lat="37.9846070" lon="-5.6683640">
        <ele>551.7</ele>
        <time>2022-05-22T11:45:26Z</time>
      </trkpt>
      <trkpt lat="37.9845780" lon="-5.6683650">
        <ele>551.6</ele>
        <time>2022-05-22T11:45:27Z</time>
      </trkpt>
      <trkpt lat="37.9845630" lon="-5.6683660">
        <ele>551.6</ele>
        <time>2022-05-22T11:45:29Z</time>
      </trkpt>
      <trkpt lat="37.9845490" lon="-5.6683670">
        <ele>551.5</ele>
        <time>2022-05-22T11:45:30Z</time>
      </trkpt>
      <trkpt lat="37.9845340" lon="-5.6683680">
        <ele>551.5</ele>
        <time>2022-05-22T11:45:31Z</time>
      </trkpt>
      <trkpt lat="37.9845210" lon="-5.6683700">
        <ele>551.4</ele>
        <time>2022-05-22T11:45:32Z</time>
      </trkpt>
      <trkpt lat="37.9845060" lon="-5.6683720">
        <ele>551.4</ele>
        <time>2022-05-22T11:45:33Z</time>
      </trkpt>
      <trkpt lat="37.9844840" lon="-5.6683760">
        <ele>551.4</ele>
        <time>2022-05-22T11:45:34Z</time>
      </trkpt>
      <trkpt lat="37.9844730" lon="-5.6683770">
        <ele>551.3</ele>
        <time>2022-05-22T11:45:35Z</time>
      </trkpt>
      <trkpt lat="37.9844620" lon="-5.6683780">
        <ele>551.3</ele>
        <time>2022-05-22T11:45:36Z</time>
      </trkpt>
      <trkpt lat="37.9844520" lon="-5.6683790">
        <ele>551.3</ele>
        <time>2022-05-22T11:45:37Z</time>
      </trkpt>
      <trkpt lat="37.9844400" lon="-5.6683800">
        <ele>551.2</ele>
        <time>2022-05-22T11:45:38Z</time>
      </trkpt>
      <trkpt lat="37.9844290" lon="-5.6683820">
        <ele>551.2</ele>
        <time>2022-05-22T11:45:39Z</time>
      </trkpt>
      <trkpt lat="37.9844010" lon="-5.6683850">
        <ele>551.1</ele>
        <time>2022-05-22T11:45:40Z</time>
      </trkpt>
      <trkpt lat="37.9843810" lon="-5.6683860">
        <ele>551.1</ele>
        <time>2022-05-22T11:45:41Z</time>
      </trkpt>
      <trkpt lat="37.9843710" lon="-5.6683860">
        <ele>551.1</ele>
        <time>2022-05-22T11:45:42Z</time>
      </trkpt>
      <trkpt lat="37.9843620" lon="-5.6683860">
        <ele>551.0</ele>
        <time>2022-05-22T11:45:43Z</time>
      </trkpt>
      <trkpt lat="37.9843470" lon="-5.6683860">
        <ele>551.0</ele>
        <time>2022-05-22T11:45:44Z</time>
      </trkpt>
      <trkpt lat="37.9843280" lon="-5.6683860">
        <ele>550.9</ele>
        <time>2022-05-22T11:45:45Z</time>
      </trkpt>
      <trkpt lat="37.9843160" lon="-5.6683850">
        <ele>550.9</ele>
        <time>2022-05-22T11:45:46Z</time>
      </trkpt>
      <trkpt lat="37.9843020" lon="-5.6683850">
        <ele>550.9</ele>
        <time>2022-05-22T11:45:47Z</time>
      </trkpt>
      <trkpt lat="37.9842690" lon="-5.6683820">
        <ele>550.8</ele>
        <time>2022-05-22T11:45:49Z</time>
      </trkpt>
      <trkpt lat="37.9842400" lon="-5.6683790">
        <ele>550.7</ele>
        <time>2022-05-22T11:45:51Z</time>
      </trkpt>
      <trkpt lat="37.9842250" lon="-5.6683770">
        <ele>550.7</ele>
        <time>2022-05-22T11:45:52Z</time>
      </trkpt>
      <trkpt lat="37.9842100" lon="-5.6683760">
        <ele>550.6</ele>
        <time>2022-05-22T11:45:53Z</time>
      </trkpt>
      <trkpt lat="37.9841940" lon="-5.6683740">
        <ele>550.6</ele>
        <time>2022-05-22T11:45:54Z</time>
      </trkpt>
      <trkpt lat="37.9841800" lon="-5.6683730">
        <ele>550.5</ele>
        <time>2022-05-22T11:45:55Z</time>
      </trkpt>
      <trkpt lat="37.9841580" lon="-5.6683700">
        <ele>550.5</ele>
        <time>2022-05-22T11:45:56Z</time>
      </trkpt>
      <trkpt lat="37.9841450" lon="-5.6683670">
        <ele>550.4</ele>
        <time>2022-05-22T11:45:57Z</time>
      </trkpt>
      <trkpt lat="37.9841310" lon="-5.6683640">
        <ele>550.4</ele>
        <time>2022-05-22T11:45:58Z</time>
      </trkpt>
      <trkpt lat="37.9841150" lon="-5.6683620">
        <ele>550.4</ele>
        <time>2022-05-22T11:45:59Z</time>
      </trkpt>
      <trkpt lat="37.9841020" lon="-5.6683580">
        <ele>550.3</ele>
        <time>2022-05-22T11:46:00Z</time>
      </trkpt>
      <trkpt lat="37.9840850" lon="-5.6683520">
        <ele>550.3</ele>
        <time>2022-05-22T11:46:01Z</time>
      </trkpt>
      <trkpt lat="37.9840660" lon="-5.6683450">
        <ele>550.2</ele>
        <time>2022-05-22T11:46:03Z</time>
      </trkpt>
      <trkpt lat="37.9840560" lon="-5.6683410">
        <ele>550.2</ele>
        <time>2022-05-22T11:46:04Z</time>
      </trkpt>
      <trkpt lat="37.9840440" lon="-5.6683390">
        <ele>550.2</ele>
        <time>2022-05-22T11:46:05Z</time>
      </trkpt>
      <trkpt lat="37.9840220" lon="-5.6683370">
        <ele>550.1</ele>
        <time>2022-05-22T11:46:06Z</time>
      </trkpt>
      <trkpt lat="37.9840020" lon="-5.6683320">
        <ele>550.1</ele>
        <time>2022-05-22T11:46:07Z</time>
      </trkpt>
      <trkpt lat="37.9839920" lon="-5.6683290">
        <ele>550.0</ele>
        <time>2022-05-22T11:46:09Z</time>
      </trkpt>
      <trkpt lat="37.9839830" lon="-5.6683270">
        <ele>550.0</ele>
        <time>2022-05-22T11:46:10Z</time>
      </trkpt>
      <trkpt lat="37.9839660" lon="-5.6683190">
        <ele>550.0</ele>
        <time>2022-05-22T11:46:11Z</time>
      </trkpt>
      <trkpt lat="37.9839560" lon="-5.6683130">
        <ele>549.9</ele>
        <time>2022-05-22T11:46:12Z</time>
      </trkpt>
      <trkpt lat="37.9839360" lon="-5.6683040">
        <ele>549.9</ele>
        <time>2022-05-22T11:46:13Z</time>
      </trkpt>
      <trkpt lat="37.9839260" lon="-5.6683000">
        <ele>549.9</ele>
        <time>2022-05-22T11:46:14Z</time>
      </trkpt>
      <trkpt lat="37.9839160" lon="-5.6682950">
        <ele>549.8</ele>
        <time>2022-05-22T11:46:15Z</time>
      </trkpt>
      <trkpt lat="37.9839040" lon="-5.6682890">
        <ele>549.8</ele>
        <time>2022-05-22T11:46:16Z</time>
      </trkpt>
      <trkpt lat="37.9838860" lon="-5.6682800">
        <ele>549.7</ele>
        <time>2022-05-22T11:46:18Z</time>
      </trkpt>
      <trkpt lat="37.9838720" lon="-5.6682720">
        <ele>549.7</ele>
        <time>2022-05-22T11:46:19Z</time>
      </trkpt>
      <trkpt lat="37.9838600" lon="-5.6682650">
        <ele>549.7</ele>
        <time>2022-05-22T11:46:20Z</time>
      </trkpt>
      <trkpt lat="37.9838410" lon="-5.6682560">
        <ele>549.6</ele>
        <time>2022-05-22T11:46:21Z</time>
      </trkpt>
      <trkpt lat="37.9838300" lon="-5.6682510">
        <ele>549.6</ele>
        <time>2022-05-22T11:46:22Z</time>
      </trkpt>
      <trkpt lat="37.9838100" lon="-5.6682440">
        <ele>549.5</ele>
        <time>2022-05-22T11:46:23Z</time>
      </trkpt>
      <trkpt lat="37.9838020" lon="-5.6682410">
        <ele>549.5</ele>
        <time>2022-05-22T11:46:24Z</time>
      </trkpt>
      <trkpt lat="37.9837940" lon="-5.6682390">
        <ele>549.5</ele>
        <time>2022-05-22T11:46:25Z</time>
      </trkpt>
      <trkpt lat="37.9837770" lon="-5.6682340">
        <ele>549.5</ele>
        <time>2022-05-22T11:46:26Z</time>
      </trkpt>
      <trkpt lat="37.9837670" lon="-5.6682310">
        <ele>549.4</ele>
        <time>2022-05-22T11:46:27Z</time>
      </trkpt>
      <trkpt lat="37.9837560" lon="-5.6682280">
        <ele>549.4</ele>
        <time>2022-05-22T11:46:28Z</time>
      </trkpt>
      <trkpt lat="37.9837460" lon="-5.6682240">
        <ele>549.4</ele>
        <time>2022-05-22T11:46:29Z</time>
      </trkpt>
      <trkpt lat="37.9837340" lon="-5.6682190">
        <ele>549.3</ele>
        <time>2022-05-22T11:46:30Z</time>
      </trkpt>
      <trkpt lat="37.9837120" lon="-5.6682060">
        <ele>549.3</ele>
        <time>2022-05-22T11:46:31Z</time>
      </trkpt>
      <trkpt lat="37.9837050" lon="-5.6682020">
        <ele>549.3</ele>
        <time>2022-05-22T11:46:32Z</time>
      </trkpt>
      <trkpt lat="37.9836990" lon="-5.6681970">
        <ele>549.2</ele>
        <time>2022-05-22T11:46:33Z</time>
      </trkpt>
      <trkpt lat="37.9836780" lon="-5.6681780">
        <ele>549.2</ele>
        <time>2022-05-22T11:46:34Z</time>
      </trkpt>
      <trkpt lat="37.9836680" lon="-5.6681680">
        <ele>549.1</ele>
        <time>2022-05-22T11:46:35Z</time>
      </trkpt>
      <trkpt lat="37.9836580" lon="-5.6681570">
        <ele>549.1</ele>
        <time>2022-05-22T11:46:36Z</time>
      </trkpt>
      <trkpt lat="37.9836400" lon="-5.6681440">
        <ele>549.1</ele>
        <time>2022-05-22T11:46:38Z</time>
      </trkpt>
      <trkpt lat="37.9836300" lon="-5.6681360">
        <ele>549.0</ele>
        <time>2022-05-22T11:46:39Z</time>
      </trkpt>
      <trkpt lat="37.9836160" lon="-5.6681270">
        <ele>549.0</ele>
        <time>2022-05-22T11:46:40Z</time>
      </trkpt>
      <trkpt lat="37.9836070" lon="-5.6681200">
        <ele>549.0</ele>
        <time>2022-05-22T11:46:41Z</time>
      </trkpt>
      <trkpt lat="37.9835980" lon="-5.6681140">
        <ele>549.0</ele>
        <time>2022-05-22T11:46:42Z</time>
      </trkpt>
      <trkpt lat="37.9835880" lon="-5.6681070">
        <ele>548.9</ele>
        <time>2022-05-22T11:46:43Z</time>
      </trkpt>
      <trkpt lat="37.9835770" lon="-5.6680990">
        <ele>548.9</ele>
        <time>2022-05-22T11:46:44Z</time>
      </trkpt>
      <trkpt lat="37.9835640" lon="-5.6680910">
        <ele>548.9</ele>
        <time>2022-05-22T11:46:45Z</time>
      </trkpt>
      <trkpt lat="37.9835530" lon="-5.6680870">
        <ele>548.8</ele>
        <time>2022-05-22T11:46:47Z</time>
      </trkpt>
      <trkpt lat="37.9835440" lon="-5.6680840">
        <ele>548.8</ele>
        <time>2022-05-22T11:46:48Z</time>
      </trkpt>
      <trkpt lat="37.9835330" lon="-5.6680800">
        <ele>548.8</ele>
        <time>2022-05-22T11:46:49Z</time>
      </trkpt>
      <trkpt lat="37.9835190" lon="-5.6680740">
        <ele>548.8</ele>
        <time>2022-05-22T11:46:50Z</time>
      </trkpt>
      <trkpt lat="37.9835000" lon="-5.6680610">
        <ele>548.7</ele>
        <time>2022-05-22T11:46:51Z</time>
      </trkpt>
      <trkpt lat="37.9834920" lon="-5.6680550">
        <ele>548.7</ele>
        <time>2022-05-22T11:46:52Z</time>
      </trkpt>
      <trkpt lat="37.9834840" lon="-5.6680490">
        <ele>548.7</ele>
        <time>2022-05-22T11:46:53Z</time>
      </trkpt>
      <trkpt lat="37.9834650" lon="-5.6680380">
        <ele>548.6</ele>
        <time>2022-05-22T11:46:55Z</time>
      </trkpt>
      <trkpt lat="37.9834520" lon="-5.6680320">
        <ele>548.6</ele>
        <time>2022-05-22T11:46:56Z</time>
      </trkpt>
      <trkpt lat="37.9834390" lon="-5.6680260">
        <ele>548.6</ele>
        <time>2022-05-22T11:46:57Z</time>
      </trkpt>
      <trkpt lat="37.9834220" lon="-5.6680180">
        <ele>548.5</ele>
        <time>2022-05-22T11:46:58Z</time>
      </trkpt>
      <trkpt lat="37.9834090" lon="-5.6680120">
        <ele>548.5</ele>
        <time>2022-05-22T11:46:59Z</time>
      </trkpt>
      <trkpt lat="37.9833950" lon="-5.6680060">
        <ele>548.5</ele>
        <time>2022-05-22T11:47:00Z</time>
      </trkpt>
      <trkpt lat="37.9833770" lon="-5.6679980">
        <ele>548.4</ele>
        <time>2022-05-22T11:47:01Z</time>
      </trkpt>
      <trkpt lat="37.9833620" lon="-5.6679900">
        <ele>548.4</ele>
        <time>2022-05-22T11:47:03Z</time>
      </trkpt>
      <trkpt lat="37.9833470" lon="-5.6679850">
        <ele>548.3</ele>
        <time>2022-05-22T11:47:04Z</time>
      </trkpt>
      <trkpt lat="37.9833300" lon="-5.6679780">
        <ele>548.3</ele>
        <time>2022-05-22T11:47:05Z</time>
      </trkpt>
      <trkpt lat="37.9833160" lon="-5.6679730">
        <ele>548.2</ele>
        <time>2022-05-22T11:47:06Z</time>
      </trkpt>
      <trkpt lat="37.9833030" lon="-5.6679680">
        <ele>548.2</ele>
        <time>2022-05-22T11:47:07Z</time>
      </trkpt>
      <trkpt lat="37.9832880" lon="-5.6679640">
        <ele>548.1</ele>
        <time>2022-05-22T11:47:08Z</time>
      </trkpt>
      <trkpt lat="37.9832760" lon="-5.6679610">
        <ele>548.1</ele>
        <time>2022-05-22T11:47:09Z</time>
      </trkpt>
      <trkpt lat="37.9832610" lon="-5.6679550">
        <ele>548.1</ele>
        <time>2022-05-22T11:47:10Z</time>
      </trkpt>
      <trkpt lat="37.9832490" lon="-5.6679490">
        <ele>548.0</ele>
        <time>2022-05-22T11:47:11Z</time>
      </trkpt>
      <trkpt lat="37.9832350" lon="-5.6679420">
        <ele>548.0</ele>
        <time>2022-05-22T11:47:12Z</time>
      </trkpt>
      <trkpt lat="37.9832190" lon="-5.6679340">
        <ele>547.9</ele>
        <time>2022-05-22T11:47:14Z</time>
      </trkpt>
      <trkpt lat="37.9832090" lon="-5.6679290">
        <ele>547.9</ele>
        <time>2022-05-22T11:47:15Z</time>
      </trkpt>
      <trkpt lat="37.9831990" lon="-5.6679230">
        <ele>547.9</ele>
        <time>2022-05-22T11:47:16Z</time>
      </trkpt>
      <trkpt lat="37.9831890" lon="-5.6679180">
        <ele>547.8</ele>
        <time>2022-05-22T11:47:17Z</time>
      </trkpt>
      <trkpt lat="37.9831700" lon="-5.6679070">
        <ele>547.7</ele>
        <time>2022-05-22T11:47:18Z</time>
      </trkpt>
      <trkpt lat="37.9831630" lon="-5.6679020">
        <ele>547.7</ele>
        <time>2022-05-22T11:47:19Z</time>
      </trkpt>
      <trkpt lat="37.9831560" lon="-5.6678980">
        <ele>547.7</ele>
        <time>2022-05-22T11:47:20Z</time>
      </trkpt>
      <trkpt lat="37.9831380" lon="-5.6678870">
        <ele>547.6</ele>
        <time>2022-05-22T11:47:21Z</time>
      </trkpt>
      <trkpt lat="37.9831300" lon="-5.6678810">
        <ele>547.6</ele>
        <time>2022-05-22T11:47:22Z</time>
      </trkpt>
      <trkpt lat="37.9831220" lon="-5.6678750">
        <ele>547.6</ele>
        <time>2022-05-22T11:47:23Z</time>
      </trkpt>
      <trkpt lat="37.9831070" lon="-5.6678630">
        <ele>547.5</ele>
        <time>2022-05-22T11:47:25Z</time>
      </trkpt>
      <trkpt lat="37.9830990" lon="-5.6678540">
        <ele>547.5</ele>
        <time>2022-05-22T11:47:26Z</time>
      </trkpt>
      <trkpt lat="37.9830910" lon="-5.6678440">
        <ele>547.5</ele>
        <time>2022-05-22T11:47:27Z</time>
      </trkpt>
      <trkpt lat="37.9830830" lon="-5.6678340">
        <ele>547.4</ele>
        <time>2022-05-22T11:47:28Z</time>
      </trkpt>
      <trkpt lat="37.9830750" lon="-5.6678250">
        <ele>547.4</ele>
        <time>2022-05-22T11:47:29Z</time>
      </trkpt>
      <trkpt lat="37.9830670" lon="-5.6678150">
        <ele>547.4</ele>
        <time>2022-05-22T11:47:30Z</time>
      </trkpt>
      <trkpt lat="37.9830610" lon="-5.6678070">
        <ele>547.4</ele>
        <time>2022-05-22T11:47:31Z</time>
      </trkpt>
      <trkpt lat="37.9830540" lon="-5.6678000">
        <ele>547.3</ele>
        <time>2022-05-22T11:47:32Z</time>
      </trkpt>
      <trkpt lat="37.9830420" lon="-5.6677880">
        <ele>547.3</ele>
        <time>2022-05-22T11:47:34Z</time>
      </trkpt>
      <trkpt lat="37.9830340" lon="-5.6677820">
        <ele>547.3</ele>
        <time>2022-05-22T11:47:35Z</time>
      </trkpt>
      <trkpt lat="37.9830250" lon="-5.6677760">
        <ele>547.3</ele>
        <time>2022-05-22T11:47:36Z</time>
      </trkpt>
      <trkpt lat="37.9830150" lon="-5.6677690">
        <ele>547.2</ele>
        <time>2022-05-22T11:47:37Z</time>
      </trkpt>
      <trkpt lat="37.9829940" lon="-5.6677570">
        <ele>547.2</ele>
        <time>2022-05-22T11:47:38Z</time>
      </trkpt>
      <trkpt lat="37.9829790" lon="-5.6677490">
        <ele>547.1</ele>
        <time>2022-05-22T11:47:39Z</time>
      </trkpt>
      <trkpt lat="37.9829670" lon="-5.6677470">
        <ele>547.1</ele>
        <time>2022-05-22T11:47:40Z</time>
      </trkpt>
      <trkpt lat="37.9829490" lon="-5.6677410">
        <ele>547.0</ele>
        <time>2022-05-22T11:47:41Z</time>
      </trkpt>
      <trkpt lat="37.9829400" lon="-5.6677370">
        <ele>547.0</ele>
        <time>2022-05-22T11:47:42Z</time>
      </trkpt>
      <trkpt lat="37.9829310" lon="-5.6677340">
        <ele>547.0</ele>
        <time>2022-05-22T11:47:43Z</time>
      </trkpt>
      <trkpt lat="37.9829160" lon="-5.6677280">
        <ele>546.9</ele>
        <time>2022-05-22T11:47:44Z</time>
      </trkpt>
      <trkpt lat="37.9829000" lon="-5.6677220">
        <ele>546.9</ele>
        <time>2022-05-22T11:47:45Z</time>
      </trkpt>
      <trkpt lat="37.9828860" lon="-5.6677170">
        <ele>546.9</ele>
        <time>2022-05-22T11:47:47Z</time>
      </trkpt>
      <trkpt lat="37.9828700" lon="-5.6677100">
        <ele>546.8</ele>
        <time>2022-05-22T11:47:48Z</time>
      </trkpt>
      <trkpt lat="37.9828500" lon="-5.6677000">
        <ele>546.8</ele>
        <time>2022-05-22T11:47:49Z</time>
      </trkpt>
      <trkpt lat="37.9828410" lon="-5.6676950">
        <ele>546.7</ele>
        <time>2022-05-22T11:47:50Z</time>
      </trkpt>
      <trkpt lat="37.9828320" lon="-5.6676910">
        <ele>546.7</ele>
        <time>2022-05-22T11:47:51Z</time>
      </trkpt>
      <trkpt lat="37.9828200" lon="-5.6676840">
        <ele>546.7</ele>
        <time>2022-05-22T11:47:52Z</time>
      </trkpt>
      <trkpt lat="37.9828050" lon="-5.6676750">
        <ele>546.6</ele>
        <time>2022-05-22T11:47:53Z</time>
      </trkpt>
      <trkpt lat="37.9827820" lon="-5.6676590">
        <ele>546.6</ele>
        <time>2022-05-22T11:47:54Z</time>
      </trkpt>
      <trkpt lat="37.9827720" lon="-5.6676520">
        <ele>546.5</ele>
        <time>2022-05-22T11:47:56Z</time>
      </trkpt>
      <trkpt lat="37.9827620" lon="-5.6676450">
        <ele>546.5</ele>
        <time>2022-05-22T11:47:57Z</time>
      </trkpt>
      <trkpt lat="37.9827520" lon="-5.6676380">
        <ele>546.5</ele>
        <time>2022-05-22T11:47:58Z</time>
      </trkpt>
      <trkpt lat="37.9827420" lon="-5.6676310">
        <ele>546.4</ele>
        <time>2022-05-22T11:47:59Z</time>
      </trkpt>
      <trkpt lat="37.9827250" lon="-5.6676160">
        <ele>546.4</ele>
        <time>2022-05-22T11:48:00Z</time>
      </trkpt>
      <trkpt lat="37.9827180" lon="-5.6676090">
        <ele>546.3</ele>
        <time>2022-05-22T11:48:01Z</time>
      </trkpt>
      <trkpt lat="37.9827100" lon="-5.6676010">
        <ele>546.3</ele>
        <time>2022-05-22T11:48:02Z</time>
      </trkpt>
      <trkpt lat="37.9826980" lon="-5.6675890">
        <ele>546.3</ele>
        <time>2022-05-22T11:48:03Z</time>
      </trkpt>
      <trkpt lat="37.9826870" lon="-5.6675780">
        <ele>546.2</ele>
        <time>2022-05-22T11:48:04Z</time>
      </trkpt>
      <trkpt lat="37.9826760" lon="-5.6675670">
        <ele>546.2</ele>
        <time>2022-05-22T11:48:05Z</time>
      </trkpt>
      <trkpt lat="37.9826560" lon="-5.6675470">
        <ele>546.1</ele>
        <time>2022-05-22T11:48:06Z</time>
      </trkpt>
      <trkpt lat="37.9826470" lon="-5.6675380">
        <ele>546.1</ele>
        <time>2022-05-22T11:48:07Z</time>
      </trkpt>
      <trkpt lat="37.9826380" lon="-5.6675290">
        <ele>546.1</ele>
        <time>2022-05-22T11:48:08Z</time>
      </trkpt>
      <trkpt lat="37.9826210" lon="-5.6675120">
        <ele>546.0</ele>
        <time>2022-05-22T11:48:09Z</time>
      </trkpt>
      <trkpt lat="37.9826150" lon="-5.6675050">
        <ele>546.0</ele>
        <time>2022-05-22T11:48:10Z</time>
      </trkpt>
      <trkpt lat="37.9826090" lon="-5.6674990">
        <ele>546.0</ele>
        <time>2022-05-22T11:48:11Z</time>
      </trkpt>
      <trkpt lat="37.9825900" lon="-5.6674850">
        <ele>545.9</ele>
        <time>2022-05-22T11:48:13Z</time>
      </trkpt>
      <trkpt lat="37.9825820" lon="-5.6674800">
        <ele>545.9</ele>
        <time>2022-05-22T11:48:14Z</time>
      </trkpt>
      <trkpt lat="37.9825740" lon="-5.6674750">
        <ele>545.9</ele>
        <time>2022-05-22T11:48:15Z</time>
      </trkpt>
      <trkpt lat="37.9825520" lon="-5.6674660">
        <ele>545.8</ele>
        <time>2022-05-22T11:48:16Z</time>
      </trkpt>
      <trkpt lat="37.9825430" lon="-5.6674620">
        <ele>545.8</ele>
        <time>2022-05-22T11:48:17Z</time>
      </trkpt>
      <trkpt lat="37.9825330" lon="-5.6674590">
        <ele>545.7</ele>
        <time>2022-05-22T11:48:18Z</time>
      </trkpt>
      <trkpt lat="37.9825180" lon="-5.6674570">
        <ele>545.7</ele>
        <time>2022-05-22T11:48:19Z</time>
      </trkpt>
      <trkpt lat="37.9825060" lon="-5.6674560">
        <ele>545.7</ele>
        <time>2022-05-22T11:48:20Z</time>
      </trkpt>
      <trkpt lat="37.9824850" lon="-5.6674510">
        <ele>545.6</ele>
        <time>2022-05-22T11:48:22Z</time>
      </trkpt>
      <trkpt lat="37.9824710" lon="-5.6674480">
        <ele>545.6</ele>
        <time>2022-05-22T11:48:23Z</time>
      </trkpt>
      <trkpt lat="37.9824570" lon="-5.6674460">
        <ele>545.5</ele>
        <time>2022-05-22T11:48:24Z</time>
      </trkpt>
      <trkpt lat="37.9824280" lon="-5.6674400">
        <ele>545.4</ele>
        <time>2022-05-22T11:48:26Z</time>
      </trkpt>
      <trkpt lat="37.9824120" lon="-5.6674370">
        <ele>545.4</ele>
        <time>2022-05-22T11:48:27Z</time>
      </trkpt>
      <trkpt lat="37.9823960" lon="-5.6674350">
        <ele>545.3</ele>
        <time>2022-05-22T11:48:28Z</time>
      </trkpt>
      <trkpt lat="37.9823590" lon="-5.6674320">
        <ele>545.2</ele>
        <time>2022-05-22T11:48:30Z</time>
      </trkpt>
      <trkpt lat="37.9823280" lon="-5.6674290">
        <ele>545.1</ele>
        <time>2022-05-22T11:48:32Z</time>
      </trkpt>
      <trkpt lat="37.9823180" lon="-5.6674280">
        <ele>545.1</ele>
        <time>2022-05-22T11:48:33Z</time>
      </trkpt>
      <trkpt lat="37.9823040" lon="-5.6674240">
        <ele>545.1</ele>
        <time>2022-05-22T11:48:34Z</time>
      </trkpt>
      <trkpt lat="37.9822900" lon="-5.6674200">
        <ele>545.0</ele>
        <time>2022-05-22T11:48:35Z</time>
      </trkpt>
      <trkpt lat="37.9822790" lon="-5.6674150">
        <ele>545.0</ele>
        <time>2022-05-22T11:48:36Z</time>
      </trkpt>
      <trkpt lat="37.9822640" lon="-5.6674070">
        <ele>545.0</ele>
        <time>2022-05-22T11:48:37Z</time>
      </trkpt>
      <trkpt lat="37.9822490" lon="-5.6673960">
        <ele>544.9</ele>
        <time>2022-05-22T11:48:39Z</time>
      </trkpt>
      <trkpt lat="37.9822370" lon="-5.6673860">
        <ele>544.9</ele>
        <time>2022-05-22T11:48:40Z</time>
      </trkpt>
      <trkpt lat="37.9822240" lon="-5.6673770">
        <ele>544.8</ele>
        <time>2022-05-22T11:48:41Z</time>
      </trkpt>
      <trkpt lat="37.9822120" lon="-5.6673690">
        <ele>544.8</ele>
        <time>2022-05-22T11:48:42Z</time>
      </trkpt>
      <trkpt lat="37.9822000" lon="-5.6673620">
        <ele>544.7</ele>
        <time>2022-05-22T11:48:43Z</time>
      </trkpt>
      <trkpt lat="37.9821870" lon="-5.6673550">
        <ele>544.7</ele>
        <time>2022-05-22T11:48:44Z</time>
      </trkpt>
      <trkpt lat="37.9821740" lon="-5.6673470">
        <ele>544.7</ele>
        <time>2022-05-22T11:48:45Z</time>
      </trkpt>
      <trkpt lat="37.9821620" lon="-5.6673410">
        <ele>544.6</ele>
        <time>2022-05-22T11:48:46Z</time>
      </trkpt>
      <trkpt lat="37.9821420" lon="-5.6673310">
        <ele>544.6</ele>
        <time>2022-05-22T11:48:47Z</time>
      </trkpt>
      <trkpt lat="37.9821340" lon="-5.6673270">
        <ele>544.5</ele>
        <time>2022-05-22T11:48:48Z</time>
      </trkpt>
      <trkpt lat="37.9821260" lon="-5.6673230">
        <ele>544.5</ele>
        <time>2022-05-22T11:48:49Z</time>
      </trkpt>
      <trkpt lat="37.9821070" lon="-5.6673110">
        <ele>544.5</ele>
        <time>2022-05-22T11:48:50Z</time>
      </trkpt>
      <trkpt lat="37.9820990" lon="-5.6673050">
        <ele>544.4</ele>
        <time>2022-05-22T11:48:51Z</time>
      </trkpt>
      <trkpt lat="37.9820900" lon="-5.6672990">
        <ele>544.4</ele>
        <time>2022-05-22T11:48:52Z</time>
      </trkpt>
      <trkpt lat="37.9820650" lon="-5.6672740">
        <ele>544.3</ele>
        <time>2022-05-22T11:48:53Z</time>
      </trkpt>
      <trkpt lat="37.9820590" lon="-5.6672680">
        <ele>544.3</ele>
        <time>2022-05-22T11:48:54Z</time>
      </trkpt>
      <trkpt lat="37.9820470" lon="-5.6672560">
        <ele>544.3</ele>
        <time>2022-05-22T11:48:55Z</time>
      </trkpt>
      <trkpt lat="37.9820330" lon="-5.6672440">
        <ele>544.2</ele>
        <time>2022-05-22T11:48:56Z</time>
      </trkpt>
      <trkpt lat="37.9820200" lon="-5.6672310">
        <ele>544.2</ele>
        <time>2022-05-22T11:48:57Z</time>
      </trkpt>
      <trkpt lat="37.9820100" lon="-5.6672220">
        <ele>544.2</ele>
        <time>2022-05-22T11:48:58Z</time>
      </trkpt>
      <trkpt lat="37.9819990" lon="-5.6672130">
        <ele>544.1</ele>
        <time>2022-05-22T11:48:59Z</time>
      </trkpt>
      <trkpt lat="37.9819860" lon="-5.6672040">
        <ele>544.1</ele>
        <time>2022-05-22T11:49:00Z</time>
      </trkpt>
      <trkpt lat="37.9819730" lon="-5.6671940">
        <ele>544.0</ele>
        <time>2022-05-22T11:49:01Z</time>
      </trkpt>
      <trkpt lat="37.9819590" lon="-5.6671840">
        <ele>544.0</ele>
        <time>2022-05-22T11:49:02Z</time>
      </trkpt>
      <trkpt lat="37.9819470" lon="-5.6671760">
        <ele>544.0</ele>
        <time>2022-05-22T11:49:03Z</time>
      </trkpt>
      <trkpt lat="37.9819310" lon="-5.6671640">
        <ele>543.9</ele>
        <time>2022-05-22T11:49:05Z</time>
      </trkpt>
      <trkpt lat="37.9819180" lon="-5.6671560">
        <ele>543.9</ele>
        <time>2022-05-22T11:49:06Z</time>
      </trkpt>
      <trkpt lat="37.9819040" lon="-5.6671460">
        <ele>543.9</ele>
        <time>2022-05-22T11:49:07Z</time>
      </trkpt>
      <trkpt lat="37.9818910" lon="-5.6671380">
        <ele>543.8</ele>
        <time>2022-05-22T11:49:08Z</time>
      </trkpt>
      <trkpt lat="37.9818770" lon="-5.6671320">
        <ele>543.8</ele>
        <time>2022-05-22T11:49:09Z</time>
      </trkpt>
      <trkpt lat="37.9818650" lon="-5.6671290">
        <ele>543.8</ele>
        <time>2022-05-22T11:49:10Z</time>
      </trkpt>
      <trkpt lat="37.9818540" lon="-5.6671250">
        <ele>543.7</ele>
        <time>2022-05-22T11:49:11Z</time>
      </trkpt>
      <trkpt lat="37.9818420" lon="-5.6671200">
        <ele>543.7</ele>
        <time>2022-05-22T11:49:12Z</time>
      </trkpt>
      <trkpt lat="37.9818310" lon="-5.6671150">
        <ele>543.7</ele>
        <time>2022-05-22T11:49:13Z</time>
      </trkpt>
      <trkpt lat="37.9818070" lon="-5.6671060">
        <ele>543.6</ele>
        <time>2022-05-22T11:49:15Z</time>
      </trkpt>
      <trkpt lat="37.9817960" lon="-5.6671030">
        <ele>543.6</ele>
        <time>2022-05-22T11:49:16Z</time>
      </trkpt>
      <trkpt lat="37.9817840" lon="-5.6670980">
        <ele>543.5</ele>
        <time>2022-05-22T11:49:17Z</time>
      </trkpt>
      <trkpt lat="37.9817740" lon="-5.6670940">
        <ele>543.5</ele>
        <time>2022-05-22T11:49:18Z</time>
      </trkpt>
      <trkpt lat="37.9817640" lon="-5.6670900">
        <ele>543.5</ele>
        <time>2022-05-22T11:49:19Z</time>
      </trkpt>
      <trkpt lat="37.9817430" lon="-5.6670800">
        <ele>543.4</ele>
        <time>2022-05-22T11:49:20Z</time>
      </trkpt>
      <trkpt lat="37.9817320" lon="-5.6670730">
        <ele>543.4</ele>
        <time>2022-05-22T11:49:21Z</time>
      </trkpt>
      <trkpt lat="37.9817210" lon="-5.6670660">
        <ele>543.4</ele>
        <time>2022-05-22T11:49:22Z</time>
      </trkpt>
      <trkpt lat="37.9817030" lon="-5.6670650">
        <ele>543.3</ele>
        <time>2022-05-22T11:49:24Z</time>
      </trkpt>
      <trkpt lat="37.9816940" lon="-5.6670700">
        <ele>543.3</ele>
        <time>2022-05-22T11:49:25Z</time>
      </trkpt>
      <trkpt lat="37.9816850" lon="-5.6670730">
        <ele>543.3</ele>
        <time>2022-05-22T11:49:26Z</time>
      </trkpt>
      <trkpt lat="37.9816740" lon="-5.6670690">
        <ele>543.2</ele>
        <time>2022-05-22T11:49:27Z</time>
      </trkpt>
      <trkpt lat="37.9816580" lon="-5.6670600">
        <ele>543.2</ele>
        <time>2022-05-22T11:49:28Z</time>
      </trkpt>
      <trkpt lat="37.9816490" lon="-5.6670460">
        <ele>543.2</ele>
        <time>2022-05-22T11:49:29Z</time>
      </trkpt>
      <trkpt lat="37.9816450" lon="-5.6670220">
        <ele>543.1</ele>
        <time>2022-05-22T11:49:31Z</time>
      </trkpt>
      <trkpt lat="37.9816410" lon="-5.6670050">
        <ele>543.1</ele>
        <time>2022-05-22T11:49:32Z</time>
      </trkpt>
      <trkpt lat="37.9816330" lon="-5.6669800">
        <ele>543.0</ele>
        <time>2022-05-22T11:49:33Z</time>
      </trkpt>
      <trkpt lat="37.9816290" lon="-5.6669710">
        <ele>543.0</ele>
        <time>2022-05-22T11:49:34Z</time>
      </trkpt>
      <trkpt lat="37.9816250" lon="-5.6669610">
        <ele>543.0</ele>
        <time>2022-05-22T11:49:35Z</time>
      </trkpt>
      <trkpt lat="37.9816120" lon="-5.6669420">
        <ele>542.9</ele>
        <time>2022-05-22T11:49:36Z</time>
      </trkpt>
      <trkpt lat="37.9816060" lon="-5.6669340">
        <ele>542.9</ele>
        <time>2022-05-22T11:49:37Z</time>
      </trkpt>
      <trkpt lat="37.9816000" lon="-5.6669250">
        <ele>542.9</ele>
        <time>2022-05-22T11:49:38Z</time>
      </trkpt>
      <trkpt lat="37.9815840" lon="-5.6669070">
        <ele>542.8</ele>
        <time>2022-05-22T11:49:39Z</time>
      </trkpt>
      <trkpt lat="37.9815780" lon="-5.6669010">
        <ele>542.8</ele>
        <time>2022-05-22T11:49:40Z</time>
      </trkpt>
      <trkpt lat="37.9815710" lon="-5.6668950">
        <ele>542.8</ele>
        <time>2022-05-22T11:49:41Z</time>
      </trkpt>
      <trkpt lat="37.9815610" lon="-5.6668870">
        <ele>542.8</ele>
        <time>2022-05-22T11:49:42Z</time>
      </trkpt>
      <trkpt lat="37.9815510" lon="-5.6668770">
        <ele>542.7</ele>
        <time>2022-05-22T11:49:43Z</time>
      </trkpt>
      <trkpt lat="37.9815430" lon="-5.6668780">
        <ele>542.7</ele>
        <time>2022-05-22T11:49:44Z</time>
      </trkpt>
      <trkpt lat="37.9815280" lon="-5.6668790">
        <ele>542.7</ele>
        <time>2022-05-22T11:49:45Z</time>
      </trkpt>
      <trkpt lat="37.9815190" lon="-5.6668710">
        <ele>542.7</ele>
        <time>2022-05-22T11:49:46Z</time>
      </trkpt>
      <trkpt lat="37.9815100" lon="-5.6668620">
        <ele>542.6</ele>
        <time>2022-05-22T11:49:48Z</time>
      </trkpt>
      <trkpt lat="37.9815010" lon="-5.6668540">
        <ele>542.6</ele>
        <time>2022-05-22T11:49:49Z</time>
      </trkpt>
      <trkpt lat="37.9814920" lon="-5.6668460">
        <ele>542.6</ele>
        <time>2022-05-22T11:49:50Z</time>
      </trkpt>
      <trkpt lat="37.9814830" lon="-5.6668380">
        <ele>542.5</ele>
        <time>2022-05-22T11:49:51Z</time>
      </trkpt>
      <trkpt lat="37.9814710" lon="-5.6668300">
        <ele>542.5</ele>
        <time>2022-05-22T11:49:52Z</time>
      </trkpt>
      <trkpt lat="37.9814580" lon="-5.6668220">
        <ele>542.5</ele>
        <time>2022-05-22T11:49:53Z</time>
      </trkpt>
      <trkpt lat="37.9814460" lon="-5.6668140">
        <ele>542.4</ele>
        <time>2022-05-22T11:49:54Z</time>
      </trkpt>
      <trkpt lat="37.9814330" lon="-5.6668060">
        <ele>542.4</ele>
        <time>2022-05-22T11:49:55Z</time>
      </trkpt>
      <trkpt lat="37.9814180" lon="-5.6668000">
        <ele>542.3</ele>
        <time>2022-05-22T11:49:56Z</time>
      </trkpt>
      <trkpt lat="37.9814020" lon="-5.6667910">
        <ele>542.2</ele>
        <time>2022-05-22T11:49:57Z</time>
      </trkpt>
      <trkpt lat="37.9813900" lon="-5.6667840">
        <ele>542.2</ele>
        <time>2022-05-22T11:49:58Z</time>
      </trkpt>
      <trkpt lat="37.9813770" lon="-5.6667770">
        <ele>542.1</ele>
        <time>2022-05-22T11:49:59Z</time>
      </trkpt>
      <trkpt lat="37.9813670" lon="-5.6667710">
        <ele>542.1</ele>
        <time>2022-05-22T11:50:00Z</time>
      </trkpt>
      <trkpt lat="37.9813500" lon="-5.6667600">
        <ele>542.0</ele>
        <time>2022-05-22T11:50:02Z</time>
      </trkpt>
      <trkpt lat="37.9813380" lon="-5.6667510">
        <ele>541.9</ele>
        <time>2022-05-22T11:50:03Z</time>
      </trkpt>
      <trkpt lat="37.9813260" lon="-5.6667420">
        <ele>541.9</ele>
        <time>2022-05-22T11:50:04Z</time>
      </trkpt>
      <trkpt lat="37.9813080" lon="-5.6667260">
        <ele>541.8</ele>
        <time>2022-05-22T11:50:05Z</time>
      </trkpt>
      <trkpt lat="37.9813010" lon="-5.6667190">
        <ele>541.7</ele>
        <time>2022-05-22T11:50:06Z</time>
      </trkpt>
      <trkpt lat="37.9812940" lon="-5.6667120">
        <ele>541.7</ele>
        <time>2022-05-22T11:50:07Z</time>
      </trkpt>
      <trkpt lat="37.9812840" lon="-5.6667020">
        <ele>541.7</ele>
        <time>2022-05-22T11:50:08Z</time>
      </trkpt>
      <trkpt lat="37.9812740" lon="-5.6666920">
        <ele>541.6</ele>
        <time>2022-05-22T11:50:09Z</time>
      </trkpt>
      <trkpt lat="37.9812590" lon="-5.6666800">
        <ele>541.5</ele>
        <time>2022-05-22T11:50:11Z</time>
      </trkpt>
      <trkpt lat="37.9812400" lon="-5.6666670">
        <ele>541.5</ele>
        <time>2022-05-22T11:50:12Z</time>
      </trkpt>
      <trkpt lat="37.9812270" lon="-5.6666590">
        <ele>541.4</ele>
        <time>2022-05-22T11:50:13Z</time>
      </trkpt>
      <trkpt lat="37.9812120" lon="-5.6666500">
        <ele>541.4</ele>
        <time>2022-05-22T11:50:15Z</time>
      </trkpt>
      <trkpt lat="37.9811990" lon="-5.6666470">
        <ele>541.3</ele>
        <time>2022-05-22T11:50:16Z</time>
      </trkpt>
      <trkpt lat="37.9811850" lon="-5.6666460">
        <ele>541.3</ele>
        <time>2022-05-22T11:50:17Z</time>
      </trkpt>
      <trkpt lat="37.9811740" lon="-5.6666420">
        <ele>541.2</ele>
        <time>2022-05-22T11:50:18Z</time>
      </trkpt>
      <trkpt lat="37.9811670" lon="-5.6666330">
        <ele>541.2</ele>
        <time>2022-05-22T11:50:19Z</time>
      </trkpt>
      <trkpt lat="37.9811570" lon="-5.6666170">
        <ele>541.1</ele>
        <time>2022-05-22T11:50:21Z</time>
      </trkpt>
      <trkpt lat="37.9811450" lon="-5.6666030">
        <ele>541.1</ele>
        <time>2022-05-22T11:50:22Z</time>
      </trkpt>
      <trkpt lat="37.9811290" lon="-5.6665860">
        <ele>541.0</ele>
        <time>2022-05-22T11:50:23Z</time>
      </trkpt>
      <trkpt lat="37.9811220" lon="-5.6665790">
        <ele>541.0</ele>
        <time>2022-05-22T11:50:24Z</time>
      </trkpt>
      <trkpt lat="37.9811150" lon="-5.6665720">
        <ele>541.0</ele>
        <time>2022-05-22T11:50:25Z</time>
      </trkpt>
      <trkpt lat="37.9811050" lon="-5.6665590">
        <ele>540.9</ele>
        <time>2022-05-22T11:50:26Z</time>
      </trkpt>
      <trkpt lat="37.9810950" lon="-5.6665450">
        <ele>540.9</ele>
        <time>2022-05-22T11:50:27Z</time>
      </trkpt>
      <trkpt lat="37.9810850" lon="-5.6665320">
        <ele>540.8</ele>
        <time>2022-05-22T11:50:28Z</time>
      </trkpt>
      <trkpt lat="37.9810750" lon="-5.6665210">
        <ele>540.8</ele>
        <time>2022-05-22T11:50:29Z</time>
      </trkpt>
      <trkpt lat="37.9810630" lon="-5.6665110">
        <ele>540.7</ele>
        <time>2022-05-22T11:50:30Z</time>
      </trkpt>
      <trkpt lat="37.9810510" lon="-5.6665000">
        <ele>540.7</ele>
        <time>2022-05-22T11:50:31Z</time>
      </trkpt>
      <trkpt lat="37.9810380" lon="-5.6664900">
        <ele>540.7</ele>
        <time>2022-05-22T11:50:32Z</time>
      </trkpt>
      <trkpt lat="37.9810240" lon="-5.6664810">
        <ele>540.6</ele>
        <time>2022-05-22T11:50:33Z</time>
      </trkpt>
      <trkpt lat="37.9810110" lon="-5.6664730">
        <ele>540.6</ele>
        <time>2022-05-22T11:50:34Z</time>
      </trkpt>
      <trkpt lat="37.9809990" lon="-5.6664640">
        <ele>540.5</ele>
        <time>2022-05-22T11:50:35Z</time>
      </trkpt>
      <trkpt lat="37.9809860" lon="-5.6664540">
        <ele>540.5</ele>
        <time>2022-05-22T11:50:36Z</time>
      </trkpt>
      <trkpt lat="37.9809740" lon="-5.6664450">
        <ele>540.5</ele>
        <time>2022-05-22T11:50:37Z</time>
      </trkpt>
      <trkpt lat="37.9809450" lon="-5.6664250">
        <ele>540.4</ele>
        <time>2022-05-22T11:50:38Z</time>
      </trkpt>
      <trkpt lat="37.9809280" lon="-5.6664140">
        <ele>540.3</ele>
        <time>2022-05-22T11:50:40Z</time>
      </trkpt>
      <trkpt lat="37.9809130" lon="-5.6664050">
        <ele>540.3</ele>
        <time>2022-05-22T11:50:41Z</time>
      </trkpt>
      <trkpt lat="37.9809000" lon="-5.6663950">
        <ele>540.2</ele>
        <time>2022-05-22T11:50:42Z</time>
      </trkpt>
      <trkpt lat="37.9808850" lon="-5.6663840">
        <ele>540.2</ele>
        <time>2022-05-22T11:50:43Z</time>
      </trkpt>
      <trkpt lat="37.9808680" lon="-5.6663710">
        <ele>540.1</ele>
        <time>2022-05-22T11:50:44Z</time>
      </trkpt>
      <trkpt lat="37.9808570" lon="-5.6663610">
        <ele>540.1</ele>
        <time>2022-05-22T11:50:45Z</time>
      </trkpt>
      <trkpt lat="37.9808380" lon="-5.6663440">
        <ele>540.0</ele>
        <time>2022-05-22T11:50:46Z</time>
      </trkpt>
      <trkpt lat="37.9808310" lon="-5.6663350">
        <ele>540.0</ele>
        <time>2022-05-22T11:50:47Z</time>
      </trkpt>
      <trkpt lat="37.9808230" lon="-5.6663270">
        <ele>540.0</ele>
        <time>2022-05-22T11:50:48Z</time>
      </trkpt>
      <trkpt lat="37.9808120" lon="-5.6663150">
        <ele>539.9</ele>
        <time>2022-05-22T11:50:50Z</time>
      </trkpt>
      <trkpt lat="37.9807960" lon="-5.6663000">
        <ele>539.9</ele>
        <time>2022-05-22T11:50:51Z</time>
      </trkpt>
      <trkpt lat="37.9807850" lon="-5.6662890">
        <ele>539.8</ele>
        <time>2022-05-22T11:50:52Z</time>
      </trkpt>
      <trkpt lat="37.9807710" lon="-5.6662770">
        <ele>539.8</ele>
        <time>2022-05-22T11:50:53Z</time>
      </trkpt>
      <trkpt lat="37.9807590" lon="-5.6662640">
        <ele>539.8</ele>
        <time>2022-05-22T11:50:54Z</time>
      </trkpt>
      <trkpt lat="37.9807470" lon="-5.6662520">
        <ele>539.7</ele>
        <time>2022-05-22T11:50:55Z</time>
      </trkpt>
      <trkpt lat="37.9807300" lon="-5.6662360">
        <ele>539.7</ele>
        <time>2022-05-22T11:50:56Z</time>
      </trkpt>
      <trkpt lat="37.9807230" lon="-5.6662300">
        <ele>539.6</ele>
        <time>2022-05-22T11:50:57Z</time>
      </trkpt>
      <trkpt lat="37.9807170" lon="-5.6662250">
        <ele>539.6</ele>
        <time>2022-05-22T11:50:58Z</time>
      </trkpt>
      <trkpt lat="37.9806990" lon="-5.6662080">
        <ele>539.5</ele>
        <time>2022-05-22T11:50:59Z</time>
      </trkpt>
      <trkpt lat="37.9806920" lon="-5.6662010">
        <ele>539.5</ele>
        <time>2022-05-22T11:51:00Z</time>
      </trkpt>
      <trkpt lat="37.9806850" lon="-5.6661940">
        <ele>539.5</ele>
        <time>2022-05-22T11:51:01Z</time>
      </trkpt>
      <trkpt lat="37.9806680" lon="-5.6661780">
        <ele>539.4</ele>
        <time>2022-05-22T11:51:02Z</time>
      </trkpt>
      <trkpt lat="37.9806600" lon="-5.6661720">
        <ele>539.4</ele>
        <time>2022-05-22T11:51:03Z</time>
      </trkpt>
      <trkpt lat="37.9806530" lon="-5.6661650">
        <ele>539.4</ele>
        <time>2022-05-22T11:51:04Z</time>
      </trkpt>
      <trkpt lat="37.9806360" lon="-5.6661500">
        <ele>539.3</ele>
        <time>2022-05-22T11:51:05Z</time>
      </trkpt>
      <trkpt lat="37.9806280" lon="-5.6661440">
        <ele>539.3</ele>
        <time>2022-05-22T11:51:06Z</time>
      </trkpt>
      <trkpt lat="37.9806200" lon="-5.6661380">
        <ele>539.3</ele>
        <time>2022-05-22T11:51:07Z</time>
      </trkpt>
      <trkpt lat="37.9806080" lon="-5.6661290">
        <ele>539.2</ele>
        <time>2022-05-22T11:51:08Z</time>
      </trkpt>
      <trkpt lat="37.9805870" lon="-5.6661110">
        <ele>539.2</ele>
        <time>2022-05-22T11:51:10Z</time>
      </trkpt>
      <trkpt lat="37.9805710" lon="-5.6660970">
        <ele>539.1</ele>
        <time>2022-05-22T11:51:11Z</time>
      </trkpt>
      <trkpt lat="37.9805640" lon="-5.6660910">
        <ele>539.1</ele>
        <time>2022-05-22T11:51:12Z</time>
      </trkpt>
      <trkpt lat="37.9805570" lon="-5.6660850">
        <ele>539.1</ele>
        <time>2022-05-22T11:51:13Z</time>
      </trkpt>
      <trkpt lat="37.9805380" lon="-5.6660670">
        <ele>539.0</ele>
        <time>2022-05-22T11:51:14Z</time>
      </trkpt>
      <trkpt lat="37.9805290" lon="-5.6660590">
        <ele>539.0</ele>
        <time>2022-05-22T11:51:15Z</time>
      </trkpt>
      <trkpt lat="37.9805200" lon="-5.6660520">
        <ele>538.9</ele>
        <time>2022-05-22T11:51:16Z</time>
      </trkpt>
      <trkpt lat="37.9805120" lon="-5.6660440">
        <ele>538.9</ele>
        <time>2022-05-22T11:51:17Z</time>
      </trkpt>
      <trkpt lat="37.9805030" lon="-5.6660350">
        <ele>538.9</ele>
        <time>2022-05-22T11:51:18Z</time>
      </trkpt>
      <trkpt lat="37.9804940" lon="-5.6660290">
        <ele>538.8</ele>
        <time>2022-05-22T11:51:19Z</time>
      </trkpt>
      <trkpt lat="37.9804840" lon="-5.6660230">
        <ele>538.8</ele>
        <time>2022-05-22T11:51:20Z</time>
      </trkpt>
      <trkpt lat="37.9804750" lon="-5.6660150">
        <ele>538.8</ele>
        <time>2022-05-22T11:51:21Z</time>
      </trkpt>
      <trkpt lat="37.9804660" lon="-5.6660080">
        <ele>538.8</ele>
        <time>2022-05-22T11:51:22Z</time>
      </trkpt>
      <trkpt lat="37.9804550" lon="-5.6659980">
        <ele>538.7</ele>
        <time>2022-05-22T11:51:24Z</time>
      </trkpt>
      <trkpt lat="37.9804450" lon="-5.6659940">
        <ele>538.7</ele>
        <time>2022-05-22T11:51:25Z</time>
      </trkpt>
      <trkpt lat="37.9804400" lon="-5.6659990">
        <ele>538.7</ele>
        <time>2022-05-22T11:51:26Z</time>
      </trkpt>
      <trkpt lat="37.9804260" lon="-5.6659950">
        <ele>538.6</ele>
        <time>2022-05-22T11:51:28Z</time>
      </trkpt>
      <trkpt lat="37.9804090" lon="-5.6659900">
        <ele>538.6</ele>
        <time>2022-05-22T11:51:29Z</time>
      </trkpt>
      <trkpt lat="37.9803930" lon="-5.6659840">
        <ele>538.5</ele>
        <time>2022-05-22T11:51:30Z</time>
      </trkpt>
      <trkpt lat="37.9803760" lon="-5.6659780">
        <ele>538.5</ele>
        <time>2022-05-22T11:51:31Z</time>
      </trkpt>
      <trkpt lat="37.9803550" lon="-5.6659660">
        <ele>538.4</ele>
        <time>2022-05-22T11:51:32Z</time>
      </trkpt>
      <trkpt lat="37.9803480" lon="-5.6659610">
        <ele>538.4</ele>
        <time>2022-05-22T11:51:33Z</time>
      </trkpt>
      <trkpt lat="37.9803420" lon="-5.6659560">
        <ele>538.4</ele>
        <time>2022-05-22T11:51:34Z</time>
      </trkpt>
      <trkpt lat="37.9803240" lon="-5.6659410">
        <ele>538.3</ele>
        <time>2022-05-22T11:51:36Z</time>
      </trkpt>
      <trkpt lat="37.9803160" lon="-5.6659300">
        <ele>538.3</ele>
        <time>2022-05-22T11:51:37Z</time>
      </trkpt>
      <trkpt lat="37.9803070" lon="-5.6659190">
        <ele>538.3</ele>
        <time>2022-05-22T11:51:38Z</time>
      </trkpt>
      <trkpt lat="37.9802990" lon="-5.6659090">
        <ele>538.2</ele>
        <time>2022-05-22T11:51:39Z</time>
      </trkpt>
      <trkpt lat="37.9802910" lon="-5.6659000">
        <ele>538.2</ele>
        <time>2022-05-22T11:51:40Z</time>
      </trkpt>
      <trkpt lat="37.9802870" lon="-5.6658720">
        <ele>538.2</ele>
        <time>2022-05-22T11:51:41Z</time>
      </trkpt>
      <trkpt lat="37.9802840" lon="-5.6658630">
        <ele>538.1</ele>
        <time>2022-05-22T11:51:42Z</time>
      </trkpt>
      <trkpt lat="37.9802800" lon="-5.6658540">
        <ele>538.1</ele>
        <time>2022-05-22T11:51:43Z</time>
      </trkpt>
      <trkpt lat="37.9802690" lon="-5.6658420">
        <ele>538.1</ele>
        <time>2022-05-22T11:51:44Z</time>
      </trkpt>
      <trkpt lat="37.9802570" lon="-5.6658310">
        <ele>538.0</ele>
        <time>2022-05-22T11:51:45Z</time>
      </trkpt>
      <trkpt lat="37.9802420" lon="-5.6658180">
        <ele>538.0</ele>
        <time>2022-05-22T11:51:46Z</time>
      </trkpt>
      <trkpt lat="37.9802320" lon="-5.6658100">
        <ele>538.0</ele>
        <time>2022-05-22T11:51:47Z</time>
      </trkpt>
      <trkpt lat="37.9802160" lon="-5.6657970">
        <ele>537.9</ele>
        <time>2022-05-22T11:51:49Z</time>
      </trkpt>
      <trkpt lat="37.9802040" lon="-5.6657870">
        <ele>537.9</ele>
        <time>2022-05-22T11:51:50Z</time>
      </trkpt>
      <trkpt lat="37.9801720" lon="-5.6657530">
        <ele>537.8</ele>
        <time>2022-05-22T11:51:52Z</time>
      </trkpt>
      <trkpt lat="37.9801630" lon="-5.6657420">
        <ele>537.7</ele>
        <time>2022-05-22T11:51:53Z</time>
      </trkpt>
      <trkpt lat="37.9801540" lon="-5.6657310">
        <ele>537.7</ele>
        <time>2022-05-22T11:51:54Z</time>
      </trkpt>
      <trkpt lat="37.9801430" lon="-5.6657180">
        <ele>537.7</ele>
        <time>2022-05-22T11:51:55Z</time>
      </trkpt>
      <trkpt lat="37.9801210" lon="-5.6656950">
        <ele>537.6</ele>
        <time>2022-05-22T11:51:57Z</time>
      </trkpt>
      <trkpt lat="37.9801110" lon="-5.6656860">
        <ele>537.6</ele>
        <time>2022-05-22T11:51:58Z</time>
      </trkpt>
      <trkpt lat="37.9801010" lon="-5.6656800">
        <ele>537.5</ele>
        <time>2022-05-22T11:51:59Z</time>
      </trkpt>
      <trkpt lat="37.9800920" lon="-5.6656770">
        <ele>537.5</ele>
        <time>2022-05-22T11:52:00Z</time>
      </trkpt>
      <trkpt lat="37.9800800" lon="-5.6656720">
        <ele>537.5</ele>
        <time>2022-05-22T11:52:02Z</time>
      </trkpt>
      <trkpt lat="37.9800700" lon="-5.6656750">
        <ele>537.5</ele>
        <time>2022-05-22T11:52:03Z</time>
      </trkpt>
      <trkpt lat="37.9800500" lon="-5.6656760">
        <ele>537.4</ele>
        <time>2022-05-22T11:52:04Z</time>
      </trkpt>
      <trkpt lat="37.9800420" lon="-5.6656730">
        <ele>537.4</ele>
        <time>2022-05-22T11:52:05Z</time>
      </trkpt>
      <trkpt lat="37.9800340" lon="-5.6656700">
        <ele>537.4</ele>
        <time>2022-05-22T11:52:06Z</time>
      </trkpt>
      <trkpt lat="37.9800160" lon="-5.6656600">
        <ele>537.3</ele>
        <time>2022-05-22T11:52:07Z</time>
      </trkpt>
      <trkpt lat="37.9800080" lon="-5.6656550">
        <ele>537.3</ele>
        <time>2022-05-22T11:52:08Z</time>
      </trkpt>
      <trkpt lat="37.9800000" lon="-5.6656500">
        <ele>537.3</ele>
        <time>2022-05-22T11:52:09Z</time>
      </trkpt>
      <trkpt lat="37.9799860" lon="-5.6656400">
        <ele>537.2</ele>
        <time>2022-05-22T11:52:10Z</time>
      </trkpt>
      <trkpt lat="37.9799710" lon="-5.6656300">
        <ele>537.2</ele>
        <time>2022-05-22T11:52:12Z</time>
      </trkpt>
      <trkpt lat="37.9799550" lon="-5.6656210">
        <ele>537.1</ele>
        <time>2022-05-22T11:52:13Z</time>
      </trkpt>
      <trkpt lat="37.9799450" lon="-5.6656150">
        <ele>537.1</ele>
        <time>2022-05-22T11:52:14Z</time>
      </trkpt>
      <trkpt lat="37.9799270" lon="-5.6656040">
        <ele>537.0</ele>
        <time>2022-05-22T11:52:15Z</time>
      </trkpt>
      <trkpt lat="37.9799190" lon="-5.6656000">
        <ele>537.0</ele>
        <time>2022-05-22T11:52:16Z</time>
      </trkpt>
      <trkpt lat="37.9799110" lon="-5.6655960">
        <ele>537.0</ele>
        <time>2022-05-22T11:52:17Z</time>
      </trkpt>
      <trkpt lat="37.9798970" lon="-5.6655880">
        <ele>537.0</ele>
        <time>2022-05-22T11:52:18Z</time>
      </trkpt>
      <trkpt lat="37.9798820" lon="-5.6655800">
        <ele>536.9</ele>
        <time>2022-05-22T11:52:19Z</time>
      </trkpt>
      <trkpt lat="37.9798550" lon="-5.6655670">
        <ele>536.8</ele>
        <time>2022-05-22T11:52:20Z</time>
      </trkpt>
      <trkpt lat="37.9798450" lon="-5.6655620">
        <ele>536.8</ele>
        <time>2022-05-22T11:52:21Z</time>
      </trkpt>
      <trkpt lat="37.9798350" lon="-5.6655550">
        <ele>536.8</ele>
        <time>2022-05-22T11:52:22Z</time>
      </trkpt>
      <trkpt lat="37.9798230" lon="-5.6655450">
        <ele>536.7</ele>
        <time>2022-05-22T11:52:23Z</time>
      </trkpt>
      <trkpt lat="37.9797930" lon="-5.6655250">
        <ele>536.7</ele>
        <time>2022-05-22T11:52:25Z</time>
      </trkpt>
      <trkpt lat="37.9797760" lon="-5.6655140">
        <ele>536.6</ele>
        <time>2022-05-22T11:52:26Z</time>
      </trkpt>
      <trkpt lat="37.9797480" lon="-5.6655010">
        <ele>536.5</ele>
        <time>2022-05-22T11:52:28Z</time>
      </trkpt>
      <trkpt lat="37.9797400" lon="-5.6654980">
        <ele>536.5</ele>
        <time>2022-05-22T11:52:29Z</time>
      </trkpt>
      <trkpt lat="37.9797260" lon="-5.6654910">
        <ele>536.5</ele>
        <time>2022-05-22T11:52:30Z</time>
      </trkpt>
      <trkpt lat="37.9797130" lon="-5.6654860">
        <ele>536.4</ele>
        <time>2022-05-22T11:52:31Z</time>
      </trkpt>
      <trkpt lat="37.9797020" lon="-5.6654820">
        <ele>536.4</ele>
        <time>2022-05-22T11:52:32Z</time>
      </trkpt>
      <trkpt lat="37.9796860" lon="-5.6654780">
        <ele>536.4</ele>
        <time>2022-05-22T11:52:34Z</time>
      </trkpt>
      <trkpt lat="37.9796790" lon="-5.6654800">
        <ele>536.3</ele>
        <time>2022-05-22T11:52:35Z</time>
      </trkpt>
      <trkpt lat="37.9796680" lon="-5.6654740">
        <ele>536.3</ele>
        <time>2022-05-22T11:52:36Z</time>
      </trkpt>
      <trkpt lat="37.9796580" lon="-5.6654660">
        <ele>536.3</ele>
        <time>2022-05-22T11:52:37Z</time>
      </trkpt>
      <trkpt lat="37.9796360" lon="-5.6654490">
        <ele>536.2</ele>
        <time>2022-05-22T11:52:38Z</time>
      </trkpt>
      <trkpt lat="37.9796240" lon="-5.6654410">
        <ele>536.2</ele>
        <time>2022-05-22T11:52:39Z</time>
      </trkpt>
      <trkpt lat="37.9796120" lon="-5.6654340">
        <ele>536.2</ele>
        <time>2022-05-22T11:52:40Z</time>
      </trkpt>
      <trkpt lat="37.9795910" lon="-5.6654230">
        <ele>536.1</ele>
        <time>2022-05-22T11:52:42Z</time>
      </trkpt>
      <trkpt lat="37.9795800" lon="-5.6654170">
        <ele>536.1</ele>
        <time>2022-05-22T11:52:43Z</time>
      </trkpt>
      <trkpt lat="37.9795650" lon="-5.6654120">
        <ele>536.0</ele>
        <time>2022-05-22T11:52:44Z</time>
      </trkpt>
      <trkpt lat="37.9795530" lon="-5.6654090">
        <ele>536.0</ele>
        <time>2022-05-22T11:52:45Z</time>
      </trkpt>
      <trkpt lat="37.9795370" lon="-5.6654150">
        <ele>536.0</ele>
        <time>2022-05-22T11:52:46Z</time>
      </trkpt>
      <trkpt lat="37.9795000" lon="-5.6654310">
        <ele>535.9</ele>
        <time>2022-05-22T11:52:48Z</time>
      </trkpt>
      <trkpt lat="37.9794870" lon="-5.6654320">
        <ele>535.8</ele>
        <time>2022-05-22T11:52:49Z</time>
      </trkpt>
      <trkpt lat="37.9794750" lon="-5.6654320">
        <ele>535.8</ele>
        <time>2022-05-22T11:52:50Z</time>
      </trkpt>
      <trkpt lat="37.9794600" lon="-5.6654270">
        <ele>535.8</ele>
        <time>2022-05-22T11:52:51Z</time>
      </trkpt>
      <trkpt lat="37.9794410" lon="-5.6654180">
        <ele>535.7</ele>
        <time>2022-05-22T11:52:52Z</time>
      </trkpt>
      <trkpt lat="37.9794290" lon="-5.6654110">
        <ele>535.7</ele>
        <time>2022-05-22T11:52:53Z</time>
      </trkpt>
      <trkpt lat="37.9794150" lon="-5.6654030">
        <ele>535.6</ele>
        <time>2022-05-22T11:52:54Z</time>
      </trkpt>
      <trkpt lat="37.9794010" lon="-5.6653960">
        <ele>535.6</ele>
        <time>2022-05-22T11:52:55Z</time>
      </trkpt>
      <trkpt lat="37.9793820" lon="-5.6653880">
        <ele>535.5</ele>
        <time>2022-05-22T11:52:56Z</time>
      </trkpt>
      <trkpt lat="37.9793530" lon="-5.6653800">
        <ele>535.5</ele>
        <time>2022-05-22T11:52:57Z</time>
      </trkpt>
      <trkpt lat="37.9793450" lon="-5.6653790">
        <ele>535.4</ele>
        <time>2022-05-22T11:52:58Z</time>
      </trkpt>
      <trkpt lat="37.9793260" lon="-5.6653770">
        <ele>535.4</ele>
        <time>2022-05-22T11:52:59Z</time>
      </trkpt>
      <trkpt lat="37.9793100" lon="-5.6653760">
        <ele>535.3</ele>
        <time>2022-05-22T11:53:00Z</time>
      </trkpt>
      <trkpt lat="37.9792820" lon="-5.6653750">
        <ele>535.3</ele>
        <time>2022-05-22T11:53:01Z</time>
      </trkpt>
      <trkpt lat="37.9792700" lon="-5.6653730">
        <ele>535.2</ele>
        <time>2022-05-22T11:53:02Z</time>
      </trkpt>
      <trkpt lat="37.9792500" lon="-5.6653740">
        <ele>535.2</ele>
        <time>2022-05-22T11:53:04Z</time>
      </trkpt>
      <trkpt lat="37.9792350" lon="-5.6653740">
        <ele>535.1</ele>
        <time>2022-05-22T11:53:05Z</time>
      </trkpt>
      <trkpt lat="37.9792220" lon="-5.6653730">
        <ele>535.1</ele>
        <time>2022-05-22T11:53:06Z</time>
      </trkpt>
      <trkpt lat="37.9792050" lon="-5.6653710">
        <ele>535.0</ele>
        <time>2022-05-22T11:53:07Z</time>
      </trkpt>
      <trkpt lat="37.9791890" lon="-5.6653690">
        <ele>535.0</ele>
        <time>2022-05-22T11:53:08Z</time>
      </trkpt>
      <trkpt lat="37.9791760" lon="-5.6653650">
        <ele>535.0</ele>
        <time>2022-05-22T11:53:09Z</time>
      </trkpt>
      <trkpt lat="37.9791570" lon="-5.6653620">
        <ele>534.9</ele>
        <time>2022-05-22T11:53:10Z</time>
      </trkpt>
      <trkpt lat="37.9791510" lon="-5.6653590">
        <ele>534.9</ele>
        <time>2022-05-22T11:53:12Z</time>
      </trkpt>
      <trkpt lat="37.9791430" lon="-5.6653540">
        <ele>534.9</ele>
        <time>2022-05-22T11:53:13Z</time>
      </trkpt>
      <trkpt lat="37.9791300" lon="-5.6653490">
        <ele>534.8</ele>
        <time>2022-05-22T11:53:14Z</time>
      </trkpt>
      <trkpt lat="37.9791120" lon="-5.6653430">
        <ele>534.8</ele>
        <time>2022-05-22T11:53:15Z</time>
      </trkpt>
      <trkpt lat="37.9790970" lon="-5.6653380">
        <ele>534.7</ele>
        <time>2022-05-22T11:53:16Z</time>
      </trkpt>
      <trkpt lat="37.9790800" lon="-5.6653330">
        <ele>534.7</ele>
        <time>2022-05-22T11:53:17Z</time>
      </trkpt>
      <trkpt lat="37.9790550" lon="-5.6653250">
        <ele>534.6</ele>
        <time>2022-05-22T11:53:18Z</time>
      </trkpt>
      <trkpt lat="37.9790350" lon="-5.6653230">
        <ele>534.6</ele>
        <time>2022-05-22T11:53:20Z</time>
      </trkpt>
      <trkpt lat="37.9790200" lon="-5.6653220">
        <ele>534.5</ele>
        <time>2022-05-22T11:53:21Z</time>
      </trkpt>
      <trkpt lat="37.9790050" lon="-5.6653200">
        <ele>534.5</ele>
        <time>2022-05-22T11:53:22Z</time>
      </trkpt>
      <trkpt lat="37.9789860" lon="-5.6653180">
        <ele>534.5</ele>
        <time>2022-05-22T11:53:23Z</time>
      </trkpt>
      <trkpt lat="37.9789750" lon="-5.6653180">
        <ele>534.4</ele>
        <time>2022-05-22T11:53:24Z</time>
      </trkpt>
      <trkpt lat="37.9789520" lon="-5.6653180">
        <ele>534.4</ele>
        <time>2022-05-22T11:53:25Z</time>
      </trkpt>
      <trkpt lat="37.9789410" lon="-5.6653190">
        <ele>534.4</ele>
        <time>2022-05-22T11:53:26Z</time>
      </trkpt>
      <trkpt lat="37.9789310" lon="-5.6653190">
        <ele>534.3</ele>
        <time>2022-05-22T11:53:27Z</time>
      </trkpt>
      <trkpt lat="37.9789090" lon="-5.6653190">
        <ele>534.3</ele>
        <time>2022-05-22T11:53:29Z</time>
      </trkpt>
      <trkpt lat="37.9788970" lon="-5.6653190">
        <ele>534.3</ele>
        <time>2022-05-22T11:53:30Z</time>
      </trkpt>
      <trkpt lat="37.9788760" lon="-5.6653170">
        <ele>534.2</ele>
        <time>2022-05-22T11:53:31Z</time>
      </trkpt>
      <trkpt lat="37.9788660" lon="-5.6653150">
        <ele>534.2</ele>
        <time>2022-05-22T11:53:32Z</time>
      </trkpt>
      <trkpt lat="37.9788560" lon="-5.6653130">
        <ele>534.2</ele>
        <time>2022-05-22T11:53:33Z</time>
      </trkpt>
      <trkpt lat="37.9788350" lon="-5.6653040">
        <ele>534.1</ele>
        <time>2022-05-22T11:53:34Z</time>
      </trkpt>
      <trkpt lat="37.9788250" lon="-5.6652990">
        <ele>534.1</ele>
        <time>2022-05-22T11:53:35Z</time>
      </trkpt>
      <trkpt lat="37.9788150" lon="-5.6652930">
        <ele>534.1</ele>
        <time>2022-05-22T11:53:36Z</time>
      </trkpt>
      <trkpt lat="37.9787970" lon="-5.6652840">
        <ele>534.0</ele>
        <time>2022-05-22T11:53:38Z</time>
      </trkpt>
      <trkpt lat="37.9787820" lon="-5.6652780">
        <ele>534.0</ele>
        <time>2022-05-22T11:53:39Z</time>
      </trkpt>
      <trkpt lat="37.9787680" lon="-5.6652730">
        <ele>534.0</ele>
        <time>2022-05-22T11:53:40Z</time>
      </trkpt>
      <trkpt lat="37.9787510" lon="-5.6652690">
        <ele>533.9</ele>
        <time>2022-05-22T11:53:41Z</time>
      </trkpt>
      <trkpt lat="37.9787390" lon="-5.6652670">
        <ele>533.9</ele>
        <time>2022-05-22T11:53:42Z</time>
      </trkpt>
      <trkpt lat="37.9787210" lon="-5.6652640">
        <ele>533.8</ele>
        <time>2022-05-22T11:53:43Z</time>
      </trkpt>
      <trkpt lat="37.9787090" lon="-5.6652620">
        <ele>533.8</ele>
        <time>2022-05-22T11:53:44Z</time>
      </trkpt>
      <trkpt lat="37.9786920" lon="-5.6652580">
        <ele>533.8</ele>
        <time>2022-05-22T11:53:46Z</time>
      </trkpt>
      <trkpt lat="37.9786800" lon="-5.6652550">
        <ele>533.7</ele>
        <time>2022-05-22T11:53:47Z</time>
      </trkpt>
      <trkpt lat="37.9786630" lon="-5.6652500">
        <ele>533.7</ele>
        <time>2022-05-22T11:53:48Z</time>
      </trkpt>
      <trkpt lat="37.9786420" lon="-5.6652420">
        <ele>533.7</ele>
        <time>2022-05-22T11:53:49Z</time>
      </trkpt>
      <trkpt lat="37.9786330" lon="-5.6652390">
        <ele>533.6</ele>
        <time>2022-05-22T11:53:50Z</time>
      </trkpt>
      <trkpt lat="37.9786250" lon="-5.6652360">
        <ele>533.6</ele>
        <time>2022-05-22T11:53:51Z</time>
      </trkpt>
      <trkpt lat="37.9786130" lon="-5.6652320">
        <ele>533.6</ele>
        <time>2022-05-22T11:53:52Z</time>
      </trkpt>
      <trkpt lat="37.9785950" lon="-5.6652270">
        <ele>533.5</ele>
        <time>2022-05-22T11:53:53Z</time>
      </trkpt>
      <trkpt lat="37.9785750" lon="-5.6652200">
        <ele>533.5</ele>
        <time>2022-05-22T11:53:54Z</time>
      </trkpt>
      <trkpt lat="37.9785670" lon="-5.6652170">
        <ele>533.5</ele>
        <time>2022-05-22T11:53:55Z</time>
      </trkpt>
      <trkpt lat="37.9785590" lon="-5.6652150">
        <ele>533.5</ele>
        <time>2022-05-22T11:53:56Z</time>
      </trkpt>
      <trkpt lat="37.9785470" lon="-5.6652100">
        <ele>533.4</ele>
        <time>2022-05-22T11:53:57Z</time>
      </trkpt>
      <trkpt lat="37.9785290" lon="-5.6652040">
        <ele>533.4</ele>
        <time>2022-05-22T11:53:58Z</time>
      </trkpt>
      <trkpt lat="37.9785080" lon="-5.6651990">
        <ele>533.3</ele>
        <time>2022-05-22T11:53:59Z</time>
      </trkpt>
      <trkpt lat="37.9784990" lon="-5.6651970">
        <ele>533.3</ele>
        <time>2022-05-22T11:54:00Z</time>
      </trkpt>
      <trkpt lat="37.9784900" lon="-5.6651950">
        <ele>533.3</ele>
        <time>2022-05-22T11:54:01Z</time>
      </trkpt>
      <trkpt lat="37.9784780" lon="-5.6651920">
        <ele>533.3</ele>
        <time>2022-05-22T11:54:02Z</time>
      </trkpt>
      <trkpt lat="37.9784580" lon="-5.6651890">
        <ele>533.2</ele>
        <time>2022-05-22T11:54:03Z</time>
      </trkpt>
      <trkpt lat="37.9784450" lon="-5.6651860">
        <ele>533.2</ele>
        <time>2022-05-22T11:54:04Z</time>
      </trkpt>
      <trkpt lat="37.9784310" lon="-5.6651820">
        <ele>533.1</ele>
        <time>2022-05-22T11:54:05Z</time>
      </trkpt>
      <trkpt lat="37.9784190" lon="-5.6651770">
        <ele>533.1</ele>
        <time>2022-05-22T11:54:06Z</time>
      </trkpt>
      <trkpt lat="37.9783960" lon="-5.6651680">
        <ele>533.0</ele>
        <time>2022-05-22T11:54:08Z</time>
      </trkpt>
      <trkpt lat="37.9783800" lon="-5.6651620">
        <ele>533.0</ele>
        <time>2022-05-22T11:54:09Z</time>
      </trkpt>
      <trkpt lat="37.9783660" lon="-5.6651570">
        <ele>533.0</ele>
        <time>2022-05-22T11:54:10Z</time>
      </trkpt>
      <trkpt lat="37.9783540" lon="-5.6651520">
        <ele>532.9</ele>
        <time>2022-05-22T11:54:11Z</time>
      </trkpt>
      <trkpt lat="37.9783370" lon="-5.6651470">
        <ele>532.9</ele>
        <time>2022-05-22T11:54:12Z</time>
      </trkpt>
      <trkpt lat="37.9783230" lon="-5.6651430">
        <ele>532.8</ele>
        <time>2022-05-22T11:54:13Z</time>
      </trkpt>
      <trkpt lat="37.9783100" lon="-5.6651390">
        <ele>532.8</ele>
        <time>2022-05-22T11:54:14Z</time>
      </trkpt>
      <trkpt lat="37.9782920" lon="-5.6651340">
        <ele>532.8</ele>
        <time>2022-05-22T11:54:16Z</time>
      </trkpt>
      <trkpt lat="37.9782800" lon="-5.6651300">
        <ele>532.7</ele>
        <time>2022-05-22T11:54:17Z</time>
      </trkpt>
      <trkpt lat="37.9782630" lon="-5.6651270">
        <ele>532.7</ele>
        <time>2022-05-22T11:54:18Z</time>
      </trkpt>
      <trkpt lat="37.9782510" lon="-5.6651240">
        <ele>532.6</ele>
        <time>2022-05-22T11:54:19Z</time>
      </trkpt>
      <trkpt lat="37.9782390" lon="-5.6651230">
        <ele>532.6</ele>
        <time>2022-05-22T11:54:20Z</time>
      </trkpt>
      <trkpt lat="37.9782280" lon="-5.6651210">
        <ele>532.6</ele>
        <time>2022-05-22T11:54:21Z</time>
      </trkpt>
      <trkpt lat="37.9782160" lon="-5.6651220">
        <ele>532.5</ele>
        <time>2022-05-22T11:54:22Z</time>
      </trkpt>
      <trkpt lat="37.9781950" lon="-5.6651260">
        <ele>532.5</ele>
        <time>2022-05-22T11:54:23Z</time>
      </trkpt>
      <trkpt lat="37.9781870" lon="-5.6651270">
        <ele>532.4</ele>
        <time>2022-05-22T11:54:24Z</time>
      </trkpt>
      <trkpt lat="37.9781790" lon="-5.6651270">
        <ele>532.4</ele>
        <time>2022-05-22T11:54:25Z</time>
      </trkpt>
      <trkpt lat="37.9781570" lon="-5.6651320">
        <ele>532.4</ele>
        <time>2022-05-22T11:54:26Z</time>
      </trkpt>
      <trkpt lat="37.9781460" lon="-5.6651340">
        <ele>532.3</ele>
        <time>2022-05-22T11:54:27Z</time>
      </trkpt>
      <trkpt lat="37.9781360" lon="-5.6651370">
        <ele>532.3</ele>
        <time>2022-05-22T11:54:28Z</time>
      </trkpt>
      <trkpt lat="37.9781230" lon="-5.6651390">
        <ele>532.3</ele>
        <time>2022-05-22T11:54:29Z</time>
      </trkpt>
      <trkpt lat="37.9781080" lon="-5.6651400">
        <ele>532.2</ele>
        <time>2022-05-22T11:54:30Z</time>
      </trkpt>
      <trkpt lat="37.9780950" lon="-5.6651410">
        <ele>532.2</ele>
        <time>2022-05-22T11:54:31Z</time>
      </trkpt>
      <trkpt lat="37.9780650" lon="-5.6651450">
        <ele>532.1</ele>
        <time>2022-05-22T11:54:33Z</time>
      </trkpt>
      <trkpt lat="37.9780650" lon="-5.6651570">
        <ele>532.1</ele>
        <time>2022-05-22T11:54:35Z</time>
      </trkpt>
      <trkpt lat="37.9780570" lon="-5.6651600">
        <ele>532.1</ele>
        <time>2022-05-22T11:54:36Z</time>
      </trkpt>
      <trkpt lat="37.9780470" lon="-5.6651630">
        <ele>532.0</ele>
        <time>2022-05-22T11:54:37Z</time>
      </trkpt>
      <trkpt lat="37.9780350" lon="-5.6651660">
        <ele>532.0</ele>
        <time>2022-05-22T11:54:38Z</time>
      </trkpt>
      <trkpt lat="37.9780270" lon="-5.6651660">
        <ele>532.0</ele>
        <time>2022-05-22T11:54:39Z</time>
      </trkpt>
      <trkpt lat="37.9780190" lon="-5.6651660">
        <ele>532.0</ele>
        <time>2022-05-22T11:54:40Z</time>
      </trkpt>
      <trkpt lat="37.9780100" lon="-5.6651650">
        <ele>531.9</ele>
        <time>2022-05-22T11:54:41Z</time>
      </trkpt>
      <trkpt lat="37.9779960" lon="-5.6651620">
        <ele>531.9</ele>
        <time>2022-05-22T11:54:42Z</time>
      </trkpt>
      <trkpt lat="37.9779800" lon="-5.6651570">
        <ele>531.9</ele>
        <time>2022-05-22T11:54:43Z</time>
      </trkpt>
      <trkpt lat="37.9779660" lon="-5.6651520">
        <ele>531.8</ele>
        <time>2022-05-22T11:54:44Z</time>
      </trkpt>
      <trkpt lat="37.9779520" lon="-5.6651460">
        <ele>531.8</ele>
        <time>2022-05-22T11:54:45Z</time>
      </trkpt>
      <trkpt lat="37.9779390" lon="-5.6651400">
        <ele>531.7</ele>
        <time>2022-05-22T11:54:46Z</time>
      </trkpt>
      <trkpt lat="37.9779090" lon="-5.6651270">
        <ele>531.7</ele>
        <time>2022-05-22T11:54:47Z</time>
      </trkpt>
      <trkpt lat="37.9778960" lon="-5.6651210">
        <ele>531.6</ele>
        <time>2022-05-22T11:54:48Z</time>
      </trkpt>
      <trkpt lat="37.9778800" lon="-5.6651150">
        <ele>531.6</ele>
        <time>2022-05-22T11:54:49Z</time>
      </trkpt>
      <trkpt lat="37.9778650" lon="-5.6651100">
        <ele>531.5</ele>
        <time>2022-05-22T11:54:50Z</time>
      </trkpt>
      <trkpt lat="37.9778360" lon="-5.6650960">
        <ele>531.5</ele>
        <time>2022-05-22T11:54:52Z</time>
      </trkpt>
      <trkpt lat="37.9778260" lon="-5.6650910">
        <ele>531.4</ele>
        <time>2022-05-22T11:54:53Z</time>
      </trkpt>
      <trkpt lat="37.9778100" lon="-5.6650830">
        <ele>531.4</ele>
        <time>2022-05-22T11:54:54Z</time>
      </trkpt>
      <trkpt lat="37.9777960" lon="-5.6650750">
        <ele>531.3</ele>
        <time>2022-05-22T11:54:55Z</time>
      </trkpt>
      <trkpt lat="37.9777830" lon="-5.6650680">
        <ele>531.3</ele>
        <time>2022-05-22T11:54:56Z</time>
      </trkpt>
      <trkpt lat="37.9777690" lon="-5.6650600">
        <ele>531.3</ele>
        <time>2022-05-22T11:54:57Z</time>
      </trkpt>
      <trkpt lat="37.9777520" lon="-5.6650500">
        <ele>531.2</ele>
        <time>2022-05-22T11:54:58Z</time>
      </trkpt>
      <trkpt lat="37.9777380" lon="-5.6650410">
        <ele>531.2</ele>
        <time>2022-05-22T11:54:59Z</time>
      </trkpt>
      <trkpt lat="37.9777130" lon="-5.6650300">
        <ele>531.1</ele>
        <time>2022-05-22T11:55:00Z</time>
      </trkpt>
      <trkpt lat="37.9776990" lon="-5.6650240">
        <ele>531.1</ele>
        <time>2022-05-22T11:55:02Z</time>
      </trkpt>
      <trkpt lat="37.9776850" lon="-5.6650190">
        <ele>531.0</ele>
        <time>2022-05-22T11:55:03Z</time>
      </trkpt>
      <trkpt lat="37.9776710" lon="-5.6650130">
        <ele>531.0</ele>
        <time>2022-05-22T11:55:04Z</time>
      </trkpt>
      <trkpt lat="37.9776580" lon="-5.6650090">
        <ele>530.9</ele>
        <time>2022-05-22T11:55:05Z</time>
      </trkpt>
      <trkpt lat="37.9776410" lon="-5.6650050">
        <ele>530.9</ele>
        <time>2022-05-22T11:55:06Z</time>
      </trkpt>
      <trkpt lat="37.9776250" lon="-5.6650030">
        <ele>530.9</ele>
        <time>2022-05-22T11:55:07Z</time>
      </trkpt>
      <trkpt lat="37.9776010" lon="-5.6650040">
        <ele>530.8</ele>
        <time>2022-05-22T11:55:09Z</time>
      </trkpt>
      <trkpt lat="37.9775840" lon="-5.6650060">
        <ele>530.7</ele>
        <time>2022-05-22T11:55:10Z</time>
      </trkpt>
      <trkpt lat="37.9775710" lon="-5.6650060">
        <ele>530.7</ele>
        <time>2022-05-22T11:55:11Z</time>
      </trkpt>
      <trkpt lat="37.9775450" lon="-5.6650040">
        <ele>530.6</ele>
        <time>2022-05-22T11:55:12Z</time>
      </trkpt>
      <trkpt lat="37.9775350" lon="-5.6650030">
        <ele>530.6</ele>
        <time>2022-05-22T11:55:13Z</time>
      </trkpt>
      <trkpt lat="37.9775130" lon="-5.6650030">
        <ele>530.5</ele>
        <time>2022-05-22T11:55:14Z</time>
      </trkpt>
      <trkpt lat="37.9775040" lon="-5.6650020">
        <ele>530.5</ele>
        <time>2022-05-22T11:55:15Z</time>
      </trkpt>
      <trkpt lat="37.9774950" lon="-5.6650010">
        <ele>530.5</ele>
        <time>2022-05-22T11:55:16Z</time>
      </trkpt>
      <trkpt lat="37.9774800" lon="-5.6649990">
        <ele>530.4</ele>
        <time>2022-05-22T11:55:17Z</time>
      </trkpt>
      <trkpt lat="37.9774610" lon="-5.6649970">
        <ele>530.4</ele>
        <time>2022-05-22T11:55:18Z</time>
      </trkpt>
      <trkpt lat="37.9774400" lon="-5.6649940">
        <ele>530.3</ele>
        <time>2022-05-22T11:55:19Z</time>
      </trkpt>
      <trkpt lat="37.9774320" lon="-5.6649930">
        <ele>530.3</ele>
        <time>2022-05-22T11:55:20Z</time>
      </trkpt>
      <trkpt lat="37.9774240" lon="-5.6649910">
        <ele>530.3</ele>
        <time>2022-05-22T11:55:21Z</time>
      </trkpt>
      <trkpt lat="37.9774120" lon="-5.6649880">
        <ele>530.2</ele>
        <time>2022-05-22T11:55:22Z</time>
      </trkpt>
      <trkpt lat="37.9773930" lon="-5.6649820">
        <ele>530.2</ele>
        <time>2022-05-22T11:55:23Z</time>
      </trkpt>
      <trkpt lat="37.9773580" lon="-5.6649710">
        <ele>530.1</ele>
        <time>2022-05-22T11:55:25Z</time>
      </trkpt>
      <trkpt lat="37.9773450" lon="-5.6649680">
        <ele>530.0</ele>
        <time>2022-05-22T11:55:26Z</time>
      </trkpt>
      <trkpt lat="37.9773140" lon="-5.6649630">
        <ele>529.9</ele>
        <time>2022-05-22T11:55:28Z</time>
      </trkpt>
      <trkpt lat="37.9772960" lon="-5.6649610">
        <ele>529.9</ele>
        <time>2022-05-22T11:55:29Z</time>
      </trkpt>
      <trkpt lat="37.9772870" lon="-5.6649610">
        <ele>529.9</ele>
        <time>2022-05-22T11:55:30Z</time>
      </trkpt>
      <trkpt lat="37.9772780" lon="-5.6649600">
        <ele>529.8</ele>
        <time>2022-05-22T11:55:31Z</time>
      </trkpt>
      <trkpt lat="37.9772500" lon="-5.6649600">
        <ele>529.8</ele>
        <time>2022-05-22T11:55:33Z</time>
      </trkpt>
      <trkpt lat="37.9772410" lon="-5.6649610">
        <ele>529.7</ele>
        <time>2022-05-22T11:55:34Z</time>
      </trkpt>
      <trkpt lat="37.9772220" lon="-5.6649640">
        <ele>529.7</ele>
        <time>2022-05-22T11:55:35Z</time>
      </trkpt>
      <trkpt lat="37.9772100" lon="-5.6649650">
        <ele>529.6</ele>
        <time>2022-05-22T11:55:36Z</time>
      </trkpt>
      <trkpt lat="37.9771930" lon="-5.6649660">
        <ele>529.6</ele>
        <time>2022-05-22T11:55:37Z</time>
      </trkpt>
      <trkpt lat="37.9771760" lon="-5.6649660">
        <ele>529.5</ele>
        <time>2022-05-22T11:55:38Z</time>
      </trkpt>
      <trkpt lat="37.9771590" lon="-5.6649670">
        <ele>529.5</ele>
        <time>2022-05-22T11:55:40Z</time>
      </trkpt>
      <trkpt lat="37.9771470" lon="-5.6649670">
        <ele>529.5</ele>
        <time>2022-05-22T11:55:41Z</time>
      </trkpt>
      <trkpt lat="37.9771260" lon="-5.6649660">
        <ele>529.4</ele>
        <time>2022-05-22T11:55:42Z</time>
      </trkpt>
      <trkpt lat="37.9771180" lon="-5.6649650">
        <ele>529.4</ele>
        <time>2022-05-22T11:55:43Z</time>
      </trkpt>
      <trkpt lat="37.9771090" lon="-5.6649640">
        <ele>529.3</ele>
        <time>2022-05-22T11:55:44Z</time>
      </trkpt>
      <trkpt lat="37.9770990" lon="-5.6649630">
        <ele>529.3</ele>
        <time>2022-05-22T11:55:45Z</time>
      </trkpt>
      <trkpt lat="37.9770890" lon="-5.6649630">
        <ele>529.3</ele>
        <time>2022-05-22T11:55:46Z</time>
      </trkpt>
      <trkpt lat="37.9770810" lon="-5.6649610">
        <ele>529.3</ele>
        <time>2022-05-22T11:55:47Z</time>
      </trkpt>
      <trkpt lat="37.9770640" lon="-5.6649530">
        <ele>529.2</ele>
        <time>2022-05-22T11:55:49Z</time>
      </trkpt>
      <trkpt lat="37.9770600" lon="-5.6649490">
        <ele>529.2</ele>
        <time>2022-05-22T11:55:50Z</time>
      </trkpt>
      <trkpt lat="37.9770560" lon="-5.6649460">
        <ele>529.2</ele>
        <time>2022-05-22T11:55:51Z</time>
      </trkpt>
      <trkpt lat="37.9770530" lon="-5.6649420">
        <ele>529.2</ele>
        <time>2022-05-22T11:55:52Z</time>
      </trkpt>
      <trkpt lat="37.9770490" lon="-5.6649390">
        <ele>529.2</ele>
        <time>2022-05-22T11:55:53Z</time>
      </trkpt>
      <trkpt lat="37.9770450" lon="-5.6649350">
        <ele>529.1</ele>
        <time>2022-05-22T11:55:54Z</time>
      </trkpt>
      <trkpt lat="37.9770150" lon="-5.6649300">
        <ele>529.1</ele>
        <time>2022-05-22T11:55:55Z</time>
      </trkpt>
      <trkpt lat="37.9770090" lon="-5.6649290">
        <ele>529.0</ele>
        <time>2022-05-22T11:55:56Z</time>
      </trkpt>
      <trkpt lat="37.9769780" lon="-5.6649250">
        <ele>528.9</ele>
        <time>2022-05-22T11:55:58Z</time>
      </trkpt>
      <trkpt lat="37.9769670" lon="-5.6649240">
        <ele>528.9</ele>
        <time>2022-05-22T11:55:59Z</time>
      </trkpt>
      <trkpt lat="37.9769410" lon="-5.6649200">
        <ele>528.8</ele>
        <time>2022-05-22T11:56:00Z</time>
      </trkpt>
      <trkpt lat="37.9769310" lon="-5.6649170">
        <ele>528.8</ele>
        <time>2022-05-22T11:56:01Z</time>
      </trkpt>
      <trkpt lat="37.9769020" lon="-5.6649080">
        <ele>528.7</ele>
        <time>2022-05-22T11:56:02Z</time>
      </trkpt>
      <trkpt lat="37.9768890" lon="-5.6649040">
        <ele>528.7</ele>
        <time>2022-05-22T11:56:03Z</time>
      </trkpt>
      <trkpt lat="37.9768730" lon="-5.6648980">
        <ele>528.6</ele>
        <time>2022-05-22T11:56:04Z</time>
      </trkpt>
      <trkpt lat="37.9768480" lon="-5.6648870">
        <ele>528.6</ele>
        <time>2022-05-22T11:56:06Z</time>
      </trkpt>
      <trkpt lat="37.9768340" lon="-5.6648820">
        <ele>528.5</ele>
        <time>2022-05-22T11:56:07Z</time>
      </trkpt>
      <trkpt lat="37.9768180" lon="-5.6648750">
        <ele>528.5</ele>
        <time>2022-05-22T11:56:08Z</time>
      </trkpt>
      <trkpt lat="37.9767990" lon="-5.6648680">
        <ele>528.4</ele>
        <time>2022-05-22T11:56:09Z</time>
      </trkpt>
      <trkpt lat="37.9767870" lon="-5.6648610">
        <ele>528.4</ele>
        <time>2022-05-22T11:56:10Z</time>
      </trkpt>
      <trkpt lat="37.9767740" lon="-5.6648540">
        <ele>528.4</ele>
        <time>2022-05-22T11:56:11Z</time>
      </trkpt>
      <trkpt lat="37.9767580" lon="-5.6648440">
        <ele>528.3</ele>
        <time>2022-05-22T11:56:12Z</time>
      </trkpt>
      <trkpt lat="37.9767340" lon="-5.6648290">
        <ele>528.2</ele>
        <time>2022-05-22T11:56:13Z</time>
      </trkpt>
      <trkpt lat="37.9767230" lon="-5.6648230">
        <ele>528.2</ele>
        <time>2022-05-22T11:56:14Z</time>
      </trkpt>
      <trkpt lat="37.9767090" lon="-5.6648150">
        <ele>528.2</ele>
        <time>2022-05-22T11:56:15Z</time>
      </trkpt>
      <trkpt lat="37.9766910" lon="-5.6648050">
        <ele>528.1</ele>
        <time>2022-05-22T11:56:16Z</time>
      </trkpt>
      <trkpt lat="37.9766780" lon="-5.6647980">
        <ele>528.1</ele>
        <time>2022-05-22T11:56:17Z</time>
      </trkpt>
      <trkpt lat="37.9766570" lon="-5.6647880">
        <ele>528.0</ele>
        <time>2022-05-22T11:56:18Z</time>
      </trkpt>
      <trkpt lat="37.9766390" lon="-5.6647800">
        <ele>528.0</ele>
        <time>2022-05-22T11:56:20Z</time>
      </trkpt>
      <trkpt lat="37.9766270" lon="-5.6647760">
        <ele>527.9</ele>
        <time>2022-05-22T11:56:21Z</time>
      </trkpt>
      <trkpt lat="37.9765990" lon="-5.6647850">
        <ele>527.9</ele>
        <time>2022-05-22T11:56:22Z</time>
      </trkpt>
      <trkpt lat="37.9765870" lon="-5.6647920">
        <ele>527.8</ele>
        <time>2022-05-22T11:56:24Z</time>
      </trkpt>
      <trkpt lat="37.9765760" lon="-5.6648000">
        <ele>527.8</ele>
        <time>2022-05-22T11:56:25Z</time>
      </trkpt>
      <trkpt lat="37.9765640" lon="-5.6648070">
        <ele>527.8</ele>
        <time>2022-05-22T11:56:26Z</time>
      </trkpt>
      <trkpt lat="37.9765190" lon="-5.6648060">
        <ele>527.7</ele>
        <time>2022-05-22T11:56:28Z</time>
      </trkpt>
      <trkpt lat="37.9765070" lon="-5.6648040">
        <ele>527.6</ele>
        <time>2022-05-22T11:56:30Z</time>
      </trkpt>
      <trkpt lat="37.9764940" lon="-5.6648020">
        <ele>527.6</ele>
        <time>2022-05-22T11:56:31Z</time>
      </trkpt>
      <trkpt lat="37.9764800" lon="-5.6647990">
        <ele>527.6</ele>
        <time>2022-05-22T11:56:32Z</time>
      </trkpt>
      <trkpt lat="37.9764720" lon="-5.6647970">
        <ele>527.5</ele>
        <time>2022-05-22T11:56:33Z</time>
      </trkpt>
      <trkpt lat="37.9764640" lon="-5.6647940">
        <ele>527.5</ele>
        <time>2022-05-22T11:56:34Z</time>
      </trkpt>
      <trkpt lat="37.9764550" lon="-5.6647920">
        <ele>527.5</ele>
        <time>2022-05-22T11:56:35Z</time>
      </trkpt>
      <trkpt lat="37.9764340" lon="-5.6647840">
        <ele>527.4</ele>
        <time>2022-05-22T11:56:36Z</time>
      </trkpt>
      <trkpt lat="37.9764240" lon="-5.6647810">
        <ele>527.4</ele>
        <time>2022-05-22T11:56:37Z</time>
      </trkpt>
      <trkpt lat="37.9764140" lon="-5.6647770">
        <ele>527.4</ele>
        <time>2022-05-22T11:56:38Z</time>
      </trkpt>
      <trkpt lat="37.9763850" lon="-5.6647640">
        <ele>527.3</ele>
        <time>2022-05-22T11:56:40Z</time>
      </trkpt>
      <trkpt lat="37.9763650" lon="-5.6647570">
        <ele>527.3</ele>
        <time>2022-05-22T11:56:41Z</time>
      </trkpt>
      <trkpt lat="37.9763530" lon="-5.6647530">
        <ele>527.2</ele>
        <time>2022-05-22T11:56:42Z</time>
      </trkpt>
      <trkpt lat="37.9763350" lon="-5.6647500">
        <ele>527.2</ele>
        <time>2022-05-22T11:56:43Z</time>
      </trkpt>
      <trkpt lat="37.9763170" lon="-5.6647470">
        <ele>527.1</ele>
        <time>2022-05-22T11:56:44Z</time>
      </trkpt>
      <trkpt lat="37.9763000" lon="-5.6647440">
        <ele>527.1</ele>
        <time>2022-05-22T11:56:46Z</time>
      </trkpt>
      <trkpt lat="37.9762860" lon="-5.6647410">
        <ele>527.1</ele>
        <time>2022-05-22T11:56:47Z</time>
      </trkpt>
      <trkpt lat="37.9762720" lon="-5.6647380">
        <ele>527.0</ele>
        <time>2022-05-22T11:56:48Z</time>
      </trkpt>
      <trkpt lat="37.9762590" lon="-5.6647350">
        <ele>527.0</ele>
        <time>2022-05-22T11:56:49Z</time>
      </trkpt>
      <trkpt lat="37.9762460" lon="-5.6647410">
        <ele>526.9</ele>
        <time>2022-05-22T11:56:50Z</time>
      </trkpt>
      <trkpt lat="37.9762350" lon="-5.6647430">
        <ele>526.9</ele>
        <time>2022-05-22T11:56:51Z</time>
      </trkpt>
      <trkpt lat="37.9762150" lon="-5.6647400">
        <ele>526.9</ele>
        <time>2022-05-22T11:56:53Z</time>
      </trkpt>
      <trkpt lat="37.9762030" lon="-5.6647390">
        <ele>526.8</ele>
        <time>2022-05-22T11:56:54Z</time>
      </trkpt>
      <trkpt lat="37.9761710" lon="-5.6647390">
        <ele>526.7</ele>
        <time>2022-05-22T11:56:55Z</time>
      </trkpt>
      <trkpt lat="37.9761560" lon="-5.6647510">
        <ele>526.7</ele>
        <time>2022-05-22T11:56:57Z</time>
      </trkpt>
      <trkpt lat="37.9761510" lon="-5.6647540">
        <ele>526.7</ele>
        <time>2022-05-22T11:56:58Z</time>
      </trkpt>
      <trkpt lat="37.9761330" lon="-5.6647630">
        <ele>526.6</ele>
        <time>2022-05-22T11:56:59Z</time>
      </trkpt>
      <trkpt lat="37.9761230" lon="-5.6647650">
        <ele>526.6</ele>
        <time>2022-05-22T11:57:00Z</time>
      </trkpt>
      <trkpt lat="37.9761130" lon="-5.6647660">
        <ele>526.6</ele>
        <time>2022-05-22T11:57:01Z</time>
      </trkpt>
      <trkpt lat="37.9760890" lon="-5.6647670">
        <ele>526.5</ele>
        <time>2022-05-22T11:57:02Z</time>
      </trkpt>
      <trkpt lat="37.9760780" lon="-5.6647660">
        <ele>526.5</ele>
        <time>2022-05-22T11:57:03Z</time>
      </trkpt>
      <trkpt lat="37.9760670" lon="-5.6647660">
        <ele>526.5</ele>
        <time>2022-05-22T11:57:04Z</time>
      </trkpt>
      <trkpt lat="37.9760380" lon="-5.6647660">
        <ele>526.4</ele>
        <time>2022-05-22T11:57:06Z</time>
      </trkpt>
      <trkpt lat="37.9760310" lon="-5.6647650">
        <ele>526.4</ele>
        <time>2022-05-22T11:57:07Z</time>
      </trkpt>
      <trkpt lat="37.9760130" lon="-5.6647650">
        <ele>526.3</ele>
        <time>2022-05-22T11:57:08Z</time>
      </trkpt>
      <trkpt lat="37.9759960" lon="-5.6647640">
        <ele>526.3</ele>
        <time>2022-05-22T11:57:09Z</time>
      </trkpt>
      <trkpt lat="37.9759640" lon="-5.6647600">
        <ele>526.2</ele>
        <time>2022-05-22T11:57:10Z</time>
      </trkpt>
      <trkpt lat="37.9759530" lon="-5.6647580">
        <ele>526.2</ele>
        <time>2022-05-22T11:57:11Z</time>
      </trkpt>
      <trkpt lat="37.9759240" lon="-5.6647540">
        <ele>526.1</ele>
        <time>2022-05-22T11:57:12Z</time>
      </trkpt>
      <trkpt lat="37.9759160" lon="-5.6647530">
        <ele>526.1</ele>
        <time>2022-05-22T11:57:13Z</time>
      </trkpt>
      <trkpt lat="37.9758960" lon="-5.6647510">
        <ele>526.0</ele>
        <time>2022-05-22T11:57:14Z</time>
      </trkpt>
      <trkpt lat="37.9758780" lon="-5.6647500">
        <ele>526.0</ele>
        <time>2022-05-22T11:57:16Z</time>
      </trkpt>
      <trkpt lat="37.9758520" lon="-5.6647500">
        <ele>525.9</ele>
        <time>2022-05-22T11:57:17Z</time>
      </trkpt>
      <trkpt lat="37.9758420" lon="-5.6647500">
        <ele>525.9</ele>
        <time>2022-05-22T11:57:18Z</time>
      </trkpt>
      <trkpt lat="37.9758160" lon="-5.6647520">
        <ele>525.8</ele>
        <time>2022-05-22T11:57:19Z</time>
      </trkpt>
      <trkpt lat="37.9758060" lon="-5.6647520">
        <ele>525.8</ele>
        <time>2022-05-22T11:57:20Z</time>
      </trkpt>
      <trkpt lat="37.9757850" lon="-5.6647530">
        <ele>525.7</ele>
        <time>2022-05-22T11:57:21Z</time>
      </trkpt>
      <trkpt lat="37.9757770" lon="-5.6647530">
        <ele>525.7</ele>
        <time>2022-05-22T11:57:22Z</time>
      </trkpt>
      <trkpt lat="37.9757690" lon="-5.6647530">
        <ele>525.7</ele>
        <time>2022-05-22T11:57:23Z</time>
      </trkpt>
      <trkpt lat="37.9757560" lon="-5.6647520">
        <ele>525.6</ele>
        <time>2022-05-22T11:57:24Z</time>
      </trkpt>
      <trkpt lat="37.9757370" lon="-5.6647510">
        <ele>525.6</ele>
        <time>2022-05-22T11:57:25Z</time>
      </trkpt>
      <trkpt lat="37.9757170" lon="-5.6647490">
        <ele>525.5</ele>
        <time>2022-05-22T11:57:26Z</time>
      </trkpt>
      <trkpt lat="37.9757090" lon="-5.6647470">
        <ele>525.5</ele>
        <time>2022-05-22T11:57:27Z</time>
      </trkpt>
      <trkpt lat="37.9757000" lon="-5.6647460">
        <ele>525.5</ele>
        <time>2022-05-22T11:57:28Z</time>
      </trkpt>
      <trkpt lat="37.9756850" lon="-5.6647430">
        <ele>525.5</ele>
        <time>2022-05-22T11:57:29Z</time>
      </trkpt>
      <trkpt lat="37.9756700" lon="-5.6647400">
        <ele>525.4</ele>
        <time>2022-05-22T11:57:30Z</time>
      </trkpt>
      <trkpt lat="37.9756520" lon="-5.6647360">
        <ele>525.4</ele>
        <time>2022-05-22T11:57:31Z</time>
      </trkpt>
      <trkpt lat="37.9756410" lon="-5.6647330">
        <ele>525.3</ele>
        <time>2022-05-22T11:57:32Z</time>
      </trkpt>
      <trkpt lat="37.9756280" lon="-5.6647300">
        <ele>525.3</ele>
        <time>2022-05-22T11:57:33Z</time>
      </trkpt>
      <trkpt lat="37.9756050" lon="-5.6647220">
        <ele>525.3</ele>
        <time>2022-05-22T11:57:35Z</time>
      </trkpt>
      <trkpt lat="37.9755920" lon="-5.6647200">
        <ele>525.2</ele>
        <time>2022-05-22T11:57:36Z</time>
      </trkpt>
      <trkpt lat="37.9755750" lon="-5.6647170">
        <ele>525.2</ele>
        <time>2022-05-22T11:57:37Z</time>
      </trkpt>
      <trkpt lat="37.9755620" lon="-5.6647170">
        <ele>525.1</ele>
        <time>2022-05-22T11:57:38Z</time>
      </trkpt>
      <trkpt lat="37.9755440" lon="-5.6647170">
        <ele>525.1</ele>
        <time>2022-05-22T11:57:39Z</time>
      </trkpt>
      <trkpt lat="37.9755210" lon="-5.6647160">
        <ele>525.1</ele>
        <time>2022-05-22T11:57:41Z</time>
      </trkpt>
      <trkpt lat="37.9755120" lon="-5.6647150">
        <ele>525.0</ele>
        <time>2022-05-22T11:57:42Z</time>
      </trkpt>
      <trkpt lat="37.9754890" lon="-5.6647130">
        <ele>525.0</ele>
        <time>2022-05-22T11:57:43Z</time>
      </trkpt>
      <trkpt lat="37.9754790" lon="-5.6647120">
        <ele>525.0</ele>
        <time>2022-05-22T11:57:44Z</time>
      </trkpt>
      <trkpt lat="37.9754690" lon="-5.6647100">
        <ele>524.9</ele>
        <time>2022-05-22T11:57:45Z</time>
      </trkpt>
      <trkpt lat="37.9754590" lon="-5.6647090">
        <ele>524.9</ele>
        <time>2022-05-22T11:57:46Z</time>
      </trkpt>
      <trkpt lat="37.9754490" lon="-5.6647080">
        <ele>524.9</ele>
        <time>2022-05-22T11:57:47Z</time>
      </trkpt>
      <trkpt lat="37.9754380" lon="-5.6647070">
        <ele>524.9</ele>
        <time>2022-05-22T11:57:48Z</time>
      </trkpt>
      <trkpt lat="37.9754270" lon="-5.6647050">
        <ele>524.8</ele>
        <time>2022-05-22T11:57:49Z</time>
      </trkpt>
      <trkpt lat="37.9754070" lon="-5.6647020">
        <ele>524.8</ele>
        <time>2022-05-22T11:57:50Z</time>
      </trkpt>
      <trkpt lat="37.9754120" lon="-5.6646980">
        <ele>524.8</ele>
        <time>2022-05-22T11:57:51Z</time>
      </trkpt>
      <trkpt lat="37.9754160" lon="-5.6646970">
        <ele>524.8</ele>
        <time>2022-05-22T11:57:52Z</time>
      </trkpt>
      <trkpt lat="37.9754180" lon="-5.6646960">
        <ele>524.8</ele>
        <time>2022-05-22T11:57:53Z</time>
      </trkpt>
      <trkpt lat="37.9754150" lon="-5.6646950">
        <ele>524.7</ele>
        <time>2022-05-22T11:57:54Z</time>
      </trkpt>
      <trkpt lat="37.9754040" lon="-5.6646910">
        <ele>524.7</ele>
        <time>2022-05-22T11:57:55Z</time>
      </trkpt>
      <trkpt lat="37.9753900" lon="-5.6646860">
        <ele>524.7</ele>
        <time>2022-05-22T11:57:57Z</time>
      </trkpt>
      <trkpt lat="37.9753750" lon="-5.6646810">
        <ele>524.6</ele>
        <time>2022-05-22T11:57:58Z</time>
      </trkpt>
      <trkpt lat="37.9753470" lon="-5.6646740">
        <ele>524.6</ele>
        <time>2022-05-22T11:57:59Z</time>
      </trkpt>
      <trkpt lat="37.9753360" lon="-5.6646720">
        <ele>524.6</ele>
        <time>2022-05-22T11:58:00Z</time>
      </trkpt>
      <trkpt lat="37.9753220" lon="-5.6646690">
        <ele>524.5</ele>
        <time>2022-05-22T11:58:01Z</time>
      </trkpt>
      <trkpt lat="37.9752890" lon="-5.6646670">
        <ele>524.4</ele>
        <time>2022-05-22T11:58:03Z</time>
      </trkpt>
      <trkpt lat="37.9752530" lon="-5.6646690">
        <ele>524.3</ele>
        <time>2022-05-22T11:58:04Z</time>
      </trkpt>
      <trkpt lat="37.9752360" lon="-5.6646700">
        <ele>524.3</ele>
        <time>2022-05-22T11:58:05Z</time>
      </trkpt>
      <trkpt lat="37.9752050" lon="-5.6646720">
        <ele>524.2</ele>
        <time>2022-05-22T11:58:06Z</time>
      </trkpt>
      <trkpt lat="37.9751970" lon="-5.6646720">
        <ele>524.2</ele>
        <time>2022-05-22T11:58:07Z</time>
      </trkpt>
      <trkpt lat="37.9751590" lon="-5.6646720">
        <ele>524.1</ele>
        <time>2022-05-22T11:58:09Z</time>
      </trkpt>
      <trkpt lat="37.9751480" lon="-5.6646710">
        <ele>524.1</ele>
        <time>2022-05-22T11:58:10Z</time>
      </trkpt>
      <trkpt lat="37.9751360" lon="-5.6646710">
        <ele>524.0</ele>
        <time>2022-05-22T11:58:11Z</time>
      </trkpt>
      <trkpt lat="37.9751210" lon="-5.6646710">
        <ele>524.0</ele>
        <time>2022-05-22T11:58:12Z</time>
      </trkpt>
      <trkpt lat="37.9751030" lon="-5.6646750">
        <ele>524.0</ele>
        <time>2022-05-22T11:58:13Z</time>
      </trkpt>
      <trkpt lat="37.9750940" lon="-5.6646760">
        <ele>523.9</ele>
        <time>2022-05-22T11:58:14Z</time>
      </trkpt>
      <trkpt lat="37.9750850" lon="-5.6646770">
        <ele>523.9</ele>
        <time>2022-05-22T11:58:15Z</time>
      </trkpt>
      <trkpt lat="37.9750710" lon="-5.6646790">
        <ele>523.9</ele>
        <time>2022-05-22T11:58:16Z</time>
      </trkpt>
      <trkpt lat="37.9750380" lon="-5.6646860">
        <ele>523.8</ele>
        <time>2022-05-22T11:58:18Z</time>
      </trkpt>
      <trkpt lat="37.9750120" lon="-5.6646890">
        <ele>523.7</ele>
        <time>2022-05-22T11:58:20Z</time>
      </trkpt>
      <trkpt lat="37.9749970" lon="-5.6646910">
        <ele>523.6</ele>
        <time>2022-05-22T11:58:21Z</time>
      </trkpt>
      <trkpt lat="37.9749830" lon="-5.6646920">
        <ele>523.6</ele>
        <time>2022-05-22T11:58:22Z</time>
      </trkpt>
      <trkpt lat="37.9749540" lon="-5.6646940">
        <ele>523.5</ele>
        <time>2022-05-22T11:58:23Z</time>
      </trkpt>
      <trkpt lat="37.9749440" lon="-5.6646940">
        <ele>523.5</ele>
        <time>2022-05-22T11:58:24Z</time>
      </trkpt>
      <trkpt lat="37.9749240" lon="-5.6646950">
        <ele>523.4</ele>
        <time>2022-05-22T11:58:25Z</time>
      </trkpt>
      <trkpt lat="37.9749010" lon="-5.6646950">
        <ele>523.4</ele>
        <time>2022-05-22T11:58:27Z</time>
      </trkpt>
      <trkpt lat="37.9748540" lon="-5.6646930">
        <ele>523.2</ele>
        <time>2022-05-22T11:58:29Z</time>
      </trkpt>
      <trkpt lat="37.9748320" lon="-5.6646910">
        <ele>523.2</ele>
        <time>2022-05-22T11:58:30Z</time>
      </trkpt>
      <trkpt lat="37.9748160" lon="-5.6646890">
        <ele>523.1</ele>
        <time>2022-05-22T11:58:31Z</time>
      </trkpt>
      <trkpt lat="37.9747800" lon="-5.6646820">
        <ele>523.0</ele>
        <time>2022-05-22T11:58:33Z</time>
      </trkpt>
      <trkpt lat="37.9747530" lon="-5.6646780">
        <ele>523.0</ele>
        <time>2022-05-22T11:58:35Z</time>
      </trkpt>
      <trkpt lat="37.9747380" lon="-5.6646770">
        <ele>522.9</ele>
        <time>2022-05-22T11:58:36Z</time>
      </trkpt>
      <trkpt lat="37.9747220" lon="-5.6646760">
        <ele>522.9</ele>
        <time>2022-05-22T11:58:37Z</time>
      </trkpt>
      <trkpt lat="37.9747090" lon="-5.6646740">
        <ele>522.8</ele>
        <time>2022-05-22T11:58:38Z</time>
      </trkpt>
      <trkpt lat="37.9746880" lon="-5.6646690">
        <ele>522.8</ele>
        <time>2022-05-22T11:58:39Z</time>
      </trkpt>
      <trkpt lat="37.9746590" lon="-5.6646620">
        <ele>522.7</ele>
        <time>2022-05-22T11:58:40Z</time>
      </trkpt>
      <trkpt lat="37.9746510" lon="-5.6646600">
        <ele>522.7</ele>
        <time>2022-05-22T11:58:41Z</time>
      </trkpt>
      <trkpt lat="37.9746280" lon="-5.6646550">
        <ele>522.6</ele>
        <time>2022-05-22T11:58:42Z</time>
      </trkpt>
      <trkpt lat="37.9746200" lon="-5.6646540">
        <ele>522.6</ele>
        <time>2022-05-22T11:58:43Z</time>
      </trkpt>
      <trkpt lat="37.9746110" lon="-5.6646520">
        <ele>522.6</ele>
        <time>2022-05-22T11:58:44Z</time>
      </trkpt>
      <trkpt lat="37.9745910" lon="-5.6646470">
        <ele>522.5</ele>
        <time>2022-05-22T11:58:45Z</time>
      </trkpt>
      <trkpt lat="37.9745810" lon="-5.6646430">
        <ele>522.5</ele>
        <time>2022-05-22T11:58:46Z</time>
      </trkpt>
      <trkpt lat="37.9745680" lon="-5.6646390">
        <ele>522.4</ele>
        <time>2022-05-22T11:58:47Z</time>
      </trkpt>
      <trkpt lat="37.9745550" lon="-5.6646360">
        <ele>522.4</ele>
        <time>2022-05-22T11:58:48Z</time>
      </trkpt>
      <trkpt lat="37.9745260" lon="-5.6646300">
        <ele>522.3</ele>
        <time>2022-05-22T11:58:50Z</time>
      </trkpt>
      <trkpt lat="37.9745060" lon="-5.6646270">
        <ele>522.3</ele>
        <time>2022-05-22T11:58:52Z</time>
      </trkpt>
      <trkpt lat="37.9744950" lon="-5.6646270">
        <ele>522.2</ele>
        <time>2022-05-22T11:58:53Z</time>
      </trkpt>
      <trkpt lat="37.9744690" lon="-5.6646260">
        <ele>522.2</ele>
        <time>2022-05-22T11:58:54Z</time>
      </trkpt>
      <trkpt lat="37.9744550" lon="-5.6646260">
        <ele>522.1</ele>
        <time>2022-05-22T11:58:55Z</time>
      </trkpt>
      <trkpt lat="37.9744290" lon="-5.6646210">
        <ele>522.1</ele>
        <time>2022-05-22T11:58:57Z</time>
      </trkpt>
      <trkpt lat="37.9744190" lon="-5.6646200">
        <ele>522.0</ele>
        <time>2022-05-22T11:58:58Z</time>
      </trkpt>
      <trkpt lat="37.9743920" lon="-5.6646160">
        <ele>522.0</ele>
        <time>2022-05-22T11:58:59Z</time>
      </trkpt>
      <trkpt lat="37.9743810" lon="-5.6646140">
        <ele>521.9</ele>
        <time>2022-05-22T11:59:00Z</time>
      </trkpt>
      <trkpt lat="37.9743700" lon="-5.6646130">
        <ele>521.9</ele>
        <time>2022-05-22T11:59:01Z</time>
      </trkpt>
      <trkpt lat="37.9743580" lon="-5.6646110">
        <ele>521.9</ele>
        <time>2022-05-22T11:59:02Z</time>
      </trkpt>
      <trkpt lat="37.9743460" lon="-5.6646090">
        <ele>521.8</ele>
        <time>2022-05-22T11:59:03Z</time>
      </trkpt>
      <trkpt lat="37.9743300" lon="-5.6646060">
        <ele>521.8</ele>
        <time>2022-05-22T11:59:04Z</time>
      </trkpt>
      <trkpt lat="37.9743110" lon="-5.6646020">
        <ele>521.7</ele>
        <time>2022-05-22T11:59:05Z</time>
      </trkpt>
      <trkpt lat="37.9742920" lon="-5.6645970">
        <ele>521.7</ele>
        <time>2022-05-22T11:59:06Z</time>
      </trkpt>
      <trkpt lat="37.9742680" lon="-5.6645890">
        <ele>521.6</ele>
        <time>2022-05-22T11:59:08Z</time>
      </trkpt>
      <trkpt lat="37.9742420" lon="-5.6645770">
        <ele>521.5</ele>
        <time>2022-05-22T11:59:09Z</time>
      </trkpt>
      <trkpt lat="37.9742320" lon="-5.6645730">
        <ele>521.5</ele>
        <time>2022-05-22T11:59:10Z</time>
      </trkpt>
      <trkpt lat="37.9742140" lon="-5.6645650">
        <ele>521.5</ele>
        <time>2022-05-22T11:59:11Z</time>
      </trkpt>
      <trkpt lat="37.9742050" lon="-5.6645610">
        <ele>521.4</ele>
        <time>2022-05-22T11:59:12Z</time>
      </trkpt>
      <trkpt lat="37.9741970" lon="-5.6645570">
        <ele>521.4</ele>
        <time>2022-05-22T11:59:13Z</time>
      </trkpt>
      <trkpt lat="37.9741860" lon="-5.6645520">
        <ele>521.4</ele>
        <time>2022-05-22T11:59:14Z</time>
      </trkpt>
      <trkpt lat="37.9741640" lon="-5.6645410">
        <ele>521.3</ele>
        <time>2022-05-22T11:59:15Z</time>
      </trkpt>
      <trkpt lat="37.9741520" lon="-5.6645350">
        <ele>521.3</ele>
        <time>2022-05-22T11:59:16Z</time>
      </trkpt>
      <trkpt lat="37.9741360" lon="-5.6645290">
        <ele>521.2</ele>
        <time>2022-05-22T11:59:17Z</time>
      </trkpt>
      <trkpt lat="37.9741160" lon="-5.6645210">
        <ele>521.2</ele>
        <time>2022-05-22T11:59:19Z</time>
      </trkpt>
      <trkpt lat="37.9741030" lon="-5.6645170">
        <ele>521.1</ele>
        <time>2022-05-22T11:59:20Z</time>
      </trkpt>
      <trkpt lat="37.9740780" lon="-5.6645080">
        <ele>521.1</ele>
        <time>2022-05-22T11:59:21Z</time>
      </trkpt>
      <trkpt lat="37.9740680" lon="-5.6645040">
        <ele>521.0</ele>
        <time>2022-05-22T11:59:22Z</time>
      </trkpt>
      <trkpt lat="37.9740540" lon="-5.6644980">
        <ele>521.0</ele>
        <time>2022-05-22T11:59:23Z</time>
      </trkpt>
      <trkpt lat="37.9740330" lon="-5.6644900">
        <ele>520.9</ele>
        <time>2022-05-22T11:59:25Z</time>
      </trkpt>
      <trkpt lat="37.9740070" lon="-5.6644810">
        <ele>520.9</ele>
        <time>2022-05-22T11:59:26Z</time>
      </trkpt>
      <trkpt lat="37.9739980" lon="-5.6644770">
        <ele>520.8</ele>
        <time>2022-05-22T11:59:27Z</time>
      </trkpt>
      <trkpt lat="37.9739720" lon="-5.6644630">
        <ele>520.7</ele>
        <time>2022-05-22T11:59:29Z</time>
      </trkpt>
      <trkpt lat="37.9739640" lon="-5.6644560">
        <ele>520.7</ele>
        <time>2022-05-22T11:59:30Z</time>
      </trkpt>
      <trkpt lat="37.9739340" lon="-5.6644330">
        <ele>520.6</ele>
        <time>2022-05-22T11:59:31Z</time>
      </trkpt>
      <trkpt lat="37.9739220" lon="-5.6644260">
        <ele>520.6</ele>
        <time>2022-05-22T11:59:32Z</time>
      </trkpt>
      <trkpt lat="37.9739090" lon="-5.6644200">
        <ele>520.5</ele>
        <time>2022-05-22T11:59:33Z</time>
      </trkpt>
      <trkpt lat="37.9738860" lon="-5.6644140">
        <ele>520.5</ele>
        <time>2022-05-22T11:59:35Z</time>
      </trkpt>
      <trkpt lat="37.9738700" lon="-5.6644110">
        <ele>520.4</ele>
        <time>2022-05-22T11:59:36Z</time>
      </trkpt>
      <trkpt lat="37.9738540" lon="-5.6644030">
        <ele>520.4</ele>
        <time>2022-05-22T11:59:37Z</time>
      </trkpt>
      <trkpt lat="37.9738370" lon="-5.6643930">
        <ele>520.3</ele>
        <time>2022-05-22T11:59:38Z</time>
      </trkpt>
      <trkpt lat="37.9738190" lon="-5.6643820">
        <ele>520.3</ele>
        <time>2022-05-22T11:59:40Z</time>
      </trkpt>
      <trkpt lat="37.9737900" lon="-5.6643740">
        <ele>520.2</ele>
        <time>2022-05-22T11:59:41Z</time>
      </trkpt>
      <trkpt lat="37.9737770" lon="-5.6643730">
        <ele>520.2</ele>
        <time>2022-05-22T11:59:42Z</time>
      </trkpt>
      <trkpt lat="37.9737600" lon="-5.6643700">
        <ele>520.1</ele>
        <time>2022-05-22T11:59:43Z</time>
      </trkpt>
      <trkpt lat="37.9737470" lon="-5.6643640">
        <ele>520.1</ele>
        <time>2022-05-22T11:59:44Z</time>
      </trkpt>
      <trkpt lat="37.9737320" lon="-5.6643550">
        <ele>520.1</ele>
        <time>2022-05-22T11:59:45Z</time>
      </trkpt>
      <trkpt lat="37.9737120" lon="-5.6643420">
        <ele>520.0</ele>
        <time>2022-05-22T11:59:47Z</time>
      </trkpt>
      <trkpt lat="37.9737030" lon="-5.6643350">
        <ele>520.0</ele>
        <time>2022-05-22T11:59:48Z</time>
      </trkpt>
      <trkpt lat="37.9736960" lon="-5.6643280">
        <ele>519.9</ele>
        <time>2022-05-22T11:59:49Z</time>
      </trkpt>
      <trkpt lat="37.9736890" lon="-5.6643180">
        <ele>519.9</ele>
        <time>2022-05-22T11:59:50Z</time>
      </trkpt>
      <trkpt lat="37.9736800" lon="-5.6643010">
        <ele>519.9</ele>
        <time>2022-05-22T11:59:51Z</time>
      </trkpt>
      <trkpt lat="37.9736660" lon="-5.6642830">
        <ele>519.8</ele>
        <time>2022-05-22T11:59:52Z</time>
      </trkpt>
      <trkpt lat="37.9736420" lon="-5.6642580">
        <ele>519.8</ele>
        <time>2022-05-22T11:59:53Z</time>
      </trkpt>
      <trkpt lat="37.9736290" lon="-5.6642460">
        <ele>519.7</ele>
        <time>2022-05-22T11:59:54Z</time>
      </trkpt>
      <trkpt lat="37.9736170" lon="-5.6642340">
        <ele>519.7</ele>
        <time>2022-05-22T11:59:55Z</time>
      </trkpt>
      <trkpt lat="37.9735980" lon="-5.6642180">
        <ele>519.6</ele>
        <time>2022-05-22T11:59:56Z</time>
      </trkpt>
      <trkpt lat="37.9735910" lon="-5.6642130">
        <ele>519.6</ele>
        <time>2022-05-22T11:59:57Z</time>
      </trkpt>
      <trkpt lat="37.9735840" lon="-5.6642070">
        <ele>519.6</ele>
        <time>2022-05-22T11:59:58Z</time>
      </trkpt>
      <trkpt lat="37.9735720" lon="-5.6642010">
        <ele>519.6</ele>
        <time>2022-05-22T11:59:59Z</time>
      </trkpt>
      <trkpt lat="37.9735470" lon="-5.6641990">
        <ele>519.5</ele>
        <time>2022-05-22T12:00:01Z</time>
      </trkpt>
      <trkpt lat="37.9735340" lon="-5.6642130">
        <ele>519.5</ele>
        <time>2022-05-22T12:00:03Z</time>
      </trkpt>
      <trkpt lat="37.9735290" lon="-5.6642200">
        <ele>519.4</ele>
        <time>2022-05-22T12:00:04Z</time>
      </trkpt>
      <trkpt lat="37.9735320" lon="-5.6642260">
        <ele>519.4</ele>
        <time>2022-05-22T12:00:05Z</time>
      </trkpt>
      <trkpt lat="37.9735360" lon="-5.6642320">
        <ele>519.4</ele>
        <time>2022-05-22T12:00:06Z</time>
      </trkpt>
      <trkpt lat="37.9735310" lon="-5.6642350">
        <ele>519.4</ele>
        <time>2022-05-22T12:00:07Z</time>
      </trkpt>
      <trkpt lat="37.9735240" lon="-5.6642370">
        <ele>518.6</ele>
        <time>2022-05-22T12:00:08Z</time>
      </trkpt>
      <trkpt lat="37.9735140" lon="-5.6642390">
        <ele>518.5</ele>
        <time>2022-05-22T12:00:09Z</time>
      </trkpt>
      <trkpt lat="37.9734930" lon="-5.6642450">
        <ele>518.3</ele>
        <time>2022-05-22T12:00:10Z</time>
      </trkpt>
      <trkpt lat="37.9734840" lon="-5.6642470">
        <ele>518.2</ele>
        <time>2022-05-22T12:00:11Z</time>
      </trkpt>
      <trkpt lat="37.9734740" lon="-5.6642500">
        <ele>518.0</ele>
        <time>2022-05-22T12:00:12Z</time>
      </trkpt>
      <trkpt lat="37.9734600" lon="-5.6642590">
        <ele>517.8</ele>
        <time>2022-05-22T12:00:13Z</time>
      </trkpt>
      <trkpt lat="37.9734490" lon="-5.6642690">
        <ele>517.7</ele>
        <time>2022-05-22T12:00:14Z</time>
      </trkpt>
      <trkpt lat="37.9734340" lon="-5.6642870">
        <ele>517.4</ele>
        <time>2022-05-22T12:00:15Z</time>
      </trkpt>
      <trkpt lat="37.9734280" lon="-5.6642940">
        <ele>517.3</ele>
        <time>2022-05-22T12:00:16Z</time>
      </trkpt>
      <trkpt lat="37.9734230" lon="-5.6643010">
        <ele>517.3</ele>
        <time>2022-05-22T12:00:17Z</time>
      </trkpt>
      <trkpt lat="37.9734080" lon="-5.6643170">
        <ele>517.0</ele>
        <time>2022-05-22T12:00:19Z</time>
      </trkpt>
      <trkpt lat="37.9733970" lon="-5.6643250">
        <ele>516.9</ele>
        <time>2022-05-22T12:00:20Z</time>
      </trkpt>
      <trkpt lat="37.9733860" lon="-5.6643340">
        <ele>516.7</ele>
        <time>2022-05-22T12:00:21Z</time>
      </trkpt>
      <trkpt lat="37.9733720" lon="-5.6643450">
        <ele>516.5</ele>
        <time>2022-05-22T12:00:22Z</time>
      </trkpt>
      <trkpt lat="37.9733660" lon="-5.6643560">
        <ele>516.4</ele>
        <time>2022-05-22T12:00:23Z</time>
      </trkpt>
      <trkpt lat="37.9733630" lon="-5.6643640">
        <ele>516.3</ele>
        <time>2022-05-22T12:00:24Z</time>
      </trkpt>
      <trkpt lat="37.9733600" lon="-5.6643710">
        <ele>516.3</ele>
        <time>2022-05-22T12:00:25Z</time>
      </trkpt>
      <trkpt lat="37.9733580" lon="-5.6643790">
        <ele>516.2</ele>
        <time>2022-05-22T12:00:26Z</time>
      </trkpt>
      <trkpt lat="37.9733550" lon="-5.6643860">
        <ele>516.1</ele>
        <time>2022-05-22T12:00:27Z</time>
      </trkpt>
      <trkpt lat="37.9733500" lon="-5.6644030">
        <ele>515.9</ele>
        <time>2022-05-22T12:00:28Z</time>
      </trkpt>
      <trkpt lat="37.9733500" lon="-5.6644140">
        <ele>515.8</ele>
        <time>2022-05-22T12:00:29Z</time>
      </trkpt>
      <trkpt lat="37.9733520" lon="-5.6644110">
        <ele>515.8</ele>
        <time>2022-05-22T12:00:30Z</time>
      </trkpt>
      <trkpt lat="37.9733520" lon="-5.6644140">
        <ele>515.8</ele>
        <time>2022-05-22T12:00:31Z</time>
      </trkpt>
      <trkpt lat="37.9733490" lon="-5.6644240">
        <ele>515.7</ele>
        <time>2022-05-22T12:00:32Z</time>
      </trkpt>
      <trkpt lat="37.9733480" lon="-5.6644330">
        <ele>515.6</ele>
        <time>2022-05-22T12:00:33Z</time>
      </trkpt>
      <trkpt lat="37.9733480" lon="-5.6644340">
        <ele>515.6</ele>
        <time>2022-05-22T12:00:34Z</time>
      </trkpt>
      <trkpt lat="37.9733480" lon="-5.6644360">
        <ele>515.6</ele>
        <time>2022-05-22T12:00:35Z</time>
      </trkpt>
      <trkpt lat="37.9733500" lon="-5.6644380">
        <ele>515.5</ele>
        <time>2022-05-22T12:00:36Z</time>
      </trkpt>
      <trkpt lat="37.9733490" lon="-5.6644420">
        <ele>515.5</ele>
        <time>2022-05-22T12:00:37Z</time>
      </trkpt>
      <trkpt lat="37.9733460" lon="-5.6644430">
        <ele>515.5</ele>
        <time>2022-05-22T12:00:39Z</time>
      </trkpt>
      <trkpt lat="37.9733410" lon="-5.6644450">
        <ele>515.4</ele>
        <time>2022-05-22T12:00:40Z</time>
      </trkpt>
      <trkpt lat="37.9733320" lon="-5.6644490">
        <ele>515.3</ele>
        <time>2022-05-22T12:00:41Z</time>
      </trkpt>
      <trkpt lat="37.9733190" lon="-5.6644530">
        <ele>515.1</ele>
        <time>2022-05-22T12:00:43Z</time>
      </trkpt>
      <trkpt lat="37.9733080" lon="-5.6644600">
        <ele>515.0</ele>
        <time>2022-05-22T12:00:44Z</time>
      </trkpt>
      <trkpt lat="37.9733020" lon="-5.6644840">
        <ele>514.8</ele>
        <time>2022-05-22T12:00:45Z</time>
      </trkpt>
      <trkpt lat="37.9733030" lon="-5.6645180">
        <ele>514.5</ele>
        <time>2022-05-22T12:00:46Z</time>
      </trkpt>
      <trkpt lat="37.9733010" lon="-5.6645310">
        <ele>514.4</ele>
        <time>2022-05-22T12:00:47Z</time>
      </trkpt>
      <trkpt lat="37.9732870" lon="-5.6645550">
        <ele>514.2</ele>
        <time>2022-05-22T12:00:49Z</time>
      </trkpt>
      <trkpt lat="37.9732820" lon="-5.6645660">
        <ele>514.2</ele>
        <time>2022-05-22T12:00:50Z</time>
      </trkpt>
      <trkpt lat="37.9732770" lon="-5.6645770">
        <ele>513.6</ele>
        <time>2022-05-22T12:00:51Z</time>
      </trkpt>
      <trkpt lat="37.9732720" lon="-5.6646110">
        <ele>513.1</ele>
        <time>2022-05-22T12:00:52Z</time>
      </trkpt>
      <trkpt lat="37.9732680" lon="-5.6646480">
        <ele>513.1</ele>
        <time>2022-05-22T12:00:54Z</time>
      </trkpt>
      <trkpt lat="37.9732680" lon="-5.6646600">
        <ele>512.5</ele>
        <time>2022-05-22T12:00:55Z</time>
      </trkpt>
      <trkpt lat="37.9732760" lon="-5.6647050">
        <ele>511.9</ele>
        <time>2022-05-22T12:00:56Z</time>
      </trkpt>
      <trkpt lat="37.9732800" lon="-5.6647530">
        <ele>511.3</ele>
        <time>2022-05-22T12:00:57Z</time>
      </trkpt>
      <trkpt lat="37.9732810" lon="-5.6647690">
        <ele>511.3</ele>
        <time>2022-05-22T12:00:58Z</time>
      </trkpt>
      <trkpt lat="37.9732780" lon="-5.6648230">
        <ele>510.7</ele>
        <time>2022-05-22T12:01:00Z</time>
      </trkpt>
      <trkpt lat="37.9732750" lon="-5.6648390">
        <ele>510.1</ele>
        <time>2022-05-22T12:01:01Z</time>
      </trkpt>
      <trkpt lat="37.9732720" lon="-5.6648550">
        <ele>510.1</ele>
        <time>2022-05-22T12:01:02Z</time>
      </trkpt>
      <trkpt lat="37.9732640" lon="-5.6648760">
        <ele>509.5</ele>
        <time>2022-05-22T12:01:03Z</time>
      </trkpt>
      <trkpt lat="37.9732530" lon="-5.6648990">
        <ele>509.2</ele>
        <time>2022-05-22T12:01:05Z</time>
      </trkpt>
      <trkpt lat="37.9732450" lon="-5.6649140">
        <ele>508.6</ele>
        <time>2022-05-22T12:01:06Z</time>
      </trkpt>
      <trkpt lat="37.9732360" lon="-5.6649330">
        <ele>508.6</ele>
        <time>2022-05-22T12:01:07Z</time>
      </trkpt>
      <trkpt lat="37.9732300" lon="-5.6649440">
        <ele>508.6</ele>
        <time>2022-05-22T12:01:08Z</time>
      </trkpt>
      <trkpt lat="37.9732220" lon="-5.6649610">
        <ele>507.6</ele>
        <time>2022-05-22T12:01:09Z</time>
      </trkpt>
      <trkpt lat="37.9732170" lon="-5.6649620">
        <ele>507.6</ele>
        <time>2022-05-22T12:01:11Z</time>
      </trkpt>
      <trkpt lat="37.9732220" lon="-5.6649540">
        <ele>508.3</ele>
        <time>2022-05-22T12:01:12Z</time>
      </trkpt>
      <trkpt lat="37.9732200" lon="-5.6649520">
        <ele>508.3</ele>
        <time>2022-05-22T12:01:13Z</time>
      </trkpt>
      <trkpt lat="37.9732200" lon="-5.6649520">
        <ele>508.3</ele>
        <time>2022-05-22T12:01:14Z</time>
      </trkpt>
      <trkpt lat="37.9732200" lon="-5.6649500">
        <ele>508.3</ele>
        <time>2022-05-22T12:01:15Z</time>
      </trkpt>
      <trkpt lat="37.9732210" lon="-5.6649490">
        <ele>508.3</ele>
        <time>2022-05-22T12:01:16Z</time>
      </trkpt>
      <trkpt lat="37.9732220" lon="-5.6649470">
        <ele>508.3</ele>
        <time>2022-05-22T12:01:17Z</time>
      </trkpt>
      <trkpt lat="37.9732200" lon="-5.6649490">
        <ele>508.3</ele>
        <time>2022-05-22T12:01:18Z</time>
      </trkpt>
      <trkpt lat="37.9732180" lon="-5.6649510">
        <ele>508.3</ele>
        <time>2022-05-22T12:01:19Z</time>
      </trkpt>
      <trkpt lat="37.9732160" lon="-5.6649510">
        <ele>508.3</ele>
        <time>2022-05-22T12:01:20Z</time>
      </trkpt>
      <trkpt lat="37.9732150" lon="-5.6649510">
        <ele>508.3</ele>
        <time>2022-05-22T12:01:21Z</time>
      </trkpt>
      <trkpt lat="37.9732140" lon="-5.6649500">
        <ele>508.3</ele>
        <time>2022-05-22T12:01:22Z</time>
      </trkpt>
      <trkpt lat="37.9732090" lon="-5.6649550">
        <ele>507.6</ele>
        <time>2022-05-22T12:01:23Z</time>
      </trkpt>
      <trkpt lat="37.9732050" lon="-5.6649580">
        <ele>507.6</ele>
        <time>2022-05-22T12:01:24Z</time>
      </trkpt>
      <trkpt lat="37.9732030" lon="-5.6649600">
        <ele>507.6</ele>
        <time>2022-05-22T12:01:25Z</time>
      </trkpt>
      <trkpt lat="37.9732020" lon="-5.6649600">
        <ele>507.6</ele>
        <time>2022-05-22T12:01:26Z</time>
      </trkpt>
      <trkpt lat="37.9732030" lon="-5.6649590">
        <ele>507.6</ele>
        <time>2022-05-22T12:01:27Z</time>
      </trkpt>
      <trkpt lat="37.9731990" lon="-5.6649630">
        <ele>507.6</ele>
        <time>2022-05-22T12:01:28Z</time>
      </trkpt>
      <trkpt lat="37.9731960" lon="-5.6649660">
        <ele>507.6</ele>
        <time>2022-05-22T12:01:29Z</time>
      </trkpt>
      <trkpt lat="37.9731940" lon="-5.6649690">
        <ele>507.3</ele>
        <time>2022-05-22T12:01:30Z</time>
      </trkpt>
      <trkpt lat="37.9731920" lon="-5.6649720">
        <ele>507.3</ele>
        <time>2022-05-22T12:01:31Z</time>
      </trkpt>
      <trkpt lat="37.9731890" lon="-5.6649770">
        <ele>507.3</ele>
        <time>2022-05-22T12:01:32Z</time>
      </trkpt>
      <trkpt lat="37.9731850" lon="-5.6649820">
        <ele>507.3</ele>
        <time>2022-05-22T12:01:33Z</time>
      </trkpt>
      <trkpt lat="37.9731790" lon="-5.6649910">
        <ele>507.3</ele>
        <time>2022-05-22T12:01:34Z</time>
      </trkpt>
      <trkpt lat="37.9731760" lon="-5.6650050">
        <ele>506.7</ele>
        <time>2022-05-22T12:01:36Z</time>
      </trkpt>
      <trkpt lat="37.9731750" lon="-5.6650140">
        <ele>506.7</ele>
        <time>2022-05-22T12:01:37Z</time>
      </trkpt>
      <trkpt lat="37.9731760" lon="-5.6650310">
        <ele>506.7</ele>
        <time>2022-05-22T12:01:38Z</time>
      </trkpt>
      <trkpt lat="37.9731820" lon="-5.6650490">
        <ele>506.0</ele>
        <time>2022-05-22T12:01:39Z</time>
      </trkpt>
      <trkpt lat="37.9731920" lon="-5.6650810">
        <ele>506.0</ele>
        <time>2022-05-22T12:01:40Z</time>
      </trkpt>
      <trkpt lat="37.9731970" lon="-5.6650920">
        <ele>505.6</ele>
        <time>2022-05-22T12:01:41Z</time>
      </trkpt>
      <trkpt lat="37.9732080" lon="-5.6651260">
        <ele>505.0</ele>
        <time>2022-05-22T12:01:42Z</time>
      </trkpt>
      <trkpt lat="37.9732070" lon="-5.6651390">
        <ele>505.0</ele>
        <time>2022-05-22T12:01:43Z</time>
      </trkpt>
      <trkpt lat="37.9731970" lon="-5.6651630">
        <ele>505.0</ele>
        <time>2022-05-22T12:01:44Z</time>
      </trkpt>
      <trkpt lat="37.9731910" lon="-5.6651720">
        <ele>504.1</ele>
        <time>2022-05-22T12:01:45Z</time>
      </trkpt>
      <trkpt lat="37.9731860" lon="-5.6651810">
        <ele>504.1</ele>
        <time>2022-05-22T12:01:46Z</time>
      </trkpt>
      <trkpt lat="37.9731530" lon="-5.6651980">
        <ele>503.9</ele>
        <time>2022-05-22T12:01:47Z</time>
      </trkpt>
      <trkpt lat="37.9731320" lon="-5.6652030">
        <ele>503.9</ele>
        <time>2022-05-22T12:01:48Z</time>
      </trkpt>
      <trkpt lat="37.9730890" lon="-5.6652120">
        <ele>503.0</ele>
        <time>2022-05-22T12:01:49Z</time>
      </trkpt>
      <trkpt lat="37.9730710" lon="-5.6652160">
        <ele>503.0</ele>
        <time>2022-05-22T12:01:50Z</time>
      </trkpt>
      <trkpt lat="37.9730510" lon="-5.6652180">
        <ele>502.8</ele>
        <time>2022-05-22T12:01:52Z</time>
      </trkpt>
      <trkpt lat="37.9730380" lon="-5.6652180">
        <ele>502.8</ele>
        <time>2022-05-22T12:01:53Z</time>
      </trkpt>
      <trkpt lat="37.9730260" lon="-5.6652190">
        <ele>502.5</ele>
        <time>2022-05-22T12:01:54Z</time>
      </trkpt>
      <trkpt lat="37.9730210" lon="-5.6652200">
        <ele>502.5</ele>
        <time>2022-05-22T12:01:55Z</time>
      </trkpt>
      <trkpt lat="37.9730270" lon="-5.6652210">
        <ele>502.8</ele>
        <time>2022-05-22T12:01:56Z</time>
      </trkpt>
      <trkpt lat="37.9730360" lon="-5.6652220">
        <ele>502.8</ele>
        <time>2022-05-22T12:01:57Z</time>
      </trkpt>
      <trkpt lat="37.9730490" lon="-5.6652240">
        <ele>502.8</ele>
        <time>2022-05-22T12:01:58Z</time>
      </trkpt>
      <trkpt lat="37.9730580" lon="-5.6652260">
        <ele>502.8</ele>
        <time>2022-05-22T12:01:59Z</time>
      </trkpt>
      <trkpt lat="37.9730760" lon="-5.6652290">
        <ele>503.0</ele>
        <time>2022-05-22T12:02:00Z</time>
      </trkpt>
      <trkpt lat="37.9730790" lon="-5.6652300">
        <ele>503.0</ele>
        <time>2022-05-22T12:02:01Z</time>
      </trkpt>
      <trkpt lat="37.9730710" lon="-5.6652290">
        <ele>503.0</ele>
        <time>2022-05-22T12:02:03Z</time>
      </trkpt>
      <trkpt lat="37.9730590" lon="-5.6652270">
        <ele>502.8</ele>
        <time>2022-05-22T12:02:04Z</time>
      </trkpt>
      <trkpt lat="37.9730460" lon="-5.6652260">
        <ele>502.8</ele>
        <time>2022-05-22T12:02:05Z</time>
      </trkpt>
      <trkpt lat="37.9730430" lon="-5.6652260">
        <ele>502.8</ele>
        <time>2022-05-22T12:02:06Z</time>
      </trkpt>
      <trkpt lat="37.9730340" lon="-5.6652260">
        <ele>502.8</ele>
        <time>2022-05-22T12:02:07Z</time>
      </trkpt>
      <trkpt lat="37.9730150" lon="-5.6652270">
        <ele>502.5</ele>
        <time>2022-05-22T12:02:09Z</time>
      </trkpt>
      <trkpt lat="37.9730020" lon="-5.6652300">
        <ele>502.5</ele>
        <time>2022-05-22T12:02:10Z</time>
      </trkpt>
      <trkpt lat="37.9729890" lon="-5.6652390">
        <ele>502.3</ele>
        <time>2022-05-22T12:02:11Z</time>
      </trkpt>
      <trkpt lat="37.9729650" lon="-5.6652590">
        <ele>501.9</ele>
        <time>2022-05-22T12:02:13Z</time>
      </trkpt>
      <trkpt lat="37.9729370" lon="-5.6652790">
        <ele>501.6</ele>
        <time>2022-05-22T12:02:14Z</time>
      </trkpt>
      <trkpt lat="37.9729060" lon="-5.6652920">
        <ele>501.4</ele>
        <time>2022-05-22T12:02:15Z</time>
      </trkpt>
      <trkpt lat="37.9728970" lon="-5.6652950">
        <ele>501.4</ele>
        <time>2022-05-22T12:02:16Z</time>
      </trkpt>
      <trkpt lat="37.9728710" lon="-5.6653040">
        <ele>500.7</ele>
        <time>2022-05-22T12:02:17Z</time>
      </trkpt>
      <trkpt lat="37.9728620" lon="-5.6653090">
        <ele>500.7</ele>
        <time>2022-05-22T12:02:18Z</time>
      </trkpt>
      <trkpt lat="37.9728400" lon="-5.6653310">
        <ele>500.4</ele>
        <time>2022-05-22T12:02:19Z</time>
      </trkpt>
      <trkpt lat="37.9728330" lon="-5.6653370">
        <ele>500.4</ele>
        <time>2022-05-22T12:02:20Z</time>
      </trkpt>
      <trkpt lat="37.9728180" lon="-5.6653480">
        <ele>499.6</ele>
        <time>2022-05-22T12:02:21Z</time>
      </trkpt>
      <trkpt lat="37.9728150" lon="-5.6653550">
        <ele>499.6</ele>
        <time>2022-05-22T12:02:22Z</time>
      </trkpt>
      <trkpt lat="37.9728130" lon="-5.6653580">
        <ele>499.6</ele>
        <time>2022-05-22T12:02:23Z</time>
      </trkpt>
      <trkpt lat="37.9728180" lon="-5.6653580">
        <ele>499.6</ele>
        <time>2022-05-22T12:02:24Z</time>
      </trkpt>
      <trkpt lat="37.9728270" lon="-5.6653580">
        <ele>499.9</ele>
        <time>2022-05-22T12:02:25Z</time>
      </trkpt>
      <trkpt lat="37.9728340" lon="-5.6653560">
        <ele>499.9</ele>
        <time>2022-05-22T12:02:27Z</time>
      </trkpt>
      <trkpt lat="37.9728320" lon="-5.6653580">
        <ele>499.9</ele>
        <time>2022-05-22T12:02:28Z</time>
      </trkpt>
      <trkpt lat="37.9728280" lon="-5.6653580">
        <ele>499.9</ele>
        <time>2022-05-22T12:02:29Z</time>
      </trkpt>
      <trkpt lat="37.9728280" lon="-5.6653540">
        <ele>499.9</ele>
        <time>2022-05-22T12:02:31Z</time>
      </trkpt>
      <trkpt lat="37.9728340" lon="-5.6653510">
        <ele>499.9</ele>
        <time>2022-05-22T12:02:32Z</time>
      </trkpt>
      <trkpt lat="37.9728410" lon="-5.6653500">
        <ele>499.9</ele>
        <time>2022-05-22T12:02:33Z</time>
      </trkpt>
      <trkpt lat="37.9728490" lon="-5.6653480">
        <ele>499.9</ele>
        <time>2022-05-22T12:02:34Z</time>
      </trkpt>
      <trkpt lat="37.9728510" lon="-5.6653480">
        <ele>499.9</ele>
        <time>2022-05-22T12:02:35Z</time>
      </trkpt>
      <trkpt lat="37.9728530" lon="-5.6653480">
        <ele>499.9</ele>
        <time>2022-05-22T12:02:36Z</time>
      </trkpt>
      <trkpt lat="37.9728550" lon="-5.6653490">
        <ele>499.9</ele>
        <time>2022-05-22T12:02:37Z</time>
      </trkpt>
      <trkpt lat="37.9728560" lon="-5.6653520">
        <ele>499.9</ele>
        <time>2022-05-22T12:02:38Z</time>
      </trkpt>
      <trkpt lat="37.9728570" lon="-5.6653540">
        <ele>499.9</ele>
        <time>2022-05-22T12:02:39Z</time>
      </trkpt>
      <trkpt lat="37.9728600" lon="-5.6653580">
        <ele>500.2</ele>
        <time>2022-05-22T12:02:40Z</time>
      </trkpt>
      <trkpt lat="37.9728630" lon="-5.6653600">
        <ele>500.2</ele>
        <time>2022-05-22T12:02:41Z</time>
      </trkpt>
      <trkpt lat="37.9728660" lon="-5.6653630">
        <ele>500.2</ele>
        <time>2022-05-22T12:02:42Z</time>
      </trkpt>
      <trkpt lat="37.9728690" lon="-5.6653650">
        <ele>500.2</ele>
        <time>2022-05-22T12:02:43Z</time>
      </trkpt>
      <trkpt lat="37.9728720" lon="-5.6653670">
        <ele>500.2</ele>
        <time>2022-05-22T12:02:44Z</time>
      </trkpt>
      <trkpt lat="37.9728750" lon="-5.6653690">
        <ele>500.2</ele>
        <time>2022-05-22T12:02:45Z</time>
      </trkpt>
      <trkpt lat="37.9728790" lon="-5.6653710">
        <ele>500.2</ele>
        <time>2022-05-22T12:02:46Z</time>
      </trkpt>
      <trkpt lat="37.9728820" lon="-5.6653740">
        <ele>500.2</ele>
        <time>2022-05-22T12:02:47Z</time>
      </trkpt>
      <trkpt lat="37.9728850" lon="-5.6653760">
        <ele>500.2</ele>
        <time>2022-05-22T12:02:48Z</time>
      </trkpt>
      <trkpt lat="37.9728880" lon="-5.6653780">
        <ele>500.2</ele>
        <time>2022-05-22T12:02:51Z</time>
      </trkpt>
      <trkpt lat="37.9728910" lon="-5.6653800">
        <ele>500.2</ele>
        <time>2022-05-22T12:02:52Z</time>
      </trkpt>
      <trkpt lat="37.9728940" lon="-5.6653820">
        <ele>500.4</ele>
        <time>2022-05-22T12:02:53Z</time>
      </trkpt>
      <trkpt lat="37.9728840" lon="-5.6653830">
        <ele>500.2</ele>
        <time>2022-05-22T12:02:54Z</time>
      </trkpt>
      <trkpt lat="37.9728730" lon="-5.6653820">
        <ele>500.2</ele>
        <time>2022-05-22T12:02:55Z</time>
      </trkpt>
      <trkpt lat="37.9728620" lon="-5.6653810">
        <ele>500.2</ele>
        <time>2022-05-22T12:02:56Z</time>
      </trkpt>
      <trkpt lat="37.9728510" lon="-5.6653800">
        <ele>499.9</ele>
        <time>2022-05-22T12:09:33Z</time>
      </trkpt>
      <trkpt lat="37.9728400" lon="-5.6653800">
        <ele>499.9</ele>
        <time>2022-05-22T12:09:34Z</time>
      </trkpt>
      <trkpt lat="37.9728480" lon="-5.6654250">
        <ele>499.4</ele>
        <time>2022-05-22T12:09:35Z</time>
      </trkpt>
      <trkpt lat="37.9728730" lon="-5.6654600">
        <ele>498.9</ele>
        <time>2022-05-22T12:09:36Z</time>
      </trkpt>
      <trkpt lat="37.9728820" lon="-5.6654840">
        <ele>498.1</ele>
        <time>2022-05-22T12:09:37Z</time>
      </trkpt>
      <trkpt lat="37.9728870" lon="-5.6654930">
        <ele>498.1</ele>
        <time>2022-05-22T12:09:38Z</time>
      </trkpt>
      <trkpt lat="37.9728900" lon="-5.6654940">
        <ele>498.1</ele>
        <time>2022-05-22T12:09:39Z</time>
      </trkpt>
      <trkpt lat="37.9728910" lon="-5.6654930">
        <ele>498.1</ele>
        <time>2022-05-22T12:09:40Z</time>
      </trkpt>
      <trkpt lat="37.9728910" lon="-5.6654890">
        <ele>498.1</ele>
        <time>2022-05-22T12:09:41Z</time>
      </trkpt>
      <trkpt lat="37.9728910" lon="-5.6654880">
        <ele>498.1</ele>
        <time>2022-05-22T12:09:42Z</time>
      </trkpt>
      <trkpt lat="37.9728910" lon="-5.6654870">
        <ele>498.1</ele>
        <time>2022-05-22T12:09:43Z</time>
      </trkpt>
      <trkpt lat="37.9728910" lon="-5.6654860">
        <ele>498.1</ele>
        <time>2022-05-22T12:09:44Z</time>
      </trkpt>
      <trkpt lat="37.9728910" lon="-5.6654850">
        <ele>498.1</ele>
        <time>2022-05-22T12:09:45Z</time>
      </trkpt>
      <trkpt lat="37.9728910" lon="-5.6654840">
        <ele>498.1</ele>
        <time>2022-05-22T12:09:46Z</time>
      </trkpt>
      <trkpt lat="37.9728910" lon="-5.6654840">
        <ele>498.1</ele>
        <time>2022-05-22T12:09:47Z</time>
      </trkpt>
      <trkpt lat="37.9728910" lon="-5.6654830">
        <ele>498.1</ele>
        <time>2022-05-22T12:09:48Z</time>
      </trkpt>
      <trkpt lat="37.9728910" lon="-5.6654830">
        <ele>498.1</ele>
        <time>2022-05-22T12:09:49Z</time>
      </trkpt>
      <trkpt lat="37.9728910" lon="-5.6654830">
        <ele>498.1</ele>
        <time>2022-05-22T12:09:50Z</time>
      </trkpt>
      <trkpt lat="37.9728910" lon="-5.6654830">
        <ele>498.1</ele>
        <time>2022-05-22T12:09:51Z</time>
      </trkpt>
      <trkpt lat="37.9728910" lon="-5.6654830">
        <ele>498.1</ele>
        <time>2022-05-22T12:09:52Z</time>
      </trkpt>
      <trkpt lat="37.9728910" lon="-5.6654830">
        <ele>498.1</ele>
        <time>2022-05-22T12:09:53Z</time>
      </trkpt>
      <trkpt lat="37.9728910" lon="-5.6654830">
        <ele>498.1</ele>
        <time>2022-05-22T12:09:54Z</time>
      </trkpt>
      <trkpt lat="37.9728910" lon="-5.6654830">
        <ele>498.1</ele>
        <time>2022-05-22T12:09:55Z</time>
      </trkpt>
      <trkpt lat="37.9728910" lon="-5.6654830">
        <ele>498.1</ele>
        <time>2022-05-22T12:09:56Z</time>
      </trkpt>
      <trkpt lat="37.9728910" lon="-5.6654830">
        <ele>498.1</ele>
        <time>2022-05-22T12:09:57Z</time>
      </trkpt>
      <trkpt lat="37.9728910" lon="-5.6654830">
        <ele>498.1</ele>
        <time>2022-05-22T12:09:58Z</time>
      </trkpt>
      <trkpt lat="37.9728910" lon="-5.6654830">
        <ele>498.1</ele>
        <time>2022-05-22T12:09:59Z</time>
      </trkpt>
      <trkpt lat="37.9728910" lon="-5.6654830">
        <ele>498.1</ele>
        <time>2022-05-22T12:10:00Z</time>
      </trkpt>
      <trkpt lat="37.9728910" lon="-5.6654830">
        <ele>498.1</ele>
        <time>2022-05-22T12:10:01Z</time>
      </trkpt>
      <trkpt lat="37.9728910" lon="-5.6654830">
        <ele>498.1</ele>
        <time>2022-05-22T12:10:02Z</time>
      </trkpt>
      <trkpt lat="37.9728910" lon="-5.6654830">
        <ele>498.1</ele>
        <time>2022-05-22T12:10:03Z</time>
      </trkpt>
      <trkpt lat="37.9728910" lon="-5.6654830">
        <ele>498.1</ele>
        <time>2022-05-22T12:10:04Z</time>
      </trkpt>
      <trkpt lat="37.9728910" lon="-5.6654830">
        <ele>498.1</ele>
        <time>2022-05-22T12:10:05Z</time>
      </trkpt>
      <trkpt lat="37.9728910" lon="-5.6654830">
        <ele>498.1</ele>
        <time>2022-05-22T12:10:06Z</time>
      </trkpt>
      <trkpt lat="37.9728910" lon="-5.6654830">
        <ele>498.1</ele>
        <time>2022-05-22T12:10:07Z</time>
      </trkpt>
      <trkpt lat="37.9728910" lon="-5.6654830">
        <ele>498.1</ele>
        <time>2022-05-22T12:10:08Z</time>
      </trkpt>
      <trkpt lat="37.9728910" lon="-5.6654830">
        <ele>498.1</ele>
        <time>2022-05-22T12:10:09Z</time>
      </trkpt>
      <trkpt lat="37.9728910" lon="-5.6654830">
        <ele>498.1</ele>
        <time>2022-05-22T12:10:10Z</time>
      </trkpt>
      <trkpt lat="37.9728910" lon="-5.6654830">
        <ele>498.1</ele>
        <time>2022-05-22T12:10:11Z</time>
      </trkpt>
      <trkpt lat="37.9728910" lon="-5.6654830">
        <ele>498.1</ele>
        <time>2022-05-22T12:10:12Z</time>
      </trkpt>
      <trkpt lat="37.9728910" lon="-5.6654830">
        <ele>498.1</ele>
        <time>2022-05-22T12:10:13Z</time>
      </trkpt>
      <trkpt lat="37.9728910" lon="-5.6654830">
        <ele>498.1</ele>
        <time>2022-05-22T12:10:14Z</time>
      </trkpt>
      <trkpt lat="37.9728910" lon="-5.6654830">
        <ele>498.1</ele>
        <time>2022-05-22T12:10:15Z</time>
      </trkpt>
      <trkpt lat="37.9728910" lon="-5.6654830">
        <ele>498.1</ele>
        <time>2022-05-22T12:10:16Z</time>
      </trkpt>
      <trkpt lat="37.9728910" lon="-5.6654830">
        <ele>498.1</ele>
        <time>2022-05-22T12:10:17Z</time>
      </trkpt>
      <trkpt lat="37.9728910" lon="-5.6654830">
        <ele>498.1</ele>
        <time>2022-05-22T12:10:18Z</time>
      </trkpt>
      <trkpt lat="37.9728910" lon="-5.6654830">
        <ele>498.1</ele>
        <time>2022-05-22T12:10:19Z</time>
      </trkpt>
      <trkpt lat="37.9728910" lon="-5.6654830">
        <ele>498.1</ele>
        <time>2022-05-22T12:10:20Z</time>
      </trkpt>
      <trkpt lat="37.9728910" lon="-5.6654830">
        <ele>498.1</ele>
        <time>2022-05-22T12:10:21Z</time>
      </trkpt>
      <trkpt lat="37.9728910" lon="-5.6654830">
        <ele>498.1</ele>
        <time>2022-05-22T12:10:22Z</time>
      </trkpt>
      <trkpt lat="37.9728910" lon="-5.6654830">
        <ele>498.1</ele>
        <time>2022-05-22T12:10:23Z</time>
      </trkpt>
      <trkpt lat="37.9728910" lon="-5.6654830">
        <ele>498.1</ele>
        <time>2022-05-22T12:10:24Z</time>
      </trkpt>
      <trkpt lat="37.9728910" lon="-5.6654830">
        <ele>498.1</ele>
        <time>2022-05-22T12:10:25Z</time>
      </trkpt>
      <trkpt lat="37.9728910" lon="-5.6654830">
        <ele>498.1</ele>
        <time>2022-05-22T12:10:26Z</time>
      </trkpt>
      <trkpt lat="37.9728910" lon="-5.6654830">
        <ele>498.1</ele>
        <time>2022-05-22T12:10:27Z</time>
      </trkpt>
      <trkpt lat="37.9728910" lon="-5.6654830">
        <ele>498.1</ele>
        <time>2022-05-22T12:10:28Z</time>
      </trkpt>
      <trkpt lat="37.9728910" lon="-5.6654830">
        <ele>498.1</ele>
        <time>2022-05-22T12:10:29Z</time>
      </trkpt>
      <trkpt lat="37.9728910" lon="-5.6654830">
        <ele>498.1</ele>
        <time>2022-05-22T12:10:30Z</time>
      </trkpt>
      <trkpt lat="37.9728910" lon="-5.6654830">
        <ele>498.1</ele>
        <time>2022-05-22T12:10:31Z</time>
      </trkpt>
      <trkpt lat="37.9728910" lon="-5.6654830">
        <ele>498.1</ele>
        <time>2022-05-22T12:10:32Z</time>
      </trkpt>
      <trkpt lat="37.9728910" lon="-5.6654830">
        <ele>498.1</ele>
        <time>2022-05-22T12:10:33Z</time>
      </trkpt>
      <trkpt lat="37.9728910" lon="-5.6654830">
        <ele>498.1</ele>
        <time>2022-05-22T12:10:34Z</time>
      </trkpt>
      <trkpt lat="37.9728910" lon="-5.6654830">
        <ele>498.1</ele>
        <time>2022-05-22T12:10:35Z</time>
      </trkpt>
      <trkpt lat="37.9728910" lon="-5.6654830">
        <ele>498.1</ele>
        <time>2022-05-22T12:10:36Z</time>
      </trkpt>
      <trkpt lat="37.9728910" lon="-5.6654830">
        <ele>498.1</ele>
        <time>2022-05-22T12:10:37Z</time>
      </trkpt>
      <trkpt lat="37.9728910" lon="-5.6654830">
        <ele>498.1</ele>
        <time>2022-05-22T12:10:38Z</time>
      </trkpt>
      <trkpt lat="37.9728910" lon="-5.6654830">
        <ele>498.1</ele>
        <time>2022-05-22T12:10:39Z</time>
      </trkpt>
      <trkpt lat="37.9728910" lon="-5.6654830">
        <ele>498.1</ele>
        <time>2022-05-22T12:10:40Z</time>
      </trkpt>
      <trkpt lat="37.9728910" lon="-5.6654830">
        <ele>498.1</ele>
        <time>2022-05-22T12:10:41Z</time>
      </trkpt>
      <trkpt lat="37.9728910" lon="-5.6654830">
        <ele>498.1</ele>
        <time>2022-05-22T12:10:42Z</time>
      </trkpt>
      <trkpt lat="37.9728910" lon="-5.6654830">
        <ele>498.1</ele>
        <time>2022-05-22T12:10:43Z</time>
      </trkpt>
      <trkpt lat="37.9728910" lon="-5.6654830">
        <ele>498.1</ele>
        <time>2022-05-22T12:10:44Z</time>
      </trkpt>
      <trkpt lat="37.9728910" lon="-5.6654830">
        <ele>498.1</ele>
        <time>2022-05-22T12:10:45Z</time>
      </trkpt>
      <trkpt lat="37.9728910" lon="-5.6654830">
        <ele>498.1</ele>
        <time>2022-05-22T12:10:46Z</time>
      </trkpt>
      <trkpt lat="37.9728910" lon="-5.6654830">
        <ele>498.1</ele>
        <time>2022-05-22T12:10:47Z</time>
      </trkpt>
      <trkpt lat="37.9728910" lon="-5.6654830">
        <ele>498.1</ele>
        <time>2022-05-22T12:10:48Z</time>
      </trkpt>
      <trkpt lat="37.9728910" lon="-5.6654830">
        <ele>498.1</ele>
        <time>2022-05-22T12:10:49Z</time>
      </trkpt>
      <trkpt lat="37.9728910" lon="-5.6654830">
        <ele>498.1</ele>
        <time>2022-05-22T12:10:50Z</time>
      </trkpt>
      <trkpt lat="37.9728910" lon="-5.6654830">
        <ele>498.1</ele>
        <time>2022-05-22T12:10:51Z</time>
      </trkpt>
      <trkpt lat="37.9728910" lon="-5.6654830">
        <ele>498.1</ele>
        <time>2022-05-22T12:10:52Z</time>
      </trkpt>
      <trkpt lat="37.9728910" lon="-5.6654830">
        <ele>498.1</ele>
        <time>2022-05-22T12:10:53Z</time>
      </trkpt>
      <trkpt lat="37.9728910" lon="-5.6654830">
        <ele>498.1</ele>
        <time>2022-05-22T12:10:54Z</time>
      </trkpt>
      <trkpt lat="37.9728910" lon="-5.6654830">
        <ele>498.1</ele>
        <time>2022-05-22T12:10:55Z</time>
      </trkpt>
      <trkpt lat="37.9728910" lon="-5.6654830">
        <ele>498.1</ele>
        <time>2022-05-22T12:10:56Z</time>
      </trkpt>
      <trkpt lat="37.9728910" lon="-5.6654830">
        <ele>498.1</ele>
        <time>2022-05-22T12:10:57Z</time>
      </trkpt>
      <trkpt lat="37.9728910" lon="-5.6654830">
        <ele>498.1</ele>
        <time>2022-05-22T12:10:58Z</time>
      </trkpt>
      <trkpt lat="37.9728910" lon="-5.6654830">
        <ele>498.1</ele>
        <time>2022-05-22T12:10:59Z</time>
      </trkpt>
      <trkpt lat="37.9728910" lon="-5.6654830">
        <ele>498.1</ele>
        <time>2022-05-22T12:11:00Z</time>
      </trkpt>
      <trkpt lat="37.9728910" lon="-5.6654830">
        <ele>498.1</ele>
        <time>2022-05-22T12:11:01Z</time>
      </trkpt>
      <trkpt lat="37.9728910" lon="-5.6654830">
        <ele>498.1</ele>
        <time>2022-05-22T12:11:02Z</time>
      </trkpt>
      <trkpt lat="37.9728910" lon="-5.6654830">
        <ele>498.1</ele>
        <time>2022-05-22T12:11:03Z</time>
      </trkpt>
      <trkpt lat="37.9728910" lon="-5.6654830">
        <ele>498.1</ele>
        <time>2022-05-22T12:11:04Z</time>
      </trkpt>
      <trkpt lat="37.9728910" lon="-5.6654830">
        <ele>498.1</ele>
        <time>2022-05-22T12:11:05Z</time>
      </trkpt>
      <trkpt lat="37.9728910" lon="-5.6654830">
        <ele>498.1</ele>
        <time>2022-05-22T12:11:06Z</time>
      </trkpt>
      <trkpt lat="37.9728910" lon="-5.6654830">
        <ele>498.1</ele>
        <time>2022-05-22T12:11:07Z</time>
      </trkpt>
      <trkpt lat="37.9728910" lon="-5.6654830">
        <ele>498.1</ele>
        <time>2022-05-22T12:11:08Z</time>
      </trkpt>
      <trkpt lat="37.9728910" lon="-5.6654830">
        <ele>498.1</ele>
        <time>2022-05-22T12:11:09Z</time>
      </trkpt>
      <trkpt lat="37.9728910" lon="-5.6654830">
        <ele>498.1</ele>
        <time>2022-05-22T12:11:10Z</time>
      </trkpt>
      <trkpt lat="37.9728910" lon="-5.6654830">
        <ele>498.1</ele>
        <time>2022-05-22T12:11:11Z</time>
      </trkpt>
      <trkpt lat="37.9728910" lon="-5.6654830">
        <ele>498.1</ele>
        <time>2022-05-22T12:11:12Z</time>
      </trkpt>
      <trkpt lat="37.9728910" lon="-5.6654830">
        <ele>498.1</ele>
        <time>2022-05-22T12:11:13Z</time>
      </trkpt>
      <trkpt lat="37.9728910" lon="-5.6654830">
        <ele>498.1</ele>
        <time>2022-05-22T12:11:14Z</time>
      </trkpt>
      <trkpt lat="37.9728910" lon="-5.6654830">
        <ele>498.1</ele>
        <time>2022-05-22T12:11:15Z</time>
      </trkpt>
      <trkpt lat="37.9728910" lon="-5.6654830">
        <ele>498.1</ele>
        <time>2022-05-22T12:11:16Z</time>
      </trkpt>
      <trkpt lat="37.9728910" lon="-5.6654830">
        <ele>498.1</ele>
        <time>2022-05-22T12:11:17Z</time>
      </trkpt>
      <trkpt lat="37.9728910" lon="-5.6654830">
        <ele>498.1</ele>
        <time>2022-05-22T12:11:18Z</time>
      </trkpt>
      <trkpt lat="37.9728910" lon="-5.6654830">
        <ele>498.1</ele>
        <time>2022-05-22T12:11:19Z</time>
      </trkpt>
      <trkpt lat="37.9728910" lon="-5.6654830">
        <ele>498.1</ele>
        <time>2022-05-22T12:11:20Z</time>
      </trkpt>
      <trkpt lat="37.9728910" lon="-5.6654830">
        <ele>498.1</ele>
        <time>2022-05-22T12:11:21Z</time>
      </trkpt>
      <trkpt lat="37.9728910" lon="-5.6654830">
        <ele>498.1</ele>
        <time>2022-05-22T12:11:22Z</time>
      </trkpt>
      <trkpt lat="37.9728910" lon="-5.6654830">
        <ele>498.1</ele>
        <time>2022-05-22T12:11:23Z</time>
      </trkpt>
      <trkpt lat="37.9728910" lon="-5.6654830">
        <ele>498.1</ele>
        <time>2022-05-22T12:11:24Z</time>
      </trkpt>
      <trkpt lat="37.9728910" lon="-5.6654830">
        <ele>498.1</ele>
        <time>2022-05-22T12:11:25Z</time>
      </trkpt>
      <trkpt lat="37.9728910" lon="-5.6654830">
        <ele>498.1</ele>
        <time>2022-05-22T12:11:26Z</time>
      </trkpt>
      <trkpt lat="37.9728910" lon="-5.6654830">
        <ele>498.1</ele>
        <time>2022-05-22T12:11:27Z</time>
      </trkpt>
      <trkpt lat="37.9728910" lon="-5.6654830">
        <ele>498.1</ele>
        <time>2022-05-22T12:11:28Z</time>
      </trkpt>
      <trkpt lat="37.9728910" lon="-5.6654830">
        <ele>498.1</ele>
        <time>2022-05-22T12:11:29Z</time>
      </trkpt>
      <trkpt lat="37.9728910" lon="-5.6654830">
        <ele>498.1</ele>
        <time>2022-05-22T12:11:30Z</time>
      </trkpt>
      <trkpt lat="37.9728910" lon="-5.6654830">
        <ele>498.1</ele>
        <time>2022-05-22T12:11:31Z</time>
      </trkpt>
      <trkpt lat="37.9728910" lon="-5.6654830">
        <ele>498.1</ele>
        <time>2022-05-22T12:11:32Z</time>
      </trkpt>
      <trkpt lat="37.9728910" lon="-5.6654830">
        <ele>498.1</ele>
        <time>2022-05-22T12:11:33Z</time>
      </trkpt>
      <trkpt lat="37.9728910" lon="-5.6654830">
        <ele>498.1</ele>
        <time>2022-05-22T12:11:34Z</time>
      </trkpt>
      <trkpt lat="37.9728910" lon="-5.6654830">
        <ele>498.1</ele>
        <time>2022-05-22T12:11:35Z</time>
      </trkpt>
      <trkpt lat="37.9728910" lon="-5.6654830">
        <ele>498.1</ele>
        <time>2022-05-22T12:11:36Z</time>
      </trkpt>
      <trkpt lat="37.9728910" lon="-5.6654830">
        <ele>498.1</ele>
        <time>2022-05-22T12:11:37Z</time>
      </trkpt>
      <trkpt lat="37.9728910" lon="-5.6654830">
        <ele>498.1</ele>
        <time>2022-05-22T12:11:38Z</time>
      </trkpt>
      <trkpt lat="37.9728910" lon="-5.6654830">
        <ele>498.1</ele>
        <time>2022-05-22T12:11:39Z</time>
      </trkpt>
      <trkpt lat="37.9728910" lon="-5.6654830">
        <ele>498.1</ele>
        <time>2022-05-22T12:11:40Z</time>
      </trkpt>
      <trkpt lat="37.9728910" lon="-5.6654830">
        <ele>498.1</ele>
        <time>2022-05-22T12:11:41Z</time>
      </trkpt>
      <trkpt lat="37.9728910" lon="-5.6654830">
        <ele>498.1</ele>
        <time>2022-05-22T12:11:42Z</time>
      </trkpt>
      <trkpt lat="37.9728910" lon="-5.6654830">
        <ele>498.1</ele>
        <time>2022-05-22T12:11:43Z</time>
      </trkpt>
      <trkpt lat="37.9728910" lon="-5.6654830">
        <ele>498.1</ele>
        <time>2022-05-22T12:11:44Z</time>
      </trkpt>
      <trkpt lat="37.9728910" lon="-5.6654830">
        <ele>498.1</ele>
        <time>2022-05-22T12:11:45Z</time>
      </trkpt>
      <trkpt lat="37.9728910" lon="-5.6654830">
        <ele>498.1</ele>
        <time>2022-05-22T12:11:46Z</time>
      </trkpt>
      <trkpt lat="37.9728910" lon="-5.6654830">
        <ele>498.1</ele>
        <time>2022-05-22T12:11:47Z</time>
      </trkpt>
      <trkpt lat="37.9728910" lon="-5.6654830">
        <ele>498.1</ele>
        <time>2022-05-22T12:11:48Z</time>
      </trkpt>
      <trkpt lat="37.9728910" lon="-5.6654830">
        <ele>498.1</ele>
        <time>2022-05-22T12:11:49Z</time>
      </trkpt>
      <trkpt lat="37.9728910" lon="-5.6654830">
        <ele>498.1</ele>
        <time>2022-05-22T12:11:50Z</time>
      </trkpt>
      <trkpt lat="37.9728910" lon="-5.6654830">
        <ele>498.1</ele>
        <time>2022-05-22T12:11:51Z</time>
      </trkpt>
      <trkpt lat="37.9728910" lon="-5.6654830">
        <ele>498.1</ele>
        <time>2022-05-22T12:11:52Z</time>
      </trkpt>
      <trkpt lat="37.9728910" lon="-5.6654830">
        <ele>498.1</ele>
        <time>2022-05-22T12:11:53Z</time>
      </trkpt>
      <trkpt lat="37.9728910" lon="-5.6654830">
        <ele>498.1</ele>
        <time>2022-05-22T12:11:54Z</time>
      </trkpt>
      <trkpt lat="37.9728910" lon="-5.6654830">
        <ele>498.1</ele>
        <time>2022-05-22T12:11:55Z</time>
      </trkpt>
      <trkpt lat="37.9728910" lon="-5.6654830">
        <ele>498.1</ele>
        <time>2022-05-22T12:11:56Z</time>
      </trkpt>
      <trkpt lat="37.9728910" lon="-5.6654830">
        <ele>498.1</ele>
        <time>2022-05-22T12:11:57Z</time>
      </trkpt>
      <trkpt lat="37.9728910" lon="-5.6654830">
        <ele>498.1</ele>
        <time>2022-05-22T12:11:58Z</time>
      </trkpt>
      <trkpt lat="37.9728910" lon="-5.6654830">
        <ele>498.1</ele>
        <time>2022-05-22T12:11:59Z</time>
      </trkpt>
      <trkpt lat="37.9728910" lon="-5.6654830">
        <ele>498.1</ele>
        <time>2022-05-22T12:12:00Z</time>
      </trkpt>
      <trkpt lat="37.9728910" lon="-5.6654830">
        <ele>498.1</ele>
        <time>2022-05-22T12:12:01Z</time>
      </trkpt>
      <trkpt lat="37.9728910" lon="-5.6654830">
        <ele>498.1</ele>
        <time>2022-05-22T12:12:02Z</time>
      </trkpt>
      <trkpt lat="37.9728910" lon="-5.6654830">
        <ele>498.1</ele>
        <time>2022-05-22T12:12:03Z</time>
      </trkpt>
      <trkpt lat="37.9728910" lon="-5.6654830">
        <ele>498.1</ele>
        <time>2022-05-22T12:12:04Z</time>
      </trkpt>
      <trkpt lat="37.9728910" lon="-5.6654830">
        <ele>498.1</ele>
        <time>2022-05-22T12:12:05Z</time>
      </trkpt>
      <trkpt lat="37.9728910" lon="-5.6654830">
        <ele>498.1</ele>
        <time>2022-05-22T12:12:06Z</time>
      </trkpt>
      <trkpt lat="37.9728910" lon="-5.6654830">
        <ele>498.1</ele>
        <time>2022-05-22T12:12:07Z</time>
      </trkpt>
      <trkpt lat="37.9728910" lon="-5.6654830">
        <ele>498.1</ele>
        <time>2022-05-22T12:12:08Z</time>
      </trkpt>
      <trkpt lat="37.9728910" lon="-5.6654830">
        <ele>498.1</ele>
        <time>2022-05-22T12:12:09Z</time>
      </trkpt>
      <trkpt lat="37.9728910" lon="-5.6654830">
        <ele>498.1</ele>
        <time>2022-05-22T12:12:10Z</time>
      </trkpt>
      <trkpt lat="37.9728910" lon="-5.6654830">
        <ele>498.1</ele>
        <time>2022-05-22T12:12:11Z</time>
      </trkpt>
      <trkpt lat="37.9728910" lon="-5.6654830">
        <ele>498.1</ele>
        <time>2022-05-22T12:12:12Z</time>
      </trkpt>
      <trkpt lat="37.9728910" lon="-5.6654830">
        <ele>498.1</ele>
        <time>2022-05-22T12:12:13Z</time>
      </trkpt>
      <trkpt lat="37.9728910" lon="-5.6654830">
        <ele>498.1</ele>
        <time>2022-05-22T12:12:14Z</time>
      </trkpt>
      <trkpt lat="37.9728910" lon="-5.6654830">
        <ele>498.1</ele>
        <time>2022-05-22T12:12:15Z</time>
      </trkpt>
      <trkpt lat="37.9728910" lon="-5.6654830">
        <ele>498.1</ele>
        <time>2022-05-22T12:12:16Z</time>
      </trkpt>
      <trkpt lat="37.9728910" lon="-5.6654830">
        <ele>498.1</ele>
        <time>2022-05-22T12:12:17Z</time>
      </trkpt>
      <trkpt lat="37.9728910" lon="-5.6654830">
        <ele>498.1</ele>
        <time>2022-05-22T12:12:18Z</time>
      </trkpt>
      <trkpt lat="37.9728910" lon="-5.6654830">
        <ele>498.1</ele>
        <time>2022-05-22T12:12:19Z</time>
      </trkpt>
      <trkpt lat="37.9728910" lon="-5.6654830">
        <ele>498.1</ele>
        <time>2022-05-22T12:12:20Z</time>
      </trkpt>
      <trkpt lat="37.9728910" lon="-5.6654830">
        <ele>498.1</ele>
        <time>2022-05-22T12:12:21Z</time>
      </trkpt>
      <trkpt lat="37.9728910" lon="-5.6654830">
        <ele>498.1</ele>
        <time>2022-05-22T12:12:22Z</time>
      </trkpt>
      <trkpt lat="37.9728910" lon="-5.6654830">
        <ele>498.1</ele>
        <time>2022-05-22T12:12:23Z</time>
      </trkpt>
      <trkpt lat="37.9728910" lon="-5.6654830">
        <ele>498.1</ele>
        <time>2022-05-22T12:12:24Z</time>
      </trkpt>
      <trkpt lat="37.9728910" lon="-5.6654830">
        <ele>498.1</ele>
        <time>2022-05-22T12:12:25Z</time>
      </trkpt>
      <trkpt lat="37.9728910" lon="-5.6654830">
        <ele>498.1</ele>
        <time>2022-05-22T12:12:26Z</time>
      </trkpt>
      <trkpt lat="37.9728890" lon="-5.6654800">
        <ele>498.1</ele>
        <time>2022-05-22T12:12:27Z</time>
      </trkpt>
      <trkpt lat="37.9728860" lon="-5.6654750">
        <ele>498.1</ele>
        <time>2022-05-22T12:12:28Z</time>
      </trkpt>
      <trkpt lat="37.9728850" lon="-5.6654730">
        <ele>498.1</ele>
        <time>2022-05-22T12:12:29Z</time>
      </trkpt>
      <trkpt lat="37.9728840" lon="-5.6654720">
        <ele>498.1</ele>
        <time>2022-05-22T12:12:30Z</time>
      </trkpt>
      <trkpt lat="37.9728830" lon="-5.6654720">
        <ele>498.1</ele>
        <time>2022-05-22T12:12:31Z</time>
      </trkpt>
      <trkpt lat="37.9728810" lon="-5.6654630">
        <ele>498.9</ele>
        <time>2022-05-22T12:12:32Z</time>
      </trkpt>
      <trkpt lat="37.9728790" lon="-5.6654570">
        <ele>498.9</ele>
        <time>2022-05-22T12:12:33Z</time>
      </trkpt>
      <trkpt lat="37.9728800" lon="-5.6654560">
        <ele>498.9</ele>
        <time>2022-05-22T12:12:34Z</time>
      </trkpt>
      <trkpt lat="37.9728800" lon="-5.6654550">
        <ele>498.9</ele>
        <time>2022-05-22T12:12:35Z</time>
      </trkpt>
      <trkpt lat="37.9728810" lon="-5.6654560">
        <ele>498.9</ele>
        <time>2022-05-22T12:12:36Z</time>
      </trkpt>
      <trkpt lat="37.9728790" lon="-5.6654490">
        <ele>498.9</ele>
        <time>2022-05-22T12:12:37Z</time>
      </trkpt>
      <trkpt lat="37.9728780" lon="-5.6654440">
        <ele>498.9</ele>
        <time>2022-05-22T12:12:38Z</time>
      </trkpt>
      <trkpt lat="37.9728770" lon="-5.6654410">
        <ele>498.9</ele>
        <time>2022-05-22T12:12:39Z</time>
      </trkpt>
      <trkpt lat="37.9728770" lon="-5.6654410">
        <ele>498.9</ele>
        <time>2022-05-22T12:12:40Z</time>
      </trkpt>
      <trkpt lat="37.9728780" lon="-5.6654430">
        <ele>498.9</ele>
        <time>2022-05-22T12:12:41Z</time>
      </trkpt>
      <trkpt lat="37.9728780" lon="-5.6654460">
        <ele>498.9</ele>
        <time>2022-05-22T12:12:42Z</time>
      </trkpt>
      <trkpt lat="37.9728790" lon="-5.6654490">
        <ele>498.9</ele>
        <time>2022-05-22T12:12:43Z</time>
      </trkpt>
      <trkpt lat="37.9728800" lon="-5.6654520">
        <ele>498.9</ele>
        <time>2022-05-22T12:12:44Z</time>
      </trkpt>
      <trkpt lat="37.9728810" lon="-5.6654540">
        <ele>498.9</ele>
        <time>2022-05-22T12:12:45Z</time>
      </trkpt>
      <trkpt lat="37.9728810" lon="-5.6654570">
        <ele>498.9</ele>
        <time>2022-05-22T12:12:46Z</time>
      </trkpt>
      <trkpt lat="37.9728800" lon="-5.6654540">
        <ele>498.9</ele>
        <time>2022-05-22T12:12:47Z</time>
      </trkpt>
      <trkpt lat="37.9728850" lon="-5.6654690">
        <ele>498.9</ele>
        <time>2022-05-22T12:12:48Z</time>
      </trkpt>
      <trkpt lat="37.9728880" lon="-5.6654780">
        <ele>498.1</ele>
        <time>2022-05-22T12:12:49Z</time>
      </trkpt>
      <trkpt lat="37.9728900" lon="-5.6654820">
        <ele>498.1</ele>
        <time>2022-05-22T12:12:50Z</time>
      </trkpt>
      <trkpt lat="37.9728910" lon="-5.6654840">
        <ele>498.1</ele>
        <time>2022-05-22T12:12:51Z</time>
      </trkpt>
      <trkpt lat="37.9728910" lon="-5.6654850">
        <ele>498.1</ele>
        <time>2022-05-22T12:12:52Z</time>
      </trkpt>
      <trkpt lat="37.9728910" lon="-5.6654850">
        <ele>498.1</ele>
        <time>2022-05-22T12:12:53Z</time>
      </trkpt>
      <trkpt lat="37.9728910" lon="-5.6654840">
        <ele>498.1</ele>
        <time>2022-05-22T12:12:54Z</time>
      </trkpt>
      <trkpt lat="37.9728910" lon="-5.6654840">
        <ele>498.1</ele>
        <time>2022-05-22T12:12:55Z</time>
      </trkpt>
      <trkpt lat="37.9728910" lon="-5.6654840">
        <ele>498.1</ele>
        <time>2022-05-22T12:12:56Z</time>
      </trkpt>
      <trkpt lat="37.9728910" lon="-5.6654840">
        <ele>498.1</ele>
        <time>2022-05-22T12:12:57Z</time>
      </trkpt>
      <trkpt lat="37.9728910" lon="-5.6654830">
        <ele>498.1</ele>
        <time>2022-05-22T12:12:58Z</time>
      </trkpt>
      <trkpt lat="37.9728910" lon="-5.6654830">
        <ele>498.1</ele>
        <time>2022-05-22T12:12:59Z</time>
      </trkpt>
      <trkpt lat="37.9728910" lon="-5.6654830">
        <ele>498.1</ele>
        <time>2022-05-22T12:13:00Z</time>
      </trkpt>
      <trkpt lat="37.9728910" lon="-5.6654830">
        <ele>498.1</ele>
        <time>2022-05-22T12:13:01Z</time>
      </trkpt>
      <trkpt lat="37.9728910" lon="-5.6654830">
        <ele>498.1</ele>
        <time>2022-05-22T12:13:02Z</time>
      </trkpt>
      <trkpt lat="37.9728910" lon="-5.6654830">
        <ele>498.1</ele>
        <time>2022-05-22T12:13:03Z</time>
      </trkpt>
      <trkpt lat="37.9728910" lon="-5.6654830">
        <ele>498.1</ele>
        <time>2022-05-22T12:13:04Z</time>
      </trkpt>
      <trkpt lat="37.9728910" lon="-5.6654830">
        <ele>498.1</ele>
        <time>2022-05-22T12:13:05Z</time>
      </trkpt>
      <trkpt lat="37.9728910" lon="-5.6654830">
        <ele>498.1</ele>
        <time>2022-05-22T12:13:06Z</time>
      </trkpt>
      <trkpt lat="37.9728910" lon="-5.6654830">
        <ele>498.1</ele>
        <time>2022-05-22T12:13:07Z</time>
      </trkpt>
      <trkpt lat="37.9728910" lon="-5.6654830">
        <ele>498.1</ele>
        <time>2022-05-22T12:13:08Z</time>
      </trkpt>
      <trkpt lat="37.9728910" lon="-5.6654830">
        <ele>498.1</ele>
        <time>2022-05-22T12:13:09Z</time>
      </trkpt>
      <trkpt lat="37.9728910" lon="-5.6654830">
        <ele>498.1</ele>
        <time>2022-05-22T12:13:10Z</time>
      </trkpt>
      <trkpt lat="37.9728910" lon="-5.6654830">
        <ele>498.1</ele>
        <time>2022-05-22T12:13:11Z</time>
      </trkpt>
      <trkpt lat="37.9728910" lon="-5.6654830">
        <ele>498.1</ele>
        <time>2022-05-22T12:13:12Z</time>
      </trkpt>
      <trkpt lat="37.9728910" lon="-5.6654830">
        <ele>498.1</ele>
        <time>2022-05-22T12:13:13Z</time>
      </trkpt>
      <trkpt lat="37.9728910" lon="-5.6654830">
        <ele>498.1</ele>
        <time>2022-05-22T12:13:14Z</time>
      </trkpt>
      <trkpt lat="37.9728910" lon="-5.6654830">
        <ele>498.1</ele>
        <time>2022-05-22T12:13:15Z</time>
      </trkpt>
      <trkpt lat="37.9728910" lon="-5.6654830">
        <ele>498.1</ele>
        <time>2022-05-22T12:13:16Z</time>
      </trkpt>
      <trkpt lat="37.9728910" lon="-5.6654830">
        <ele>498.1</ele>
        <time>2022-05-22T12:13:17Z</time>
      </trkpt>
      <trkpt lat="37.9728910" lon="-5.6654830">
        <ele>498.1</ele>
        <time>2022-05-22T12:13:18Z</time>
      </trkpt>
      <trkpt lat="37.9728910" lon="-5.6654830">
        <ele>498.1</ele>
        <time>2022-05-22T12:13:19Z</time>
      </trkpt>
      <trkpt lat="37.9728910" lon="-5.6654830">
        <ele>498.1</ele>
        <time>2022-05-22T12:13:20Z</time>
      </trkpt>
      <trkpt lat="37.9728910" lon="-5.6654830">
        <ele>498.1</ele>
        <time>2022-05-22T12:13:21Z</time>
      </trkpt>
      <trkpt lat="37.9728910" lon="-5.6654830">
        <ele>498.1</ele>
        <time>2022-05-22T12:13:22Z</time>
      </trkpt>
      <trkpt lat="37.9728910" lon="-5.6654830">
        <ele>498.1</ele>
        <time>2022-05-22T12:13:23Z</time>
      </trkpt>
      <trkpt lat="37.9728910" lon="-5.6654830">
        <ele>498.1</ele>
        <time>2022-05-22T12:13:24Z</time>
      </trkpt>
      <trkpt lat="37.9728910" lon="-5.6654830">
        <ele>498.1</ele>
        <time>2022-05-22T12:13:25Z</time>
      </trkpt>
      <trkpt lat="37.9728910" lon="-5.6654830">
        <ele>498.1</ele>
        <time>2022-05-22T12:13:26Z</time>
      </trkpt>
      <trkpt lat="37.9728910" lon="-5.6654830">
        <ele>498.1</ele>
        <time>2022-05-22T12:13:27Z</time>
      </trkpt>
      <trkpt lat="37.9728910" lon="-5.6654830">
        <ele>498.1</ele>
        <time>2022-05-22T12:13:28Z</time>
      </trkpt>
      <trkpt lat="37.9728910" lon="-5.6654830">
        <ele>498.1</ele>
        <time>2022-05-22T12:13:29Z</time>
      </trkpt>
      <trkpt lat="37.9728910" lon="-5.6654830">
        <ele>498.1</ele>
        <time>2022-05-22T12:13:30Z</time>
      </trkpt>
      <trkpt lat="37.9728910" lon="-5.6654830">
        <ele>498.1</ele>
        <time>2022-05-22T12:13:31Z</time>
      </trkpt>
      <trkpt lat="37.9728910" lon="-5.6654830">
        <ele>498.1</ele>
        <time>2022-05-22T12:13:32Z</time>
      </trkpt>
      <trkpt lat="37.9728910" lon="-5.6654830">
        <ele>498.1</ele>
        <time>2022-05-22T12:13:33Z</time>
      </trkpt>
      <trkpt lat="37.9728910" lon="-5.6654830">
        <ele>498.1</ele>
        <time>2022-05-22T12:13:34Z</time>
      </trkpt>
      <trkpt lat="37.9728910" lon="-5.6654830">
        <ele>498.1</ele>
        <time>2022-05-22T12:13:35Z</time>
      </trkpt>
      <trkpt lat="37.9728910" lon="-5.6654830">
        <ele>498.1</ele>
        <time>2022-05-22T12:13:36Z</time>
      </trkpt>
      <trkpt lat="37.9728910" lon="-5.6654830">
        <ele>498.1</ele>
        <time>2022-05-22T12:13:37Z</time>
      </trkpt>
      <trkpt lat="37.9728910" lon="-5.6654830">
        <ele>498.1</ele>
        <time>2022-05-22T12:13:38Z</time>
      </trkpt>
      <trkpt lat="37.9728910" lon="-5.6654830">
        <ele>498.1</ele>
        <time>2022-05-22T12:13:39Z</time>
      </trkpt>
      <trkpt lat="37.9728910" lon="-5.6654830">
        <ele>498.1</ele>
        <time>2022-05-22T12:13:40Z</time>
      </trkpt>
      <trkpt lat="37.9728910" lon="-5.6654830">
        <ele>498.1</ele>
        <time>2022-05-22T12:13:41Z</time>
      </trkpt>
      <trkpt lat="37.9728910" lon="-5.6654830">
        <ele>498.1</ele>
        <time>2022-05-22T12:13:42Z</time>
      </trkpt>
      <trkpt lat="37.9728910" lon="-5.6654830">
        <ele>498.1</ele>
        <time>2022-05-22T12:13:43Z</time>
      </trkpt>
      <trkpt lat="37.9728910" lon="-5.6654830">
        <ele>498.1</ele>
        <time>2022-05-22T12:13:44Z</time>
      </trkpt>
      <trkpt lat="37.9728910" lon="-5.6654830">
        <ele>498.1</ele>
        <time>2022-05-22T12:13:45Z</time>
      </trkpt>
      <trkpt lat="37.9728910" lon="-5.6654830">
        <ele>498.1</ele>
        <time>2022-05-22T12:13:46Z</time>
      </trkpt>
      <trkpt lat="37.9728910" lon="-5.6654830">
        <ele>498.1</ele>
        <time>2022-05-22T12:13:47Z</time>
      </trkpt>
      <trkpt lat="37.9728910" lon="-5.6654830">
        <ele>498.1</ele>
        <time>2022-05-22T12:13:48Z</time>
      </trkpt>
      <trkpt lat="37.9728910" lon="-5.6654830">
        <ele>498.1</ele>
        <time>2022-05-22T12:13:49Z</time>
      </trkpt>
      <trkpt lat="37.9728910" lon="-5.6654830">
        <ele>498.1</ele>
        <time>2022-05-22T12:13:50Z</time>
      </trkpt>
      <trkpt lat="37.9728910" lon="-5.6654830">
        <ele>498.1</ele>
        <time>2022-05-22T12:13:51Z</time>
      </trkpt>
      <trkpt lat="37.9728910" lon="-5.6654830">
        <ele>498.1</ele>
        <time>2022-05-22T12:13:52Z</time>
      </trkpt>
      <trkpt lat="37.9728910" lon="-5.6654830">
        <ele>498.1</ele>
        <time>2022-05-22T12:13:53Z</time>
      </trkpt>
      <trkpt lat="37.9728910" lon="-5.6654830">
        <ele>498.1</ele>
        <time>2022-05-22T12:13:54Z</time>
      </trkpt>
      <trkpt lat="37.9728910" lon="-5.6654830">
        <ele>498.1</ele>
        <time>2022-05-22T12:13:55Z</time>
      </trkpt>
      <trkpt lat="37.9728910" lon="-5.6654830">
        <ele>498.1</ele>
        <time>2022-05-22T12:13:56Z</time>
      </trkpt>
      <trkpt lat="37.9728910" lon="-5.6654830">
        <ele>498.1</ele>
        <time>2022-05-22T12:13:57Z</time>
      </trkpt>
      <trkpt lat="37.9728910" lon="-5.6654830">
        <ele>498.1</ele>
        <time>2022-05-22T12:13:58Z</time>
      </trkpt>
      <trkpt lat="37.9728910" lon="-5.6654830">
        <ele>498.1</ele>
        <time>2022-05-22T12:13:59Z</time>
      </trkpt>
      <trkpt lat="37.9728910" lon="-5.6654830">
        <ele>498.1</ele>
        <time>2022-05-22T12:14:00Z</time>
      </trkpt>
      <trkpt lat="37.9728910" lon="-5.6654830">
        <ele>498.1</ele>
        <time>2022-05-22T12:14:01Z</time>
      </trkpt>
      <trkpt lat="37.9728910" lon="-5.6654830">
        <ele>498.1</ele>
        <time>2022-05-22T12:14:02Z</time>
      </trkpt>
      <trkpt lat="37.9728910" lon="-5.6654830">
        <ele>498.1</ele>
        <time>2022-05-22T12:14:03Z</time>
      </trkpt>
      <trkpt lat="37.9728910" lon="-5.6654830">
        <ele>498.1</ele>
        <time>2022-05-22T12:14:04Z</time>
      </trkpt>
      <trkpt lat="37.9728910" lon="-5.6654830">
        <ele>498.1</ele>
        <time>2022-05-22T12:14:05Z</time>
      </trkpt>
      <trkpt lat="37.9728910" lon="-5.6654830">
        <ele>498.1</ele>
        <time>2022-05-22T12:14:06Z</time>
      </trkpt>
      <trkpt lat="37.9728910" lon="-5.6654830">
        <ele>498.1</ele>
        <time>2022-05-22T12:14:07Z</time>
      </trkpt>
      <trkpt lat="37.9728910" lon="-5.6654830">
        <ele>498.1</ele>
        <time>2022-05-22T12:14:08Z</time>
      </trkpt>
      <trkpt lat="37.9728910" lon="-5.6654830">
        <ele>498.1</ele>
        <time>2022-05-22T12:14:09Z</time>
      </trkpt>
      <trkpt lat="37.9728910" lon="-5.6654830">
        <ele>498.1</ele>
        <time>2022-05-22T12:14:10Z</time>
      </trkpt>
      <trkpt lat="37.9728910" lon="-5.6654830">
        <ele>498.1</ele>
        <time>2022-05-22T12:14:11Z</time>
      </trkpt>
      <trkpt lat="37.9728910" lon="-5.6654830">
        <ele>498.1</ele>
        <time>2022-05-22T12:14:12Z</time>
      </trkpt>
      <trkpt lat="37.9728910" lon="-5.6654830">
        <ele>498.1</ele>
        <time>2022-05-22T12:14:13Z</time>
      </trkpt>
      <trkpt lat="37.9728910" lon="-5.6654830">
        <ele>498.1</ele>
        <time>2022-05-22T12:14:14Z</time>
      </trkpt>
      <trkpt lat="37.9728910" lon="-5.6654830">
        <ele>498.1</ele>
        <time>2022-05-22T12:14:15Z</time>
      </trkpt>
      <trkpt lat="37.9728910" lon="-5.6654830">
        <ele>498.1</ele>
        <time>2022-05-22T12:14:16Z</time>
      </trkpt>
      <trkpt lat="37.9728910" lon="-5.6654830">
        <ele>498.1</ele>
        <time>2022-05-22T12:14:17Z</time>
      </trkpt>
      <trkpt lat="37.9728910" lon="-5.6654830">
        <ele>498.1</ele>
        <time>2022-05-22T12:14:18Z</time>
      </trkpt>
      <trkpt lat="37.9728910" lon="-5.6654830">
        <ele>498.1</ele>
        <time>2022-05-22T12:14:19Z</time>
      </trkpt>
      <trkpt lat="37.9728910" lon="-5.6654830">
        <ele>498.1</ele>
        <time>2022-05-22T12:14:20Z</time>
      </trkpt>
      <trkpt lat="37.9728910" lon="-5.6654830">
        <ele>498.1</ele>
        <time>2022-05-22T12:14:21Z</time>
      </trkpt>
      <trkpt lat="37.9728910" lon="-5.6654830">
        <ele>498.1</ele>
        <time>2022-05-22T12:14:22Z</time>
      </trkpt>
      <trkpt lat="37.9728910" lon="-5.6654830">
        <ele>498.1</ele>
        <time>2022-05-22T12:14:23Z</time>
      </trkpt>
      <trkpt lat="37.9728910" lon="-5.6654830">
        <ele>498.1</ele>
        <time>2022-05-22T12:14:24Z</time>
      </trkpt>
      <trkpt lat="37.9728910" lon="-5.6654830">
        <ele>498.1</ele>
        <time>2022-05-22T12:14:25Z</time>
      </trkpt>
      <trkpt lat="37.9728910" lon="-5.6654830">
        <ele>498.1</ele>
        <time>2022-05-22T12:14:26Z</time>
      </trkpt>
      <trkpt lat="37.9728910" lon="-5.6654830">
        <ele>498.1</ele>
        <time>2022-05-22T12:14:27Z</time>
      </trkpt>
      <trkpt lat="37.9728910" lon="-5.6654830">
        <ele>498.1</ele>
        <time>2022-05-22T12:14:28Z</time>
      </trkpt>
      <trkpt lat="37.9728910" lon="-5.6654830">
        <ele>498.1</ele>
        <time>2022-05-22T12:14:29Z</time>
      </trkpt>
      <trkpt lat="37.9728910" lon="-5.6654830">
        <ele>498.1</ele>
        <time>2022-05-22T12:14:30Z</time>
      </trkpt>
      <trkpt lat="37.9728910" lon="-5.6654830">
        <ele>498.1</ele>
        <time>2022-05-22T12:14:31Z</time>
      </trkpt>
      <trkpt lat="37.9728910" lon="-5.6654830">
        <ele>498.1</ele>
        <time>2022-05-22T12:14:32Z</time>
      </trkpt>
      <trkpt lat="37.9728910" lon="-5.6654830">
        <ele>498.1</ele>
        <time>2022-05-22T12:14:33Z</time>
      </trkpt>
      <trkpt lat="37.9728910" lon="-5.6654830">
        <ele>498.1</ele>
        <time>2022-05-22T12:14:34Z</time>
      </trkpt>
      <trkpt lat="37.9728910" lon="-5.6654830">
        <ele>498.1</ele>
        <time>2022-05-22T12:14:35Z</time>
      </trkpt>
      <trkpt lat="37.9728910" lon="-5.6654830">
        <ele>498.1</ele>
        <time>2022-05-22T12:14:36Z</time>
      </trkpt>
      <trkpt lat="37.9728910" lon="-5.6654830">
        <ele>498.1</ele>
        <time>2022-05-22T12:14:37Z</time>
      </trkpt>
      <trkpt lat="37.9728910" lon="-5.6654830">
        <ele>498.1</ele>
        <time>2022-05-22T12:14:38Z</time>
      </trkpt>
      <trkpt lat="37.9728910" lon="-5.6654830">
        <ele>498.1</ele>
        <time>2022-05-22T12:14:39Z</time>
      </trkpt>
      <trkpt lat="37.9728910" lon="-5.6654830">
        <ele>498.1</ele>
        <time>2022-05-22T12:14:40Z</time>
      </trkpt>
      <trkpt lat="37.9728910" lon="-5.6654830">
        <ele>498.1</ele>
        <time>2022-05-22T12:14:41Z</time>
      </trkpt>
      <trkpt lat="37.9728910" lon="-5.6654830">
        <ele>498.1</ele>
        <time>2022-05-22T12:14:42Z</time>
      </trkpt>
      <trkpt lat="37.9728910" lon="-5.6654830">
        <ele>498.1</ele>
        <time>2022-05-22T12:14:43Z</time>
      </trkpt>
      <trkpt lat="37.9728910" lon="-5.6654830">
        <ele>498.1</ele>
        <time>2022-05-22T12:14:44Z</time>
      </trkpt>
      <trkpt lat="37.9728910" lon="-5.6654830">
        <ele>498.1</ele>
        <time>2022-05-22T12:14:45Z</time>
      </trkpt>
      <trkpt lat="37.9728910" lon="-5.6654830">
        <ele>498.1</ele>
        <time>2022-05-22T12:14:46Z</time>
      </trkpt>
      <trkpt lat="37.9728910" lon="-5.6654830">
        <ele>498.1</ele>
        <time>2022-05-22T12:14:47Z</time>
      </trkpt>
      <trkpt lat="37.9728910" lon="-5.6654830">
        <ele>498.1</ele>
        <time>2022-05-22T12:14:48Z</time>
      </trkpt>
      <trkpt lat="37.9728910" lon="-5.6654830">
        <ele>498.1</ele>
        <time>2022-05-22T12:14:49Z</time>
      </trkpt>
      <trkpt lat="37.9728910" lon="-5.6654830">
        <ele>498.1</ele>
        <time>2022-05-22T12:14:50Z</time>
      </trkpt>
      <trkpt lat="37.9728910" lon="-5.6654830">
        <ele>498.1</ele>
        <time>2022-05-22T12:14:51Z</time>
      </trkpt>
      <trkpt lat="37.9728910" lon="-5.6654830">
        <ele>498.1</ele>
        <time>2022-05-22T12:14:52Z</time>
      </trkpt>
      <trkpt lat="37.9728910" lon="-5.6654830">
        <ele>498.1</ele>
        <time>2022-05-22T12:14:53Z</time>
      </trkpt>
      <trkpt lat="37.9728910" lon="-5.6654830">
        <ele>498.1</ele>
        <time>2022-05-22T12:14:54Z</time>
      </trkpt>
      <trkpt lat="37.9728910" lon="-5.6654830">
        <ele>498.1</ele>
        <time>2022-05-22T12:14:55Z</time>
      </trkpt>
      <trkpt lat="37.9728910" lon="-5.6654830">
        <ele>498.1</ele>
        <time>2022-05-22T12:14:56Z</time>
      </trkpt>
      <trkpt lat="37.9729550" lon="-5.6653820">
        <ele>512.0</ele>
        <time>2022-05-22T13:52:06Z</time>
      </trkpt>
      <trkpt lat="37.9729590" lon="-5.6653760">
        <ele>512.0</ele>
        <time>2022-05-22T13:52:07Z</time>
      </trkpt>
      <trkpt lat="37.9729620" lon="-5.6653700">
        <ele>512.0</ele>
        <time>2022-05-22T13:52:11Z</time>
      </trkpt>
      <trkpt lat="37.9729650" lon="-5.6653640">
        <ele>512.0</ele>
        <time>2022-05-22T13:52:12Z</time>
      </trkpt>
      <trkpt lat="37.9729690" lon="-5.6653580">
        <ele>512.1</ele>
        <time>2022-05-22T13:52:13Z</time>
      </trkpt>
      <trkpt lat="37.9729720" lon="-5.6653520">
        <ele>512.1</ele>
        <time>2022-05-22T13:52:14Z</time>
      </trkpt>
      <trkpt lat="37.9729750" lon="-5.6653460">
        <ele>512.1</ele>
        <time>2022-05-22T13:52:15Z</time>
      </trkpt>
      <trkpt lat="37.9729790" lon="-5.6653400">
        <ele>512.1</ele>
        <time>2022-05-22T13:52:16Z</time>
      </trkpt>
      <trkpt lat="37.9729840" lon="-5.6653230">
        <ele>512.2</ele>
        <time>2022-05-22T13:52:17Z</time>
      </trkpt>
      <trkpt lat="37.9729880" lon="-5.6652960">
        <ele>512.2</ele>
        <time>2022-05-22T13:52:18Z</time>
      </trkpt>
      <trkpt lat="37.9729870" lon="-5.6652880">
        <ele>512.3</ele>
        <time>2022-05-22T13:52:19Z</time>
      </trkpt>
      <trkpt lat="37.9729840" lon="-5.6652790">
        <ele>512.3</ele>
        <time>2022-05-22T13:52:20Z</time>
      </trkpt>
      <trkpt lat="37.9729830" lon="-5.6652760">
        <ele>512.3</ele>
        <time>2022-05-22T13:52:21Z</time>
      </trkpt>
      <trkpt lat="37.9729810" lon="-5.6652770">
        <ele>512.3</ele>
        <time>2022-05-22T13:52:22Z</time>
      </trkpt>
      <trkpt lat="37.9729820" lon="-5.6652740">
        <ele>512.3</ele>
        <time>2022-05-22T13:52:23Z</time>
      </trkpt>
      <trkpt lat="37.9729840" lon="-5.6652670">
        <ele>512.3</ele>
        <time>2022-05-22T13:52:24Z</time>
      </trkpt>
      <trkpt lat="37.9729870" lon="-5.6652590">
        <ele>512.4</ele>
        <time>2022-05-22T13:52:25Z</time>
      </trkpt>
      <trkpt lat="37.9729380" lon="-5.6653080">
        <ele>512.6</ele>
        <time>2022-05-22T13:52:27Z</time>
      </trkpt>
      <trkpt lat="37.9729290" lon="-5.6653180">
        <ele>512.6</ele>
        <time>2022-05-22T13:52:28Z</time>
      </trkpt>
      <trkpt lat="37.9729230" lon="-5.6653150">
        <ele>512.6</ele>
        <time>2022-05-22T13:52:29Z</time>
      </trkpt>
      <trkpt lat="37.9729210" lon="-5.6653060">
        <ele>512.7</ele>
        <time>2022-05-22T13:52:30Z</time>
      </trkpt>
      <trkpt lat="37.9729210" lon="-5.6652920">
        <ele>512.7</ele>
        <time>2022-05-22T13:52:32Z</time>
      </trkpt>
      <trkpt lat="37.9729200" lon="-5.6652810">
        <ele>512.7</ele>
        <time>2022-05-22T13:52:33Z</time>
      </trkpt>
      <trkpt lat="37.9729210" lon="-5.6652680">
        <ele>512.8</ele>
        <time>2022-05-22T13:52:34Z</time>
      </trkpt>
      <trkpt lat="37.9729230" lon="-5.6652590">
        <ele>512.8</ele>
        <time>2022-05-22T13:52:35Z</time>
      </trkpt>
      <trkpt lat="37.9729280" lon="-5.6652480">
        <ele>512.8</ele>
        <time>2022-05-22T13:52:36Z</time>
      </trkpt>
      <trkpt lat="37.9729460" lon="-5.6652320">
        <ele>512.9</ele>
        <time>2022-05-22T13:52:37Z</time>
      </trkpt>
      <trkpt lat="37.9729540" lon="-5.6652260">
        <ele>513.0</ele>
        <time>2022-05-22T13:52:38Z</time>
      </trkpt>
      <trkpt lat="37.9729620" lon="-5.6652200">
        <ele>513.0</ele>
        <time>2022-05-22T13:52:39Z</time>
      </trkpt>
      <trkpt lat="37.9729750" lon="-5.6652130">
        <ele>513.0</ele>
        <time>2022-05-22T13:52:41Z</time>
      </trkpt>
      <trkpt lat="37.9729910" lon="-5.6652090">
        <ele>513.1</ele>
        <time>2022-05-22T13:52:42Z</time>
      </trkpt>
      <trkpt lat="37.9730060" lon="-5.6652070">
        <ele>513.2</ele>
        <time>2022-05-22T13:52:43Z</time>
      </trkpt>
      <trkpt lat="37.9730180" lon="-5.6652090">
        <ele>513.2</ele>
        <time>2022-05-22T13:52:44Z</time>
      </trkpt>
      <trkpt lat="37.9730260" lon="-5.6652080">
        <ele>513.2</ele>
        <time>2022-05-22T13:52:45Z</time>
      </trkpt>
      <trkpt lat="37.9730270" lon="-5.6651980">
        <ele>513.3</ele>
        <time>2022-05-22T13:52:46Z</time>
      </trkpt>
      <trkpt lat="37.9730280" lon="-5.6651910">
        <ele>513.3</ele>
        <time>2022-05-22T13:52:47Z</time>
      </trkpt>
      <trkpt lat="37.9730310" lon="-5.6651840">
        <ele>513.3</ele>
        <time>2022-05-22T13:52:48Z</time>
      </trkpt>
      <trkpt lat="37.9730360" lon="-5.6651770">
        <ele>513.3</ele>
        <time>2022-05-22T13:52:49Z</time>
      </trkpt>
      <trkpt lat="37.9730410" lon="-5.6651710">
        <ele>513.4</ele>
        <time>2022-05-22T13:52:50Z</time>
      </trkpt>
      <trkpt lat="37.9730480" lon="-5.6651630">
        <ele>513.4</ele>
        <time>2022-05-22T13:52:51Z</time>
      </trkpt>
      <trkpt lat="37.9730540" lon="-5.6651590">
        <ele>513.4</ele>
        <time>2022-05-22T13:52:52Z</time>
      </trkpt>
      <trkpt lat="37.9730580" lon="-5.6651560">
        <ele>513.5</ele>
        <time>2022-05-22T13:52:53Z</time>
      </trkpt>
      <trkpt lat="37.9730610" lon="-5.6651530">
        <ele>513.5</ele>
        <time>2022-05-22T13:52:54Z</time>
      </trkpt>
      <trkpt lat="37.9730650" lon="-5.6651500">
        <ele>513.5</ele>
        <time>2022-05-22T13:52:55Z</time>
      </trkpt>
      <trkpt lat="37.9730680" lon="-5.6651470">
        <ele>513.5</ele>
        <time>2022-05-22T13:52:56Z</time>
      </trkpt>
      <trkpt lat="37.9730660" lon="-5.6651470">
        <ele>513.5</ele>
        <time>2022-05-22T13:52:57Z</time>
      </trkpt>
      <trkpt lat="37.9730660" lon="-5.6651460">
        <ele>513.5</ele>
        <time>2022-05-22T13:52:58Z</time>
      </trkpt>
      <trkpt lat="37.9730680" lon="-5.6651440">
        <ele>513.5</ele>
        <time>2022-05-22T13:52:59Z</time>
      </trkpt>
      <trkpt lat="37.9730690" lon="-5.6651420">
        <ele>513.5</ele>
        <time>2022-05-22T13:53:00Z</time>
      </trkpt>
      <trkpt lat="37.9730720" lon="-5.6651410">
        <ele>513.5</ele>
        <time>2022-05-22T13:53:01Z</time>
      </trkpt>
      <trkpt lat="37.9730750" lon="-5.6651410">
        <ele>513.6</ele>
        <time>2022-05-22T13:53:02Z</time>
      </trkpt>
      <trkpt lat="37.9730800" lon="-5.6651390">
        <ele>513.6</ele>
        <time>2022-05-22T13:53:03Z</time>
      </trkpt>
      <trkpt lat="37.9730880" lon="-5.6651360">
        <ele>513.6</ele>
        <time>2022-05-22T13:53:05Z</time>
      </trkpt>
      <trkpt lat="37.9730970" lon="-5.6651330">
        <ele>513.7</ele>
        <time>2022-05-22T13:53:06Z</time>
      </trkpt>
      <trkpt lat="37.9731080" lon="-5.6651290">
        <ele>513.7</ele>
        <time>2022-05-22T13:53:07Z</time>
      </trkpt>
      <trkpt lat="37.9731210" lon="-5.6651240">
        <ele>513.8</ele>
        <time>2022-05-22T13:53:08Z</time>
      </trkpt>
      <trkpt lat="37.9731340" lon="-5.6651150">
        <ele>513.8</ele>
        <time>2022-05-22T13:53:09Z</time>
      </trkpt>
      <trkpt lat="37.9731500" lon="-5.6650980">
        <ele>513.9</ele>
        <time>2022-05-22T13:53:11Z</time>
      </trkpt>
      <trkpt lat="37.9731620" lon="-5.6650830">
        <ele>514.0</ele>
        <time>2022-05-22T13:53:12Z</time>
      </trkpt>
      <trkpt lat="37.9731720" lon="-5.6650650">
        <ele>514.0</ele>
        <time>2022-05-22T13:53:13Z</time>
      </trkpt>
      <trkpt lat="37.9731770" lon="-5.6650460">
        <ele>514.1</ele>
        <time>2022-05-22T13:53:14Z</time>
      </trkpt>
      <trkpt lat="37.9731770" lon="-5.6650280">
        <ele>514.2</ele>
        <time>2022-05-22T13:53:15Z</time>
      </trkpt>
      <trkpt lat="37.9731750" lon="-5.6650160">
        <ele>514.2</ele>
        <time>2022-05-22T13:53:16Z</time>
      </trkpt>
      <trkpt lat="37.9731760" lon="-5.6650020">
        <ele>514.3</ele>
        <time>2022-05-22T13:53:17Z</time>
      </trkpt>
      <trkpt lat="37.9731790" lon="-5.6649880">
        <ele>514.3</ele>
        <time>2022-05-22T13:53:18Z</time>
      </trkpt>
      <trkpt lat="37.9731860" lon="-5.6649750">
        <ele>514.4</ele>
        <time>2022-05-22T13:53:19Z</time>
      </trkpt>
      <trkpt lat="37.9731920" lon="-5.6649660">
        <ele>514.4</ele>
        <time>2022-05-22T13:53:20Z</time>
      </trkpt>
      <trkpt lat="37.9731950" lon="-5.6649610">
        <ele>514.4</ele>
        <time>2022-05-22T13:53:21Z</time>
      </trkpt>
      <trkpt lat="37.9731990" lon="-5.6649530">
        <ele>514.5</ele>
        <time>2022-05-22T13:53:23Z</time>
      </trkpt>
      <trkpt lat="37.9732020" lon="-5.6649460">
        <ele>514.5</ele>
        <time>2022-05-22T13:53:24Z</time>
      </trkpt>
      <trkpt lat="37.9732060" lon="-5.6649420">
        <ele>514.5</ele>
        <time>2022-05-22T13:53:26Z</time>
      </trkpt>
      <trkpt lat="37.9732080" lon="-5.6649410">
        <ele>514.5</ele>
        <time>2022-05-22T13:53:27Z</time>
      </trkpt>
      <trkpt lat="37.9732080" lon="-5.6649470">
        <ele>514.5</ele>
        <time>2022-05-22T13:53:28Z</time>
      </trkpt>
      <trkpt lat="37.9732080" lon="-5.6649530">
        <ele>514.6</ele>
        <time>2022-05-22T13:53:29Z</time>
      </trkpt>
      <trkpt lat="37.9732090" lon="-5.6649590">
        <ele>514.6</ele>
        <time>2022-05-22T13:53:30Z</time>
      </trkpt>
      <trkpt lat="37.9732100" lon="-5.6649640">
        <ele>514.6</ele>
        <time>2022-05-22T13:53:32Z</time>
      </trkpt>
      <trkpt lat="37.9732100" lon="-5.6649640">
        <ele>514.6</ele>
        <time>2022-05-22T13:53:33Z</time>
      </trkpt>
      <trkpt lat="37.9732120" lon="-5.6649640">
        <ele>514.6</ele>
        <time>2022-05-22T13:53:34Z</time>
      </trkpt>
      <trkpt lat="37.9732130" lon="-5.6649620">
        <ele>514.6</ele>
        <time>2022-05-22T13:53:35Z</time>
      </trkpt>
      <trkpt lat="37.9732150" lon="-5.6649600">
        <ele>514.6</ele>
        <time>2022-05-22T13:53:36Z</time>
      </trkpt>
      <trkpt lat="37.9732100" lon="-5.6649610">
        <ele>514.7</ele>
        <time>2022-05-22T13:53:37Z</time>
      </trkpt>
      <trkpt lat="37.9732090" lon="-5.6649580">
        <ele>514.7</ele>
        <time>2022-05-22T13:53:38Z</time>
      </trkpt>
      <trkpt lat="37.9732110" lon="-5.6649510">
        <ele>514.7</ele>
        <time>2022-05-22T13:53:40Z</time>
      </trkpt>
      <trkpt lat="37.9732140" lon="-5.6649430">
        <ele>514.7</ele>
        <time>2022-05-22T13:53:41Z</time>
      </trkpt>
      <trkpt lat="37.9732180" lon="-5.6649340">
        <ele>514.8</ele>
        <time>2022-05-22T13:53:42Z</time>
      </trkpt>
      <trkpt lat="37.9732240" lon="-5.6649210">
        <ele>514.8</ele>
        <time>2022-05-22T13:53:43Z</time>
      </trkpt>
      <trkpt lat="37.9732320" lon="-5.6648980">
        <ele>514.9</ele>
        <time>2022-05-22T13:53:45Z</time>
      </trkpt>
      <trkpt lat="37.9732360" lon="-5.6648870">
        <ele>515.0</ele>
        <time>2022-05-22T13:53:46Z</time>
      </trkpt>
      <trkpt lat="37.9732400" lon="-5.6648760">
        <ele>515.0</ele>
        <time>2022-05-22T13:53:47Z</time>
      </trkpt>
      <trkpt lat="37.9732520" lon="-5.6648390">
        <ele>515.2</ele>
        <time>2022-05-22T13:53:49Z</time>
      </trkpt>
      <trkpt lat="37.9732560" lon="-5.6648300">
        <ele>515.2</ele>
        <time>2022-05-22T13:53:50Z</time>
      </trkpt>
      <trkpt lat="37.9732670" lon="-5.6648020">
        <ele>515.3</ele>
        <time>2022-05-22T13:53:51Z</time>
      </trkpt>
      <trkpt lat="37.9732700" lon="-5.6647900">
        <ele>515.4</ele>
        <time>2022-05-22T13:53:52Z</time>
      </trkpt>
      <trkpt lat="37.9732730" lon="-5.6647770">
        <ele>515.4</ele>
        <time>2022-05-22T13:53:53Z</time>
      </trkpt>
      <trkpt lat="37.9732770" lon="-5.6647400">
        <ele>515.6</ele>
        <time>2022-05-22T13:53:54Z</time>
      </trkpt>
      <trkpt lat="37.9732790" lon="-5.6647300">
        <ele>515.6</ele>
        <time>2022-05-22T13:53:55Z</time>
      </trkpt>
      <trkpt lat="37.9732800" lon="-5.6647090">
        <ele>515.7</ele>
        <time>2022-05-22T13:53:57Z</time>
      </trkpt>
      <trkpt lat="37.9732770" lon="-5.6646890">
        <ele>515.8</ele>
        <time>2022-05-22T13:53:58Z</time>
      </trkpt>
      <trkpt lat="37.9732770" lon="-5.6646730">
        <ele>515.9</ele>
        <time>2022-05-22T13:53:59Z</time>
      </trkpt>
      <trkpt lat="37.9732830" lon="-5.6646450">
        <ele>516.0</ele>
        <time>2022-05-22T13:54:00Z</time>
      </trkpt>
      <trkpt lat="37.9732830" lon="-5.6646240">
        <ele>516.1</ele>
        <time>2022-05-22T13:54:02Z</time>
      </trkpt>
      <trkpt lat="37.9732860" lon="-5.6646040">
        <ele>516.2</ele>
        <time>2022-05-22T13:54:03Z</time>
      </trkpt>
      <trkpt lat="37.9732890" lon="-5.6645890">
        <ele>516.3</ele>
        <time>2022-05-22T13:54:04Z</time>
      </trkpt>
      <trkpt lat="37.9732900" lon="-5.6645810">
        <ele>516.3</ele>
        <time>2022-05-22T13:54:05Z</time>
      </trkpt>
      <trkpt lat="37.9732900" lon="-5.6645760">
        <ele>516.3</ele>
        <time>2022-05-22T13:54:07Z</time>
      </trkpt>
      <trkpt lat="37.9732910" lon="-5.6645760">
        <ele>516.3</ele>
        <time>2022-05-22T13:54:08Z</time>
      </trkpt>
      <trkpt lat="37.9732920" lon="-5.6645770">
        <ele>516.3</ele>
        <time>2022-05-22T13:54:09Z</time>
      </trkpt>
      <trkpt lat="37.9732950" lon="-5.6645900">
        <ele>516.4</ele>
        <time>2022-05-22T13:54:10Z</time>
      </trkpt>
      <trkpt lat="37.9732980" lon="-5.6645980">
        <ele>516.4</ele>
        <time>2022-05-22T13:54:12Z</time>
      </trkpt>
      <trkpt lat="37.9732990" lon="-5.6645970">
        <ele>516.4</ele>
        <time>2022-05-22T13:54:13Z</time>
      </trkpt>
      <trkpt lat="37.9732970" lon="-5.6645970">
        <ele>516.4</ele>
        <time>2022-05-22T13:54:14Z</time>
      </trkpt>
      <trkpt lat="37.9732950" lon="-5.6646000">
        <ele>516.5</ele>
        <time>2022-05-22T13:54:15Z</time>
      </trkpt>
      <trkpt lat="37.9732930" lon="-5.6646020">
        <ele>516.5</ele>
        <time>2022-05-22T13:54:16Z</time>
      </trkpt>
      <trkpt lat="37.9732910" lon="-5.6646020">
        <ele>516.5</ele>
        <time>2022-05-22T13:54:18Z</time>
      </trkpt>
      <trkpt lat="37.9732900" lon="-5.6646020">
        <ele>516.5</ele>
        <time>2022-05-22T13:54:19Z</time>
      </trkpt>
      <trkpt lat="37.9732900" lon="-5.6646020">
        <ele>516.5</ele>
        <time>2022-05-22T13:54:20Z</time>
      </trkpt>
      <trkpt lat="37.9732890" lon="-5.6646030">
        <ele>516.5</ele>
        <time>2022-05-22T13:54:21Z</time>
      </trkpt>
      <trkpt lat="37.9732880" lon="-5.6646030">
        <ele>516.5</ele>
        <time>2022-05-22T13:54:22Z</time>
      </trkpt>
      <trkpt lat="37.9732870" lon="-5.6646030">
        <ele>516.5</ele>
        <time>2022-05-22T13:54:23Z</time>
      </trkpt>
      <trkpt lat="37.9732870" lon="-5.6646030">
        <ele>516.5</ele>
        <time>2022-05-22T13:54:24Z</time>
      </trkpt>
      <trkpt lat="37.9732860" lon="-5.6646020">
        <ele>516.5</ele>
        <time>2022-05-22T13:54:25Z</time>
      </trkpt>
      <trkpt lat="37.9732850" lon="-5.6646020">
        <ele>516.5</ele>
        <time>2022-05-22T13:54:26Z</time>
      </trkpt>
      <trkpt lat="37.9732850" lon="-5.6646020">
        <ele>516.5</ele>
        <time>2022-05-22T13:54:27Z</time>
      </trkpt>
      <trkpt lat="37.9732880" lon="-5.6646050">
        <ele>516.5</ele>
        <time>2022-05-22T13:54:29Z</time>
      </trkpt>
      <trkpt lat="37.9732910" lon="-5.6646060">
        <ele>516.6</ele>
        <time>2022-05-22T13:54:30Z</time>
      </trkpt>
      <trkpt lat="37.9732930" lon="-5.6646060">
        <ele>516.6</ele>
        <time>2022-05-22T13:54:31Z</time>
      </trkpt>
      <trkpt lat="37.9732950" lon="-5.6646060">
        <ele>516.6</ele>
        <time>2022-05-22T13:54:32Z</time>
      </trkpt>
      <trkpt lat="37.9732950" lon="-5.6646050">
        <ele>516.6</ele>
        <time>2022-05-22T13:54:33Z</time>
      </trkpt>
      <trkpt lat="37.9732980" lon="-5.6646030">
        <ele>516.6</ele>
        <time>2022-05-22T13:54:35Z</time>
      </trkpt>
      <trkpt lat="37.9733000" lon="-5.6646020">
        <ele>516.6</ele>
        <time>2022-05-22T13:54:36Z</time>
      </trkpt>
      <trkpt lat="37.9733020" lon="-5.6646010">
        <ele>516.6</ele>
        <time>2022-05-22T13:54:37Z</time>
      </trkpt>
      <trkpt lat="37.9733030" lon="-5.6646000">
        <ele>516.6</ele>
        <time>2022-05-22T13:54:38Z</time>
      </trkpt>
      <trkpt lat="37.9733040" lon="-5.6645990">
        <ele>516.6</ele>
        <time>2022-05-22T13:54:39Z</time>
      </trkpt>
      <trkpt lat="37.9733050" lon="-5.6645990">
        <ele>516.6</ele>
        <time>2022-05-22T13:54:40Z</time>
      </trkpt>
      <trkpt lat="37.9733040" lon="-5.6646000">
        <ele>516.6</ele>
        <time>2022-05-22T13:54:41Z</time>
      </trkpt>
      <trkpt lat="37.9733000" lon="-5.6646020">
        <ele>516.7</ele>
        <time>2022-05-22T13:54:43Z</time>
      </trkpt>
      <trkpt lat="37.9732950" lon="-5.6646040">
        <ele>516.7</ele>
        <time>2022-05-22T13:54:44Z</time>
      </trkpt>
      <trkpt lat="37.9732910" lon="-5.6646050">
        <ele>516.7</ele>
        <time>2022-05-22T13:54:45Z</time>
      </trkpt>
      <trkpt lat="37.9732910" lon="-5.6645970">
        <ele>516.8</ele>
        <time>2022-05-22T13:54:46Z</time>
      </trkpt>
      <trkpt lat="37.9732890" lon="-5.6645910">
        <ele>516.8</ele>
        <time>2022-05-22T13:54:48Z</time>
      </trkpt>
      <trkpt lat="37.9732880" lon="-5.6645820">
        <ele>516.8</ele>
        <time>2022-05-22T13:54:49Z</time>
      </trkpt>
      <trkpt lat="37.9732900" lon="-5.6645650">
        <ele>516.9</ele>
        <time>2022-05-22T13:54:50Z</time>
      </trkpt>
      <trkpt lat="37.9732990" lon="-5.6645280">
        <ele>517.1</ele>
        <time>2022-05-22T13:54:52Z</time>
      </trkpt>
      <trkpt lat="37.9733080" lon="-5.6644940">
        <ele>517.2</ele>
        <time>2022-05-22T13:54:53Z</time>
      </trkpt>
      <trkpt lat="37.9733210" lon="-5.6644520">
        <ele>517.4</ele>
        <time>2022-05-22T13:54:54Z</time>
      </trkpt>
      <trkpt lat="37.9733260" lon="-5.6644400">
        <ele>517.5</ele>
        <time>2022-05-22T13:54:55Z</time>
      </trkpt>
      <trkpt lat="37.9733460" lon="-5.6644040">
        <ele>517.7</ele>
        <time>2022-05-22T13:54:56Z</time>
      </trkpt>
      <trkpt lat="37.9733510" lon="-5.6643950">
        <ele>517.7</ele>
        <time>2022-05-22T13:54:57Z</time>
      </trkpt>
      <trkpt lat="37.9733670" lon="-5.6643770">
        <ele>517.8</ele>
        <time>2022-05-22T13:54:59Z</time>
      </trkpt>
      <trkpt lat="37.9733740" lon="-5.6643700">
        <ele>517.9</ele>
        <time>2022-05-22T13:55:00Z</time>
      </trkpt>
      <trkpt lat="37.9733800" lon="-5.6643620">
        <ele>517.9</ele>
        <time>2022-05-22T13:55:01Z</time>
      </trkpt>
      <trkpt lat="37.9733870" lon="-5.6643470">
        <ele>518.0</ele>
        <time>2022-05-22T13:55:02Z</time>
      </trkpt>
      <trkpt lat="37.9733930" lon="-5.6643300">
        <ele>518.1</ele>
        <time>2022-05-22T13:55:03Z</time>
      </trkpt>
      <trkpt lat="37.9733990" lon="-5.6643140">
        <ele>518.2</ele>
        <time>2022-05-22T13:55:04Z</time>
      </trkpt>
      <trkpt lat="37.9734050" lon="-5.6642990">
        <ele>518.2</ele>
        <time>2022-05-22T13:55:05Z</time>
      </trkpt>
      <trkpt lat="37.9734090" lon="-5.6642880">
        <ele>518.3</ele>
        <time>2022-05-22T13:55:06Z</time>
      </trkpt>
      <trkpt lat="37.9734130" lon="-5.6642730">
        <ele>518.3</ele>
        <time>2022-05-22T13:55:07Z</time>
      </trkpt>
      <trkpt lat="37.9734190" lon="-5.6642590">
        <ele>518.4</ele>
        <time>2022-05-22T13:55:08Z</time>
      </trkpt>
      <trkpt lat="37.9734300" lon="-5.6642340">
        <ele>518.5</ele>
        <time>2022-05-22T13:55:09Z</time>
      </trkpt>
      <trkpt lat="37.9734350" lon="-5.6642250">
        <ele>518.6</ele>
        <time>2022-05-22T13:55:10Z</time>
      </trkpt>
      <trkpt lat="37.9734390" lon="-5.6642150">
        <ele>518.6</ele>
        <time>2022-05-22T13:55:11Z</time>
      </trkpt>
      <trkpt lat="37.9734460" lon="-5.6641960">
        <ele>518.7</ele>
        <time>2022-05-22T13:55:12Z</time>
      </trkpt>
      <trkpt lat="37.9734560" lon="-5.6641750">
        <ele>518.8</ele>
        <time>2022-05-22T13:55:14Z</time>
      </trkpt>
      <trkpt lat="37.9734630" lon="-5.6641590">
        <ele>518.9</ele>
        <time>2022-05-22T13:55:15Z</time>
      </trkpt>
      <trkpt lat="37.9734720" lon="-5.6641520">
        <ele>518.9</ele>
        <time>2022-05-22T13:55:16Z</time>
      </trkpt>
      <trkpt lat="37.9734790" lon="-5.6641550">
        <ele>519.0</ele>
        <time>2022-05-22T13:55:17Z</time>
      </trkpt>
      <trkpt lat="37.9734900" lon="-5.6641550">
        <ele>519.0</ele>
        <time>2022-05-22T13:55:18Z</time>
      </trkpt>
      <trkpt lat="37.9734970" lon="-5.6641540">
        <ele>519.0</ele>
        <time>2022-05-22T13:55:19Z</time>
      </trkpt>
      <trkpt lat="37.9735040" lon="-5.6641520">
        <ele>519.1</ele>
        <time>2022-05-22T13:55:20Z</time>
      </trkpt>
      <trkpt lat="37.9735110" lon="-5.6641500">
        <ele>519.1</ele>
        <time>2022-05-22T13:55:21Z</time>
      </trkpt>
      <trkpt lat="37.9735170" lon="-5.6641480">
        <ele>519.3</ele>
        <time>2022-05-22T13:55:22Z</time>
      </trkpt>
      <trkpt lat="37.9735240" lon="-5.6641470">
        <ele>519.3</ele>
        <time>2022-05-22T13:55:24Z</time>
      </trkpt>
      <trkpt lat="37.9735310" lon="-5.6641450">
        <ele>519.3</ele>
        <time>2022-05-22T13:55:25Z</time>
      </trkpt>
      <trkpt lat="37.9735380" lon="-5.6641430">
        <ele>519.3</ele>
        <time>2022-05-22T13:55:26Z</time>
      </trkpt>
      <trkpt lat="37.9735450" lon="-5.6641420">
        <ele>519.4</ele>
        <time>2022-05-22T13:55:27Z</time>
      </trkpt>
      <trkpt lat="37.9735710" lon="-5.6641590">
        <ele>519.4</ele>
        <time>2022-05-22T13:55:28Z</time>
      </trkpt>
      <trkpt lat="37.9735790" lon="-5.6641650">
        <ele>519.5</ele>
        <time>2022-05-22T13:55:29Z</time>
      </trkpt>
      <trkpt lat="37.9736020" lon="-5.6641900">
        <ele>519.5</ele>
        <time>2022-05-22T13:55:30Z</time>
      </trkpt>
      <trkpt lat="37.9736110" lon="-5.6642000">
        <ele>519.6</ele>
        <time>2022-05-22T13:55:31Z</time>
      </trkpt>
      <trkpt lat="37.9736340" lon="-5.6642210">
        <ele>519.6</ele>
        <time>2022-05-22T13:55:32Z</time>
      </trkpt>
      <trkpt lat="37.9736450" lon="-5.6642310">
        <ele>519.6</ele>
        <time>2022-05-22T13:55:33Z</time>
      </trkpt>
      <trkpt lat="37.9736750" lon="-5.6642520">
        <ele>519.7</ele>
        <time>2022-05-22T13:55:35Z</time>
      </trkpt>
      <trkpt lat="37.9736820" lon="-5.6642560">
        <ele>519.7</ele>
        <time>2022-05-22T13:55:36Z</time>
      </trkpt>
      <trkpt lat="37.9737000" lon="-5.6642620">
        <ele>519.8</ele>
        <time>2022-05-22T13:55:37Z</time>
      </trkpt>
      <trkpt lat="37.9737130" lon="-5.6642670">
        <ele>519.8</ele>
        <time>2022-05-22T13:55:38Z</time>
      </trkpt>
      <trkpt lat="37.9737370" lon="-5.6642780">
        <ele>519.9</ele>
        <time>2022-05-22T13:55:40Z</time>
      </trkpt>
      <trkpt lat="37.9737540" lon="-5.6642850">
        <ele>519.9</ele>
        <time>2022-05-22T13:55:42Z</time>
      </trkpt>
      <trkpt lat="37.9737730" lon="-5.6642960">
        <ele>520.0</ele>
        <time>2022-05-22T13:55:43Z</time>
      </trkpt>
      <trkpt lat="37.9737840" lon="-5.6643030">
        <ele>520.0</ele>
        <time>2022-05-22T13:55:44Z</time>
      </trkpt>
      <trkpt lat="37.9737960" lon="-5.6643100">
        <ele>520.1</ele>
        <time>2022-05-22T13:55:45Z</time>
      </trkpt>
      <trkpt lat="37.9738110" lon="-5.6643150">
        <ele>520.1</ele>
        <time>2022-05-22T13:55:46Z</time>
      </trkpt>
      <trkpt lat="37.9738330" lon="-5.6643180">
        <ele>520.1</ele>
        <time>2022-05-22T13:55:47Z</time>
      </trkpt>
      <trkpt lat="37.9738410" lon="-5.6643180">
        <ele>520.2</ele>
        <time>2022-05-22T13:55:48Z</time>
      </trkpt>
      <trkpt lat="37.9738490" lon="-5.6643190">
        <ele>520.2</ele>
        <time>2022-05-22T13:55:49Z</time>
      </trkpt>
      <trkpt lat="37.9738620" lon="-5.6643170">
        <ele>520.2</ele>
        <time>2022-05-22T13:55:50Z</time>
      </trkpt>
      <trkpt lat="37.9738760" lon="-5.6643150">
        <ele>520.3</ele>
        <time>2022-05-22T13:55:51Z</time>
      </trkpt>
      <trkpt lat="37.9739000" lon="-5.6643160">
        <ele>520.3</ele>
        <time>2022-05-22T13:55:53Z</time>
      </trkpt>
      <trkpt lat="37.9739330" lon="-5.6643190">
        <ele>520.4</ele>
        <time>2022-05-22T13:55:55Z</time>
      </trkpt>
      <trkpt lat="37.9739390" lon="-5.6643200">
        <ele>520.4</ele>
        <time>2022-05-22T13:55:56Z</time>
      </trkpt>
      <trkpt lat="37.9739490" lon="-5.6643320">
        <ele>520.5</ele>
        <time>2022-05-22T13:55:57Z</time>
      </trkpt>
      <trkpt lat="37.9739580" lon="-5.6643390">
        <ele>520.5</ele>
        <time>2022-05-22T13:55:58Z</time>
      </trkpt>
      <trkpt lat="37.9739650" lon="-5.6643490">
        <ele>520.5</ele>
        <time>2022-05-22T13:55:59Z</time>
      </trkpt>
      <trkpt lat="37.9739800" lon="-5.6643670">
        <ele>520.6</ele>
        <time>2022-05-22T13:56:00Z</time>
      </trkpt>
      <trkpt lat="37.9739860" lon="-5.6643750">
        <ele>520.6</ele>
        <time>2022-05-22T13:56:01Z</time>
      </trkpt>
      <trkpt lat="37.9739920" lon="-5.6643820">
        <ele>520.6</ele>
        <time>2022-05-22T13:56:02Z</time>
      </trkpt>
      <trkpt lat="37.9740000" lon="-5.6643890">
        <ele>520.7</ele>
        <time>2022-05-22T13:56:03Z</time>
      </trkpt>
      <trkpt lat="37.9740060" lon="-5.6643990">
        <ele>520.7</ele>
        <time>2022-05-22T13:56:04Z</time>
      </trkpt>
      <trkpt lat="37.9740140" lon="-5.6644050">
        <ele>520.7</ele>
        <time>2022-05-22T13:56:05Z</time>
      </trkpt>
      <trkpt lat="37.9740350" lon="-5.6644180">
        <ele>520.8</ele>
        <time>2022-05-22T13:56:06Z</time>
      </trkpt>
      <trkpt lat="37.9740450" lon="-5.6644220">
        <ele>520.8</ele>
        <time>2022-05-22T13:56:08Z</time>
      </trkpt>
      <trkpt lat="37.9740550" lon="-5.6644260">
        <ele>520.8</ele>
        <time>2022-05-22T13:56:09Z</time>
      </trkpt>
      <trkpt lat="37.9740660" lon="-5.6644290">
        <ele>520.9</ele>
        <time>2022-05-22T13:56:10Z</time>
      </trkpt>
      <trkpt lat="37.9740760" lon="-5.6644330">
        <ele>520.9</ele>
        <time>2022-05-22T13:56:11Z</time>
      </trkpt>
      <trkpt lat="37.9740860" lon="-5.6644370">
        <ele>520.9</ele>
        <time>2022-05-22T13:56:12Z</time>
      </trkpt>
      <trkpt lat="37.9740970" lon="-5.6644400">
        <ele>520.9</ele>
        <time>2022-05-22T13:56:13Z</time>
      </trkpt>
      <trkpt lat="37.9741090" lon="-5.6644440">
        <ele>521.0</ele>
        <time>2022-05-22T13:56:14Z</time>
      </trkpt>
      <trkpt lat="37.9741200" lon="-5.6644500">
        <ele>521.0</ele>
        <time>2022-05-22T13:56:15Z</time>
      </trkpt>
      <trkpt lat="37.9741290" lon="-5.6644560">
        <ele>521.0</ele>
        <time>2022-05-22T13:56:16Z</time>
      </trkpt>
      <trkpt lat="37.9741380" lon="-5.6644630">
        <ele>521.1</ele>
        <time>2022-05-22T13:56:17Z</time>
      </trkpt>
      <trkpt lat="37.9741470" lon="-5.6644710">
        <ele>521.1</ele>
        <time>2022-05-22T13:56:18Z</time>
      </trkpt>
      <trkpt lat="37.9741570" lon="-5.6644750">
        <ele>521.1</ele>
        <time>2022-05-22T13:56:19Z</time>
      </trkpt>
      <trkpt lat="37.9741670" lon="-5.6644780">
        <ele>521.2</ele>
        <time>2022-05-22T13:56:20Z</time>
      </trkpt>
      <trkpt lat="37.9741760" lon="-5.6644810">
        <ele>521.2</ele>
        <time>2022-05-22T13:56:21Z</time>
      </trkpt>
      <trkpt lat="37.9741860" lon="-5.6644850">
        <ele>521.2</ele>
        <time>2022-05-22T13:56:22Z</time>
      </trkpt>
      <trkpt lat="37.9742000" lon="-5.6644920">
        <ele>521.3</ele>
        <time>2022-05-22T13:56:23Z</time>
      </trkpt>
      <trkpt lat="37.9742090" lon="-5.6644980">
        <ele>521.3</ele>
        <time>2022-05-22T13:56:24Z</time>
      </trkpt>
      <trkpt lat="37.9742170" lon="-5.6645040">
        <ele>521.3</ele>
        <time>2022-05-22T13:56:25Z</time>
      </trkpt>
      <trkpt lat="37.9742270" lon="-5.6645080">
        <ele>521.3</ele>
        <time>2022-05-22T13:56:26Z</time>
      </trkpt>
      <trkpt lat="37.9742370" lon="-5.6645120">
        <ele>521.4</ele>
        <time>2022-05-22T13:56:27Z</time>
      </trkpt>
      <trkpt lat="37.9742490" lon="-5.6645160">
        <ele>521.4</ele>
        <time>2022-05-22T13:56:28Z</time>
      </trkpt>
      <trkpt lat="37.9742580" lon="-5.6645200">
        <ele>521.4</ele>
        <time>2022-05-22T13:56:29Z</time>
      </trkpt>
      <trkpt lat="37.9742730" lon="-5.6645250">
        <ele>521.5</ele>
        <time>2022-05-22T13:56:30Z</time>
      </trkpt>
      <trkpt lat="37.9742800" lon="-5.6645270">
        <ele>521.5</ele>
        <time>2022-05-22T13:56:31Z</time>
      </trkpt>
      <trkpt lat="37.9742870" lon="-5.6645290">
        <ele>521.5</ele>
        <time>2022-05-22T13:56:32Z</time>
      </trkpt>
      <trkpt lat="37.9742950" lon="-5.6645310">
        <ele>521.5</ele>
        <time>2022-05-22T13:56:33Z</time>
      </trkpt>
      <trkpt lat="37.9743080" lon="-5.6645380">
        <ele>521.6</ele>
        <time>2022-05-22T13:56:34Z</time>
      </trkpt>
      <trkpt lat="37.9743200" lon="-5.6645430">
        <ele>521.6</ele>
        <time>2022-05-22T13:56:35Z</time>
      </trkpt>
      <trkpt lat="37.9743350" lon="-5.6645460">
        <ele>521.6</ele>
        <time>2022-05-22T13:56:36Z</time>
      </trkpt>
      <trkpt lat="37.9743490" lon="-5.6645470">
        <ele>521.7</ele>
        <time>2022-05-22T13:56:37Z</time>
      </trkpt>
      <trkpt lat="37.9743610" lon="-5.6645480">
        <ele>521.7</ele>
        <time>2022-05-22T13:56:38Z</time>
      </trkpt>
      <trkpt lat="37.9743670" lon="-5.6645490">
        <ele>521.7</ele>
        <time>2022-05-22T13:56:39Z</time>
      </trkpt>
      <trkpt lat="37.9743720" lon="-5.6645500">
        <ele>521.7</ele>
        <time>2022-05-22T13:56:40Z</time>
      </trkpt>
      <trkpt lat="37.9743800" lon="-5.6645510">
        <ele>521.8</ele>
        <time>2022-05-22T13:56:41Z</time>
      </trkpt>
      <trkpt lat="37.9743910" lon="-5.6645510">
        <ele>521.8</ele>
        <time>2022-05-22T13:56:42Z</time>
      </trkpt>
      <trkpt lat="37.9744010" lon="-5.6645510">
        <ele>521.8</ele>
        <time>2022-05-22T13:56:43Z</time>
      </trkpt>
      <trkpt lat="37.9744130" lon="-5.6645540">
        <ele>521.9</ele>
        <time>2022-05-22T13:56:44Z</time>
      </trkpt>
      <trkpt lat="37.9744430" lon="-5.6645530">
        <ele>521.9</ele>
        <time>2022-05-22T13:56:46Z</time>
      </trkpt>
      <trkpt lat="37.9744500" lon="-5.6645540">
        <ele>522.0</ele>
        <time>2022-05-22T13:56:47Z</time>
      </trkpt>
      <trkpt lat="37.9744620" lon="-5.6645550">
        <ele>522.0</ele>
        <time>2022-05-22T13:56:48Z</time>
      </trkpt>
      <trkpt lat="37.9744730" lon="-5.6645580">
        <ele>522.0</ele>
        <time>2022-05-22T13:56:49Z</time>
      </trkpt>
      <trkpt lat="37.9744830" lon="-5.6645620">
        <ele>522.1</ele>
        <time>2022-05-22T13:56:50Z</time>
      </trkpt>
      <trkpt lat="37.9745000" lon="-5.6645700">
        <ele>522.1</ele>
        <time>2022-05-22T13:56:51Z</time>
      </trkpt>
      <trkpt lat="37.9745110" lon="-5.6645740">
        <ele>522.1</ele>
        <time>2022-05-22T13:56:52Z</time>
      </trkpt>
      <trkpt lat="37.9745230" lon="-5.6645790">
        <ele>522.2</ele>
        <time>2022-05-22T13:56:53Z</time>
      </trkpt>
      <trkpt lat="37.9745500" lon="-5.6645900">
        <ele>522.2</ele>
        <time>2022-05-22T13:56:55Z</time>
      </trkpt>
      <trkpt lat="37.9745600" lon="-5.6645970">
        <ele>522.3</ele>
        <time>2022-05-22T13:56:56Z</time>
      </trkpt>
      <trkpt lat="37.9745710" lon="-5.6646060">
        <ele>522.3</ele>
        <time>2022-05-22T13:56:57Z</time>
      </trkpt>
      <trkpt lat="37.9745770" lon="-5.6646110">
        <ele>522.3</ele>
        <time>2022-05-22T13:56:58Z</time>
      </trkpt>
      <trkpt lat="37.9745850" lon="-5.6646160">
        <ele>522.4</ele>
        <time>2022-05-22T13:56:59Z</time>
      </trkpt>
      <trkpt lat="37.9745950" lon="-5.6646210">
        <ele>522.4</ele>
        <time>2022-05-22T13:57:00Z</time>
      </trkpt>
      <trkpt lat="37.9746040" lon="-5.6646250">
        <ele>522.4</ele>
        <time>2022-05-22T13:57:01Z</time>
      </trkpt>
      <trkpt lat="37.9746200" lon="-5.6646320">
        <ele>522.4</ele>
        <time>2022-05-22T13:57:03Z</time>
      </trkpt>
      <trkpt lat="37.9746270" lon="-5.6646330">
        <ele>522.5</ele>
        <time>2022-05-22T13:57:04Z</time>
      </trkpt>
      <trkpt lat="37.9746360" lon="-5.6646350">
        <ele>522.5</ele>
        <time>2022-05-22T13:57:05Z</time>
      </trkpt>
      <trkpt lat="37.9746440" lon="-5.6646360">
        <ele>522.5</ele>
        <time>2022-05-22T13:57:06Z</time>
      </trkpt>
      <trkpt lat="37.9746520" lon="-5.6646370">
        <ele>522.5</ele>
        <time>2022-05-22T13:57:07Z</time>
      </trkpt>
      <trkpt lat="37.9746630" lon="-5.6646400">
        <ele>522.6</ele>
        <time>2022-05-22T13:57:08Z</time>
      </trkpt>
      <trkpt lat="37.9746720" lon="-5.6646430">
        <ele>522.6</ele>
        <time>2022-05-22T13:57:09Z</time>
      </trkpt>
      <trkpt lat="37.9746830" lon="-5.6646440">
        <ele>522.6</ele>
        <time>2022-05-22T13:57:10Z</time>
      </trkpt>
      <trkpt lat="37.9746930" lon="-5.6646420">
        <ele>522.6</ele>
        <time>2022-05-22T13:57:11Z</time>
      </trkpt>
      <trkpt lat="37.9747000" lon="-5.6646430">
        <ele>522.7</ele>
        <time>2022-05-22T13:57:12Z</time>
      </trkpt>
      <trkpt lat="37.9747150" lon="-5.6646420">
        <ele>522.7</ele>
        <time>2022-05-22T13:57:13Z</time>
      </trkpt>
      <trkpt lat="37.9747260" lon="-5.6646460">
        <ele>522.7</ele>
        <time>2022-05-22T13:57:15Z</time>
      </trkpt>
      <trkpt lat="37.9747290" lon="-5.6646540">
        <ele>522.8</ele>
        <time>2022-05-22T13:57:16Z</time>
      </trkpt>
      <trkpt lat="37.9747370" lon="-5.6646600">
        <ele>522.8</ele>
        <time>2022-05-22T13:57:17Z</time>
      </trkpt>
      <trkpt lat="37.9747460" lon="-5.6646640">
        <ele>522.8</ele>
        <time>2022-05-22T13:57:18Z</time>
      </trkpt>
      <trkpt lat="37.9747600" lon="-5.6646570">
        <ele>522.8</ele>
        <time>2022-05-22T13:57:19Z</time>
      </trkpt>
      <trkpt lat="37.9747810" lon="-5.6646540">
        <ele>522.9</ele>
        <time>2022-05-22T13:57:20Z</time>
      </trkpt>
      <trkpt lat="37.9747910" lon="-5.6646540">
        <ele>522.9</ele>
        <time>2022-05-22T13:57:21Z</time>
      </trkpt>
      <trkpt lat="37.9748000" lon="-5.6646530">
        <ele>523.0</ele>
        <time>2022-05-22T13:57:22Z</time>
      </trkpt>
      <trkpt lat="37.9748320" lon="-5.6646460">
        <ele>523.0</ele>
        <time>2022-05-22T13:57:24Z</time>
      </trkpt>
      <trkpt lat="37.9748430" lon="-5.6646420">
        <ele>523.1</ele>
        <time>2022-05-22T13:57:25Z</time>
      </trkpt>
      <trkpt lat="37.9748740" lon="-5.6646220">
        <ele>523.2</ele>
        <time>2022-05-22T13:57:26Z</time>
      </trkpt>
      <trkpt lat="37.9748840" lon="-5.6646150">
        <ele>523.2</ele>
        <time>2022-05-22T13:57:27Z</time>
      </trkpt>
      <trkpt lat="37.9748990" lon="-5.6646050">
        <ele>523.3</ele>
        <time>2022-05-22T13:57:29Z</time>
      </trkpt>
      <trkpt lat="37.9749130" lon="-5.6645940">
        <ele>523.3</ele>
        <time>2022-05-22T13:57:30Z</time>
      </trkpt>
      <trkpt lat="37.9749310" lon="-5.6645830">
        <ele>523.4</ele>
        <time>2022-05-22T13:57:31Z</time>
      </trkpt>
      <trkpt lat="37.9749430" lon="-5.6645730">
        <ele>523.4</ele>
        <time>2022-05-22T13:57:32Z</time>
      </trkpt>
      <trkpt lat="37.9749540" lon="-5.6645670">
        <ele>523.4</ele>
        <time>2022-05-22T13:57:33Z</time>
      </trkpt>
      <trkpt lat="37.9749650" lon="-5.6645620">
        <ele>523.5</ele>
        <time>2022-05-22T13:57:34Z</time>
      </trkpt>
      <trkpt lat="37.9749770" lon="-5.6645580">
        <ele>523.5</ele>
        <time>2022-05-22T13:57:35Z</time>
      </trkpt>
      <trkpt lat="37.9749930" lon="-5.6645540">
        <ele>523.5</ele>
        <time>2022-05-22T13:57:36Z</time>
      </trkpt>
      <trkpt lat="37.9750050" lon="-5.6645530">
        <ele>523.6</ele>
        <time>2022-05-22T13:57:37Z</time>
      </trkpt>
      <trkpt lat="37.9750140" lon="-5.6645520">
        <ele>523.6</ele>
        <time>2022-05-22T13:57:38Z</time>
      </trkpt>
      <trkpt lat="37.9750250" lon="-5.6645530">
        <ele>523.6</ele>
        <time>2022-05-22T13:57:39Z</time>
      </trkpt>
      <trkpt lat="37.9750360" lon="-5.6645530">
        <ele>523.7</ele>
        <time>2022-05-22T13:57:40Z</time>
      </trkpt>
      <trkpt lat="37.9750470" lon="-5.6645530">
        <ele>523.7</ele>
        <time>2022-05-22T13:57:42Z</time>
      </trkpt>
      <trkpt lat="37.9750610" lon="-5.6645560">
        <ele>523.7</ele>
        <time>2022-05-22T13:57:43Z</time>
      </trkpt>
      <trkpt lat="37.9750700" lon="-5.6645590">
        <ele>523.8</ele>
        <time>2022-05-22T13:57:44Z</time>
      </trkpt>
      <trkpt lat="37.9750860" lon="-5.6645650">
        <ele>523.8</ele>
        <time>2022-05-22T13:57:45Z</time>
      </trkpt>
      <trkpt lat="37.9750980" lon="-5.6645710">
        <ele>523.9</ele>
        <time>2022-05-22T13:57:46Z</time>
      </trkpt>
      <trkpt lat="37.9751100" lon="-5.6645740">
        <ele>523.9</ele>
        <time>2022-05-22T13:57:47Z</time>
      </trkpt>
      <trkpt lat="37.9751240" lon="-5.6645960">
        <ele>523.9</ele>
        <time>2022-05-22T13:57:49Z</time>
      </trkpt>
      <trkpt lat="37.9751340" lon="-5.6646030">
        <ele>524.0</ele>
        <time>2022-05-22T13:57:50Z</time>
      </trkpt>
      <trkpt lat="37.9751450" lon="-5.6646080">
        <ele>524.0</ele>
        <time>2022-05-22T13:57:51Z</time>
      </trkpt>
      <trkpt lat="37.9751580" lon="-5.6646120">
        <ele>524.1</ele>
        <time>2022-05-22T13:57:52Z</time>
      </trkpt>
      <trkpt lat="37.9751710" lon="-5.6646150">
        <ele>524.1</ele>
        <time>2022-05-22T13:57:53Z</time>
      </trkpt>
      <trkpt lat="37.9751850" lon="-5.6646180">
        <ele>524.1</ele>
        <time>2022-05-22T13:57:54Z</time>
      </trkpt>
      <trkpt lat="37.9752060" lon="-5.6646210">
        <ele>524.2</ele>
        <time>2022-05-22T13:57:55Z</time>
      </trkpt>
      <trkpt lat="37.9752140" lon="-5.6646220">
        <ele>524.2</ele>
        <time>2022-05-22T13:57:56Z</time>
      </trkpt>
      <trkpt lat="37.9752230" lon="-5.6646220">
        <ele>524.2</ele>
        <time>2022-05-22T13:57:57Z</time>
      </trkpt>
      <trkpt lat="37.9752450" lon="-5.6646260">
        <ele>524.3</ele>
        <time>2022-05-22T13:57:58Z</time>
      </trkpt>
      <trkpt lat="37.9752540" lon="-5.6646280">
        <ele>524.3</ele>
        <time>2022-05-22T13:57:59Z</time>
      </trkpt>
      <trkpt lat="37.9752630" lon="-5.6646310">
        <ele>524.3</ele>
        <time>2022-05-22T13:58:00Z</time>
      </trkpt>
      <trkpt lat="37.9752730" lon="-5.6646340">
        <ele>524.4</ele>
        <time>2022-05-22T13:58:01Z</time>
      </trkpt>
      <trkpt lat="37.9752850" lon="-5.6646370">
        <ele>524.4</ele>
        <time>2022-05-22T13:58:02Z</time>
      </trkpt>
      <trkpt lat="37.9752960" lon="-5.6646400">
        <ele>524.4</ele>
        <time>2022-05-22T13:58:03Z</time>
      </trkpt>
      <trkpt lat="37.9753110" lon="-5.6646420">
        <ele>524.4</ele>
        <time>2022-05-22T13:58:04Z</time>
      </trkpt>
      <trkpt lat="37.9753260" lon="-5.6646440">
        <ele>524.5</ele>
        <time>2022-05-22T13:58:05Z</time>
      </trkpt>
      <trkpt lat="37.9753410" lon="-5.6646450">
        <ele>524.5</ele>
        <time>2022-05-22T13:58:07Z</time>
      </trkpt>
      <trkpt lat="37.9753540" lon="-5.6646460">
        <ele>524.5</ele>
        <time>2022-05-22T13:58:08Z</time>
      </trkpt>
      <trkpt lat="37.9753630" lon="-5.6646440">
        <ele>524.6</ele>
        <time>2022-05-22T13:58:09Z</time>
      </trkpt>
      <trkpt lat="37.9753740" lon="-5.6646410">
        <ele>524.6</ele>
        <time>2022-05-22T13:58:10Z</time>
      </trkpt>
      <trkpt lat="37.9753890" lon="-5.6646360">
        <ele>524.6</ele>
        <time>2022-05-22T13:58:11Z</time>
      </trkpt>
      <trkpt lat="37.9753990" lon="-5.6646300">
        <ele>524.7</ele>
        <time>2022-05-22T13:58:12Z</time>
      </trkpt>
      <trkpt lat="37.9754090" lon="-5.6646250">
        <ele>524.7</ele>
        <time>2022-05-22T13:58:13Z</time>
      </trkpt>
      <trkpt lat="37.9754210" lon="-5.6646200">
        <ele>524.7</ele>
        <time>2022-05-22T13:58:14Z</time>
      </trkpt>
      <trkpt lat="37.9754350" lon="-5.6646140">
        <ele>524.7</ele>
        <time>2022-05-22T13:58:15Z</time>
      </trkpt>
      <trkpt lat="37.9754570" lon="-5.6646090">
        <ele>524.8</ele>
        <time>2022-05-22T13:58:17Z</time>
      </trkpt>
      <trkpt lat="37.9754670" lon="-5.6646060">
        <ele>524.8</ele>
        <time>2022-05-22T13:58:18Z</time>
      </trkpt>
      <trkpt lat="37.9754790" lon="-5.6646020">
        <ele>524.9</ele>
        <time>2022-05-22T13:58:19Z</time>
      </trkpt>
      <trkpt lat="37.9754920" lon="-5.6645980">
        <ele>524.9</ele>
        <time>2022-05-22T13:58:20Z</time>
      </trkpt>
      <trkpt lat="37.9755140" lon="-5.6645940">
        <ele>524.9</ele>
        <time>2022-05-22T13:58:21Z</time>
      </trkpt>
      <trkpt lat="37.9755240" lon="-5.6645940">
        <ele>525.0</ele>
        <time>2022-05-22T13:58:22Z</time>
      </trkpt>
      <trkpt lat="37.9755340" lon="-5.6645930">
        <ele>525.0</ele>
        <time>2022-05-22T13:58:23Z</time>
      </trkpt>
      <trkpt lat="37.9755460" lon="-5.6645950">
        <ele>525.0</ele>
        <time>2022-05-22T13:58:24Z</time>
      </trkpt>
      <trkpt lat="37.9755550" lon="-5.6645950">
        <ele>525.0</ele>
        <time>2022-05-22T13:58:25Z</time>
      </trkpt>
      <trkpt lat="37.9755650" lon="-5.6645960">
        <ele>525.1</ele>
        <time>2022-05-22T13:58:26Z</time>
      </trkpt>
      <trkpt lat="37.9755860" lon="-5.6645980">
        <ele>525.1</ele>
        <time>2022-05-22T13:58:27Z</time>
      </trkpt>
      <trkpt lat="37.9755950" lon="-5.6646000">
        <ele>525.1</ele>
        <time>2022-05-22T13:58:28Z</time>
      </trkpt>
      <trkpt lat="37.9756040" lon="-5.6646020">
        <ele>525.1</ele>
        <time>2022-05-22T13:58:29Z</time>
      </trkpt>
      <trkpt lat="37.9756170" lon="-5.6646050">
        <ele>525.2</ele>
        <time>2022-05-22T13:58:30Z</time>
      </trkpt>
      <trkpt lat="37.9756270" lon="-5.6646070">
        <ele>525.2</ele>
        <time>2022-05-22T13:58:31Z</time>
      </trkpt>
      <trkpt lat="37.9756390" lon="-5.6646070">
        <ele>525.2</ele>
        <time>2022-05-22T13:58:32Z</time>
      </trkpt>
      <trkpt lat="37.9756560" lon="-5.6646070">
        <ele>525.3</ele>
        <time>2022-05-22T13:58:33Z</time>
      </trkpt>
      <trkpt lat="37.9756750" lon="-5.6646060">
        <ele>525.3</ele>
        <time>2022-05-22T13:58:35Z</time>
      </trkpt>
      <trkpt lat="37.9756890" lon="-5.6646040">
        <ele>525.4</ele>
        <time>2022-05-22T13:58:36Z</time>
      </trkpt>
      <trkpt lat="37.9757020" lon="-5.6646020">
        <ele>525.4</ele>
        <time>2022-05-22T13:58:37Z</time>
      </trkpt>
      <trkpt lat="37.9757160" lon="-5.6645980">
        <ele>525.4</ele>
        <time>2022-05-22T13:58:38Z</time>
      </trkpt>
      <trkpt lat="37.9757320" lon="-5.6645970">
        <ele>525.5</ele>
        <time>2022-05-22T13:58:39Z</time>
      </trkpt>
      <trkpt lat="37.9757510" lon="-5.6646000">
        <ele>525.5</ele>
        <time>2022-05-22T13:58:40Z</time>
      </trkpt>
      <trkpt lat="37.9757630" lon="-5.6646030">
        <ele>525.5</ele>
        <time>2022-05-22T13:58:41Z</time>
      </trkpt>
      <trkpt lat="37.9757780" lon="-5.6646060">
        <ele>525.6</ele>
        <time>2022-05-22T13:58:42Z</time>
      </trkpt>
      <trkpt lat="37.9757960" lon="-5.6646090">
        <ele>525.6</ele>
        <time>2022-05-22T13:58:43Z</time>
      </trkpt>
      <trkpt lat="37.9758110" lon="-5.6646120">
        <ele>525.7</ele>
        <time>2022-05-22T13:58:44Z</time>
      </trkpt>
      <trkpt lat="37.9758310" lon="-5.6646180">
        <ele>525.7</ele>
        <time>2022-05-22T13:58:45Z</time>
      </trkpt>
      <trkpt lat="37.9758460" lon="-5.6646220">
        <ele>525.8</ele>
        <time>2022-05-22T13:58:47Z</time>
      </trkpt>
      <trkpt lat="37.9758580" lon="-5.6646250">
        <ele>525.8</ele>
        <time>2022-05-22T13:58:48Z</time>
      </trkpt>
      <trkpt lat="37.9758700" lon="-5.6646280">
        <ele>525.8</ele>
        <time>2022-05-22T13:58:49Z</time>
      </trkpt>
      <trkpt lat="37.9758880" lon="-5.6646310">
        <ele>525.9</ele>
        <time>2022-05-22T13:58:51Z</time>
      </trkpt>
      <trkpt lat="37.9759020" lon="-5.6646350">
        <ele>525.9</ele>
        <time>2022-05-22T13:58:52Z</time>
      </trkpt>
      <trkpt lat="37.9759110" lon="-5.6646380">
        <ele>525.9</ele>
        <time>2022-05-22T13:58:53Z</time>
      </trkpt>
      <trkpt lat="37.9759210" lon="-5.6646420">
        <ele>526.0</ele>
        <time>2022-05-22T13:58:54Z</time>
      </trkpt>
      <trkpt lat="37.9759280" lon="-5.6646450">
        <ele>526.0</ele>
        <time>2022-05-22T13:58:55Z</time>
      </trkpt>
      <trkpt lat="37.9759370" lon="-5.6646510">
        <ele>526.0</ele>
        <time>2022-05-22T13:58:56Z</time>
      </trkpt>
      <trkpt lat="37.9759520" lon="-5.6646590">
        <ele>526.0</ele>
        <time>2022-05-22T13:58:57Z</time>
      </trkpt>
      <trkpt lat="37.9759610" lon="-5.6646650">
        <ele>526.1</ele>
        <time>2022-05-22T13:58:58Z</time>
      </trkpt>
      <trkpt lat="37.9759700" lon="-5.6646690">
        <ele>526.1</ele>
        <time>2022-05-22T13:58:59Z</time>
      </trkpt>
      <trkpt lat="37.9759820" lon="-5.6646720">
        <ele>526.1</ele>
        <time>2022-05-22T13:59:00Z</time>
      </trkpt>
      <trkpt lat="37.9759920" lon="-5.6646740">
        <ele>526.2</ele>
        <time>2022-05-22T13:59:01Z</time>
      </trkpt>
      <trkpt lat="37.9760030" lon="-5.6646770">
        <ele>526.2</ele>
        <time>2022-05-22T13:59:02Z</time>
      </trkpt>
      <trkpt lat="37.9760170" lon="-5.6646820">
        <ele>526.2</ele>
        <time>2022-05-22T13:59:03Z</time>
      </trkpt>
      <trkpt lat="37.9760260" lon="-5.6646850">
        <ele>526.2</ele>
        <time>2022-05-22T13:59:04Z</time>
      </trkpt>
      <trkpt lat="37.9760360" lon="-5.6646890">
        <ele>526.3</ele>
        <time>2022-05-22T13:59:05Z</time>
      </trkpt>
      <trkpt lat="37.9760460" lon="-5.6646940">
        <ele>526.3</ele>
        <time>2022-05-22T13:59:06Z</time>
      </trkpt>
      <trkpt lat="37.9760460" lon="-5.6646980">
        <ele>526.3</ele>
        <time>2022-05-22T13:59:07Z</time>
      </trkpt>
      <trkpt lat="37.9760500" lon="-5.6647030">
        <ele>526.3</ele>
        <time>2022-05-22T13:59:09Z</time>
      </trkpt>
      <trkpt lat="37.9760580" lon="-5.6647080">
        <ele>526.3</ele>
        <time>2022-05-22T13:59:10Z</time>
      </trkpt>
      <trkpt lat="37.9760670" lon="-5.6647110">
        <ele>526.4</ele>
        <time>2022-05-22T13:59:11Z</time>
      </trkpt>
      <trkpt lat="37.9760790" lon="-5.6647130">
        <ele>526.4</ele>
        <time>2022-05-22T13:59:12Z</time>
      </trkpt>
      <trkpt lat="37.9760910" lon="-5.6647140">
        <ele>526.4</ele>
        <time>2022-05-22T13:59:13Z</time>
      </trkpt>
      <trkpt lat="37.9761070" lon="-5.6647150">
        <ele>526.5</ele>
        <time>2022-05-22T13:59:14Z</time>
      </trkpt>
      <trkpt lat="37.9761190" lon="-5.6647140">
        <ele>526.5</ele>
        <time>2022-05-22T13:59:15Z</time>
      </trkpt>
      <trkpt lat="37.9761280" lon="-5.6647130">
        <ele>526.5</ele>
        <time>2022-05-22T13:59:16Z</time>
      </trkpt>
      <trkpt lat="37.9761390" lon="-5.6647140">
        <ele>526.6</ele>
        <time>2022-05-22T13:59:17Z</time>
      </trkpt>
      <trkpt lat="37.9761440" lon="-5.6647100">
        <ele>526.6</ele>
        <time>2022-05-22T13:59:19Z</time>
      </trkpt>
      <trkpt lat="37.9761550" lon="-5.6647110">
        <ele>526.6</ele>
        <time>2022-05-22T13:59:20Z</time>
      </trkpt>
      <trkpt lat="37.9761650" lon="-5.6647120">
        <ele>526.6</ele>
        <time>2022-05-22T13:59:21Z</time>
      </trkpt>
      <trkpt lat="37.9761730" lon="-5.6647120">
        <ele>526.7</ele>
        <time>2022-05-22T13:59:22Z</time>
      </trkpt>
      <trkpt lat="37.9761800" lon="-5.6647120">
        <ele>526.7</ele>
        <time>2022-05-22T13:59:23Z</time>
      </trkpt>
      <trkpt lat="37.9761910" lon="-5.6647120">
        <ele>526.7</ele>
        <time>2022-05-22T13:59:24Z</time>
      </trkpt>
      <trkpt lat="37.9762040" lon="-5.6647110">
        <ele>526.7</ele>
        <time>2022-05-22T13:59:25Z</time>
      </trkpt>
      <trkpt lat="37.9762280" lon="-5.6647110">
        <ele>526.8</ele>
        <time>2022-05-22T13:59:26Z</time>
      </trkpt>
      <trkpt lat="37.9762360" lon="-5.6647100">
        <ele>526.8</ele>
        <time>2022-05-22T13:59:27Z</time>
      </trkpt>
      <trkpt lat="37.9762450" lon="-5.6647100">
        <ele>526.8</ele>
        <time>2022-05-22T13:59:28Z</time>
      </trkpt>
      <trkpt lat="37.9762600" lon="-5.6647080">
        <ele>526.9</ele>
        <time>2022-05-22T13:59:29Z</time>
      </trkpt>
      <trkpt lat="37.9762760" lon="-5.6647060">
        <ele>526.9</ele>
        <time>2022-05-22T13:59:30Z</time>
      </trkpt>
      <trkpt lat="37.9762950" lon="-5.6647010">
        <ele>527.0</ele>
        <time>2022-05-22T13:59:31Z</time>
      </trkpt>
      <trkpt lat="37.9763100" lon="-5.6646970">
        <ele>527.0</ele>
        <time>2022-05-22T13:59:32Z</time>
      </trkpt>
      <trkpt lat="37.9763220" lon="-5.6646930">
        <ele>527.0</ele>
        <time>2022-05-22T13:59:33Z</time>
      </trkpt>
      <trkpt lat="37.9763450" lon="-5.6646920">
        <ele>527.1</ele>
        <time>2022-05-22T13:59:35Z</time>
      </trkpt>
      <trkpt lat="37.9763610" lon="-5.6646940">
        <ele>527.2</ele>
        <time>2022-05-22T13:59:36Z</time>
      </trkpt>
      <trkpt lat="37.9763770" lon="-5.6646990">
        <ele>527.2</ele>
        <time>2022-05-22T13:59:37Z</time>
      </trkpt>
      <trkpt lat="37.9763870" lon="-5.6647010">
        <ele>527.2</ele>
        <time>2022-05-22T13:59:38Z</time>
      </trkpt>
      <trkpt lat="37.9764010" lon="-5.6647030">
        <ele>527.3</ele>
        <time>2022-05-22T13:59:39Z</time>
      </trkpt>
      <trkpt lat="37.9764130" lon="-5.6647040">
        <ele>527.3</ele>
        <time>2022-05-22T13:59:40Z</time>
      </trkpt>
      <trkpt lat="37.9764230" lon="-5.6647050">
        <ele>527.3</ele>
        <time>2022-05-22T13:59:41Z</time>
      </trkpt>
      <trkpt lat="37.9764400" lon="-5.6647050">
        <ele>527.3</ele>
        <time>2022-05-22T13:59:43Z</time>
      </trkpt>
      <trkpt lat="37.9764500" lon="-5.6647030">
        <ele>527.4</ele>
        <time>2022-05-22T13:59:44Z</time>
      </trkpt>
      <trkpt lat="37.9764600" lon="-5.6646990">
        <ele>527.4</ele>
        <time>2022-05-22T13:59:45Z</time>
      </trkpt>
      <trkpt lat="37.9764720" lon="-5.6646940">
        <ele>527.4</ele>
        <time>2022-05-22T13:59:46Z</time>
      </trkpt>
      <trkpt lat="37.9764940" lon="-5.6646890">
        <ele>527.5</ele>
        <time>2022-05-22T13:59:47Z</time>
      </trkpt>
      <trkpt lat="37.9765030" lon="-5.6646890">
        <ele>527.5</ele>
        <time>2022-05-22T13:59:49Z</time>
      </trkpt>
      <trkpt lat="37.9765120" lon="-5.6646880">
        <ele>527.5</ele>
        <time>2022-05-22T13:59:51Z</time>
      </trkpt>
      <trkpt lat="37.9765220" lon="-5.6646880">
        <ele>527.6</ele>
        <time>2022-05-22T13:59:52Z</time>
      </trkpt>
      <trkpt lat="37.9765310" lon="-5.6646870">
        <ele>527.6</ele>
        <time>2022-05-22T13:59:53Z</time>
      </trkpt>
      <trkpt lat="37.9765400" lon="-5.6646860">
        <ele>527.6</ele>
        <time>2022-05-22T13:59:54Z</time>
      </trkpt>
      <trkpt lat="37.9765680" lon="-5.6646910">
        <ele>527.7</ele>
        <time>2022-05-22T13:59:55Z</time>
      </trkpt>
      <trkpt lat="37.9765770" lon="-5.6646930">
        <ele>527.7</ele>
        <time>2022-05-22T13:59:56Z</time>
      </trkpt>
      <trkpt lat="37.9765900" lon="-5.6646950">
        <ele>527.7</ele>
        <time>2022-05-22T13:59:57Z</time>
      </trkpt>
      <trkpt lat="37.9766040" lon="-5.6646980">
        <ele>527.8</ele>
        <time>2022-05-22T13:59:58Z</time>
      </trkpt>
      <trkpt lat="37.9766180" lon="-5.6647020">
        <ele>527.8</ele>
        <time>2022-05-22T13:59:59Z</time>
      </trkpt>
      <trkpt lat="37.9766370" lon="-5.6647090">
        <ele>527.8</ele>
        <time>2022-05-22T14:00:00Z</time>
      </trkpt>
      <trkpt lat="37.9766500" lon="-5.6647130">
        <ele>527.9</ele>
        <time>2022-05-22T14:00:01Z</time>
      </trkpt>
      <trkpt lat="37.9766650" lon="-5.6647170">
        <ele>527.9</ele>
        <time>2022-05-22T14:00:02Z</time>
      </trkpt>
      <trkpt lat="37.9766930" lon="-5.6647270">
        <ele>528.0</ele>
        <time>2022-05-22T14:00:03Z</time>
      </trkpt>
      <trkpt lat="37.9767070" lon="-5.6647320">
        <ele>528.0</ele>
        <time>2022-05-22T14:00:05Z</time>
      </trkpt>
      <trkpt lat="37.9767210" lon="-5.6647380">
        <ele>528.1</ele>
        <time>2022-05-22T14:00:06Z</time>
      </trkpt>
      <trkpt lat="37.9767350" lon="-5.6647440">
        <ele>528.1</ele>
        <time>2022-05-22T14:00:07Z</time>
      </trkpt>
      <trkpt lat="37.9767510" lon="-5.6647530">
        <ele>528.2</ele>
        <time>2022-05-22T14:00:08Z</time>
      </trkpt>
      <trkpt lat="37.9767670" lon="-5.6647620">
        <ele>528.2</ele>
        <time>2022-05-22T14:00:09Z</time>
      </trkpt>
      <trkpt lat="37.9767820" lon="-5.6647700">
        <ele>528.2</ele>
        <time>2022-05-22T14:00:10Z</time>
      </trkpt>
      <trkpt lat="37.9767950" lon="-5.6647760">
        <ele>528.3</ele>
        <time>2022-05-22T14:00:11Z</time>
      </trkpt>
      <trkpt lat="37.9768120" lon="-5.6647840">
        <ele>528.3</ele>
        <time>2022-05-22T14:00:12Z</time>
      </trkpt>
      <trkpt lat="37.9768230" lon="-5.6647890">
        <ele>528.3</ele>
        <time>2022-05-22T14:00:13Z</time>
      </trkpt>
      <trkpt lat="37.9768450" lon="-5.6647990">
        <ele>528.4</ele>
        <time>2022-05-22T14:00:14Z</time>
      </trkpt>
      <trkpt lat="37.9768540" lon="-5.6648030">
        <ele>528.4</ele>
        <time>2022-05-22T14:00:15Z</time>
      </trkpt>
      <trkpt lat="37.9768630" lon="-5.6648060">
        <ele>528.5</ele>
        <time>2022-05-22T14:00:16Z</time>
      </trkpt>
      <trkpt lat="37.9768850" lon="-5.6648160">
        <ele>528.5</ele>
        <time>2022-05-22T14:00:17Z</time>
      </trkpt>
      <trkpt lat="37.9768920" lon="-5.6648200">
        <ele>528.5</ele>
        <time>2022-05-22T14:00:18Z</time>
      </trkpt>
      <trkpt lat="37.9768990" lon="-5.6648230">
        <ele>528.6</ele>
        <time>2022-05-22T14:00:19Z</time>
      </trkpt>
      <trkpt lat="37.9769140" lon="-5.6648290">
        <ele>528.6</ele>
        <time>2022-05-22T14:00:21Z</time>
      </trkpt>
      <trkpt lat="37.9769260" lon="-5.6648350">
        <ele>528.6</ele>
        <time>2022-05-22T14:00:22Z</time>
      </trkpt>
      <trkpt lat="37.9769440" lon="-5.6648450">
        <ele>528.7</ele>
        <time>2022-05-22T14:00:24Z</time>
      </trkpt>
      <trkpt lat="37.9769580" lon="-5.6648500">
        <ele>528.7</ele>
        <time>2022-05-22T14:00:25Z</time>
      </trkpt>
      <trkpt lat="37.9769720" lon="-5.6648550">
        <ele>528.8</ele>
        <time>2022-05-22T14:00:26Z</time>
      </trkpt>
      <trkpt lat="37.9769860" lon="-5.6648580">
        <ele>528.8</ele>
        <time>2022-05-22T14:00:27Z</time>
      </trkpt>
      <trkpt lat="37.9770170" lon="-5.6648690">
        <ele>528.9</ele>
        <time>2022-05-22T14:00:29Z</time>
      </trkpt>
      <trkpt lat="37.9770230" lon="-5.6648710">
        <ele>528.9</ele>
        <time>2022-05-22T14:00:30Z</time>
      </trkpt>
      <trkpt lat="37.9770440" lon="-5.6648760">
        <ele>529.0</ele>
        <time>2022-05-22T14:00:31Z</time>
      </trkpt>
      <trkpt lat="37.9770540" lon="-5.6648780">
        <ele>529.0</ele>
        <time>2022-05-22T14:00:32Z</time>
      </trkpt>
      <trkpt lat="37.9770630" lon="-5.6648790">
        <ele>529.0</ele>
        <time>2022-05-22T14:00:33Z</time>
      </trkpt>
      <trkpt lat="37.9770880" lon="-5.6648820">
        <ele>529.1</ele>
        <time>2022-05-22T14:00:35Z</time>
      </trkpt>
      <trkpt lat="37.9770970" lon="-5.6648800">
        <ele>529.1</ele>
        <time>2022-05-22T14:00:36Z</time>
      </trkpt>
      <trkpt lat="37.9771090" lon="-5.6648790">
        <ele>529.2</ele>
        <time>2022-05-22T14:00:37Z</time>
      </trkpt>
      <trkpt lat="37.9771190" lon="-5.6648810">
        <ele>529.2</ele>
        <time>2022-05-22T14:00:38Z</time>
      </trkpt>
      <trkpt lat="37.9771300" lon="-5.6648810">
        <ele>529.2</ele>
        <time>2022-05-22T14:00:39Z</time>
      </trkpt>
      <trkpt lat="37.9771430" lon="-5.6648800">
        <ele>529.3</ele>
        <time>2022-05-22T14:00:41Z</time>
      </trkpt>
      <trkpt lat="37.9771530" lon="-5.6648780">
        <ele>529.3</ele>
        <time>2022-05-22T14:00:42Z</time>
      </trkpt>
      <trkpt lat="37.9771660" lon="-5.6648750">
        <ele>529.3</ele>
        <time>2022-05-22T14:00:43Z</time>
      </trkpt>
      <trkpt lat="37.9771730" lon="-5.6648740">
        <ele>529.4</ele>
        <time>2022-05-22T14:00:44Z</time>
      </trkpt>
      <trkpt lat="37.9771830" lon="-5.6648730">
        <ele>529.4</ele>
        <time>2022-05-22T14:00:45Z</time>
      </trkpt>
      <trkpt lat="37.9771940" lon="-5.6648710">
        <ele>529.4</ele>
        <time>2022-05-22T14:00:46Z</time>
      </trkpt>
      <trkpt lat="37.9772050" lon="-5.6648710">
        <ele>529.5</ele>
        <time>2022-05-22T14:00:47Z</time>
      </trkpt>
      <trkpt lat="37.9772120" lon="-5.6648710">
        <ele>529.5</ele>
        <time>2022-05-22T14:00:48Z</time>
      </trkpt>
      <trkpt lat="37.9772150" lon="-5.6648660">
        <ele>529.5</ele>
        <time>2022-05-22T14:00:49Z</time>
      </trkpt>
      <trkpt lat="37.9772200" lon="-5.6648670">
        <ele>529.5</ele>
        <time>2022-05-22T14:00:50Z</time>
      </trkpt>
      <trkpt lat="37.9772240" lon="-5.6648780">
        <ele>529.5</ele>
        <time>2022-05-22T14:00:51Z</time>
      </trkpt>
      <trkpt lat="37.9772310" lon="-5.6648990">
        <ele>529.6</ele>
        <time>2022-05-22T14:00:52Z</time>
      </trkpt>
      <trkpt lat="37.9772370" lon="-5.6649070">
        <ele>529.6</ele>
        <time>2022-05-22T14:00:53Z</time>
      </trkpt>
      <trkpt lat="37.9772460" lon="-5.6649110">
        <ele>529.6</ele>
        <time>2022-05-22T14:00:54Z</time>
      </trkpt>
      <trkpt lat="37.9772610" lon="-5.6649150">
        <ele>529.7</ele>
        <time>2022-05-22T14:00:56Z</time>
      </trkpt>
      <trkpt lat="37.9772740" lon="-5.6649170">
        <ele>529.7</ele>
        <time>2022-05-22T14:00:57Z</time>
      </trkpt>
      <trkpt lat="37.9772930" lon="-5.6649220">
        <ele>529.8</ele>
        <time>2022-05-22T14:00:58Z</time>
      </trkpt>
      <trkpt lat="37.9773040" lon="-5.6649260">
        <ele>529.8</ele>
        <time>2022-05-22T14:00:59Z</time>
      </trkpt>
      <trkpt lat="37.9773180" lon="-5.6649310">
        <ele>529.9</ele>
        <time>2022-05-22T14:01:01Z</time>
      </trkpt>
      <trkpt lat="37.9773320" lon="-5.6649360">
        <ele>529.9</ele>
        <time>2022-05-22T14:01:02Z</time>
      </trkpt>
      <trkpt lat="37.9773510" lon="-5.6649430">
        <ele>530.0</ele>
        <time>2022-05-22T14:01:03Z</time>
      </trkpt>
      <trkpt lat="37.9773630" lon="-5.6649450">
        <ele>530.0</ele>
        <time>2022-05-22T14:01:04Z</time>
      </trkpt>
      <trkpt lat="37.9773770" lon="-5.6649480">
        <ele>530.0</ele>
        <time>2022-05-22T14:01:06Z</time>
      </trkpt>
      <trkpt lat="37.9773900" lon="-5.6649490">
        <ele>530.1</ele>
        <time>2022-05-22T14:01:07Z</time>
      </trkpt>
      <trkpt lat="37.9774010" lon="-5.6649510">
        <ele>530.1</ele>
        <time>2022-05-22T14:01:08Z</time>
      </trkpt>
      <trkpt lat="37.9774120" lon="-5.6649520">
        <ele>530.1</ele>
        <time>2022-05-22T14:01:09Z</time>
      </trkpt>
      <trkpt lat="37.9774200" lon="-5.6649530">
        <ele>530.2</ele>
        <time>2022-05-22T14:01:10Z</time>
      </trkpt>
      <trkpt lat="37.9774300" lon="-5.6649550">
        <ele>530.2</ele>
        <time>2022-05-22T14:01:11Z</time>
      </trkpt>
      <trkpt lat="37.9774400" lon="-5.6649560">
        <ele>530.2</ele>
        <time>2022-05-22T14:01:12Z</time>
      </trkpt>
      <trkpt lat="37.9774510" lon="-5.6649580">
        <ele>530.2</ele>
        <time>2022-05-22T14:01:13Z</time>
      </trkpt>
      <trkpt lat="37.9774610" lon="-5.6649580">
        <ele>530.3</ele>
        <time>2022-05-22T14:01:14Z</time>
      </trkpt>
      <trkpt lat="37.9774850" lon="-5.6649580">
        <ele>530.3</ele>
        <time>2022-05-22T14:01:16Z</time>
      </trkpt>
      <trkpt lat="37.9774980" lon="-5.6649560">
        <ele>530.4</ele>
        <time>2022-05-22T14:01:17Z</time>
      </trkpt>
      <trkpt lat="37.9775100" lon="-5.6649530">
        <ele>530.4</ele>
        <time>2022-05-22T14:01:18Z</time>
      </trkpt>
      <trkpt lat="37.9775200" lon="-5.6649520">
        <ele>530.4</ele>
        <time>2022-05-22T14:01:19Z</time>
      </trkpt>
      <trkpt lat="37.9775260" lon="-5.6649450">
        <ele>530.5</ele>
        <time>2022-05-22T14:01:20Z</time>
      </trkpt>
      <trkpt lat="37.9775290" lon="-5.6649380">
        <ele>530.5</ele>
        <time>2022-05-22T14:01:21Z</time>
      </trkpt>
      <trkpt lat="37.9775330" lon="-5.6649310">
        <ele>530.5</ele>
        <time>2022-05-22T14:01:22Z</time>
      </trkpt>
      <trkpt lat="37.9775360" lon="-5.6649260">
        <ele>530.5</ele>
        <time>2022-05-22T14:01:23Z</time>
      </trkpt>
      <trkpt lat="37.9775420" lon="-5.6649240">
        <ele>530.5</ele>
        <time>2022-05-22T14:01:24Z</time>
      </trkpt>
      <trkpt lat="37.9775600" lon="-5.6649360">
        <ele>530.6</ele>
        <time>2022-05-22T14:01:25Z</time>
      </trkpt>
      <trkpt lat="37.9775700" lon="-5.6649430">
        <ele>530.6</ele>
        <time>2022-05-22T14:01:26Z</time>
      </trkpt>
      <trkpt lat="37.9775790" lon="-5.6649500">
        <ele>530.7</ele>
        <time>2022-05-22T14:01:27Z</time>
      </trkpt>
      <trkpt lat="37.9775920" lon="-5.6649660">
        <ele>530.7</ele>
        <time>2022-05-22T14:01:29Z</time>
      </trkpt>
      <trkpt lat="37.9775980" lon="-5.6649710">
        <ele>530.7</ele>
        <time>2022-05-22T14:01:30Z</time>
      </trkpt>
      <trkpt lat="37.9776070" lon="-5.6649790">
        <ele>530.8</ele>
        <time>2022-05-22T14:01:32Z</time>
      </trkpt>
      <trkpt lat="37.9776130" lon="-5.6649820">
        <ele>530.8</ele>
        <time>2022-05-22T14:01:33Z</time>
      </trkpt>
      <trkpt lat="37.9776190" lon="-5.6649860">
        <ele>530.8</ele>
        <time>2022-05-22T14:01:34Z</time>
      </trkpt>
      <trkpt lat="37.9776270" lon="-5.6649910">
        <ele>530.8</ele>
        <time>2022-05-22T14:01:35Z</time>
      </trkpt>
      <trkpt lat="37.9776350" lon="-5.6649970">
        <ele>530.8</ele>
        <time>2022-05-22T14:01:36Z</time>
      </trkpt>
      <trkpt lat="37.9776530" lon="-5.6650100">
        <ele>530.9</ele>
        <time>2022-05-22T14:01:37Z</time>
      </trkpt>
      <trkpt lat="37.9776600" lon="-5.6650140">
        <ele>530.9</ele>
        <time>2022-05-22T14:01:38Z</time>
      </trkpt>
      <trkpt lat="37.9776670" lon="-5.6650190">
        <ele>530.9</ele>
        <time>2022-05-22T14:01:39Z</time>
      </trkpt>
      <trkpt lat="37.9777030" lon="-5.6650280">
        <ele>531.0</ele>
        <time>2022-05-22T14:01:41Z</time>
      </trkpt>
      <trkpt lat="37.9777140" lon="-5.6650460">
        <ele>531.1</ele>
        <time>2022-05-22T14:01:42Z</time>
      </trkpt>
      <trkpt lat="37.9777210" lon="-5.6650550">
        <ele>531.1</ele>
        <time>2022-05-22T14:01:44Z</time>
      </trkpt>
      <trkpt lat="37.9777280" lon="-5.6650640">
        <ele>531.1</ele>
        <time>2022-05-22T14:01:45Z</time>
      </trkpt>
      <trkpt lat="37.9777400" lon="-5.6650730">
        <ele>531.2</ele>
        <time>2022-05-22T14:01:46Z</time>
      </trkpt>
      <trkpt lat="37.9777510" lon="-5.6650790">
        <ele>531.2</ele>
        <time>2022-05-22T14:01:47Z</time>
      </trkpt>
      <trkpt lat="37.9777830" lon="-5.6650690">
        <ele>531.3</ele>
        <time>2022-05-22T14:01:49Z</time>
      </trkpt>
      <trkpt lat="37.9777950" lon="-5.6650610">
        <ele>531.3</ele>
        <time>2022-05-22T14:01:50Z</time>
      </trkpt>
      <trkpt lat="37.9778060" lon="-5.6650590">
        <ele>531.4</ele>
        <time>2022-05-22T14:01:51Z</time>
      </trkpt>
      <trkpt lat="37.9778160" lon="-5.6650550">
        <ele>531.4</ele>
        <time>2022-05-22T14:01:52Z</time>
      </trkpt>
      <trkpt lat="37.9778380" lon="-5.6650590">
        <ele>531.5</ele>
        <time>2022-05-22T14:01:54Z</time>
      </trkpt>
      <trkpt lat="37.9778480" lon="-5.6650620">
        <ele>531.5</ele>
        <time>2022-05-22T14:01:55Z</time>
      </trkpt>
      <trkpt lat="37.9778580" lon="-5.6650650">
        <ele>531.5</ele>
        <time>2022-05-22T14:01:56Z</time>
      </trkpt>
      <trkpt lat="37.9778720" lon="-5.6650660">
        <ele>531.5</ele>
        <time>2022-05-22T14:01:57Z</time>
      </trkpt>
      <trkpt lat="37.9778910" lon="-5.6650660">
        <ele>531.6</ele>
        <time>2022-05-22T14:01:58Z</time>
      </trkpt>
      <trkpt lat="37.9779090" lon="-5.6650650">
        <ele>531.6</ele>
        <time>2022-05-22T14:01:59Z</time>
      </trkpt>
      <trkpt lat="37.9779350" lon="-5.6650520">
        <ele>531.7</ele>
        <time>2022-05-22T14:02:01Z</time>
      </trkpt>
      <trkpt lat="37.9779480" lon="-5.6650420">
        <ele>531.8</ele>
        <time>2022-05-22T14:02:02Z</time>
      </trkpt>
      <trkpt lat="37.9779600" lon="-5.6650340">
        <ele>531.8</ele>
        <time>2022-05-22T14:02:03Z</time>
      </trkpt>
      <trkpt lat="37.9779690" lon="-5.6650270">
        <ele>531.8</ele>
        <time>2022-05-22T14:02:04Z</time>
      </trkpt>
      <trkpt lat="37.9779770" lon="-5.6650240">
        <ele>531.8</ele>
        <time>2022-05-22T14:02:05Z</time>
      </trkpt>
      <trkpt lat="37.9779820" lon="-5.6650220">
        <ele>531.9</ele>
        <time>2022-05-22T14:02:06Z</time>
      </trkpt>
      <trkpt lat="37.9779860" lon="-5.6650180">
        <ele>531.9</ele>
        <time>2022-05-22T14:02:07Z</time>
      </trkpt>
      <trkpt lat="37.9779960" lon="-5.6650150">
        <ele>531.9</ele>
        <time>2022-05-22T14:02:08Z</time>
      </trkpt>
      <trkpt lat="37.9780070" lon="-5.6650180">
        <ele>531.9</ele>
        <time>2022-05-22T14:02:10Z</time>
      </trkpt>
      <trkpt lat="37.9780160" lon="-5.6650250">
        <ele>532.0</ele>
        <time>2022-05-22T14:02:11Z</time>
      </trkpt>
      <trkpt lat="37.9780290" lon="-5.6650330">
        <ele>532.0</ele>
        <time>2022-05-22T14:02:12Z</time>
      </trkpt>
      <trkpt lat="37.9780450" lon="-5.6650410">
        <ele>532.0</ele>
        <time>2022-05-22T14:02:13Z</time>
      </trkpt>
      <trkpt lat="37.9780590" lon="-5.6650480">
        <ele>532.1</ele>
        <time>2022-05-22T14:02:14Z</time>
      </trkpt>
      <trkpt lat="37.9780710" lon="-5.6650530">
        <ele>532.1</ele>
        <time>2022-05-22T14:02:15Z</time>
      </trkpt>
      <trkpt lat="37.9781030" lon="-5.6650580">
        <ele>532.2</ele>
        <time>2022-05-22T14:02:16Z</time>
      </trkpt>
      <trkpt lat="37.9781170" lon="-5.6650610">
        <ele>532.2</ele>
        <time>2022-05-22T14:02:17Z</time>
      </trkpt>
      <trkpt lat="37.9781320" lon="-5.6650690">
        <ele>532.3</ele>
        <time>2022-05-22T14:02:18Z</time>
      </trkpt>
      <trkpt lat="37.9781450" lon="-5.6650780">
        <ele>532.3</ele>
        <time>2022-05-22T14:02:19Z</time>
      </trkpt>
      <trkpt lat="37.9781620" lon="-5.6650850">
        <ele>532.4</ele>
        <time>2022-05-22T14:02:20Z</time>
      </trkpt>
      <trkpt lat="37.9781770" lon="-5.6650890">
        <ele>532.4</ele>
        <time>2022-05-22T14:02:22Z</time>
      </trkpt>
      <trkpt lat="37.9782030" lon="-5.6650940">
        <ele>532.5</ele>
        <time>2022-05-22T14:02:23Z</time>
      </trkpt>
      <trkpt lat="37.9782180" lon="-5.6650970">
        <ele>532.5</ele>
        <time>2022-05-22T14:02:24Z</time>
      </trkpt>
      <trkpt lat="37.9782340" lon="-5.6651020">
        <ele>532.6</ele>
        <time>2022-05-22T14:02:25Z</time>
      </trkpt>
      <trkpt lat="37.9782510" lon="-5.6651070">
        <ele>532.6</ele>
        <time>2022-05-22T14:02:26Z</time>
      </trkpt>
      <trkpt lat="37.9782690" lon="-5.6651110">
        <ele>532.7</ele>
        <time>2022-05-22T14:02:28Z</time>
      </trkpt>
      <trkpt lat="37.9782860" lon="-5.6651170">
        <ele>532.7</ele>
        <time>2022-05-22T14:02:29Z</time>
      </trkpt>
      <trkpt lat="37.9783000" lon="-5.6651220">
        <ele>532.8</ele>
        <time>2022-05-22T14:02:30Z</time>
      </trkpt>
      <trkpt lat="37.9783150" lon="-5.6651280">
        <ele>532.8</ele>
        <time>2022-05-22T14:02:31Z</time>
      </trkpt>
      <trkpt lat="37.9783300" lon="-5.6651350">
        <ele>532.9</ele>
        <time>2022-05-22T14:02:32Z</time>
      </trkpt>
      <trkpt lat="37.9783430" lon="-5.6651390">
        <ele>532.9</ele>
        <time>2022-05-22T14:02:33Z</time>
      </trkpt>
      <trkpt lat="37.9783610" lon="-5.6651460">
        <ele>532.9</ele>
        <time>2022-05-22T14:02:34Z</time>
      </trkpt>
      <trkpt lat="37.9783710" lon="-5.6651490">
        <ele>533.0</ele>
        <time>2022-05-22T14:02:35Z</time>
      </trkpt>
      <trkpt lat="37.9783840" lon="-5.6651550">
        <ele>533.0</ele>
        <time>2022-05-22T14:02:36Z</time>
      </trkpt>
      <trkpt lat="37.9783950" lon="-5.6651580">
        <ele>533.0</ele>
        <time>2022-05-22T14:02:37Z</time>
      </trkpt>
      <trkpt lat="37.9784180" lon="-5.6651660">
        <ele>533.1</ele>
        <time>2022-05-22T14:02:38Z</time>
      </trkpt>
      <trkpt lat="37.9784290" lon="-5.6651700">
        <ele>533.1</ele>
        <time>2022-05-22T14:02:40Z</time>
      </trkpt>
      <trkpt lat="37.9784400" lon="-5.6651730">
        <ele>533.1</ele>
        <time>2022-05-22T14:02:41Z</time>
      </trkpt>
      <trkpt lat="37.9784510" lon="-5.6651770">
        <ele>533.2</ele>
        <time>2022-05-22T14:02:42Z</time>
      </trkpt>
      <trkpt lat="37.9784620" lon="-5.6651800">
        <ele>533.2</ele>
        <time>2022-05-22T14:02:43Z</time>
      </trkpt>
      <trkpt lat="37.9784800" lon="-5.6651830">
        <ele>533.2</ele>
        <time>2022-05-22T14:02:44Z</time>
      </trkpt>
      <trkpt lat="37.9785030" lon="-5.6651840">
        <ele>533.3</ele>
        <time>2022-05-22T14:02:46Z</time>
      </trkpt>
      <trkpt lat="37.9785060" lon="-5.6651780">
        <ele>533.3</ele>
        <time>2022-05-22T14:02:47Z</time>
      </trkpt>
      <trkpt lat="37.9785070" lon="-5.6651740">
        <ele>533.3</ele>
        <time>2022-05-22T14:02:48Z</time>
      </trkpt>
      <trkpt lat="37.9785040" lon="-5.6651730">
        <ele>533.3</ele>
        <time>2022-05-22T14:02:49Z</time>
      </trkpt>
      <trkpt lat="37.9785020" lon="-5.6651730">
        <ele>533.3</ele>
        <time>2022-05-22T14:02:51Z</time>
      </trkpt>
      <trkpt lat="37.9785030" lon="-5.6651730">
        <ele>533.3</ele>
        <time>2022-05-22T14:02:52Z</time>
      </trkpt>
      <trkpt lat="37.9785110" lon="-5.6651740">
        <ele>533.4</ele>
        <time>2022-05-22T14:02:53Z</time>
      </trkpt>
      <trkpt lat="37.9785230" lon="-5.6651750">
        <ele>533.4</ele>
        <time>2022-05-22T14:02:54Z</time>
      </trkpt>
      <trkpt lat="37.9785350" lon="-5.6651760">
        <ele>533.4</ele>
        <time>2022-05-22T14:02:55Z</time>
      </trkpt>
      <trkpt lat="37.9785460" lon="-5.6651760">
        <ele>533.4</ele>
        <time>2022-05-22T14:02:56Z</time>
      </trkpt>
      <trkpt lat="37.9785620" lon="-5.6651760">
        <ele>533.5</ele>
        <time>2022-05-22T14:02:57Z</time>
      </trkpt>
      <trkpt lat="37.9785700" lon="-5.6651760">
        <ele>533.5</ele>
        <time>2022-05-22T14:02:58Z</time>
      </trkpt>
      <trkpt lat="37.9786000" lon="-5.6651780">
        <ele>533.6</ele>
        <time>2022-05-22T14:02:59Z</time>
      </trkpt>
      <trkpt lat="37.9786140" lon="-5.6651790">
        <ele>533.6</ele>
        <time>2022-05-22T14:03:01Z</time>
      </trkpt>
      <trkpt lat="37.9786290" lon="-5.6651800">
        <ele>533.6</ele>
        <time>2022-05-22T14:03:02Z</time>
      </trkpt>
      <trkpt lat="37.9786440" lon="-5.6651820">
        <ele>533.7</ele>
        <time>2022-05-22T14:03:03Z</time>
      </trkpt>
      <trkpt lat="37.9786720" lon="-5.6651860">
        <ele>533.7</ele>
        <time>2022-05-22T14:03:04Z</time>
      </trkpt>
      <trkpt lat="37.9786830" lon="-5.6651880">
        <ele>533.8</ele>
        <time>2022-05-22T14:03:05Z</time>
      </trkpt>
      <trkpt lat="37.9787000" lon="-5.6651900">
        <ele>533.8</ele>
        <time>2022-05-22T14:03:06Z</time>
      </trkpt>
      <trkpt lat="37.9787170" lon="-5.6651940">
        <ele>533.8</ele>
        <time>2022-05-22T14:03:07Z</time>
      </trkpt>
      <trkpt lat="37.9787490" lon="-5.6652010">
        <ele>533.9</ele>
        <time>2022-05-22T14:03:08Z</time>
      </trkpt>
      <trkpt lat="37.9787570" lon="-5.6652020">
        <ele>533.9</ele>
        <time>2022-05-22T14:03:09Z</time>
      </trkpt>
      <trkpt lat="37.9787730" lon="-5.6652060">
        <ele>534.0</ele>
        <time>2022-05-22T14:03:10Z</time>
      </trkpt>
      <trkpt lat="37.9787890" lon="-5.6652100">
        <ele>534.0</ele>
        <time>2022-05-22T14:03:11Z</time>
      </trkpt>
      <trkpt lat="37.9788170" lon="-5.6652180">
        <ele>534.1</ele>
        <time>2022-05-22T14:03:12Z</time>
      </trkpt>
      <trkpt lat="37.9788270" lon="-5.6652210">
        <ele>534.1</ele>
        <time>2022-05-22T14:03:13Z</time>
      </trkpt>
      <trkpt lat="37.9788550" lon="-5.6652300">
        <ele>534.2</ele>
        <time>2022-05-22T14:03:15Z</time>
      </trkpt>
      <trkpt lat="37.9788750" lon="-5.6652310">
        <ele>534.2</ele>
        <time>2022-05-22T14:03:16Z</time>
      </trkpt>
      <trkpt lat="37.9788890" lon="-5.6652310">
        <ele>534.2</ele>
        <time>2022-05-22T14:03:17Z</time>
      </trkpt>
      <trkpt lat="37.9789040" lon="-5.6652300">
        <ele>534.3</ele>
        <time>2022-05-22T14:03:18Z</time>
      </trkpt>
      <trkpt lat="37.9789210" lon="-5.6652260">
        <ele>534.3</ele>
        <time>2022-05-22T14:03:19Z</time>
      </trkpt>
      <trkpt lat="37.9789440" lon="-5.6652220">
        <ele>534.4</ele>
        <time>2022-05-22T14:03:21Z</time>
      </trkpt>
      <trkpt lat="37.9789560" lon="-5.6652190">
        <ele>534.4</ele>
        <time>2022-05-22T14:03:22Z</time>
      </trkpt>
      <trkpt lat="37.9789670" lon="-5.6652170">
        <ele>534.4</ele>
        <time>2022-05-22T14:03:23Z</time>
      </trkpt>
      <trkpt lat="37.9789790" lon="-5.6652180">
        <ele>534.4</ele>
        <time>2022-05-22T14:03:24Z</time>
      </trkpt>
      <trkpt lat="37.9790030" lon="-5.6652190">
        <ele>534.5</ele>
        <time>2022-05-22T14:03:26Z</time>
      </trkpt>
      <trkpt lat="37.9790240" lon="-5.6652180">
        <ele>534.5</ele>
        <time>2022-05-22T14:03:27Z</time>
      </trkpt>
      <trkpt lat="37.9790340" lon="-5.6652180">
        <ele>534.6</ele>
        <time>2022-05-22T14:03:28Z</time>
      </trkpt>
      <trkpt lat="37.9790440" lon="-5.6652190">
        <ele>534.6</ele>
        <time>2022-05-22T14:03:29Z</time>
      </trkpt>
      <trkpt lat="37.9790600" lon="-5.6652190">
        <ele>534.6</ele>
        <time>2022-05-22T14:03:30Z</time>
      </trkpt>
      <trkpt lat="37.9790750" lon="-5.6652200">
        <ele>534.7</ele>
        <time>2022-05-22T14:03:31Z</time>
      </trkpt>
      <trkpt lat="37.9791060" lon="-5.6652230">
        <ele>534.7</ele>
        <time>2022-05-22T14:03:33Z</time>
      </trkpt>
      <trkpt lat="37.9791140" lon="-5.6652240">
        <ele>534.8</ele>
        <time>2022-05-22T14:03:34Z</time>
      </trkpt>
      <trkpt lat="37.9791280" lon="-5.6652260">
        <ele>534.8</ele>
        <time>2022-05-22T14:03:35Z</time>
      </trkpt>
      <trkpt lat="37.9791410" lon="-5.6652250">
        <ele>534.8</ele>
        <time>2022-05-22T14:03:36Z</time>
      </trkpt>
      <trkpt lat="37.9791570" lon="-5.6652310">
        <ele>534.9</ele>
        <time>2022-05-22T14:03:37Z</time>
      </trkpt>
      <trkpt lat="37.9791670" lon="-5.6652330">
        <ele>534.9</ele>
        <time>2022-05-22T14:03:39Z</time>
      </trkpt>
      <trkpt lat="37.9791760" lon="-5.6652350">
        <ele>534.9</ele>
        <time>2022-05-22T14:03:40Z</time>
      </trkpt>
      <trkpt lat="37.9791970" lon="-5.6652430">
        <ele>535.0</ele>
        <time>2022-05-22T14:03:41Z</time>
      </trkpt>
      <trkpt lat="37.9792060" lon="-5.6652470">
        <ele>535.0</ele>
        <time>2022-05-22T14:03:42Z</time>
      </trkpt>
      <trkpt lat="37.9792150" lon="-5.6652510">
        <ele>535.1</ele>
        <time>2022-05-22T14:03:43Z</time>
      </trkpt>
      <trkpt lat="37.9792160" lon="-5.6652590">
        <ele>535.1</ele>
        <time>2022-05-22T14:03:44Z</time>
      </trkpt>
      <trkpt lat="37.9792210" lon="-5.6652650">
        <ele>535.1</ele>
        <time>2022-05-22T14:03:45Z</time>
      </trkpt>
      <trkpt lat="37.9792300" lon="-5.6652730">
        <ele>535.1</ele>
        <time>2022-05-22T14:03:46Z</time>
      </trkpt>
      <trkpt lat="37.9792420" lon="-5.6652810">
        <ele>535.2</ele>
        <time>2022-05-22T14:03:47Z</time>
      </trkpt>
      <trkpt lat="37.9792510" lon="-5.6652870">
        <ele>535.2</ele>
        <time>2022-05-22T14:03:48Z</time>
      </trkpt>
      <trkpt lat="37.9792690" lon="-5.6652980">
        <ele>535.2</ele>
        <time>2022-05-22T14:03:49Z</time>
      </trkpt>
      <trkpt lat="37.9792820" lon="-5.6653040">
        <ele>535.3</ele>
        <time>2022-05-22T14:03:51Z</time>
      </trkpt>
      <trkpt lat="37.9792950" lon="-5.6653100">
        <ele>535.3</ele>
        <time>2022-05-22T14:03:52Z</time>
      </trkpt>
      <trkpt lat="37.9793090" lon="-5.6653150">
        <ele>535.4</ele>
        <time>2022-05-22T14:03:53Z</time>
      </trkpt>
      <trkpt lat="37.9793210" lon="-5.6653190">
        <ele>535.4</ele>
        <time>2022-05-22T14:03:54Z</time>
      </trkpt>
      <trkpt lat="37.9793400" lon="-5.6653230">
        <ele>535.4</ele>
        <time>2022-05-22T14:03:55Z</time>
      </trkpt>
      <trkpt lat="37.9793520" lon="-5.6653260">
        <ele>535.5</ele>
        <time>2022-05-22T14:03:56Z</time>
      </trkpt>
      <trkpt lat="37.9793660" lon="-5.6653280">
        <ele>535.5</ele>
        <time>2022-05-22T14:03:57Z</time>
      </trkpt>
      <trkpt lat="37.9793800" lon="-5.6653290">
        <ele>535.6</ele>
        <time>2022-05-22T14:03:58Z</time>
      </trkpt>
      <trkpt lat="37.9793970" lon="-5.6653310">
        <ele>535.6</ele>
        <time>2022-05-22T14:04:00Z</time>
      </trkpt>
      <trkpt lat="37.9794130" lon="-5.6653340">
        <ele>535.6</ele>
        <time>2022-05-22T14:04:01Z</time>
      </trkpt>
      <trkpt lat="37.9794340" lon="-5.6653370">
        <ele>535.7</ele>
        <time>2022-05-22T14:04:02Z</time>
      </trkpt>
      <trkpt lat="37.9794420" lon="-5.6653380">
        <ele>535.7</ele>
        <time>2022-05-22T14:04:03Z</time>
      </trkpt>
      <trkpt lat="37.9794500" lon="-5.6653380">
        <ele>535.7</ele>
        <time>2022-05-22T14:04:04Z</time>
      </trkpt>
      <trkpt lat="37.9794730" lon="-5.6653390">
        <ele>535.8</ele>
        <time>2022-05-22T14:04:06Z</time>
      </trkpt>
      <trkpt lat="37.9794780" lon="-5.6653370">
        <ele>535.8</ele>
        <time>2022-05-22T14:04:07Z</time>
      </trkpt>
      <trkpt lat="37.9794890" lon="-5.6653360">
        <ele>535.8</ele>
        <time>2022-05-22T14:04:08Z</time>
      </trkpt>
      <trkpt lat="37.9795020" lon="-5.6653380">
        <ele>535.9</ele>
        <time>2022-05-22T14:04:10Z</time>
      </trkpt>
      <trkpt lat="37.9795130" lon="-5.6653400">
        <ele>535.9</ele>
        <time>2022-05-22T14:04:11Z</time>
      </trkpt>
      <trkpt lat="37.9795280" lon="-5.6653450">
        <ele>535.9</ele>
        <time>2022-05-22T14:04:12Z</time>
      </trkpt>
      <trkpt lat="37.9795390" lon="-5.6653470">
        <ele>536.0</ele>
        <time>2022-05-22T14:04:13Z</time>
      </trkpt>
      <trkpt lat="37.9795520" lon="-5.6653500">
        <ele>536.0</ele>
        <time>2022-05-22T14:04:14Z</time>
      </trkpt>
      <trkpt lat="37.9795590" lon="-5.6653520">
        <ele>536.0</ele>
        <time>2022-05-22T14:04:15Z</time>
      </trkpt>
      <trkpt lat="37.9795660" lon="-5.6653530">
        <ele>536.0</ele>
        <time>2022-05-22T14:04:17Z</time>
      </trkpt>
      <trkpt lat="37.9795800" lon="-5.6653550">
        <ele>536.1</ele>
        <time>2022-05-22T14:04:18Z</time>
      </trkpt>
      <trkpt lat="37.9795910" lon="-5.6653570">
        <ele>536.1</ele>
        <time>2022-05-22T14:04:19Z</time>
      </trkpt>
      <trkpt lat="37.9796050" lon="-5.6653600">
        <ele>536.1</ele>
        <time>2022-05-22T14:04:21Z</time>
      </trkpt>
      <trkpt lat="37.9796210" lon="-5.6653620">
        <ele>536.2</ele>
        <time>2022-05-22T14:04:22Z</time>
      </trkpt>
      <trkpt lat="37.9796360" lon="-5.6653660">
        <ele>536.2</ele>
        <time>2022-05-22T14:04:23Z</time>
      </trkpt>
      <trkpt lat="37.9796490" lon="-5.6653690">
        <ele>536.2</ele>
        <time>2022-05-22T14:04:24Z</time>
      </trkpt>
      <trkpt lat="37.9796640" lon="-5.6653760">
        <ele>536.3</ele>
        <time>2022-05-22T14:04:25Z</time>
      </trkpt>
      <trkpt lat="37.9796740" lon="-5.6653830">
        <ele>536.3</ele>
        <time>2022-05-22T14:04:26Z</time>
      </trkpt>
      <trkpt lat="37.9796890" lon="-5.6653910">
        <ele>536.3</ele>
        <time>2022-05-22T14:04:28Z</time>
      </trkpt>
      <trkpt lat="37.9797030" lon="-5.6654040">
        <ele>536.4</ele>
        <time>2022-05-22T14:04:29Z</time>
      </trkpt>
      <trkpt lat="37.9797120" lon="-5.6654110">
        <ele>536.4</ele>
        <time>2022-05-22T14:04:30Z</time>
      </trkpt>
      <trkpt lat="37.9797290" lon="-5.6654230">
        <ele>536.5</ele>
        <time>2022-05-22T14:04:31Z</time>
      </trkpt>
      <trkpt lat="37.9797380" lon="-5.6654280">
        <ele>536.5</ele>
        <time>2022-05-22T14:04:32Z</time>
      </trkpt>
      <trkpt lat="37.9797470" lon="-5.6654340">
        <ele>536.5</ele>
        <time>2022-05-22T14:04:33Z</time>
      </trkpt>
      <trkpt lat="37.9797730" lon="-5.6654490">
        <ele>536.6</ele>
        <time>2022-05-22T14:04:35Z</time>
      </trkpt>
      <trkpt lat="37.9797800" lon="-5.6654540">
        <ele>536.6</ele>
        <time>2022-05-22T14:04:36Z</time>
      </trkpt>
      <trkpt lat="37.9798070" lon="-5.6654660">
        <ele>536.7</ele>
        <time>2022-05-22T14:04:37Z</time>
      </trkpt>
      <trkpt lat="37.9798160" lon="-5.6654700">
        <ele>536.7</ele>
        <time>2022-05-22T14:04:38Z</time>
      </trkpt>
      <trkpt lat="37.9798450" lon="-5.6654860">
        <ele>536.8</ele>
        <time>2022-05-22T14:04:39Z</time>
      </trkpt>
      <trkpt lat="37.9798550" lon="-5.6654920">
        <ele>536.8</ele>
        <time>2022-05-22T14:04:40Z</time>
      </trkpt>
      <trkpt lat="37.9798680" lon="-5.6655000">
        <ele>536.9</ele>
        <time>2022-05-22T14:04:41Z</time>
      </trkpt>
      <trkpt lat="37.9798790" lon="-5.6655070">
        <ele>536.9</ele>
        <time>2022-05-22T14:04:42Z</time>
      </trkpt>
      <trkpt lat="37.9799000" lon="-5.6655210">
        <ele>537.0</ele>
        <time>2022-05-22T14:04:44Z</time>
      </trkpt>
      <trkpt lat="37.9799280" lon="-5.6655350">
        <ele>537.0</ele>
        <time>2022-05-22T14:04:45Z</time>
      </trkpt>
      <trkpt lat="37.9799360" lon="-5.6655380">
        <ele>537.1</ele>
        <time>2022-05-22T14:04:46Z</time>
      </trkpt>
      <trkpt lat="37.9799510" lon="-5.6655420">
        <ele>537.1</ele>
        <time>2022-05-22T14:04:47Z</time>
      </trkpt>
      <trkpt lat="37.9799730" lon="-5.6655510">
        <ele>537.2</ele>
        <time>2022-05-22T14:04:49Z</time>
      </trkpt>
      <trkpt lat="37.9800040" lon="-5.6655650">
        <ele>537.2</ele>
        <time>2022-05-22T14:04:51Z</time>
      </trkpt>
      <trkpt lat="37.9800130" lon="-5.6655680">
        <ele>537.3</ele>
        <time>2022-05-22T14:04:52Z</time>
      </trkpt>
      <trkpt lat="37.9800300" lon="-5.6655720">
        <ele>537.3</ele>
        <time>2022-05-22T14:04:53Z</time>
      </trkpt>
      <trkpt lat="37.9800620" lon="-5.6655840">
        <ele>537.4</ele>
        <time>2022-05-22T14:04:55Z</time>
      </trkpt>
      <trkpt lat="37.9800760" lon="-5.6655910">
        <ele>537.4</ele>
        <time>2022-05-22T14:04:57Z</time>
      </trkpt>
      <trkpt lat="37.9800900" lon="-5.6655970">
        <ele>537.5</ele>
        <time>2022-05-22T14:04:58Z</time>
      </trkpt>
      <trkpt lat="37.9801020" lon="-5.6656020">
        <ele>537.5</ele>
        <time>2022-05-22T14:04:59Z</time>
      </trkpt>
      <trkpt lat="37.9801230" lon="-5.6656110">
        <ele>537.6</ele>
        <time>2022-05-22T14:05:00Z</time>
      </trkpt>
      <trkpt lat="37.9801320" lon="-5.6656150">
        <ele>537.6</ele>
        <time>2022-05-22T14:05:01Z</time>
      </trkpt>
      <trkpt lat="37.9801410" lon="-5.6656180">
        <ele>537.6</ele>
        <time>2022-05-22T14:05:02Z</time>
      </trkpt>
      <trkpt lat="37.9801760" lon="-5.6656320">
        <ele>537.7</ele>
        <time>2022-05-22T14:05:04Z</time>
      </trkpt>
      <trkpt lat="37.9801850" lon="-5.6656370">
        <ele>537.7</ele>
        <time>2022-05-22T14:05:05Z</time>
      </trkpt>
      <trkpt lat="37.9801940" lon="-5.6656410">
        <ele>537.7</ele>
        <time>2022-05-22T14:05:06Z</time>
      </trkpt>
      <trkpt lat="37.9802040" lon="-5.6656450">
        <ele>537.8</ele>
        <time>2022-05-22T14:05:07Z</time>
      </trkpt>
      <trkpt lat="37.9802180" lon="-5.6656540">
        <ele>537.8</ele>
        <time>2022-05-22T14:05:08Z</time>
      </trkpt>
      <trkpt lat="37.9802370" lon="-5.6656740">
        <ele>537.9</ele>
        <time>2022-05-22T14:05:10Z</time>
      </trkpt>
      <trkpt lat="37.9802490" lon="-5.6656860">
        <ele>537.9</ele>
        <time>2022-05-22T14:05:11Z</time>
      </trkpt>
      <trkpt lat="37.9802610" lon="-5.6656970">
        <ele>537.9</ele>
        <time>2022-05-22T14:05:12Z</time>
      </trkpt>
      <trkpt lat="37.9802760" lon="-5.6657070">
        <ele>538.0</ele>
        <time>2022-05-22T14:05:14Z</time>
      </trkpt>
      <trkpt lat="37.9802910" lon="-5.6657140">
        <ele>538.0</ele>
        <time>2022-05-22T14:05:15Z</time>
      </trkpt>
      <trkpt lat="37.9803200" lon="-5.6657400">
        <ele>538.1</ele>
        <time>2022-05-22T14:05:17Z</time>
      </trkpt>
      <trkpt lat="37.9803270" lon="-5.6657510">
        <ele>538.2</ele>
        <time>2022-05-22T14:05:18Z</time>
      </trkpt>
      <trkpt lat="37.9803390" lon="-5.6657610">
        <ele>538.2</ele>
        <time>2022-05-22T14:05:19Z</time>
      </trkpt>
      <trkpt lat="37.9803520" lon="-5.6657700">
        <ele>538.2</ele>
        <time>2022-05-22T14:05:20Z</time>
      </trkpt>
      <trkpt lat="37.9803690" lon="-5.6657850">
        <ele>538.3</ele>
        <time>2022-05-22T14:05:21Z</time>
      </trkpt>
      <trkpt lat="37.9803760" lon="-5.6657920">
        <ele>538.3</ele>
        <time>2022-05-22T14:05:22Z</time>
      </trkpt>
      <trkpt lat="37.9803840" lon="-5.6657990">
        <ele>538.3</ele>
        <time>2022-05-22T14:05:23Z</time>
      </trkpt>
      <trkpt lat="37.9803980" lon="-5.6658120">
        <ele>538.4</ele>
        <time>2022-05-22T14:05:25Z</time>
      </trkpt>
      <trkpt lat="37.9804090" lon="-5.6658230">
        <ele>538.4</ele>
        <time>2022-05-22T14:05:26Z</time>
      </trkpt>
      <trkpt lat="37.9804160" lon="-5.6658370">
        <ele>538.4</ele>
        <time>2022-05-22T14:05:27Z</time>
      </trkpt>
      <trkpt lat="37.9804230" lon="-5.6658470">
        <ele>538.5</ele>
        <time>2022-05-22T14:05:28Z</time>
      </trkpt>
      <trkpt lat="37.9804310" lon="-5.6658580">
        <ele>538.5</ele>
        <time>2022-05-22T14:05:29Z</time>
      </trkpt>
      <trkpt lat="37.9804340" lon="-5.6658690">
        <ele>538.5</ele>
        <time>2022-05-22T14:05:30Z</time>
      </trkpt>
      <trkpt lat="37.9804350" lon="-5.6658780">
        <ele>538.5</ele>
        <time>2022-05-22T14:05:31Z</time>
      </trkpt>
      <trkpt lat="37.9804420" lon="-5.6658920">
        <ele>538.6</ele>
        <time>2022-05-22T14:05:32Z</time>
      </trkpt>
      <trkpt lat="37.9804480" lon="-5.6659010">
        <ele>538.6</ele>
        <time>2022-05-22T14:05:33Z</time>
      </trkpt>
      <trkpt lat="37.9804590" lon="-5.6659120">
        <ele>538.6</ele>
        <time>2022-05-22T14:05:35Z</time>
      </trkpt>
      <trkpt lat="37.9804660" lon="-5.6659200">
        <ele>538.7</ele>
        <time>2022-05-22T14:05:36Z</time>
      </trkpt>
      <trkpt lat="37.9804840" lon="-5.6659340">
        <ele>538.7</ele>
        <time>2022-05-22T14:05:37Z</time>
      </trkpt>
      <trkpt lat="37.9804920" lon="-5.6659390">
        <ele>538.7</ele>
        <time>2022-05-22T14:05:38Z</time>
      </trkpt>
      <trkpt lat="37.9804990" lon="-5.6659450">
        <ele>538.8</ele>
        <time>2022-05-22T14:05:39Z</time>
      </trkpt>
      <trkpt lat="37.9805120" lon="-5.6659580">
        <ele>538.8</ele>
        <time>2022-05-22T14:05:40Z</time>
      </trkpt>
      <trkpt lat="37.9805200" lon="-5.6659630">
        <ele>538.8</ele>
        <time>2022-05-22T14:05:41Z</time>
      </trkpt>
      <trkpt lat="37.9805310" lon="-5.6659730">
        <ele>538.9</ele>
        <time>2022-05-22T14:05:43Z</time>
      </trkpt>
      <trkpt lat="37.9805380" lon="-5.6659820">
        <ele>538.9</ele>
        <time>2022-05-22T14:05:44Z</time>
      </trkpt>
      <trkpt lat="37.9805510" lon="-5.6659950">
        <ele>539.0</ele>
        <time>2022-05-22T14:05:45Z</time>
      </trkpt>
      <trkpt lat="37.9805670" lon="-5.6660050">
        <ele>539.0</ele>
        <time>2022-05-22T14:05:46Z</time>
      </trkpt>
      <trkpt lat="37.9805800" lon="-5.6660110">
        <ele>539.0</ele>
        <time>2022-05-22T14:05:48Z</time>
      </trkpt>
      <trkpt lat="37.9805920" lon="-5.6660150">
        <ele>539.1</ele>
        <time>2022-05-22T14:05:49Z</time>
      </trkpt>
      <trkpt lat="37.9806050" lon="-5.6660210">
        <ele>539.1</ele>
        <time>2022-05-22T14:05:50Z</time>
      </trkpt>
      <trkpt lat="37.9806270" lon="-5.6660340">
        <ele>539.2</ele>
        <time>2022-05-22T14:05:52Z</time>
      </trkpt>
      <trkpt lat="37.9806460" lon="-5.6660440">
        <ele>539.2</ele>
        <time>2022-05-22T14:05:53Z</time>
      </trkpt>
      <trkpt lat="37.9806530" lon="-5.6660490">
        <ele>539.3</ele>
        <time>2022-05-22T14:05:54Z</time>
      </trkpt>
      <trkpt lat="37.9806610" lon="-5.6660530">
        <ele>539.3</ele>
        <time>2022-05-22T14:05:55Z</time>
      </trkpt>
      <trkpt lat="37.9806750" lon="-5.6660630">
        <ele>539.3</ele>
        <time>2022-05-22T14:05:56Z</time>
      </trkpt>
      <trkpt lat="37.9806890" lon="-5.6660720">
        <ele>539.4</ele>
        <time>2022-05-22T14:05:57Z</time>
      </trkpt>
      <trkpt lat="37.9807030" lon="-5.6660800">
        <ele>539.4</ele>
        <time>2022-05-22T14:05:58Z</time>
      </trkpt>
      <trkpt lat="37.9807140" lon="-5.6660880">
        <ele>539.4</ele>
        <time>2022-05-22T14:05:59Z</time>
      </trkpt>
      <trkpt lat="37.9807270" lon="-5.6660990">
        <ele>539.5</ele>
        <time>2022-05-22T14:06:01Z</time>
      </trkpt>
      <trkpt lat="37.9807380" lon="-5.6661080">
        <ele>539.5</ele>
        <time>2022-05-22T14:06:02Z</time>
      </trkpt>
      <trkpt lat="37.9807470" lon="-5.6661180">
        <ele>539.6</ele>
        <time>2022-05-22T14:06:03Z</time>
      </trkpt>
      <trkpt lat="37.9807620" lon="-5.6661340">
        <ele>539.6</ele>
        <time>2022-05-22T14:06:04Z</time>
      </trkpt>
      <trkpt lat="37.9807790" lon="-5.6661530">
        <ele>539.7</ele>
        <time>2022-05-22T14:06:05Z</time>
      </trkpt>
      <trkpt lat="37.9807860" lon="-5.6661610">
        <ele>539.7</ele>
        <time>2022-05-22T14:06:06Z</time>
      </trkpt>
      <trkpt lat="37.9807940" lon="-5.6661690">
        <ele>539.7</ele>
        <time>2022-05-22T14:06:07Z</time>
      </trkpt>
      <trkpt lat="37.9808110" lon="-5.6661880">
        <ele>539.8</ele>
        <time>2022-05-22T14:06:08Z</time>
      </trkpt>
      <trkpt lat="37.9808200" lon="-5.6661970">
        <ele>539.8</ele>
        <time>2022-05-22T14:06:10Z</time>
      </trkpt>
      <trkpt lat="37.9808280" lon="-5.6662060">
        <ele>539.9</ele>
        <time>2022-05-22T14:06:11Z</time>
      </trkpt>
      <trkpt lat="37.9808360" lon="-5.6662150">
        <ele>539.9</ele>
        <time>2022-05-22T14:06:12Z</time>
      </trkpt>
      <trkpt lat="37.9808440" lon="-5.6662240">
        <ele>539.9</ele>
        <time>2022-05-22T14:06:13Z</time>
      </trkpt>
      <trkpt lat="37.9808550" lon="-5.6662390">
        <ele>540.0</ele>
        <time>2022-05-22T14:06:14Z</time>
      </trkpt>
      <trkpt lat="37.9808640" lon="-5.6662530">
        <ele>540.0</ele>
        <time>2022-05-22T14:06:15Z</time>
      </trkpt>
      <trkpt lat="37.9808720" lon="-5.6662630">
        <ele>540.0</ele>
        <time>2022-05-22T14:06:16Z</time>
      </trkpt>
      <trkpt lat="37.9808780" lon="-5.6662700">
        <ele>540.1</ele>
        <time>2022-05-22T14:06:17Z</time>
      </trkpt>
      <trkpt lat="37.9808850" lon="-5.6662790">
        <ele>540.1</ele>
        <time>2022-05-22T14:06:18Z</time>
      </trkpt>
      <trkpt lat="37.9808920" lon="-5.6662880">
        <ele>540.1</ele>
        <time>2022-05-22T14:06:19Z</time>
      </trkpt>
      <trkpt lat="37.9809010" lon="-5.6662990">
        <ele>540.1</ele>
        <time>2022-05-22T14:06:20Z</time>
      </trkpt>
      <trkpt lat="37.9809090" lon="-5.6663090">
        <ele>540.2</ele>
        <time>2022-05-22T14:06:21Z</time>
      </trkpt>
      <trkpt lat="37.9809160" lon="-5.6663180">
        <ele>540.2</ele>
        <time>2022-05-22T14:06:22Z</time>
      </trkpt>
      <trkpt lat="37.9809240" lon="-5.6663270">
        <ele>540.2</ele>
        <time>2022-05-22T14:06:23Z</time>
      </trkpt>
      <trkpt lat="37.9809310" lon="-5.6663360">
        <ele>540.3</ele>
        <time>2022-05-22T14:06:24Z</time>
      </trkpt>
      <trkpt lat="37.9809380" lon="-5.6663460">
        <ele>540.3</ele>
        <time>2022-05-22T14:06:25Z</time>
      </trkpt>
      <trkpt lat="37.9809480" lon="-5.6663590">
        <ele>540.3</ele>
        <time>2022-05-22T14:06:26Z</time>
      </trkpt>
      <trkpt lat="37.9809560" lon="-5.6663690">
        <ele>540.4</ele>
        <time>2022-05-22T14:06:27Z</time>
      </trkpt>
      <trkpt lat="37.9809620" lon="-5.6663770">
        <ele>540.4</ele>
        <time>2022-05-22T14:06:28Z</time>
      </trkpt>
      <trkpt lat="37.9809680" lon="-5.6663870">
        <ele>540.4</ele>
        <time>2022-05-22T14:06:29Z</time>
      </trkpt>
      <trkpt lat="37.9809760" lon="-5.6663960">
        <ele>540.4</ele>
        <time>2022-05-22T14:06:30Z</time>
      </trkpt>
      <trkpt lat="37.9809860" lon="-5.6664050">
        <ele>540.5</ele>
        <time>2022-05-22T14:06:31Z</time>
      </trkpt>
      <trkpt lat="37.9809990" lon="-5.6664160">
        <ele>540.5</ele>
        <time>2022-05-22T14:06:32Z</time>
      </trkpt>
      <trkpt lat="37.9810090" lon="-5.6664240">
        <ele>540.5</ele>
        <time>2022-05-22T14:06:33Z</time>
      </trkpt>
      <trkpt lat="37.9810160" lon="-5.6664300">
        <ele>540.6</ele>
        <time>2022-05-22T14:06:34Z</time>
      </trkpt>
      <trkpt lat="37.9810270" lon="-5.6664390">
        <ele>540.6</ele>
        <time>2022-05-22T14:06:35Z</time>
      </trkpt>
      <trkpt lat="37.9810350" lon="-5.6664480">
        <ele>540.6</ele>
        <time>2022-05-22T14:06:36Z</time>
      </trkpt>
      <trkpt lat="37.9810460" lon="-5.6664580">
        <ele>540.7</ele>
        <time>2022-05-22T14:06:37Z</time>
      </trkpt>
      <trkpt lat="37.9810540" lon="-5.6664650">
        <ele>540.7</ele>
        <time>2022-05-22T14:06:38Z</time>
      </trkpt>
      <trkpt lat="37.9810640" lon="-5.6664720">
        <ele>540.7</ele>
        <time>2022-05-22T14:06:39Z</time>
      </trkpt>
      <trkpt lat="37.9810740" lon="-5.6664790">
        <ele>540.8</ele>
        <time>2022-05-22T14:06:40Z</time>
      </trkpt>
      <trkpt lat="37.9810830" lon="-5.6664850">
        <ele>540.8</ele>
        <time>2022-05-22T14:06:41Z</time>
      </trkpt>
      <trkpt lat="37.9810940" lon="-5.6664930">
        <ele>540.8</ele>
        <time>2022-05-22T14:06:42Z</time>
      </trkpt>
      <trkpt lat="37.9811070" lon="-5.6665020">
        <ele>540.9</ele>
        <time>2022-05-22T14:06:43Z</time>
      </trkpt>
      <trkpt lat="37.9811170" lon="-5.6665070">
        <ele>540.9</ele>
        <time>2022-05-22T14:06:44Z</time>
      </trkpt>
      <trkpt lat="37.9811280" lon="-5.6665130">
        <ele>540.9</ele>
        <time>2022-05-22T14:06:45Z</time>
      </trkpt>
      <trkpt lat="37.9811380" lon="-5.6665180">
        <ele>541.0</ele>
        <time>2022-05-22T14:06:46Z</time>
      </trkpt>
      <trkpt lat="37.9811570" lon="-5.6665310">
        <ele>541.0</ele>
        <time>2022-05-22T14:06:47Z</time>
      </trkpt>
      <trkpt lat="37.9811660" lon="-5.6665370">
        <ele>541.1</ele>
        <time>2022-05-22T14:06:48Z</time>
      </trkpt>
      <trkpt lat="37.9811740" lon="-5.6665430">
        <ele>541.1</ele>
        <time>2022-05-22T14:06:49Z</time>
      </trkpt>
      <trkpt lat="37.9811930" lon="-5.6665540">
        <ele>541.2</ele>
        <time>2022-05-22T14:06:50Z</time>
      </trkpt>
      <trkpt lat="37.9812020" lon="-5.6665590">
        <ele>541.2</ele>
        <time>2022-05-22T14:06:51Z</time>
      </trkpt>
      <trkpt lat="37.9812110" lon="-5.6665640">
        <ele>541.2</ele>
        <time>2022-05-22T14:06:52Z</time>
      </trkpt>
      <trkpt lat="37.9812220" lon="-5.6665720">
        <ele>541.3</ele>
        <time>2022-05-22T14:06:53Z</time>
      </trkpt>
      <trkpt lat="37.9812440" lon="-5.6665880">
        <ele>541.4</ele>
        <time>2022-05-22T14:06:55Z</time>
      </trkpt>
      <trkpt lat="37.9812620" lon="-5.6665980">
        <ele>541.4</ele>
        <time>2022-05-22T14:06:56Z</time>
      </trkpt>
      <trkpt lat="37.9812700" lon="-5.6666020">
        <ele>541.5</ele>
        <time>2022-05-22T14:06:57Z</time>
      </trkpt>
      <trkpt lat="37.9812780" lon="-5.6666070">
        <ele>541.5</ele>
        <time>2022-05-22T14:06:58Z</time>
      </trkpt>
      <trkpt lat="37.9812890" lon="-5.6666130">
        <ele>541.5</ele>
        <time>2022-05-22T14:06:59Z</time>
      </trkpt>
      <trkpt lat="37.9813080" lon="-5.6666250">
        <ele>541.6</ele>
        <time>2022-05-22T14:07:00Z</time>
      </trkpt>
      <trkpt lat="37.9813260" lon="-5.6666360">
        <ele>541.7</ele>
        <time>2022-05-22T14:07:02Z</time>
      </trkpt>
      <trkpt lat="37.9813370" lon="-5.6666450">
        <ele>541.7</ele>
        <time>2022-05-22T14:07:03Z</time>
      </trkpt>
      <trkpt lat="37.9813560" lon="-5.6666610">
        <ele>541.8</ele>
        <time>2022-05-22T14:07:04Z</time>
      </trkpt>
      <trkpt lat="37.9813640" lon="-5.6666690">
        <ele>541.9</ele>
        <time>2022-05-22T14:07:05Z</time>
      </trkpt>
      <trkpt lat="37.9813730" lon="-5.6666770">
        <ele>541.9</ele>
        <time>2022-05-22T14:07:06Z</time>
      </trkpt>
      <trkpt lat="37.9813930" lon="-5.6666920">
        <ele>542.0</ele>
        <time>2022-05-22T14:07:08Z</time>
      </trkpt>
      <trkpt lat="37.9814040" lon="-5.6666990">
        <ele>542.1</ele>
        <time>2022-05-22T14:07:09Z</time>
      </trkpt>
      <trkpt lat="37.9814210" lon="-5.6667110">
        <ele>542.2</ele>
        <time>2022-05-22T14:07:10Z</time>
      </trkpt>
      <trkpt lat="37.9814290" lon="-5.6667160">
        <ele>542.2</ele>
        <time>2022-05-22T14:07:11Z</time>
      </trkpt>
      <trkpt lat="37.9814370" lon="-5.6667210">
        <ele>542.2</ele>
        <time>2022-05-22T14:07:12Z</time>
      </trkpt>
      <trkpt lat="37.9814490" lon="-5.6667280">
        <ele>542.3</ele>
        <time>2022-05-22T14:07:13Z</time>
      </trkpt>
      <trkpt lat="37.9814610" lon="-5.6667380">
        <ele>542.3</ele>
        <time>2022-05-22T14:07:14Z</time>
      </trkpt>
      <trkpt lat="37.9814780" lon="-5.6667530">
        <ele>542.4</ele>
        <time>2022-05-22T14:07:15Z</time>
      </trkpt>
      <trkpt lat="37.9814850" lon="-5.6667580">
        <ele>542.5</ele>
        <time>2022-05-22T14:07:16Z</time>
      </trkpt>
      <trkpt lat="37.9814920" lon="-5.6667630">
        <ele>542.5</ele>
        <time>2022-05-22T14:07:17Z</time>
      </trkpt>
      <trkpt lat="37.9815040" lon="-5.6667730">
        <ele>542.5</ele>
        <time>2022-05-22T14:07:18Z</time>
      </trkpt>
      <trkpt lat="37.9815160" lon="-5.6667820">
        <ele>542.6</ele>
        <time>2022-05-22T14:07:19Z</time>
      </trkpt>
      <trkpt lat="37.9815330" lon="-5.6667980">
        <ele>542.6</ele>
        <time>2022-05-22T14:07:20Z</time>
      </trkpt>
      <trkpt lat="37.9815400" lon="-5.6668050">
        <ele>542.6</ele>
        <time>2022-05-22T14:07:21Z</time>
      </trkpt>
      <trkpt lat="37.9815460" lon="-5.6668110">
        <ele>542.7</ele>
        <time>2022-05-22T14:07:22Z</time>
      </trkpt>
      <trkpt lat="37.9815620" lon="-5.6668300">
        <ele>542.7</ele>
        <time>2022-05-22T14:07:23Z</time>
      </trkpt>
      <trkpt lat="37.9815690" lon="-5.6668360">
        <ele>542.7</ele>
        <time>2022-05-22T14:07:24Z</time>
      </trkpt>
      <trkpt lat="37.9815770" lon="-5.6668420">
        <ele>542.8</ele>
        <time>2022-05-22T14:07:25Z</time>
      </trkpt>
      <trkpt lat="37.9815890" lon="-5.6668590">
        <ele>542.8</ele>
        <time>2022-05-22T14:07:26Z</time>
      </trkpt>
      <trkpt lat="37.9815980" lon="-5.6668710">
        <ele>542.8</ele>
        <time>2022-05-22T14:07:28Z</time>
      </trkpt>
      <trkpt lat="37.9816070" lon="-5.6668820">
        <ele>542.9</ele>
        <time>2022-05-22T14:07:29Z</time>
      </trkpt>
      <trkpt lat="37.9816200" lon="-5.6668940">
        <ele>542.9</ele>
        <time>2022-05-22T14:07:30Z</time>
      </trkpt>
      <trkpt lat="37.9816320" lon="-5.6669050">
        <ele>542.9</ele>
        <time>2022-05-22T14:07:31Z</time>
      </trkpt>
      <trkpt lat="37.9816450" lon="-5.6669130">
        <ele>543.0</ele>
        <time>2022-05-22T14:07:32Z</time>
      </trkpt>
      <trkpt lat="37.9816570" lon="-5.6669210">
        <ele>543.0</ele>
        <time>2022-05-22T14:07:33Z</time>
      </trkpt>
      <trkpt lat="37.9816740" lon="-5.6669270">
        <ele>543.0</ele>
        <time>2022-05-22T14:07:34Z</time>
      </trkpt>
      <trkpt lat="37.9816890" lon="-5.6669300">
        <ele>543.1</ele>
        <time>2022-05-22T14:07:35Z</time>
      </trkpt>
      <trkpt lat="37.9817070" lon="-5.6669330">
        <ele>543.1</ele>
        <time>2022-05-22T14:07:36Z</time>
      </trkpt>
      <trkpt lat="37.9817210" lon="-5.6669380">
        <ele>543.2</ele>
        <time>2022-05-22T14:07:37Z</time>
      </trkpt>
      <trkpt lat="37.9817360" lon="-5.6669440">
        <ele>543.2</ele>
        <time>2022-05-22T14:07:38Z</time>
      </trkpt>
      <trkpt lat="37.9817630" lon="-5.6669550">
        <ele>543.3</ele>
        <time>2022-05-22T14:07:40Z</time>
      </trkpt>
      <trkpt lat="37.9817720" lon="-5.6669580">
        <ele>543.3</ele>
        <time>2022-05-22T14:07:41Z</time>
      </trkpt>
      <trkpt lat="37.9817890" lon="-5.6669640">
        <ele>543.4</ele>
        <time>2022-05-22T14:07:42Z</time>
      </trkpt>
      <trkpt lat="37.9818030" lon="-5.6669700">
        <ele>543.4</ele>
        <time>2022-05-22T14:07:44Z</time>
      </trkpt>
      <trkpt lat="37.9818180" lon="-5.6669740">
        <ele>543.4</ele>
        <time>2022-05-22T14:07:45Z</time>
      </trkpt>
      <trkpt lat="37.9818350" lon="-5.6669820">
        <ele>543.5</ele>
        <time>2022-05-22T14:07:46Z</time>
      </trkpt>
      <trkpt lat="37.9818430" lon="-5.6669840">
        <ele>543.5</ele>
        <time>2022-05-22T14:07:47Z</time>
      </trkpt>
      <trkpt lat="37.9818470" lon="-5.6669820">
        <ele>543.5</ele>
        <time>2022-05-22T14:07:48Z</time>
      </trkpt>
      <trkpt lat="37.9818520" lon="-5.6669820">
        <ele>543.5</ele>
        <time>2022-05-22T14:07:49Z</time>
      </trkpt>
      <trkpt lat="37.9818580" lon="-5.6669840">
        <ele>543.5</ele>
        <time>2022-05-22T14:07:50Z</time>
      </trkpt>
      <trkpt lat="37.9818620" lon="-5.6669880">
        <ele>543.6</ele>
        <time>2022-05-22T14:07:51Z</time>
      </trkpt>
      <trkpt lat="37.9818680" lon="-5.6669960">
        <ele>543.6</ele>
        <time>2022-05-22T14:07:52Z</time>
      </trkpt>
      <trkpt lat="37.9818750" lon="-5.6670060">
        <ele>543.6</ele>
        <time>2022-05-22T14:07:53Z</time>
      </trkpt>
      <trkpt lat="37.9818840" lon="-5.6670190">
        <ele>543.6</ele>
        <time>2022-05-22T14:07:54Z</time>
      </trkpt>
      <trkpt lat="37.9818930" lon="-5.6670340">
        <ele>543.7</ele>
        <time>2022-05-22T14:07:55Z</time>
      </trkpt>
      <trkpt lat="37.9819020" lon="-5.6670550">
        <ele>543.7</ele>
        <time>2022-05-22T14:07:56Z</time>
      </trkpt>
      <trkpt lat="37.9819160" lon="-5.6670720">
        <ele>543.8</ele>
        <time>2022-05-22T14:07:57Z</time>
      </trkpt>
      <trkpt lat="37.9819220" lon="-5.6670800">
        <ele>543.8</ele>
        <time>2022-05-22T14:07:58Z</time>
      </trkpt>
      <trkpt lat="37.9819290" lon="-5.6670870">
        <ele>543.8</ele>
        <time>2022-05-22T14:07:59Z</time>
      </trkpt>
      <trkpt lat="37.9819390" lon="-5.6670980">
        <ele>543.8</ele>
        <time>2022-05-22T14:08:00Z</time>
      </trkpt>
      <trkpt lat="37.9819480" lon="-5.6671060">
        <ele>543.9</ele>
        <time>2022-05-22T14:08:01Z</time>
      </trkpt>
      <trkpt lat="37.9819670" lon="-5.6671260">
        <ele>543.9</ele>
        <time>2022-05-22T14:08:03Z</time>
      </trkpt>
      <trkpt lat="37.9819830" lon="-5.6671420">
        <ele>544.0</ele>
        <time>2022-05-22T14:08:04Z</time>
      </trkpt>
      <trkpt lat="37.9819900" lon="-5.6671490">
        <ele>544.0</ele>
        <time>2022-05-22T14:08:05Z</time>
      </trkpt>
      <trkpt lat="37.9819960" lon="-5.6671550">
        <ele>544.0</ele>
        <time>2022-05-22T14:08:06Z</time>
      </trkpt>
      <trkpt lat="37.9820110" lon="-5.6671720">
        <ele>544.1</ele>
        <time>2022-05-22T14:08:07Z</time>
      </trkpt>
      <trkpt lat="37.9820180" lon="-5.6671790">
        <ele>544.1</ele>
        <time>2022-05-22T14:08:08Z</time>
      </trkpt>
      <trkpt lat="37.9820250" lon="-5.6671860">
        <ele>544.1</ele>
        <time>2022-05-22T14:08:09Z</time>
      </trkpt>
      <trkpt lat="37.9820430" lon="-5.6672040">
        <ele>544.2</ele>
        <time>2022-05-22T14:08:10Z</time>
      </trkpt>
      <trkpt lat="37.9820500" lon="-5.6672100">
        <ele>544.2</ele>
        <time>2022-05-22T14:08:11Z</time>
      </trkpt>
      <trkpt lat="37.9820560" lon="-5.6672160">
        <ele>544.2</ele>
        <time>2022-05-22T14:08:12Z</time>
      </trkpt>
      <trkpt lat="37.9820670" lon="-5.6672230">
        <ele>544.2</ele>
        <time>2022-05-22T14:08:13Z</time>
      </trkpt>
      <trkpt lat="37.9820780" lon="-5.6672310">
        <ele>544.3</ele>
        <time>2022-05-22T14:08:14Z</time>
      </trkpt>
      <trkpt lat="37.9820870" lon="-5.6672360">
        <ele>544.3</ele>
        <time>2022-05-22T14:08:15Z</time>
      </trkpt>
      <trkpt lat="37.9820970" lon="-5.6672420">
        <ele>544.3</ele>
        <time>2022-05-22T14:08:16Z</time>
      </trkpt>
      <trkpt lat="37.9821070" lon="-5.6672480">
        <ele>544.3</ele>
        <time>2022-05-22T14:08:17Z</time>
      </trkpt>
      <trkpt lat="37.9821170" lon="-5.6672540">
        <ele>544.4</ele>
        <time>2022-05-22T14:08:18Z</time>
      </trkpt>
      <trkpt lat="37.9821320" lon="-5.6672690">
        <ele>544.4</ele>
        <time>2022-05-22T14:08:19Z</time>
      </trkpt>
      <trkpt lat="37.9821400" lon="-5.6672790">
        <ele>544.5</ele>
        <time>2022-05-22T14:08:20Z</time>
      </trkpt>
      <trkpt lat="37.9821480" lon="-5.6672880">
        <ele>544.5</ele>
        <time>2022-05-22T14:08:22Z</time>
      </trkpt>
      <trkpt lat="37.9821550" lon="-5.6672970">
        <ele>544.5</ele>
        <time>2022-05-22T14:08:23Z</time>
      </trkpt>
      <trkpt lat="37.9821630" lon="-5.6673060">
        <ele>544.5</ele>
        <time>2022-05-22T14:08:24Z</time>
      </trkpt>
      <trkpt lat="37.9821710" lon="-5.6673150">
        <ele>544.6</ele>
        <time>2022-05-22T14:08:25Z</time>
      </trkpt>
      <trkpt lat="37.9821840" lon="-5.6673250">
        <ele>544.6</ele>
        <time>2022-05-22T14:08:26Z</time>
      </trkpt>
      <trkpt lat="37.9822070" lon="-5.6673370">
        <ele>544.7</ele>
        <time>2022-05-22T14:08:28Z</time>
      </trkpt>
      <trkpt lat="37.9822230" lon="-5.6673450">
        <ele>544.7</ele>
        <time>2022-05-22T14:08:29Z</time>
      </trkpt>
      <trkpt lat="37.9822400" lon="-5.6673520">
        <ele>544.8</ele>
        <time>2022-05-22T14:08:30Z</time>
      </trkpt>
      <trkpt lat="37.9822580" lon="-5.6673580">
        <ele>544.8</ele>
        <time>2022-05-22T14:08:31Z</time>
      </trkpt>
      <trkpt lat="37.9822750" lon="-5.6673630">
        <ele>544.9</ele>
        <time>2022-05-22T14:08:32Z</time>
      </trkpt>
      <trkpt lat="37.9822900" lon="-5.6673660">
        <ele>544.9</ele>
        <time>2022-05-22T14:08:33Z</time>
      </trkpt>
      <trkpt lat="37.9823050" lon="-5.6673710">
        <ele>545.0</ele>
        <time>2022-05-22T14:08:34Z</time>
      </trkpt>
      <trkpt lat="37.9823210" lon="-5.6673790">
        <ele>545.0</ele>
        <time>2022-05-22T14:08:35Z</time>
      </trkpt>
      <trkpt lat="37.9823340" lon="-5.6673880">
        <ele>545.1</ele>
        <time>2022-05-22T14:08:36Z</time>
      </trkpt>
      <trkpt lat="37.9823490" lon="-5.6674000">
        <ele>545.1</ele>
        <time>2022-05-22T14:08:37Z</time>
      </trkpt>
      <trkpt lat="37.9823590" lon="-5.6674190">
        <ele>545.2</ele>
        <time>2022-05-22T14:08:39Z</time>
      </trkpt>
      <trkpt lat="37.9823650" lon="-5.6674270">
        <ele>545.2</ele>
        <time>2022-05-22T14:08:40Z</time>
      </trkpt>
      <trkpt lat="37.9823750" lon="-5.6674370">
        <ele>545.2</ele>
        <time>2022-05-22T14:08:41Z</time>
      </trkpt>
      <trkpt lat="37.9823740" lon="-5.6674320">
        <ele>545.2</ele>
        <time>2022-05-22T14:08:42Z</time>
      </trkpt>
      <trkpt lat="37.9823680" lon="-5.6674260">
        <ele>545.3</ele>
        <time>2022-05-22T14:08:43Z</time>
      </trkpt>
      <trkpt lat="37.9823650" lon="-5.6674220">
        <ele>545.3</ele>
        <time>2022-05-22T14:08:44Z</time>
      </trkpt>
      <trkpt lat="37.9823650" lon="-5.6674200">
        <ele>545.3</ele>
        <time>2022-05-22T14:08:45Z</time>
      </trkpt>
      <trkpt lat="37.9823660" lon="-5.6674170">
        <ele>545.3</ele>
        <time>2022-05-22T14:08:46Z</time>
      </trkpt>
      <trkpt lat="37.9823680" lon="-5.6674140">
        <ele>545.3</ele>
        <time>2022-05-22T14:08:47Z</time>
      </trkpt>
      <trkpt lat="37.9823690" lon="-5.6674130">
        <ele>545.3</ele>
        <time>2022-05-22T14:08:48Z</time>
      </trkpt>
      <trkpt lat="37.9823700" lon="-5.6674120">
        <ele>545.3</ele>
        <time>2022-05-22T14:08:49Z</time>
      </trkpt>
      <trkpt lat="37.9823710" lon="-5.6674100">
        <ele>545.3</ele>
        <time>2022-05-22T14:08:50Z</time>
      </trkpt>
      <trkpt lat="37.9823720" lon="-5.6674090">
        <ele>545.3</ele>
        <time>2022-05-22T14:08:51Z</time>
      </trkpt>
      <trkpt lat="37.9823740" lon="-5.6674060">
        <ele>545.3</ele>
        <time>2022-05-22T14:08:53Z</time>
      </trkpt>
      <trkpt lat="37.9823740" lon="-5.6674040">
        <ele>545.3</ele>
        <time>2022-05-22T14:08:54Z</time>
      </trkpt>
      <trkpt lat="37.9823750" lon="-5.6674020">
        <ele>545.3</ele>
        <time>2022-05-22T14:08:55Z</time>
      </trkpt>
      <trkpt lat="37.9823770" lon="-5.6673970">
        <ele>545.3</ele>
        <time>2022-05-22T14:08:56Z</time>
      </trkpt>
      <trkpt lat="37.9823780" lon="-5.6673950">
        <ele>545.3</ele>
        <time>2022-05-22T14:08:57Z</time>
      </trkpt>
      <trkpt lat="37.9823870" lon="-5.6673920">
        <ele>545.4</ele>
        <time>2022-05-22T14:08:58Z</time>
      </trkpt>
      <trkpt lat="37.9823940" lon="-5.6673930">
        <ele>545.4</ele>
        <time>2022-05-22T14:08:59Z</time>
      </trkpt>
      <trkpt lat="37.9824010" lon="-5.6673940">
        <ele>545.4</ele>
        <time>2022-05-22T14:09:00Z</time>
      </trkpt>
      <trkpt lat="37.9824080" lon="-5.6673950">
        <ele>545.4</ele>
        <time>2022-05-22T14:09:01Z</time>
      </trkpt>
      <trkpt lat="37.9824150" lon="-5.6673960">
        <ele>545.5</ele>
        <time>2022-05-22T14:09:02Z</time>
      </trkpt>
      <trkpt lat="37.9824420" lon="-5.6674010">
        <ele>545.5</ele>
        <time>2022-05-22T14:09:04Z</time>
      </trkpt>
      <trkpt lat="37.9824540" lon="-5.6674040">
        <ele>545.6</ele>
        <time>2022-05-22T14:09:05Z</time>
      </trkpt>
      <trkpt lat="37.9824850" lon="-5.6674160">
        <ele>545.7</ele>
        <time>2022-05-22T14:09:06Z</time>
      </trkpt>
      <trkpt lat="37.9824980" lon="-5.6674220">
        <ele>545.7</ele>
        <time>2022-05-22T14:09:07Z</time>
      </trkpt>
      <trkpt lat="37.9825240" lon="-5.6674400">
        <ele>545.8</ele>
        <time>2022-05-22T14:09:08Z</time>
      </trkpt>
      <trkpt lat="37.9825320" lon="-5.6674450">
        <ele>545.8</ele>
        <time>2022-05-22T14:09:09Z</time>
      </trkpt>
      <trkpt lat="37.9825470" lon="-5.6674550">
        <ele>545.8</ele>
        <time>2022-05-22T14:09:10Z</time>
      </trkpt>
      <trkpt lat="37.9825660" lon="-5.6674660">
        <ele>545.9</ele>
        <time>2022-05-22T14:09:12Z</time>
      </trkpt>
      <trkpt lat="37.9825770" lon="-5.6674700">
        <ele>545.9</ele>
        <time>2022-05-22T14:09:13Z</time>
      </trkpt>
      <trkpt lat="37.9825840" lon="-5.6674680">
        <ele>546.0</ele>
        <time>2022-05-22T14:09:14Z</time>
      </trkpt>
      <trkpt lat="37.9825910" lon="-5.6674720">
        <ele>546.0</ele>
        <time>2022-05-22T14:09:15Z</time>
      </trkpt>
      <trkpt lat="37.9825990" lon="-5.6674860">
        <ele>546.0</ele>
        <time>2022-05-22T14:09:17Z</time>
      </trkpt>
      <trkpt lat="37.9826040" lon="-5.6674970">
        <ele>546.0</ele>
        <time>2022-05-22T14:09:18Z</time>
      </trkpt>
      <trkpt lat="37.9826100" lon="-5.6675050">
        <ele>546.1</ele>
        <time>2022-05-22T14:09:19Z</time>
      </trkpt>
      <trkpt lat="37.9826160" lon="-5.6675150">
        <ele>546.1</ele>
        <time>2022-05-22T14:09:20Z</time>
      </trkpt>
      <trkpt lat="37.9826250" lon="-5.6675230">
        <ele>546.1</ele>
        <time>2022-05-22T14:09:21Z</time>
      </trkpt>
      <trkpt lat="37.9826340" lon="-5.6675300">
        <ele>546.1</ele>
        <time>2022-05-22T14:09:22Z</time>
      </trkpt>
      <trkpt lat="37.9826440" lon="-5.6675370">
        <ele>546.2</ele>
        <time>2022-05-22T14:09:23Z</time>
      </trkpt>
      <trkpt lat="37.9826630" lon="-5.6675490">
        <ele>546.2</ele>
        <time>2022-05-22T14:09:24Z</time>
      </trkpt>
      <trkpt lat="37.9826720" lon="-5.6675530">
        <ele>546.3</ele>
        <time>2022-05-22T14:09:25Z</time>
      </trkpt>
      <trkpt lat="37.9826800" lon="-5.6675580">
        <ele>546.3</ele>
        <time>2022-05-22T14:09:26Z</time>
      </trkpt>
      <trkpt lat="37.9826950" lon="-5.6675640">
        <ele>546.3</ele>
        <time>2022-05-22T14:09:27Z</time>
      </trkpt>
      <trkpt lat="37.9827100" lon="-5.6675700">
        <ele>546.4</ele>
        <time>2022-05-22T14:09:28Z</time>
      </trkpt>
      <trkpt lat="37.9827240" lon="-5.6675750">
        <ele>546.4</ele>
        <time>2022-05-22T14:09:29Z</time>
      </trkpt>
      <trkpt lat="37.9827390" lon="-5.6675800">
        <ele>546.4</ele>
        <time>2022-05-22T14:09:30Z</time>
      </trkpt>
      <trkpt lat="37.9827600" lon="-5.6675880">
        <ele>546.5</ele>
        <time>2022-05-22T14:09:31Z</time>
      </trkpt>
      <trkpt lat="37.9827690" lon="-5.6675920">
        <ele>546.5</ele>
        <time>2022-05-22T14:09:32Z</time>
      </trkpt>
      <trkpt lat="37.9827790" lon="-5.6675960">
        <ele>546.6</ele>
        <time>2022-05-22T14:09:33Z</time>
      </trkpt>
      <trkpt lat="37.9828020" lon="-5.6676110">
        <ele>546.6</ele>
        <time>2022-05-22T14:09:34Z</time>
      </trkpt>
      <trkpt lat="37.9828110" lon="-5.6676170">
        <ele>546.7</ele>
        <time>2022-05-22T14:09:35Z</time>
      </trkpt>
      <trkpt lat="37.9828240" lon="-5.6676260">
        <ele>546.7</ele>
        <time>2022-05-22T14:09:36Z</time>
      </trkpt>
      <trkpt lat="37.9828380" lon="-5.6676360">
        <ele>546.7</ele>
        <time>2022-05-22T14:09:37Z</time>
      </trkpt>
      <trkpt lat="37.9828540" lon="-5.6676480">
        <ele>546.8</ele>
        <time>2022-05-22T14:09:38Z</time>
      </trkpt>
      <trkpt lat="37.9828680" lon="-5.6676570">
        <ele>546.8</ele>
        <time>2022-05-22T14:09:39Z</time>
      </trkpt>
      <trkpt lat="37.9828990" lon="-5.6676770">
        <ele>546.9</ele>
        <time>2022-05-22T14:09:41Z</time>
      </trkpt>
      <trkpt lat="37.9829120" lon="-5.6676880">
        <ele>547.0</ele>
        <time>2022-05-22T14:09:42Z</time>
      </trkpt>
      <trkpt lat="37.9829240" lon="-5.6676990">
        <ele>547.0</ele>
        <time>2022-05-22T14:09:44Z</time>
      </trkpt>
      <trkpt lat="37.9829410" lon="-5.6677130">
        <ele>547.1</ele>
        <time>2022-05-22T14:09:45Z</time>
      </trkpt>
      <trkpt lat="37.9829510" lon="-5.6677210">
        <ele>547.1</ele>
        <time>2022-05-22T14:09:46Z</time>
      </trkpt>
      <trkpt lat="37.9829690" lon="-5.6677350">
        <ele>547.1</ele>
        <time>2022-05-22T14:09:47Z</time>
      </trkpt>
      <trkpt lat="37.9829760" lon="-5.6677400">
        <ele>547.2</ele>
        <time>2022-05-22T14:09:48Z</time>
      </trkpt>
      <trkpt lat="37.9829840" lon="-5.6677460">
        <ele>547.2</ele>
        <time>2022-05-22T14:09:49Z</time>
      </trkpt>
      <trkpt lat="37.9829950" lon="-5.6677520">
        <ele>547.2</ele>
        <time>2022-05-22T14:09:50Z</time>
      </trkpt>
      <trkpt lat="37.9830070" lon="-5.6677570">
        <ele>547.3</ele>
        <time>2022-05-22T14:09:51Z</time>
      </trkpt>
      <trkpt lat="37.9830180" lon="-5.6677610">
        <ele>547.3</ele>
        <time>2022-05-22T14:09:52Z</time>
      </trkpt>
      <trkpt lat="37.9830400" lon="-5.6677670">
        <ele>547.3</ele>
        <time>2022-05-22T14:09:53Z</time>
      </trkpt>
      <trkpt lat="37.9830500" lon="-5.6677700">
        <ele>547.4</ele>
        <time>2022-05-22T14:09:55Z</time>
      </trkpt>
      <trkpt lat="37.9830610" lon="-5.6677720">
        <ele>547.4</ele>
        <time>2022-05-22T14:09:56Z</time>
      </trkpt>
      <trkpt lat="37.9830710" lon="-5.6677750">
        <ele>547.4</ele>
        <time>2022-05-22T14:09:57Z</time>
      </trkpt>
      <trkpt lat="37.9830820" lon="-5.6677780">
        <ele>547.5</ele>
        <time>2022-05-22T14:09:58Z</time>
      </trkpt>
      <trkpt lat="37.9830960" lon="-5.6677820">
        <ele>547.5</ele>
        <time>2022-05-22T14:09:59Z</time>
      </trkpt>
      <trkpt lat="37.9831110" lon="-5.6677860">
        <ele>547.6</ele>
        <time>2022-05-22T14:10:00Z</time>
      </trkpt>
      <trkpt lat="37.9831270" lon="-5.6677910">
        <ele>547.6</ele>
        <time>2022-05-22T14:10:01Z</time>
      </trkpt>
      <trkpt lat="37.9831400" lon="-5.6677950">
        <ele>547.7</ele>
        <time>2022-05-22T14:10:02Z</time>
      </trkpt>
      <trkpt lat="37.9831560" lon="-5.6678020">
        <ele>547.7</ele>
        <time>2022-05-22T14:10:03Z</time>
      </trkpt>
      <trkpt lat="37.9831680" lon="-5.6678090">
        <ele>547.8</ele>
        <time>2022-05-22T14:10:04Z</time>
      </trkpt>
      <trkpt lat="37.9831850" lon="-5.6678180">
        <ele>547.8</ele>
        <time>2022-05-22T14:10:06Z</time>
      </trkpt>
      <trkpt lat="37.9831950" lon="-5.6678270">
        <ele>547.9</ele>
        <time>2022-05-22T14:10:07Z</time>
      </trkpt>
      <trkpt lat="37.9832140" lon="-5.6678410">
        <ele>547.9</ele>
        <time>2022-05-22T14:10:08Z</time>
      </trkpt>
      <trkpt lat="37.9832210" lon="-5.6678480">
        <ele>548.0</ele>
        <time>2022-05-22T14:10:09Z</time>
      </trkpt>
      <trkpt lat="37.9832280" lon="-5.6678540">
        <ele>548.0</ele>
        <time>2022-05-22T14:10:10Z</time>
      </trkpt>
      <trkpt lat="37.9832450" lon="-5.6678700">
        <ele>548.0</ele>
        <time>2022-05-22T14:10:12Z</time>
      </trkpt>
      <trkpt lat="37.9832560" lon="-5.6678800">
        <ele>548.1</ele>
        <time>2022-05-22T14:10:13Z</time>
      </trkpt>
      <trkpt lat="37.9832710" lon="-5.6678970">
        <ele>548.1</ele>
        <time>2022-05-22T14:10:14Z</time>
      </trkpt>
      <trkpt lat="37.9832780" lon="-5.6679050">
        <ele>548.2</ele>
        <time>2022-05-22T14:10:15Z</time>
      </trkpt>
      <trkpt lat="37.9832840" lon="-5.6679120">
        <ele>548.2</ele>
        <time>2022-05-22T14:10:16Z</time>
      </trkpt>
      <trkpt lat="37.9833020" lon="-5.6679270">
        <ele>548.3</ele>
        <time>2022-05-22T14:10:17Z</time>
      </trkpt>
      <trkpt lat="37.9833090" lon="-5.6679320">
        <ele>548.3</ele>
        <time>2022-05-22T14:10:18Z</time>
      </trkpt>
      <trkpt lat="37.9833170" lon="-5.6679380">
        <ele>548.3</ele>
        <time>2022-05-22T14:10:19Z</time>
      </trkpt>
      <trkpt lat="37.9833340" lon="-5.6679530">
        <ele>548.4</ele>
        <time>2022-05-22T14:10:20Z</time>
      </trkpt>
      <trkpt lat="37.9833410" lon="-5.6679590">
        <ele>548.4</ele>
        <time>2022-05-22T14:10:21Z</time>
      </trkpt>
      <trkpt lat="37.9833480" lon="-5.6679640">
        <ele>548.4</ele>
        <time>2022-05-22T14:10:22Z</time>
      </trkpt>
      <trkpt lat="37.9833600" lon="-5.6679700">
        <ele>548.4</ele>
        <time>2022-05-22T14:10:23Z</time>
      </trkpt>
      <trkpt lat="37.9833730" lon="-5.6679770">
        <ele>548.5</ele>
        <time>2022-05-22T14:10:24Z</time>
      </trkpt>
      <trkpt lat="37.9833970" lon="-5.6679920">
        <ele>548.5</ele>
        <time>2022-05-22T14:10:25Z</time>
      </trkpt>
      <trkpt lat="37.9834070" lon="-5.6679990">
        <ele>548.6</ele>
        <time>2022-05-22T14:10:27Z</time>
      </trkpt>
      <trkpt lat="37.9834170" lon="-5.6680060">
        <ele>548.6</ele>
        <time>2022-05-22T14:10:28Z</time>
      </trkpt>
      <trkpt lat="37.9834270" lon="-5.6680130">
        <ele>548.6</ele>
        <time>2022-05-22T14:10:29Z</time>
      </trkpt>
      <trkpt lat="37.9834380" lon="-5.6680200">
        <ele>548.7</ele>
        <time>2022-05-22T14:10:30Z</time>
      </trkpt>
      <trkpt lat="37.9834530" lon="-5.6680280">
        <ele>548.7</ele>
        <time>2022-05-22T14:10:31Z</time>
      </trkpt>
      <trkpt lat="37.9834640" lon="-5.6680320">
        <ele>548.7</ele>
        <time>2022-05-22T14:10:32Z</time>
      </trkpt>
      <trkpt lat="37.9834850" lon="-5.6680390">
        <ele>548.8</ele>
        <time>2022-05-22T14:10:33Z</time>
      </trkpt>
      <trkpt lat="37.9834940" lon="-5.6680430">
        <ele>548.8</ele>
        <time>2022-05-22T14:10:34Z</time>
      </trkpt>
      <trkpt lat="37.9835020" lon="-5.6680470">
        <ele>548.8</ele>
        <time>2022-05-22T14:10:35Z</time>
      </trkpt>
      <trkpt lat="37.9835180" lon="-5.6680550">
        <ele>548.8</ele>
        <time>2022-05-22T14:10:36Z</time>
      </trkpt>
      <trkpt lat="37.9835290" lon="-5.6680610">
        <ele>548.9</ele>
        <time>2022-05-22T14:10:38Z</time>
      </trkpt>
      <trkpt lat="37.9835390" lon="-5.6680670">
        <ele>548.9</ele>
        <time>2022-05-22T14:10:39Z</time>
      </trkpt>
      <trkpt lat="37.9835480" lon="-5.6680750">
        <ele>548.9</ele>
        <time>2022-05-22T14:10:40Z</time>
      </trkpt>
      <trkpt lat="37.9835580" lon="-5.6680850">
        <ele>548.9</ele>
        <time>2022-05-22T14:10:41Z</time>
      </trkpt>
      <trkpt lat="37.9835720" lon="-5.6680980">
        <ele>549.0</ele>
        <time>2022-05-22T14:10:42Z</time>
      </trkpt>
      <trkpt lat="37.9835830" lon="-5.6681090">
        <ele>549.0</ele>
        <time>2022-05-22T14:10:43Z</time>
      </trkpt>
      <trkpt lat="37.9835910" lon="-5.6681190">
        <ele>549.0</ele>
        <time>2022-05-22T14:10:44Z</time>
      </trkpt>
      <trkpt lat="37.9836000" lon="-5.6681290">
        <ele>549.1</ele>
        <time>2022-05-22T14:10:45Z</time>
      </trkpt>
      <trkpt lat="37.9836100" lon="-5.6681380">
        <ele>549.1</ele>
        <time>2022-05-22T14:10:46Z</time>
      </trkpt>
      <trkpt lat="37.9836220" lon="-5.6681490">
        <ele>549.1</ele>
        <time>2022-05-22T14:10:48Z</time>
      </trkpt>
      <trkpt lat="37.9836330" lon="-5.6681570">
        <ele>549.2</ele>
        <time>2022-05-22T14:10:49Z</time>
      </trkpt>
      <trkpt lat="37.9836500" lon="-5.6681670">
        <ele>549.2</ele>
        <time>2022-05-22T14:10:50Z</time>
      </trkpt>
      <trkpt lat="37.9836620" lon="-5.6681730">
        <ele>549.2</ele>
        <time>2022-05-22T14:10:51Z</time>
      </trkpt>
      <trkpt lat="37.9836750" lon="-5.6681800">
        <ele>549.3</ele>
        <time>2022-05-22T14:10:52Z</time>
      </trkpt>
      <trkpt lat="37.9836900" lon="-5.6681870">
        <ele>549.3</ele>
        <time>2022-05-22T14:10:53Z</time>
      </trkpt>
      <trkpt lat="37.9837020" lon="-5.6681930">
        <ele>549.4</ele>
        <time>2022-05-22T14:10:54Z</time>
      </trkpt>
      <trkpt lat="37.9837130" lon="-5.6681970">
        <ele>549.4</ele>
        <time>2022-05-22T14:10:55Z</time>
      </trkpt>
      <trkpt lat="37.9837220" lon="-5.6682000">
        <ele>549.4</ele>
        <time>2022-05-22T14:10:56Z</time>
      </trkpt>
      <trkpt lat="37.9837350" lon="-5.6682040">
        <ele>549.4</ele>
        <time>2022-05-22T14:10:57Z</time>
      </trkpt>
      <trkpt lat="37.9837500" lon="-5.6682090">
        <ele>549.5</ele>
        <time>2022-05-22T14:10:58Z</time>
      </trkpt>
      <trkpt lat="37.9837720" lon="-5.6682160">
        <ele>549.5</ele>
        <time>2022-05-22T14:10:59Z</time>
      </trkpt>
      <trkpt lat="37.9837850" lon="-5.6682170">
        <ele>549.6</ele>
        <time>2022-05-22T14:11:00Z</time>
      </trkpt>
      <trkpt lat="37.9837980" lon="-5.6682180">
        <ele>549.6</ele>
        <time>2022-05-22T14:11:01Z</time>
      </trkpt>
      <trkpt lat="37.9838150" lon="-5.6682200">
        <ele>549.6</ele>
        <time>2022-05-22T14:11:02Z</time>
      </trkpt>
      <trkpt lat="37.9838310" lon="-5.6682190">
        <ele>549.7</ele>
        <time>2022-05-22T14:11:03Z</time>
      </trkpt>
      <trkpt lat="37.9838410" lon="-5.6682100">
        <ele>549.7</ele>
        <time>2022-05-22T14:11:04Z</time>
      </trkpt>
      <trkpt lat="37.9838580" lon="-5.6682050">
        <ele>549.8</ele>
        <time>2022-05-22T14:11:05Z</time>
      </trkpt>
      <trkpt lat="37.9838730" lon="-5.6682060">
        <ele>549.8</ele>
        <time>2022-05-22T14:11:06Z</time>
      </trkpt>
      <trkpt lat="37.9838890" lon="-5.6682070">
        <ele>549.8</ele>
        <time>2022-05-22T14:11:07Z</time>
      </trkpt>
      <trkpt lat="37.9839010" lon="-5.6682100">
        <ele>549.9</ele>
        <time>2022-05-22T14:11:08Z</time>
      </trkpt>
      <trkpt lat="37.9839200" lon="-5.6682110">
        <ele>549.9</ele>
        <time>2022-05-22T14:11:09Z</time>
      </trkpt>
      <trkpt lat="37.9839420" lon="-5.6682110">
        <ele>550.0</ele>
        <time>2022-05-22T14:11:11Z</time>
      </trkpt>
      <trkpt lat="37.9839530" lon="-5.6682120">
        <ele>550.0</ele>
        <time>2022-05-22T14:11:12Z</time>
      </trkpt>
      <trkpt lat="37.9839650" lon="-5.6682120">
        <ele>550.0</ele>
        <time>2022-05-22T14:11:13Z</time>
      </trkpt>
      <trkpt lat="37.9839760" lon="-5.6682110">
        <ele>550.1</ele>
        <time>2022-05-22T14:11:14Z</time>
      </trkpt>
      <trkpt lat="37.9839980" lon="-5.6682140">
        <ele>550.1</ele>
        <time>2022-05-22T14:11:15Z</time>
      </trkpt>
      <trkpt lat="37.9840080" lon="-5.6682150">
        <ele>550.1</ele>
        <time>2022-05-22T14:11:16Z</time>
      </trkpt>
      <trkpt lat="37.9840170" lon="-5.6682160">
        <ele>550.2</ele>
        <time>2022-05-22T14:11:17Z</time>
      </trkpt>
      <trkpt lat="37.9840400" lon="-5.6682200">
        <ele>550.2</ele>
        <time>2022-05-22T14:11:18Z</time>
      </trkpt>
      <trkpt lat="37.9840480" lon="-5.6682220">
        <ele>550.2</ele>
        <time>2022-05-22T14:11:19Z</time>
      </trkpt>
      <trkpt lat="37.9840560" lon="-5.6682240">
        <ele>550.3</ele>
        <time>2022-05-22T14:11:20Z</time>
      </trkpt>
      <trkpt lat="37.9840660" lon="-5.6682270">
        <ele>550.3</ele>
        <time>2022-05-22T14:11:21Z</time>
      </trkpt>
      <trkpt lat="37.9840850" lon="-5.6682330">
        <ele>550.3</ele>
        <time>2022-05-22T14:11:22Z</time>
      </trkpt>
      <trkpt lat="37.9840960" lon="-5.6682410">
        <ele>550.4</ele>
        <time>2022-05-22T14:11:23Z</time>
      </trkpt>
      <trkpt lat="37.9841060" lon="-5.6682460">
        <ele>550.4</ele>
        <time>2022-05-22T14:11:24Z</time>
      </trkpt>
      <trkpt lat="37.9841220" lon="-5.6682580">
        <ele>550.5</ele>
        <time>2022-05-22T14:11:26Z</time>
      </trkpt>
      <trkpt lat="37.9841330" lon="-5.6682640">
        <ele>550.5</ele>
        <time>2022-05-22T14:11:27Z</time>
      </trkpt>
      <trkpt lat="37.9841490" lon="-5.6682740">
        <ele>550.5</ele>
        <time>2022-05-22T14:11:28Z</time>
      </trkpt>
      <trkpt lat="37.9841580" lon="-5.6682800">
        <ele>550.6</ele>
        <time>2022-05-22T14:11:29Z</time>
      </trkpt>
      <trkpt lat="37.9841700" lon="-5.6682880">
        <ele>550.6</ele>
        <time>2022-05-22T14:11:30Z</time>
      </trkpt>
      <trkpt lat="37.9841790" lon="-5.6682950">
        <ele>550.6</ele>
        <time>2022-05-22T14:11:31Z</time>
      </trkpt>
      <trkpt lat="37.9841880" lon="-5.6683000">
        <ele>550.7</ele>
        <time>2022-05-22T14:11:32Z</time>
      </trkpt>
      <trkpt lat="37.9842140" lon="-5.6683110">
        <ele>550.7</ele>
        <time>2022-05-22T14:11:34Z</time>
      </trkpt>
      <trkpt lat="37.9842250" lon="-5.6683160">
        <ele>550.8</ele>
        <time>2022-05-22T14:11:35Z</time>
      </trkpt>
      <trkpt lat="37.9842380" lon="-5.6683200">
        <ele>550.8</ele>
        <time>2022-05-22T14:11:36Z</time>
      </trkpt>
      <trkpt lat="37.9842480" lon="-5.6683230">
        <ele>550.8</ele>
        <time>2022-05-22T14:11:37Z</time>
      </trkpt>
      <trkpt lat="37.9842770" lon="-5.6683260">
        <ele>550.9</ele>
        <time>2022-05-22T14:11:38Z</time>
      </trkpt>
      <trkpt lat="37.9842880" lon="-5.6683270">
        <ele>550.9</ele>
        <time>2022-05-22T14:11:39Z</time>
      </trkpt>
      <trkpt lat="37.9843070" lon="-5.6683240">
        <ele>551.0</ele>
        <time>2022-05-22T14:11:40Z</time>
      </trkpt>
      <trkpt lat="37.9843150" lon="-5.6683220">
        <ele>551.0</ele>
        <time>2022-05-22T14:11:41Z</time>
      </trkpt>
      <trkpt lat="37.9843240" lon="-5.6683210">
        <ele>551.0</ele>
        <time>2022-05-22T14:11:42Z</time>
      </trkpt>
      <trkpt lat="37.9843390" lon="-5.6683190">
        <ele>551.1</ele>
        <time>2022-05-22T14:11:43Z</time>
      </trkpt>
      <trkpt lat="37.9843570" lon="-5.6683150">
        <ele>551.1</ele>
        <time>2022-05-22T14:11:44Z</time>
      </trkpt>
      <trkpt lat="37.9843700" lon="-5.6683140">
        <ele>551.2</ele>
        <time>2022-05-22T14:11:46Z</time>
      </trkpt>
      <trkpt lat="37.9843840" lon="-5.6683130">
        <ele>551.2</ele>
        <time>2022-05-22T14:11:47Z</time>
      </trkpt>
      <trkpt lat="37.9844030" lon="-5.6683130">
        <ele>551.3</ele>
        <time>2022-05-22T14:11:48Z</time>
      </trkpt>
      <trkpt lat="37.9844120" lon="-5.6683140">
        <ele>551.3</ele>
        <time>2022-05-22T14:11:49Z</time>
      </trkpt>
      <trkpt lat="37.9844210" lon="-5.6683150">
        <ele>551.3</ele>
        <time>2022-05-22T14:11:50Z</time>
      </trkpt>
      <trkpt lat="37.9844360" lon="-5.6683160">
        <ele>551.3</ele>
        <time>2022-05-22T14:11:51Z</time>
      </trkpt>
      <trkpt lat="37.9844490" lon="-5.6683180">
        <ele>551.4</ele>
        <time>2022-05-22T14:11:52Z</time>
      </trkpt>
      <trkpt lat="37.9844650" lon="-5.6683190">
        <ele>551.4</ele>
        <time>2022-05-22T14:11:53Z</time>
      </trkpt>
      <trkpt lat="37.9844790" lon="-5.6683210">
        <ele>551.4</ele>
        <time>2022-05-22T14:11:54Z</time>
      </trkpt>
      <trkpt lat="37.9845080" lon="-5.6683280">
        <ele>551.5</ele>
        <time>2022-05-22T14:11:56Z</time>
      </trkpt>
      <trkpt lat="37.9845160" lon="-5.6683330">
        <ele>551.5</ele>
        <time>2022-05-22T14:11:57Z</time>
      </trkpt>
      <trkpt lat="37.9845370" lon="-5.6683400">
        <ele>551.6</ele>
        <time>2022-05-22T14:11:58Z</time>
      </trkpt>
      <trkpt lat="37.9845450" lon="-5.6683400">
        <ele>551.6</ele>
        <time>2022-05-22T14:11:59Z</time>
      </trkpt>
      <trkpt lat="37.9845540" lon="-5.6683410">
        <ele>551.6</ele>
        <time>2022-05-22T14:12:00Z</time>
      </trkpt>
      <trkpt lat="37.9845680" lon="-5.6683380">
        <ele>551.7</ele>
        <time>2022-05-22T14:12:01Z</time>
      </trkpt>
      <trkpt lat="37.9845870" lon="-5.6683360">
        <ele>551.7</ele>
        <time>2022-05-22T14:12:02Z</time>
      </trkpt>
      <trkpt lat="37.9845980" lon="-5.6683370">
        <ele>551.7</ele>
        <time>2022-05-22T14:12:03Z</time>
      </trkpt>
      <trkpt lat="37.9846080" lon="-5.6683370">
        <ele>551.8</ele>
        <time>2022-05-22T14:12:04Z</time>
      </trkpt>
      <trkpt lat="37.9846210" lon="-5.6683370">
        <ele>551.8</ele>
        <time>2022-05-22T14:12:06Z</time>
      </trkpt>
      <trkpt lat="37.9846340" lon="-5.6683370">
        <ele>551.8</ele>
        <time>2022-05-22T14:12:07Z</time>
      </trkpt>
      <trkpt lat="37.9846510" lon="-5.6683390">
        <ele>551.9</ele>
        <time>2022-05-22T14:12:08Z</time>
      </trkpt>
      <trkpt lat="37.9846620" lon="-5.6683400">
        <ele>551.9</ele>
        <time>2022-05-22T14:12:09Z</time>
      </trkpt>
      <trkpt lat="37.9846740" lon="-5.6683410">
        <ele>551.9</ele>
        <time>2022-05-22T14:12:10Z</time>
      </trkpt>
      <trkpt lat="37.9846870" lon="-5.6683410">
        <ele>552.0</ele>
        <time>2022-05-22T14:12:11Z</time>
      </trkpt>
      <trkpt lat="37.9847010" lon="-5.6683410">
        <ele>552.0</ele>
        <time>2022-05-22T14:12:12Z</time>
      </trkpt>
      <trkpt lat="37.9847170" lon="-5.6683390">
        <ele>552.0</ele>
        <time>2022-05-22T14:12:13Z</time>
      </trkpt>
      <trkpt lat="37.9847270" lon="-5.6683370">
        <ele>552.1</ele>
        <time>2022-05-22T14:12:14Z</time>
      </trkpt>
      <trkpt lat="37.9847370" lon="-5.6683330">
        <ele>552.1</ele>
        <time>2022-05-22T14:12:15Z</time>
      </trkpt>
      <trkpt lat="37.9847480" lon="-5.6683290">
        <ele>552.1</ele>
        <time>2022-05-22T14:12:16Z</time>
      </trkpt>
      <trkpt lat="37.9847600" lon="-5.6683240">
        <ele>552.1</ele>
        <time>2022-05-22T14:12:17Z</time>
      </trkpt>
      <trkpt lat="37.9847710" lon="-5.6683180">
        <ele>552.1</ele>
        <time>2022-05-22T14:12:18Z</time>
      </trkpt>
      <trkpt lat="37.9847710" lon="-5.6683100">
        <ele>552.2</ele>
        <time>2022-05-22T14:12:19Z</time>
      </trkpt>
      <trkpt lat="37.9847630" lon="-5.6683020">
        <ele>552.2</ele>
        <time>2022-05-22T14:12:20Z</time>
      </trkpt>
      <trkpt lat="37.9847670" lon="-5.6682960">
        <ele>552.2</ele>
        <time>2022-05-22T14:12:21Z</time>
      </trkpt>
      <trkpt lat="37.9847750" lon="-5.6682900">
        <ele>552.2</ele>
        <time>2022-05-22T14:12:22Z</time>
      </trkpt>
      <trkpt lat="37.9847860" lon="-5.6682850">
        <ele>552.2</ele>
        <time>2022-05-22T14:12:23Z</time>
      </trkpt>
      <trkpt lat="37.9847960" lon="-5.6682840">
        <ele>552.2</ele>
        <time>2022-05-22T14:12:24Z</time>
      </trkpt>
      <trkpt lat="37.9848120" lon="-5.6682850">
        <ele>552.3</ele>
        <time>2022-05-22T14:12:25Z</time>
      </trkpt>
      <trkpt lat="37.9848190" lon="-5.6682840">
        <ele>552.3</ele>
        <time>2022-05-22T14:12:26Z</time>
      </trkpt>
      <trkpt lat="37.9848270" lon="-5.6682820">
        <ele>552.3</ele>
        <time>2022-05-22T14:12:27Z</time>
      </trkpt>
      <trkpt lat="37.9848340" lon="-5.6682810">
        <ele>552.3</ele>
        <time>2022-05-22T14:12:28Z</time>
      </trkpt>
      <trkpt lat="37.9848470" lon="-5.6682770">
        <ele>552.3</ele>
        <time>2022-05-22T14:12:29Z</time>
      </trkpt>
      <trkpt lat="37.9848610" lon="-5.6682730">
        <ele>552.4</ele>
        <time>2022-05-22T14:12:30Z</time>
      </trkpt>
      <trkpt lat="37.9848760" lon="-5.6682680">
        <ele>552.4</ele>
        <time>2022-05-22T14:12:31Z</time>
      </trkpt>
      <trkpt lat="37.9848870" lon="-5.6682640">
        <ele>552.4</ele>
        <time>2022-05-22T14:12:32Z</time>
      </trkpt>
      <trkpt lat="37.9849090" lon="-5.6682540">
        <ele>552.5</ele>
        <time>2022-05-22T14:12:33Z</time>
      </trkpt>
      <trkpt lat="37.9849180" lon="-5.6682490">
        <ele>552.5</ele>
        <time>2022-05-22T14:12:34Z</time>
      </trkpt>
      <trkpt lat="37.9849280" lon="-5.6682450">
        <ele>552.5</ele>
        <time>2022-05-22T14:12:35Z</time>
      </trkpt>
      <trkpt lat="37.9849440" lon="-5.6682370">
        <ele>552.6</ele>
        <time>2022-05-22T14:12:36Z</time>
      </trkpt>
      <trkpt lat="37.9849570" lon="-5.6682330">
        <ele>552.6</ele>
        <time>2022-05-22T14:12:37Z</time>
      </trkpt>
      <trkpt lat="37.9849880" lon="-5.6682220">
        <ele>552.7</ele>
        <time>2022-05-22T14:12:39Z</time>
      </trkpt>
      <trkpt lat="37.9849950" lon="-5.6682200">
        <ele>552.7</ele>
        <time>2022-05-22T14:12:40Z</time>
      </trkpt>
      <trkpt lat="37.9850240" lon="-5.6682140">
        <ele>552.8</ele>
        <time>2022-05-22T14:12:41Z</time>
      </trkpt>
      <trkpt lat="37.9850340" lon="-5.6682120">
        <ele>552.8</ele>
        <time>2022-05-22T14:12:42Z</time>
      </trkpt>
      <trkpt lat="37.9850500" lon="-5.6682100">
        <ele>552.8</ele>
        <time>2022-05-22T14:12:43Z</time>
      </trkpt>
      <trkpt lat="37.9850750" lon="-5.6682050">
        <ele>552.9</ele>
        <time>2022-05-22T14:12:45Z</time>
      </trkpt>
      <trkpt lat="37.9850890" lon="-5.6682030">
        <ele>552.9</ele>
        <time>2022-05-22T14:12:46Z</time>
      </trkpt>
      <trkpt lat="37.9851050" lon="-5.6682010">
        <ele>553.0</ele>
        <time>2022-05-22T14:12:47Z</time>
      </trkpt>
      <trkpt lat="37.9851250" lon="-5.6681990">
        <ele>553.1</ele>
        <time>2022-05-22T14:12:48Z</time>
      </trkpt>
      <trkpt lat="37.9851490" lon="-5.6681920">
        <ele>553.1</ele>
        <time>2022-05-22T14:12:50Z</time>
      </trkpt>
      <trkpt lat="37.9851670" lon="-5.6681880">
        <ele>553.2</ele>
        <time>2022-05-22T14:12:51Z</time>
      </trkpt>
      <trkpt lat="37.9851820" lon="-5.6681830">
        <ele>553.2</ele>
        <time>2022-05-22T14:12:52Z</time>
      </trkpt>
      <trkpt lat="37.9851980" lon="-5.6681780">
        <ele>553.3</ele>
        <time>2022-05-22T14:12:53Z</time>
      </trkpt>
      <trkpt lat="37.9852110" lon="-5.6681740">
        <ele>553.3</ele>
        <time>2022-05-22T14:12:54Z</time>
      </trkpt>
      <trkpt lat="37.9852230" lon="-5.6681710">
        <ele>553.4</ele>
        <time>2022-05-22T14:12:55Z</time>
      </trkpt>
      <trkpt lat="37.9852380" lon="-5.6681660">
        <ele>553.4</ele>
        <time>2022-05-22T14:12:56Z</time>
      </trkpt>
      <trkpt lat="37.9852530" lon="-5.6681650">
        <ele>553.5</ele>
        <time>2022-05-22T14:12:57Z</time>
      </trkpt>
      <trkpt lat="37.9852690" lon="-5.6681600">
        <ele>553.5</ele>
        <time>2022-05-22T14:12:59Z</time>
      </trkpt>
      <trkpt lat="37.9852850" lon="-5.6681520">
        <ele>553.6</ele>
        <time>2022-05-22T14:13:00Z</time>
      </trkpt>
      <trkpt lat="37.9852950" lon="-5.6681470">
        <ele>553.6</ele>
        <time>2022-05-22T14:13:01Z</time>
      </trkpt>
      <trkpt lat="37.9853180" lon="-5.6681390">
        <ele>553.7</ele>
        <time>2022-05-22T14:13:02Z</time>
      </trkpt>
      <trkpt lat="37.9853290" lon="-5.6681350">
        <ele>553.7</ele>
        <time>2022-05-22T14:13:03Z</time>
      </trkpt>
      <trkpt lat="37.9853390" lon="-5.6681310">
        <ele>553.8</ele>
        <time>2022-05-22T14:13:05Z</time>
      </trkpt>
      <trkpt lat="37.9853500" lon="-5.6681270">
        <ele>553.8</ele>
        <time>2022-05-22T14:13:06Z</time>
      </trkpt>
      <trkpt lat="37.9853600" lon="-5.6681230">
        <ele>553.8</ele>
        <time>2022-05-22T14:13:07Z</time>
      </trkpt>
      <trkpt lat="37.9853710" lon="-5.6681190">
        <ele>553.9</ele>
        <time>2022-05-22T14:13:08Z</time>
      </trkpt>
      <trkpt lat="37.9853910" lon="-5.6681090">
        <ele>553.9</ele>
        <time>2022-05-22T14:13:09Z</time>
      </trkpt>
      <trkpt lat="37.9854000" lon="-5.6681060">
        <ele>554.0</ele>
        <time>2022-05-22T14:13:11Z</time>
      </trkpt>
      <trkpt lat="37.9854100" lon="-5.6681020">
        <ele>554.0</ele>
        <time>2022-05-22T14:13:12Z</time>
      </trkpt>
      <trkpt lat="37.9854280" lon="-5.6680960">
        <ele>554.0</ele>
        <time>2022-05-22T14:13:13Z</time>
      </trkpt>
      <trkpt lat="37.9854390" lon="-5.6680930">
        <ele>554.1</ele>
        <time>2022-05-22T14:13:14Z</time>
      </trkpt>
      <trkpt lat="37.9854640" lon="-5.6680850">
        <ele>554.1</ele>
        <time>2022-05-22T14:13:16Z</time>
      </trkpt>
      <trkpt lat="37.9854720" lon="-5.6680820">
        <ele>554.2</ele>
        <time>2022-05-22T14:13:17Z</time>
      </trkpt>
      <trkpt lat="37.9854800" lon="-5.6680790">
        <ele>554.2</ele>
        <time>2022-05-22T14:13:18Z</time>
      </trkpt>
      <trkpt lat="37.9855010" lon="-5.6680720">
        <ele>554.3</ele>
        <time>2022-05-22T14:13:19Z</time>
      </trkpt>
      <trkpt lat="37.9855090" lon="-5.6680690">
        <ele>554.3</ele>
        <time>2022-05-22T14:13:20Z</time>
      </trkpt>
      <trkpt lat="37.9855160" lon="-5.6680660">
        <ele>554.3</ele>
        <time>2022-05-22T14:13:21Z</time>
      </trkpt>
      <trkpt lat="37.9855370" lon="-5.6680560">
        <ele>554.4</ele>
        <time>2022-05-22T14:13:23Z</time>
      </trkpt>
      <trkpt lat="37.9855450" lon="-5.6680510">
        <ele>554.4</ele>
        <time>2022-05-22T14:13:24Z</time>
      </trkpt>
      <trkpt lat="37.9855540" lon="-5.6680470">
        <ele>554.4</ele>
        <time>2022-05-22T14:13:25Z</time>
      </trkpt>
      <trkpt lat="37.9855650" lon="-5.6680410">
        <ele>554.4</ele>
        <time>2022-05-22T14:13:26Z</time>
      </trkpt>
      <trkpt lat="37.9855750" lon="-5.6680370">
        <ele>554.5</ele>
        <time>2022-05-22T14:13:27Z</time>
      </trkpt>
      <trkpt lat="37.9855850" lon="-5.6680310">
        <ele>554.5</ele>
        <time>2022-05-22T14:13:28Z</time>
      </trkpt>
      <trkpt lat="37.9855950" lon="-5.6680250">
        <ele>554.5</ele>
        <time>2022-05-22T14:13:29Z</time>
      </trkpt>
      <trkpt lat="37.9856080" lon="-5.6680170">
        <ele>554.6</ele>
        <time>2022-05-22T14:13:30Z</time>
      </trkpt>
      <trkpt lat="37.9856160" lon="-5.6680120">
        <ele>554.6</ele>
        <time>2022-05-22T14:13:31Z</time>
      </trkpt>
      <trkpt lat="37.9856240" lon="-5.6680080">
        <ele>554.6</ele>
        <time>2022-05-22T14:13:32Z</time>
      </trkpt>
      <trkpt lat="37.9856320" lon="-5.6680030">
        <ele>554.6</ele>
        <time>2022-05-22T14:13:33Z</time>
      </trkpt>
      <trkpt lat="37.9856420" lon="-5.6679970">
        <ele>554.7</ele>
        <time>2022-05-22T14:13:34Z</time>
      </trkpt>
      <trkpt lat="37.9856510" lon="-5.6679900">
        <ele>554.7</ele>
        <time>2022-05-22T14:13:35Z</time>
      </trkpt>
      <trkpt lat="37.9856620" lon="-5.6679820">
        <ele>554.7</ele>
        <time>2022-05-22T14:13:36Z</time>
      </trkpt>
      <trkpt lat="37.9856690" lon="-5.6679770">
        <ele>554.7</ele>
        <time>2022-05-22T14:13:37Z</time>
      </trkpt>
      <trkpt lat="37.9856780" lon="-5.6679700">
        <ele>554.8</ele>
        <time>2022-05-22T14:13:38Z</time>
      </trkpt>
      <trkpt lat="37.9856880" lon="-5.6679630">
        <ele>554.8</ele>
        <time>2022-05-22T14:13:39Z</time>
      </trkpt>
      <trkpt lat="37.9856990" lon="-5.6679560">
        <ele>554.8</ele>
        <time>2022-05-22T14:13:40Z</time>
      </trkpt>
      <trkpt lat="37.9857100" lon="-5.6679490">
        <ele>554.9</ele>
        <time>2022-05-22T14:13:41Z</time>
      </trkpt>
      <trkpt lat="37.9857250" lon="-5.6679410">
        <ele>554.9</ele>
        <time>2022-05-22T14:13:42Z</time>
      </trkpt>
      <trkpt lat="37.9857350" lon="-5.6679360">
        <ele>554.9</ele>
        <time>2022-05-22T14:13:43Z</time>
      </trkpt>
      <trkpt lat="37.9857450" lon="-5.6679290">
        <ele>555.0</ele>
        <time>2022-05-22T14:13:44Z</time>
      </trkpt>
      <trkpt lat="37.9857570" lon="-5.6679220">
        <ele>555.0</ele>
        <time>2022-05-22T14:13:45Z</time>
      </trkpt>
      <trkpt lat="37.9857780" lon="-5.6679120">
        <ele>555.0</ele>
        <time>2022-05-22T14:13:46Z</time>
      </trkpt>
      <trkpt lat="37.9857870" lon="-5.6679080">
        <ele>555.1</ele>
        <time>2022-05-22T14:13:47Z</time>
      </trkpt>
      <trkpt lat="37.9857970" lon="-5.6679050">
        <ele>555.1</ele>
        <time>2022-05-22T14:13:48Z</time>
      </trkpt>
      <trkpt lat="37.9858280" lon="-5.6678940">
        <ele>555.2</ele>
        <time>2022-05-22T14:13:50Z</time>
      </trkpt>
      <trkpt lat="37.9858340" lon="-5.6678920">
        <ele>555.2</ele>
        <time>2022-05-22T14:13:51Z</time>
      </trkpt>
      <trkpt lat="37.9858460" lon="-5.6678860">
        <ele>555.2</ele>
        <time>2022-05-22T14:13:52Z</time>
      </trkpt>
      <trkpt lat="37.9858600" lon="-5.6678800">
        <ele>555.3</ele>
        <time>2022-05-22T14:13:53Z</time>
      </trkpt>
      <trkpt lat="37.9858770" lon="-5.6678680">
        <ele>555.3</ele>
        <time>2022-05-22T14:13:55Z</time>
      </trkpt>
      <trkpt lat="37.9858850" lon="-5.6678610">
        <ele>555.3</ele>
        <time>2022-05-22T14:13:56Z</time>
      </trkpt>
      <trkpt lat="37.9859010" lon="-5.6678470">
        <ele>555.4</ele>
        <time>2022-05-22T14:13:57Z</time>
      </trkpt>
      <trkpt lat="37.9859070" lon="-5.6678400">
        <ele>555.4</ele>
        <time>2022-05-22T14:13:58Z</time>
      </trkpt>
      <trkpt lat="37.9859140" lon="-5.6678340">
        <ele>555.4</ele>
        <time>2022-05-22T14:13:59Z</time>
      </trkpt>
      <trkpt lat="37.9859220" lon="-5.6678250">
        <ele>555.4</ele>
        <time>2022-05-22T14:14:00Z</time>
      </trkpt>
      <trkpt lat="37.9859300" lon="-5.6678170">
        <ele>555.5</ele>
        <time>2022-05-22T14:14:01Z</time>
      </trkpt>
      <trkpt lat="37.9859400" lon="-5.6678080">
        <ele>555.5</ele>
        <time>2022-05-22T14:14:02Z</time>
      </trkpt>
      <trkpt lat="37.9859550" lon="-5.6677960">
        <ele>555.5</ele>
        <time>2022-05-22T14:14:04Z</time>
      </trkpt>
      <trkpt lat="37.9859680" lon="-5.6677840">
        <ele>555.6</ele>
        <time>2022-05-22T14:14:06Z</time>
      </trkpt>
      <trkpt lat="37.9859760" lon="-5.6677780">
        <ele>555.6</ele>
        <time>2022-05-22T14:14:07Z</time>
      </trkpt>
      <trkpt lat="37.9859860" lon="-5.6677720">
        <ele>555.6</ele>
        <time>2022-05-22T14:14:08Z</time>
      </trkpt>
      <trkpt lat="37.9859970" lon="-5.6677640">
        <ele>555.6</ele>
        <time>2022-05-22T14:14:09Z</time>
      </trkpt>
      <trkpt lat="37.9860240" lon="-5.6677470">
        <ele>555.7</ele>
        <time>2022-05-22T14:14:11Z</time>
      </trkpt>
      <trkpt lat="37.9860310" lon="-5.6677420">
        <ele>555.7</ele>
        <time>2022-05-22T14:14:12Z</time>
      </trkpt>
      <trkpt lat="37.9860500" lon="-5.6677290">
        <ele>555.8</ele>
        <time>2022-05-22T14:14:13Z</time>
      </trkpt>
      <trkpt lat="37.9860590" lon="-5.6677240">
        <ele>555.8</ele>
        <time>2022-05-22T14:14:14Z</time>
      </trkpt>
      <trkpt lat="37.9860670" lon="-5.6677200">
        <ele>555.8</ele>
        <time>2022-05-22T14:14:15Z</time>
      </trkpt>
      <trkpt lat="37.9860870" lon="-5.6677100">
        <ele>555.9</ele>
        <time>2022-05-22T14:14:16Z</time>
      </trkpt>
      <trkpt lat="37.9860980" lon="-5.6677040">
        <ele>555.9</ele>
        <time>2022-05-22T14:14:17Z</time>
      </trkpt>
      <trkpt lat="37.9861090" lon="-5.6676990">
        <ele>555.9</ele>
        <time>2022-05-22T14:14:18Z</time>
      </trkpt>
      <trkpt lat="37.9861280" lon="-5.6676850">
        <ele>556.0</ele>
        <time>2022-05-22T14:14:19Z</time>
      </trkpt>
      <trkpt lat="37.9861370" lon="-5.6676770">
        <ele>556.0</ele>
        <time>2022-05-22T14:14:21Z</time>
      </trkpt>
      <trkpt lat="37.9861450" lon="-5.6676700">
        <ele>556.0</ele>
        <time>2022-05-22T14:14:22Z</time>
      </trkpt>
      <trkpt lat="37.9861590" lon="-5.6676580">
        <ele>556.1</ele>
        <time>2022-05-22T14:14:23Z</time>
      </trkpt>
      <trkpt lat="37.9861720" lon="-5.6676480">
        <ele>556.1</ele>
        <time>2022-05-22T14:14:24Z</time>
      </trkpt>
      <trkpt lat="37.9861830" lon="-5.6676400">
        <ele>556.2</ele>
        <time>2022-05-22T14:14:25Z</time>
      </trkpt>
      <trkpt lat="37.9861970" lon="-5.6676270">
        <ele>556.2</ele>
        <time>2022-05-22T14:14:26Z</time>
      </trkpt>
      <trkpt lat="37.9862100" lon="-5.6676170">
        <ele>556.2</ele>
        <time>2022-05-22T14:14:27Z</time>
      </trkpt>
      <trkpt lat="37.9862220" lon="-5.6676080">
        <ele>556.3</ele>
        <time>2022-05-22T14:14:28Z</time>
      </trkpt>
      <trkpt lat="37.9862400" lon="-5.6675950">
        <ele>556.3</ele>
        <time>2022-05-22T14:14:29Z</time>
      </trkpt>
      <trkpt lat="37.9862500" lon="-5.6675890">
        <ele>556.4</ele>
        <time>2022-05-22T14:14:30Z</time>
      </trkpt>
      <trkpt lat="37.9862680" lon="-5.6675770">
        <ele>556.4</ele>
        <time>2022-05-22T14:14:31Z</time>
      </trkpt>
      <trkpt lat="37.9862750" lon="-5.6675700">
        <ele>556.4</ele>
        <time>2022-05-22T14:14:32Z</time>
      </trkpt>
      <trkpt lat="37.9862820" lon="-5.6675640">
        <ele>556.5</ele>
        <time>2022-05-22T14:14:33Z</time>
      </trkpt>
      <trkpt lat="37.9862910" lon="-5.6675550">
        <ele>556.5</ele>
        <time>2022-05-22T14:14:34Z</time>
      </trkpt>
      <trkpt lat="37.9863050" lon="-5.6675410">
        <ele>556.5</ele>
        <time>2022-05-22T14:14:35Z</time>
      </trkpt>
      <trkpt lat="37.9863130" lon="-5.6675340">
        <ele>556.6</ele>
        <time>2022-05-22T14:14:36Z</time>
      </trkpt>
      <trkpt lat="37.9863240" lon="-5.6675250">
        <ele>556.6</ele>
        <time>2022-05-22T14:14:37Z</time>
      </trkpt>
      <trkpt lat="37.9863340" lon="-5.6675160">
        <ele>556.6</ele>
        <time>2022-05-22T14:14:38Z</time>
      </trkpt>
      <trkpt lat="37.9863440" lon="-5.6675080">
        <ele>556.6</ele>
        <time>2022-05-22T14:14:39Z</time>
      </trkpt>
      <trkpt lat="37.9863580" lon="-5.6674990">
        <ele>556.7</ele>
        <time>2022-05-22T14:14:41Z</time>
      </trkpt>
      <trkpt lat="37.9863680" lon="-5.6674920">
        <ele>556.7</ele>
        <time>2022-05-22T14:14:42Z</time>
      </trkpt>
      <trkpt lat="37.9863870" lon="-5.6674800">
        <ele>556.7</ele>
        <time>2022-05-22T14:14:43Z</time>
      </trkpt>
      <trkpt lat="37.9864020" lon="-5.6674720">
        <ele>556.8</ele>
        <time>2022-05-22T14:14:44Z</time>
      </trkpt>
      <trkpt lat="37.9864140" lon="-5.6674660">
        <ele>556.8</ele>
        <time>2022-05-22T14:14:45Z</time>
      </trkpt>
      <trkpt lat="37.9864460" lon="-5.6674490">
        <ele>556.9</ele>
        <time>2022-05-22T14:14:47Z</time>
      </trkpt>
      <trkpt lat="37.9864530" lon="-5.6674460">
        <ele>556.9</ele>
        <time>2022-05-22T14:14:48Z</time>
      </trkpt>
      <trkpt lat="37.9864670" lon="-5.6674400">
        <ele>556.9</ele>
        <time>2022-05-22T14:14:49Z</time>
      </trkpt>
      <trkpt lat="37.9864790" lon="-5.6674340">
        <ele>556.9</ele>
        <time>2022-05-22T14:14:50Z</time>
      </trkpt>
      <trkpt lat="37.9865090" lon="-5.6674210">
        <ele>557.0</ele>
        <time>2022-05-22T14:14:52Z</time>
      </trkpt>
      <trkpt lat="37.9865200" lon="-5.6674180">
        <ele>557.0</ele>
        <time>2022-05-22T14:14:53Z</time>
      </trkpt>
      <trkpt lat="37.9865360" lon="-5.6674140">
        <ele>557.1</ele>
        <time>2022-05-22T14:14:54Z</time>
      </trkpt>
      <trkpt lat="37.9865540" lon="-5.6674120">
        <ele>557.1</ele>
        <time>2022-05-22T14:14:55Z</time>
      </trkpt>
      <trkpt lat="37.9865750" lon="-5.6674080">
        <ele>557.1</ele>
        <time>2022-05-22T14:14:57Z</time>
      </trkpt>
      <trkpt lat="37.9866040" lon="-5.6673950">
        <ele>557.2</ele>
        <time>2022-05-22T14:14:58Z</time>
      </trkpt>
      <trkpt lat="37.9866140" lon="-5.6673910">
        <ele>557.2</ele>
        <time>2022-05-22T14:14:59Z</time>
      </trkpt>
      <trkpt lat="37.9866420" lon="-5.6673770">
        <ele>557.3</ele>
        <time>2022-05-22T14:15:00Z</time>
      </trkpt>
      <trkpt lat="37.9866550" lon="-5.6673690">
        <ele>557.3</ele>
        <time>2022-05-22T14:15:02Z</time>
      </trkpt>
      <trkpt lat="37.9866680" lon="-5.6673620">
        <ele>557.3</ele>
        <time>2022-05-22T14:15:03Z</time>
      </trkpt>
      <trkpt lat="37.9866820" lon="-5.6673540">
        <ele>557.4</ele>
        <time>2022-05-22T14:15:04Z</time>
      </trkpt>
      <trkpt lat="37.9867070" lon="-5.6673430">
        <ele>557.4</ele>
        <time>2022-05-22T14:15:05Z</time>
      </trkpt>
      <trkpt lat="37.9867190" lon="-5.6673370">
        <ele>557.4</ele>
        <time>2022-05-22T14:15:07Z</time>
      </trkpt>
      <trkpt lat="37.9867300" lon="-5.6673320">
        <ele>557.4</ele>
        <time>2022-05-22T14:15:08Z</time>
      </trkpt>
      <trkpt lat="37.9867420" lon="-5.6673270">
        <ele>557.5</ele>
        <time>2022-05-22T14:15:09Z</time>
      </trkpt>
      <trkpt lat="37.9867540" lon="-5.6673210">
        <ele>557.5</ele>
        <time>2022-05-22T14:15:10Z</time>
      </trkpt>
      <trkpt lat="37.9867620" lon="-5.6673160">
        <ele>557.5</ele>
        <time>2022-05-22T14:15:11Z</time>
      </trkpt>
      <trkpt lat="37.9867730" lon="-5.6673070">
        <ele>557.5</ele>
        <time>2022-05-22T14:15:12Z</time>
      </trkpt>
      <trkpt lat="37.9867810" lon="-5.6672990">
        <ele>557.5</ele>
        <time>2022-05-22T14:15:13Z</time>
      </trkpt>
      <trkpt lat="37.9867900" lon="-5.6672890">
        <ele>557.5</ele>
        <time>2022-05-22T14:15:14Z</time>
      </trkpt>
      <trkpt lat="37.9868020" lon="-5.6672760">
        <ele>557.5</ele>
        <time>2022-05-22T14:15:15Z</time>
      </trkpt>
      <trkpt lat="37.9868080" lon="-5.6672670">
        <ele>557.5</ele>
        <time>2022-05-22T14:15:16Z</time>
      </trkpt>
      <trkpt lat="37.9867900" lon="-5.6672720">
        <ele>557.5</ele>
        <time>2022-05-22T14:15:17Z</time>
      </trkpt>
      <trkpt lat="37.9867920" lon="-5.6672680">
        <ele>557.5</ele>
        <time>2022-05-22T14:15:18Z</time>
      </trkpt>
      <trkpt lat="37.9867970" lon="-5.6672610">
        <ele>557.5</ele>
        <time>2022-05-22T14:15:19Z</time>
      </trkpt>
      <trkpt lat="37.9868060" lon="-5.6672510">
        <ele>557.5</ele>
        <time>2022-05-22T14:15:20Z</time>
      </trkpt>
      <trkpt lat="37.9868140" lon="-5.6672430">
        <ele>557.5</ele>
        <time>2022-05-22T14:15:21Z</time>
      </trkpt>
      <trkpt lat="37.9868290" lon="-5.6672280">
        <ele>557.5</ele>
        <time>2022-05-22T14:15:22Z</time>
      </trkpt>
      <trkpt lat="37.9868360" lon="-5.6672220">
        <ele>557.5</ele>
        <time>2022-05-22T14:15:23Z</time>
      </trkpt>
      <trkpt lat="37.9868430" lon="-5.6672150">
        <ele>557.5</ele>
        <time>2022-05-22T14:15:24Z</time>
      </trkpt>
      <trkpt lat="37.9868530" lon="-5.6672070">
        <ele>557.5</ele>
        <time>2022-05-22T14:15:25Z</time>
      </trkpt>
      <trkpt lat="37.9868660" lon="-5.6671970">
        <ele>557.5</ele>
        <time>2022-05-22T14:15:26Z</time>
      </trkpt>
      <trkpt lat="37.9868710" lon="-5.6672030">
        <ele>557.5</ele>
        <time>2022-05-22T14:15:27Z</time>
      </trkpt>
      <trkpt lat="37.9868780" lon="-5.6672040">
        <ele>557.5</ele>
        <time>2022-05-22T14:15:28Z</time>
      </trkpt>
      <trkpt lat="37.9868890" lon="-5.6671990">
        <ele>557.5</ele>
        <time>2022-05-22T14:15:29Z</time>
      </trkpt>
      <trkpt lat="37.9869020" lon="-5.6671930">
        <ele>557.5</ele>
        <time>2022-05-22T14:15:30Z</time>
      </trkpt>
      <trkpt lat="37.9869280" lon="-5.6671810">
        <ele>557.5</ele>
        <time>2022-05-22T14:15:32Z</time>
      </trkpt>
      <trkpt lat="37.9869390" lon="-5.6671770">
        <ele>557.5</ele>
        <time>2022-05-22T14:15:33Z</time>
      </trkpt>
      <trkpt lat="37.9869520" lon="-5.6671730">
        <ele>557.4</ele>
        <time>2022-05-22T14:15:34Z</time>
      </trkpt>
      <trkpt lat="37.9869550" lon="-5.6671730">
        <ele>557.4</ele>
        <time>2022-05-22T14:15:35Z</time>
      </trkpt>
      <trkpt lat="37.9869700" lon="-5.6671660">
        <ele>557.4</ele>
        <time>2022-05-22T14:15:37Z</time>
      </trkpt>
      <trkpt lat="37.9869870" lon="-5.6671570">
        <ele>557.4</ele>
        <time>2022-05-22T14:15:38Z</time>
      </trkpt>
      <trkpt lat="37.9869980" lon="-5.6671520">
        <ele>557.4</ele>
        <time>2022-05-22T14:15:39Z</time>
      </trkpt>
      <trkpt lat="37.9870170" lon="-5.6671430">
        <ele>557.4</ele>
        <time>2022-05-22T14:15:40Z</time>
      </trkpt>
      <trkpt lat="37.9870500" lon="-5.6671310">
        <ele>557.3</ele>
        <time>2022-05-22T14:15:42Z</time>
      </trkpt>
      <trkpt lat="37.9870610" lon="-5.6671280">
        <ele>557.3</ele>
        <time>2022-05-22T14:15:43Z</time>
      </trkpt>
      <trkpt lat="37.9870670" lon="-5.6671240">
        <ele>557.3</ele>
        <time>2022-05-22T14:15:44Z</time>
      </trkpt>
      <trkpt lat="37.9870750" lon="-5.6671180">
        <ele>557.3</ele>
        <time>2022-05-22T14:15:45Z</time>
      </trkpt>
      <trkpt lat="37.9870860" lon="-5.6671100">
        <ele>557.3</ele>
        <time>2022-05-22T14:15:46Z</time>
      </trkpt>
      <trkpt lat="37.9870990" lon="-5.6671040">
        <ele>557.3</ele>
        <time>2022-05-22T14:15:47Z</time>
      </trkpt>
      <trkpt lat="37.9871170" lon="-5.6670990">
        <ele>557.3</ele>
        <time>2022-05-22T14:15:48Z</time>
      </trkpt>
      <trkpt lat="37.9871450" lon="-5.6670920">
        <ele>557.3</ele>
        <time>2022-05-22T14:15:49Z</time>
      </trkpt>
      <trkpt lat="37.9871530" lon="-5.6670890">
        <ele>557.3</ele>
        <time>2022-05-22T14:15:50Z</time>
      </trkpt>
      <trkpt lat="37.9871850" lon="-5.6670750">
        <ele>557.3</ele>
        <time>2022-05-22T14:15:52Z</time>
      </trkpt>
      <trkpt lat="37.9871970" lon="-5.6670690">
        <ele>557.3</ele>
        <time>2022-05-22T14:15:53Z</time>
      </trkpt>
      <trkpt lat="37.9872110" lon="-5.6670610">
        <ele>557.3</ele>
        <time>2022-05-22T14:15:54Z</time>
      </trkpt>
      <trkpt lat="37.9872280" lon="-5.6670520">
        <ele>557.3</ele>
        <time>2022-05-22T14:15:55Z</time>
      </trkpt>
      <trkpt lat="37.9872510" lon="-5.6670430">
        <ele>557.3</ele>
        <time>2022-05-22T14:15:56Z</time>
      </trkpt>
      <trkpt lat="37.9872600" lon="-5.6670400">
        <ele>557.3</ele>
        <time>2022-05-22T14:15:57Z</time>
      </trkpt>
      <trkpt lat="37.9872680" lon="-5.6670370">
        <ele>557.3</ele>
        <time>2022-05-22T14:15:58Z</time>
      </trkpt>
      <trkpt lat="37.9872830" lon="-5.6670330">
        <ele>557.3</ele>
        <time>2022-05-22T14:15:59Z</time>
      </trkpt>
      <trkpt lat="37.9872970" lon="-5.6670270">
        <ele>557.3</ele>
        <time>2022-05-22T14:16:00Z</time>
      </trkpt>
      <trkpt lat="37.9873160" lon="-5.6670180">
        <ele>557.3</ele>
        <time>2022-05-22T14:16:01Z</time>
      </trkpt>
      <trkpt lat="37.9873290" lon="-5.6670100">
        <ele>557.3</ele>
        <time>2022-05-22T14:16:02Z</time>
      </trkpt>
      <trkpt lat="37.9873400" lon="-5.6670030">
        <ele>557.4</ele>
        <time>2022-05-22T14:16:03Z</time>
      </trkpt>
      <trkpt lat="37.9873530" lon="-5.6669970">
        <ele>557.4</ele>
        <time>2022-05-22T14:16:04Z</time>
      </trkpt>
      <trkpt lat="37.9873810" lon="-5.6669830">
        <ele>557.4</ele>
        <time>2022-05-22T14:16:06Z</time>
      </trkpt>
      <trkpt lat="37.9874000" lon="-5.6669740">
        <ele>557.4</ele>
        <time>2022-05-22T14:16:07Z</time>
      </trkpt>
      <trkpt lat="37.9874060" lon="-5.6669720">
        <ele>557.4</ele>
        <time>2022-05-22T14:16:08Z</time>
      </trkpt>
      <trkpt lat="37.9874260" lon="-5.6669630">
        <ele>557.4</ele>
        <time>2022-05-22T14:16:09Z</time>
      </trkpt>
      <trkpt lat="37.9874340" lon="-5.6669600">
        <ele>557.4</ele>
        <time>2022-05-22T14:16:10Z</time>
      </trkpt>
      <trkpt lat="37.9874410" lon="-5.6669560">
        <ele>557.4</ele>
        <time>2022-05-22T14:16:11Z</time>
      </trkpt>
      <trkpt lat="37.9874580" lon="-5.6669490">
        <ele>557.4</ele>
        <time>2022-05-22T14:16:12Z</time>
      </trkpt>
      <trkpt lat="37.9874770" lon="-5.6669410">
        <ele>557.4</ele>
        <time>2022-05-22T14:16:14Z</time>
      </trkpt>
      <trkpt lat="37.9874960" lon="-5.6669350">
        <ele>557.4</ele>
        <time>2022-05-22T14:16:15Z</time>
      </trkpt>
      <trkpt lat="37.9875050" lon="-5.6669320">
        <ele>557.4</ele>
        <time>2022-05-22T14:16:16Z</time>
      </trkpt>
      <trkpt lat="37.9875140" lon="-5.6669300">
        <ele>557.4</ele>
        <time>2022-05-22T14:16:17Z</time>
      </trkpt>
      <trkpt lat="37.9875430" lon="-5.6669270">
        <ele>557.4</ele>
        <time>2022-05-22T14:16:19Z</time>
      </trkpt>
      <trkpt lat="37.9875530" lon="-5.6669270">
        <ele>557.4</ele>
        <time>2022-05-22T14:16:20Z</time>
      </trkpt>
      <trkpt lat="37.9875650" lon="-5.6669290">
        <ele>557.4</ele>
        <time>2022-05-22T14:16:21Z</time>
      </trkpt>
      <trkpt lat="37.9875770" lon="-5.6669270">
        <ele>557.4</ele>
        <time>2022-05-22T14:16:22Z</time>
      </trkpt>
      <trkpt lat="37.9875880" lon="-5.6669250">
        <ele>557.5</ele>
        <time>2022-05-22T14:16:23Z</time>
      </trkpt>
      <trkpt lat="37.9876030" lon="-5.6669250">
        <ele>557.5</ele>
        <time>2022-05-22T14:16:24Z</time>
      </trkpt>
      <trkpt lat="37.9876160" lon="-5.6669230">
        <ele>557.5</ele>
        <time>2022-05-22T14:16:25Z</time>
      </trkpt>
      <trkpt lat="37.9876390" lon="-5.6669190">
        <ele>557.5</ele>
        <time>2022-05-22T14:16:26Z</time>
      </trkpt>
      <trkpt lat="37.9876490" lon="-5.6669170">
        <ele>557.5</ele>
        <time>2022-05-22T14:16:27Z</time>
      </trkpt>
      <trkpt lat="37.9876590" lon="-5.6669160">
        <ele>557.5</ele>
        <time>2022-05-22T14:16:28Z</time>
      </trkpt>
      <trkpt lat="37.9876780" lon="-5.6669140">
        <ele>557.6</ele>
        <time>2022-05-22T14:16:29Z</time>
      </trkpt>
      <trkpt lat="37.9876860" lon="-5.6669130">
        <ele>557.6</ele>
        <time>2022-05-22T14:16:30Z</time>
      </trkpt>
      <trkpt lat="37.9876950" lon="-5.6669110">
        <ele>557.6</ele>
        <time>2022-05-22T14:16:31Z</time>
      </trkpt>
      <trkpt lat="37.9877060" lon="-5.6669070">
        <ele>557.6</ele>
        <time>2022-05-22T14:16:32Z</time>
      </trkpt>
      <trkpt lat="37.9877160" lon="-5.6669020">
        <ele>557.6</ele>
        <time>2022-05-22T14:16:33Z</time>
      </trkpt>
      <trkpt lat="37.9877280" lon="-5.6668970">
        <ele>557.6</ele>
        <time>2022-05-22T14:16:34Z</time>
      </trkpt>
      <trkpt lat="37.9877450" lon="-5.6668920">
        <ele>557.6</ele>
        <time>2022-05-22T14:16:35Z</time>
      </trkpt>
      <trkpt lat="37.9877550" lon="-5.6668900">
        <ele>557.7</ele>
        <time>2022-05-22T14:16:37Z</time>
      </trkpt>
      <trkpt lat="37.9877640" lon="-5.6668890">
        <ele>557.7</ele>
        <time>2022-05-22T14:16:38Z</time>
      </trkpt>
      <trkpt lat="37.9877950" lon="-5.6668880">
        <ele>557.7</ele>
        <time>2022-05-22T14:16:39Z</time>
      </trkpt>
      <trkpt lat="37.9878050" lon="-5.6668880">
        <ele>557.7</ele>
        <time>2022-05-22T14:16:40Z</time>
      </trkpt>
      <trkpt lat="37.9878190" lon="-5.6668890">
        <ele>557.8</ele>
        <time>2022-05-22T14:16:41Z</time>
      </trkpt>
      <trkpt lat="37.9878300" lon="-5.6668870">
        <ele>557.8</ele>
        <time>2022-05-22T14:16:42Z</time>
      </trkpt>
      <trkpt lat="37.9878530" lon="-5.6668870">
        <ele>557.8</ele>
        <time>2022-05-22T14:16:44Z</time>
      </trkpt>
      <trkpt lat="37.9878630" lon="-5.6668870">
        <ele>557.8</ele>
        <time>2022-05-22T14:16:45Z</time>
      </trkpt>
      <trkpt lat="37.9878770" lon="-5.6668860">
        <ele>557.9</ele>
        <time>2022-05-22T14:16:46Z</time>
      </trkpt>
      <trkpt lat="37.9878890" lon="-5.6668860">
        <ele>557.9</ele>
        <time>2022-05-22T14:16:47Z</time>
      </trkpt>
      <trkpt lat="37.9879090" lon="-5.6668850">
        <ele>557.9</ele>
        <time>2022-05-22T14:16:49Z</time>
      </trkpt>
      <trkpt lat="37.9879230" lon="-5.6668830">
        <ele>557.9</ele>
        <time>2022-05-22T14:16:50Z</time>
      </trkpt>
      <trkpt lat="37.9879340" lon="-5.6668810">
        <ele>558.0</ele>
        <time>2022-05-22T14:16:51Z</time>
      </trkpt>
      <trkpt lat="37.9879470" lon="-5.6668790">
        <ele>558.0</ele>
        <time>2022-05-22T14:16:52Z</time>
      </trkpt>
      <trkpt lat="37.9879670" lon="-5.6668740">
        <ele>558.0</ele>
        <time>2022-05-22T14:16:54Z</time>
      </trkpt>
      <trkpt lat="37.9879850" lon="-5.6668710">
        <ele>558.1</ele>
        <time>2022-05-22T14:16:55Z</time>
      </trkpt>
      <trkpt lat="37.9880010" lon="-5.6668710">
        <ele>558.1</ele>
        <time>2022-05-22T14:16:56Z</time>
      </trkpt>
      <trkpt lat="37.9880150" lon="-5.6668720">
        <ele>558.2</ele>
        <time>2022-05-22T14:16:57Z</time>
      </trkpt>
      <trkpt lat="37.9880390" lon="-5.6668720">
        <ele>558.2</ele>
        <time>2022-05-22T14:16:59Z</time>
      </trkpt>
      <trkpt lat="37.9880530" lon="-5.6668720">
        <ele>558.2</ele>
        <time>2022-05-22T14:17:00Z</time>
      </trkpt>
      <trkpt lat="37.9880680" lon="-5.6668740">
        <ele>558.3</ele>
        <time>2022-05-22T14:17:01Z</time>
      </trkpt>
      <trkpt lat="37.9880820" lon="-5.6668770">
        <ele>558.3</ele>
        <time>2022-05-22T14:17:02Z</time>
      </trkpt>
      <trkpt lat="37.9880990" lon="-5.6668850">
        <ele>558.4</ele>
        <time>2022-05-22T14:17:03Z</time>
      </trkpt>
      <trkpt lat="37.9881270" lon="-5.6668930">
        <ele>558.4</ele>
        <time>2022-05-22T14:17:04Z</time>
      </trkpt>
      <trkpt lat="37.9881380" lon="-5.6668950">
        <ele>558.5</ele>
        <time>2022-05-22T14:17:05Z</time>
      </trkpt>
      <trkpt lat="37.9881540" lon="-5.6668990">
        <ele>558.5</ele>
        <time>2022-05-22T14:17:06Z</time>
      </trkpt>
      <trkpt lat="37.9881700" lon="-5.6669030">
        <ele>558.6</ele>
        <time>2022-05-22T14:17:07Z</time>
      </trkpt>
      <trkpt lat="37.9882010" lon="-5.6669060">
        <ele>558.6</ele>
        <time>2022-05-22T14:17:08Z</time>
      </trkpt>
      <trkpt lat="37.9882130" lon="-5.6669050">
        <ele>558.7</ele>
        <time>2022-05-22T14:17:10Z</time>
      </trkpt>
      <trkpt lat="37.9882260" lon="-5.6669050">
        <ele>558.7</ele>
        <time>2022-05-22T14:17:11Z</time>
      </trkpt>
      <trkpt lat="37.9882380" lon="-5.6669040">
        <ele>558.7</ele>
        <time>2022-05-22T14:17:12Z</time>
      </trkpt>
      <trkpt lat="37.9882540" lon="-5.6669060">
        <ele>558.8</ele>
        <time>2022-05-22T14:17:13Z</time>
      </trkpt>
      <trkpt lat="37.9882670" lon="-5.6669080">
        <ele>558.8</ele>
        <time>2022-05-22T14:17:14Z</time>
      </trkpt>
      <trkpt lat="37.9882800" lon="-5.6669100">
        <ele>558.8</ele>
        <time>2022-05-22T14:17:15Z</time>
      </trkpt>
      <trkpt lat="37.9882940" lon="-5.6669120">
        <ele>558.9</ele>
        <time>2022-05-22T14:17:16Z</time>
      </trkpt>
      <trkpt lat="37.9883160" lon="-5.6669150">
        <ele>558.9</ele>
        <time>2022-05-22T14:17:17Z</time>
      </trkpt>
      <trkpt lat="37.9883240" lon="-5.6669170">
        <ele>559.0</ele>
        <time>2022-05-22T14:17:18Z</time>
      </trkpt>
      <trkpt lat="37.9883320" lon="-5.6669180">
        <ele>559.0</ele>
        <time>2022-05-22T14:17:19Z</time>
      </trkpt>
      <trkpt lat="37.9883450" lon="-5.6669210">
        <ele>559.0</ele>
        <time>2022-05-22T14:17:20Z</time>
      </trkpt>
      <trkpt lat="37.9883510" lon="-5.6669230">
        <ele>559.0</ele>
        <time>2022-05-22T14:17:21Z</time>
      </trkpt>
      <trkpt lat="37.9883650" lon="-5.6669260">
        <ele>559.1</ele>
        <time>2022-05-22T14:17:22Z</time>
      </trkpt>
      <trkpt lat="37.9883850" lon="-5.6669330">
        <ele>559.1</ele>
        <time>2022-05-22T14:17:23Z</time>
      </trkpt>
      <trkpt lat="37.9883930" lon="-5.6669360">
        <ele>559.1</ele>
        <time>2022-05-22T14:17:24Z</time>
      </trkpt>
      <trkpt lat="37.9884000" lon="-5.6669390">
        <ele>559.2</ele>
        <time>2022-05-22T14:17:25Z</time>
      </trkpt>
      <trkpt lat="37.9884080" lon="-5.6669460">
        <ele>559.2</ele>
        <time>2022-05-22T14:17:27Z</time>
      </trkpt>
      <trkpt lat="37.9884140" lon="-5.6669500">
        <ele>559.2</ele>
        <time>2022-05-22T14:17:28Z</time>
      </trkpt>
      <trkpt lat="37.9884250" lon="-5.6669560">
        <ele>559.2</ele>
        <time>2022-05-22T14:17:29Z</time>
      </trkpt>
      <trkpt lat="37.9884440" lon="-5.6669600">
        <ele>559.3</ele>
        <time>2022-05-22T14:17:30Z</time>
      </trkpt>
      <trkpt lat="37.9884530" lon="-5.6669620">
        <ele>559.3</ele>
        <time>2022-05-22T14:17:32Z</time>
      </trkpt>
      <trkpt lat="37.9884620" lon="-5.6669640">
        <ele>559.3</ele>
        <time>2022-05-22T14:17:33Z</time>
      </trkpt>
      <trkpt lat="37.9884710" lon="-5.6669670">
        <ele>559.4</ele>
        <time>2022-05-22T14:17:34Z</time>
      </trkpt>
      <trkpt lat="37.9884820" lon="-5.6669720">
        <ele>559.4</ele>
        <time>2022-05-22T14:17:35Z</time>
      </trkpt>
      <trkpt lat="37.9884890" lon="-5.6669770">
        <ele>559.4</ele>
        <time>2022-05-22T14:17:36Z</time>
      </trkpt>
      <trkpt lat="37.9885010" lon="-5.6669840">
        <ele>559.4</ele>
        <time>2022-05-22T14:17:37Z</time>
      </trkpt>
      <trkpt lat="37.9885100" lon="-5.6669900">
        <ele>559.5</ele>
        <time>2022-05-22T14:17:38Z</time>
      </trkpt>
      <trkpt lat="37.9885200" lon="-5.6669950">
        <ele>559.5</ele>
        <time>2022-05-22T14:17:39Z</time>
      </trkpt>
      <trkpt lat="37.9885440" lon="-5.6670020">
        <ele>559.6</ele>
        <time>2022-05-22T14:17:40Z</time>
      </trkpt>
      <trkpt lat="37.9885560" lon="-5.6670050">
        <ele>559.6</ele>
        <time>2022-05-22T14:17:42Z</time>
      </trkpt>
      <trkpt lat="37.9885680" lon="-5.6670070">
        <ele>559.6</ele>
        <time>2022-05-22T14:17:43Z</time>
      </trkpt>
      <trkpt lat="37.9885790" lon="-5.6670070">
        <ele>559.7</ele>
        <time>2022-05-22T14:17:44Z</time>
      </trkpt>
      <trkpt lat="37.9885910" lon="-5.6670060">
        <ele>559.7</ele>
        <time>2022-05-22T14:17:45Z</time>
      </trkpt>
      <trkpt lat="37.9886000" lon="-5.6670040">
        <ele>559.7</ele>
        <time>2022-05-22T14:17:46Z</time>
      </trkpt>
      <trkpt lat="37.9886220" lon="-5.6670040">
        <ele>559.8</ele>
        <time>2022-05-22T14:17:47Z</time>
      </trkpt>
      <trkpt lat="37.9886330" lon="-5.6670040">
        <ele>559.8</ele>
        <time>2022-05-22T14:17:48Z</time>
      </trkpt>
      <trkpt lat="37.9886440" lon="-5.6670040">
        <ele>559.8</ele>
        <time>2022-05-22T14:17:49Z</time>
      </trkpt>
      <trkpt lat="37.9886640" lon="-5.6669990">
        <ele>559.9</ele>
        <time>2022-05-22T14:17:50Z</time>
      </trkpt>
      <trkpt lat="37.9886720" lon="-5.6669970">
        <ele>559.9</ele>
        <time>2022-05-22T14:17:51Z</time>
      </trkpt>
      <trkpt lat="37.9886810" lon="-5.6669950">
        <ele>559.9</ele>
        <time>2022-05-22T14:17:52Z</time>
      </trkpt>
      <trkpt lat="37.9887150" lon="-5.6669940">
        <ele>560.0</ele>
        <time>2022-05-22T14:17:54Z</time>
      </trkpt>
      <trkpt lat="37.9887220" lon="-5.6669970">
        <ele>560.1</ele>
        <time>2022-05-22T14:17:55Z</time>
      </trkpt>
      <trkpt lat="37.9887230" lon="-5.6670090">
        <ele>560.1</ele>
        <time>2022-05-22T14:17:56Z</time>
      </trkpt>
      <trkpt lat="37.9887280" lon="-5.6670140">
        <ele>560.1</ele>
        <time>2022-05-22T14:17:57Z</time>
      </trkpt>
      <trkpt lat="37.9887330" lon="-5.6670190">
        <ele>560.1</ele>
        <time>2022-05-22T14:17:58Z</time>
      </trkpt>
      <trkpt lat="37.9887380" lon="-5.6670230">
        <ele>560.2</ele>
        <time>2022-05-22T14:17:59Z</time>
      </trkpt>
      <trkpt lat="37.9887430" lon="-5.6670280">
        <ele>560.2</ele>
        <time>2022-05-22T14:18:01Z</time>
      </trkpt>
      <trkpt lat="37.9887470" lon="-5.6670330">
        <ele>560.2</ele>
        <time>2022-05-22T14:18:02Z</time>
      </trkpt>
      <trkpt lat="37.9887690" lon="-5.6670420">
        <ele>560.3</ele>
        <time>2022-05-22T14:18:03Z</time>
      </trkpt>
      <trkpt lat="37.9887890" lon="-5.6670510">
        <ele>560.3</ele>
        <time>2022-05-22T14:18:05Z</time>
      </trkpt>
      <trkpt lat="37.9888010" lon="-5.6670560">
        <ele>560.4</ele>
        <time>2022-05-22T14:18:06Z</time>
      </trkpt>
      <trkpt lat="37.9888180" lon="-5.6670600">
        <ele>560.4</ele>
        <time>2022-05-22T14:18:07Z</time>
      </trkpt>
      <trkpt lat="37.9888320" lon="-5.6670620">
        <ele>560.5</ele>
        <time>2022-05-22T14:18:08Z</time>
      </trkpt>
      <trkpt lat="37.9888500" lon="-5.6670620">
        <ele>560.5</ele>
        <time>2022-05-22T14:18:09Z</time>
      </trkpt>
      <trkpt lat="37.9888850" lon="-5.6670660">
        <ele>560.6</ele>
        <time>2022-05-22T14:18:11Z</time>
      </trkpt>
      <trkpt lat="37.9889120" lon="-5.6670660">
        <ele>560.7</ele>
        <time>2022-05-22T14:18:12Z</time>
      </trkpt>
      <trkpt lat="37.9889300" lon="-5.6670650">
        <ele>560.8</ele>
        <time>2022-05-22T14:18:13Z</time>
      </trkpt>
      <trkpt lat="37.9889400" lon="-5.6670610">
        <ele>560.8</ele>
        <time>2022-05-22T14:18:14Z</time>
      </trkpt>
      <trkpt lat="37.9889550" lon="-5.6670580">
        <ele>560.9</ele>
        <time>2022-05-22T14:18:16Z</time>
      </trkpt>
      <trkpt lat="37.9889740" lon="-5.6670630">
        <ele>560.9</ele>
        <time>2022-05-22T14:18:17Z</time>
      </trkpt>
      <trkpt lat="37.9889930" lon="-5.6670700">
        <ele>561.0</ele>
        <time>2022-05-22T14:18:18Z</time>
      </trkpt>
      <trkpt lat="37.9890020" lon="-5.6670720">
        <ele>561.0</ele>
        <time>2022-05-22T14:18:19Z</time>
      </trkpt>
      <trkpt lat="37.9890100" lon="-5.6670740">
        <ele>561.0</ele>
        <time>2022-05-22T14:18:20Z</time>
      </trkpt>
      <trkpt lat="37.9890240" lon="-5.6670740">
        <ele>561.1</ele>
        <time>2022-05-22T14:18:21Z</time>
      </trkpt>
      <trkpt lat="37.9890450" lon="-5.6670760">
        <ele>561.1</ele>
        <time>2022-05-22T14:18:22Z</time>
      </trkpt>
      <trkpt lat="37.9890650" lon="-5.6670770">
        <ele>561.2</ele>
        <time>2022-05-22T14:18:24Z</time>
      </trkpt>
      <trkpt lat="37.9890780" lon="-5.6670790">
        <ele>561.2</ele>
        <time>2022-05-22T14:18:25Z</time>
      </trkpt>
      <trkpt lat="37.9891000" lon="-5.6670820">
        <ele>561.3</ele>
        <time>2022-05-22T14:18:26Z</time>
      </trkpt>
      <trkpt lat="37.9891100" lon="-5.6670830">
        <ele>561.3</ele>
        <time>2022-05-22T14:18:27Z</time>
      </trkpt>
      <trkpt lat="37.9891210" lon="-5.6670840">
        <ele>561.4</ele>
        <time>2022-05-22T14:18:28Z</time>
      </trkpt>
      <trkpt lat="37.9891410" lon="-5.6670850">
        <ele>561.4</ele>
        <time>2022-05-22T14:18:29Z</time>
      </trkpt>
      <trkpt lat="37.9891500" lon="-5.6670860">
        <ele>561.4</ele>
        <time>2022-05-22T14:18:30Z</time>
      </trkpt>
      <trkpt lat="37.9891580" lon="-5.6670870">
        <ele>561.5</ele>
        <time>2022-05-22T14:18:31Z</time>
      </trkpt>
      <trkpt lat="37.9891680" lon="-5.6670890">
        <ele>561.5</ele>
        <time>2022-05-22T14:18:32Z</time>
      </trkpt>
      <trkpt lat="37.9891770" lon="-5.6670900">
        <ele>561.5</ele>
        <time>2022-05-22T14:18:33Z</time>
      </trkpt>
      <trkpt lat="37.9891860" lon="-5.6670840">
        <ele>561.6</ele>
        <time>2022-05-22T14:18:34Z</time>
      </trkpt>
      <trkpt lat="37.9891970" lon="-5.6670800">
        <ele>561.6</ele>
        <time>2022-05-22T14:18:36Z</time>
      </trkpt>
      <trkpt lat="37.9892070" lon="-5.6670810">
        <ele>561.6</ele>
        <time>2022-05-22T14:18:37Z</time>
      </trkpt>
      <trkpt lat="37.9892190" lon="-5.6670840">
        <ele>561.7</ele>
        <time>2022-05-22T14:18:38Z</time>
      </trkpt>
      <trkpt lat="37.9892490" lon="-5.6670930">
        <ele>561.7</ele>
        <time>2022-05-22T14:18:39Z</time>
      </trkpt>
      <trkpt lat="37.9892560" lon="-5.6670930">
        <ele>561.8</ele>
        <time>2022-05-22T14:18:40Z</time>
      </trkpt>
      <trkpt lat="37.9892790" lon="-5.6670970">
        <ele>561.8</ele>
        <time>2022-05-22T14:18:41Z</time>
      </trkpt>
      <trkpt lat="37.9892890" lon="-5.6671000">
        <ele>561.9</ele>
        <time>2022-05-22T14:18:42Z</time>
      </trkpt>
      <trkpt lat="37.9892990" lon="-5.6671030">
        <ele>561.9</ele>
        <time>2022-05-22T14:18:43Z</time>
      </trkpt>
      <trkpt lat="37.9893160" lon="-5.6671090">
        <ele>561.9</ele>
        <time>2022-05-22T14:18:44Z</time>
      </trkpt>
      <trkpt lat="37.9893310" lon="-5.6671140">
        <ele>562.0</ele>
        <time>2022-05-22T14:18:45Z</time>
      </trkpt>
      <trkpt lat="37.9893440" lon="-5.6671170">
        <ele>562.0</ele>
        <time>2022-05-22T14:18:46Z</time>
      </trkpt>
      <trkpt lat="37.9893590" lon="-5.6671210">
        <ele>562.1</ele>
        <time>2022-05-22T14:18:48Z</time>
      </trkpt>
      <trkpt lat="37.9893810" lon="-5.6671250">
        <ele>562.1</ele>
        <time>2022-05-22T14:18:49Z</time>
      </trkpt>
      <trkpt lat="37.9893940" lon="-5.6671320">
        <ele>562.2</ele>
        <time>2022-05-22T14:18:50Z</time>
      </trkpt>
      <trkpt lat="37.9894120" lon="-5.6671380">
        <ele>562.2</ele>
        <time>2022-05-22T14:18:51Z</time>
      </trkpt>
      <trkpt lat="37.9894200" lon="-5.6671410">
        <ele>562.3</ele>
        <time>2022-05-22T14:18:52Z</time>
      </trkpt>
      <trkpt lat="37.9894290" lon="-5.6671440">
        <ele>562.3</ele>
        <time>2022-05-22T14:18:53Z</time>
      </trkpt>
      <trkpt lat="37.9894520" lon="-5.6671500">
        <ele>562.4</ele>
        <time>2022-05-22T14:18:54Z</time>
      </trkpt>
      <trkpt lat="37.9894590" lon="-5.6671520">
        <ele>562.4</ele>
        <time>2022-05-22T14:18:55Z</time>
      </trkpt>
      <trkpt lat="37.9894660" lon="-5.6671550">
        <ele>562.4</ele>
        <time>2022-05-22T14:18:56Z</time>
      </trkpt>
      <trkpt lat="37.9894790" lon="-5.6671580">
        <ele>562.4</ele>
        <time>2022-05-22T14:18:57Z</time>
      </trkpt>
      <trkpt lat="37.9894900" lon="-5.6671600">
        <ele>562.5</ele>
        <time>2022-05-22T14:18:58Z</time>
      </trkpt>
      <trkpt lat="37.9894990" lon="-5.6671610">
        <ele>562.5</ele>
        <time>2022-05-22T14:18:59Z</time>
      </trkpt>
      <trkpt lat="37.9895180" lon="-5.6671610">
        <ele>562.5</ele>
        <time>2022-05-22T14:19:00Z</time>
      </trkpt>
      <trkpt lat="37.9895320" lon="-5.6671650">
        <ele>562.5</ele>
        <time>2022-05-22T14:19:01Z</time>
      </trkpt>
      <trkpt lat="37.9895440" lon="-5.6671670">
        <ele>562.6</ele>
        <time>2022-05-22T14:19:02Z</time>
      </trkpt>
      <trkpt lat="37.9895550" lon="-5.6671680">
        <ele>562.6</ele>
        <time>2022-05-22T14:19:03Z</time>
      </trkpt>
      <trkpt lat="37.9895670" lon="-5.6671690">
        <ele>562.6</ele>
        <time>2022-05-22T14:19:04Z</time>
      </trkpt>
      <trkpt lat="37.9895990" lon="-5.6671750">
        <ele>562.6</ele>
        <time>2022-05-22T14:19:06Z</time>
      </trkpt>
      <trkpt lat="37.9896040" lon="-5.6671750">
        <ele>562.6</ele>
        <time>2022-05-22T14:19:07Z</time>
      </trkpt>
      <trkpt lat="37.9896160" lon="-5.6671710">
        <ele>562.6</ele>
        <time>2022-05-22T14:19:08Z</time>
      </trkpt>
      <trkpt lat="37.9896260" lon="-5.6671720">
        <ele>562.6</ele>
        <time>2022-05-22T14:19:09Z</time>
      </trkpt>
      <trkpt lat="37.9896370" lon="-5.6671730">
        <ele>562.6</ele>
        <time>2022-05-22T14:19:10Z</time>
      </trkpt>
      <trkpt lat="37.9896480" lon="-5.6671720">
        <ele>562.6</ele>
        <time>2022-05-22T14:19:11Z</time>
      </trkpt>
      <trkpt lat="37.9896580" lon="-5.6671700">
        <ele>562.6</ele>
        <time>2022-05-22T14:19:12Z</time>
      </trkpt>
      <trkpt lat="37.9896670" lon="-5.6671690">
        <ele>562.7</ele>
        <time>2022-05-22T14:19:13Z</time>
      </trkpt>
      <trkpt lat="37.9896780" lon="-5.6671680">
        <ele>562.7</ele>
        <time>2022-05-22T14:19:14Z</time>
      </trkpt>
      <trkpt lat="37.9896890" lon="-5.6671680">
        <ele>562.7</ele>
        <time>2022-05-22T14:19:15Z</time>
      </trkpt>
      <trkpt lat="37.9897000" lon="-5.6671690">
        <ele>562.7</ele>
        <time>2022-05-22T14:19:16Z</time>
      </trkpt>
      <trkpt lat="37.9897150" lon="-5.6671700">
        <ele>562.8</ele>
        <time>2022-05-22T14:19:17Z</time>
      </trkpt>
      <trkpt lat="37.9897250" lon="-5.6671730">
        <ele>562.8</ele>
        <time>2022-05-22T14:19:18Z</time>
      </trkpt>
      <trkpt lat="37.9897350" lon="-5.6671760">
        <ele>562.8</ele>
        <time>2022-05-22T14:19:19Z</time>
      </trkpt>
      <trkpt lat="37.9897430" lon="-5.6671790">
        <ele>562.8</ele>
        <time>2022-05-22T14:19:20Z</time>
      </trkpt>
      <trkpt lat="37.9897550" lon="-5.6671810">
        <ele>562.9</ele>
        <time>2022-05-22T14:19:21Z</time>
      </trkpt>
      <trkpt lat="37.9897650" lon="-5.6671820">
        <ele>562.9</ele>
        <time>2022-05-22T14:19:22Z</time>
      </trkpt>
      <trkpt lat="37.9897840" lon="-5.6671850">
        <ele>563.0</ele>
        <time>2022-05-22T14:19:24Z</time>
      </trkpt>
      <trkpt lat="37.9897940" lon="-5.6671860">
        <ele>563.0</ele>
        <time>2022-05-22T14:19:25Z</time>
      </trkpt>
      <trkpt lat="37.9898050" lon="-5.6671870">
        <ele>563.0</ele>
        <time>2022-05-22T14:19:26Z</time>
      </trkpt>
      <trkpt lat="37.9898170" lon="-5.6671880">
        <ele>563.1</ele>
        <time>2022-05-22T14:19:27Z</time>
      </trkpt>
      <trkpt lat="37.9898290" lon="-5.6671890">
        <ele>563.1</ele>
        <time>2022-05-22T14:19:28Z</time>
      </trkpt>
      <trkpt lat="37.9898390" lon="-5.6671900">
        <ele>563.1</ele>
        <time>2022-05-22T14:19:29Z</time>
      </trkpt>
      <trkpt lat="37.9898510" lon="-5.6671900">
        <ele>563.2</ele>
        <time>2022-05-22T14:19:30Z</time>
      </trkpt>
      <trkpt lat="37.9898600" lon="-5.6671900">
        <ele>563.2</ele>
        <time>2022-05-22T14:19:31Z</time>
      </trkpt>
      <trkpt lat="37.9898750" lon="-5.6671870">
        <ele>563.2</ele>
        <time>2022-05-22T14:19:32Z</time>
      </trkpt>
      <trkpt lat="37.9898890" lon="-5.6671860">
        <ele>563.3</ele>
        <time>2022-05-22T14:19:33Z</time>
      </trkpt>
      <trkpt lat="37.9899030" lon="-5.6671860">
        <ele>563.3</ele>
        <time>2022-05-22T14:19:34Z</time>
      </trkpt>
      <trkpt lat="37.9899100" lon="-5.6671840">
        <ele>563.4</ele>
        <time>2022-05-22T14:19:35Z</time>
      </trkpt>
      <trkpt lat="37.9899190" lon="-5.6671790">
        <ele>563.4</ele>
        <time>2022-05-22T14:19:36Z</time>
      </trkpt>
      <trkpt lat="37.9899280" lon="-5.6671740">
        <ele>563.4</ele>
        <time>2022-05-22T14:19:37Z</time>
      </trkpt>
      <trkpt lat="37.9899360" lon="-5.6671690">
        <ele>563.4</ele>
        <time>2022-05-22T14:19:38Z</time>
      </trkpt>
      <trkpt lat="37.9899600" lon="-5.6671630">
        <ele>563.5</ele>
        <time>2022-05-22T14:19:40Z</time>
      </trkpt>
      <trkpt lat="37.9899730" lon="-5.6671580">
        <ele>563.6</ele>
        <time>2022-05-22T14:19:41Z</time>
      </trkpt>
      <trkpt lat="37.9899840" lon="-5.6671540">
        <ele>563.6</ele>
        <time>2022-05-22T14:19:42Z</time>
      </trkpt>
      <trkpt lat="37.9900030" lon="-5.6671480">
        <ele>563.6</ele>
        <time>2022-05-22T14:19:44Z</time>
      </trkpt>
      <trkpt lat="37.9900340" lon="-5.6671460">
        <ele>563.7</ele>
        <time>2022-05-22T14:19:46Z</time>
      </trkpt>
      <trkpt lat="37.9900400" lon="-5.6671480">
        <ele>563.8</ele>
        <time>2022-05-22T14:19:47Z</time>
      </trkpt>
      <trkpt lat="37.9900530" lon="-5.6671520">
        <ele>563.8</ele>
        <time>2022-05-22T14:19:48Z</time>
      </trkpt>
      <trkpt lat="37.9900680" lon="-5.6671480">
        <ele>563.8</ele>
        <time>2022-05-22T14:19:49Z</time>
      </trkpt>
      <trkpt lat="37.9900800" lon="-5.6671440">
        <ele>563.9</ele>
        <time>2022-05-22T14:19:50Z</time>
      </trkpt>
      <trkpt lat="37.9900960" lon="-5.6671370">
        <ele>563.9</ele>
        <time>2022-05-22T14:19:51Z</time>
      </trkpt>
      <trkpt lat="37.9901170" lon="-5.6671280">
        <ele>564.0</ele>
        <time>2022-05-22T14:19:52Z</time>
      </trkpt>
      <trkpt lat="37.9901260" lon="-5.6671250">
        <ele>564.0</ele>
        <time>2022-05-22T14:19:53Z</time>
      </trkpt>
      <trkpt lat="37.9901350" lon="-5.6671220">
        <ele>564.1</ele>
        <time>2022-05-22T14:19:54Z</time>
      </trkpt>
      <trkpt lat="37.9901450" lon="-5.6671200">
        <ele>564.1</ele>
        <time>2022-05-22T14:19:55Z</time>
      </trkpt>
      <trkpt lat="37.9901540" lon="-5.6671180">
        <ele>564.1</ele>
        <time>2022-05-22T14:19:56Z</time>
      </trkpt>
      <trkpt lat="37.9901670" lon="-5.6671150">
        <ele>564.1</ele>
        <time>2022-05-22T14:19:57Z</time>
      </trkpt>
      <trkpt lat="37.9901730" lon="-5.6671120">
        <ele>564.2</ele>
        <time>2022-05-22T14:19:58Z</time>
      </trkpt>
      <trkpt lat="37.9901820" lon="-5.6671100">
        <ele>564.2</ele>
        <time>2022-05-22T14:19:59Z</time>
      </trkpt>
      <trkpt lat="37.9901910" lon="-5.6671080">
        <ele>564.2</ele>
        <time>2022-05-22T14:20:00Z</time>
      </trkpt>
      <trkpt lat="37.9902010" lon="-5.6671040">
        <ele>564.2</ele>
        <time>2022-05-22T14:20:01Z</time>
      </trkpt>
      <trkpt lat="37.9902120" lon="-5.6671000">
        <ele>564.3</ele>
        <time>2022-05-22T14:20:02Z</time>
      </trkpt>
      <trkpt lat="37.9902230" lon="-5.6670950">
        <ele>564.3</ele>
        <time>2022-05-22T14:20:03Z</time>
      </trkpt>
      <trkpt lat="37.9902330" lon="-5.6670900">
        <ele>564.3</ele>
        <time>2022-05-22T14:20:04Z</time>
      </trkpt>
      <trkpt lat="37.9902420" lon="-5.6670850">
        <ele>564.3</ele>
        <time>2022-05-22T14:20:05Z</time>
      </trkpt>
      <trkpt lat="37.9902520" lon="-5.6670800">
        <ele>564.4</ele>
        <time>2022-05-22T14:20:06Z</time>
      </trkpt>
      <trkpt lat="37.9902630" lon="-5.6670780">
        <ele>564.4</ele>
        <time>2022-05-22T14:20:07Z</time>
      </trkpt>
      <trkpt lat="37.9902780" lon="-5.6670800">
        <ele>564.4</ele>
        <time>2022-05-22T14:20:08Z</time>
      </trkpt>
      <trkpt lat="37.9902850" lon="-5.6670800">
        <ele>564.4</ele>
        <time>2022-05-22T14:20:09Z</time>
      </trkpt>
      <trkpt lat="37.9902940" lon="-5.6670770">
        <ele>564.5</ele>
        <time>2022-05-22T14:20:10Z</time>
      </trkpt>
      <trkpt lat="37.9903120" lon="-5.6670720">
        <ele>564.5</ele>
        <time>2022-05-22T14:20:11Z</time>
      </trkpt>
      <trkpt lat="37.9903210" lon="-5.6670710">
        <ele>564.5</ele>
        <time>2022-05-22T14:20:12Z</time>
      </trkpt>
      <trkpt lat="37.9903300" lon="-5.6670690">
        <ele>564.5</ele>
        <time>2022-05-22T14:20:13Z</time>
      </trkpt>
      <trkpt lat="37.9903460" lon="-5.6670670">
        <ele>564.6</ele>
        <time>2022-05-22T14:20:14Z</time>
      </trkpt>
      <trkpt lat="37.9903580" lon="-5.6670650">
        <ele>564.6</ele>
        <time>2022-05-22T14:20:15Z</time>
      </trkpt>
      <trkpt lat="37.9903770" lon="-5.6670600">
        <ele>564.6</ele>
        <time>2022-05-22T14:20:16Z</time>
      </trkpt>
      <trkpt lat="37.9903860" lon="-5.6670570">
        <ele>564.7</ele>
        <time>2022-05-22T14:20:17Z</time>
      </trkpt>
      <trkpt lat="37.9903940" lon="-5.6670550">
        <ele>564.7</ele>
        <time>2022-05-22T14:20:18Z</time>
      </trkpt>
      <trkpt lat="37.9904050" lon="-5.6670510">
        <ele>564.7</ele>
        <time>2022-05-22T14:20:19Z</time>
      </trkpt>
      <trkpt lat="37.9904200" lon="-5.6670430">
        <ele>564.7</ele>
        <time>2022-05-22T14:20:20Z</time>
      </trkpt>
      <trkpt lat="37.9904300" lon="-5.6670370">
        <ele>564.8</ele>
        <time>2022-05-22T14:20:21Z</time>
      </trkpt>
      <trkpt lat="37.9904410" lon="-5.6670300">
        <ele>564.8</ele>
        <time>2022-05-22T14:20:22Z</time>
      </trkpt>
      <trkpt lat="37.9904520" lon="-5.6670250">
        <ele>564.8</ele>
        <time>2022-05-22T14:20:23Z</time>
      </trkpt>
      <trkpt lat="37.9904720" lon="-5.6670150">
        <ele>564.9</ele>
        <time>2022-05-22T14:20:25Z</time>
      </trkpt>
      <trkpt lat="37.9904860" lon="-5.6670090">
        <ele>564.9</ele>
        <time>2022-05-22T14:20:26Z</time>
      </trkpt>
      <trkpt lat="37.9905070" lon="-5.6670010">
        <ele>565.0</ele>
        <time>2022-05-22T14:20:27Z</time>
      </trkpt>
      <trkpt lat="37.9905190" lon="-5.6669960">
        <ele>565.0</ele>
        <time>2022-05-22T14:20:28Z</time>
      </trkpt>
      <trkpt lat="37.9905300" lon="-5.6669910">
        <ele>565.1</ele>
        <time>2022-05-22T14:20:30Z</time>
      </trkpt>
      <trkpt lat="37.9905420" lon="-5.6669870">
        <ele>565.1</ele>
        <time>2022-05-22T14:20:31Z</time>
      </trkpt>
      <trkpt lat="37.9905530" lon="-5.6669820">
        <ele>565.1</ele>
        <time>2022-05-22T14:20:32Z</time>
      </trkpt>
      <trkpt lat="37.9905670" lon="-5.6669750">
        <ele>565.2</ele>
        <time>2022-05-22T14:20:33Z</time>
      </trkpt>
      <trkpt lat="37.9905790" lon="-5.6669700">
        <ele>565.2</ele>
        <time>2022-05-22T14:20:34Z</time>
      </trkpt>
      <trkpt lat="37.9905970" lon="-5.6669640">
        <ele>565.3</ele>
        <time>2022-05-22T14:20:36Z</time>
      </trkpt>
      <trkpt lat="37.9906080" lon="-5.6669660">
        <ele>565.3</ele>
        <time>2022-05-22T14:20:37Z</time>
      </trkpt>
      <trkpt lat="37.9906150" lon="-5.6669700">
        <ele>565.3</ele>
        <time>2022-05-22T14:20:38Z</time>
      </trkpt>
      <trkpt lat="37.9906210" lon="-5.6669720">
        <ele>565.3</ele>
        <time>2022-05-22T14:20:39Z</time>
      </trkpt>
      <trkpt lat="37.9906290" lon="-5.6669690">
        <ele>565.4</ele>
        <time>2022-05-22T14:20:40Z</time>
      </trkpt>
      <trkpt lat="37.9906380" lon="-5.6669620">
        <ele>565.4</ele>
        <time>2022-05-22T14:20:41Z</time>
      </trkpt>
      <trkpt lat="37.9906490" lon="-5.6669530">
        <ele>565.4</ele>
        <time>2022-05-22T14:20:42Z</time>
      </trkpt>
      <trkpt lat="37.9906640" lon="-5.6669360">
        <ele>565.5</ele>
        <time>2022-05-22T14:20:43Z</time>
      </trkpt>
      <trkpt lat="37.9906730" lon="-5.6669220">
        <ele>565.5</ele>
        <time>2022-05-22T14:20:44Z</time>
      </trkpt>
      <trkpt lat="37.9906820" lon="-5.6669010">
        <ele>565.6</ele>
        <time>2022-05-22T14:20:45Z</time>
      </trkpt>
      <trkpt lat="37.9906900" lon="-5.6668850">
        <ele>565.6</ele>
        <time>2022-05-22T14:20:46Z</time>
      </trkpt>
      <trkpt lat="37.9906990" lon="-5.6668670">
        <ele>565.7</ele>
        <time>2022-05-22T14:20:47Z</time>
      </trkpt>
      <trkpt lat="37.9907240" lon="-5.6668200">
        <ele>565.8</ele>
        <time>2022-05-22T14:20:49Z</time>
      </trkpt>
      <trkpt lat="37.9907300" lon="-5.6668110">
        <ele>565.8</ele>
        <time>2022-05-22T14:20:50Z</time>
      </trkpt>
      <trkpt lat="37.9907350" lon="-5.6668010">
        <ele>565.9</ele>
        <time>2022-05-22T14:20:51Z</time>
      </trkpt>
      <trkpt lat="37.9907410" lon="-5.6667910">
        <ele>565.9</ele>
        <time>2022-05-22T14:20:52Z</time>
      </trkpt>
      <trkpt lat="37.9907550" lon="-5.6667730">
        <ele>565.9</ele>
        <time>2022-05-22T14:20:53Z</time>
      </trkpt>
      <trkpt lat="37.9907610" lon="-5.6667660">
        <ele>566.0</ele>
        <time>2022-05-22T14:20:54Z</time>
      </trkpt>
      <trkpt lat="37.9907670" lon="-5.6667590">
        <ele>566.0</ele>
        <time>2022-05-22T14:20:55Z</time>
      </trkpt>
      <trkpt lat="37.9907740" lon="-5.6667490">
        <ele>566.0</ele>
        <time>2022-05-22T14:20:56Z</time>
      </trkpt>
      <trkpt lat="37.9907830" lon="-5.6667390">
        <ele>566.1</ele>
        <time>2022-05-22T14:20:57Z</time>
      </trkpt>
      <trkpt lat="37.9907930" lon="-5.6667290">
        <ele>566.1</ele>
        <time>2022-05-22T14:20:58Z</time>
      </trkpt>
      <trkpt lat="37.9908160" lon="-5.6667070">
        <ele>566.2</ele>
        <time>2022-05-22T14:21:00Z</time>
      </trkpt>
      <trkpt lat="37.9908220" lon="-5.6667020">
        <ele>566.2</ele>
        <time>2022-05-22T14:21:01Z</time>
      </trkpt>
      <trkpt lat="37.9908400" lon="-5.6666890">
        <ele>566.3</ele>
        <time>2022-05-22T14:21:02Z</time>
      </trkpt>
      <trkpt lat="37.9908470" lon="-5.6666850">
        <ele>566.3</ele>
        <time>2022-05-22T14:21:03Z</time>
      </trkpt>
      <trkpt lat="37.9908540" lon="-5.6666810">
        <ele>566.3</ele>
        <time>2022-05-22T14:21:04Z</time>
      </trkpt>
      <trkpt lat="37.9908740" lon="-5.6666690">
        <ele>566.4</ele>
        <time>2022-05-22T14:21:05Z</time>
      </trkpt>
      <trkpt lat="37.9908820" lon="-5.6666640">
        <ele>566.4</ele>
        <time>2022-05-22T14:21:06Z</time>
      </trkpt>
      <trkpt lat="37.9908890" lon="-5.6666580">
        <ele>566.5</ele>
        <time>2022-05-22T14:21:07Z</time>
      </trkpt>
      <trkpt lat="37.9909120" lon="-5.6666400">
        <ele>566.6</ele>
        <time>2022-05-22T14:21:08Z</time>
      </trkpt>
      <trkpt lat="37.9909220" lon="-5.6666320">
        <ele>566.6</ele>
        <time>2022-05-22T14:21:10Z</time>
      </trkpt>
      <trkpt lat="37.9909320" lon="-5.6666240">
        <ele>566.7</ele>
        <time>2022-05-22T14:21:11Z</time>
      </trkpt>
      <trkpt lat="37.9909420" lon="-5.6666160">
        <ele>566.7</ele>
        <time>2022-05-22T14:21:12Z</time>
      </trkpt>
      <trkpt lat="37.9909530" lon="-5.6666080">
        <ele>566.7</ele>
        <time>2022-05-22T14:21:13Z</time>
      </trkpt>
      <trkpt lat="37.9909760" lon="-5.6665920">
        <ele>566.8</ele>
        <time>2022-05-22T14:21:14Z</time>
      </trkpt>
      <trkpt lat="37.9909860" lon="-5.6665850">
        <ele>566.9</ele>
        <time>2022-05-22T14:21:16Z</time>
      </trkpt>
      <trkpt lat="37.9909960" lon="-5.6665780">
        <ele>566.9</ele>
        <time>2022-05-22T14:21:17Z</time>
      </trkpt>
      <trkpt lat="37.9910060" lon="-5.6665710">
        <ele>567.0</ele>
        <time>2022-05-22T14:21:18Z</time>
      </trkpt>
      <trkpt lat="37.9910160" lon="-5.6665640">
        <ele>567.0</ele>
        <time>2022-05-22T14:21:19Z</time>
      </trkpt>
      <trkpt lat="37.9910300" lon="-5.6665570">
        <ele>567.1</ele>
        <time>2022-05-22T14:21:20Z</time>
      </trkpt>
      <trkpt lat="37.9910440" lon="-5.6665500">
        <ele>567.1</ele>
        <time>2022-05-22T14:21:21Z</time>
      </trkpt>
      <trkpt lat="37.9910700" lon="-5.6665330">
        <ele>567.2</ele>
        <time>2022-05-22T14:21:23Z</time>
      </trkpt>
      <trkpt lat="37.9910800" lon="-5.6665270">
        <ele>567.3</ele>
        <time>2022-05-22T14:21:24Z</time>
      </trkpt>
      <trkpt lat="37.9911010" lon="-5.6665190">
        <ele>567.4</ele>
        <time>2022-05-22T14:21:26Z</time>
      </trkpt>
      <trkpt lat="37.9911150" lon="-5.6665150">
        <ele>567.4</ele>
        <time>2022-05-22T14:21:27Z</time>
      </trkpt>
      <trkpt lat="37.9911280" lon="-5.6665110">
        <ele>567.5</ele>
        <time>2022-05-22T14:21:28Z</time>
      </trkpt>
      <trkpt lat="37.9911460" lon="-5.6665070">
        <ele>567.5</ele>
        <time>2022-05-22T14:21:29Z</time>
      </trkpt>
      <trkpt lat="37.9911580" lon="-5.6665040">
        <ele>567.6</ele>
        <time>2022-05-22T14:21:30Z</time>
      </trkpt>
      <trkpt lat="37.9911750" lon="-5.6664970">
        <ele>567.6</ele>
        <time>2022-05-22T14:21:32Z</time>
      </trkpt>
      <trkpt lat="37.9911860" lon="-5.6664920">
        <ele>567.6</ele>
        <time>2022-05-22T14:21:33Z</time>
      </trkpt>
      <trkpt lat="37.9912000" lon="-5.6664840">
        <ele>567.6</ele>
        <time>2022-05-22T14:21:34Z</time>
      </trkpt>
      <trkpt lat="37.9911850" lon="-5.6665040">
        <ele>567.6</ele>
        <time>2022-05-22T14:21:35Z</time>
      </trkpt>
      <trkpt lat="37.9911680" lon="-5.6665210">
        <ele>567.6</ele>
        <time>2022-05-22T14:21:37Z</time>
      </trkpt>
      <trkpt lat="37.9911600" lon="-5.6665290">
        <ele>567.6</ele>
        <time>2022-05-22T14:21:38Z</time>
      </trkpt>
      <trkpt lat="37.9911560" lon="-5.6665340">
        <ele>567.6</ele>
        <time>2022-05-22T14:21:39Z</time>
      </trkpt>
      <trkpt lat="37.9911530" lon="-5.6665370">
        <ele>567.6</ele>
        <time>2022-05-22T14:21:40Z</time>
      </trkpt>
      <trkpt lat="37.9911520" lon="-5.6665380">
        <ele>567.6</ele>
        <time>2022-05-22T14:21:41Z</time>
      </trkpt>
      <trkpt lat="37.9911520" lon="-5.6665390">
        <ele>567.6</ele>
        <time>2022-05-22T14:21:43Z</time>
      </trkpt>
      <trkpt lat="37.9911550" lon="-5.6665390">
        <ele>567.6</ele>
        <time>2022-05-22T14:21:44Z</time>
      </trkpt>
      <trkpt lat="37.9911600" lon="-5.6665360">
        <ele>567.6</ele>
        <time>2022-05-22T14:21:45Z</time>
      </trkpt>
      <trkpt lat="37.9911660" lon="-5.6665330">
        <ele>567.6</ele>
        <time>2022-05-22T14:21:46Z</time>
      </trkpt>
      <trkpt lat="37.9911730" lon="-5.6665290">
        <ele>567.6</ele>
        <time>2022-05-22T14:21:48Z</time>
      </trkpt>
      <trkpt lat="37.9911840" lon="-5.6665230">
        <ele>567.6</ele>
        <time>2022-05-22T14:21:49Z</time>
      </trkpt>
      <trkpt lat="37.9911910" lon="-5.6665190">
        <ele>567.6</ele>
        <time>2022-05-22T14:21:50Z</time>
      </trkpt>
      <trkpt lat="37.9912080" lon="-5.6665100">
        <ele>567.6</ele>
        <time>2022-05-22T14:21:52Z</time>
      </trkpt>
      <trkpt lat="37.9912260" lon="-5.6665010">
        <ele>567.6</ele>
        <time>2022-05-22T14:21:53Z</time>
      </trkpt>
      <trkpt lat="37.9912340" lon="-5.6664970">
        <ele>567.6</ele>
        <time>2022-05-22T14:21:54Z</time>
      </trkpt>
      <trkpt lat="37.9912420" lon="-5.6664930">
        <ele>567.6</ele>
        <time>2022-05-22T14:21:55Z</time>
      </trkpt>
      <trkpt lat="37.9912540" lon="-5.6664870">
        <ele>567.6</ele>
        <time>2022-05-22T14:21:57Z</time>
      </trkpt>
      <trkpt lat="37.9912700" lon="-5.6664790">
        <ele>567.6</ele>
        <time>2022-05-22T14:21:58Z</time>
      </trkpt>
      <trkpt lat="37.9912820" lon="-5.6664730">
        <ele>567.6</ele>
        <time>2022-05-22T14:21:59Z</time>
      </trkpt>
      <trkpt lat="37.9912920" lon="-5.6664670">
        <ele>567.6</ele>
        <time>2022-05-22T14:22:00Z</time>
      </trkpt>
      <trkpt lat="37.9913080" lon="-5.6664580">
        <ele>567.6</ele>
        <time>2022-05-22T14:22:02Z</time>
      </trkpt>
      <trkpt lat="37.9911450" lon="-5.6665470">
        <ele>567.5</ele>
        <time>2022-05-22T14:22:14Z</time>
      </trkpt>
      <trkpt lat="37.9911450" lon="-5.6665470">
        <ele>567.5</ele>
        <time>2022-05-22T14:22:20Z</time>
      </trkpt>
      <trkpt lat="37.9911450" lon="-5.6665470">
        <ele>567.5</ele>
        <time>2022-05-22T14:22:25Z</time>
      </trkpt>
      <trkpt lat="37.9918840" lon="-5.6639870">
        <ele>572.7</ele>
        <time>2022-05-22T14:22:55Z</time>
      </trkpt>
      <trkpt lat="37.9918350" lon="-5.6652490">
        <ele>571.4</ele>
        <time>2022-05-22T14:23:00Z</time>
      </trkpt>
      <trkpt lat="37.9918270" lon="-5.6654550">
        <ele>571.0</ele>
        <time>2022-05-22T14:23:01Z</time>
      </trkpt>
      <trkpt lat="37.9918350" lon="-5.6655330">
        <ele>571.0</ele>
        <time>2022-05-22T14:23:02Z</time>
      </trkpt>
      <trkpt lat="37.9918580" lon="-5.6655980">
        <ele>571.0</ele>
        <time>2022-05-22T14:23:03Z</time>
      </trkpt>
      <trkpt lat="37.9918860" lon="-5.6656100">
        <ele>571.1</ele>
        <time>2022-05-22T14:23:05Z</time>
      </trkpt>
      <trkpt lat="37.9918940" lon="-5.6656110">
        <ele>571.1</ele>
        <time>2022-05-22T14:23:06Z</time>
      </trkpt>
      <trkpt lat="37.9919090" lon="-5.6656100">
        <ele>571.1</ele>
        <time>2022-05-22T14:23:07Z</time>
      </trkpt>
      <trkpt lat="37.9919250" lon="-5.6656050">
        <ele>571.1</ele>
        <time>2022-05-22T14:23:08Z</time>
      </trkpt>
      <trkpt lat="37.9919480" lon="-5.6655870">
        <ele>571.1</ele>
        <time>2022-05-22T14:23:09Z</time>
      </trkpt>
      <trkpt lat="37.9919720" lon="-5.6655620">
        <ele>571.1</ele>
        <time>2022-05-22T14:23:10Z</time>
      </trkpt>
      <trkpt lat="37.9919790" lon="-5.6655540">
        <ele>571.1</ele>
        <time>2022-05-22T14:23:11Z</time>
      </trkpt>
      <trkpt lat="37.9920000" lon="-5.6655260">
        <ele>571.1</ele>
        <time>2022-05-22T14:23:12Z</time>
      </trkpt>
      <trkpt lat="37.9920080" lon="-5.6655160">
        <ele>571.2</ele>
        <time>2022-05-22T14:23:13Z</time>
      </trkpt>
      <trkpt lat="37.9920340" lon="-5.6654760">
        <ele>571.2</ele>
        <time>2022-05-22T14:23:14Z</time>
      </trkpt>
      <trkpt lat="37.9920440" lon="-5.6654600">
        <ele>571.2</ele>
        <time>2022-05-22T14:23:15Z</time>
      </trkpt>
      <trkpt lat="37.9920550" lon="-5.6654380">
        <ele>571.2</ele>
        <time>2022-05-22T14:23:16Z</time>
      </trkpt>
      <trkpt lat="37.9920750" lon="-5.6653930">
        <ele>571.2</ele>
        <time>2022-05-22T14:23:18Z</time>
      </trkpt>
      <trkpt lat="37.9920860" lon="-5.6653550">
        <ele>571.2</ele>
        <time>2022-05-22T14:23:19Z</time>
      </trkpt>
      <trkpt lat="37.9920900" lon="-5.6653380">
        <ele>571.3</ele>
        <time>2022-05-22T14:23:20Z</time>
      </trkpt>
      <trkpt lat="37.9920940" lon="-5.6653230">
        <ele>571.3</ele>
        <time>2022-05-22T14:23:21Z</time>
      </trkpt>
      <trkpt lat="37.9920950" lon="-5.6652960">
        <ele>571.3</ele>
        <time>2022-05-22T14:23:23Z</time>
      </trkpt>
      <trkpt lat="37.9920960" lon="-5.6652800">
        <ele>571.3</ele>
        <time>2022-05-22T14:23:24Z</time>
      </trkpt>
      <trkpt lat="37.9920990" lon="-5.6652620">
        <ele>571.3</ele>
        <time>2022-05-22T14:23:25Z</time>
      </trkpt>
      <trkpt lat="37.9921000" lon="-5.6652410">
        <ele>571.3</ele>
        <time>2022-05-22T14:23:27Z</time>
      </trkpt>
      <trkpt lat="37.9921040" lon="-5.6652250">
        <ele>571.3</ele>
        <time>2022-05-22T14:23:28Z</time>
      </trkpt>
      <trkpt lat="37.9921020" lon="-5.6652150">
        <ele>571.4</ele>
        <time>2022-05-22T14:23:29Z</time>
      </trkpt>
      <trkpt lat="37.9921030" lon="-5.6652030">
        <ele>571.4</ele>
        <time>2022-05-22T14:23:30Z</time>
      </trkpt>
      <trkpt lat="37.9921060" lon="-5.6651860">
        <ele>571.4</ele>
        <time>2022-05-22T14:23:31Z</time>
      </trkpt>
      <trkpt lat="37.9921110" lon="-5.6651660">
        <ele>571.4</ele>
        <time>2022-05-22T14:23:32Z</time>
      </trkpt>
      <trkpt lat="37.9921150" lon="-5.6651550">
        <ele>571.4</ele>
        <time>2022-05-22T14:23:33Z</time>
      </trkpt>
      <trkpt lat="37.9921200" lon="-5.6651440">
        <ele>571.4</ele>
        <time>2022-05-22T14:23:34Z</time>
      </trkpt>
      <trkpt lat="37.9921250" lon="-5.6651320">
        <ele>571.4</ele>
        <time>2022-05-22T14:23:35Z</time>
      </trkpt>
      <trkpt lat="37.9921290" lon="-5.6651190">
        <ele>571.4</ele>
        <time>2022-05-22T14:23:36Z</time>
      </trkpt>
      <trkpt lat="37.9921320" lon="-5.6651060">
        <ele>571.4</ele>
        <time>2022-05-22T14:23:37Z</time>
      </trkpt>
      <trkpt lat="37.9921340" lon="-5.6650810">
        <ele>571.4</ele>
        <time>2022-05-22T14:23:38Z</time>
      </trkpt>
      <trkpt lat="37.9921360" lon="-5.6650700">
        <ele>571.4</ele>
        <time>2022-05-22T14:23:39Z</time>
      </trkpt>
      <trkpt lat="37.9921370" lon="-5.6650590">
        <ele>571.5</ele>
        <time>2022-05-22T14:23:40Z</time>
      </trkpt>
      <trkpt lat="37.9921440" lon="-5.6650430">
        <ele>571.5</ele>
        <time>2022-05-22T14:23:41Z</time>
      </trkpt>
      <trkpt lat="37.9921510" lon="-5.6650260">
        <ele>571.5</ele>
        <time>2022-05-22T14:23:42Z</time>
      </trkpt>
      <trkpt lat="37.9921580" lon="-5.6650020">
        <ele>571.5</ele>
        <time>2022-05-22T14:23:43Z</time>
      </trkpt>
      <trkpt lat="37.9921610" lon="-5.6649860">
        <ele>571.5</ele>
        <time>2022-05-22T14:23:44Z</time>
      </trkpt>
      <trkpt lat="37.9921650" lon="-5.6649680">
        <ele>571.6</ele>
        <time>2022-05-22T14:23:45Z</time>
      </trkpt>
      <trkpt lat="37.9921710" lon="-5.6649510">
        <ele>571.6</ele>
        <time>2022-05-22T14:23:46Z</time>
      </trkpt>
      <trkpt lat="37.9921770" lon="-5.6649250">
        <ele>571.6</ele>
        <time>2022-05-22T14:23:47Z</time>
      </trkpt>
      <trkpt lat="37.9921780" lon="-5.6649140">
        <ele>571.6</ele>
        <time>2022-05-22T14:23:48Z</time>
      </trkpt>
      <trkpt lat="37.9921790" lon="-5.6649040">
        <ele>571.6</ele>
        <time>2022-05-22T14:23:49Z</time>
      </trkpt>
      <trkpt lat="37.9921790" lon="-5.6648900">
        <ele>571.7</ele>
        <time>2022-05-22T14:23:50Z</time>
      </trkpt>
      <trkpt lat="37.9921810" lon="-5.6648750">
        <ele>571.7</ele>
        <time>2022-05-22T14:23:51Z</time>
      </trkpt>
      <trkpt lat="37.9921830" lon="-5.6648600">
        <ele>571.7</ele>
        <time>2022-05-22T14:23:52Z</time>
      </trkpt>
      <trkpt lat="37.9921870" lon="-5.6648330">
        <ele>571.7</ele>
        <time>2022-05-22T14:23:53Z</time>
      </trkpt>
      <trkpt lat="37.9921880" lon="-5.6648220">
        <ele>571.7</ele>
        <time>2022-05-22T14:23:54Z</time>
      </trkpt>
      <trkpt lat="37.9921890" lon="-5.6648110">
        <ele>571.8</ele>
        <time>2022-05-22T14:23:55Z</time>
      </trkpt>
      <trkpt lat="37.9921930" lon="-5.6647970">
        <ele>571.8</ele>
        <time>2022-05-22T14:23:56Z</time>
      </trkpt>
      <trkpt lat="37.9921940" lon="-5.6647810">
        <ele>571.8</ele>
        <time>2022-05-22T14:23:57Z</time>
      </trkpt>
      <trkpt lat="37.9921940" lon="-5.6647660">
        <ele>571.8</ele>
        <time>2022-05-22T14:23:58Z</time>
      </trkpt>
      <trkpt lat="37.9921950" lon="-5.6647530">
        <ele>571.8</ele>
        <time>2022-05-22T14:23:59Z</time>
      </trkpt>
      <trkpt lat="37.9921970" lon="-5.6647360">
        <ele>571.9</ele>
        <time>2022-05-22T14:24:00Z</time>
      </trkpt>
      <trkpt lat="37.9921960" lon="-5.6647230">
        <ele>571.9</ele>
        <time>2022-05-22T14:24:01Z</time>
      </trkpt>
      <trkpt lat="37.9921990" lon="-5.6647080">
        <ele>571.9</ele>
        <time>2022-05-22T14:24:02Z</time>
      </trkpt>
      <trkpt lat="37.9922010" lon="-5.6646940">
        <ele>571.9</ele>
        <time>2022-05-22T14:24:03Z</time>
      </trkpt>
      <trkpt lat="37.9922020" lon="-5.6646780">
        <ele>571.9</ele>
        <time>2022-05-22T14:24:04Z</time>
      </trkpt>
      <trkpt lat="37.9922070" lon="-5.6646620">
        <ele>572.0</ele>
        <time>2022-05-22T14:24:05Z</time>
      </trkpt>
      <trkpt lat="37.9922110" lon="-5.6646410">
        <ele>572.0</ele>
        <time>2022-05-22T14:24:06Z</time>
      </trkpt>
      <trkpt lat="37.9922140" lon="-5.6646160">
        <ele>572.0</ele>
        <time>2022-05-22T14:24:07Z</time>
      </trkpt>
      <trkpt lat="37.9922160" lon="-5.6646040">
        <ele>572.0</ele>
        <time>2022-05-22T14:24:08Z</time>
      </trkpt>
      <trkpt lat="37.9922180" lon="-5.6645920">
        <ele>572.1</ele>
        <time>2022-05-22T14:24:09Z</time>
      </trkpt>
      <trkpt lat="37.9922210" lon="-5.6645720">
        <ele>572.1</ele>
        <time>2022-05-22T14:24:10Z</time>
      </trkpt>
      <trkpt lat="37.9922240" lon="-5.6645530">
        <ele>572.1</ele>
        <time>2022-05-22T14:24:11Z</time>
      </trkpt>
      <trkpt lat="37.9922300" lon="-5.6645330">
        <ele>572.1</ele>
        <time>2022-05-22T14:24:12Z</time>
      </trkpt>
      <trkpt lat="37.9922330" lon="-5.6645220">
        <ele>572.2</ele>
        <time>2022-05-22T14:24:13Z</time>
      </trkpt>
      <trkpt lat="37.9922380" lon="-5.6645120">
        <ele>572.2</ele>
        <time>2022-05-22T14:24:14Z</time>
      </trkpt>
      <trkpt lat="37.9922450" lon="-5.6644880">
        <ele>572.2</ele>
        <time>2022-05-22T14:24:15Z</time>
      </trkpt>
      <trkpt lat="37.9922480" lon="-5.6644760">
        <ele>572.2</ele>
        <time>2022-05-22T14:24:16Z</time>
      </trkpt>
      <trkpt lat="37.9922500" lon="-5.6644650">
        <ele>572.2</ele>
        <time>2022-05-22T14:24:17Z</time>
      </trkpt>
      <trkpt lat="37.9922530" lon="-5.6644460">
        <ele>572.2</ele>
        <time>2022-05-22T14:24:19Z</time>
      </trkpt>
      <trkpt lat="37.9922560" lon="-5.6644290">
        <ele>572.3</ele>
        <time>2022-05-22T14:24:20Z</time>
      </trkpt>
      <trkpt lat="37.9922610" lon="-5.6644050">
        <ele>572.3</ele>
        <time>2022-05-22T14:24:21Z</time>
      </trkpt>
      <trkpt lat="37.9922640" lon="-5.6643920">
        <ele>572.3</ele>
        <time>2022-05-22T14:24:22Z</time>
      </trkpt>
      <trkpt lat="37.9922700" lon="-5.6643710">
        <ele>572.3</ele>
        <time>2022-05-22T14:24:23Z</time>
      </trkpt>
      <trkpt lat="37.9922740" lon="-5.6643560">
        <ele>572.4</ele>
        <time>2022-05-22T14:24:24Z</time>
      </trkpt>
      <trkpt lat="37.9922780" lon="-5.6643370">
        <ele>572.4</ele>
        <time>2022-05-22T14:24:25Z</time>
      </trkpt>
      <trkpt lat="37.9922810" lon="-5.6643190">
        <ele>572.4</ele>
        <time>2022-05-22T14:24:26Z</time>
      </trkpt>
      <trkpt lat="37.9922840" lon="-5.6643000">
        <ele>572.4</ele>
        <time>2022-05-22T14:24:27Z</time>
      </trkpt>
      <trkpt lat="37.9922870" lon="-5.6642840">
        <ele>572.5</ele>
        <time>2022-05-22T14:24:28Z</time>
      </trkpt>
      <trkpt lat="37.9922920" lon="-5.6642570">
        <ele>572.5</ele>
        <time>2022-05-22T14:24:29Z</time>
      </trkpt>
      <trkpt lat="37.9922930" lon="-5.6642480">
        <ele>572.5</ele>
        <time>2022-05-22T14:24:30Z</time>
      </trkpt>
      <trkpt lat="37.9922940" lon="-5.6642390">
        <ele>572.5</ele>
        <time>2022-05-22T14:24:31Z</time>
      </trkpt>
      <trkpt lat="37.9922950" lon="-5.6642250">
        <ele>572.5</ele>
        <time>2022-05-22T14:24:32Z</time>
      </trkpt>
      <trkpt lat="37.9922970" lon="-5.6642100">
        <ele>572.6</ele>
        <time>2022-05-22T14:24:33Z</time>
      </trkpt>
      <trkpt lat="37.9923040" lon="-5.6641800">
        <ele>572.6</ele>
        <time>2022-05-22T14:24:35Z</time>
      </trkpt>
      <trkpt lat="37.9923070" lon="-5.6641670">
        <ele>572.6</ele>
        <time>2022-05-22T14:24:36Z</time>
      </trkpt>
      <trkpt lat="37.9923080" lon="-5.6641570">
        <ele>572.7</ele>
        <time>2022-05-22T14:24:37Z</time>
      </trkpt>
      <trkpt lat="37.9923110" lon="-5.6641470">
        <ele>572.7</ele>
        <time>2022-05-22T14:24:38Z</time>
      </trkpt>
      <trkpt lat="37.9923190" lon="-5.6641230">
        <ele>572.7</ele>
        <time>2022-05-22T14:24:40Z</time>
      </trkpt>
      <trkpt lat="37.9923220" lon="-5.6641140">
        <ele>572.7</ele>
        <time>2022-05-22T14:24:41Z</time>
      </trkpt>
      <trkpt lat="37.9923250" lon="-5.6641050">
        <ele>572.7</ele>
        <time>2022-05-22T14:24:42Z</time>
      </trkpt>
      <trkpt lat="37.9923270" lon="-5.6640940">
        <ele>572.8</ele>
        <time>2022-05-22T14:24:43Z</time>
      </trkpt>
      <trkpt lat="37.9923300" lon="-5.6640800">
        <ele>572.8</ele>
        <time>2022-05-22T14:24:44Z</time>
      </trkpt>
      <trkpt lat="37.9923370" lon="-5.6640560">
        <ele>572.8</ele>
        <time>2022-05-22T14:24:45Z</time>
      </trkpt>
      <trkpt lat="37.9923400" lon="-5.6640450">
        <ele>572.8</ele>
        <time>2022-05-22T14:24:46Z</time>
      </trkpt>
      <trkpt lat="37.9923430" lon="-5.6640350">
        <ele>572.9</ele>
        <time>2022-05-22T14:24:47Z</time>
      </trkpt>
      <trkpt lat="37.9923460" lon="-5.6640240">
        <ele>572.9</ele>
        <time>2022-05-22T14:24:48Z</time>
      </trkpt>
      <trkpt lat="37.9923510" lon="-5.6640110">
        <ele>572.9</ele>
        <time>2022-05-22T14:24:49Z</time>
      </trkpt>
      <trkpt lat="37.9923550" lon="-5.6639970">
        <ele>572.9</ele>
        <time>2022-05-22T14:24:50Z</time>
      </trkpt>
      <trkpt lat="37.9923600" lon="-5.6639800">
        <ele>573.0</ele>
        <time>2022-05-22T14:24:51Z</time>
      </trkpt>
      <trkpt lat="37.9923650" lon="-5.6639590">
        <ele>573.0</ele>
        <time>2022-05-22T14:24:52Z</time>
      </trkpt>
      <trkpt lat="37.9923690" lon="-5.6639480">
        <ele>573.0</ele>
        <time>2022-05-22T14:24:53Z</time>
      </trkpt>
      <trkpt lat="37.9923740" lon="-5.6639340">
        <ele>573.1</ele>
        <time>2022-05-22T14:24:54Z</time>
      </trkpt>
      <trkpt lat="37.9923830" lon="-5.6639040">
        <ele>573.1</ele>
        <time>2022-05-22T14:24:56Z</time>
      </trkpt>
      <trkpt lat="37.9923880" lon="-5.6638870">
        <ele>573.1</ele>
        <time>2022-05-22T14:24:57Z</time>
      </trkpt>
      <trkpt lat="37.9923920" lon="-5.6638740">
        <ele>573.2</ele>
        <time>2022-05-22T14:24:58Z</time>
      </trkpt>
      <trkpt lat="37.9923980" lon="-5.6638410">
        <ele>573.2</ele>
        <time>2022-05-22T14:25:00Z</time>
      </trkpt>
      <trkpt lat="37.9924000" lon="-5.6638270">
        <ele>573.3</ele>
        <time>2022-05-22T14:25:01Z</time>
      </trkpt>
      <trkpt lat="37.9924040" lon="-5.6638060">
        <ele>573.3</ele>
        <time>2022-05-22T14:25:02Z</time>
      </trkpt>
      <trkpt lat="37.9924060" lon="-5.6637880">
        <ele>573.3</ele>
        <time>2022-05-22T14:25:03Z</time>
      </trkpt>
      <trkpt lat="37.9924080" lon="-5.6637610">
        <ele>573.4</ele>
        <time>2022-05-22T14:25:05Z</time>
      </trkpt>
      <trkpt lat="37.9924080" lon="-5.6637470">
        <ele>573.4</ele>
        <time>2022-05-22T14:25:06Z</time>
      </trkpt>
      <trkpt lat="37.9924080" lon="-5.6637340">
        <ele>573.4</ele>
        <time>2022-05-22T14:25:07Z</time>
      </trkpt>
      <trkpt lat="37.9924080" lon="-5.6637160">
        <ele>573.5</ele>
        <time>2022-05-22T14:25:08Z</time>
      </trkpt>
      <trkpt lat="37.9924100" lon="-5.6636870">
        <ele>573.5</ele>
        <time>2022-05-22T14:25:09Z</time>
      </trkpt>
      <trkpt lat="37.9924110" lon="-5.6636770">
        <ele>573.5</ele>
        <time>2022-05-22T14:25:10Z</time>
      </trkpt>
      <trkpt lat="37.9924120" lon="-5.6636660">
        <ele>573.5</ele>
        <time>2022-05-22T14:25:11Z</time>
      </trkpt>
      <trkpt lat="37.9924160" lon="-5.6636400">
        <ele>573.6</ele>
        <time>2022-05-22T14:25:12Z</time>
      </trkpt>
      <trkpt lat="37.9924180" lon="-5.6636290">
        <ele>573.6</ele>
        <time>2022-05-22T14:25:14Z</time>
      </trkpt>
      <trkpt lat="37.9924200" lon="-5.6636180">
        <ele>573.6</ele>
        <time>2022-05-22T14:25:15Z</time>
      </trkpt>
      <trkpt lat="37.9924240" lon="-5.6635970">
        <ele>573.7</ele>
        <time>2022-05-22T14:25:16Z</time>
      </trkpt>
      <trkpt lat="37.9924280" lon="-5.6635820">
        <ele>573.7</ele>
        <time>2022-05-22T14:25:17Z</time>
      </trkpt>
      <trkpt lat="37.9924390" lon="-5.6635590">
        <ele>573.7</ele>
        <time>2022-05-22T14:25:19Z</time>
      </trkpt>
      <trkpt lat="37.9924430" lon="-5.6635500">
        <ele>573.8</ele>
        <time>2022-05-22T14:25:20Z</time>
      </trkpt>
      <trkpt lat="37.9924460" lon="-5.6635410">
        <ele>573.8</ele>
        <time>2022-05-22T14:25:21Z</time>
      </trkpt>
      <trkpt lat="37.9924490" lon="-5.6635300">
        <ele>573.8</ele>
        <time>2022-05-22T14:25:22Z</time>
      </trkpt>
      <trkpt lat="37.9924520" lon="-5.6635120">
        <ele>573.8</ele>
        <time>2022-05-22T14:25:23Z</time>
      </trkpt>
      <trkpt lat="37.9924510" lon="-5.6635040">
        <ele>573.8</ele>
        <time>2022-05-22T14:25:24Z</time>
      </trkpt>
      <trkpt lat="37.9924530" lon="-5.6634880">
        <ele>573.9</ele>
        <time>2022-05-22T14:25:26Z</time>
      </trkpt>
      <trkpt lat="37.9924550" lon="-5.6634830">
        <ele>573.9</ele>
        <time>2022-05-22T14:25:27Z</time>
      </trkpt>
      <trkpt lat="37.9924570" lon="-5.6634750">
        <ele>573.9</ele>
        <time>2022-05-22T14:25:28Z</time>
      </trkpt>
      <trkpt lat="37.9924590" lon="-5.6634650">
        <ele>573.9</ele>
        <time>2022-05-22T14:25:29Z</time>
      </trkpt>
      <trkpt lat="37.9924670" lon="-5.6634430">
        <ele>574.0</ele>
        <time>2022-05-22T14:25:30Z</time>
      </trkpt>
      <trkpt lat="37.9924710" lon="-5.6634310">
        <ele>574.0</ele>
        <time>2022-05-22T14:25:32Z</time>
      </trkpt>
      <trkpt lat="37.9924750" lon="-5.6634200">
        <ele>574.0</ele>
        <time>2022-05-22T14:25:33Z</time>
      </trkpt>
      <trkpt lat="37.9924780" lon="-5.6634070">
        <ele>574.0</ele>
        <time>2022-05-22T14:25:34Z</time>
      </trkpt>
      <trkpt lat="37.9924830" lon="-5.6633850">
        <ele>574.1</ele>
        <time>2022-05-22T14:25:35Z</time>
      </trkpt>
      <trkpt lat="37.9924850" lon="-5.6633710">
        <ele>574.1</ele>
        <time>2022-05-22T14:25:36Z</time>
      </trkpt>
      <trkpt lat="37.9924880" lon="-5.6633430">
        <ele>574.2</ele>
        <time>2022-05-22T14:25:37Z</time>
      </trkpt>
      <trkpt lat="37.9924920" lon="-5.6633160">
        <ele>574.2</ele>
        <time>2022-05-22T14:25:39Z</time>
      </trkpt>
      <trkpt lat="37.9924950" lon="-5.6633040">
        <ele>574.3</ele>
        <time>2022-05-22T14:25:40Z</time>
      </trkpt>
      <trkpt lat="37.9924970" lon="-5.6632930">
        <ele>574.3</ele>
        <time>2022-05-22T14:25:41Z</time>
      </trkpt>
      <trkpt lat="37.9925030" lon="-5.6632780">
        <ele>574.3</ele>
        <time>2022-05-22T14:25:42Z</time>
      </trkpt>
      <trkpt lat="37.9925170" lon="-5.6632430">
        <ele>574.4</ele>
        <time>2022-05-22T14:25:44Z</time>
      </trkpt>
      <trkpt lat="37.9925240" lon="-5.6632270">
        <ele>574.4</ele>
        <time>2022-05-22T14:25:45Z</time>
      </trkpt>
      <trkpt lat="37.9925340" lon="-5.6632100">
        <ele>574.5</ele>
        <time>2022-05-22T14:25:46Z</time>
      </trkpt>
      <trkpt lat="37.9925490" lon="-5.6631750">
        <ele>574.6</ele>
        <time>2022-05-22T14:25:48Z</time>
      </trkpt>
      <trkpt lat="37.9925530" lon="-5.6631640">
        <ele>574.6</ele>
        <time>2022-05-22T14:25:49Z</time>
      </trkpt>
      <trkpt lat="37.9925580" lon="-5.6631500">
        <ele>574.6</ele>
        <time>2022-05-22T14:25:50Z</time>
      </trkpt>
      <trkpt lat="37.9925610" lon="-5.6631380">
        <ele>574.6</ele>
        <time>2022-05-22T14:25:51Z</time>
      </trkpt>
      <trkpt lat="37.9925640" lon="-5.6631250">
        <ele>574.7</ele>
        <time>2022-05-22T14:25:52Z</time>
      </trkpt>
      <trkpt lat="37.9925700" lon="-5.6630920">
        <ele>574.7</ele>
        <time>2022-05-22T14:25:54Z</time>
      </trkpt>
      <trkpt lat="37.9925740" lon="-5.6630780">
        <ele>574.8</ele>
        <time>2022-05-22T14:25:55Z</time>
      </trkpt>
      <trkpt lat="37.9925760" lon="-5.6630640">
        <ele>574.8</ele>
        <time>2022-05-22T14:25:56Z</time>
      </trkpt>
      <trkpt lat="37.9925770" lon="-5.6630470">
        <ele>574.8</ele>
        <time>2022-05-22T14:25:57Z</time>
      </trkpt>
      <trkpt lat="37.9925730" lon="-5.6630300">
        <ele>574.9</ele>
        <time>2022-05-22T14:25:59Z</time>
      </trkpt>
      <trkpt lat="37.9925670" lon="-5.6630050">
        <ele>574.9</ele>
        <time>2022-05-22T14:26:00Z</time>
      </trkpt>
      <trkpt lat="37.9925710" lon="-5.6629890">
        <ele>574.9</ele>
        <time>2022-05-22T14:26:01Z</time>
      </trkpt>
      <trkpt lat="37.9925790" lon="-5.6629640">
        <ele>575.0</ele>
        <time>2022-05-22T14:26:02Z</time>
      </trkpt>
      <trkpt lat="37.9925830" lon="-5.6629530">
        <ele>575.0</ele>
        <time>2022-05-22T14:26:03Z</time>
      </trkpt>
      <trkpt lat="37.9925870" lon="-5.6629420">
        <ele>575.0</ele>
        <time>2022-05-22T14:26:04Z</time>
      </trkpt>
      <trkpt lat="37.9925960" lon="-5.6629250">
        <ele>575.1</ele>
        <time>2022-05-22T14:26:05Z</time>
      </trkpt>
      <trkpt lat="37.9926040" lon="-5.6629070">
        <ele>575.1</ele>
        <time>2022-05-22T14:26:06Z</time>
      </trkpt>
      <trkpt lat="37.9926110" lon="-5.6628980">
        <ele>575.1</ele>
        <time>2022-05-22T14:26:07Z</time>
      </trkpt>
      <trkpt lat="37.9926170" lon="-5.6628840">
        <ele>575.2</ele>
        <time>2022-05-22T14:26:08Z</time>
      </trkpt>
      <trkpt lat="37.9926220" lon="-5.6628680">
        <ele>575.2</ele>
        <time>2022-05-22T14:26:09Z</time>
      </trkpt>
      <trkpt lat="37.9926310" lon="-5.6628430">
        <ele>575.3</ele>
        <time>2022-05-22T14:26:10Z</time>
      </trkpt>
      <trkpt lat="37.9926360" lon="-5.6628340">
        <ele>575.3</ele>
        <time>2022-05-22T14:26:11Z</time>
      </trkpt>
      <trkpt lat="37.9926410" lon="-5.6628250">
        <ele>575.3</ele>
        <time>2022-05-22T14:26:12Z</time>
      </trkpt>
      <trkpt lat="37.9926460" lon="-5.6628160">
        <ele>575.3</ele>
        <time>2022-05-22T14:26:13Z</time>
      </trkpt>
      <trkpt lat="37.9926490" lon="-5.6628030">
        <ele>575.4</ele>
        <time>2022-05-22T14:26:14Z</time>
      </trkpt>
      <trkpt lat="37.9926530" lon="-5.6627900">
        <ele>575.4</ele>
        <time>2022-05-22T14:26:15Z</time>
      </trkpt>
      <trkpt lat="37.9926590" lon="-5.6627750">
        <ele>575.4</ele>
        <time>2022-05-22T14:26:16Z</time>
      </trkpt>
      <trkpt lat="37.9926660" lon="-5.6627590">
        <ele>575.4</ele>
        <time>2022-05-22T14:26:17Z</time>
      </trkpt>
      <trkpt lat="37.9926700" lon="-5.6627440">
        <ele>575.5</ele>
        <time>2022-05-22T14:26:19Z</time>
      </trkpt>
      <trkpt lat="37.9926710" lon="-5.6627330">
        <ele>575.5</ele>
        <time>2022-05-22T14:26:20Z</time>
      </trkpt>
      <trkpt lat="37.9926750" lon="-5.6627180">
        <ele>575.5</ele>
        <time>2022-05-22T14:26:21Z</time>
      </trkpt>
      <trkpt lat="37.9926840" lon="-5.6626940">
        <ele>575.6</ele>
        <time>2022-05-22T14:26:22Z</time>
      </trkpt>
      <trkpt lat="37.9926870" lon="-5.6626810">
        <ele>575.6</ele>
        <time>2022-05-22T14:26:24Z</time>
      </trkpt>
      <trkpt lat="37.9926910" lon="-5.6626680">
        <ele>575.6</ele>
        <time>2022-05-22T14:26:25Z</time>
      </trkpt>
      <trkpt lat="37.9926950" lon="-5.6626500">
        <ele>575.7</ele>
        <time>2022-05-22T14:26:26Z</time>
      </trkpt>
      <trkpt lat="37.9926980" lon="-5.6626410">
        <ele>575.7</ele>
        <time>2022-05-22T14:26:27Z</time>
      </trkpt>
      <trkpt lat="37.9926980" lon="-5.6626250">
        <ele>575.7</ele>
        <time>2022-05-22T14:26:28Z</time>
      </trkpt>
      <trkpt lat="37.9926990" lon="-5.6626010">
        <ele>575.7</ele>
        <time>2022-05-22T14:26:29Z</time>
      </trkpt>
      <trkpt lat="37.9927030" lon="-5.6625830">
        <ele>575.8</ele>
        <time>2022-05-22T14:26:30Z</time>
      </trkpt>
      <trkpt lat="37.9927110" lon="-5.6625490">
        <ele>575.8</ele>
        <time>2022-05-22T14:26:31Z</time>
      </trkpt>
      <trkpt lat="37.9927130" lon="-5.6625370">
        <ele>575.8</ele>
        <time>2022-05-22T14:26:32Z</time>
      </trkpt>
      <trkpt lat="37.9927190" lon="-5.6625150">
        <ele>575.9</ele>
        <time>2022-05-22T14:26:33Z</time>
      </trkpt>
      <trkpt lat="37.9927260" lon="-5.6624990">
        <ele>575.9</ele>
        <time>2022-05-22T14:26:34Z</time>
      </trkpt>
      <trkpt lat="37.9927350" lon="-5.6624820">
        <ele>575.9</ele>
        <time>2022-05-22T14:26:36Z</time>
      </trkpt>
      <trkpt lat="37.9927470" lon="-5.6624720">
        <ele>576.0</ele>
        <time>2022-05-22T14:26:37Z</time>
      </trkpt>
      <trkpt lat="37.9927710" lon="-5.6624490">
        <ele>576.0</ele>
        <time>2022-05-22T14:26:38Z</time>
      </trkpt>
      <trkpt lat="37.9927770" lon="-5.6624400">
        <ele>576.1</ele>
        <time>2022-05-22T14:26:39Z</time>
      </trkpt>
      <trkpt lat="37.9927830" lon="-5.6624250">
        <ele>576.1</ele>
        <time>2022-05-22T14:26:40Z</time>
      </trkpt>
      <trkpt lat="37.9927890" lon="-5.6624080">
        <ele>576.1</ele>
        <time>2022-05-22T14:26:42Z</time>
      </trkpt>
      <trkpt lat="37.9928000" lon="-5.6623840">
        <ele>576.2</ele>
        <time>2022-05-22T14:26:43Z</time>
      </trkpt>
      <trkpt lat="37.9928070" lon="-5.6623700">
        <ele>576.2</ele>
        <time>2022-05-22T14:26:44Z</time>
      </trkpt>
      <trkpt lat="37.9928200" lon="-5.6623490">
        <ele>576.2</ele>
        <time>2022-05-22T14:26:45Z</time>
      </trkpt>
      <trkpt lat="37.9928260" lon="-5.6623400">
        <ele>576.2</ele>
        <time>2022-05-22T14:26:47Z</time>
      </trkpt>
      <trkpt lat="37.9928320" lon="-5.6623310">
        <ele>576.3</ele>
        <time>2022-05-22T14:26:48Z</time>
      </trkpt>
      <trkpt lat="37.9928410" lon="-5.6623130">
        <ele>576.3</ele>
        <time>2022-05-22T14:26:49Z</time>
      </trkpt>
      <trkpt lat="37.9928490" lon="-5.6622980">
        <ele>576.3</ele>
        <time>2022-05-22T14:26:50Z</time>
      </trkpt>
      <trkpt lat="37.9928580" lon="-5.6622750">
        <ele>576.4</ele>
        <time>2022-05-22T14:26:51Z</time>
      </trkpt>
      <trkpt lat="37.9928610" lon="-5.6622630">
        <ele>576.4</ele>
        <time>2022-05-22T14:26:52Z</time>
      </trkpt>
      <trkpt lat="37.9928640" lon="-5.6622510">
        <ele>576.4</ele>
        <time>2022-05-22T14:26:54Z</time>
      </trkpt>
      <trkpt lat="37.9928670" lon="-5.6622390">
        <ele>576.4</ele>
        <time>2022-05-22T14:26:55Z</time>
      </trkpt>
      <trkpt lat="37.9928700" lon="-5.6622270">
        <ele>576.4</ele>
        <time>2022-05-22T14:26:56Z</time>
      </trkpt>
      <trkpt lat="37.9928730" lon="-5.6622150">
        <ele>576.5</ele>
        <time>2022-05-22T14:26:57Z</time>
      </trkpt>
      <trkpt lat="37.9928780" lon="-5.6622010">
        <ele>576.5</ele>
        <time>2022-05-22T14:26:58Z</time>
      </trkpt>
      <trkpt lat="37.9928840" lon="-5.6621840">
        <ele>576.5</ele>
        <time>2022-05-22T14:26:59Z</time>
      </trkpt>
      <trkpt lat="37.9928940" lon="-5.6621610">
        <ele>576.6</ele>
        <time>2022-05-22T14:27:00Z</time>
      </trkpt>
      <trkpt lat="37.9928970" lon="-5.6621510">
        <ele>576.6</ele>
        <time>2022-05-22T14:27:01Z</time>
      </trkpt>
      <trkpt lat="37.9929010" lon="-5.6621410">
        <ele>576.6</ele>
        <time>2022-05-22T14:27:02Z</time>
      </trkpt>
      <trkpt lat="37.9929080" lon="-5.6621250">
        <ele>576.6</ele>
        <time>2022-05-22T14:27:04Z</time>
      </trkpt>
      <trkpt lat="37.9929160" lon="-5.6621080">
        <ele>576.7</ele>
        <time>2022-05-22T14:27:05Z</time>
      </trkpt>
      <trkpt lat="37.9929260" lon="-5.6620860">
        <ele>576.7</ele>
        <time>2022-05-22T14:27:06Z</time>
      </trkpt>
      <trkpt lat="37.9929310" lon="-5.6620710">
        <ele>576.7</ele>
        <time>2022-05-22T14:27:07Z</time>
      </trkpt>
      <trkpt lat="37.9929390" lon="-5.6620460">
        <ele>576.8</ele>
        <time>2022-05-22T14:27:09Z</time>
      </trkpt>
      <trkpt lat="37.9929460" lon="-5.6620310">
        <ele>576.8</ele>
        <time>2022-05-22T14:27:10Z</time>
      </trkpt>
      <trkpt lat="37.9929550" lon="-5.6620110">
        <ele>576.8</ele>
        <time>2022-05-22T14:27:12Z</time>
      </trkpt>
      <trkpt lat="37.9929610" lon="-5.6619960">
        <ele>576.9</ele>
        <time>2022-05-22T14:27:13Z</time>
      </trkpt>
      <trkpt lat="37.9929700" lon="-5.6619700">
        <ele>576.9</ele>
        <time>2022-05-22T14:27:14Z</time>
      </trkpt>
      <trkpt lat="37.9929730" lon="-5.6619600">
        <ele>576.9</ele>
        <time>2022-05-22T14:27:15Z</time>
      </trkpt>
      <trkpt lat="37.9929760" lon="-5.6619490">
        <ele>576.9</ele>
        <time>2022-05-22T14:27:16Z</time>
      </trkpt>
      <trkpt lat="37.9929810" lon="-5.6619320">
        <ele>577.0</ele>
        <time>2022-05-22T14:27:17Z</time>
      </trkpt>
      <trkpt lat="37.9929840" lon="-5.6619170">
        <ele>577.0</ele>
        <time>2022-05-22T14:27:18Z</time>
      </trkpt>
      <trkpt lat="37.9929900" lon="-5.6618940">
        <ele>577.0</ele>
        <time>2022-05-22T14:27:20Z</time>
      </trkpt>
      <trkpt lat="37.9929930" lon="-5.6618800">
        <ele>577.1</ele>
        <time>2022-05-22T14:27:21Z</time>
      </trkpt>
      <trkpt lat="37.9930030" lon="-5.6618530">
        <ele>577.1</ele>
        <time>2022-05-22T14:27:22Z</time>
      </trkpt>
      <trkpt lat="37.9930070" lon="-5.6618440">
        <ele>577.1</ele>
        <time>2022-05-22T14:27:23Z</time>
      </trkpt>
      <trkpt lat="37.9930100" lon="-5.6618340">
        <ele>577.1</ele>
        <time>2022-05-22T14:27:24Z</time>
      </trkpt>
      <trkpt lat="37.9930270" lon="-5.6618010">
        <ele>577.2</ele>
        <time>2022-05-22T14:27:26Z</time>
      </trkpt>
      <trkpt lat="37.9930300" lon="-5.6617950">
        <ele>577.2</ele>
        <time>2022-05-22T14:27:27Z</time>
      </trkpt>
      <trkpt lat="37.9930380" lon="-5.6617830">
        <ele>577.3</ele>
        <time>2022-05-22T14:27:28Z</time>
      </trkpt>
      <trkpt lat="37.9930450" lon="-5.6617720">
        <ele>577.3</ele>
        <time>2022-05-22T14:27:29Z</time>
      </trkpt>
      <trkpt lat="37.9930520" lon="-5.6617590">
        <ele>577.3</ele>
        <time>2022-05-22T14:27:30Z</time>
      </trkpt>
      <trkpt lat="37.9930590" lon="-5.6617480">
        <ele>577.3</ele>
        <time>2022-05-22T14:27:31Z</time>
      </trkpt>
      <trkpt lat="37.9930700" lon="-5.6617310">
        <ele>577.4</ele>
        <time>2022-05-22T14:27:33Z</time>
      </trkpt>
      <trkpt lat="37.9930780" lon="-5.6617210">
        <ele>577.4</ele>
        <time>2022-05-22T14:27:34Z</time>
      </trkpt>
      <trkpt lat="37.9930820" lon="-5.6617150">
        <ele>577.4</ele>
        <time>2022-05-22T14:27:35Z</time>
      </trkpt>
      <trkpt lat="37.9930870" lon="-5.6617070">
        <ele>577.5</ele>
        <time>2022-05-22T14:27:36Z</time>
      </trkpt>
      <trkpt lat="37.9930910" lon="-5.6616970">
        <ele>577.5</ele>
        <time>2022-05-22T14:27:38Z</time>
      </trkpt>
      <trkpt lat="37.9930980" lon="-5.6616830">
        <ele>577.5</ele>
        <time>2022-05-22T14:27:39Z</time>
      </trkpt>
      <trkpt lat="37.9931020" lon="-5.6616720">
        <ele>577.5</ele>
        <time>2022-05-22T14:27:40Z</time>
      </trkpt>
      <trkpt lat="37.9931070" lon="-5.6616600">
        <ele>577.6</ele>
        <time>2022-05-22T14:27:41Z</time>
      </trkpt>
      <trkpt lat="37.9931140" lon="-5.6616390">
        <ele>577.6</ele>
        <time>2022-05-22T14:27:42Z</time>
      </trkpt>
      <trkpt lat="37.9931180" lon="-5.6616280">
        <ele>577.6</ele>
        <time>2022-05-22T14:27:43Z</time>
      </trkpt>
      <trkpt lat="37.9931240" lon="-5.6616160">
        <ele>577.7</ele>
        <time>2022-05-22T14:27:44Z</time>
      </trkpt>
      <trkpt lat="37.9931300" lon="-5.6616050">
        <ele>577.7</ele>
        <time>2022-05-22T14:27:45Z</time>
      </trkpt>
      <trkpt lat="37.9931350" lon="-5.6615920">
        <ele>577.7</ele>
        <time>2022-05-22T14:27:46Z</time>
      </trkpt>
      <trkpt lat="37.9931390" lon="-5.6615800">
        <ele>577.8</ele>
        <time>2022-05-22T14:27:47Z</time>
      </trkpt>
      <trkpt lat="37.9931460" lon="-5.6615650">
        <ele>577.8</ele>
        <time>2022-05-22T14:27:48Z</time>
      </trkpt>
      <trkpt lat="37.9931500" lon="-5.6615560">
        <ele>577.8</ele>
        <time>2022-05-22T14:27:49Z</time>
      </trkpt>
      <trkpt lat="37.9931540" lon="-5.6615450">
        <ele>577.9</ele>
        <time>2022-05-22T14:27:50Z</time>
      </trkpt>
      <trkpt lat="37.9931570" lon="-5.6615340">
        <ele>577.9</ele>
        <time>2022-05-22T14:27:51Z</time>
      </trkpt>
      <trkpt lat="37.9931570" lon="-5.6615260">
        <ele>577.9</ele>
        <time>2022-05-22T14:27:52Z</time>
      </trkpt>
      <trkpt lat="37.9931540" lon="-5.6615170">
        <ele>577.9</ele>
        <time>2022-05-22T14:27:53Z</time>
      </trkpt>
      <trkpt lat="37.9931600" lon="-5.6615020">
        <ele>578.0</ele>
        <time>2022-05-22T14:27:55Z</time>
      </trkpt>
      <trkpt lat="37.9931650" lon="-5.6615030">
        <ele>578.0</ele>
        <time>2022-05-22T14:27:56Z</time>
      </trkpt>
      <trkpt lat="37.9931670" lon="-5.6615070">
        <ele>578.0</ele>
        <time>2022-05-22T14:27:57Z</time>
      </trkpt>
      <trkpt lat="37.9931670" lon="-5.6615090">
        <ele>578.0</ele>
        <time>2022-05-22T14:27:58Z</time>
      </trkpt>
      <trkpt lat="37.9931680" lon="-5.6615120">
        <ele>578.0</ele>
        <time>2022-05-22T14:28:00Z</time>
      </trkpt>
      <trkpt lat="37.9931700" lon="-5.6615140">
        <ele>578.0</ele>
        <time>2022-05-22T14:28:01Z</time>
      </trkpt>
      <trkpt lat="37.9931720" lon="-5.6615100">
        <ele>578.0</ele>
        <time>2022-05-22T14:28:02Z</time>
      </trkpt>
      <trkpt lat="37.9931750" lon="-5.6615010">
        <ele>578.1</ele>
        <time>2022-05-22T14:28:03Z</time>
      </trkpt>
      <trkpt lat="37.9931840" lon="-5.6614790">
        <ele>578.1</ele>
        <time>2022-05-22T14:28:05Z</time>
      </trkpt>
      <trkpt lat="37.9931910" lon="-5.6614630">
        <ele>578.2</ele>
        <time>2022-05-22T14:28:06Z</time>
      </trkpt>
      <trkpt lat="37.9931980" lon="-5.6614460">
        <ele>578.2</ele>
        <time>2022-05-22T14:28:07Z</time>
      </trkpt>
      <trkpt lat="37.9932080" lon="-5.6614250">
        <ele>578.3</ele>
        <time>2022-05-22T14:28:08Z</time>
      </trkpt>
      <trkpt lat="37.9932190" lon="-5.6614020">
        <ele>578.4</ele>
        <time>2022-05-22T14:28:10Z</time>
      </trkpt>
      <trkpt lat="37.9932310" lon="-5.6613670">
        <ele>578.5</ele>
        <time>2022-05-22T14:28:11Z</time>
      </trkpt>
      <trkpt lat="37.9932350" lon="-5.6613570">
        <ele>578.5</ele>
        <time>2022-05-22T14:28:12Z</time>
      </trkpt>
      <trkpt lat="37.9932400" lon="-5.6613400">
        <ele>578.6</ele>
        <time>2022-05-22T14:28:13Z</time>
      </trkpt>
      <trkpt lat="37.9932460" lon="-5.6613210">
        <ele>578.6</ele>
        <time>2022-05-22T14:28:14Z</time>
      </trkpt>
      <trkpt lat="37.9932530" lon="-5.6613010">
        <ele>578.7</ele>
        <time>2022-05-22T14:28:15Z</time>
      </trkpt>
      <trkpt lat="37.9932580" lon="-5.6612820">
        <ele>578.8</ele>
        <time>2022-05-22T14:28:16Z</time>
      </trkpt>
      <trkpt lat="37.9932640" lon="-5.6612630">
        <ele>578.8</ele>
        <time>2022-05-22T14:28:17Z</time>
      </trkpt>
      <trkpt lat="37.9932680" lon="-5.6612470">
        <ele>578.9</ele>
        <time>2022-05-22T14:28:18Z</time>
      </trkpt>
      <trkpt lat="37.9932730" lon="-5.6612290">
        <ele>578.9</ele>
        <time>2022-05-22T14:28:19Z</time>
      </trkpt>
      <trkpt lat="37.9932790" lon="-5.6612110">
        <ele>579.0</ele>
        <time>2022-05-22T14:28:20Z</time>
      </trkpt>
      <trkpt lat="37.9932900" lon="-5.6611850">
        <ele>579.1</ele>
        <time>2022-05-22T14:28:21Z</time>
      </trkpt>
      <trkpt lat="37.9932960" lon="-5.6611730">
        <ele>579.1</ele>
        <time>2022-05-22T14:28:22Z</time>
      </trkpt>
      <trkpt lat="37.9933020" lon="-5.6611600">
        <ele>579.2</ele>
        <time>2022-05-22T14:28:23Z</time>
      </trkpt>
      <trkpt lat="37.9933090" lon="-5.6611440">
        <ele>579.2</ele>
        <time>2022-05-22T14:28:24Z</time>
      </trkpt>
      <trkpt lat="37.9933150" lon="-5.6611280">
        <ele>579.3</ele>
        <time>2022-05-22T14:28:25Z</time>
      </trkpt>
      <trkpt lat="37.9933240" lon="-5.6611030">
        <ele>579.4</ele>
        <time>2022-05-22T14:28:26Z</time>
      </trkpt>
      <trkpt lat="37.9933280" lon="-5.6610900">
        <ele>579.4</ele>
        <time>2022-05-22T14:28:27Z</time>
      </trkpt>
      <trkpt lat="37.9933310" lon="-5.6610780">
        <ele>579.4</ele>
        <time>2022-05-22T14:28:28Z</time>
      </trkpt>
      <trkpt lat="37.9933360" lon="-5.6610640">
        <ele>579.5</ele>
        <time>2022-05-22T14:28:29Z</time>
      </trkpt>
      <trkpt lat="37.9933430" lon="-5.6610440">
        <ele>579.5</ele>
        <time>2022-05-22T14:28:30Z</time>
      </trkpt>
      <trkpt lat="37.9933460" lon="-5.6610310">
        <ele>579.6</ele>
        <time>2022-05-22T14:28:31Z</time>
      </trkpt>
      <trkpt lat="37.9933500" lon="-5.6610160">
        <ele>579.6</ele>
        <time>2022-05-22T14:28:32Z</time>
      </trkpt>
      <trkpt lat="37.9933560" lon="-5.6609920">
        <ele>579.7</ele>
        <time>2022-05-22T14:28:34Z</time>
      </trkpt>
      <trkpt lat="37.9933640" lon="-5.6609690">
        <ele>579.8</ele>
        <time>2022-05-22T14:28:35Z</time>
      </trkpt>
      <trkpt lat="37.9933690" lon="-5.6609560">
        <ele>579.8</ele>
        <time>2022-05-22T14:28:36Z</time>
      </trkpt>
      <trkpt lat="37.9933780" lon="-5.6609300">
        <ele>579.9</ele>
        <time>2022-05-22T14:28:37Z</time>
      </trkpt>
      <trkpt lat="37.9933820" lon="-5.6609180">
        <ele>579.9</ele>
        <time>2022-05-22T14:28:38Z</time>
      </trkpt>
      <trkpt lat="37.9933860" lon="-5.6609060">
        <ele>580.0</ele>
        <time>2022-05-22T14:28:39Z</time>
      </trkpt>
      <trkpt lat="37.9933910" lon="-5.6608920">
        <ele>580.0</ele>
        <time>2022-05-22T14:28:40Z</time>
      </trkpt>
      <trkpt lat="37.9933950" lon="-5.6608810">
        <ele>580.0</ele>
        <time>2022-05-22T14:28:41Z</time>
      </trkpt>
      <trkpt lat="37.9934000" lon="-5.6608670">
        <ele>580.1</ele>
        <time>2022-05-22T14:28:42Z</time>
      </trkpt>
      <trkpt lat="37.9934090" lon="-5.6608430">
        <ele>580.2</ele>
        <time>2022-05-22T14:28:43Z</time>
      </trkpt>
      <trkpt lat="37.9934140" lon="-5.6608320">
        <ele>580.2</ele>
        <time>2022-05-22T14:28:44Z</time>
      </trkpt>
      <trkpt lat="37.9934180" lon="-5.6608210">
        <ele>580.2</ele>
        <time>2022-05-22T14:28:45Z</time>
      </trkpt>
      <trkpt lat="37.9934260" lon="-5.6608040">
        <ele>580.3</ele>
        <time>2022-05-22T14:28:46Z</time>
      </trkpt>
      <trkpt lat="37.9934300" lon="-5.6607960">
        <ele>580.3</ele>
        <time>2022-05-22T14:28:47Z</time>
      </trkpt>
      <trkpt lat="37.9934330" lon="-5.6607880">
        <ele>580.3</ele>
        <time>2022-05-22T14:28:48Z</time>
      </trkpt>
      <trkpt lat="37.9934360" lon="-5.6607800">
        <ele>580.4</ele>
        <time>2022-05-22T14:28:49Z</time>
      </trkpt>
      <trkpt lat="37.9934480" lon="-5.6607530">
        <ele>580.4</ele>
        <time>2022-05-22T14:28:51Z</time>
      </trkpt>
      <trkpt lat="37.9934530" lon="-5.6607440">
        <ele>580.5</ele>
        <time>2022-05-22T14:28:52Z</time>
      </trkpt>
      <trkpt lat="37.9934580" lon="-5.6607320">
        <ele>580.5</ele>
        <time>2022-05-22T14:28:53Z</time>
      </trkpt>
      <trkpt lat="37.9934640" lon="-5.6607200">
        <ele>580.6</ele>
        <time>2022-05-22T14:28:54Z</time>
      </trkpt>
      <trkpt lat="37.9934690" lon="-5.6607070">
        <ele>580.6</ele>
        <time>2022-05-22T14:28:55Z</time>
      </trkpt>
      <trkpt lat="37.9934740" lon="-5.6606950">
        <ele>580.6</ele>
        <time>2022-05-22T14:28:56Z</time>
      </trkpt>
      <trkpt lat="37.9934780" lon="-5.6606860">
        <ele>580.7</ele>
        <time>2022-05-22T14:28:57Z</time>
      </trkpt>
      <trkpt lat="37.9934810" lon="-5.6606740">
        <ele>580.7</ele>
        <time>2022-05-22T14:28:58Z</time>
      </trkpt>
      <trkpt lat="37.9934830" lon="-5.6606610">
        <ele>580.7</ele>
        <time>2022-05-22T14:28:59Z</time>
      </trkpt>
      <trkpt lat="37.9934860" lon="-5.6606470">
        <ele>580.8</ele>
        <time>2022-05-22T14:29:00Z</time>
      </trkpt>
      <trkpt lat="37.9934880" lon="-5.6606330">
        <ele>580.8</ele>
        <time>2022-05-22T14:29:01Z</time>
      </trkpt>
      <trkpt lat="37.9934870" lon="-5.6606130">
        <ele>580.9</ele>
        <time>2022-05-22T14:29:03Z</time>
      </trkpt>
      <trkpt lat="37.9934850" lon="-5.6605890">
        <ele>580.9</ele>
        <time>2022-05-22T14:29:04Z</time>
      </trkpt>
      <trkpt lat="37.9934850" lon="-5.6605720">
        <ele>581.0</ele>
        <time>2022-05-22T14:29:05Z</time>
      </trkpt>
      <trkpt lat="37.9934860" lon="-5.6605540">
        <ele>581.1</ele>
        <time>2022-05-22T14:29:06Z</time>
      </trkpt>
      <trkpt lat="37.9934880" lon="-5.6605400">
        <ele>581.1</ele>
        <time>2022-05-22T14:29:07Z</time>
      </trkpt>
      <trkpt lat="37.9934910" lon="-5.6605180">
        <ele>581.2</ele>
        <time>2022-05-22T14:29:08Z</time>
      </trkpt>
      <trkpt lat="37.9934930" lon="-5.6605050">
        <ele>581.2</ele>
        <time>2022-05-22T14:29:09Z</time>
      </trkpt>
      <trkpt lat="37.9934950" lon="-5.6604910">
        <ele>581.2</ele>
        <time>2022-05-22T14:29:10Z</time>
      </trkpt>
      <trkpt lat="37.9934970" lon="-5.6604740">
        <ele>581.3</ele>
        <time>2022-05-22T14:29:11Z</time>
      </trkpt>
      <trkpt lat="37.9935010" lon="-5.6604490">
        <ele>581.4</ele>
        <time>2022-05-22T14:29:12Z</time>
      </trkpt>
      <trkpt lat="37.9935030" lon="-5.6604390">
        <ele>581.4</ele>
        <time>2022-05-22T14:29:13Z</time>
      </trkpt>
      <trkpt lat="37.9935050" lon="-5.6604290">
        <ele>581.4</ele>
        <time>2022-05-22T14:29:14Z</time>
      </trkpt>
      <trkpt lat="37.9935080" lon="-5.6604170">
        <ele>581.5</ele>
        <time>2022-05-22T14:29:15Z</time>
      </trkpt>
      <trkpt lat="37.9935110" lon="-5.6604040">
        <ele>581.5</ele>
        <time>2022-05-22T14:29:16Z</time>
      </trkpt>
      <trkpt lat="37.9935140" lon="-5.6603940">
        <ele>581.5</ele>
        <time>2022-05-22T14:29:17Z</time>
      </trkpt>
      <trkpt lat="37.9935180" lon="-5.6603820">
        <ele>581.6</ele>
        <time>2022-05-22T14:29:18Z</time>
      </trkpt>
      <trkpt lat="37.9935230" lon="-5.6603680">
        <ele>581.6</ele>
        <time>2022-05-22T14:29:19Z</time>
      </trkpt>
      <trkpt lat="37.9935260" lon="-5.6603570">
        <ele>581.6</ele>
        <time>2022-05-22T14:29:20Z</time>
      </trkpt>
      <trkpt lat="37.9935290" lon="-5.6603450">
        <ele>581.7</ele>
        <time>2022-05-22T14:29:21Z</time>
      </trkpt>
      <trkpt lat="37.9935310" lon="-5.6603310">
        <ele>581.7</ele>
        <time>2022-05-22T14:29:23Z</time>
      </trkpt>
      <trkpt lat="37.9935320" lon="-5.6603180">
        <ele>581.8</ele>
        <time>2022-05-22T14:29:24Z</time>
      </trkpt>
      <trkpt lat="37.9935320" lon="-5.6602920">
        <ele>581.8</ele>
        <time>2022-05-22T14:29:25Z</time>
      </trkpt>
      <trkpt lat="37.9935330" lon="-5.6602780">
        <ele>581.9</ele>
        <time>2022-05-22T14:29:26Z</time>
      </trkpt>
      <trkpt lat="37.9935350" lon="-5.6602640">
        <ele>581.9</ele>
        <time>2022-05-22T14:29:27Z</time>
      </trkpt>
      <trkpt lat="37.9935360" lon="-5.6602530">
        <ele>581.9</ele>
        <time>2022-05-22T14:29:28Z</time>
      </trkpt>
      <trkpt lat="37.9935370" lon="-5.6602380">
        <ele>582.0</ele>
        <time>2022-05-22T14:29:29Z</time>
      </trkpt>
      <trkpt lat="37.9935370" lon="-5.6602130">
        <ele>582.1</ele>
        <time>2022-05-22T14:29:31Z</time>
      </trkpt>
      <trkpt lat="37.9935380" lon="-5.6601920">
        <ele>582.1</ele>
        <time>2022-05-22T14:29:32Z</time>
      </trkpt>
      <trkpt lat="37.9935390" lon="-5.6601800">
        <ele>582.2</ele>
        <time>2022-05-22T14:29:33Z</time>
      </trkpt>
      <trkpt lat="37.9935400" lon="-5.6601650">
        <ele>582.2</ele>
        <time>2022-05-22T14:29:34Z</time>
      </trkpt>
      <trkpt lat="37.9935400" lon="-5.6601500">
        <ele>582.2</ele>
        <time>2022-05-22T14:29:35Z</time>
      </trkpt>
      <trkpt lat="37.9935410" lon="-5.6601330">
        <ele>582.3</ele>
        <time>2022-05-22T14:29:36Z</time>
      </trkpt>
      <trkpt lat="37.9935410" lon="-5.6601110">
        <ele>582.3</ele>
        <time>2022-05-22T14:29:37Z</time>
      </trkpt>
      <trkpt lat="37.9935410" lon="-5.6600970">
        <ele>582.4</ele>
        <time>2022-05-22T14:29:38Z</time>
      </trkpt>
      <trkpt lat="37.9935410" lon="-5.6600840">
        <ele>582.4</ele>
        <time>2022-05-22T14:29:39Z</time>
      </trkpt>
      <trkpt lat="37.9935420" lon="-5.6600680">
        <ele>582.5</ele>
        <time>2022-05-22T14:29:40Z</time>
      </trkpt>
      <trkpt lat="37.9935420" lon="-5.6600510">
        <ele>582.5</ele>
        <time>2022-05-22T14:29:41Z</time>
      </trkpt>
      <trkpt lat="37.9935440" lon="-5.6600330">
        <ele>582.6</ele>
        <time>2022-05-22T14:29:42Z</time>
      </trkpt>
      <trkpt lat="37.9935480" lon="-5.6600040">
        <ele>582.6</ele>
        <time>2022-05-22T14:29:44Z</time>
      </trkpt>
      <trkpt lat="37.9935490" lon="-5.6599910">
        <ele>582.7</ele>
        <time>2022-05-22T14:29:45Z</time>
      </trkpt>
      <trkpt lat="37.9935500" lon="-5.6599780">
        <ele>582.7</ele>
        <time>2022-05-22T14:29:46Z</time>
      </trkpt>
      <trkpt lat="37.9935500" lon="-5.6599630">
        <ele>582.8</ele>
        <time>2022-05-22T14:29:47Z</time>
      </trkpt>
      <trkpt lat="37.9935500" lon="-5.6599450">
        <ele>582.8</ele>
        <time>2022-05-22T14:29:48Z</time>
      </trkpt>
      <trkpt lat="37.9935490" lon="-5.6599340">
        <ele>582.8</ele>
        <time>2022-05-22T14:29:49Z</time>
      </trkpt>
      <trkpt lat="37.9935480" lon="-5.6599060">
        <ele>582.9</ele>
        <time>2022-05-22T14:29:51Z</time>
      </trkpt>
      <trkpt lat="37.9935470" lon="-5.6598930">
        <ele>583.0</ele>
        <time>2022-05-22T14:29:52Z</time>
      </trkpt>
      <trkpt lat="37.9935460" lon="-5.6598780">
        <ele>583.0</ele>
        <time>2022-05-22T14:29:53Z</time>
      </trkpt>
      <trkpt lat="37.9935440" lon="-5.6598580">
        <ele>583.1</ele>
        <time>2022-05-22T14:29:54Z</time>
      </trkpt>
      <trkpt lat="37.9935420" lon="-5.6598280">
        <ele>583.2</ele>
        <time>2022-05-22T14:29:56Z</time>
      </trkpt>
      <trkpt lat="37.9935400" lon="-5.6598150">
        <ele>583.2</ele>
        <time>2022-05-22T14:29:57Z</time>
      </trkpt>
      <trkpt lat="37.9935370" lon="-5.6597880">
        <ele>583.3</ele>
        <time>2022-05-22T14:29:59Z</time>
      </trkpt>
      <trkpt lat="37.9935350" lon="-5.6597760">
        <ele>583.3</ele>
        <time>2022-05-22T14:30:00Z</time>
      </trkpt>
      <trkpt lat="37.9935330" lon="-5.6597640">
        <ele>583.3</ele>
        <time>2022-05-22T14:30:01Z</time>
      </trkpt>
      <trkpt lat="37.9935300" lon="-5.6597380">
        <ele>583.4</ele>
        <time>2022-05-22T14:30:02Z</time>
      </trkpt>
      <trkpt lat="37.9935300" lon="-5.6597270">
        <ele>583.4</ele>
        <time>2022-05-22T14:30:03Z</time>
      </trkpt>
      <trkpt lat="37.9935290" lon="-5.6597150">
        <ele>583.5</ele>
        <time>2022-05-22T14:30:04Z</time>
      </trkpt>
      <trkpt lat="37.9935300" lon="-5.6596740">
        <ele>583.6</ele>
        <time>2022-05-22T14:30:06Z</time>
      </trkpt>
      <trkpt lat="37.9935300" lon="-5.6596650">
        <ele>583.6</ele>
        <time>2022-05-22T14:30:07Z</time>
      </trkpt>
      <trkpt lat="37.9935310" lon="-5.6596470">
        <ele>583.7</ele>
        <time>2022-05-22T14:30:08Z</time>
      </trkpt>
      <trkpt lat="37.9935320" lon="-5.6596300">
        <ele>583.7</ele>
        <time>2022-05-22T14:30:09Z</time>
      </trkpt>
      <trkpt lat="37.9935310" lon="-5.6596120">
        <ele>583.7</ele>
        <time>2022-05-22T14:30:10Z</time>
      </trkpt>
      <trkpt lat="37.9935270" lon="-5.6595750">
        <ele>583.8</ele>
        <time>2022-05-22T14:30:12Z</time>
      </trkpt>
      <trkpt lat="37.9935260" lon="-5.6595490">
        <ele>583.9</ele>
        <time>2022-05-22T14:30:13Z</time>
      </trkpt>
      <trkpt lat="37.9935260" lon="-5.6595390">
        <ele>583.9</ele>
        <time>2022-05-22T14:30:14Z</time>
      </trkpt>
      <trkpt lat="37.9935260" lon="-5.6595290">
        <ele>583.9</ele>
        <time>2022-05-22T14:30:15Z</time>
      </trkpt>
      <trkpt lat="37.9935270" lon="-5.6595140">
        <ele>584.0</ele>
        <time>2022-05-22T14:30:16Z</time>
      </trkpt>
      <trkpt lat="37.9935280" lon="-5.6594970">
        <ele>584.0</ele>
        <time>2022-05-22T14:30:17Z</time>
      </trkpt>
      <trkpt lat="37.9935270" lon="-5.6594830">
        <ele>584.0</ele>
        <time>2022-05-22T14:30:18Z</time>
      </trkpt>
      <trkpt lat="37.9935260" lon="-5.6594690">
        <ele>584.1</ele>
        <time>2022-05-22T14:30:19Z</time>
      </trkpt>
      <trkpt lat="37.9935260" lon="-5.6594560">
        <ele>584.1</ele>
        <time>2022-05-22T14:30:20Z</time>
      </trkpt>
      <trkpt lat="37.9935260" lon="-5.6594410">
        <ele>584.1</ele>
        <time>2022-05-22T14:30:21Z</time>
      </trkpt>
      <trkpt lat="37.9935260" lon="-5.6594230">
        <ele>584.2</ele>
        <time>2022-05-22T14:30:22Z</time>
      </trkpt>
      <trkpt lat="37.9935260" lon="-5.6594040">
        <ele>584.2</ele>
        <time>2022-05-22T14:30:23Z</time>
      </trkpt>
      <trkpt lat="37.9935280" lon="-5.6593770">
        <ele>584.3</ele>
        <time>2022-05-22T14:30:24Z</time>
      </trkpt>
      <trkpt lat="37.9935280" lon="-5.6593660">
        <ele>584.3</ele>
        <time>2022-05-22T14:30:25Z</time>
      </trkpt>
      <trkpt lat="37.9935280" lon="-5.6593560">
        <ele>584.3</ele>
        <time>2022-05-22T14:30:26Z</time>
      </trkpt>
      <trkpt lat="37.9935290" lon="-5.6593400">
        <ele>584.3</ele>
        <time>2022-05-22T14:30:27Z</time>
      </trkpt>
      <trkpt lat="37.9935310" lon="-5.6593190">
        <ele>584.4</ele>
        <time>2022-05-22T14:30:28Z</time>
      </trkpt>
      <trkpt lat="37.9935330" lon="-5.6592940">
        <ele>584.4</ele>
        <time>2022-05-22T14:30:29Z</time>
      </trkpt>
      <trkpt lat="37.9935340" lon="-5.6592830">
        <ele>584.5</ele>
        <time>2022-05-22T14:30:30Z</time>
      </trkpt>
      <trkpt lat="37.9935350" lon="-5.6592730">
        <ele>584.5</ele>
        <time>2022-05-22T14:30:31Z</time>
      </trkpt>
      <trkpt lat="37.9935420" lon="-5.6592440">
        <ele>584.6</ele>
        <time>2022-05-22T14:30:32Z</time>
      </trkpt>
      <trkpt lat="37.9935440" lon="-5.6592300">
        <ele>584.6</ele>
        <time>2022-05-22T14:30:33Z</time>
      </trkpt>
      <trkpt lat="37.9935470" lon="-5.6592170">
        <ele>584.6</ele>
        <time>2022-05-22T14:30:34Z</time>
      </trkpt>
      <trkpt lat="37.9935500" lon="-5.6591910">
        <ele>584.7</ele>
        <time>2022-05-22T14:30:36Z</time>
      </trkpt>
      <trkpt lat="37.9935530" lon="-5.6591720">
        <ele>584.7</ele>
        <time>2022-05-22T14:30:37Z</time>
      </trkpt>
      <trkpt lat="37.9935600" lon="-5.6591320">
        <ele>584.8</ele>
        <time>2022-05-22T14:30:39Z</time>
      </trkpt>
      <trkpt lat="37.9935620" lon="-5.6591210">
        <ele>584.8</ele>
        <time>2022-05-22T14:30:40Z</time>
      </trkpt>
      <trkpt lat="37.9935660" lon="-5.6590960">
        <ele>584.9</ele>
        <time>2022-05-22T14:30:41Z</time>
      </trkpt>
      <trkpt lat="37.9935680" lon="-5.6590850">
        <ele>584.9</ele>
        <time>2022-05-22T14:30:42Z</time>
      </trkpt>
      <trkpt lat="37.9935690" lon="-5.6590730">
        <ele>584.9</ele>
        <time>2022-05-22T14:30:43Z</time>
      </trkpt>
      <trkpt lat="37.9935710" lon="-5.6590560">
        <ele>584.9</ele>
        <time>2022-05-22T14:30:44Z</time>
      </trkpt>
      <trkpt lat="37.9935730" lon="-5.6590330">
        <ele>585.0</ele>
        <time>2022-05-22T14:30:45Z</time>
      </trkpt>
      <trkpt lat="37.9935740" lon="-5.6590150">
        <ele>585.0</ele>
        <time>2022-05-22T14:30:46Z</time>
      </trkpt>
      <trkpt lat="37.9935750" lon="-5.6589920">
        <ele>585.0</ele>
        <time>2022-05-22T14:30:48Z</time>
      </trkpt>
      <trkpt lat="37.9935750" lon="-5.6589730">
        <ele>585.1</ele>
        <time>2022-05-22T14:30:49Z</time>
      </trkpt>
      <trkpt lat="37.9935750" lon="-5.6589510">
        <ele>585.1</ele>
        <time>2022-05-22T14:30:50Z</time>
      </trkpt>
      <trkpt lat="37.9935730" lon="-5.6589410">
        <ele>585.1</ele>
        <time>2022-05-22T14:30:51Z</time>
      </trkpt>
      <trkpt lat="37.9935680" lon="-5.6589240">
        <ele>585.1</ele>
        <time>2022-05-22T14:30:53Z</time>
      </trkpt>
      <trkpt lat="37.9935650" lon="-5.6589100">
        <ele>585.1</ele>
        <time>2022-05-22T14:30:54Z</time>
      </trkpt>
      <trkpt lat="37.9935630" lon="-5.6588960">
        <ele>585.2</ele>
        <time>2022-05-22T14:30:55Z</time>
      </trkpt>
      <trkpt lat="37.9935570" lon="-5.6588720">
        <ele>585.2</ele>
        <time>2022-05-22T14:30:57Z</time>
      </trkpt>
      <trkpt lat="37.9935520" lon="-5.6588620">
        <ele>585.2</ele>
        <time>2022-05-22T14:30:58Z</time>
      </trkpt>
      <trkpt lat="37.9935480" lon="-5.6588520">
        <ele>585.2</ele>
        <time>2022-05-22T14:30:59Z</time>
      </trkpt>
      <trkpt lat="37.9935400" lon="-5.6588330">
        <ele>585.2</ele>
        <time>2022-05-22T14:31:00Z</time>
      </trkpt>
      <trkpt lat="37.9935350" lon="-5.6588180">
        <ele>585.2</ele>
        <time>2022-05-22T14:31:01Z</time>
      </trkpt>
      <trkpt lat="37.9935250" lon="-5.6587980">
        <ele>585.2</ele>
        <time>2022-05-22T14:31:02Z</time>
      </trkpt>
      <trkpt lat="37.9935170" lon="-5.6587830">
        <ele>585.2</ele>
        <time>2022-05-22T14:31:04Z</time>
      </trkpt>
      <trkpt lat="37.9935100" lon="-5.6587680">
        <ele>585.2</ele>
        <time>2022-05-22T14:31:05Z</time>
      </trkpt>
      <trkpt lat="37.9935000" lon="-5.6587470">
        <ele>585.3</ele>
        <time>2022-05-22T14:31:06Z</time>
      </trkpt>
      <trkpt lat="37.9934930" lon="-5.6587320">
        <ele>585.3</ele>
        <time>2022-05-22T14:31:07Z</time>
      </trkpt>
      <trkpt lat="37.9934840" lon="-5.6587150">
        <ele>585.3</ele>
        <time>2022-05-22T14:31:08Z</time>
      </trkpt>
      <trkpt lat="37.9934770" lon="-5.6587040">
        <ele>585.3</ele>
        <time>2022-05-22T14:31:09Z</time>
      </trkpt>
      <trkpt lat="37.9934680" lon="-5.6586920">
        <ele>585.3</ele>
        <time>2022-05-22T14:31:10Z</time>
      </trkpt>
      <trkpt lat="37.9934600" lon="-5.6586770">
        <ele>585.3</ele>
        <time>2022-05-22T14:31:11Z</time>
      </trkpt>
      <trkpt lat="37.9934510" lon="-5.6586610">
        <ele>585.3</ele>
        <time>2022-05-22T14:31:12Z</time>
      </trkpt>
      <trkpt lat="37.9934440" lon="-5.6586460">
        <ele>585.3</ele>
        <time>2022-05-22T14:31:13Z</time>
      </trkpt>
      <trkpt lat="37.9934340" lon="-5.6586270">
        <ele>585.3</ele>
        <time>2022-05-22T14:31:14Z</time>
      </trkpt>
      <trkpt lat="37.9934280" lon="-5.6586170">
        <ele>585.3</ele>
        <time>2022-05-22T14:31:15Z</time>
      </trkpt>
      <trkpt lat="37.9934230" lon="-5.6586040">
        <ele>585.3</ele>
        <time>2022-05-22T14:31:16Z</time>
      </trkpt>
      <trkpt lat="37.9934170" lon="-5.6585910">
        <ele>585.3</ele>
        <time>2022-05-22T14:31:17Z</time>
      </trkpt>
      <trkpt lat="37.9934110" lon="-5.6585770">
        <ele>585.3</ele>
        <time>2022-05-22T14:31:18Z</time>
      </trkpt>
      <trkpt lat="37.9934030" lon="-5.6585580">
        <ele>585.3</ele>
        <time>2022-05-22T14:31:19Z</time>
      </trkpt>
      <trkpt lat="37.9934000" lon="-5.6585480">
        <ele>585.3</ele>
        <time>2022-05-22T14:31:20Z</time>
      </trkpt>
      <trkpt lat="37.9933980" lon="-5.6585360">
        <ele>585.3</ele>
        <time>2022-05-22T14:31:21Z</time>
      </trkpt>
      <trkpt lat="37.9933930" lon="-5.6585110">
        <ele>585.3</ele>
        <time>2022-05-22T14:31:22Z</time>
      </trkpt>
      <trkpt lat="37.9933910" lon="-5.6585010">
        <ele>585.3</ele>
        <time>2022-05-22T14:31:23Z</time>
      </trkpt>
      <trkpt lat="37.9933890" lon="-5.6584900">
        <ele>585.3</ele>
        <time>2022-05-22T14:31:24Z</time>
      </trkpt>
      <trkpt lat="37.9933850" lon="-5.6584710">
        <ele>585.3</ele>
        <time>2022-05-22T14:31:25Z</time>
      </trkpt>
      <trkpt lat="37.9933830" lon="-5.6584600">
        <ele>585.3</ele>
        <time>2022-05-22T14:31:26Z</time>
      </trkpt>
      <trkpt lat="37.9933800" lon="-5.6584490">
        <ele>585.3</ele>
        <time>2022-05-22T14:31:27Z</time>
      </trkpt>
      <trkpt lat="37.9933770" lon="-5.6584360">
        <ele>585.3</ele>
        <time>2022-05-22T14:31:28Z</time>
      </trkpt>
      <trkpt lat="37.9933730" lon="-5.6584220">
        <ele>585.3</ele>
        <time>2022-05-22T14:31:29Z</time>
      </trkpt>
      <trkpt lat="37.9933690" lon="-5.6584080">
        <ele>585.3</ele>
        <time>2022-05-22T14:31:30Z</time>
      </trkpt>
      <trkpt lat="37.9933630" lon="-5.6583900">
        <ele>585.3</ele>
        <time>2022-05-22T14:31:31Z</time>
      </trkpt>
      <trkpt lat="37.9933590" lon="-5.6583770">
        <ele>585.3</ele>
        <time>2022-05-22T14:31:32Z</time>
      </trkpt>
      <trkpt lat="37.9933510" lon="-5.6583520">
        <ele>585.3</ele>
        <time>2022-05-22T14:31:34Z</time>
      </trkpt>
      <trkpt lat="37.9933410" lon="-5.6583260">
        <ele>585.2</ele>
        <time>2022-05-22T14:31:35Z</time>
      </trkpt>
      <trkpt lat="37.9933360" lon="-5.6583150">
        <ele>585.2</ele>
        <time>2022-05-22T14:31:36Z</time>
      </trkpt>
      <trkpt lat="37.9933310" lon="-5.6583040">
        <ele>585.2</ele>
        <time>2022-05-22T14:31:37Z</time>
      </trkpt>
      <trkpt lat="37.9933240" lon="-5.6582820">
        <ele>585.2</ele>
        <time>2022-05-22T14:31:38Z</time>
      </trkpt>
      <trkpt lat="37.9933210" lon="-5.6582710">
        <ele>585.2</ele>
        <time>2022-05-22T14:31:39Z</time>
      </trkpt>
      <trkpt lat="37.9933170" lon="-5.6582600">
        <ele>585.2</ele>
        <time>2022-05-22T14:31:40Z</time>
      </trkpt>
      <trkpt lat="37.9933130" lon="-5.6582430">
        <ele>585.2</ele>
        <time>2022-05-22T14:31:41Z</time>
      </trkpt>
      <trkpt lat="37.9933020" lon="-5.6582100">
        <ele>585.2</ele>
        <time>2022-05-22T14:31:43Z</time>
      </trkpt>
      <trkpt lat="37.9932950" lon="-5.6581850">
        <ele>585.2</ele>
        <time>2022-05-22T14:31:44Z</time>
      </trkpt>
      <trkpt lat="37.9932920" lon="-5.6581740">
        <ele>585.2</ele>
        <time>2022-05-22T14:31:45Z</time>
      </trkpt>
      <trkpt lat="37.9932900" lon="-5.6581630">
        <ele>585.2</ele>
        <time>2022-05-22T14:31:46Z</time>
      </trkpt>
      <trkpt lat="37.9932860" lon="-5.6581470">
        <ele>585.2</ele>
        <time>2022-05-22T14:31:47Z</time>
      </trkpt>
      <trkpt lat="37.9932790" lon="-5.6581280">
        <ele>585.2</ele>
        <time>2022-05-22T14:31:48Z</time>
      </trkpt>
      <trkpt lat="37.9932700" lon="-5.6581040">
        <ele>585.1</ele>
        <time>2022-05-22T14:31:49Z</time>
      </trkpt>
      <trkpt lat="37.9932660" lon="-5.6580930">
        <ele>585.1</ele>
        <time>2022-05-22T14:31:50Z</time>
      </trkpt>
      <trkpt lat="37.9932610" lon="-5.6580830">
        <ele>585.1</ele>
        <time>2022-05-22T14:31:51Z</time>
      </trkpt>
      <trkpt lat="37.9932530" lon="-5.6580580">
        <ele>585.1</ele>
        <time>2022-05-22T14:31:52Z</time>
      </trkpt>
      <trkpt lat="37.9932490" lon="-5.6580460">
        <ele>585.1</ele>
        <time>2022-05-22T14:31:53Z</time>
      </trkpt>
      <trkpt lat="37.9932460" lon="-5.6580340">
        <ele>585.1</ele>
        <time>2022-05-22T14:31:54Z</time>
      </trkpt>
      <trkpt lat="37.9932400" lon="-5.6580140">
        <ele>585.1</ele>
        <time>2022-05-22T14:31:55Z</time>
      </trkpt>
      <trkpt lat="37.9932350" lon="-5.6579940">
        <ele>585.1</ele>
        <time>2022-05-22T14:31:56Z</time>
      </trkpt>
      <trkpt lat="37.9932290" lon="-5.6579680">
        <ele>585.1</ele>
        <time>2022-05-22T14:31:57Z</time>
      </trkpt>
      <trkpt lat="37.9932270" lon="-5.6579580">
        <ele>585.1</ele>
        <time>2022-05-22T14:31:58Z</time>
      </trkpt>
      <trkpt lat="37.9932250" lon="-5.6579490">
        <ele>585.1</ele>
        <time>2022-05-22T14:31:59Z</time>
      </trkpt>
      <trkpt lat="37.9932180" lon="-5.6579100">
        <ele>585.1</ele>
        <time>2022-05-22T14:32:01Z</time>
      </trkpt>
      <trkpt lat="37.9932150" lon="-5.6579020">
        <ele>585.1</ele>
        <time>2022-05-22T14:32:02Z</time>
      </trkpt>
      <trkpt lat="37.9932080" lon="-5.6578800">
        <ele>585.1</ele>
        <time>2022-05-22T14:32:04Z</time>
      </trkpt>
      <trkpt lat="37.9932010" lon="-5.6578590">
        <ele>585.1</ele>
        <time>2022-05-22T14:32:06Z</time>
      </trkpt>
      <trkpt lat="37.9931920" lon="-5.6578410">
        <ele>585.1</ele>
        <time>2022-05-22T14:32:07Z</time>
      </trkpt>
      <trkpt lat="37.9931840" lon="-5.6578250">
        <ele>585.1</ele>
        <time>2022-05-22T14:32:08Z</time>
      </trkpt>
      <trkpt lat="37.9931690" lon="-5.6578090">
        <ele>585.0</ele>
        <time>2022-05-22T14:32:10Z</time>
      </trkpt>
      <trkpt lat="37.9931550" lon="-5.6578030">
        <ele>585.0</ele>
        <time>2022-05-22T14:32:11Z</time>
      </trkpt>
      <trkpt lat="37.9931480" lon="-5.6577990">
        <ele>585.0</ele>
        <time>2022-05-22T14:32:12Z</time>
      </trkpt>
      <trkpt lat="37.9931420" lon="-5.6577890">
        <ele>585.0</ele>
        <time>2022-05-22T14:32:13Z</time>
      </trkpt>
      <trkpt lat="37.9931390" lon="-5.6577790">
        <ele>585.0</ele>
        <time>2022-05-22T14:32:14Z</time>
      </trkpt>
      <trkpt lat="37.9931370" lon="-5.6577650">
        <ele>585.0</ele>
        <time>2022-05-22T14:32:16Z</time>
      </trkpt>
      <trkpt lat="37.9931340" lon="-5.6577500">
        <ele>585.0</ele>
        <time>2022-05-22T14:32:17Z</time>
      </trkpt>
      <trkpt lat="37.9931310" lon="-5.6577320">
        <ele>585.0</ele>
        <time>2022-05-22T14:32:18Z</time>
      </trkpt>
      <trkpt lat="37.9931250" lon="-5.6577060">
        <ele>585.0</ele>
        <time>2022-05-22T14:32:20Z</time>
      </trkpt>
      <trkpt lat="37.9931180" lon="-5.6576790">
        <ele>585.0</ele>
        <time>2022-05-22T14:32:21Z</time>
      </trkpt>
      <trkpt lat="37.9931130" lon="-5.6576670">
        <ele>585.0</ele>
        <time>2022-05-22T14:32:22Z</time>
      </trkpt>
      <trkpt lat="37.9931080" lon="-5.6576540">
        <ele>585.0</ele>
        <time>2022-05-22T14:32:23Z</time>
      </trkpt>
      <trkpt lat="37.9930980" lon="-5.6576250">
        <ele>585.0</ele>
        <time>2022-05-22T14:32:24Z</time>
      </trkpt>
      <trkpt lat="37.9930920" lon="-5.6576110">
        <ele>585.0</ele>
        <time>2022-05-22T14:32:26Z</time>
      </trkpt>
      <trkpt lat="37.9930870" lon="-5.6575970">
        <ele>585.0</ele>
        <time>2022-05-22T14:32:27Z</time>
      </trkpt>
      <trkpt lat="37.9930810" lon="-5.6575830">
        <ele>585.0</ele>
        <time>2022-05-22T14:32:28Z</time>
      </trkpt>
      <trkpt lat="37.9930760" lon="-5.6575690">
        <ele>585.0</ele>
        <time>2022-05-22T14:32:29Z</time>
      </trkpt>
      <trkpt lat="37.9930660" lon="-5.6575510">
        <ele>585.0</ele>
        <time>2022-05-22T14:32:30Z</time>
      </trkpt>
      <trkpt lat="37.9930620" lon="-5.6575420">
        <ele>585.0</ele>
        <time>2022-05-22T14:32:31Z</time>
      </trkpt>
      <trkpt lat="37.9930570" lon="-5.6575300">
        <ele>585.0</ele>
        <time>2022-05-22T14:32:32Z</time>
      </trkpt>
      <trkpt lat="37.9930460" lon="-5.6575080">
        <ele>585.0</ele>
        <time>2022-05-22T14:32:34Z</time>
      </trkpt>
      <trkpt lat="37.9930390" lon="-5.6574940">
        <ele>585.0</ele>
        <time>2022-05-22T14:32:35Z</time>
      </trkpt>
      <trkpt lat="37.9930290" lon="-5.6574730">
        <ele>585.0</ele>
        <time>2022-05-22T14:32:36Z</time>
      </trkpt>
      <trkpt lat="37.9930180" lon="-5.6574520">
        <ele>585.0</ele>
        <time>2022-05-22T14:32:38Z</time>
      </trkpt>
      <trkpt lat="37.9930110" lon="-5.6574390">
        <ele>585.0</ele>
        <time>2022-05-22T14:32:39Z</time>
      </trkpt>
      <trkpt lat="37.9930050" lon="-5.6574250">
        <ele>585.0</ele>
        <time>2022-05-22T14:32:40Z</time>
      </trkpt>
      <trkpt lat="37.9929990" lon="-5.6574150">
        <ele>585.0</ele>
        <time>2022-05-22T14:32:41Z</time>
      </trkpt>
      <trkpt lat="37.9929860" lon="-5.6573890">
        <ele>585.0</ele>
        <time>2022-05-22T14:32:42Z</time>
      </trkpt>
      <trkpt lat="37.9929800" lon="-5.6573780">
        <ele>585.0</ele>
        <time>2022-05-22T14:32:44Z</time>
      </trkpt>
      <trkpt lat="37.9929730" lon="-5.6573660">
        <ele>585.0</ele>
        <time>2022-05-22T14:32:45Z</time>
      </trkpt>
      <trkpt lat="37.9929670" lon="-5.6573540">
        <ele>585.0</ele>
        <time>2022-05-22T14:32:46Z</time>
      </trkpt>
      <trkpt lat="37.9929610" lon="-5.6573430">
        <ele>585.0</ele>
        <time>2022-05-22T14:32:47Z</time>
      </trkpt>
      <trkpt lat="37.9929550" lon="-5.6573320">
        <ele>585.0</ele>
        <time>2022-05-22T14:32:48Z</time>
      </trkpt>
      <trkpt lat="37.9929410" lon="-5.6573100">
        <ele>585.0</ele>
        <time>2022-05-22T14:32:50Z</time>
      </trkpt>
      <trkpt lat="37.9929320" lon="-5.6572960">
        <ele>585.0</ele>
        <time>2022-05-22T14:32:51Z</time>
      </trkpt>
      <trkpt lat="37.9929250" lon="-5.6572840">
        <ele>585.0</ele>
        <time>2022-05-22T14:32:52Z</time>
      </trkpt>
      <trkpt lat="37.9929140" lon="-5.6572600">
        <ele>585.0</ele>
        <time>2022-05-22T14:32:54Z</time>
      </trkpt>
      <trkpt lat="37.9929020" lon="-5.6572370">
        <ele>585.0</ele>
        <time>2022-05-22T14:32:55Z</time>
      </trkpt>
      <trkpt lat="37.9928970" lon="-5.6572290">
        <ele>585.0</ele>
        <time>2022-05-22T14:32:56Z</time>
      </trkpt>
      <trkpt lat="37.9928920" lon="-5.6572200">
        <ele>585.0</ele>
        <time>2022-05-22T14:32:57Z</time>
      </trkpt>
      <trkpt lat="37.9928850" lon="-5.6572100">
        <ele>585.0</ele>
        <time>2022-05-22T14:32:58Z</time>
      </trkpt>
      <trkpt lat="37.9928710" lon="-5.6571850">
        <ele>585.0</ele>
        <time>2022-05-22T14:33:00Z</time>
      </trkpt>
      <trkpt lat="37.9928640" lon="-5.6571730">
        <ele>585.0</ele>
        <time>2022-05-22T14:33:01Z</time>
      </trkpt>
      <trkpt lat="37.9928530" lon="-5.6571550">
        <ele>585.0</ele>
        <time>2022-05-22T14:33:02Z</time>
      </trkpt>
      <trkpt lat="37.9928450" lon="-5.6571420">
        <ele>585.0</ele>
        <time>2022-05-22T14:33:03Z</time>
      </trkpt>
      <trkpt lat="37.9928350" lon="-5.6571290">
        <ele>585.0</ele>
        <time>2022-05-22T14:33:04Z</time>
      </trkpt>
      <trkpt lat="37.9928110" lon="-5.6570910">
        <ele>585.0</ele>
        <time>2022-05-22T14:33:06Z</time>
      </trkpt>
      <trkpt lat="37.9928060" lon="-5.6570820">
        <ele>585.0</ele>
        <time>2022-05-22T14:33:07Z</time>
      </trkpt>
      <trkpt lat="37.9928000" lon="-5.6570720">
        <ele>585.0</ele>
        <time>2022-05-22T14:33:08Z</time>
      </trkpt>
      <trkpt lat="37.9927940" lon="-5.6570620">
        <ele>585.0</ele>
        <time>2022-05-22T14:33:09Z</time>
      </trkpt>
      <trkpt lat="37.9927800" lon="-5.6570350">
        <ele>585.0</ele>
        <time>2022-05-22T14:33:11Z</time>
      </trkpt>
      <trkpt lat="37.9927740" lon="-5.6570240">
        <ele>585.0</ele>
        <time>2022-05-22T14:33:12Z</time>
      </trkpt>
      <trkpt lat="37.9927650" lon="-5.6570130">
        <ele>585.0</ele>
        <time>2022-05-22T14:33:13Z</time>
      </trkpt>
      <trkpt lat="37.9927560" lon="-5.6570020">
        <ele>585.0</ele>
        <time>2022-05-22T14:33:14Z</time>
      </trkpt>
      <trkpt lat="37.9927420" lon="-5.6569820">
        <ele>585.0</ele>
        <time>2022-05-22T14:33:16Z</time>
      </trkpt>
      <trkpt lat="37.9927290" lon="-5.6569610">
        <ele>585.0</ele>
        <time>2022-05-22T14:33:17Z</time>
      </trkpt>
      <trkpt lat="37.9927240" lon="-5.6569540">
        <ele>585.0</ele>
        <time>2022-05-22T14:33:18Z</time>
      </trkpt>
      <trkpt lat="37.9927180" lon="-5.6569460">
        <ele>585.0</ele>
        <time>2022-05-22T14:33:19Z</time>
      </trkpt>
      <trkpt lat="37.9927040" lon="-5.6569290">
        <ele>585.0</ele>
        <time>2022-05-22T14:33:20Z</time>
      </trkpt>
      <trkpt lat="37.9926980" lon="-5.6569210">
        <ele>584.9</ele>
        <time>2022-05-22T14:33:21Z</time>
      </trkpt>
      <trkpt lat="37.9926920" lon="-5.6569130">
        <ele>584.9</ele>
        <time>2022-05-22T14:33:22Z</time>
      </trkpt>
      <trkpt lat="37.9926850" lon="-5.6569030">
        <ele>584.9</ele>
        <time>2022-05-22T14:33:23Z</time>
      </trkpt>
      <trkpt lat="37.9926790" lon="-5.6568910">
        <ele>584.9</ele>
        <time>2022-05-22T14:33:24Z</time>
      </trkpt>
      <trkpt lat="37.9926730" lon="-5.6568790">
        <ele>584.9</ele>
        <time>2022-05-22T14:33:25Z</time>
      </trkpt>
      <trkpt lat="37.9926670" lon="-5.6568690">
        <ele>584.9</ele>
        <time>2022-05-22T14:33:26Z</time>
      </trkpt>
      <trkpt lat="37.9926550" lon="-5.6568480">
        <ele>584.9</ele>
        <time>2022-05-22T14:33:28Z</time>
      </trkpt>
      <trkpt lat="37.9926460" lon="-5.6568360">
        <ele>584.9</ele>
        <time>2022-05-22T14:33:29Z</time>
      </trkpt>
      <trkpt lat="37.9926330" lon="-5.6568210">
        <ele>584.9</ele>
        <time>2022-05-22T14:33:30Z</time>
      </trkpt>
      <trkpt lat="37.9926220" lon="-5.6568030">
        <ele>584.9</ele>
        <time>2022-05-22T14:33:32Z</time>
      </trkpt>
      <trkpt lat="37.9926140" lon="-5.6567890">
        <ele>584.9</ele>
        <time>2022-05-22T14:33:33Z</time>
      </trkpt>
      <trkpt lat="37.9925960" lon="-5.6567590">
        <ele>584.9</ele>
        <time>2022-05-22T14:33:34Z</time>
      </trkpt>
      <trkpt lat="37.9925920" lon="-5.6567520">
        <ele>584.9</ele>
        <time>2022-05-22T14:33:35Z</time>
      </trkpt>
      <trkpt lat="37.9925810" lon="-5.6567170">
        <ele>584.9</ele>
        <time>2022-05-22T14:33:37Z</time>
      </trkpt>
      <trkpt lat="37.9925780" lon="-5.6567060">
        <ele>584.9</ele>
        <time>2022-05-22T14:33:38Z</time>
      </trkpt>
      <trkpt lat="37.9925730" lon="-5.6566900">
        <ele>584.9</ele>
        <time>2022-05-22T14:33:39Z</time>
      </trkpt>
      <trkpt lat="37.9925660" lon="-5.6566700">
        <ele>584.9</ele>
        <time>2022-05-22T14:33:40Z</time>
      </trkpt>
      <trkpt lat="37.9925580" lon="-5.6566460">
        <ele>584.9</ele>
        <time>2022-05-22T14:33:42Z</time>
      </trkpt>
      <trkpt lat="37.9925540" lon="-5.6566320">
        <ele>584.9</ele>
        <time>2022-05-22T14:33:43Z</time>
      </trkpt>
      <trkpt lat="37.9925500" lon="-5.6566170">
        <ele>584.9</ele>
        <time>2022-05-22T14:33:44Z</time>
      </trkpt>
      <trkpt lat="37.9925430" lon="-5.6565840">
        <ele>585.0</ele>
        <time>2022-05-22T14:33:46Z</time>
      </trkpt>
      <trkpt lat="37.9925420" lon="-5.6565710">
        <ele>585.0</ele>
        <time>2022-05-22T14:33:47Z</time>
      </trkpt>
      <trkpt lat="37.9925410" lon="-5.6565570">
        <ele>585.0</ele>
        <time>2022-05-22T14:33:48Z</time>
      </trkpt>
      <trkpt lat="37.9925390" lon="-5.6565420">
        <ele>585.0</ele>
        <time>2022-05-22T14:33:49Z</time>
      </trkpt>
      <trkpt lat="37.9925380" lon="-5.6565140">
        <ele>585.0</ele>
        <time>2022-05-22T14:33:50Z</time>
      </trkpt>
      <trkpt lat="37.9925370" lon="-5.6565030">
        <ele>585.0</ele>
        <time>2022-05-22T14:33:52Z</time>
      </trkpt>
      <trkpt lat="37.9925360" lon="-5.6564910">
        <ele>585.0</ele>
        <time>2022-05-22T14:33:53Z</time>
      </trkpt>
      <trkpt lat="37.9925370" lon="-5.6564820">
        <ele>585.0</ele>
        <time>2022-05-22T14:33:54Z</time>
      </trkpt>
      <trkpt lat="37.9925400" lon="-5.6564690">
        <ele>585.0</ele>
        <time>2022-05-22T14:33:55Z</time>
      </trkpt>
      <trkpt lat="37.9925400" lon="-5.6564550">
        <ele>585.0</ele>
        <time>2022-05-22T14:33:56Z</time>
      </trkpt>
      <trkpt lat="37.9925320" lon="-5.6564240">
        <ele>585.0</ele>
        <time>2022-05-22T14:33:57Z</time>
      </trkpt>
      <trkpt lat="37.9925270" lon="-5.6564110">
        <ele>585.0</ele>
        <time>2022-05-22T14:33:59Z</time>
      </trkpt>
      <trkpt lat="37.9925220" lon="-5.6563980">
        <ele>585.0</ele>
        <time>2022-05-22T14:34:00Z</time>
      </trkpt>
      <trkpt lat="37.9925170" lon="-5.6563840">
        <ele>585.0</ele>
        <time>2022-05-22T14:34:01Z</time>
      </trkpt>
      <trkpt lat="37.9925130" lon="-5.6563710">
        <ele>585.1</ele>
        <time>2022-05-22T14:34:02Z</time>
      </trkpt>
      <trkpt lat="37.9925030" lon="-5.6563550">
        <ele>585.1</ele>
        <time>2022-05-22T14:34:03Z</time>
      </trkpt>
      <trkpt lat="37.9924940" lon="-5.6563410">
        <ele>585.1</ele>
        <time>2022-05-22T14:34:04Z</time>
      </trkpt>
      <trkpt lat="37.9924880" lon="-5.6563270">
        <ele>585.1</ele>
        <time>2022-05-22T14:34:05Z</time>
      </trkpt>
      <trkpt lat="37.9924810" lon="-5.6563120">
        <ele>585.1</ele>
        <time>2022-05-22T14:34:06Z</time>
      </trkpt>
      <trkpt lat="37.9924730" lon="-5.6562940">
        <ele>585.1</ele>
        <time>2022-05-22T14:34:08Z</time>
      </trkpt>
      <trkpt lat="37.9924650" lon="-5.6562780">
        <ele>585.1</ele>
        <time>2022-05-22T14:34:09Z</time>
      </trkpt>
      <trkpt lat="37.9924560" lon="-5.6562590">
        <ele>585.1</ele>
        <time>2022-05-22T14:34:10Z</time>
      </trkpt>
      <trkpt lat="37.9924470" lon="-5.6562400">
        <ele>585.1</ele>
        <time>2022-05-22T14:34:11Z</time>
      </trkpt>
      <trkpt lat="37.9924360" lon="-5.6562220">
        <ele>585.1</ele>
        <time>2022-05-22T14:34:12Z</time>
      </trkpt>
      <trkpt lat="37.9924190" lon="-5.6561910">
        <ele>585.2</ele>
        <time>2022-05-22T14:34:14Z</time>
      </trkpt>
      <trkpt lat="37.9924120" lon="-5.6561760">
        <ele>585.2</ele>
        <time>2022-05-22T14:34:15Z</time>
      </trkpt>
      <trkpt lat="37.9924020" lon="-5.6561520">
        <ele>585.2</ele>
        <time>2022-05-22T14:34:16Z</time>
      </trkpt>
      <trkpt lat="37.9923990" lon="-5.6561410">
        <ele>585.2</ele>
        <time>2022-05-22T14:34:17Z</time>
      </trkpt>
      <trkpt lat="37.9923950" lon="-5.6561310">
        <ele>585.2</ele>
        <time>2022-05-22T14:34:18Z</time>
      </trkpt>
      <trkpt lat="37.9923900" lon="-5.6561130">
        <ele>585.2</ele>
        <time>2022-05-22T14:34:19Z</time>
      </trkpt>
      <trkpt lat="37.9923850" lon="-5.6560890">
        <ele>585.2</ele>
        <time>2022-05-22T14:34:20Z</time>
      </trkpt>
      <trkpt lat="37.9923800" lon="-5.6560620">
        <ele>585.2</ele>
        <time>2022-05-22T14:34:21Z</time>
      </trkpt>
      <trkpt lat="37.9923780" lon="-5.6560500">
        <ele>585.2</ele>
        <time>2022-05-22T14:34:22Z</time>
      </trkpt>
      <trkpt lat="37.9923750" lon="-5.6560380">
        <ele>585.1</ele>
        <time>2022-05-22T14:34:23Z</time>
      </trkpt>
      <trkpt lat="37.9923710" lon="-5.6560220">
        <ele>585.1</ele>
        <time>2022-05-22T14:34:25Z</time>
      </trkpt>
      <trkpt lat="37.9923650" lon="-5.6560010">
        <ele>585.1</ele>
        <time>2022-05-22T14:34:26Z</time>
      </trkpt>
      <trkpt lat="37.9923570" lon="-5.6559760">
        <ele>585.1</ele>
        <time>2022-05-22T14:34:27Z</time>
      </trkpt>
      <trkpt lat="37.9923540" lon="-5.6559650">
        <ele>585.1</ele>
        <time>2022-05-22T14:34:28Z</time>
      </trkpt>
      <trkpt lat="37.9923500" lon="-5.6559540">
        <ele>585.1</ele>
        <time>2022-05-22T14:34:29Z</time>
      </trkpt>
      <trkpt lat="37.9923410" lon="-5.6559320">
        <ele>585.1</ele>
        <time>2022-05-22T14:34:30Z</time>
      </trkpt>
      <trkpt lat="37.9923370" lon="-5.6559210">
        <ele>585.1</ele>
        <time>2022-05-22T14:34:31Z</time>
      </trkpt>
      <trkpt lat="37.9923330" lon="-5.6559110">
        <ele>585.1</ele>
        <time>2022-05-22T14:34:32Z</time>
      </trkpt>
      <trkpt lat="37.9923290" lon="-5.6559070">
        <ele>585.1</ele>
        <time>2022-05-22T14:34:33Z</time>
      </trkpt>
      <trkpt lat="37.9923240" lon="-5.6559040">
        <ele>585.1</ele>
        <time>2022-05-22T14:34:34Z</time>
      </trkpt>
      <trkpt lat="37.9923210" lon="-5.6558960">
        <ele>585.1</ele>
        <time>2022-05-22T14:34:35Z</time>
      </trkpt>
      <trkpt lat="37.9923160" lon="-5.6558840">
        <ele>585.1</ele>
        <time>2022-05-22T14:34:36Z</time>
      </trkpt>
      <trkpt lat="37.9923050" lon="-5.6558720">
        <ele>585.0</ele>
        <time>2022-05-22T14:34:38Z</time>
      </trkpt>
      <trkpt lat="37.9923000" lon="-5.6558680">
        <ele>585.0</ele>
        <time>2022-05-22T14:34:39Z</time>
      </trkpt>
      <trkpt lat="37.9922960" lon="-5.6558630">
        <ele>585.0</ele>
        <time>2022-05-22T14:34:40Z</time>
      </trkpt>
      <trkpt lat="37.9922960" lon="-5.6558540">
        <ele>585.0</ele>
        <time>2022-05-22T14:34:41Z</time>
      </trkpt>
      <trkpt lat="37.9923010" lon="-5.6558360">
        <ele>585.0</ele>
        <time>2022-05-22T14:34:43Z</time>
      </trkpt>
      <trkpt lat="37.9923020" lon="-5.6558120">
        <ele>585.0</ele>
        <time>2022-05-22T14:34:44Z</time>
      </trkpt>
      <trkpt lat="37.9923020" lon="-5.6557940">
        <ele>585.0</ele>
        <time>2022-05-22T14:34:45Z</time>
      </trkpt>
      <trkpt lat="37.9923010" lon="-5.6557600">
        <ele>585.0</ele>
        <time>2022-05-22T14:34:46Z</time>
      </trkpt>
      <trkpt lat="37.9923000" lon="-5.6557470">
        <ele>585.0</ele>
        <time>2022-05-22T14:34:47Z</time>
      </trkpt>
      <trkpt lat="37.9922950" lon="-5.6557190">
        <ele>585.0</ele>
        <time>2022-05-22T14:34:48Z</time>
      </trkpt>
      <trkpt lat="37.9922830" lon="-5.6556690">
        <ele>584.9</ele>
        <time>2022-05-22T14:34:50Z</time>
      </trkpt>
      <trkpt lat="37.9922770" lon="-5.6556460">
        <ele>584.9</ele>
        <time>2022-05-22T14:34:51Z</time>
      </trkpt>
      <trkpt lat="37.9922720" lon="-5.6556270">
        <ele>584.9</ele>
        <time>2022-05-22T14:34:52Z</time>
      </trkpt>
      <trkpt lat="37.9922620" lon="-5.6555840">
        <ele>584.9</ele>
        <time>2022-05-22T14:34:54Z</time>
      </trkpt>
      <trkpt lat="37.9922590" lon="-5.6555720">
        <ele>584.9</ele>
        <time>2022-05-22T14:34:55Z</time>
      </trkpt>
      <trkpt lat="37.9922550" lon="-5.6555550">
        <ele>584.9</ele>
        <time>2022-05-22T14:34:56Z</time>
      </trkpt>
      <trkpt lat="37.9922500" lon="-5.6555370">
        <ele>584.9</ele>
        <time>2022-05-22T14:34:57Z</time>
      </trkpt>
      <trkpt lat="37.9922470" lon="-5.6555150">
        <ele>584.9</ele>
        <time>2022-05-22T14:34:58Z</time>
      </trkpt>
      <trkpt lat="37.9922400" lon="-5.6554840">
        <ele>584.9</ele>
        <time>2022-05-22T14:35:00Z</time>
      </trkpt>
      <trkpt lat="37.9922350" lon="-5.6554570">
        <ele>584.9</ele>
        <time>2022-05-22T14:35:01Z</time>
      </trkpt>
      <trkpt lat="37.9922330" lon="-5.6554450">
        <ele>584.9</ele>
        <time>2022-05-22T14:35:02Z</time>
      </trkpt>
      <trkpt lat="37.9922310" lon="-5.6554330">
        <ele>584.9</ele>
        <time>2022-05-22T14:35:03Z</time>
      </trkpt>
      <trkpt lat="37.9922290" lon="-5.6554100">
        <ele>584.9</ele>
        <time>2022-05-22T14:35:04Z</time>
      </trkpt>
      <trkpt lat="37.9922280" lon="-5.6553890">
        <ele>584.9</ele>
        <time>2022-05-22T14:35:05Z</time>
      </trkpt>
      <trkpt lat="37.9922280" lon="-5.6553490">
        <ele>584.9</ele>
        <time>2022-05-22T14:35:07Z</time>
      </trkpt>
      <trkpt lat="37.9922280" lon="-5.6553400">
        <ele>584.9</ele>
        <time>2022-05-22T14:35:08Z</time>
      </trkpt>
      <trkpt lat="37.9922290" lon="-5.6553180">
        <ele>584.9</ele>
        <time>2022-05-22T14:35:09Z</time>
      </trkpt>
      <trkpt lat="37.9922290" lon="-5.6553000">
        <ele>585.0</ele>
        <time>2022-05-22T14:35:10Z</time>
      </trkpt>
      <trkpt lat="37.9922260" lon="-5.6552720">
        <ele>585.0</ele>
        <time>2022-05-22T14:35:11Z</time>
      </trkpt>
      <trkpt lat="37.9922240" lon="-5.6552580">
        <ele>585.0</ele>
        <time>2022-05-22T14:35:12Z</time>
      </trkpt>
      <trkpt lat="37.9922220" lon="-5.6552440">
        <ele>585.0</ele>
        <time>2022-05-22T14:35:13Z</time>
      </trkpt>
      <trkpt lat="37.9922180" lon="-5.6552230">
        <ele>585.0</ele>
        <time>2022-05-22T14:35:14Z</time>
      </trkpt>
      <trkpt lat="37.9922160" lon="-5.6552090">
        <ele>585.0</ele>
        <time>2022-05-22T14:35:15Z</time>
      </trkpt>
      <trkpt lat="37.9922130" lon="-5.6551860">
        <ele>585.0</ele>
        <time>2022-05-22T14:35:16Z</time>
      </trkpt>
      <trkpt lat="37.9922110" lon="-5.6551750">
        <ele>585.0</ele>
        <time>2022-05-22T14:35:17Z</time>
      </trkpt>
      <trkpt lat="37.9922090" lon="-5.6551640">
        <ele>585.1</ele>
        <time>2022-05-22T14:35:18Z</time>
      </trkpt>
      <trkpt lat="37.9922020" lon="-5.6551260">
        <ele>585.1</ele>
        <time>2022-05-22T14:35:20Z</time>
      </trkpt>
      <trkpt lat="37.9922010" lon="-5.6551150">
        <ele>585.1</ele>
        <time>2022-05-22T14:35:21Z</time>
      </trkpt>
      <trkpt lat="37.9922010" lon="-5.6550900">
        <ele>585.2</ele>
        <time>2022-05-22T14:35:22Z</time>
      </trkpt>
      <trkpt lat="37.9922020" lon="-5.6550800">
        <ele>585.2</ele>
        <time>2022-05-22T14:35:23Z</time>
      </trkpt>
      <trkpt lat="37.9922020" lon="-5.6550690">
        <ele>585.2</ele>
        <time>2022-05-22T14:35:24Z</time>
      </trkpt>
      <trkpt lat="37.9922050" lon="-5.6550550">
        <ele>585.2</ele>
        <time>2022-05-22T14:35:25Z</time>
      </trkpt>
      <trkpt lat="37.9922060" lon="-5.6550440">
        <ele>585.2</ele>
        <time>2022-05-22T14:35:26Z</time>
      </trkpt>
      <trkpt lat="37.9922040" lon="-5.6550240">
        <ele>585.2</ele>
        <time>2022-05-22T14:35:28Z</time>
      </trkpt>
      <trkpt lat="37.9922010" lon="-5.6549980">
        <ele>585.3</ele>
        <time>2022-05-22T14:35:29Z</time>
      </trkpt>
      <trkpt lat="37.9921990" lon="-5.6549810">
        <ele>585.3</ele>
        <time>2022-05-22T14:35:30Z</time>
      </trkpt>
      <trkpt lat="37.9921980" lon="-5.6549640">
        <ele>585.3</ele>
        <time>2022-05-22T14:35:32Z</time>
      </trkpt>
      <trkpt lat="37.9921970" lon="-5.6549510">
        <ele>585.3</ele>
        <time>2022-05-22T14:35:33Z</time>
      </trkpt>
      <trkpt lat="37.9921950" lon="-5.6549370">
        <ele>585.4</ele>
        <time>2022-05-22T14:35:34Z</time>
      </trkpt>
      <trkpt lat="37.9921950" lon="-5.6549160">
        <ele>585.4</ele>
        <time>2022-05-22T14:35:35Z</time>
      </trkpt>
      <trkpt lat="37.9921970" lon="-5.6549020">
        <ele>585.4</ele>
        <time>2022-05-22T14:35:36Z</time>
      </trkpt>
      <trkpt lat="37.9921980" lon="-5.6548890">
        <ele>585.4</ele>
        <time>2022-05-22T14:35:37Z</time>
      </trkpt>
      <trkpt lat="37.9921980" lon="-5.6548760">
        <ele>585.5</ele>
        <time>2022-05-22T14:35:38Z</time>
      </trkpt>
      <trkpt lat="37.9921970" lon="-5.6548630">
        <ele>585.5</ele>
        <time>2022-05-22T14:35:39Z</time>
      </trkpt>
      <trkpt lat="37.9921920" lon="-5.6548340">
        <ele>585.5</ele>
        <time>2022-05-22T14:35:40Z</time>
      </trkpt>
      <trkpt lat="37.9921900" lon="-5.6548210">
        <ele>585.6</ele>
        <time>2022-05-22T14:35:41Z</time>
      </trkpt>
      <trkpt lat="37.9921880" lon="-5.6548090">
        <ele>585.6</ele>
        <time>2022-05-22T14:35:42Z</time>
      </trkpt>
      <trkpt lat="37.9921850" lon="-5.6547930">
        <ele>585.6</ele>
        <time>2022-05-22T14:35:43Z</time>
      </trkpt>
      <trkpt lat="37.9921840" lon="-5.6547740">
        <ele>585.7</ele>
        <time>2022-05-22T14:35:45Z</time>
      </trkpt>
      <trkpt lat="37.9921840" lon="-5.6547580">
        <ele>585.7</ele>
        <time>2022-05-22T14:35:46Z</time>
      </trkpt>
      <trkpt lat="37.9921850" lon="-5.6547360">
        <ele>585.7</ele>
        <time>2022-05-22T14:35:47Z</time>
      </trkpt>
      <trkpt lat="37.9921870" lon="-5.6547180">
        <ele>585.8</ele>
        <time>2022-05-22T14:35:48Z</time>
      </trkpt>
      <trkpt lat="37.9921890" lon="-5.6547060">
        <ele>585.8</ele>
        <time>2022-05-22T14:35:49Z</time>
      </trkpt>
      <trkpt lat="37.9921910" lon="-5.6546930">
        <ele>585.8</ele>
        <time>2022-05-22T14:35:50Z</time>
      </trkpt>
      <trkpt lat="37.9921880" lon="-5.6546660">
        <ele>585.8</ele>
        <time>2022-05-22T14:35:51Z</time>
      </trkpt>
      <trkpt lat="37.9921870" lon="-5.6546560">
        <ele>585.8</ele>
        <time>2022-05-22T14:35:52Z</time>
      </trkpt>
      <trkpt lat="37.9921860" lon="-5.6546460">
        <ele>585.8</ele>
        <time>2022-05-22T14:35:53Z</time>
      </trkpt>
      <trkpt lat="37.9921840" lon="-5.6546270">
        <ele>585.8</ele>
        <time>2022-05-22T14:35:54Z</time>
      </trkpt>
      <trkpt lat="37.9921820" lon="-5.6546130">
        <ele>585.8</ele>
        <time>2022-05-22T14:35:55Z</time>
      </trkpt>
      <trkpt lat="37.9921790" lon="-5.6546030">
        <ele>585.8</ele>
        <time>2022-05-22T14:35:56Z</time>
      </trkpt>
      <trkpt lat="37.9921740" lon="-5.6545920">
        <ele>585.8</ele>
        <time>2022-05-22T14:35:57Z</time>
      </trkpt>
      <trkpt lat="37.9921690" lon="-5.6545780">
        <ele>585.8</ele>
        <time>2022-05-22T14:35:58Z</time>
      </trkpt>
      <trkpt lat="37.9921600" lon="-5.6545530">
        <ele>585.8</ele>
        <time>2022-05-22T14:36:00Z</time>
      </trkpt>
      <trkpt lat="37.9921570" lon="-5.6545430">
        <ele>585.8</ele>
        <time>2022-05-22T14:36:01Z</time>
      </trkpt>
      <trkpt lat="37.9921550" lon="-5.6545300">
        <ele>585.8</ele>
        <time>2022-05-22T14:36:02Z</time>
      </trkpt>
      <trkpt lat="37.9921540" lon="-5.6545170">
        <ele>585.8</ele>
        <time>2022-05-22T14:36:03Z</time>
      </trkpt>
      <trkpt lat="37.9921510" lon="-5.6544910">
        <ele>585.9</ele>
        <time>2022-05-22T14:36:04Z</time>
      </trkpt>
      <trkpt lat="37.9921490" lon="-5.6544790">
        <ele>585.9</ele>
        <time>2022-05-22T14:36:06Z</time>
      </trkpt>
      <trkpt lat="37.9921470" lon="-5.6544670">
        <ele>585.9</ele>
        <time>2022-05-22T14:36:07Z</time>
      </trkpt>
      <trkpt lat="37.9921440" lon="-5.6544430">
        <ele>585.9</ele>
        <time>2022-05-22T14:36:08Z</time>
      </trkpt>
      <trkpt lat="37.9921420" lon="-5.6544320">
        <ele>585.9</ele>
        <time>2022-05-22T14:36:09Z</time>
      </trkpt>
      <trkpt lat="37.9921410" lon="-5.6544220">
        <ele>585.9</ele>
        <time>2022-05-22T14:36:10Z</time>
      </trkpt>
      <trkpt lat="37.9921320" lon="-5.6543840">
        <ele>586.0</ele>
        <time>2022-05-22T14:36:12Z</time>
      </trkpt>
      <trkpt lat="37.9921290" lon="-5.6543760">
        <ele>586.0</ele>
        <time>2022-05-22T14:36:13Z</time>
      </trkpt>
      <trkpt lat="37.9921260" lon="-5.6543620">
        <ele>586.0</ele>
        <time>2022-05-22T14:36:14Z</time>
      </trkpt>
      <trkpt lat="37.9921230" lon="-5.6543460">
        <ele>586.0</ele>
        <time>2022-05-22T14:36:15Z</time>
      </trkpt>
      <trkpt lat="37.9921140" lon="-5.6543160">
        <ele>586.1</ele>
        <time>2022-05-22T14:36:17Z</time>
      </trkpt>
      <trkpt lat="37.9921060" lon="-5.6542920">
        <ele>586.1</ele>
        <time>2022-05-22T14:36:18Z</time>
      </trkpt>
      <trkpt lat="37.9921030" lon="-5.6542810">
        <ele>586.1</ele>
        <time>2022-05-22T14:36:19Z</time>
      </trkpt>
      <trkpt lat="37.9920990" lon="-5.6542710">
        <ele>586.1</ele>
        <time>2022-05-22T14:36:20Z</time>
      </trkpt>
      <trkpt lat="37.9920950" lon="-5.6542570">
        <ele>586.2</ele>
        <time>2022-05-22T14:36:21Z</time>
      </trkpt>
      <trkpt lat="37.9920870" lon="-5.6542270">
        <ele>586.2</ele>
        <time>2022-05-22T14:36:23Z</time>
      </trkpt>
      <trkpt lat="37.9920800" lon="-5.6542030">
        <ele>586.3</ele>
        <time>2022-05-22T14:36:24Z</time>
      </trkpt>
      <trkpt lat="37.9920780" lon="-5.6541930">
        <ele>586.3</ele>
        <time>2022-05-22T14:36:25Z</time>
      </trkpt>
      <trkpt lat="37.9920750" lon="-5.6541820">
        <ele>586.3</ele>
        <time>2022-05-22T14:36:26Z</time>
      </trkpt>
      <trkpt lat="37.9920650" lon="-5.6541430">
        <ele>586.4</ele>
        <time>2022-05-22T14:36:28Z</time>
      </trkpt>
      <trkpt lat="37.9920610" lon="-5.6541270">
        <ele>586.4</ele>
        <time>2022-05-22T14:36:29Z</time>
      </trkpt>
      <trkpt lat="37.9920560" lon="-5.6541090">
        <ele>586.4</ele>
        <time>2022-05-22T14:36:30Z</time>
      </trkpt>
      <trkpt lat="37.9920510" lon="-5.6540950">
        <ele>586.5</ele>
        <time>2022-05-22T14:36:31Z</time>
      </trkpt>
      <trkpt lat="37.9920450" lon="-5.6540760">
        <ele>586.5</ele>
        <time>2022-05-22T14:36:32Z</time>
      </trkpt>
      <trkpt lat="37.9920410" lon="-5.6540600">
        <ele>586.5</ele>
        <time>2022-05-22T14:36:33Z</time>
      </trkpt>
      <trkpt lat="37.9920340" lon="-5.6540390">
        <ele>586.6</ele>
        <time>2022-05-22T14:36:34Z</time>
      </trkpt>
      <trkpt lat="37.9920270" lon="-5.6540170">
        <ele>586.6</ele>
        <time>2022-05-22T14:36:35Z</time>
      </trkpt>
      <trkpt lat="37.9920240" lon="-5.6540060">
        <ele>586.6</ele>
        <time>2022-05-22T14:36:36Z</time>
      </trkpt>
      <trkpt lat="37.9920200" lon="-5.6539940">
        <ele>586.6</ele>
        <time>2022-05-22T14:36:37Z</time>
      </trkpt>
      <trkpt lat="37.9920110" lon="-5.6539650">
        <ele>586.7</ele>
        <time>2022-05-22T14:36:39Z</time>
      </trkpt>
      <trkpt lat="37.9920060" lon="-5.6539510">
        <ele>586.7</ele>
        <time>2022-05-22T14:36:40Z</time>
      </trkpt>
      <trkpt lat="37.9920030" lon="-5.6539410">
        <ele>586.7</ele>
        <time>2022-05-22T14:36:41Z</time>
      </trkpt>
      <trkpt lat="37.9920000" lon="-5.6539300">
        <ele>586.7</ele>
        <time>2022-05-22T14:36:42Z</time>
      </trkpt>
      <trkpt lat="37.9919970" lon="-5.6539160">
        <ele>586.8</ele>
        <time>2022-05-22T14:36:43Z</time>
      </trkpt>
      <trkpt lat="37.9919930" lon="-5.6539030">
        <ele>586.8</ele>
        <time>2022-05-22T14:36:44Z</time>
      </trkpt>
      <trkpt lat="37.9919880" lon="-5.6538870">
        <ele>586.8</ele>
        <time>2022-05-22T14:36:45Z</time>
      </trkpt>
      <trkpt lat="37.9919850" lon="-5.6538750">
        <ele>586.8</ele>
        <time>2022-05-22T14:36:46Z</time>
      </trkpt>
      <trkpt lat="37.9919800" lon="-5.6538630">
        <ele>586.9</ele>
        <time>2022-05-22T14:36:47Z</time>
      </trkpt>
      <trkpt lat="37.9919740" lon="-5.6538500">
        <ele>586.9</ele>
        <time>2022-05-22T14:36:48Z</time>
      </trkpt>
      <trkpt lat="37.9919680" lon="-5.6538360">
        <ele>586.9</ele>
        <time>2022-05-22T14:36:49Z</time>
      </trkpt>
      <trkpt lat="37.9919620" lon="-5.6538210">
        <ele>586.9</ele>
        <time>2022-05-22T14:36:50Z</time>
      </trkpt>
      <trkpt lat="37.9919540" lon="-5.6538030">
        <ele>587.0</ele>
        <time>2022-05-22T14:36:51Z</time>
      </trkpt>
      <trkpt lat="37.9919440" lon="-5.6537810">
        <ele>587.0</ele>
        <time>2022-05-22T14:36:52Z</time>
      </trkpt>
      <trkpt lat="37.9919390" lon="-5.6537720">
        <ele>587.0</ele>
        <time>2022-05-22T14:36:53Z</time>
      </trkpt>
      <trkpt lat="37.9919340" lon="-5.6537620">
        <ele>587.0</ele>
        <time>2022-05-22T14:36:54Z</time>
      </trkpt>
      <trkpt lat="37.9919220" lon="-5.6537390">
        <ele>587.1</ele>
        <time>2022-05-22T14:36:55Z</time>
      </trkpt>
      <trkpt lat="37.9919160" lon="-5.6537290">
        <ele>587.1</ele>
        <time>2022-05-22T14:36:56Z</time>
      </trkpt>
      <trkpt lat="37.9919110" lon="-5.6537200">
        <ele>587.1</ele>
        <time>2022-05-22T14:36:57Z</time>
      </trkpt>
      <trkpt lat="37.9919060" lon="-5.6537110">
        <ele>587.1</ele>
        <time>2022-05-22T14:36:58Z</time>
      </trkpt>
      <trkpt lat="37.9919010" lon="-5.6536990">
        <ele>587.1</ele>
        <time>2022-05-22T14:36:59Z</time>
      </trkpt>
      <trkpt lat="37.9918970" lon="-5.6536860">
        <ele>587.2</ele>
        <time>2022-05-22T14:37:00Z</time>
      </trkpt>
      <trkpt lat="37.9918930" lon="-5.6536720">
        <ele>587.2</ele>
        <time>2022-05-22T14:37:01Z</time>
      </trkpt>
      <trkpt lat="37.9918850" lon="-5.6536440">
        <ele>587.2</ele>
        <time>2022-05-22T14:37:03Z</time>
      </trkpt>
      <trkpt lat="37.9918780" lon="-5.6536390">
        <ele>587.2</ele>
        <time>2022-05-22T14:37:04Z</time>
      </trkpt>
      <trkpt lat="37.9918710" lon="-5.6536330">
        <ele>587.3</ele>
        <time>2022-05-22T14:37:05Z</time>
      </trkpt>
      <trkpt lat="37.9918640" lon="-5.6536280">
        <ele>587.3</ele>
        <time>2022-05-22T14:37:06Z</time>
      </trkpt>
      <trkpt lat="37.9918590" lon="-5.6536200">
        <ele>587.3</ele>
        <time>2022-05-22T14:37:07Z</time>
      </trkpt>
      <trkpt lat="37.9918520" lon="-5.6536070">
        <ele>587.3</ele>
        <time>2022-05-22T14:37:08Z</time>
      </trkpt>
      <trkpt lat="37.9918480" lon="-5.6535950">
        <ele>587.3</ele>
        <time>2022-05-22T14:37:09Z</time>
      </trkpt>
      <trkpt lat="37.9918470" lon="-5.6535790">
        <ele>587.3</ele>
        <time>2022-05-22T14:37:10Z</time>
      </trkpt>
      <trkpt lat="37.9918450" lon="-5.6535520">
        <ele>587.4</ele>
        <time>2022-05-22T14:37:11Z</time>
      </trkpt>
      <trkpt lat="37.9918450" lon="-5.6535400">
        <ele>587.4</ele>
        <time>2022-05-22T14:37:12Z</time>
      </trkpt>
      <trkpt lat="37.9918450" lon="-5.6535290">
        <ele>587.4</ele>
        <time>2022-05-22T14:37:13Z</time>
      </trkpt>
      <trkpt lat="37.9918470" lon="-5.6534910">
        <ele>587.5</ele>
        <time>2022-05-22T14:37:14Z</time>
      </trkpt>
      <trkpt lat="37.9918480" lon="-5.6534810">
        <ele>587.5</ele>
        <time>2022-05-22T14:37:15Z</time>
      </trkpt>
      <trkpt lat="37.9918580" lon="-5.6534460">
        <ele>587.5</ele>
        <time>2022-05-22T14:37:16Z</time>
      </trkpt>
      <trkpt lat="37.9918620" lon="-5.6534350">
        <ele>587.6</ele>
        <time>2022-05-22T14:37:17Z</time>
      </trkpt>
      <trkpt lat="37.9918700" lon="-5.6534090">
        <ele>587.6</ele>
        <time>2022-05-22T14:37:18Z</time>
      </trkpt>
      <trkpt lat="37.9918710" lon="-5.6533970">
        <ele>587.6</ele>
        <time>2022-05-22T14:37:20Z</time>
      </trkpt>
      <trkpt lat="37.9918730" lon="-5.6533850">
        <ele>587.6</ele>
        <time>2022-05-22T14:37:21Z</time>
      </trkpt>
      <trkpt lat="37.9918750" lon="-5.6533720">
        <ele>587.7</ele>
        <time>2022-05-22T14:37:22Z</time>
      </trkpt>
      <trkpt lat="37.9918770" lon="-5.6533600">
        <ele>587.7</ele>
        <time>2022-05-22T14:37:23Z</time>
      </trkpt>
      <trkpt lat="37.9918650" lon="-5.6533280">
        <ele>587.7</ele>
        <time>2022-05-22T14:37:24Z</time>
      </trkpt>
      <trkpt lat="37.9918600" lon="-5.6533170">
        <ele>587.7</ele>
        <time>2022-05-22T14:37:25Z</time>
      </trkpt>
      <trkpt lat="37.9918520" lon="-5.6533000">
        <ele>587.8</ele>
        <time>2022-05-22T14:37:26Z</time>
      </trkpt>
      <trkpt lat="37.9918410" lon="-5.6532830">
        <ele>587.8</ele>
        <time>2022-05-22T14:37:27Z</time>
      </trkpt>
      <trkpt lat="37.9918040" lon="-5.6532420">
        <ele>587.9</ele>
        <time>2022-05-22T14:37:29Z</time>
      </trkpt>
      <trkpt lat="37.9917920" lon="-5.6532320">
        <ele>587.9</ele>
        <time>2022-05-22T14:37:30Z</time>
      </trkpt>
      <trkpt lat="37.9917800" lon="-5.6532220">
        <ele>588.0</ele>
        <time>2022-05-22T14:37:31Z</time>
      </trkpt>
      <trkpt lat="37.9917690" lon="-5.6532130">
        <ele>588.0</ele>
        <time>2022-05-22T14:37:32Z</time>
      </trkpt>
      <trkpt lat="37.9917580" lon="-5.6532030">
        <ele>588.0</ele>
        <time>2022-05-22T14:37:33Z</time>
      </trkpt>
      <trkpt lat="37.9917340" lon="-5.6531830">
        <ele>588.1</ele>
        <time>2022-05-22T14:37:35Z</time>
      </trkpt>
      <trkpt lat="37.9917220" lon="-5.6531700">
        <ele>588.1</ele>
        <time>2022-05-22T14:37:36Z</time>
      </trkpt>
      <trkpt lat="37.9917120" lon="-5.6531570">
        <ele>588.1</ele>
        <time>2022-05-22T14:37:37Z</time>
      </trkpt>
      <trkpt lat="37.9916960" lon="-5.6531340">
        <ele>588.2</ele>
        <time>2022-05-22T14:37:38Z</time>
      </trkpt>
      <trkpt lat="37.9916900" lon="-5.6531220">
        <ele>588.2</ele>
        <time>2022-05-22T14:37:40Z</time>
      </trkpt>
      <trkpt lat="37.9916830" lon="-5.6531090">
        <ele>588.2</ele>
        <time>2022-05-22T14:37:41Z</time>
      </trkpt>
      <trkpt lat="37.9916760" lon="-5.6530970">
        <ele>588.2</ele>
        <time>2022-05-22T14:37:42Z</time>
      </trkpt>
      <trkpt lat="37.9916700" lon="-5.6530850">
        <ele>588.2</ele>
        <time>2022-05-22T14:37:43Z</time>
      </trkpt>
      <trkpt lat="37.9916660" lon="-5.6530760">
        <ele>588.2</ele>
        <time>2022-05-22T14:37:44Z</time>
      </trkpt>
      <trkpt lat="37.9916610" lon="-5.6530660">
        <ele>588.3</ele>
        <time>2022-05-22T14:37:45Z</time>
      </trkpt>
      <trkpt lat="37.9916550" lon="-5.6530550">
        <ele>588.3</ele>
        <time>2022-05-22T14:37:46Z</time>
      </trkpt>
      <trkpt lat="37.9916490" lon="-5.6530440">
        <ele>588.3</ele>
        <time>2022-05-22T14:37:47Z</time>
      </trkpt>
      <trkpt lat="37.9916410" lon="-5.6530290">
        <ele>588.3</ele>
        <time>2022-05-22T14:37:48Z</time>
      </trkpt>
      <trkpt lat="37.9916330" lon="-5.6530120">
        <ele>588.3</ele>
        <time>2022-05-22T14:37:50Z</time>
      </trkpt>
      <trkpt lat="37.9916280" lon="-5.6530030">
        <ele>588.4</ele>
        <time>2022-05-22T14:37:51Z</time>
      </trkpt>
      <trkpt lat="37.9916220" lon="-5.6529900">
        <ele>588.4</ele>
        <time>2022-05-22T14:37:52Z</time>
      </trkpt>
      <trkpt lat="37.9916150" lon="-5.6529770">
        <ele>588.4</ele>
        <time>2022-05-22T14:37:53Z</time>
      </trkpt>
      <trkpt lat="37.9916010" lon="-5.6529450">
        <ele>588.4</ele>
        <time>2022-05-22T14:37:54Z</time>
      </trkpt>
      <trkpt lat="37.9915970" lon="-5.6529330">
        <ele>588.5</ele>
        <time>2022-05-22T14:37:56Z</time>
      </trkpt>
      <trkpt lat="37.9915920" lon="-5.6529200">
        <ele>588.5</ele>
        <time>2022-05-22T14:37:57Z</time>
      </trkpt>
      <trkpt lat="37.9915880" lon="-5.6529080">
        <ele>588.5</ele>
        <time>2022-05-22T14:37:58Z</time>
      </trkpt>
      <trkpt lat="37.9915830" lon="-5.6528960">
        <ele>588.5</ele>
        <time>2022-05-22T14:37:59Z</time>
      </trkpt>
      <trkpt lat="37.9915750" lon="-5.6528750">
        <ele>588.5</ele>
        <time>2022-05-22T14:38:00Z</time>
      </trkpt>
      <trkpt lat="37.9915680" lon="-5.6528580">
        <ele>588.6</ele>
        <time>2022-05-22T14:38:01Z</time>
      </trkpt>
      <trkpt lat="37.9915570" lon="-5.6528340">
        <ele>588.6</ele>
        <time>2022-05-22T14:38:02Z</time>
      </trkpt>
      <trkpt lat="37.9915520" lon="-5.6528230">
        <ele>588.6</ele>
        <time>2022-05-22T14:38:03Z</time>
      </trkpt>
      <trkpt lat="37.9915470" lon="-5.6528120">
        <ele>588.6</ele>
        <time>2022-05-22T14:38:04Z</time>
      </trkpt>
      <trkpt lat="37.9915380" lon="-5.6527930">
        <ele>588.7</ele>
        <time>2022-05-22T14:38:05Z</time>
      </trkpt>
      <trkpt lat="37.9915330" lon="-5.6527790">
        <ele>588.7</ele>
        <time>2022-05-22T14:38:06Z</time>
      </trkpt>
      <trkpt lat="37.9915240" lon="-5.6527540">
        <ele>588.7</ele>
        <time>2022-05-22T14:38:07Z</time>
      </trkpt>
      <trkpt lat="37.9915210" lon="-5.6527440">
        <ele>588.7</ele>
        <time>2022-05-22T14:38:08Z</time>
      </trkpt>
      <trkpt lat="37.9915180" lon="-5.6527340">
        <ele>588.8</ele>
        <time>2022-05-22T14:38:09Z</time>
      </trkpt>
      <trkpt lat="37.9915130" lon="-5.6527190">
        <ele>588.8</ele>
        <time>2022-05-22T14:38:10Z</time>
      </trkpt>
      <trkpt lat="37.9915070" lon="-5.6526990">
        <ele>588.8</ele>
        <time>2022-05-22T14:38:11Z</time>
      </trkpt>
      <trkpt lat="37.9914990" lon="-5.6526750">
        <ele>588.9</ele>
        <time>2022-05-22T14:38:12Z</time>
      </trkpt>
      <trkpt lat="37.9914950" lon="-5.6526640">
        <ele>588.9</ele>
        <time>2022-05-22T14:38:13Z</time>
      </trkpt>
      <trkpt lat="37.9914910" lon="-5.6526530">
        <ele>588.9</ele>
        <time>2022-05-22T14:38:14Z</time>
      </trkpt>
      <trkpt lat="37.9914750" lon="-5.6526180">
        <ele>589.0</ele>
        <time>2022-05-22T14:38:16Z</time>
      </trkpt>
      <trkpt lat="37.9914680" lon="-5.6526050">
        <ele>589.0</ele>
        <time>2022-05-22T14:38:17Z</time>
      </trkpt>
      <trkpt lat="37.9914610" lon="-5.6525930">
        <ele>589.0</ele>
        <time>2022-05-22T14:38:18Z</time>
      </trkpt>
      <trkpt lat="37.9914540" lon="-5.6525800">
        <ele>589.1</ele>
        <time>2022-05-22T14:38:19Z</time>
      </trkpt>
      <trkpt lat="37.9914460" lon="-5.6525610">
        <ele>589.1</ele>
        <time>2022-05-22T14:38:21Z</time>
      </trkpt>
      <trkpt lat="37.9914360" lon="-5.6525360">
        <ele>589.1</ele>
        <time>2022-05-22T14:38:22Z</time>
      </trkpt>
      <trkpt lat="37.9914310" lon="-5.6525250">
        <ele>589.2</ele>
        <time>2022-05-22T14:38:23Z</time>
      </trkpt>
      <trkpt lat="37.9914220" lon="-5.6525090">
        <ele>589.2</ele>
        <time>2022-05-22T14:38:25Z</time>
      </trkpt>
      <trkpt lat="37.9914150" lon="-5.6524960">
        <ele>589.2</ele>
        <time>2022-05-22T14:38:26Z</time>
      </trkpt>
      <trkpt lat="37.9914070" lon="-5.6524800">
        <ele>589.3</ele>
        <time>2022-05-22T14:38:27Z</time>
      </trkpt>
      <trkpt lat="37.9913980" lon="-5.6524600">
        <ele>589.3</ele>
        <time>2022-05-22T14:38:28Z</time>
      </trkpt>
      <trkpt lat="37.9913870" lon="-5.6524370">
        <ele>589.3</ele>
        <time>2022-05-22T14:38:29Z</time>
      </trkpt>
      <trkpt lat="37.9913830" lon="-5.6524280">
        <ele>589.4</ele>
        <time>2022-05-22T14:38:30Z</time>
      </trkpt>
      <trkpt lat="37.9913780" lon="-5.6524190">
        <ele>589.4</ele>
        <time>2022-05-22T14:38:31Z</time>
      </trkpt>
      <trkpt lat="37.9913690" lon="-5.6523960">
        <ele>589.4</ele>
        <time>2022-05-22T14:38:32Z</time>
      </trkpt>
      <trkpt lat="37.9913650" lon="-5.6523850">
        <ele>589.5</ele>
        <time>2022-05-22T14:38:33Z</time>
      </trkpt>
      <trkpt lat="37.9913610" lon="-5.6523740">
        <ele>589.5</ele>
        <time>2022-05-22T14:38:34Z</time>
      </trkpt>
      <trkpt lat="37.9913550" lon="-5.6523590">
        <ele>589.5</ele>
        <time>2022-05-22T14:38:35Z</time>
      </trkpt>
      <trkpt lat="37.9913480" lon="-5.6523410">
        <ele>589.5</ele>
        <time>2022-05-22T14:38:36Z</time>
      </trkpt>
      <trkpt lat="37.9913440" lon="-5.6523240">
        <ele>589.6</ele>
        <time>2022-05-22T14:38:37Z</time>
      </trkpt>
      <trkpt lat="37.9913400" lon="-5.6523070">
        <ele>589.6</ele>
        <time>2022-05-22T14:38:38Z</time>
      </trkpt>
      <trkpt lat="37.9913350" lon="-5.6522850">
        <ele>589.7</ele>
        <time>2022-05-22T14:38:39Z</time>
      </trkpt>
      <trkpt lat="37.9913290" lon="-5.6522660">
        <ele>589.7</ele>
        <time>2022-05-22T14:38:41Z</time>
      </trkpt>
      <trkpt lat="37.9913210" lon="-5.6522470">
        <ele>589.8</ele>
        <time>2022-05-22T14:38:42Z</time>
      </trkpt>
      <trkpt lat="37.9913150" lon="-5.6522330">
        <ele>589.8</ele>
        <time>2022-05-22T14:38:43Z</time>
      </trkpt>
      <trkpt lat="37.9913040" lon="-5.6522050">
        <ele>589.9</ele>
        <time>2022-05-22T14:38:44Z</time>
      </trkpt>
      <trkpt lat="37.9912990" lon="-5.6521920">
        <ele>589.9</ele>
        <time>2022-05-22T14:38:46Z</time>
      </trkpt>
      <trkpt lat="37.9912940" lon="-5.6521790">
        <ele>589.9</ele>
        <time>2022-05-22T14:38:47Z</time>
      </trkpt>
      <trkpt lat="37.9912890" lon="-5.6521670">
        <ele>590.0</ele>
        <time>2022-05-22T14:38:48Z</time>
      </trkpt>
      <trkpt lat="37.9912830" lon="-5.6521540">
        <ele>590.0</ele>
        <time>2022-05-22T14:38:49Z</time>
      </trkpt>
      <trkpt lat="37.9912780" lon="-5.6521380">
        <ele>590.0</ele>
        <time>2022-05-22T14:38:50Z</time>
      </trkpt>
      <trkpt lat="37.9912720" lon="-5.6521210">
        <ele>590.1</ele>
        <time>2022-05-22T14:38:51Z</time>
      </trkpt>
      <trkpt lat="37.9912640" lon="-5.6521000">
        <ele>590.1</ele>
        <time>2022-05-22T14:38:52Z</time>
      </trkpt>
      <trkpt lat="37.9912600" lon="-5.6520890">
        <ele>590.1</ele>
        <time>2022-05-22T14:38:53Z</time>
      </trkpt>
      <trkpt lat="37.9912560" lon="-5.6520790">
        <ele>590.1</ele>
        <time>2022-05-22T14:38:54Z</time>
      </trkpt>
      <trkpt lat="37.9912490" lon="-5.6520680">
        <ele>590.2</ele>
        <time>2022-05-22T14:38:55Z</time>
      </trkpt>
      <trkpt lat="37.9912380" lon="-5.6520490">
        <ele>590.2</ele>
        <time>2022-05-22T14:38:57Z</time>
      </trkpt>
      <trkpt lat="37.9912250" lon="-5.6520310">
        <ele>590.2</ele>
        <time>2022-05-22T14:38:58Z</time>
      </trkpt>
      <trkpt lat="37.9912170" lon="-5.6520180">
        <ele>590.3</ele>
        <time>2022-05-22T14:38:59Z</time>
      </trkpt>
      <trkpt lat="37.9912080" lon="-5.6520060">
        <ele>590.3</ele>
        <time>2022-05-22T14:39:00Z</time>
      </trkpt>
      <trkpt lat="37.9911980" lon="-5.6519900">
        <ele>590.3</ele>
        <time>2022-05-22T14:39:02Z</time>
      </trkpt>
      <trkpt lat="37.9911890" lon="-5.6519730">
        <ele>590.3</ele>
        <time>2022-05-22T14:39:03Z</time>
      </trkpt>
      <trkpt lat="37.9911830" lon="-5.6519610">
        <ele>590.4</ele>
        <time>2022-05-22T14:39:04Z</time>
      </trkpt>
      <trkpt lat="37.9911720" lon="-5.6519400">
        <ele>590.4</ele>
        <time>2022-05-22T14:39:05Z</time>
      </trkpt>
      <trkpt lat="37.9911660" lon="-5.6519280">
        <ele>590.4</ele>
        <time>2022-05-22T14:39:06Z</time>
      </trkpt>
      <trkpt lat="37.9911550" lon="-5.6519070">
        <ele>590.4</ele>
        <time>2022-05-22T14:39:07Z</time>
      </trkpt>
      <trkpt lat="37.9911510" lon="-5.6518980">
        <ele>590.4</ele>
        <time>2022-05-22T14:39:08Z</time>
      </trkpt>
      <trkpt lat="37.9911470" lon="-5.6518890">
        <ele>590.5</ele>
        <time>2022-05-22T14:39:09Z</time>
      </trkpt>
      <trkpt lat="37.9911420" lon="-5.6518770">
        <ele>590.5</ele>
        <time>2022-05-22T14:39:10Z</time>
      </trkpt>
      <trkpt lat="37.9911370" lon="-5.6518640">
        <ele>590.5</ele>
        <time>2022-05-22T14:39:11Z</time>
      </trkpt>
      <trkpt lat="37.9911330" lon="-5.6518500">
        <ele>590.5</ele>
        <time>2022-05-22T14:39:12Z</time>
      </trkpt>
      <trkpt lat="37.9911240" lon="-5.6518210">
        <ele>590.5</ele>
        <time>2022-05-22T14:39:14Z</time>
      </trkpt>
      <trkpt lat="37.9911200" lon="-5.6518090">
        <ele>590.5</ele>
        <time>2022-05-22T14:39:15Z</time>
      </trkpt>
      <trkpt lat="37.9911160" lon="-5.6517970">
        <ele>590.6</ele>
        <time>2022-05-22T14:39:16Z</time>
      </trkpt>
      <trkpt lat="37.9911120" lon="-5.6517820">
        <ele>590.6</ele>
        <time>2022-05-22T14:39:17Z</time>
      </trkpt>
      <trkpt lat="37.9911090" lon="-5.6517700">
        <ele>590.6</ele>
        <time>2022-05-22T14:39:18Z</time>
      </trkpt>
      <trkpt lat="37.9911040" lon="-5.6517480">
        <ele>590.6</ele>
        <time>2022-05-22T14:39:20Z</time>
      </trkpt>
      <trkpt lat="37.9910980" lon="-5.6517210">
        <ele>590.6</ele>
        <time>2022-05-22T14:39:21Z</time>
      </trkpt>
      <trkpt lat="37.9910950" lon="-5.6517050">
        <ele>590.7</ele>
        <time>2022-05-22T14:39:22Z</time>
      </trkpt>
      <trkpt lat="37.9910930" lon="-5.6516900">
        <ele>590.7</ele>
        <time>2022-05-22T14:39:23Z</time>
      </trkpt>
      <trkpt lat="37.9910890" lon="-5.6516740">
        <ele>590.7</ele>
        <time>2022-05-22T14:39:24Z</time>
      </trkpt>
      <trkpt lat="37.9910790" lon="-5.6516380">
        <ele>590.7</ele>
        <time>2022-05-22T14:39:26Z</time>
      </trkpt>
      <trkpt lat="37.9910770" lon="-5.6516110">
        <ele>590.8</ele>
        <time>2022-05-22T14:39:27Z</time>
      </trkpt>
      <trkpt lat="37.9910760" lon="-5.6516010">
        <ele>590.8</ele>
        <time>2022-05-22T14:39:28Z</time>
      </trkpt>
      <trkpt lat="37.9910760" lon="-5.6515910">
        <ele>590.8</ele>
        <time>2022-05-22T14:39:29Z</time>
      </trkpt>
      <trkpt lat="37.9910740" lon="-5.6515390">
        <ele>590.8</ele>
        <time>2022-05-22T14:39:31Z</time>
      </trkpt>
      <trkpt lat="37.9910730" lon="-5.6515280">
        <ele>590.8</ele>
        <time>2022-05-22T14:39:32Z</time>
      </trkpt>
      <trkpt lat="37.9910730" lon="-5.6515160">
        <ele>590.8</ele>
        <time>2022-05-22T14:39:33Z</time>
      </trkpt>
      <trkpt lat="37.9910720" lon="-5.6515040">
        <ele>590.9</ele>
        <time>2022-05-22T14:39:34Z</time>
      </trkpt>
      <trkpt lat="37.9910710" lon="-5.6514880">
        <ele>590.9</ele>
        <time>2022-05-22T14:39:35Z</time>
      </trkpt>
      <trkpt lat="37.9910680" lon="-5.6514640">
        <ele>590.9</ele>
        <time>2022-05-22T14:39:36Z</time>
      </trkpt>
      <trkpt lat="37.9910640" lon="-5.6514400">
        <ele>590.9</ele>
        <time>2022-05-22T14:39:37Z</time>
      </trkpt>
      <trkpt lat="37.9910620" lon="-5.6514300">
        <ele>590.9</ele>
        <time>2022-05-22T14:39:38Z</time>
      </trkpt>
      <trkpt lat="37.9910610" lon="-5.6514190">
        <ele>590.9</ele>
        <time>2022-05-22T14:39:39Z</time>
      </trkpt>
      <trkpt lat="37.9910560" lon="-5.6513900">
        <ele>590.9</ele>
        <time>2022-05-22T14:39:40Z</time>
      </trkpt>
      <trkpt lat="37.9910530" lon="-5.6513760">
        <ele>590.9</ele>
        <time>2022-05-22T14:39:41Z</time>
      </trkpt>
      <trkpt lat="37.9910510" lon="-5.6513620">
        <ele>591.0</ele>
        <time>2022-05-22T14:39:42Z</time>
      </trkpt>
      <trkpt lat="37.9910470" lon="-5.6513470">
        <ele>591.0</ele>
        <time>2022-05-22T14:39:43Z</time>
      </trkpt>
      <trkpt lat="37.9910420" lon="-5.6513230">
        <ele>591.0</ele>
        <time>2022-05-22T14:39:45Z</time>
      </trkpt>
      <trkpt lat="37.9910380" lon="-5.6513060">
        <ele>591.0</ele>
        <time>2022-05-22T14:39:46Z</time>
      </trkpt>
      <trkpt lat="37.9910340" lon="-5.6512890">
        <ele>591.0</ele>
        <time>2022-05-22T14:39:47Z</time>
      </trkpt>
      <trkpt lat="37.9910290" lon="-5.6512720">
        <ele>591.0</ele>
        <time>2022-05-22T14:39:48Z</time>
      </trkpt>
      <trkpt lat="37.9910240" lon="-5.6512540">
        <ele>591.0</ele>
        <time>2022-05-22T14:39:50Z</time>
      </trkpt>
      <trkpt lat="37.9910210" lon="-5.6512390">
        <ele>591.0</ele>
        <time>2022-05-22T14:39:51Z</time>
      </trkpt>
      <trkpt lat="37.9910190" lon="-5.6512260">
        <ele>591.0</ele>
        <time>2022-05-22T14:39:52Z</time>
      </trkpt>
      <trkpt lat="37.9910160" lon="-5.6512130">
        <ele>591.0</ele>
        <time>2022-05-22T14:39:53Z</time>
      </trkpt>
      <trkpt lat="37.9910130" lon="-5.6511970">
        <ele>591.1</ele>
        <time>2022-05-22T14:39:54Z</time>
      </trkpt>
      <trkpt lat="37.9910100" lon="-5.6511850">
        <ele>591.1</ele>
        <time>2022-05-22T14:39:55Z</time>
      </trkpt>
      <trkpt lat="37.9910070" lon="-5.6511710">
        <ele>591.1</ele>
        <time>2022-05-22T14:39:56Z</time>
      </trkpt>
      <trkpt lat="37.9910040" lon="-5.6511560">
        <ele>591.1</ele>
        <time>2022-05-22T14:39:57Z</time>
      </trkpt>
      <trkpt lat="37.9910020" lon="-5.6511410">
        <ele>591.1</ele>
        <time>2022-05-22T14:39:58Z</time>
      </trkpt>
      <trkpt lat="37.9910000" lon="-5.6511230">
        <ele>591.1</ele>
        <time>2022-05-22T14:40:00Z</time>
      </trkpt>
      <trkpt lat="37.9909980" lon="-5.6511090">
        <ele>591.1</ele>
        <time>2022-05-22T14:40:01Z</time>
      </trkpt>
      <trkpt lat="37.9909940" lon="-5.6510850">
        <ele>591.1</ele>
        <time>2022-05-22T14:40:02Z</time>
      </trkpt>
      <trkpt lat="37.9909920" lon="-5.6510700">
        <ele>591.1</ele>
        <time>2022-05-22T14:40:03Z</time>
      </trkpt>
      <trkpt lat="37.9909890" lon="-5.6510570">
        <ele>591.1</ele>
        <time>2022-05-22T14:40:04Z</time>
      </trkpt>
      <trkpt lat="37.9909820" lon="-5.6510270">
        <ele>591.1</ele>
        <time>2022-05-22T14:40:06Z</time>
      </trkpt>
      <trkpt lat="37.9909790" lon="-5.6510130">
        <ele>591.1</ele>
        <time>2022-05-22T14:40:07Z</time>
      </trkpt>
      <trkpt lat="37.9909740" lon="-5.6509970">
        <ele>591.1</ele>
        <time>2022-05-22T14:40:08Z</time>
      </trkpt>
      <trkpt lat="37.9909700" lon="-5.6509840">
        <ele>591.1</ele>
        <time>2022-05-22T14:40:09Z</time>
      </trkpt>
      <trkpt lat="37.9909660" lon="-5.6509700">
        <ele>591.1</ele>
        <time>2022-05-22T14:40:10Z</time>
      </trkpt>
      <trkpt lat="37.9909580" lon="-5.6509330">
        <ele>591.1</ele>
        <time>2022-05-22T14:40:12Z</time>
      </trkpt>
      <trkpt lat="37.9909530" lon="-5.6509060">
        <ele>591.1</ele>
        <time>2022-05-22T14:40:14Z</time>
      </trkpt>
      <trkpt lat="37.9909500" lon="-5.6508890">
        <ele>591.1</ele>
        <time>2022-05-22T14:40:15Z</time>
      </trkpt>
      <trkpt lat="37.9909460" lon="-5.6508720">
        <ele>591.1</ele>
        <time>2022-05-22T14:40:16Z</time>
      </trkpt>
      <trkpt lat="37.9909400" lon="-5.6508490">
        <ele>591.1</ele>
        <time>2022-05-22T14:40:17Z</time>
      </trkpt>
      <trkpt lat="37.9909370" lon="-5.6508330">
        <ele>591.1</ele>
        <time>2022-05-22T14:40:18Z</time>
      </trkpt>
      <trkpt lat="37.9909340" lon="-5.6508140">
        <ele>591.1</ele>
        <time>2022-05-22T14:40:19Z</time>
      </trkpt>
      <trkpt lat="37.9909330" lon="-5.6507930">
        <ele>591.1</ele>
        <time>2022-05-22T14:40:20Z</time>
      </trkpt>
      <trkpt lat="37.9909300" lon="-5.6507740">
        <ele>591.1</ele>
        <time>2022-05-22T14:40:21Z</time>
      </trkpt>
      <trkpt lat="37.9909200" lon="-5.6507400">
        <ele>591.1</ele>
        <time>2022-05-22T14:40:23Z</time>
      </trkpt>
      <trkpt lat="37.9909150" lon="-5.6507240">
        <ele>591.1</ele>
        <time>2022-05-22T14:40:24Z</time>
      </trkpt>
      <trkpt lat="37.9909080" lon="-5.6507010">
        <ele>591.1</ele>
        <time>2022-05-22T14:40:25Z</time>
      </trkpt>
      <trkpt lat="37.9909020" lon="-5.6506820">
        <ele>591.1</ele>
        <time>2022-05-22T14:40:26Z</time>
      </trkpt>
      <trkpt lat="37.9908960" lon="-5.6506630">
        <ele>591.1</ele>
        <time>2022-05-22T14:40:27Z</time>
      </trkpt>
      <trkpt lat="37.9908880" lon="-5.6506280">
        <ele>591.1</ele>
        <time>2022-05-22T14:40:29Z</time>
      </trkpt>
      <trkpt lat="37.9908850" lon="-5.6506180">
        <ele>591.1</ele>
        <time>2022-05-22T14:40:30Z</time>
      </trkpt>
      <trkpt lat="37.9908760" lon="-5.6505820">
        <ele>591.1</ele>
        <time>2022-05-22T14:40:31Z</time>
      </trkpt>
      <trkpt lat="37.9908740" lon="-5.6505730">
        <ele>591.1</ele>
        <time>2022-05-22T14:40:32Z</time>
      </trkpt>
      <trkpt lat="37.9908650" lon="-5.6505390">
        <ele>591.1</ele>
        <time>2022-05-22T14:40:34Z</time>
      </trkpt>
      <trkpt lat="37.9908620" lon="-5.6505270">
        <ele>591.1</ele>
        <time>2022-05-22T14:40:35Z</time>
      </trkpt>
      <trkpt lat="37.9908570" lon="-5.6505030">
        <ele>591.1</ele>
        <time>2022-05-22T14:40:36Z</time>
      </trkpt>
      <trkpt lat="37.9908510" lon="-5.6504850">
        <ele>591.1</ele>
        <time>2022-05-22T14:40:37Z</time>
      </trkpt>
      <trkpt lat="37.9908390" lon="-5.6504600">
        <ele>591.1</ele>
        <time>2022-05-22T14:40:38Z</time>
      </trkpt>
      <trkpt lat="37.9908320" lon="-5.6504490">
        <ele>591.1</ele>
        <time>2022-05-22T14:40:39Z</time>
      </trkpt>
      <trkpt lat="37.9908260" lon="-5.6504380">
        <ele>591.1</ele>
        <time>2022-05-22T14:40:40Z</time>
      </trkpt>
      <trkpt lat="37.9908170" lon="-5.6504220">
        <ele>591.1</ele>
        <time>2022-05-22T14:40:41Z</time>
      </trkpt>
      <trkpt lat="37.9908090" lon="-5.6504070">
        <ele>591.1</ele>
        <time>2022-05-22T14:40:42Z</time>
      </trkpt>
      <trkpt lat="37.9908020" lon="-5.6503930">
        <ele>591.1</ele>
        <time>2022-05-22T14:40:43Z</time>
      </trkpt>
      <trkpt lat="37.9907940" lon="-5.6503780">
        <ele>591.1</ele>
        <time>2022-05-22T14:40:44Z</time>
      </trkpt>
      <trkpt lat="37.9907770" lon="-5.6503440">
        <ele>591.1</ele>
        <time>2022-05-22T14:40:46Z</time>
      </trkpt>
      <trkpt lat="37.9907730" lon="-5.6503340">
        <ele>591.1</ele>
        <time>2022-05-22T14:40:47Z</time>
      </trkpt>
      <trkpt lat="37.9907700" lon="-5.6503270">
        <ele>591.1</ele>
        <time>2022-05-22T14:40:48Z</time>
      </trkpt>
      <trkpt lat="37.9907650" lon="-5.6503150">
        <ele>591.1</ele>
        <time>2022-05-22T14:40:49Z</time>
      </trkpt>
      <trkpt lat="37.9907610" lon="-5.6503000">
        <ele>591.1</ele>
        <time>2022-05-22T14:40:50Z</time>
      </trkpt>
      <trkpt lat="37.9907540" lon="-5.6502730">
        <ele>591.1</ele>
        <time>2022-05-22T14:40:51Z</time>
      </trkpt>
      <trkpt lat="37.9907520" lon="-5.6502630">
        <ele>591.1</ele>
        <time>2022-05-22T14:40:52Z</time>
      </trkpt>
      <trkpt lat="37.9907490" lon="-5.6502530">
        <ele>591.1</ele>
        <time>2022-05-22T14:40:53Z</time>
      </trkpt>
      <trkpt lat="37.9907440" lon="-5.6502260">
        <ele>591.1</ele>
        <time>2022-05-22T14:40:54Z</time>
      </trkpt>
      <trkpt lat="37.9907420" lon="-5.6502140">
        <ele>591.1</ele>
        <time>2022-05-22T14:40:55Z</time>
      </trkpt>
      <trkpt lat="37.9907400" lon="-5.6502030">
        <ele>591.0</ele>
        <time>2022-05-22T14:40:56Z</time>
      </trkpt>
      <trkpt lat="37.9907380" lon="-5.6501820">
        <ele>591.0</ele>
        <time>2022-05-22T14:40:57Z</time>
      </trkpt>
      <trkpt lat="37.9907390" lon="-5.6501640">
        <ele>591.0</ele>
        <time>2022-05-22T14:40:59Z</time>
      </trkpt>
      <trkpt lat="37.9907400" lon="-5.6501390">
        <ele>591.0</ele>
        <time>2022-05-22T14:41:00Z</time>
      </trkpt>
      <trkpt lat="37.9907430" lon="-5.6501210">
        <ele>591.0</ele>
        <time>2022-05-22T14:41:01Z</time>
      </trkpt>
      <trkpt lat="37.9907480" lon="-5.6501030">
        <ele>591.0</ele>
        <time>2022-05-22T14:41:02Z</time>
      </trkpt>
      <trkpt lat="37.9907520" lon="-5.6500800">
        <ele>591.0</ele>
        <time>2022-05-22T14:41:03Z</time>
      </trkpt>
      <trkpt lat="37.9907550" lon="-5.6500620">
        <ele>591.0</ele>
        <time>2022-05-22T14:41:04Z</time>
      </trkpt>
      <trkpt lat="37.9907570" lon="-5.6500350">
        <ele>590.9</ele>
        <time>2022-05-22T14:41:06Z</time>
      </trkpt>
      <trkpt lat="37.9907610" lon="-5.6499980">
        <ele>590.9</ele>
        <time>2022-05-22T14:41:08Z</time>
      </trkpt>
      <trkpt lat="37.9907610" lon="-5.6499850">
        <ele>590.9</ele>
        <time>2022-05-22T14:41:09Z</time>
      </trkpt>
      <trkpt lat="37.9907610" lon="-5.6499690">
        <ele>590.9</ele>
        <time>2022-05-22T14:41:10Z</time>
      </trkpt>
      <trkpt lat="37.9907600" lon="-5.6499530">
        <ele>590.9</ele>
        <time>2022-05-22T14:41:11Z</time>
      </trkpt>
      <trkpt lat="37.9907600" lon="-5.6499270">
        <ele>590.8</ele>
        <time>2022-05-22T14:41:12Z</time>
      </trkpt>
      <trkpt lat="37.9907600" lon="-5.6499160">
        <ele>590.8</ele>
        <time>2022-05-22T14:41:13Z</time>
      </trkpt>
      <trkpt lat="37.9907600" lon="-5.6499040">
        <ele>590.8</ele>
        <time>2022-05-22T14:41:14Z</time>
      </trkpt>
      <trkpt lat="37.9907620" lon="-5.6498930">
        <ele>590.8</ele>
        <time>2022-05-22T14:41:15Z</time>
      </trkpt>
      <trkpt lat="37.9907710" lon="-5.6498710">
        <ele>590.8</ele>
        <time>2022-05-22T14:41:17Z</time>
      </trkpt>
      <trkpt lat="37.9907770" lon="-5.6498750">
        <ele>590.3</ele>
        <time>2022-05-22T14:41:18Z</time>
      </trkpt>
      <trkpt lat="37.9907910" lon="-5.6498750">
        <ele>590.3</ele>
        <time>2022-05-22T14:41:19Z</time>
      </trkpt>
      <trkpt lat="37.9908070" lon="-5.6498710">
        <ele>590.2</ele>
        <time>2022-05-22T14:41:21Z</time>
      </trkpt>
      <trkpt lat="37.9908190" lon="-5.6498700">
        <ele>590.2</ele>
        <time>2022-05-22T14:41:22Z</time>
      </trkpt>
      <trkpt lat="37.9908340" lon="-5.6498730">
        <ele>590.1</ele>
        <time>2022-05-22T14:41:23Z</time>
      </trkpt>
      <trkpt lat="37.9908400" lon="-5.6498730">
        <ele>590.1</ele>
        <time>2022-05-22T14:41:24Z</time>
      </trkpt>
      <trkpt lat="37.9908410" lon="-5.6498730">
        <ele>590.1</ele>
        <time>2022-05-22T14:41:25Z</time>
      </trkpt>
      <trkpt lat="37.9908430" lon="-5.6498710">
        <ele>590.1</ele>
        <time>2022-05-22T14:41:26Z</time>
      </trkpt>
      <trkpt lat="37.9908450" lon="-5.6498700">
        <ele>590.1</ele>
        <time>2022-05-22T14:41:27Z</time>
      </trkpt>
      <trkpt lat="37.9908570" lon="-5.6498670">
        <ele>590.0</ele>
        <time>2022-05-22T14:41:29Z</time>
      </trkpt>
      <trkpt lat="37.9908640" lon="-5.6498640">
        <ele>590.0</ele>
        <time>2022-05-22T14:41:30Z</time>
      </trkpt>
      <trkpt lat="37.9908820" lon="-5.6498530">
        <ele>589.9</ele>
        <time>2022-05-22T14:41:32Z</time>
      </trkpt>
      <trkpt lat="37.9908900" lon="-5.6498490">
        <ele>589.9</ele>
        <time>2022-05-22T14:41:33Z</time>
      </trkpt>
      <trkpt lat="37.9909020" lon="-5.6498400">
        <ele>589.8</ele>
        <time>2022-05-22T14:41:34Z</time>
      </trkpt>
      <trkpt lat="37.9909150" lon="-5.6498290">
        <ele>589.8</ele>
        <time>2022-05-22T14:41:36Z</time>
      </trkpt>
      <trkpt lat="37.9909280" lon="-5.6498180">
        <ele>589.7</ele>
        <time>2022-05-22T14:41:37Z</time>
      </trkpt>
      <trkpt lat="37.9909410" lon="-5.6497980">
        <ele>589.7</ele>
        <time>2022-05-22T14:41:38Z</time>
      </trkpt>
      <trkpt lat="37.9909630" lon="-5.6497720">
        <ele>589.5</ele>
        <time>2022-05-22T14:41:39Z</time>
      </trkpt>
      <trkpt lat="37.9909690" lon="-5.6497640">
        <ele>589.5</ele>
        <time>2022-05-22T14:41:40Z</time>
      </trkpt>
      <trkpt lat="37.9909850" lon="-5.6497470">
        <ele>589.4</ele>
        <time>2022-05-22T14:41:41Z</time>
      </trkpt>
      <trkpt lat="37.9909930" lon="-5.6497390">
        <ele>589.4</ele>
        <time>2022-05-22T14:41:42Z</time>
      </trkpt>
      <trkpt lat="37.9910000" lon="-5.6497320">
        <ele>589.4</ele>
        <time>2022-05-22T14:41:43Z</time>
      </trkpt>
      <trkpt lat="37.9910120" lon="-5.6497220">
        <ele>589.3</ele>
        <time>2022-05-22T14:41:44Z</time>
      </trkpt>
      <trkpt lat="37.9910220" lon="-5.6497130">
        <ele>589.3</ele>
        <time>2022-05-22T14:41:45Z</time>
      </trkpt>
      <trkpt lat="37.9910380" lon="-5.6496960">
        <ele>589.2</ele>
        <time>2022-05-22T14:41:47Z</time>
      </trkpt>
      <trkpt lat="37.9910430" lon="-5.6496830">
        <ele>589.2</ele>
        <time>2022-05-22T14:41:48Z</time>
      </trkpt>
      <trkpt lat="37.9910490" lon="-5.6496740">
        <ele>589.1</ele>
        <time>2022-05-22T14:41:49Z</time>
      </trkpt>
      <trkpt lat="37.9910550" lon="-5.6496640">
        <ele>589.1</ele>
        <time>2022-05-22T14:41:50Z</time>
      </trkpt>
      <trkpt lat="37.9910580" lon="-5.6496520">
        <ele>589.1</ele>
        <time>2022-05-22T14:41:51Z</time>
      </trkpt>
      <trkpt lat="37.9910630" lon="-5.6496420">
        <ele>589.0</ele>
        <time>2022-05-22T14:41:53Z</time>
      </trkpt>
      <trkpt lat="37.9910710" lon="-5.6496310">
        <ele>589.0</ele>
        <time>2022-05-22T14:41:54Z</time>
      </trkpt>
      <trkpt lat="37.9910790" lon="-5.6496220">
        <ele>589.0</ele>
        <time>2022-05-22T14:41:55Z</time>
      </trkpt>
      <trkpt lat="37.9910850" lon="-5.6496130">
        <ele>588.9</ele>
        <time>2022-05-22T14:41:56Z</time>
      </trkpt>
      <trkpt lat="37.9910890" lon="-5.6496030">
        <ele>588.9</ele>
        <time>2022-05-22T14:41:57Z</time>
      </trkpt>
      <trkpt lat="37.9910900" lon="-5.6495890">
        <ele>588.9</ele>
        <time>2022-05-22T14:41:58Z</time>
      </trkpt>
      <trkpt lat="37.9910910" lon="-5.6495770">
        <ele>588.8</ele>
        <time>2022-05-22T14:41:59Z</time>
      </trkpt>
      <trkpt lat="37.9910890" lon="-5.6495610">
        <ele>588.8</ele>
        <time>2022-05-22T14:42:00Z</time>
      </trkpt>
      <trkpt lat="37.9910890" lon="-5.6495510">
        <ele>588.8</ele>
        <time>2022-05-22T14:42:01Z</time>
      </trkpt>
      <trkpt lat="37.9910910" lon="-5.6495380">
        <ele>588.8</ele>
        <time>2022-05-22T14:42:02Z</time>
      </trkpt>
      <trkpt lat="37.9911020" lon="-5.6495200">
        <ele>588.7</ele>
        <time>2022-05-22T14:42:04Z</time>
      </trkpt>
      <trkpt lat="37.9911120" lon="-5.6495090">
        <ele>588.7</ele>
        <time>2022-05-22T14:42:05Z</time>
      </trkpt>
      <trkpt lat="37.9911300" lon="-5.6494970">
        <ele>588.6</ele>
        <time>2022-05-22T14:42:06Z</time>
      </trkpt>
      <trkpt lat="37.9911470" lon="-5.6494930">
        <ele>588.5</ele>
        <time>2022-05-22T14:42:08Z</time>
      </trkpt>
      <trkpt lat="37.9911630" lon="-5.6494900">
        <ele>588.5</ele>
        <time>2022-05-22T14:42:09Z</time>
      </trkpt>
      <trkpt lat="37.9911740" lon="-5.6494970">
        <ele>588.5</ele>
        <time>2022-05-22T14:42:10Z</time>
      </trkpt>
      <trkpt lat="37.9911850" lon="-5.6495000">
        <ele>588.4</ele>
        <time>2022-05-22T14:42:11Z</time>
      </trkpt>
      <trkpt lat="37.9911980" lon="-5.6494990">
        <ele>588.4</ele>
        <time>2022-05-22T14:42:13Z</time>
      </trkpt>
      <trkpt lat="37.9912020" lon="-5.6494990">
        <ele>588.4</ele>
        <time>2022-05-22T14:42:14Z</time>
      </trkpt>
      <trkpt lat="37.9912120" lon="-5.6494960">
        <ele>588.4</ele>
        <time>2022-05-22T14:42:15Z</time>
      </trkpt>
      <trkpt lat="37.9912240" lon="-5.6494900">
        <ele>588.3</ele>
        <time>2022-05-22T14:42:16Z</time>
      </trkpt>
      <trkpt lat="37.9912350" lon="-5.6494800">
        <ele>588.3</ele>
        <time>2022-05-22T14:42:17Z</time>
      </trkpt>
      <trkpt lat="37.9912360" lon="-5.6494740">
        <ele>588.3</ele>
        <time>2022-05-22T14:42:18Z</time>
      </trkpt>
      <trkpt lat="37.9912370" lon="-5.6494680">
        <ele>588.3</ele>
        <time>2022-05-22T14:42:19Z</time>
      </trkpt>
      <trkpt lat="37.9912380" lon="-5.6494630">
        <ele>588.3</ele>
        <time>2022-05-22T14:42:20Z</time>
      </trkpt>
      <trkpt lat="37.9912380" lon="-5.6494570">
        <ele>588.2</ele>
        <time>2022-05-22T14:42:21Z</time>
      </trkpt>
      <trkpt lat="37.9912390" lon="-5.6494510">
        <ele>588.2</ele>
        <time>2022-05-22T14:42:23Z</time>
      </trkpt>
      <trkpt lat="37.9912400" lon="-5.6494450">
        <ele>588.2</ele>
        <time>2022-05-22T14:42:24Z</time>
      </trkpt>
      <trkpt lat="37.9912410" lon="-5.6494390">
        <ele>588.2</ele>
        <time>2022-05-22T14:42:25Z</time>
      </trkpt>
      <trkpt lat="37.9912420" lon="-5.6494340">
        <ele>588.2</ele>
        <time>2022-05-22T14:42:26Z</time>
      </trkpt>
      <trkpt lat="37.9912430" lon="-5.6494280">
        <ele>588.2</ele>
        <time>2022-05-22T14:42:28Z</time>
      </trkpt>
      <trkpt lat="37.9912440" lon="-5.6494220">
        <ele>588.2</ele>
        <time>2022-05-22T14:42:29Z</time>
      </trkpt>
      <trkpt lat="37.9912400" lon="-5.6494090">
        <ele>588.2</ele>
        <time>2022-05-22T14:42:30Z</time>
      </trkpt>
      <trkpt lat="37.9912370" lon="-5.6493950">
        <ele>588.1</ele>
        <time>2022-05-22T14:42:31Z</time>
      </trkpt>
      <trkpt lat="37.9912310" lon="-5.6493660">
        <ele>588.1</ele>
        <time>2022-05-22T14:42:33Z</time>
      </trkpt>
      <trkpt lat="37.9912300" lon="-5.6493500">
        <ele>588.0</ele>
        <time>2022-05-22T14:42:34Z</time>
      </trkpt>
      <trkpt lat="37.9912330" lon="-5.6493320">
        <ele>588.0</ele>
        <time>2022-05-22T14:42:36Z</time>
      </trkpt>
      <trkpt lat="37.9912410" lon="-5.6493150">
        <ele>588.0</ele>
        <time>2022-05-22T14:42:37Z</time>
      </trkpt>
      <trkpt lat="37.9912460" lon="-5.6493040">
        <ele>588.0</ele>
        <time>2022-05-22T14:42:38Z</time>
      </trkpt>
      <trkpt lat="37.9912530" lon="-5.6492940">
        <ele>587.9</ele>
        <time>2022-05-22T14:42:39Z</time>
      </trkpt>
      <trkpt lat="37.9912570" lon="-5.6492880">
        <ele>587.9</ele>
        <time>2022-05-22T14:42:40Z</time>
      </trkpt>
      <trkpt lat="37.9912600" lon="-5.6492850">
        <ele>587.9</ele>
        <time>2022-05-22T14:42:41Z</time>
      </trkpt>
      <trkpt lat="37.9912620" lon="-5.6492830">
        <ele>587.9</ele>
        <time>2022-05-22T14:42:42Z</time>
      </trkpt>
      <trkpt lat="37.9912640" lon="-5.6492790">
        <ele>587.9</ele>
        <time>2022-05-22T14:42:43Z</time>
      </trkpt>
      <trkpt lat="37.9912650" lon="-5.6492760">
        <ele>587.9</ele>
        <time>2022-05-22T14:42:44Z</time>
      </trkpt>
      <trkpt lat="37.9912660" lon="-5.6492710">
        <ele>587.9</ele>
        <time>2022-05-22T14:42:45Z</time>
      </trkpt>
      <trkpt lat="37.9912660" lon="-5.6492680">
        <ele>587.9</ele>
        <time>2022-05-22T14:42:46Z</time>
      </trkpt>
      <trkpt lat="37.9912670" lon="-5.6492660">
        <ele>587.9</ele>
        <time>2022-05-22T14:42:47Z</time>
      </trkpt>
      <trkpt lat="37.9912670" lon="-5.6492630">
        <ele>587.9</ele>
        <time>2022-05-22T14:42:48Z</time>
      </trkpt>
      <trkpt lat="37.9912660" lon="-5.6492620">
        <ele>587.9</ele>
        <time>2022-05-22T14:42:49Z</time>
      </trkpt>
      <trkpt lat="37.9912650" lon="-5.6492620">
        <ele>587.9</ele>
        <time>2022-05-22T14:42:50Z</time>
      </trkpt>
      <trkpt lat="37.9912630" lon="-5.6492640">
        <ele>587.9</ele>
        <time>2022-05-22T14:42:52Z</time>
      </trkpt>
      <trkpt lat="37.9912610" lon="-5.6492640">
        <ele>587.9</ele>
        <time>2022-05-22T14:42:53Z</time>
      </trkpt>
      <trkpt lat="37.9912600" lon="-5.6492640">
        <ele>587.9</ele>
        <time>2022-05-22T14:42:54Z</time>
      </trkpt>
      <trkpt lat="37.9912570" lon="-5.6492640">
        <ele>587.9</ele>
        <time>2022-05-22T14:42:55Z</time>
      </trkpt>
      <trkpt lat="37.9912550" lon="-5.6492670">
        <ele>587.9</ele>
        <time>2022-05-22T14:42:56Z</time>
      </trkpt>
      <trkpt lat="37.9912530" lon="-5.6492670">
        <ele>587.9</ele>
        <time>2022-05-22T14:42:57Z</time>
      </trkpt>
      <trkpt lat="37.9912520" lon="-5.6492680">
        <ele>587.9</ele>
        <time>2022-05-22T14:42:59Z</time>
      </trkpt>
      <trkpt lat="37.9912510" lon="-5.6492690">
        <ele>587.9</ele>
        <time>2022-05-22T14:43:00Z</time>
      </trkpt>
      <trkpt lat="37.9912460" lon="-5.6492640">
        <ele>587.9</ele>
        <time>2022-05-22T14:43:02Z</time>
      </trkpt>
      <trkpt lat="37.9912440" lon="-5.6492590">
        <ele>587.9</ele>
        <time>2022-05-22T14:43:03Z</time>
      </trkpt>
      <trkpt lat="37.9912420" lon="-5.6492540">
        <ele>587.9</ele>
        <time>2022-05-22T14:43:04Z</time>
      </trkpt>
      <trkpt lat="37.9912400" lon="-5.6492510">
        <ele>587.9</ele>
        <time>2022-05-22T14:43:05Z</time>
      </trkpt>
      <trkpt lat="37.9912350" lon="-5.6492550">
        <ele>587.9</ele>
        <time>2022-05-22T14:43:06Z</time>
      </trkpt>
      <trkpt lat="37.9912310" lon="-5.6492600">
        <ele>587.9</ele>
        <time>2022-05-22T14:43:07Z</time>
      </trkpt>
      <trkpt lat="37.9912250" lon="-5.6492660">
        <ele>587.9</ele>
        <time>2022-05-22T14:43:08Z</time>
      </trkpt>
      <trkpt lat="37.9912210" lon="-5.6492680">
        <ele>587.9</ele>
        <time>2022-05-22T14:43:09Z</time>
      </trkpt>
      <trkpt lat="37.9912190" lon="-5.6492690">
        <ele>587.9</ele>
        <time>2022-05-22T14:43:10Z</time>
      </trkpt>
      <trkpt lat="37.9912170" lon="-5.6492690">
        <ele>587.9</ele>
        <time>2022-05-22T14:43:12Z</time>
      </trkpt>
      <trkpt lat="37.9912160" lon="-5.6492680">
        <ele>587.9</ele>
        <time>2022-05-22T14:43:13Z</time>
      </trkpt>
      <trkpt lat="37.9912150" lon="-5.6492660">
        <ele>587.9</ele>
        <time>2022-05-22T14:43:14Z</time>
      </trkpt>
      <trkpt lat="37.9912140" lon="-5.6492630">
        <ele>587.9</ele>
        <time>2022-05-22T14:43:15Z</time>
      </trkpt>
      <trkpt lat="37.9912130" lon="-5.6492620">
        <ele>587.9</ele>
        <time>2022-05-22T14:43:16Z</time>
      </trkpt>
      <trkpt lat="37.9912130" lon="-5.6492610">
        <ele>587.9</ele>
        <time>2022-05-22T14:43:17Z</time>
      </trkpt>
      <trkpt lat="37.9912120" lon="-5.6492610">
        <ele>587.9</ele>
        <time>2022-05-22T14:43:18Z</time>
      </trkpt>
      <trkpt lat="37.9912110" lon="-5.6492610">
        <ele>587.9</ele>
        <time>2022-05-22T14:43:19Z</time>
      </trkpt>
      <trkpt lat="37.9912090" lon="-5.6492620">
        <ele>587.9</ele>
        <time>2022-05-22T14:43:20Z</time>
      </trkpt>
      <trkpt lat="37.9912070" lon="-5.6492620">
        <ele>587.9</ele>
        <time>2022-05-22T14:43:22Z</time>
      </trkpt>
      <trkpt lat="37.9912040" lon="-5.6492650">
        <ele>587.9</ele>
        <time>2022-05-22T14:43:24Z</time>
      </trkpt>
      <trkpt lat="37.9912040" lon="-5.6492720">
        <ele>587.9</ele>
        <time>2022-05-22T14:43:25Z</time>
      </trkpt>
      <trkpt lat="37.9912030" lon="-5.6492770">
        <ele>587.9</ele>
        <time>2022-05-22T14:43:26Z</time>
      </trkpt>
      <trkpt lat="37.9912020" lon="-5.6492790">
        <ele>587.9</ele>
        <time>2022-05-22T14:43:27Z</time>
      </trkpt>
      <trkpt lat="37.9912020" lon="-5.6492800">
        <ele>587.9</ele>
        <time>2022-05-22T14:43:28Z</time>
      </trkpt>
      <trkpt lat="37.9912020" lon="-5.6492790">
        <ele>587.9</ele>
        <time>2022-05-22T14:43:29Z</time>
      </trkpt>
      <trkpt lat="37.9912020" lon="-5.6492780">
        <ele>587.9</ele>
        <time>2022-05-22T14:43:30Z</time>
      </trkpt>
      <trkpt lat="37.9912020" lon="-5.6492780">
        <ele>587.9</ele>
        <time>2022-05-22T14:43:31Z</time>
      </trkpt>
      <trkpt lat="37.9912020" lon="-5.6492780">
        <ele>587.9</ele>
        <time>2022-05-22T14:43:32Z</time>
      </trkpt>
      <trkpt lat="37.9912020" lon="-5.6492780">
        <ele>587.9</ele>
        <time>2022-05-22T14:43:33Z</time>
      </trkpt>
      <trkpt lat="37.9912020" lon="-5.6492790">
        <ele>587.9</ele>
        <time>2022-05-22T14:43:34Z</time>
      </trkpt>
      <trkpt lat="37.9912010" lon="-5.6492800">
        <ele>587.9</ele>
        <time>2022-05-22T14:43:35Z</time>
      </trkpt>
      <trkpt lat="37.9912010" lon="-5.6492810">
        <ele>587.9</ele>
        <time>2022-05-22T14:43:36Z</time>
      </trkpt>
      <trkpt lat="37.9912010" lon="-5.6492810">
        <ele>587.9</ele>
        <time>2022-05-22T14:43:37Z</time>
      </trkpt>
      <trkpt lat="37.9912020" lon="-5.6492810">
        <ele>587.9</ele>
        <time>2022-05-22T14:43:38Z</time>
      </trkpt>
      <trkpt lat="37.9912020" lon="-5.6492820">
        <ele>587.9</ele>
        <time>2022-05-22T14:43:39Z</time>
      </trkpt>
      <trkpt lat="37.9912020" lon="-5.6492830">
        <ele>587.9</ele>
        <time>2022-05-22T14:43:40Z</time>
      </trkpt>
      <trkpt lat="37.9912040" lon="-5.6492850">
        <ele>587.9</ele>
        <time>2022-05-22T14:43:41Z</time>
      </trkpt>
      <trkpt lat="37.9912070" lon="-5.6492850">
        <ele>587.9</ele>
        <time>2022-05-22T14:43:42Z</time>
      </trkpt>
      <trkpt lat="37.9912090" lon="-5.6492850">
        <ele>587.9</ele>
        <time>2022-05-22T14:43:44Z</time>
      </trkpt>
      <trkpt lat="37.9912120" lon="-5.6492850">
        <ele>587.9</ele>
        <time>2022-05-22T14:43:45Z</time>
      </trkpt>
      <trkpt lat="37.9912130" lon="-5.6492840">
        <ele>587.9</ele>
        <time>2022-05-22T14:43:47Z</time>
      </trkpt>
      <trkpt lat="37.9916960" lon="-5.6491750">
        <ele>587.9</ele>
        <time>2022-05-22T15:19:24Z</time>
      </trkpt>
      <trkpt lat="37.9916100" lon="-5.6492230">
        <ele>587.9</ele>
        <time>2022-05-22T15:19:25Z</time>
      </trkpt>
    </trkseg>
  </trk>
</gpx>
